<?xml version="1.0" encoding="UTF-8" standalone="no" ?>
<gpx xmlns="http://www.topografix.com/GPX/1/1" xmlns:xsi="http://www.w3.org/2001/XMLSchema-instance" xsi:schemaLocation="http://www.topografix.com/GPX/1/1 http://www.topografix.com/GPX/1/1/gpx.xsd" version="1.1" creator="VisuGPX - https://www.visugpx.com">
  <metadata>
    <name>2021-08-09 Boucle en Ubaye [Garmin]</name>
    <desc><![CDATA[En partant du Camping le Rioclar direction Meolans Revel.
En partie sur la transubayenne et sur le GR56
Quelques passages en portage (% + caillasses)
Descente vers Seynes sur un single à flanc de montagne, ne pas trop jouer du frein arrière.
Retour par la route jusqu?à Rioclar. ]]></desc>
  </metadata>
  <trk>
    <name><![CDATA[2021-08-09 Boucle en Ubaye [Garmin]_1]]></name>
    <trkseg>
      <trkpt lat="44.39762" lon="6.53009">
        <ele>1059.4</ele>
        <time>2021-08-09T06:20:14Z</time>
      </trkpt>
      <trkpt lat="44.3975" lon="6.53015">
        <ele>1059.4</ele>
        <time>2021-08-09T06:20:19Z</time>
      </trkpt>
      <trkpt lat="44.39741" lon="6.53029">
        <ele>1059</ele>
        <time>2021-08-09T06:20:25Z</time>
      </trkpt>
      <trkpt lat="44.39735" lon="6.53055">
        <ele>1058.8</ele>
        <time>2021-08-09T06:20:31Z</time>
      </trkpt>
      <trkpt lat="44.39738" lon="6.53081">
        <ele>1058.6</ele>
        <time>2021-08-09T06:20:37Z</time>
      </trkpt>
      <trkpt lat="44.39742" lon="6.53107">
        <ele>1058.6</ele>
        <time>2021-08-09T06:20:43Z</time>
      </trkpt>
      <trkpt lat="44.39747" lon="6.53139">
        <ele>1059</ele>
        <time>2021-08-09T06:20:50Z</time>
      </trkpt>
      <trkpt lat="44.39753" lon="6.53168">
        <ele>1059.4</ele>
        <time>2021-08-09T06:20:56Z</time>
      </trkpt>
      <trkpt lat="44.39758" lon="6.53197">
        <ele>1059.4</ele>
        <time>2021-08-09T06:21:02Z</time>
      </trkpt>
      <trkpt lat="44.39769" lon="6.53227">
        <ele>1059.6</ele>
        <time>2021-08-09T06:21:09Z</time>
      </trkpt>
      <trkpt lat="44.39784" lon="6.53255">
        <ele>1060.6</ele>
        <time>2021-08-09T06:21:16Z</time>
      </trkpt>
      <trkpt lat="44.3979" lon="6.53266">
        <ele>1061</ele>
        <time>2021-08-09T06:21:19Z</time>
      </trkpt>
      <trkpt lat="44.39791" lon="6.5327">
        <ele>1061.2</ele>
        <time>2021-08-09T06:21:20Z</time>
      </trkpt>
      <trkpt lat="44.39787" lon="6.53283">
        <ele>1061.6</ele>
        <time>2021-08-09T06:21:23Z</time>
      </trkpt>
      <trkpt lat="44.39784" lon="6.53286">
        <ele>1061.6</ele>
        <time>2021-08-09T06:21:24Z</time>
      </trkpt>
      <trkpt lat="44.39781" lon="6.5329">
        <ele>1061.6</ele>
        <time>2021-08-09T06:21:25Z</time>
      </trkpt>
      <trkpt lat="44.39766" lon="6.533">
        <ele>1061.6</ele>
        <time>2021-08-09T06:21:29Z</time>
      </trkpt>
      <trkpt lat="44.39757" lon="6.53306">
        <ele>1061.6</ele>
        <time>2021-08-09T06:21:31Z</time>
      </trkpt>
      <trkpt lat="44.39748" lon="6.53321">
        <ele>1060.8</ele>
        <time>2021-08-09T06:21:34Z</time>
      </trkpt>
      <trkpt lat="44.39746" lon="6.53325">
        <ele>1060.2</ele>
        <time>2021-08-09T06:21:35Z</time>
      </trkpt>
      <trkpt lat="44.3974" lon="6.53332">
        <ele>1059.2</ele>
        <time>2021-08-09T06:21:38Z</time>
      </trkpt>
      <trkpt lat="44.39735" lon="6.53333">
        <ele>1058</ele>
        <time>2021-08-09T06:21:40Z</time>
      </trkpt>
      <trkpt lat="44.39732" lon="6.53332">
        <ele>1057.2</ele>
        <time>2021-08-09T06:21:42Z</time>
      </trkpt>
      <trkpt lat="44.39732" lon="6.53331">
        <ele>1057</ele>
        <time>2021-08-09T06:21:43Z</time>
      </trkpt>
      <trkpt lat="44.39729" lon="6.53331">
        <ele>1056.8</ele>
        <time>2021-08-09T06:21:47Z</time>
      </trkpt>
      <trkpt lat="44.39726" lon="6.53331">
        <ele>1056.8</ele>
        <time>2021-08-09T06:21:49Z</time>
      </trkpt>
      <trkpt lat="44.39725" lon="6.53325">
        <ele>1056.8</ele>
        <time>2021-08-09T06:21:52Z</time>
      </trkpt>
      <trkpt lat="44.39726" lon="6.53311">
        <ele>1056.8</ele>
        <time>2021-08-09T06:21:56Z</time>
      </trkpt>
      <trkpt lat="44.39726" lon="6.53295">
        <ele>1056.8</ele>
        <time>2021-08-09T06:22:00Z</time>
      </trkpt>
      <trkpt lat="44.39727" lon="6.53282">
        <ele>1056.8</ele>
        <time>2021-08-09T06:22:03Z</time>
      </trkpt>
      <trkpt lat="44.39727" lon="6.53278">
        <ele>1056.8</ele>
        <time>2021-08-09T06:22:04Z</time>
      </trkpt>
      <trkpt lat="44.39727" lon="6.5326">
        <ele>1056.8</ele>
        <time>2021-08-09T06:22:08Z</time>
      </trkpt>
      <trkpt lat="44.39727" lon="6.53255">
        <ele>1056.8</ele>
        <time>2021-08-09T06:22:09Z</time>
      </trkpt>
      <trkpt lat="44.39729" lon="6.53227">
        <ele>1057</ele>
        <time>2021-08-09T06:22:15Z</time>
      </trkpt>
      <trkpt lat="44.3973" lon="6.53222">
        <ele>1057</ele>
        <time>2021-08-09T06:22:16Z</time>
      </trkpt>
      <trkpt lat="44.39733" lon="6.53211">
        <ele>1056.8</ele>
        <time>2021-08-09T06:22:18Z</time>
      </trkpt>
      <trkpt lat="44.39732" lon="6.53206">
        <ele>1056.8</ele>
        <time>2021-08-09T06:22:19Z</time>
      </trkpt>
      <trkpt lat="44.39732" lon="6.53198">
        <ele>1056.8</ele>
        <time>2021-08-09T06:22:21Z</time>
      </trkpt>
      <trkpt lat="44.39733" lon="6.53184">
        <ele>1056.8</ele>
        <time>2021-08-09T06:22:24Z</time>
      </trkpt>
      <trkpt lat="44.39732" lon="6.53178">
        <ele>1057</ele>
        <time>2021-08-09T06:22:26Z</time>
      </trkpt>
      <trkpt lat="44.39728" lon="6.53161">
        <ele>1057</ele>
        <time>2021-08-09T06:22:30Z</time>
      </trkpt>
      <trkpt lat="44.39726" lon="6.53152">
        <ele>1057</ele>
        <time>2021-08-09T06:22:32Z</time>
      </trkpt>
      <trkpt lat="44.39725" lon="6.53146">
        <ele>1057</ele>
        <time>2021-08-09T06:22:34Z</time>
      </trkpt>
      <trkpt lat="44.39721" lon="6.53129">
        <ele>1057.2</ele>
        <time>2021-08-09T06:22:38Z</time>
      </trkpt>
      <trkpt lat="44.39721" lon="6.53115">
        <ele>1057.2</ele>
        <time>2021-08-09T06:22:41Z</time>
      </trkpt>
      <trkpt lat="44.39721" lon="6.53108">
        <ele>1057.2</ele>
        <time>2021-08-09T06:22:42Z</time>
      </trkpt>
      <trkpt lat="44.3972" lon="6.53081">
        <ele>1057</ele>
        <time>2021-08-09T06:22:47Z</time>
      </trkpt>
      <trkpt lat="44.39721" lon="6.53051">
        <ele>1057</ele>
        <time>2021-08-09T06:22:53Z</time>
      </trkpt>
      <trkpt lat="44.39725" lon="6.53027">
        <ele>1056.8</ele>
        <time>2021-08-09T06:22:58Z</time>
      </trkpt>
      <trkpt lat="44.3973" lon="6.53003">
        <ele>1056.6</ele>
        <time>2021-08-09T06:23:03Z</time>
      </trkpt>
      <trkpt lat="44.39738" lon="6.52983">
        <ele>1056.4</ele>
        <time>2021-08-09T06:23:08Z</time>
      </trkpt>
      <trkpt lat="44.39744" lon="6.52969">
        <ele>1056.2</ele>
        <time>2021-08-09T06:23:13Z</time>
      </trkpt>
      <trkpt lat="44.3975" lon="6.52951">
        <ele>1056.4</ele>
        <time>2021-08-09T06:23:19Z</time>
      </trkpt>
      <trkpt lat="44.39752" lon="6.52948">
        <ele>1056.4</ele>
        <time>2021-08-09T06:23:20Z</time>
      </trkpt>
      <trkpt lat="44.39758" lon="6.52939">
        <ele>1056.4</ele>
        <time>2021-08-09T06:23:23Z</time>
      </trkpt>
      <trkpt lat="44.39763" lon="6.5293">
        <ele>1056.6</ele>
        <time>2021-08-09T06:23:26Z</time>
      </trkpt>
      <trkpt lat="44.39767" lon="6.52927">
        <ele>1056.6</ele>
        <time>2021-08-09T06:23:27Z</time>
      </trkpt>
      <trkpt lat="44.39782" lon="6.52912">
        <ele>1056.6</ele>
        <time>2021-08-09T06:23:31Z</time>
      </trkpt>
      <trkpt lat="44.39785" lon="6.52908">
        <ele>1056.6</ele>
        <time>2021-08-09T06:23:32Z</time>
      </trkpt>
      <trkpt lat="44.39789" lon="6.529">
        <ele>1056.6</ele>
        <time>2021-08-09T06:23:34Z</time>
      </trkpt>
      <trkpt lat="44.39796" lon="6.52887">
        <ele>1056.4</ele>
        <time>2021-08-09T06:23:38Z</time>
      </trkpt>
      <trkpt lat="44.398" lon="6.5288">
        <ele>1055.8</ele>
        <time>2021-08-09T06:23:40Z</time>
      </trkpt>
      <trkpt lat="44.39805" lon="6.52874">
        <ele>1055.6</ele>
        <time>2021-08-09T06:23:42Z</time>
      </trkpt>
      <trkpt lat="44.39807" lon="6.5287">
        <ele>1055.4</ele>
        <time>2021-08-09T06:23:43Z</time>
      </trkpt>
      <trkpt lat="44.39819" lon="6.52853">
        <ele>1055</ele>
        <time>2021-08-09T06:23:48Z</time>
      </trkpt>
      <trkpt lat="44.39835" lon="6.52839">
        <ele>1055</ele>
        <time>2021-08-09T06:23:53Z</time>
      </trkpt>
      <trkpt lat="44.39839" lon="6.52838">
        <ele>1055</ele>
        <time>2021-08-09T06:23:54Z</time>
      </trkpt>
      <trkpt lat="44.39852" lon="6.52833">
        <ele>1055</ele>
        <time>2021-08-09T06:23:57Z</time>
      </trkpt>
      <trkpt lat="44.39862" lon="6.52824">
        <ele>1055.2</ele>
        <time>2021-08-09T06:24:00Z</time>
      </trkpt>
      <trkpt lat="44.39869" lon="6.52801">
        <ele>1055.2</ele>
        <time>2021-08-09T06:24:04Z</time>
      </trkpt>
      <trkpt lat="44.39869" lon="6.52794">
        <ele>1055.2</ele>
        <time>2021-08-09T06:24:05Z</time>
      </trkpt>
      <trkpt lat="44.39872" lon="6.52778">
        <ele>1055.2</ele>
        <time>2021-08-09T06:24:07Z</time>
      </trkpt>
      <trkpt lat="44.39877" lon="6.52762">
        <ele>1055.2</ele>
        <time>2021-08-09T06:24:09Z</time>
      </trkpt>
      <trkpt lat="44.39893" lon="6.5273">
        <ele>1054.8</ele>
        <time>2021-08-09T06:24:13Z</time>
      </trkpt>
      <trkpt lat="44.39897" lon="6.52721">
        <ele>1054.6</ele>
        <time>2021-08-09T06:24:14Z</time>
      </trkpt>
      <trkpt lat="44.39901" lon="6.52711">
        <ele>1054.4</ele>
        <time>2021-08-09T06:24:15Z</time>
      </trkpt>
      <trkpt lat="44.39912" lon="6.52679">
        <ele>1053</ele>
        <time>2021-08-09T06:24:18Z</time>
      </trkpt>
      <trkpt lat="44.39915" lon="6.52668">
        <ele>1053</ele>
        <time>2021-08-09T06:24:19Z</time>
      </trkpt>
      <trkpt lat="44.39918" lon="6.52657">
        <ele>1052.4</ele>
        <time>2021-08-09T06:24:20Z</time>
      </trkpt>
      <trkpt lat="44.3992" lon="6.52645">
        <ele>1052</ele>
        <time>2021-08-09T06:24:21Z</time>
      </trkpt>
      <trkpt lat="44.39925" lon="6.52622">
        <ele>1050.4</ele>
        <time>2021-08-09T06:24:23Z</time>
      </trkpt>
      <trkpt lat="44.39929" lon="6.52598">
        <ele>1049</ele>
        <time>2021-08-09T06:24:25Z</time>
      </trkpt>
      <trkpt lat="44.39932" lon="6.52576">
        <ele>1047.6</ele>
        <time>2021-08-09T06:24:27Z</time>
      </trkpt>
      <trkpt lat="44.39936" lon="6.52555">
        <ele>1046.6</ele>
        <time>2021-08-09T06:24:29Z</time>
      </trkpt>
      <trkpt lat="44.39938" lon="6.52546">
        <ele>1046.2</ele>
        <time>2021-08-09T06:24:30Z</time>
      </trkpt>
      <trkpt lat="44.39942" lon="6.52527">
        <ele>1045</ele>
        <time>2021-08-09T06:24:32Z</time>
      </trkpt>
      <trkpt lat="44.39947" lon="6.52498">
        <ele>1044</ele>
        <time>2021-08-09T06:24:35Z</time>
      </trkpt>
      <trkpt lat="44.39958" lon="6.52434">
        <ele>1043.4</ele>
        <time>2021-08-09T06:24:42Z</time>
      </trkpt>
      <trkpt lat="44.39967" lon="6.52389">
        <ele>1043.4</ele>
        <time>2021-08-09T06:24:47Z</time>
      </trkpt>
      <trkpt lat="44.39972" lon="6.52361">
        <ele>1042.8</ele>
        <time>2021-08-09T06:24:50Z</time>
      </trkpt>
      <trkpt lat="44.39974" lon="6.52332">
        <ele>1042.6</ele>
        <time>2021-08-09T06:24:53Z</time>
      </trkpt>
      <trkpt lat="44.39977" lon="6.52295">
        <ele>1041.8</ele>
        <time>2021-08-09T06:24:57Z</time>
      </trkpt>
      <trkpt lat="44.39978" lon="6.52278">
        <ele>1041.4</ele>
        <time>2021-08-09T06:24:59Z</time>
      </trkpt>
      <trkpt lat="44.3998" lon="6.52261">
        <ele>1041.2</ele>
        <time>2021-08-09T06:25:01Z</time>
      </trkpt>
      <trkpt lat="44.39978" lon="6.52232">
        <ele>1040.8</ele>
        <time>2021-08-09T06:25:04Z</time>
      </trkpt>
      <trkpt lat="44.39976" lon="6.52167">
        <ele>1040.2</ele>
        <time>2021-08-09T06:25:11Z</time>
      </trkpt>
      <trkpt lat="44.39975" lon="6.52158">
        <ele>1040</ele>
        <time>2021-08-09T06:25:12Z</time>
      </trkpt>
      <trkpt lat="44.39974" lon="6.52139">
        <ele>1040</ele>
        <time>2021-08-09T06:25:15Z</time>
      </trkpt>
      <trkpt lat="44.39973" lon="6.52135">
        <ele>1040</ele>
        <time>2021-08-09T06:25:16Z</time>
      </trkpt>
      <trkpt lat="44.39971" lon="6.52132">
        <ele>1040</ele>
        <time>2021-08-09T06:25:18Z</time>
      </trkpt>
      <trkpt lat="44.3997" lon="6.52131">
        <ele>1040</ele>
        <time>2021-08-09T06:25:20Z</time>
      </trkpt>
      <trkpt lat="44.39971" lon="6.52129">
        <ele>1040.8</ele>
        <time>2021-08-09T06:26:44Z</time>
      </trkpt>
      <trkpt lat="44.39971" lon="6.52128">
        <ele>1040.8</ele>
        <time>2021-08-09T06:26:45Z</time>
      </trkpt>
      <trkpt lat="44.39971" lon="6.52126">
        <ele>1040.8</ele>
        <time>2021-08-09T06:26:46Z</time>
      </trkpt>
      <trkpt lat="44.3997" lon="6.52111">
        <ele>1040.8</ele>
        <time>2021-08-09T06:26:50Z</time>
      </trkpt>
      <trkpt lat="44.39969" lon="6.52107">
        <ele>1040.8</ele>
        <time>2021-08-09T06:26:51Z</time>
      </trkpt>
      <trkpt lat="44.39969" lon="6.5209">
        <ele>1040.8</ele>
        <time>2021-08-09T06:26:54Z</time>
      </trkpt>
      <trkpt lat="44.39969" lon="6.52072">
        <ele>1040.6</ele>
        <time>2021-08-09T06:26:57Z</time>
      </trkpt>
      <trkpt lat="44.39968" lon="6.52059">
        <ele>1040.4</ele>
        <time>2021-08-09T06:26:59Z</time>
      </trkpt>
      <trkpt lat="44.39962" lon="6.5204">
        <ele>1040</ele>
        <time>2021-08-09T06:27:02Z</time>
      </trkpt>
      <trkpt lat="44.39961" lon="6.52033">
        <ele>1040</ele>
        <time>2021-08-09T06:27:03Z</time>
      </trkpt>
      <trkpt lat="44.39961" lon="6.52006">
        <ele>1039.8</ele>
        <time>2021-08-09T06:27:06Z</time>
      </trkpt>
      <trkpt lat="44.39961" lon="6.51997">
        <ele>1039.6</ele>
        <time>2021-08-09T06:27:07Z</time>
      </trkpt>
      <trkpt lat="44.39963" lon="6.51987">
        <ele>1039.6</ele>
        <time>2021-08-09T06:27:08Z</time>
      </trkpt>
      <trkpt lat="44.39967" lon="6.51969">
        <ele>1039.6</ele>
        <time>2021-08-09T06:27:10Z</time>
      </trkpt>
      <trkpt lat="44.39969" lon="6.5196">
        <ele>1039.4</ele>
        <time>2021-08-09T06:27:11Z</time>
      </trkpt>
      <trkpt lat="44.39973" lon="6.51933">
        <ele>1038.4</ele>
        <time>2021-08-09T06:27:14Z</time>
      </trkpt>
      <trkpt lat="44.39974" lon="6.51924">
        <ele>1038.2</ele>
        <time>2021-08-09T06:27:15Z</time>
      </trkpt>
      <trkpt lat="44.39988" lon="6.51884">
        <ele>1037.4</ele>
        <time>2021-08-09T06:27:20Z</time>
      </trkpt>
      <trkpt lat="44.39991" lon="6.51876">
        <ele>1037</ele>
        <time>2021-08-09T06:27:21Z</time>
      </trkpt>
      <trkpt lat="44.4001" lon="6.51829">
        <ele>1036.4</ele>
        <time>2021-08-09T06:27:27Z</time>
      </trkpt>
      <trkpt lat="44.40016" lon="6.51815">
        <ele>1036.4</ele>
        <time>2021-08-09T06:27:29Z</time>
      </trkpt>
      <trkpt lat="44.40018" lon="6.51807">
        <ele>1036.4</ele>
        <time>2021-08-09T06:27:30Z</time>
      </trkpt>
      <trkpt lat="44.40019" lon="6.51798">
        <ele>1036.2</ele>
        <time>2021-08-09T06:27:31Z</time>
      </trkpt>
      <trkpt lat="44.40018" lon="6.51773">
        <ele>1036.2</ele>
        <time>2021-08-09T06:27:34Z</time>
      </trkpt>
      <trkpt lat="44.40018" lon="6.51765">
        <ele>1036</ele>
        <time>2021-08-09T06:27:35Z</time>
      </trkpt>
      <trkpt lat="44.40024" lon="6.51732">
        <ele>1035.4</ele>
        <time>2021-08-09T06:27:39Z</time>
      </trkpt>
      <trkpt lat="44.40028" lon="6.51716">
        <ele>1035.4</ele>
        <time>2021-08-09T06:27:41Z</time>
      </trkpt>
      <trkpt lat="44.40031" lon="6.51708">
        <ele>1035.2</ele>
        <time>2021-08-09T06:27:42Z</time>
      </trkpt>
      <trkpt lat="44.40035" lon="6.51693">
        <ele>1035.2</ele>
        <time>2021-08-09T06:27:44Z</time>
      </trkpt>
      <trkpt lat="44.40041" lon="6.5167">
        <ele>1035.2</ele>
        <time>2021-08-09T06:27:47Z</time>
      </trkpt>
      <trkpt lat="44.40045" lon="6.51657">
        <ele>1035.2</ele>
        <time>2021-08-09T06:27:49Z</time>
      </trkpt>
      <trkpt lat="44.40052" lon="6.51643">
        <ele>1035.2</ele>
        <time>2021-08-09T06:27:53Z</time>
      </trkpt>
      <trkpt lat="44.40059" lon="6.51625">
        <ele>1036.4</ele>
        <time>2021-08-09T06:27:59Z</time>
      </trkpt>
      <trkpt lat="44.4006" lon="6.51621">
        <ele>1036.8</ele>
        <time>2021-08-09T06:28:00Z</time>
      </trkpt>
      <trkpt lat="44.40063" lon="6.51612">
        <ele>1038</ele>
        <time>2021-08-09T06:28:02Z</time>
      </trkpt>
      <trkpt lat="44.40067" lon="6.51597">
        <ele>1039.2</ele>
        <time>2021-08-09T06:28:05Z</time>
      </trkpt>
      <trkpt lat="44.40068" lon="6.51591">
        <ele>1039.4</ele>
        <time>2021-08-09T06:28:06Z</time>
      </trkpt>
      <trkpt lat="44.40076" lon="6.51551">
        <ele>1039.8</ele>
        <time>2021-08-09T06:28:12Z</time>
      </trkpt>
      <trkpt lat="44.40081" lon="6.51502">
        <ele>1039.6</ele>
        <time>2021-08-09T06:28:18Z</time>
      </trkpt>
      <trkpt lat="44.40077" lon="6.51452">
        <ele>1039.2</ele>
        <time>2021-08-09T06:28:24Z</time>
      </trkpt>
      <trkpt lat="44.40068" lon="6.51405">
        <ele>1038.6</ele>
        <time>2021-08-09T06:28:30Z</time>
      </trkpt>
      <trkpt lat="44.40061" lon="6.5136">
        <ele>1038.2</ele>
        <time>2021-08-09T06:28:35Z</time>
      </trkpt>
      <trkpt lat="44.4006" lon="6.51314">
        <ele>1038</ele>
        <time>2021-08-09T06:28:40Z</time>
      </trkpt>
      <trkpt lat="44.40061" lon="6.51304">
        <ele>1037.8</ele>
        <time>2021-08-09T06:28:41Z</time>
      </trkpt>
      <trkpt lat="44.40063" lon="6.51287">
        <ele>1037.2</ele>
        <time>2021-08-09T06:28:43Z</time>
      </trkpt>
      <trkpt lat="44.4007" lon="6.51266">
        <ele>1036.6</ele>
        <time>2021-08-09T06:28:46Z</time>
      </trkpt>
      <trkpt lat="44.4008" lon="6.51233">
        <ele>1036.2</ele>
        <time>2021-08-09T06:28:52Z</time>
      </trkpt>
      <trkpt lat="44.40079" lon="6.51223">
        <ele>1036.2</ele>
        <time>2021-08-09T06:28:54Z</time>
      </trkpt>
      <trkpt lat="44.40076" lon="6.51219">
        <ele>1036.2</ele>
        <time>2021-08-09T06:28:55Z</time>
      </trkpt>
      <trkpt lat="44.40064" lon="6.51215">
        <ele>1036.6</ele>
        <time>2021-08-09T06:28:58Z</time>
      </trkpt>
      <trkpt lat="44.40059" lon="6.51214">
        <ele>1036.8</ele>
        <time>2021-08-09T06:28:59Z</time>
      </trkpt>
      <trkpt lat="44.40026" lon="6.5121">
        <ele>1036.8</ele>
        <time>2021-08-09T06:29:06Z</time>
      </trkpt>
      <trkpt lat="44.40021" lon="6.51207">
        <ele>1036.8</ele>
        <time>2021-08-09T06:29:07Z</time>
      </trkpt>
      <trkpt lat="44.40009" lon="6.51192">
        <ele>1036.8</ele>
        <time>2021-08-09T06:29:11Z</time>
      </trkpt>
      <trkpt lat="44.40006" lon="6.51187">
        <ele>1036.8</ele>
        <time>2021-08-09T06:29:12Z</time>
      </trkpt>
      <trkpt lat="44.4" lon="6.51168">
        <ele>1036.8</ele>
        <time>2021-08-09T06:29:16Z</time>
      </trkpt>
      <trkpt lat="44.39995" lon="6.51148">
        <ele>1037.8</ele>
        <time>2021-08-09T06:29:20Z</time>
      </trkpt>
      <trkpt lat="44.3999" lon="6.51135">
        <ele>1038.4</ele>
        <time>2021-08-09T06:29:23Z</time>
      </trkpt>
      <trkpt lat="44.39985" lon="6.51129">
        <ele>1039</ele>
        <time>2021-08-09T06:29:25Z</time>
      </trkpt>
      <trkpt lat="44.39975" lon="6.51118">
        <ele>1039.6</ele>
        <time>2021-08-09T06:29:29Z</time>
      </trkpt>
      <trkpt lat="44.3997" lon="6.5111">
        <ele>1040.2</ele>
        <time>2021-08-09T06:29:32Z</time>
      </trkpt>
      <trkpt lat="44.39968" lon="6.51101">
        <ele>1040.4</ele>
        <time>2021-08-09T06:29:35Z</time>
      </trkpt>
      <trkpt lat="44.39967" lon="6.5109">
        <ele>1041.4</ele>
        <time>2021-08-09T06:29:39Z</time>
      </trkpt>
      <trkpt lat="44.39964" lon="6.51081">
        <ele>1042.2</ele>
        <time>2021-08-09T06:29:42Z</time>
      </trkpt>
      <trkpt lat="44.39964" lon="6.51078">
        <ele>1042.6</ele>
        <time>2021-08-09T06:29:43Z</time>
      </trkpt>
      <trkpt lat="44.39961" lon="6.51069">
        <ele>1043.8</ele>
        <time>2021-08-09T06:29:46Z</time>
      </trkpt>
      <trkpt lat="44.39958" lon="6.51064">
        <ele>1044.6</ele>
        <time>2021-08-09T06:29:48Z</time>
      </trkpt>
      <trkpt lat="44.39957" lon="6.51061">
        <ele>1044.8</ele>
        <time>2021-08-09T06:29:49Z</time>
      </trkpt>
      <trkpt lat="44.39953" lon="6.51049">
        <ele>1045.8</ele>
        <time>2021-08-09T06:29:53Z</time>
      </trkpt>
      <trkpt lat="44.3995" lon="6.51036">
        <ele>1046.8</ele>
        <time>2021-08-09T06:29:58Z</time>
      </trkpt>
      <trkpt lat="44.3995" lon="6.51031">
        <ele>1047.2</ele>
        <time>2021-08-09T06:30:00Z</time>
      </trkpt>
      <trkpt lat="44.39949" lon="6.51019">
        <ele>1047.8</ele>
        <time>2021-08-09T06:30:04Z</time>
      </trkpt>
      <trkpt lat="44.39949" lon="6.51017">
        <ele>1048</ele>
        <time>2021-08-09T06:30:05Z</time>
      </trkpt>
      <trkpt lat="44.39947" lon="6.51">
        <ele>1049</ele>
        <time>2021-08-09T06:30:11Z</time>
      </trkpt>
      <trkpt lat="44.39943" lon="6.50982">
        <ele>1050</ele>
        <time>2021-08-09T06:30:17Z</time>
      </trkpt>
      <trkpt lat="44.39942" lon="6.50979">
        <ele>1050</ele>
        <time>2021-08-09T06:30:18Z</time>
      </trkpt>
      <trkpt lat="44.39938" lon="6.50963">
        <ele>1051</ele>
        <time>2021-08-09T06:30:23Z</time>
      </trkpt>
      <trkpt lat="44.39936" lon="6.50959">
        <ele>1051.2</ele>
        <time>2021-08-09T06:30:24Z</time>
      </trkpt>
      <trkpt lat="44.3993" lon="6.50941">
        <ele>1052.2</ele>
        <time>2021-08-09T06:30:30Z</time>
      </trkpt>
      <trkpt lat="44.39924" lon="6.50923">
        <ele>1053.2</ele>
        <time>2021-08-09T06:30:35Z</time>
      </trkpt>
      <trkpt lat="44.39923" lon="6.50916">
        <ele>1053.6</ele>
        <time>2021-08-09T06:30:37Z</time>
      </trkpt>
      <trkpt lat="44.39919" lon="6.50904">
        <ele>1054.4</ele>
        <time>2021-08-09T06:30:41Z</time>
      </trkpt>
      <trkpt lat="44.39915" lon="6.50892">
        <ele>1055</ele>
        <time>2021-08-09T06:30:45Z</time>
      </trkpt>
      <trkpt lat="44.39912" lon="6.50885">
        <ele>1055.6</ele>
        <time>2021-08-09T06:30:48Z</time>
      </trkpt>
      <trkpt lat="44.39909" lon="6.50878">
        <ele>1056.2</ele>
        <time>2021-08-09T06:30:51Z</time>
      </trkpt>
      <trkpt lat="44.39907" lon="6.50874">
        <ele>1056.6</ele>
        <time>2021-08-09T06:30:53Z</time>
      </trkpt>
      <trkpt lat="44.39902" lon="6.50867">
        <ele>1057.6</ele>
        <time>2021-08-09T06:30:57Z</time>
      </trkpt>
      <trkpt lat="44.39901" lon="6.50865">
        <ele>1057.8</ele>
        <time>2021-08-09T06:30:58Z</time>
      </trkpt>
      <trkpt lat="44.39894" lon="6.50857">
        <ele>1059</ele>
        <time>2021-08-09T06:31:03Z</time>
      </trkpt>
      <trkpt lat="44.39891" lon="6.50853">
        <ele>1059.6</ele>
        <time>2021-08-09T06:31:05Z</time>
      </trkpt>
      <trkpt lat="44.39888" lon="6.50848">
        <ele>1060.2</ele>
        <time>2021-08-09T06:31:07Z</time>
      </trkpt>
      <trkpt lat="44.39881" lon="6.5084">
        <ele>1061.4</ele>
        <time>2021-08-09T06:31:11Z</time>
      </trkpt>
      <trkpt lat="44.39877" lon="6.50832">
        <ele>1062.6</ele>
        <time>2021-08-09T06:31:14Z</time>
      </trkpt>
      <trkpt lat="44.39871" lon="6.50822">
        <ele>1063.6</ele>
        <time>2021-08-09T06:31:18Z</time>
      </trkpt>
      <trkpt lat="44.39869" lon="6.5082">
        <ele>1063.8</ele>
        <time>2021-08-09T06:31:19Z</time>
      </trkpt>
      <trkpt lat="44.39863" lon="6.50807">
        <ele>1064.8</ele>
        <time>2021-08-09T06:31:23Z</time>
      </trkpt>
      <trkpt lat="44.39859" lon="6.50797">
        <ele>1065.4</ele>
        <time>2021-08-09T06:31:26Z</time>
      </trkpt>
      <trkpt lat="44.39856" lon="6.50789">
        <ele>1066</ele>
        <time>2021-08-09T06:31:29Z</time>
      </trkpt>
      <trkpt lat="44.39851" lon="6.50776">
        <ele>1066.6</ele>
        <time>2021-08-09T06:31:34Z</time>
      </trkpt>
      <trkpt lat="44.39847" lon="6.50769">
        <ele>1067.2</ele>
        <time>2021-08-09T06:31:37Z</time>
      </trkpt>
      <trkpt lat="44.39843" lon="6.50761">
        <ele>1068.2</ele>
        <time>2021-08-09T06:31:41Z</time>
      </trkpt>
      <trkpt lat="44.39842" lon="6.5076">
        <ele>1068.6</ele>
        <time>2021-08-09T06:31:42Z</time>
      </trkpt>
      <trkpt lat="44.39839" lon="6.50756">
        <ele>1069.4</ele>
        <time>2021-08-09T06:31:44Z</time>
      </trkpt>
      <trkpt lat="44.39833" lon="6.50749">
        <ele>1070.4</ele>
        <time>2021-08-09T06:31:48Z</time>
      </trkpt>
      <trkpt lat="44.39831" lon="6.50746">
        <ele>1070.8</ele>
        <time>2021-08-09T06:31:49Z</time>
      </trkpt>
      <trkpt lat="44.39826" lon="6.50739">
        <ele>1071.6</ele>
        <time>2021-08-09T06:31:52Z</time>
      </trkpt>
      <trkpt lat="44.39822" lon="6.5073">
        <ele>1072.4</ele>
        <time>2021-08-09T06:31:55Z</time>
      </trkpt>
      <trkpt lat="44.39821" lon="6.50727">
        <ele>1072.6</ele>
        <time>2021-08-09T06:31:56Z</time>
      </trkpt>
      <trkpt lat="44.39815" lon="6.50715">
        <ele>1073.6</ele>
        <time>2021-08-09T06:32:00Z</time>
      </trkpt>
      <trkpt lat="44.39811" lon="6.50704">
        <ele>1074.4</ele>
        <time>2021-08-09T06:32:04Z</time>
      </trkpt>
      <trkpt lat="44.39808" lon="6.50697">
        <ele>1074.6</ele>
        <time>2021-08-09T06:32:07Z</time>
      </trkpt>
      <trkpt lat="44.39802" lon="6.50692">
        <ele>1075.4</ele>
        <time>2021-08-09T06:32:10Z</time>
      </trkpt>
      <trkpt lat="44.39797" lon="6.5069">
        <ele>1075.8</ele>
        <time>2021-08-09T06:32:12Z</time>
      </trkpt>
      <trkpt lat="44.39785" lon="6.5068">
        <ele>1076.4</ele>
        <time>2021-08-09T06:32:18Z</time>
      </trkpt>
      <trkpt lat="44.39777" lon="6.50669">
        <ele>1076.4</ele>
        <time>2021-08-09T06:32:23Z</time>
      </trkpt>
      <trkpt lat="44.39773" lon="6.50664">
        <ele>1076.8</ele>
        <time>2021-08-09T06:32:25Z</time>
      </trkpt>
      <trkpt lat="44.3977" lon="6.50656">
        <ele>1076.6</ele>
        <time>2021-08-09T06:32:27Z</time>
      </trkpt>
      <trkpt lat="44.39764" lon="6.50648">
        <ele>1076.6</ele>
        <time>2021-08-09T06:32:29Z</time>
      </trkpt>
      <trkpt lat="44.39761" lon="6.5064">
        <ele>1076.6</ele>
        <time>2021-08-09T06:32:31Z</time>
      </trkpt>
      <trkpt lat="44.39762" lon="6.50624">
        <ele>1076.6</ele>
        <time>2021-08-09T06:32:34Z</time>
      </trkpt>
      <trkpt lat="44.39761" lon="6.50618">
        <ele>1076.4</ele>
        <time>2021-08-09T06:32:35Z</time>
      </trkpt>
      <trkpt lat="44.39762" lon="6.50611">
        <ele>1076</ele>
        <time>2021-08-09T06:32:36Z</time>
      </trkpt>
      <trkpt lat="44.39763" lon="6.50605">
        <ele>1075.2</ele>
        <time>2021-08-09T06:32:37Z</time>
      </trkpt>
      <trkpt lat="44.39764" lon="6.50599">
        <ele>1073.6</ele>
        <time>2021-08-09T06:32:38Z</time>
      </trkpt>
      <trkpt lat="44.39765" lon="6.50593">
        <ele>1073</ele>
        <time>2021-08-09T06:32:39Z</time>
      </trkpt>
      <trkpt lat="44.39765" lon="6.50588">
        <ele>1072.4</ele>
        <time>2021-08-09T06:32:40Z</time>
      </trkpt>
      <trkpt lat="44.39765" lon="6.50582">
        <ele>1071</ele>
        <time>2021-08-09T06:32:42Z</time>
      </trkpt>
      <trkpt lat="44.39765" lon="6.50579">
        <ele>1070.4</ele>
        <time>2021-08-09T06:32:43Z</time>
      </trkpt>
      <trkpt lat="44.39765" lon="6.50578">
        <ele>1069.6</ele>
        <time>2021-08-09T06:32:44Z</time>
      </trkpt>
      <trkpt lat="44.39765" lon="6.50573">
        <ele>1068</ele>
        <time>2021-08-09T06:32:46Z</time>
      </trkpt>
      <trkpt lat="44.39763" lon="6.50563">
        <ele>1066.8</ele>
        <time>2021-08-09T06:32:49Z</time>
      </trkpt>
      <trkpt lat="44.39763" lon="6.50552">
        <ele>1066.2</ele>
        <time>2021-08-09T06:32:51Z</time>
      </trkpt>
      <trkpt lat="44.39763" lon="6.50539">
        <ele>1065.8</ele>
        <time>2021-08-09T06:32:53Z</time>
      </trkpt>
      <trkpt lat="44.39763" lon="6.50533">
        <ele>1065.6</ele>
        <time>2021-08-09T06:32:54Z</time>
      </trkpt>
      <trkpt lat="44.39773" lon="6.50506">
        <ele>1064.4</ele>
        <time>2021-08-09T06:32:58Z</time>
      </trkpt>
      <trkpt lat="44.39782" lon="6.50496">
        <ele>1063.6</ele>
        <time>2021-08-09T06:33:00Z</time>
      </trkpt>
      <trkpt lat="44.39787" lon="6.5049">
        <ele>1063</ele>
        <time>2021-08-09T06:33:01Z</time>
      </trkpt>
      <trkpt lat="44.39795" lon="6.50475">
        <ele>1061.8</ele>
        <time>2021-08-09T06:33:03Z</time>
      </trkpt>
      <trkpt lat="44.39801" lon="6.50459">
        <ele>1060.8</ele>
        <time>2021-08-09T06:33:05Z</time>
      </trkpt>
      <trkpt lat="44.39807" lon="6.50443">
        <ele>1059.4</ele>
        <time>2021-08-09T06:33:07Z</time>
      </trkpt>
      <trkpt lat="44.39809" lon="6.50434">
        <ele>1058.8</ele>
        <time>2021-08-09T06:33:08Z</time>
      </trkpt>
      <trkpt lat="44.39811" lon="6.50424">
        <ele>1058.2</ele>
        <time>2021-08-09T06:33:09Z</time>
      </trkpt>
      <trkpt lat="44.39812" lon="6.50413">
        <ele>1057.6</ele>
        <time>2021-08-09T06:33:10Z</time>
      </trkpt>
      <trkpt lat="44.39814" lon="6.50402">
        <ele>1056.8</ele>
        <time>2021-08-09T06:33:11Z</time>
      </trkpt>
      <trkpt lat="44.39815" lon="6.50375">
        <ele>1055.4</ele>
        <time>2021-08-09T06:33:13Z</time>
      </trkpt>
      <trkpt lat="44.39816" lon="6.50362">
        <ele>1055</ele>
        <time>2021-08-09T06:33:14Z</time>
      </trkpt>
      <trkpt lat="44.39817" lon="6.50349">
        <ele>1054.6</ele>
        <time>2021-08-09T06:33:15Z</time>
      </trkpt>
      <trkpt lat="44.39818" lon="6.50335">
        <ele>1054</ele>
        <time>2021-08-09T06:33:16Z</time>
      </trkpt>
      <trkpt lat="44.39819" lon="6.50307">
        <ele>1052.8</ele>
        <time>2021-08-09T06:33:18Z</time>
      </trkpt>
      <trkpt lat="44.39819" lon="6.50282">
        <ele>1050.6</ele>
        <time>2021-08-09T06:33:20Z</time>
      </trkpt>
      <trkpt lat="44.39819" lon="6.50271">
        <ele>1049.2</ele>
        <time>2021-08-09T06:33:21Z</time>
      </trkpt>
      <trkpt lat="44.39818" lon="6.50259">
        <ele>1047.8</ele>
        <time>2021-08-09T06:33:22Z</time>
      </trkpt>
      <trkpt lat="44.39818" lon="6.50248">
        <ele>1046.8</ele>
        <time>2021-08-09T06:33:23Z</time>
      </trkpt>
      <trkpt lat="44.39817" lon="6.50238">
        <ele>1046.2</ele>
        <time>2021-08-09T06:33:24Z</time>
      </trkpt>
      <trkpt lat="44.39816" lon="6.50215">
        <ele>1045</ele>
        <time>2021-08-09T06:33:26Z</time>
      </trkpt>
      <trkpt lat="44.39814" lon="6.50172">
        <ele>1043.6</ele>
        <time>2021-08-09T06:33:30Z</time>
      </trkpt>
      <trkpt lat="44.39813" lon="6.50163">
        <ele>1043.2</ele>
        <time>2021-08-09T06:33:31Z</time>
      </trkpt>
      <trkpt lat="44.39807" lon="6.50135">
        <ele>1041.8</ele>
        <time>2021-08-09T06:33:34Z</time>
      </trkpt>
      <trkpt lat="44.39805" lon="6.50125">
        <ele>1039.4</ele>
        <time>2021-08-09T06:33:35Z</time>
      </trkpt>
      <trkpt lat="44.39803" lon="6.50114">
        <ele>1038.4</ele>
        <time>2021-08-09T06:33:36Z</time>
      </trkpt>
      <trkpt lat="44.398" lon="6.50104">
        <ele>1037.6</ele>
        <time>2021-08-09T06:33:37Z</time>
      </trkpt>
      <trkpt lat="44.39794" lon="6.50087">
        <ele>1036.6</ele>
        <time>2021-08-09T06:33:39Z</time>
      </trkpt>
      <trkpt lat="44.39788" lon="6.50071">
        <ele>1035</ele>
        <time>2021-08-09T06:33:41Z</time>
      </trkpt>
      <trkpt lat="44.39785" lon="6.50062">
        <ele>1033.8</ele>
        <time>2021-08-09T06:33:42Z</time>
      </trkpt>
      <trkpt lat="44.39782" lon="6.50052">
        <ele>1032.8</ele>
        <time>2021-08-09T06:33:43Z</time>
      </trkpt>
      <trkpt lat="44.39779" lon="6.50043">
        <ele>1031.6</ele>
        <time>2021-08-09T06:33:44Z</time>
      </trkpt>
      <trkpt lat="44.39777" lon="6.50033">
        <ele>1030.6</ele>
        <time>2021-08-09T06:33:45Z</time>
      </trkpt>
      <trkpt lat="44.39774" lon="6.50024">
        <ele>1029.6</ele>
        <time>2021-08-09T06:33:46Z</time>
      </trkpt>
      <trkpt lat="44.39771" lon="6.50014">
        <ele>1028.8</ele>
        <time>2021-08-09T06:33:47Z</time>
      </trkpt>
      <trkpt lat="44.39765" lon="6.49994">
        <ele>1027.2</ele>
        <time>2021-08-09T06:33:49Z</time>
      </trkpt>
      <trkpt lat="44.39758" lon="6.49974">
        <ele>1026.2</ele>
        <time>2021-08-09T06:33:51Z</time>
      </trkpt>
      <trkpt lat="44.39753" lon="6.49956">
        <ele>1024.8</ele>
        <time>2021-08-09T06:33:53Z</time>
      </trkpt>
      <trkpt lat="44.39751" lon="6.49947">
        <ele>1024</ele>
        <time>2021-08-09T06:33:54Z</time>
      </trkpt>
      <trkpt lat="44.3975" lon="6.49938">
        <ele>1022.8</ele>
        <time>2021-08-09T06:33:55Z</time>
      </trkpt>
      <trkpt lat="44.39751" lon="6.49928">
        <ele>1021.8</ele>
        <time>2021-08-09T06:33:56Z</time>
      </trkpt>
      <trkpt lat="44.39752" lon="6.49918">
        <ele>1020.6</ele>
        <time>2021-08-09T06:33:57Z</time>
      </trkpt>
      <trkpt lat="44.39753" lon="6.49907">
        <ele>1019.2</ele>
        <time>2021-08-09T06:33:58Z</time>
      </trkpt>
      <trkpt lat="44.39753" lon="6.49896">
        <ele>1017.8</ele>
        <time>2021-08-09T06:33:59Z</time>
      </trkpt>
      <trkpt lat="44.39754" lon="6.49886">
        <ele>1016.6</ele>
        <time>2021-08-09T06:34:00Z</time>
      </trkpt>
      <trkpt lat="44.39754" lon="6.49875">
        <ele>1015.6</ele>
        <time>2021-08-09T06:34:01Z</time>
      </trkpt>
      <trkpt lat="44.39755" lon="6.49864">
        <ele>1014.4</ele>
        <time>2021-08-09T06:34:02Z</time>
      </trkpt>
      <trkpt lat="44.39757" lon="6.49844">
        <ele>1013</ele>
        <time>2021-08-09T06:34:04Z</time>
      </trkpt>
      <trkpt lat="44.39764" lon="6.49827">
        <ele>1012</ele>
        <time>2021-08-09T06:34:06Z</time>
      </trkpt>
      <trkpt lat="44.39771" lon="6.4981">
        <ele>1010.8</ele>
        <time>2021-08-09T06:34:08Z</time>
      </trkpt>
      <trkpt lat="44.39776" lon="6.49784">
        <ele>1009.8</ele>
        <time>2021-08-09T06:34:11Z</time>
      </trkpt>
      <trkpt lat="44.39777" lon="6.49776">
        <ele>1009.6</ele>
        <time>2021-08-09T06:34:12Z</time>
      </trkpt>
      <trkpt lat="44.39778" lon="6.49756">
        <ele>1009.6</ele>
        <time>2021-08-09T06:34:15Z</time>
      </trkpt>
      <trkpt lat="44.39778" lon="6.4975">
        <ele>1009.6</ele>
        <time>2021-08-09T06:34:16Z</time>
      </trkpt>
      <trkpt lat="44.39783" lon="6.49729">
        <ele>1009.8</ele>
        <time>2021-08-09T06:34:20Z</time>
      </trkpt>
      <trkpt lat="44.39788" lon="6.49714">
        <ele>1011.2</ele>
        <time>2021-08-09T06:34:23Z</time>
      </trkpt>
      <trkpt lat="44.39791" lon="6.49704">
        <ele>1012</ele>
        <time>2021-08-09T06:34:25Z</time>
      </trkpt>
      <trkpt lat="44.39793" lon="6.49698">
        <ele>1012.2</ele>
        <time>2021-08-09T06:34:26Z</time>
      </trkpt>
      <trkpt lat="44.39795" lon="6.49691">
        <ele>1012.6</ele>
        <time>2021-08-09T06:34:27Z</time>
      </trkpt>
      <trkpt lat="44.39797" lon="6.49677">
        <ele>1013.4</ele>
        <time>2021-08-09T06:34:29Z</time>
      </trkpt>
      <trkpt lat="44.39802" lon="6.49646">
        <ele>1013.8</ele>
        <time>2021-08-09T06:34:33Z</time>
      </trkpt>
      <trkpt lat="44.39802" lon="6.49627">
        <ele>1013.8</ele>
        <time>2021-08-09T06:34:35Z</time>
      </trkpt>
      <trkpt lat="44.39799" lon="6.49609">
        <ele>1013.8</ele>
        <time>2021-08-09T06:34:37Z</time>
      </trkpt>
      <trkpt lat="44.39794" lon="6.49591">
        <ele>1013.8</ele>
        <time>2021-08-09T06:34:39Z</time>
      </trkpt>
      <trkpt lat="44.39786" lon="6.49575">
        <ele>1013.4</ele>
        <time>2021-08-09T06:34:41Z</time>
      </trkpt>
      <trkpt lat="44.39778" lon="6.49564">
        <ele>1011.8</ele>
        <time>2021-08-09T06:34:43Z</time>
      </trkpt>
      <trkpt lat="44.39775" lon="6.49559">
        <ele>1011</ele>
        <time>2021-08-09T06:34:44Z</time>
      </trkpt>
      <trkpt lat="44.39772" lon="6.49555">
        <ele>1010.2</ele>
        <time>2021-08-09T06:34:45Z</time>
      </trkpt>
      <trkpt lat="44.39769" lon="6.49546">
        <ele>1008.8</ele>
        <time>2021-08-09T06:34:47Z</time>
      </trkpt>
      <trkpt lat="44.39769" lon="6.49543">
        <ele>1008.4</ele>
        <time>2021-08-09T06:34:48Z</time>
      </trkpt>
      <trkpt lat="44.39774" lon="6.49531">
        <ele>1007.8</ele>
        <time>2021-08-09T06:34:51Z</time>
      </trkpt>
      <trkpt lat="44.39776" lon="6.49526">
        <ele>1007.8</ele>
        <time>2021-08-09T06:34:52Z</time>
      </trkpt>
      <trkpt lat="44.39778" lon="6.4952">
        <ele>1007.8</ele>
        <time>2021-08-09T06:34:53Z</time>
      </trkpt>
      <trkpt lat="44.39776" lon="6.49508">
        <ele>1007.6</ele>
        <time>2021-08-09T06:34:55Z</time>
      </trkpt>
      <trkpt lat="44.3977" lon="6.49495">
        <ele>1007.4</ele>
        <time>2021-08-09T06:34:57Z</time>
      </trkpt>
      <trkpt lat="44.39763" lon="6.49482">
        <ele>1007.2</ele>
        <time>2021-08-09T06:34:59Z</time>
      </trkpt>
      <trkpt lat="44.3976" lon="6.49474">
        <ele>1006.2</ele>
        <time>2021-08-09T06:35:00Z</time>
      </trkpt>
      <trkpt lat="44.39753" lon="6.49458">
        <ele>1005.2</ele>
        <time>2021-08-09T06:35:02Z</time>
      </trkpt>
      <trkpt lat="44.39749" lon="6.4945">
        <ele>1004.6</ele>
        <time>2021-08-09T06:35:03Z</time>
      </trkpt>
      <trkpt lat="44.39743" lon="6.49442">
        <ele>1003.8</ele>
        <time>2021-08-09T06:35:04Z</time>
      </trkpt>
      <trkpt lat="44.39733" lon="6.49427">
        <ele>1002.4</ele>
        <time>2021-08-09T06:35:06Z</time>
      </trkpt>
      <trkpt lat="44.39725" lon="6.49411">
        <ele>1001</ele>
        <time>2021-08-09T06:35:08Z</time>
      </trkpt>
      <trkpt lat="44.3972" lon="6.49393">
        <ele>1000</ele>
        <time>2021-08-09T06:35:10Z</time>
      </trkpt>
      <trkpt lat="44.39717" lon="6.49372">
        <ele>999</ele>
        <time>2021-08-09T06:35:12Z</time>
      </trkpt>
      <trkpt lat="44.39715" lon="6.49361">
        <ele>998.8</ele>
        <time>2021-08-09T06:35:13Z</time>
      </trkpt>
      <trkpt lat="44.39711" lon="6.49351">
        <ele>998.2</ele>
        <time>2021-08-09T06:35:14Z</time>
      </trkpt>
      <trkpt lat="44.39704" lon="6.49331">
        <ele>997.4</ele>
        <time>2021-08-09T06:35:16Z</time>
      </trkpt>
      <trkpt lat="44.397" lon="6.49323">
        <ele>997</ele>
        <time>2021-08-09T06:35:17Z</time>
      </trkpt>
      <trkpt lat="44.39696" lon="6.49304">
        <ele>996</ele>
        <time>2021-08-09T06:35:19Z</time>
      </trkpt>
      <trkpt lat="44.39691" lon="6.49266">
        <ele>995.4</ele>
        <time>2021-08-09T06:35:23Z</time>
      </trkpt>
      <trkpt lat="44.39691" lon="6.49247">
        <ele>995.4</ele>
        <time>2021-08-09T06:35:25Z</time>
      </trkpt>
      <trkpt lat="44.39693" lon="6.49221">
        <ele>995.4</ele>
        <time>2021-08-09T06:35:28Z</time>
      </trkpt>
      <trkpt lat="44.39691" lon="6.49204">
        <ele>995.4</ele>
        <time>2021-08-09T06:35:30Z</time>
      </trkpt>
      <trkpt lat="44.39685" lon="6.4918">
        <ele>996.2</ele>
        <time>2021-08-09T06:35:33Z</time>
      </trkpt>
      <trkpt lat="44.3968" lon="6.49165">
        <ele>996.4</ele>
        <time>2021-08-09T06:35:35Z</time>
      </trkpt>
      <trkpt lat="44.39679" lon="6.49158">
        <ele>996.8</ele>
        <time>2021-08-09T06:35:36Z</time>
      </trkpt>
      <trkpt lat="44.39678" lon="6.4915">
        <ele>997</ele>
        <time>2021-08-09T06:35:37Z</time>
      </trkpt>
      <trkpt lat="44.39677" lon="6.49132">
        <ele>997.2</ele>
        <time>2021-08-09T06:35:39Z</time>
      </trkpt>
      <trkpt lat="44.39678" lon="6.49115">
        <ele>997.2</ele>
        <time>2021-08-09T06:35:41Z</time>
      </trkpt>
      <trkpt lat="44.39679" lon="6.49078">
        <ele>997.2</ele>
        <time>2021-08-09T06:35:45Z</time>
      </trkpt>
      <trkpt lat="44.39669" lon="6.49052">
        <ele>997.2</ele>
        <time>2021-08-09T06:35:48Z</time>
      </trkpt>
      <trkpt lat="44.39664" lon="6.49044">
        <ele>997</ele>
        <time>2021-08-09T06:35:49Z</time>
      </trkpt>
      <trkpt lat="44.39659" lon="6.49036">
        <ele>997</ele>
        <time>2021-08-09T06:35:50Z</time>
      </trkpt>
      <trkpt lat="44.39639" lon="6.49006">
        <ele>996.2</ele>
        <time>2021-08-09T06:35:54Z</time>
      </trkpt>
      <trkpt lat="44.39635" lon="6.48999">
        <ele>995.6</ele>
        <time>2021-08-09T06:35:55Z</time>
      </trkpt>
      <trkpt lat="44.39632" lon="6.4899">
        <ele>995.4</ele>
        <time>2021-08-09T06:35:56Z</time>
      </trkpt>
      <trkpt lat="44.39627" lon="6.48973">
        <ele>994.4</ele>
        <time>2021-08-09T06:35:58Z</time>
      </trkpt>
      <trkpt lat="44.39616" lon="6.48915">
        <ele>993.2</ele>
        <time>2021-08-09T06:36:04Z</time>
      </trkpt>
      <trkpt lat="44.39612" lon="6.48896">
        <ele>992.6</ele>
        <time>2021-08-09T06:36:06Z</time>
      </trkpt>
      <trkpt lat="44.39608" lon="6.48878">
        <ele>992</ele>
        <time>2021-08-09T06:36:08Z</time>
      </trkpt>
      <trkpt lat="44.39606" lon="6.48869">
        <ele>991.6</ele>
        <time>2021-08-09T06:36:09Z</time>
      </trkpt>
      <trkpt lat="44.39601" lon="6.48851">
        <ele>991.2</ele>
        <time>2021-08-09T06:36:11Z</time>
      </trkpt>
      <trkpt lat="44.39599" lon="6.48814">
        <ele>991</ele>
        <time>2021-08-09T06:36:15Z</time>
      </trkpt>
      <trkpt lat="44.39605" lon="6.48796">
        <ele>990.8</ele>
        <time>2021-08-09T06:36:17Z</time>
      </trkpt>
      <trkpt lat="44.39607" lon="6.48787">
        <ele>990.8</ele>
        <time>2021-08-09T06:36:18Z</time>
      </trkpt>
      <trkpt lat="44.39606" lon="6.48757">
        <ele>990.2</ele>
        <time>2021-08-09T06:36:21Z</time>
      </trkpt>
      <trkpt lat="44.39604" lon="6.48748">
        <ele>989.8</ele>
        <time>2021-08-09T06:36:22Z</time>
      </trkpt>
      <trkpt lat="44.39604" lon="6.48729">
        <ele>989.4</ele>
        <time>2021-08-09T06:36:24Z</time>
      </trkpt>
      <trkpt lat="44.39599" lon="6.48702">
        <ele>989</ele>
        <time>2021-08-09T06:36:27Z</time>
      </trkpt>
      <trkpt lat="44.39592" lon="6.48688">
        <ele>988.8</ele>
        <time>2021-08-09T06:36:29Z</time>
      </trkpt>
      <trkpt lat="44.39587" lon="6.48671">
        <ele>987.8</ele>
        <time>2021-08-09T06:36:31Z</time>
      </trkpt>
      <trkpt lat="44.39585" lon="6.48662">
        <ele>987.4</ele>
        <time>2021-08-09T06:36:32Z</time>
      </trkpt>
      <trkpt lat="44.39577" lon="6.48633">
        <ele>987</ele>
        <time>2021-08-09T06:36:36Z</time>
      </trkpt>
      <trkpt lat="44.3957" lon="6.48616">
        <ele>986.4</ele>
        <time>2021-08-09T06:36:39Z</time>
      </trkpt>
      <trkpt lat="44.39567" lon="6.48605">
        <ele>985.8</ele>
        <time>2021-08-09T06:36:41Z</time>
      </trkpt>
      <trkpt lat="44.39565" lon="6.48599">
        <ele>985.4</ele>
        <time>2021-08-09T06:36:42Z</time>
      </trkpt>
      <trkpt lat="44.39561" lon="6.48585">
        <ele>984.2</ele>
        <time>2021-08-09T06:36:45Z</time>
      </trkpt>
      <trkpt lat="44.39558" lon="6.48569">
        <ele>983.2</ele>
        <time>2021-08-09T06:36:48Z</time>
      </trkpt>
      <trkpt lat="44.39556" lon="6.48563">
        <ele>982.6</ele>
        <time>2021-08-09T06:36:49Z</time>
      </trkpt>
      <trkpt lat="44.39552" lon="6.48537">
        <ele>981.6</ele>
        <time>2021-08-09T06:36:53Z</time>
      </trkpt>
      <trkpt lat="44.39552" lon="6.4853">
        <ele>981.6</ele>
        <time>2021-08-09T06:36:54Z</time>
      </trkpt>
      <trkpt lat="44.39552" lon="6.48522">
        <ele>981.6</ele>
        <time>2021-08-09T06:36:55Z</time>
      </trkpt>
      <trkpt lat="44.39556" lon="6.48501">
        <ele>981</ele>
        <time>2021-08-09T06:36:58Z</time>
      </trkpt>
      <trkpt lat="44.3956" lon="6.48488">
        <ele>981</ele>
        <time>2021-08-09T06:37:00Z</time>
      </trkpt>
      <trkpt lat="44.39562" lon="6.48466">
        <ele>981</ele>
        <time>2021-08-09T06:37:03Z</time>
      </trkpt>
      <trkpt lat="44.39562" lon="6.48459">
        <ele>981</ele>
        <time>2021-08-09T06:37:04Z</time>
      </trkpt>
      <trkpt lat="44.39561" lon="6.48421">
        <ele>981</ele>
        <time>2021-08-09T06:37:09Z</time>
      </trkpt>
      <trkpt lat="44.39562" lon="6.48367">
        <ele>981.4</ele>
        <time>2021-08-09T06:37:16Z</time>
      </trkpt>
      <trkpt lat="44.3956" lon="6.48351">
        <ele>981.4</ele>
        <time>2021-08-09T06:37:18Z</time>
      </trkpt>
      <trkpt lat="44.39557" lon="6.48336">
        <ele>981.6</ele>
        <time>2021-08-09T06:37:20Z</time>
      </trkpt>
      <trkpt lat="44.39554" lon="6.48328">
        <ele>981.6</ele>
        <time>2021-08-09T06:37:21Z</time>
      </trkpt>
      <trkpt lat="44.39537" lon="6.48281">
        <ele>981.4</ele>
        <time>2021-08-09T06:37:28Z</time>
      </trkpt>
      <trkpt lat="44.39522" lon="6.48243">
        <ele>980.6</ele>
        <time>2021-08-09T06:37:34Z</time>
      </trkpt>
      <trkpt lat="44.39504" lon="6.48202">
        <ele>980.6</ele>
        <time>2021-08-09T06:37:40Z</time>
      </trkpt>
      <trkpt lat="44.39494" lon="6.48179">
        <ele>980.6</ele>
        <time>2021-08-09T06:37:44Z</time>
      </trkpt>
      <trkpt lat="44.39492" lon="6.48168">
        <ele>980.6</ele>
        <time>2021-08-09T06:37:46Z</time>
      </trkpt>
      <trkpt lat="44.39493" lon="6.48128">
        <ele>981</ele>
        <time>2021-08-09T06:37:52Z</time>
      </trkpt>
      <trkpt lat="44.39497" lon="6.48076">
        <ele>981.6</ele>
        <time>2021-08-09T06:38:00Z</time>
      </trkpt>
      <trkpt lat="44.39506" lon="6.48051">
        <ele>981.6</ele>
        <time>2021-08-09T06:38:04Z</time>
      </trkpt>
      <trkpt lat="44.39508" lon="6.48045">
        <ele>981.6</ele>
        <time>2021-08-09T06:38:05Z</time>
      </trkpt>
      <trkpt lat="44.39511" lon="6.4804">
        <ele>981.6</ele>
        <time>2021-08-09T06:38:06Z</time>
      </trkpt>
      <trkpt lat="44.39517" lon="6.48027">
        <ele>981.6</ele>
        <time>2021-08-09T06:38:09Z</time>
      </trkpt>
      <trkpt lat="44.39522" lon="6.48017">
        <ele>981.6</ele>
        <time>2021-08-09T06:38:14Z</time>
      </trkpt>
      <trkpt lat="44.39532" lon="6.48003">
        <ele>981.6</ele>
        <time>2021-08-09T06:38:19Z</time>
      </trkpt>
      <trkpt lat="44.39537" lon="6.47996">
        <ele>981.6</ele>
        <time>2021-08-09T06:38:22Z</time>
      </trkpt>
      <trkpt lat="44.39537" lon="6.47993">
        <ele>981.6</ele>
        <time>2021-08-09T06:38:23Z</time>
      </trkpt>
      <trkpt lat="44.39531" lon="6.47996">
        <ele>981.4</ele>
        <time>2021-08-09T06:38:26Z</time>
      </trkpt>
      <trkpt lat="44.39522" lon="6.48014">
        <ele>981.4</ele>
        <time>2021-08-09T06:38:31Z</time>
      </trkpt>
      <trkpt lat="44.39519" lon="6.4801">
        <ele>981.4</ele>
        <time>2021-08-09T06:38:34Z</time>
      </trkpt>
      <trkpt lat="44.39522" lon="6.48004">
        <ele>981.4</ele>
        <time>2021-08-09T06:38:36Z</time>
      </trkpt>
      <trkpt lat="44.39529" lon="6.47986">
        <ele>981.4</ele>
        <time>2021-08-09T06:38:41Z</time>
      </trkpt>
      <trkpt lat="44.39538" lon="6.47966">
        <ele>983</ele>
        <time>2021-08-09T06:38:47Z</time>
      </trkpt>
      <trkpt lat="44.39542" lon="6.47956">
        <ele>983.6</ele>
        <time>2021-08-09T06:38:50Z</time>
      </trkpt>
      <trkpt lat="44.39548" lon="6.47941">
        <ele>984</ele>
        <time>2021-08-09T06:38:55Z</time>
      </trkpt>
      <trkpt lat="44.39548" lon="6.47935">
        <ele>984.6</ele>
        <time>2021-08-09T06:38:57Z</time>
      </trkpt>
      <trkpt lat="44.39549" lon="6.47933">
        <ele>985</ele>
        <time>2021-08-09T06:38:58Z</time>
      </trkpt>
      <trkpt lat="44.3955" lon="6.47931">
        <ele>985.2</ele>
        <time>2021-08-09T06:38:59Z</time>
      </trkpt>
      <trkpt lat="44.39554" lon="6.4793">
        <ele>985.6</ele>
        <time>2021-08-09T06:39:01Z</time>
      </trkpt>
      <trkpt lat="44.39562" lon="6.47927">
        <ele>986.2</ele>
        <time>2021-08-09T06:39:04Z</time>
      </trkpt>
      <trkpt lat="44.39564" lon="6.47925">
        <ele>986.4</ele>
        <time>2021-08-09T06:39:05Z</time>
      </trkpt>
      <trkpt lat="44.39567" lon="6.47922">
        <ele>986.4</ele>
        <time>2021-08-09T06:39:06Z</time>
      </trkpt>
      <trkpt lat="44.39573" lon="6.47901">
        <ele>987</ele>
        <time>2021-08-09T06:39:11Z</time>
      </trkpt>
      <trkpt lat="44.39579" lon="6.47878">
        <ele>987.2</ele>
        <time>2021-08-09T06:39:16Z</time>
      </trkpt>
      <trkpt lat="44.39583" lon="6.47868">
        <ele>987.4</ele>
        <time>2021-08-09T06:39:18Z</time>
      </trkpt>
      <trkpt lat="44.39594" lon="6.47837">
        <ele>987.6</ele>
        <time>2021-08-09T06:39:24Z</time>
      </trkpt>
      <trkpt lat="44.39597" lon="6.47832">
        <ele>987.6</ele>
        <time>2021-08-09T06:39:25Z</time>
      </trkpt>
      <trkpt lat="44.39615" lon="6.47801">
        <ele>987.8</ele>
        <time>2021-08-09T06:39:31Z</time>
      </trkpt>
      <trkpt lat="44.39626" lon="6.47768">
        <ele>987.6</ele>
        <time>2021-08-09T06:39:36Z</time>
      </trkpt>
      <trkpt lat="44.39638" lon="6.47721">
        <ele>987.4</ele>
        <time>2021-08-09T06:39:42Z</time>
      </trkpt>
      <trkpt lat="44.39652" lon="6.47654">
        <ele>986.8</ele>
        <time>2021-08-09T06:39:50Z</time>
      </trkpt>
      <trkpt lat="44.3966" lon="6.47616">
        <ele>986.4</ele>
        <time>2021-08-09T06:39:54Z</time>
      </trkpt>
      <trkpt lat="44.39665" lon="6.47589">
        <ele>985.8</ele>
        <time>2021-08-09T06:39:57Z</time>
      </trkpt>
      <trkpt lat="44.39669" lon="6.47571">
        <ele>985.4</ele>
        <time>2021-08-09T06:39:59Z</time>
      </trkpt>
      <trkpt lat="44.3968" lon="6.47535">
        <ele>984.2</ele>
        <time>2021-08-09T06:40:03Z</time>
      </trkpt>
      <trkpt lat="44.39683" lon="6.47526">
        <ele>983.8</ele>
        <time>2021-08-09T06:40:04Z</time>
      </trkpt>
      <trkpt lat="44.39694" lon="6.475">
        <ele>982.8</ele>
        <time>2021-08-09T06:40:07Z</time>
      </trkpt>
      <trkpt lat="44.39706" lon="6.47474">
        <ele>982.2</ele>
        <time>2021-08-09T06:40:10Z</time>
      </trkpt>
      <trkpt lat="44.39724" lon="6.47443">
        <ele>981.8</ele>
        <time>2021-08-09T06:40:14Z</time>
      </trkpt>
      <trkpt lat="44.39733" lon="6.47428">
        <ele>981.6</ele>
        <time>2021-08-09T06:40:16Z</time>
      </trkpt>
      <trkpt lat="44.39756" lon="6.47393">
        <ele>981.6</ele>
        <time>2021-08-09T06:40:21Z</time>
      </trkpt>
      <trkpt lat="44.39769" lon="6.4737">
        <ele>981.6</ele>
        <time>2021-08-09T06:40:24Z</time>
      </trkpt>
      <trkpt lat="44.39793" lon="6.47319">
        <ele>981.8</ele>
        <time>2021-08-09T06:40:30Z</time>
      </trkpt>
      <trkpt lat="44.39808" lon="6.47262">
        <ele>981.8</ele>
        <time>2021-08-09T06:40:36Z</time>
      </trkpt>
      <trkpt lat="44.39814" lon="6.47238">
        <ele>981.2</ele>
        <time>2021-08-09T06:40:40Z</time>
      </trkpt>
      <trkpt lat="44.39816" lon="6.47231">
        <ele>980.8</ele>
        <time>2021-08-09T06:40:42Z</time>
      </trkpt>
      <trkpt lat="44.39818" lon="6.47225">
        <ele>980.4</ele>
        <time>2021-08-09T06:40:44Z</time>
      </trkpt>
      <trkpt lat="44.39822" lon="6.47209">
        <ele>980.2</ele>
        <time>2021-08-09T06:40:48Z</time>
      </trkpt>
      <trkpt lat="44.39824" lon="6.472">
        <ele>979.6</ele>
        <time>2021-08-09T06:40:51Z</time>
      </trkpt>
      <trkpt lat="44.39825" lon="6.47198">
        <ele>979.6</ele>
        <time>2021-08-09T06:40:52Z</time>
      </trkpt>
      <trkpt lat="44.39827" lon="6.47196">
        <ele>979.4</ele>
        <time>2021-08-09T06:40:53Z</time>
      </trkpt>
      <trkpt lat="44.39836" lon="6.47187">
        <ele>979.4</ele>
        <time>2021-08-09T06:40:59Z</time>
      </trkpt>
      <trkpt lat="44.39842" lon="6.47176">
        <ele>980.2</ele>
        <time>2021-08-09T06:41:05Z</time>
      </trkpt>
      <trkpt lat="44.39842" lon="6.47174">
        <ele>980.6</ele>
        <time>2021-08-09T06:41:06Z</time>
      </trkpt>
      <trkpt lat="44.39843" lon="6.47172">
        <ele>980.8</ele>
        <time>2021-08-09T06:41:07Z</time>
      </trkpt>
      <trkpt lat="44.39845" lon="6.47166">
        <ele>982.2</ele>
        <time>2021-08-09T06:41:10Z</time>
      </trkpt>
      <trkpt lat="44.39847" lon="6.47159">
        <ele>983.6</ele>
        <time>2021-08-09T06:41:14Z</time>
      </trkpt>
      <trkpt lat="44.39849" lon="6.47151">
        <ele>984.6</ele>
        <time>2021-08-09T06:41:18Z</time>
      </trkpt>
      <trkpt lat="44.39851" lon="6.47144">
        <ele>985.6</ele>
        <time>2021-08-09T06:41:22Z</time>
      </trkpt>
      <trkpt lat="44.39852" lon="6.47137">
        <ele>986.8</ele>
        <time>2021-08-09T06:41:26Z</time>
      </trkpt>
      <trkpt lat="44.39853" lon="6.47131">
        <ele>987.8</ele>
        <time>2021-08-09T06:41:29Z</time>
      </trkpt>
      <trkpt lat="44.39855" lon="6.47124">
        <ele>988.6</ele>
        <time>2021-08-09T06:41:33Z</time>
      </trkpt>
      <trkpt lat="44.39857" lon="6.47118">
        <ele>989.6</ele>
        <time>2021-08-09T06:41:37Z</time>
      </trkpt>
      <trkpt lat="44.39857" lon="6.47115">
        <ele>989.8</ele>
        <time>2021-08-09T06:41:39Z</time>
      </trkpt>
      <trkpt lat="44.39857" lon="6.47114">
        <ele>989.8</ele>
        <time>2021-08-09T06:41:40Z</time>
      </trkpt>
      <trkpt lat="44.39855" lon="6.47109">
        <ele>990</ele>
        <time>2021-08-09T06:41:43Z</time>
      </trkpt>
      <trkpt lat="44.39855" lon="6.47103">
        <ele>990.8</ele>
        <time>2021-08-09T06:41:47Z</time>
      </trkpt>
      <trkpt lat="44.39855" lon="6.47102">
        <ele>991</ele>
        <time>2021-08-09T06:41:48Z</time>
      </trkpt>
      <trkpt lat="44.39856" lon="6.47101">
        <ele>991.2</ele>
        <time>2021-08-09T06:41:49Z</time>
      </trkpt>
      <trkpt lat="44.39858" lon="6.471">
        <ele>991.8</ele>
        <time>2021-08-09T06:41:51Z</time>
      </trkpt>
      <trkpt lat="44.39862" lon="6.47096">
        <ele>993.2</ele>
        <time>2021-08-09T06:41:55Z</time>
      </trkpt>
      <trkpt lat="44.39864" lon="6.47095">
        <ele>993.4</ele>
        <time>2021-08-09T06:41:56Z</time>
      </trkpt>
      <trkpt lat="44.39869" lon="6.47094">
        <ele>994.2</ele>
        <time>2021-08-09T06:41:59Z</time>
      </trkpt>
      <trkpt lat="44.3987" lon="6.47093">
        <ele>994.4</ele>
        <time>2021-08-09T06:42:00Z</time>
      </trkpt>
      <trkpt lat="44.39877" lon="6.47089">
        <ele>995.2</ele>
        <time>2021-08-09T06:42:04Z</time>
      </trkpt>
      <trkpt lat="44.3988" lon="6.47087">
        <ele>995.6</ele>
        <time>2021-08-09T06:42:05Z</time>
      </trkpt>
      <trkpt lat="44.39883" lon="6.47084">
        <ele>996.4</ele>
        <time>2021-08-09T06:42:07Z</time>
      </trkpt>
      <trkpt lat="44.39892" lon="6.47077">
        <ele>997</ele>
        <time>2021-08-09T06:42:11Z</time>
      </trkpt>
      <trkpt lat="44.39902" lon="6.47063">
        <ele>997</ele>
        <time>2021-08-09T06:42:17Z</time>
      </trkpt>
      <trkpt lat="44.39912" lon="6.47054">
        <ele>997.4</ele>
        <time>2021-08-09T06:42:22Z</time>
      </trkpt>
      <trkpt lat="44.39922" lon="6.47045">
        <ele>998.4</ele>
        <time>2021-08-09T06:42:26Z</time>
      </trkpt>
      <trkpt lat="44.39923" lon="6.47044">
        <ele>998.6</ele>
        <time>2021-08-09T06:42:27Z</time>
      </trkpt>
      <trkpt lat="44.39932" lon="6.47039">
        <ele>999</ele>
        <time>2021-08-09T06:42:32Z</time>
      </trkpt>
      <trkpt lat="44.39939" lon="6.47033">
        <ele>999.4</ele>
        <time>2021-08-09T06:42:34Z</time>
      </trkpt>
      <trkpt lat="44.39943" lon="6.4703">
        <ele>999.8</ele>
        <time>2021-08-09T06:42:35Z</time>
      </trkpt>
      <trkpt lat="44.39948" lon="6.47023">
        <ele>1000.6</ele>
        <time>2021-08-09T06:42:39Z</time>
      </trkpt>
      <trkpt lat="44.39952" lon="6.4702">
        <ele>1001</ele>
        <time>2021-08-09T06:42:41Z</time>
      </trkpt>
      <trkpt lat="44.39961" lon="6.47014">
        <ele>1001.2</ele>
        <time>2021-08-09T06:42:45Z</time>
      </trkpt>
      <trkpt lat="44.39975" lon="6.47002">
        <ele>1001.6</ele>
        <time>2021-08-09T06:42:50Z</time>
      </trkpt>
      <trkpt lat="44.39995" lon="6.46982">
        <ele>1001.6</ele>
        <time>2021-08-09T06:42:56Z</time>
      </trkpt>
      <trkpt lat="44.40011" lon="6.46971">
        <ele>1001</ele>
        <time>2021-08-09T06:43:01Z</time>
      </trkpt>
      <trkpt lat="44.40026" lon="6.46952">
        <ele>1001</ele>
        <time>2021-08-09T06:43:07Z</time>
      </trkpt>
      <trkpt lat="44.40028" lon="6.46951">
        <ele>1001.2</ele>
        <time>2021-08-09T06:43:08Z</time>
      </trkpt>
      <trkpt lat="44.4003" lon="6.4695">
        <ele>1001.2</ele>
        <time>2021-08-09T06:43:09Z</time>
      </trkpt>
      <trkpt lat="44.40032" lon="6.46948">
        <ele>1001.4</ele>
        <time>2021-08-09T06:43:10Z</time>
      </trkpt>
      <trkpt lat="44.40036" lon="6.46944">
        <ele>1002.2</ele>
        <time>2021-08-09T06:43:12Z</time>
      </trkpt>
      <trkpt lat="44.40041" lon="6.46933">
        <ele>1003</ele>
        <time>2021-08-09T06:43:15Z</time>
      </trkpt>
      <trkpt lat="44.40049" lon="6.46922">
        <ele>1003.2</ele>
        <time>2021-08-09T06:43:18Z</time>
      </trkpt>
      <trkpt lat="44.40052" lon="6.46918">
        <ele>1003.4</ele>
        <time>2021-08-09T06:43:19Z</time>
      </trkpt>
      <trkpt lat="44.40062" lon="6.46899">
        <ele>1003.8</ele>
        <time>2021-08-09T06:43:24Z</time>
      </trkpt>
      <trkpt lat="44.40068" lon="6.46887">
        <ele>1004</ele>
        <time>2021-08-09T06:43:28Z</time>
      </trkpt>
      <trkpt lat="44.40073" lon="6.46867">
        <ele>1004</ele>
        <time>2021-08-09T06:43:33Z</time>
      </trkpt>
      <trkpt lat="44.40075" lon="6.46859">
        <ele>1003.4</ele>
        <time>2021-08-09T06:43:37Z</time>
      </trkpt>
      <trkpt lat="44.40074" lon="6.4686">
        <ele>1001.2</ele>
        <time>2021-08-09T06:43:41Z</time>
      </trkpt>
      <trkpt lat="44.40075" lon="6.46862">
        <ele>1000.6</ele>
        <time>2021-08-09T06:43:43Z</time>
      </trkpt>
      <trkpt lat="44.40075" lon="6.46865">
        <ele>1000.2</ele>
        <time>2021-08-09T06:43:45Z</time>
      </trkpt>
      <trkpt lat="44.40074" lon="6.46875">
        <ele>1000.2</ele>
        <time>2021-08-09T06:43:50Z</time>
      </trkpt>
      <trkpt lat="44.40071" lon="6.46884">
        <ele>1000.2</ele>
        <time>2021-08-09T06:43:55Z</time>
      </trkpt>
      <trkpt lat="44.40067" lon="6.46889">
        <ele>1001.6</ele>
        <time>2021-08-09T06:43:58Z</time>
      </trkpt>
      <trkpt lat="44.40065" lon="6.46892">
        <ele>1002.2</ele>
        <time>2021-08-09T06:43:59Z</time>
      </trkpt>
      <trkpt lat="44.40054" lon="6.46909">
        <ele>1003</ele>
        <time>2021-08-09T06:44:05Z</time>
      </trkpt>
      <trkpt lat="44.40053" lon="6.46912">
        <ele>1003</ele>
        <time>2021-08-09T06:44:06Z</time>
      </trkpt>
      <trkpt lat="44.40049" lon="6.46922">
        <ele>1003</ele>
        <time>2021-08-09T06:44:09Z</time>
      </trkpt>
      <trkpt lat="44.40041" lon="6.46929">
        <ele>1003</ele>
        <time>2021-08-09T06:44:12Z</time>
      </trkpt>
      <trkpt lat="44.40037" lon="6.46933">
        <ele>1003</ele>
        <time>2021-08-09T06:44:13Z</time>
      </trkpt>
      <trkpt lat="44.40032" lon="6.46941">
        <ele>1002.8</ele>
        <time>2021-08-09T06:44:15Z</time>
      </trkpt>
      <trkpt lat="44.40028" lon="6.46945">
        <ele>1002.8</ele>
        <time>2021-08-09T06:44:16Z</time>
      </trkpt>
      <trkpt lat="44.4002" lon="6.46954">
        <ele>1002.6</ele>
        <time>2021-08-09T06:44:18Z</time>
      </trkpt>
      <trkpt lat="44.4001" lon="6.46965">
        <ele>1002</ele>
        <time>2021-08-09T06:44:21Z</time>
      </trkpt>
      <trkpt lat="44.40005" lon="6.46969">
        <ele>1002</ele>
        <time>2021-08-09T06:44:22Z</time>
      </trkpt>
      <trkpt lat="44.39994" lon="6.46979">
        <ele>1000.8</ele>
        <time>2021-08-09T06:44:25Z</time>
      </trkpt>
      <trkpt lat="44.3999" lon="6.46985">
        <ele>999.8</ele>
        <time>2021-08-09T06:44:27Z</time>
      </trkpt>
      <trkpt lat="44.39981" lon="6.4699">
        <ele>999.8</ele>
        <time>2021-08-09T06:44:30Z</time>
      </trkpt>
      <trkpt lat="44.39978" lon="6.4699">
        <ele>999.8</ele>
        <time>2021-08-09T06:44:31Z</time>
      </trkpt>
      <trkpt lat="44.39963" lon="6.46996">
        <ele>1000</ele>
        <time>2021-08-09T06:44:35Z</time>
      </trkpt>
      <trkpt lat="44.39958" lon="6.46998">
        <ele>1000.2</ele>
        <time>2021-08-09T06:44:36Z</time>
      </trkpt>
      <trkpt lat="44.3995" lon="6.47007">
        <ele>1000.2</ele>
        <time>2021-08-09T06:44:38Z</time>
      </trkpt>
      <trkpt lat="44.39936" lon="6.47018">
        <ele>1000.2</ele>
        <time>2021-08-09T06:44:41Z</time>
      </trkpt>
      <trkpt lat="44.39923" lon="6.47031">
        <ele>1000.2</ele>
        <time>2021-08-09T06:44:44Z</time>
      </trkpt>
      <trkpt lat="44.39918" lon="6.47037">
        <ele>1000.2</ele>
        <time>2021-08-09T06:44:45Z</time>
      </trkpt>
      <trkpt lat="44.39913" lon="6.47043">
        <ele>999.8</ele>
        <time>2021-08-09T06:44:46Z</time>
      </trkpt>
      <trkpt lat="44.39901" lon="6.47063">
        <ele>999.2</ele>
        <time>2021-08-09T06:44:49Z</time>
      </trkpt>
      <trkpt lat="44.39892" lon="6.47072">
        <ele>998.2</ele>
        <time>2021-08-09T06:44:51Z</time>
      </trkpt>
      <trkpt lat="44.39888" lon="6.47076">
        <ele>997.6</ele>
        <time>2021-08-09T06:44:52Z</time>
      </trkpt>
      <trkpt lat="44.39885" lon="6.47078">
        <ele>997.4</ele>
        <time>2021-08-09T06:44:53Z</time>
      </trkpt>
      <trkpt lat="44.39881" lon="6.47082">
        <ele>997.2</ele>
        <time>2021-08-09T06:44:55Z</time>
      </trkpt>
      <trkpt lat="44.39878" lon="6.47084">
        <ele>996.8</ele>
        <time>2021-08-09T06:44:57Z</time>
      </trkpt>
      <trkpt lat="44.39877" lon="6.47084">
        <ele>996.8</ele>
        <time>2021-08-09T06:44:58Z</time>
      </trkpt>
      <trkpt lat="44.39874" lon="6.47082">
        <ele>996.8</ele>
        <time>2021-08-09T06:45:01Z</time>
      </trkpt>
      <trkpt lat="44.39872" lon="6.47081">
        <ele>997</ele>
        <time>2021-08-09T06:45:06Z</time>
      </trkpt>
      <trkpt lat="44.39872" lon="6.47082">
        <ele>997</ele>
        <time>2021-08-09T06:45:08Z</time>
      </trkpt>
      <trkpt lat="44.39873" lon="6.47089">
        <ele>997.6</ele>
        <time>2021-08-09T06:45:31Z</time>
      </trkpt>
      <trkpt lat="44.39875" lon="6.47088">
        <ele>997.4</ele>
        <time>2021-08-09T06:45:32Z</time>
      </trkpt>
      <trkpt lat="44.39877" lon="6.47087">
        <ele>997.2</ele>
        <time>2021-08-09T06:45:34Z</time>
      </trkpt>
      <trkpt lat="44.39887" lon="6.47083">
        <ele>997</ele>
        <time>2021-08-09T06:45:40Z</time>
      </trkpt>
      <trkpt lat="44.39893" lon="6.47076">
        <ele>997</ele>
        <time>2021-08-09T06:45:45Z</time>
      </trkpt>
      <trkpt lat="44.39902" lon="6.47066">
        <ele>997</ele>
        <time>2021-08-09T06:45:49Z</time>
      </trkpt>
      <trkpt lat="44.39914" lon="6.4705">
        <ele>997.2</ele>
        <time>2021-08-09T06:45:55Z</time>
      </trkpt>
      <trkpt lat="44.39926" lon="6.47041">
        <ele>997.4</ele>
        <time>2021-08-09T06:45:59Z</time>
      </trkpt>
      <trkpt lat="44.39931" lon="6.47035">
        <ele>998</ele>
        <time>2021-08-09T06:46:02Z</time>
      </trkpt>
      <trkpt lat="44.39933" lon="6.47034">
        <ele>998.2</ele>
        <time>2021-08-09T06:46:03Z</time>
      </trkpt>
      <trkpt lat="44.39946" lon="6.47027">
        <ele>998.8</ele>
        <time>2021-08-09T06:46:06Z</time>
      </trkpt>
      <trkpt lat="44.39954" lon="6.47022">
        <ele>999.4</ele>
        <time>2021-08-09T06:46:09Z</time>
      </trkpt>
      <trkpt lat="44.39962" lon="6.47015">
        <ele>1000.6</ele>
        <time>2021-08-09T06:46:14Z</time>
      </trkpt>
      <trkpt lat="44.39963" lon="6.47014">
        <ele>1000.8</ele>
        <time>2021-08-09T06:46:15Z</time>
      </trkpt>
      <trkpt lat="44.39965" lon="6.47012">
        <ele>1001</ele>
        <time>2021-08-09T06:46:16Z</time>
      </trkpt>
      <trkpt lat="44.39974" lon="6.47004">
        <ele>1001.6</ele>
        <time>2021-08-09T06:46:19Z</time>
      </trkpt>
      <trkpt lat="44.39992" lon="6.46991">
        <ele>1001.8</ele>
        <time>2021-08-09T06:46:23Z</time>
      </trkpt>
      <trkpt lat="44.40011" lon="6.46981">
        <ele>1001.8</ele>
        <time>2021-08-09T06:46:27Z</time>
      </trkpt>
      <trkpt lat="44.40024" lon="6.46967">
        <ele>1001.6</ele>
        <time>2021-08-09T06:46:31Z</time>
      </trkpt>
      <trkpt lat="44.40031" lon="6.46953">
        <ele>1001.6</ele>
        <time>2021-08-09T06:46:35Z</time>
      </trkpt>
      <trkpt lat="44.40042" lon="6.46941">
        <ele>1001.6</ele>
        <time>2021-08-09T06:46:39Z</time>
      </trkpt>
      <trkpt lat="44.4005" lon="6.46922">
        <ele>1002.6</ele>
        <time>2021-08-09T06:46:43Z</time>
      </trkpt>
      <trkpt lat="44.40058" lon="6.46908">
        <ele>1002.8</ele>
        <time>2021-08-09T06:46:46Z</time>
      </trkpt>
      <trkpt lat="44.40062" lon="6.469">
        <ele>1003</ele>
        <time>2021-08-09T06:46:48Z</time>
      </trkpt>
      <trkpt lat="44.4007" lon="6.46873">
        <ele>1003</ele>
        <time>2021-08-09T06:46:53Z</time>
      </trkpt>
      <trkpt lat="44.40071" lon="6.46863">
        <ele>1002.8</ele>
        <time>2021-08-09T06:46:55Z</time>
      </trkpt>
      <trkpt lat="44.40072" lon="6.46858">
        <ele>1002.8</ele>
        <time>2021-08-09T06:46:56Z</time>
      </trkpt>
      <trkpt lat="44.40073" lon="6.46858">
        <ele>1002.6</ele>
        <time>2021-08-09T06:46:59Z</time>
      </trkpt>
      <trkpt lat="44.40074" lon="6.46865">
        <ele>1001.8</ele>
        <time>2021-08-09T06:47:01Z</time>
      </trkpt>
      <trkpt lat="44.40074" lon="6.46872">
        <ele>1000.2</ele>
        <time>2021-08-09T06:47:03Z</time>
      </trkpt>
      <trkpt lat="44.40075" lon="6.46874">
        <ele>999.8</ele>
        <time>2021-08-09T06:47:04Z</time>
      </trkpt>
      <trkpt lat="44.40081" lon="6.46873">
        <ele>999.4</ele>
        <time>2021-08-09T06:47:06Z</time>
      </trkpt>
      <trkpt lat="44.40084" lon="6.46871">
        <ele>999</ele>
        <time>2021-08-09T06:47:07Z</time>
      </trkpt>
      <trkpt lat="44.40089" lon="6.46865">
        <ele>997.4</ele>
        <time>2021-08-09T06:47:09Z</time>
      </trkpt>
      <trkpt lat="44.40091" lon="6.46861">
        <ele>996.2</ele>
        <time>2021-08-09T06:47:10Z</time>
      </trkpt>
      <trkpt lat="44.40104" lon="6.46844">
        <ele>995</ele>
        <time>2021-08-09T06:47:14Z</time>
      </trkpt>
      <trkpt lat="44.40106" lon="6.46839">
        <ele>994.4</ele>
        <time>2021-08-09T06:47:15Z</time>
      </trkpt>
      <trkpt lat="44.40108" lon="6.46832">
        <ele>993.8</ele>
        <time>2021-08-09T06:47:16Z</time>
      </trkpt>
      <trkpt lat="44.40109" lon="6.46826">
        <ele>993.2</ele>
        <time>2021-08-09T06:47:17Z</time>
      </trkpt>
      <trkpt lat="44.4011" lon="6.46821">
        <ele>992.6</ele>
        <time>2021-08-09T06:47:18Z</time>
      </trkpt>
      <trkpt lat="44.40113" lon="6.46814">
        <ele>990.8</ele>
        <time>2021-08-09T06:47:20Z</time>
      </trkpt>
      <trkpt lat="44.40116" lon="6.46811">
        <ele>990</ele>
        <time>2021-08-09T06:47:21Z</time>
      </trkpt>
      <trkpt lat="44.4012" lon="6.46807">
        <ele>988.8</ele>
        <time>2021-08-09T06:47:22Z</time>
      </trkpt>
      <trkpt lat="44.40128" lon="6.46798">
        <ele>987.2</ele>
        <time>2021-08-09T06:47:24Z</time>
      </trkpt>
      <trkpt lat="44.40132" lon="6.46793">
        <ele>985.8</ele>
        <time>2021-08-09T06:47:25Z</time>
      </trkpt>
      <trkpt lat="44.40137" lon="6.46786">
        <ele>985</ele>
        <time>2021-08-09T06:47:26Z</time>
      </trkpt>
      <trkpt lat="44.40141" lon="6.46779">
        <ele>984.4</ele>
        <time>2021-08-09T06:47:27Z</time>
      </trkpt>
      <trkpt lat="44.40148" lon="6.46761">
        <ele>983.6</ele>
        <time>2021-08-09T06:47:29Z</time>
      </trkpt>
      <trkpt lat="44.4015" lon="6.46752">
        <ele>983.2</ele>
        <time>2021-08-09T06:47:30Z</time>
      </trkpt>
      <trkpt lat="44.40155" lon="6.46734">
        <ele>981.6</ele>
        <time>2021-08-09T06:47:32Z</time>
      </trkpt>
      <trkpt lat="44.40158" lon="6.46725">
        <ele>980.6</ele>
        <time>2021-08-09T06:47:33Z</time>
      </trkpt>
      <trkpt lat="44.40161" lon="6.46718">
        <ele>979.8</ele>
        <time>2021-08-09T06:47:34Z</time>
      </trkpt>
      <trkpt lat="44.40164" lon="6.46711">
        <ele>978.8</ele>
        <time>2021-08-09T06:47:35Z</time>
      </trkpt>
      <trkpt lat="44.40166" lon="6.46704">
        <ele>977.2</ele>
        <time>2021-08-09T06:47:36Z</time>
      </trkpt>
      <trkpt lat="44.40168" lon="6.46697">
        <ele>975</ele>
        <time>2021-08-09T06:47:37Z</time>
      </trkpt>
      <trkpt lat="44.4017" lon="6.46691">
        <ele>974.6</ele>
        <time>2021-08-09T06:47:38Z</time>
      </trkpt>
      <trkpt lat="44.40172" lon="6.46684">
        <ele>974.4</ele>
        <time>2021-08-09T06:47:39Z</time>
      </trkpt>
      <trkpt lat="44.40181" lon="6.46664">
        <ele>974</ele>
        <time>2021-08-09T06:47:43Z</time>
      </trkpt>
      <trkpt lat="44.40187" lon="6.46646">
        <ele>974</ele>
        <time>2021-08-09T06:47:47Z</time>
      </trkpt>
      <trkpt lat="44.40187" lon="6.46617">
        <ele>975.6</ele>
        <time>2021-08-09T06:47:52Z</time>
      </trkpt>
      <trkpt lat="44.40187" lon="6.4661">
        <ele>976</ele>
        <time>2021-08-09T06:47:53Z</time>
      </trkpt>
      <trkpt lat="44.40183" lon="6.46584">
        <ele>976.4</ele>
        <time>2021-08-09T06:47:56Z</time>
      </trkpt>
      <trkpt lat="44.40182" lon="6.46565">
        <ele>976.6</ele>
        <time>2021-08-09T06:47:58Z</time>
      </trkpt>
      <trkpt lat="44.40184" lon="6.46539">
        <ele>976.6</ele>
        <time>2021-08-09T06:48:01Z</time>
      </trkpt>
      <trkpt lat="44.40187" lon="6.46511">
        <ele>973.8</ele>
        <time>2021-08-09T06:48:05Z</time>
      </trkpt>
      <trkpt lat="44.40187" lon="6.46506">
        <ele>973.4</ele>
        <time>2021-08-09T06:48:06Z</time>
      </trkpt>
      <trkpt lat="44.40192" lon="6.46492">
        <ele>973.2</ele>
        <time>2021-08-09T06:48:09Z</time>
      </trkpt>
      <trkpt lat="44.40202" lon="6.46477">
        <ele>973</ele>
        <time>2021-08-09T06:48:12Z</time>
      </trkpt>
      <trkpt lat="44.40209" lon="6.46472">
        <ele>972.8</ele>
        <time>2021-08-09T06:48:13Z</time>
      </trkpt>
      <trkpt lat="44.40215" lon="6.46465">
        <ele>972.6</ele>
        <time>2021-08-09T06:48:14Z</time>
      </trkpt>
      <trkpt lat="44.40222" lon="6.46452">
        <ele>972.4</ele>
        <time>2021-08-09T06:48:16Z</time>
      </trkpt>
      <trkpt lat="44.40231" lon="6.46433">
        <ele>972.4</ele>
        <time>2021-08-09T06:48:20Z</time>
      </trkpt>
      <trkpt lat="44.40236" lon="6.46425">
        <ele>971.6</ele>
        <time>2021-08-09T06:48:22Z</time>
      </trkpt>
      <trkpt lat="44.40242" lon="6.46416">
        <ele>970</ele>
        <time>2021-08-09T06:48:24Z</time>
      </trkpt>
      <trkpt lat="44.4025" lon="6.46408">
        <ele>968.8</ele>
        <time>2021-08-09T06:48:26Z</time>
      </trkpt>
      <trkpt lat="44.40264" lon="6.46392">
        <ele>967.2</ele>
        <time>2021-08-09T06:48:29Z</time>
      </trkpt>
      <trkpt lat="44.40276" lon="6.46379">
        <ele>966</ele>
        <time>2021-08-09T06:48:31Z</time>
      </trkpt>
      <trkpt lat="44.40295" lon="6.46354">
        <ele>964.4</ele>
        <time>2021-08-09T06:48:34Z</time>
      </trkpt>
      <trkpt lat="44.40314" lon="6.46326">
        <ele>963</ele>
        <time>2021-08-09T06:48:37Z</time>
      </trkpt>
      <trkpt lat="44.40319" lon="6.46318">
        <ele>961.8</ele>
        <time>2021-08-09T06:48:38Z</time>
      </trkpt>
      <trkpt lat="44.40324" lon="6.46311">
        <ele>960.6</ele>
        <time>2021-08-09T06:48:39Z</time>
      </trkpt>
      <trkpt lat="44.40328" lon="6.46304">
        <ele>959.6</ele>
        <time>2021-08-09T06:48:40Z</time>
      </trkpt>
      <trkpt lat="44.40332" lon="6.46298">
        <ele>958.6</ele>
        <time>2021-08-09T06:48:41Z</time>
      </trkpt>
      <trkpt lat="44.40336" lon="6.46293">
        <ele>958</ele>
        <time>2021-08-09T06:48:42Z</time>
      </trkpt>
      <trkpt lat="44.4034" lon="6.46288">
        <ele>957.8</ele>
        <time>2021-08-09T06:48:43Z</time>
      </trkpt>
      <trkpt lat="44.4036" lon="6.46265">
        <ele>957.4</ele>
        <time>2021-08-09T06:48:48Z</time>
      </trkpt>
      <trkpt lat="44.40388" lon="6.46234">
        <ele>958.8</ele>
        <time>2021-08-09T06:48:54Z</time>
      </trkpt>
      <trkpt lat="44.40393" lon="6.46228">
        <ele>959</ele>
        <time>2021-08-09T06:48:55Z</time>
      </trkpt>
      <trkpt lat="44.40411" lon="6.46206">
        <ele>959.2</ele>
        <time>2021-08-09T06:48:59Z</time>
      </trkpt>
      <trkpt lat="44.40417" lon="6.46195">
        <ele>959.4</ele>
        <time>2021-08-09T06:49:01Z</time>
      </trkpt>
      <trkpt lat="44.40418" lon="6.46186">
        <ele>959.4</ele>
        <time>2021-08-09T06:49:03Z</time>
      </trkpt>
      <trkpt lat="44.40421" lon="6.46179">
        <ele>959.2</ele>
        <time>2021-08-09T06:49:05Z</time>
      </trkpt>
      <trkpt lat="44.40428" lon="6.46164">
        <ele>959</ele>
        <time>2021-08-09T06:49:09Z</time>
      </trkpt>
      <trkpt lat="44.40439" lon="6.4614">
        <ele>958.6</ele>
        <time>2021-08-09T06:49:14Z</time>
      </trkpt>
      <trkpt lat="44.40449" lon="6.46117">
        <ele>958.2</ele>
        <time>2021-08-09T06:49:18Z</time>
      </trkpt>
      <trkpt lat="44.40452" lon="6.46111">
        <ele>958.2</ele>
        <time>2021-08-09T06:49:19Z</time>
      </trkpt>
      <trkpt lat="44.40462" lon="6.46093">
        <ele>958</ele>
        <time>2021-08-09T06:49:22Z</time>
      </trkpt>
      <trkpt lat="44.40474" lon="6.46068">
        <ele>957.6</ele>
        <time>2021-08-09T06:49:26Z</time>
      </trkpt>
      <trkpt lat="44.40488" lon="6.4604">
        <ele>956.6</ele>
        <time>2021-08-09T06:49:30Z</time>
      </trkpt>
      <trkpt lat="44.40491" lon="6.46033">
        <ele>956.2</ele>
        <time>2021-08-09T06:49:31Z</time>
      </trkpt>
      <trkpt lat="44.40493" lon="6.46026">
        <ele>956.2</ele>
        <time>2021-08-09T06:49:32Z</time>
      </trkpt>
      <trkpt lat="44.40501" lon="6.46005">
        <ele>955.6</ele>
        <time>2021-08-09T06:49:35Z</time>
      </trkpt>
      <trkpt lat="44.4051" lon="6.45987">
        <ele>955</ele>
        <time>2021-08-09T06:49:38Z</time>
      </trkpt>
      <trkpt lat="44.40512" lon="6.45971">
        <ele>954.6</ele>
        <time>2021-08-09T06:49:41Z</time>
      </trkpt>
      <trkpt lat="44.40512" lon="6.45967">
        <ele>954.6</ele>
        <time>2021-08-09T06:49:42Z</time>
      </trkpt>
      <trkpt lat="44.40519" lon="6.45951">
        <ele>954.6</ele>
        <time>2021-08-09T06:49:45Z</time>
      </trkpt>
      <trkpt lat="44.40522" lon="6.45944">
        <ele>954.6</ele>
        <time>2021-08-09T06:49:46Z</time>
      </trkpt>
      <trkpt lat="44.40535" lon="6.45917">
        <ele>954.2</ele>
        <time>2021-08-09T06:49:50Z</time>
      </trkpt>
      <trkpt lat="44.40561" lon="6.45873">
        <ele>954</ele>
        <time>2021-08-09T06:49:56Z</time>
      </trkpt>
      <trkpt lat="44.40575" lon="6.4585">
        <ele>953</ele>
        <time>2021-08-09T06:49:59Z</time>
      </trkpt>
      <trkpt lat="44.40589" lon="6.45826">
        <ele>952</ele>
        <time>2021-08-09T06:50:02Z</time>
      </trkpt>
      <trkpt lat="44.40607" lon="6.45791">
        <ele>950.8</ele>
        <time>2021-08-09T06:50:06Z</time>
      </trkpt>
      <trkpt lat="44.40616" lon="6.45774">
        <ele>950.4</ele>
        <time>2021-08-09T06:50:08Z</time>
      </trkpt>
      <trkpt lat="44.40634" lon="6.45729">
        <ele>949.8</ele>
        <time>2021-08-09T06:50:13Z</time>
      </trkpt>
      <trkpt lat="44.40638" lon="6.45721">
        <ele>949.6</ele>
        <time>2021-08-09T06:50:14Z</time>
      </trkpt>
      <trkpt lat="44.40649" lon="6.45695">
        <ele>948.6</ele>
        <time>2021-08-09T06:50:17Z</time>
      </trkpt>
      <trkpt lat="44.40653" lon="6.45687">
        <ele>948.4</ele>
        <time>2021-08-09T06:50:18Z</time>
      </trkpt>
      <trkpt lat="44.40679" lon="6.45633">
        <ele>948.2</ele>
        <time>2021-08-09T06:50:25Z</time>
      </trkpt>
      <trkpt lat="44.4071" lon="6.45582">
        <ele>948.6</ele>
        <time>2021-08-09T06:50:32Z</time>
      </trkpt>
      <trkpt lat="44.40716" lon="6.45576">
        <ele>948.6</ele>
        <time>2021-08-09T06:50:33Z</time>
      </trkpt>
      <trkpt lat="44.4073" lon="6.45557">
        <ele>948.6</ele>
        <time>2021-08-09T06:50:36Z</time>
      </trkpt>
      <trkpt lat="44.40746" lon="6.45541">
        <ele>948.6</ele>
        <time>2021-08-09T06:50:39Z</time>
      </trkpt>
      <trkpt lat="44.4075" lon="6.45535">
        <ele>948.6</ele>
        <time>2021-08-09T06:50:40Z</time>
      </trkpt>
      <trkpt lat="44.40764" lon="6.45516">
        <ele>948.8</ele>
        <time>2021-08-09T06:50:43Z</time>
      </trkpt>
      <trkpt lat="44.40778" lon="6.45498">
        <ele>949</ele>
        <time>2021-08-09T06:50:46Z</time>
      </trkpt>
      <trkpt lat="44.40782" lon="6.45491">
        <ele>949</ele>
        <time>2021-08-09T06:50:47Z</time>
      </trkpt>
      <trkpt lat="44.40791" lon="6.45478">
        <ele>949</ele>
        <time>2021-08-09T06:50:49Z</time>
      </trkpt>
      <trkpt lat="44.40795" lon="6.45472">
        <ele>949</ele>
        <time>2021-08-09T06:50:50Z</time>
      </trkpt>
      <trkpt lat="44.4083" lon="6.45433">
        <ele>949.2</ele>
        <time>2021-08-09T06:50:57Z</time>
      </trkpt>
      <trkpt lat="44.40845" lon="6.45418">
        <ele>949.2</ele>
        <time>2021-08-09T06:51:00Z</time>
      </trkpt>
      <trkpt lat="44.40857" lon="6.4541">
        <ele>949.2</ele>
        <time>2021-08-09T06:51:02Z</time>
      </trkpt>
      <trkpt lat="44.40885" lon="6.4539">
        <ele>949.2</ele>
        <time>2021-08-09T06:51:07Z</time>
      </trkpt>
      <trkpt lat="44.4092" lon="6.45374">
        <ele>949.2</ele>
        <time>2021-08-09T06:51:13Z</time>
      </trkpt>
      <trkpt lat="44.40938" lon="6.45369">
        <ele>949</ele>
        <time>2021-08-09T06:51:16Z</time>
      </trkpt>
      <trkpt lat="44.40949" lon="6.45362">
        <ele>949</ele>
        <time>2021-08-09T06:51:18Z</time>
      </trkpt>
      <trkpt lat="44.40979" lon="6.45352">
        <ele>948.8</ele>
        <time>2021-08-09T06:51:23Z</time>
      </trkpt>
      <trkpt lat="44.40984" lon="6.45349">
        <ele>948.8</ele>
        <time>2021-08-09T06:51:24Z</time>
      </trkpt>
      <trkpt lat="44.41022" lon="6.45328">
        <ele>949</ele>
        <time>2021-08-09T06:51:31Z</time>
      </trkpt>
      <trkpt lat="44.41039" lon="6.45309">
        <ele>949.4</ele>
        <time>2021-08-09T06:51:35Z</time>
      </trkpt>
      <trkpt lat="44.41042" lon="6.45305">
        <ele>949.6</ele>
        <time>2021-08-09T06:51:36Z</time>
      </trkpt>
      <trkpt lat="44.41056" lon="6.45289">
        <ele>949.8</ele>
        <time>2021-08-09T06:51:41Z</time>
      </trkpt>
      <trkpt lat="44.41063" lon="6.45279">
        <ele>950.4</ele>
        <time>2021-08-09T06:51:44Z</time>
      </trkpt>
      <trkpt lat="44.41069" lon="6.45269">
        <ele>951.6</ele>
        <time>2021-08-09T06:51:47Z</time>
      </trkpt>
      <trkpt lat="44.41074" lon="6.45263">
        <ele>952.4</ele>
        <time>2021-08-09T06:51:49Z</time>
      </trkpt>
      <trkpt lat="44.41076" lon="6.45259">
        <ele>952.8</ele>
        <time>2021-08-09T06:51:50Z</time>
      </trkpt>
      <trkpt lat="44.41087" lon="6.45246">
        <ele>954.4</ele>
        <time>2021-08-09T06:51:54Z</time>
      </trkpt>
      <trkpt lat="44.41092" lon="6.45237">
        <ele>955</ele>
        <time>2021-08-09T06:51:56Z</time>
      </trkpt>
      <trkpt lat="44.411" lon="6.45219">
        <ele>955.6</ele>
        <time>2021-08-09T06:52:00Z</time>
      </trkpt>
      <trkpt lat="44.41105" lon="6.45205">
        <ele>955.8</ele>
        <time>2021-08-09T06:52:03Z</time>
      </trkpt>
      <trkpt lat="44.41116" lon="6.45177">
        <ele>956</ele>
        <time>2021-08-09T06:52:10Z</time>
      </trkpt>
      <trkpt lat="44.41124" lon="6.45148">
        <ele>956.6</ele>
        <time>2021-08-09T06:52:17Z</time>
      </trkpt>
      <trkpt lat="44.41124" lon="6.45144">
        <ele>957</ele>
        <time>2021-08-09T06:52:18Z</time>
      </trkpt>
      <trkpt lat="44.41128" lon="6.45129">
        <ele>957.8</ele>
        <time>2021-08-09T06:52:22Z</time>
      </trkpt>
      <trkpt lat="44.41129" lon="6.45126">
        <ele>958</ele>
        <time>2021-08-09T06:52:23Z</time>
      </trkpt>
      <trkpt lat="44.41132" lon="6.45108">
        <ele>958.8</ele>
        <time>2021-08-09T06:52:28Z</time>
      </trkpt>
      <trkpt lat="44.41132" lon="6.45105">
        <ele>959</ele>
        <time>2021-08-09T06:52:29Z</time>
      </trkpt>
      <trkpt lat="44.41129" lon="6.45096">
        <ele>959.8</ele>
        <time>2021-08-09T06:52:33Z</time>
      </trkpt>
      <trkpt lat="44.41127" lon="6.45094">
        <ele>960</ele>
        <time>2021-08-09T06:52:34Z</time>
      </trkpt>
      <trkpt lat="44.4112" lon="6.45083">
        <ele>961.4</ele>
        <time>2021-08-09T06:52:39Z</time>
      </trkpt>
      <trkpt lat="44.41119" lon="6.45081">
        <ele>961.4</ele>
        <time>2021-08-09T06:52:40Z</time>
      </trkpt>
      <trkpt lat="44.41114" lon="6.4507">
        <ele>962.4</ele>
        <time>2021-08-09T06:52:44Z</time>
      </trkpt>
      <trkpt lat="44.4111" lon="6.45058">
        <ele>963</ele>
        <time>2021-08-09T06:52:48Z</time>
      </trkpt>
      <trkpt lat="44.41107" lon="6.45052">
        <ele>963.4</ele>
        <time>2021-08-09T06:52:50Z</time>
      </trkpt>
      <trkpt lat="44.41103" lon="6.45039">
        <ele>964.4</ele>
        <time>2021-08-09T06:52:54Z</time>
      </trkpt>
      <trkpt lat="44.41103" lon="6.45035">
        <ele>964.6</ele>
        <time>2021-08-09T06:52:55Z</time>
      </trkpt>
      <trkpt lat="44.41101" lon="6.45018">
        <ele>965</ele>
        <time>2021-08-09T06:53:00Z</time>
      </trkpt>
      <trkpt lat="44.41103" lon="6.45001">
        <ele>965.8</ele>
        <time>2021-08-09T06:53:05Z</time>
      </trkpt>
      <trkpt lat="44.41104" lon="6.44995">
        <ele>966.2</ele>
        <time>2021-08-09T06:53:07Z</time>
      </trkpt>
      <trkpt lat="44.41108" lon="6.44976">
        <ele>967</ele>
        <time>2021-08-09T06:53:13Z</time>
      </trkpt>
      <trkpt lat="44.41107" lon="6.44963">
        <ele>967.8</ele>
        <time>2021-08-09T06:53:17Z</time>
      </trkpt>
      <trkpt lat="44.41106" lon="6.4496">
        <ele>968</ele>
        <time>2021-08-09T06:53:18Z</time>
      </trkpt>
      <trkpt lat="44.41097" lon="6.44949">
        <ele>968.6</ele>
        <time>2021-08-09T06:53:23Z</time>
      </trkpt>
      <trkpt lat="44.41084" lon="6.44949">
        <ele>969</ele>
        <time>2021-08-09T06:53:29Z</time>
      </trkpt>
      <trkpt lat="44.4108" lon="6.44953">
        <ele>969.4</ele>
        <time>2021-08-09T06:53:31Z</time>
      </trkpt>
      <trkpt lat="44.41074" lon="6.44961">
        <ele>969.6</ele>
        <time>2021-08-09T06:53:34Z</time>
      </trkpt>
      <trkpt lat="44.4107" lon="6.4497">
        <ele>970.6</ele>
        <time>2021-08-09T06:53:37Z</time>
      </trkpt>
      <trkpt lat="44.41066" lon="6.44979">
        <ele>971.6</ele>
        <time>2021-08-09T06:53:40Z</time>
      </trkpt>
      <trkpt lat="44.41061" lon="6.4499">
        <ele>972.2</ele>
        <time>2021-08-09T06:53:44Z</time>
      </trkpt>
      <trkpt lat="44.41057" lon="6.44995">
        <ele>972.8</ele>
        <time>2021-08-09T06:53:46Z</time>
      </trkpt>
      <trkpt lat="44.4105" lon="6.45009">
        <ele>973.8</ele>
        <time>2021-08-09T06:53:51Z</time>
      </trkpt>
      <trkpt lat="44.41048" lon="6.45012">
        <ele>973.8</ele>
        <time>2021-08-09T06:53:52Z</time>
      </trkpt>
      <trkpt lat="44.41043" lon="6.45023">
        <ele>974.8</ele>
        <time>2021-08-09T06:53:56Z</time>
      </trkpt>
      <trkpt lat="44.41042" lon="6.45026">
        <ele>975</ele>
        <time>2021-08-09T06:53:57Z</time>
      </trkpt>
      <trkpt lat="44.41039" lon="6.45031">
        <ele>976</ele>
        <time>2021-08-09T06:54:00Z</time>
      </trkpt>
      <trkpt lat="44.41038" lon="6.45032">
        <ele>976.2</ele>
        <time>2021-08-09T06:54:01Z</time>
      </trkpt>
      <trkpt lat="44.41037" lon="6.45033">
        <ele>976.4</ele>
        <time>2021-08-09T06:54:02Z</time>
      </trkpt>
      <trkpt lat="44.41036" lon="6.45032">
        <ele>976.8</ele>
        <time>2021-08-09T06:54:04Z</time>
      </trkpt>
      <trkpt lat="44.41038" lon="6.45029">
        <ele>977</ele>
        <time>2021-08-09T06:54:06Z</time>
      </trkpt>
      <trkpt lat="44.41039" lon="6.45025">
        <ele>977.4</ele>
        <time>2021-08-09T06:54:08Z</time>
      </trkpt>
      <trkpt lat="44.4104" lon="6.4502">
        <ele>978</ele>
        <time>2021-08-09T06:54:10Z</time>
      </trkpt>
      <trkpt lat="44.4104" lon="6.45018">
        <ele>978.2</ele>
        <time>2021-08-09T06:54:11Z</time>
      </trkpt>
      <trkpt lat="44.41037" lon="6.45011">
        <ele>978.4</ele>
        <time>2021-08-09T06:54:15Z</time>
      </trkpt>
      <trkpt lat="44.41035" lon="6.45009">
        <ele>978.6</ele>
        <time>2021-08-09T06:54:17Z</time>
      </trkpt>
      <trkpt lat="44.4103" lon="6.45007">
        <ele>979.6</ele>
        <time>2021-08-09T06:54:21Z</time>
      </trkpt>
      <trkpt lat="44.41027" lon="6.45006">
        <ele>980</ele>
        <time>2021-08-09T06:54:24Z</time>
      </trkpt>
      <trkpt lat="44.41024" lon="6.45005">
        <ele>980.6</ele>
        <time>2021-08-09T06:54:26Z</time>
      </trkpt>
      <trkpt lat="44.4102" lon="6.45004">
        <ele>981.6</ele>
        <time>2021-08-09T06:54:29Z</time>
      </trkpt>
      <trkpt lat="44.41018" lon="6.45003">
        <ele>982.4</ele>
        <time>2021-08-09T06:54:31Z</time>
      </trkpt>
      <trkpt lat="44.41016" lon="6.45002">
        <ele>982.6</ele>
        <time>2021-08-09T06:54:32Z</time>
      </trkpt>
      <trkpt lat="44.41013" lon="6.44995">
        <ele>983.8</ele>
        <time>2021-08-09T06:54:36Z</time>
      </trkpt>
      <trkpt lat="44.41014" lon="6.44984">
        <ele>985</ele>
        <time>2021-08-09T06:54:40Z</time>
      </trkpt>
      <trkpt lat="44.41015" lon="6.44979">
        <ele>985.6</ele>
        <time>2021-08-09T06:54:42Z</time>
      </trkpt>
      <trkpt lat="44.41016" lon="6.44976">
        <ele>986</ele>
        <time>2021-08-09T06:54:45Z</time>
      </trkpt>
      <trkpt lat="44.41016" lon="6.44976">
        <ele>986</ele>
        <time>2021-08-09T06:54:46Z</time>
      </trkpt>
      <trkpt lat="44.41018" lon="6.44974">
        <ele>986.4</ele>
        <time>2021-08-09T06:56:02Z</time>
      </trkpt>
      <trkpt lat="44.41019" lon="6.44969">
        <ele>986.4</ele>
        <time>2021-08-09T06:56:05Z</time>
      </trkpt>
      <trkpt lat="44.41025" lon="6.44955">
        <ele>986.4</ele>
        <time>2021-08-09T06:56:12Z</time>
      </trkpt>
      <trkpt lat="44.41025" lon="6.44953">
        <ele>986.4</ele>
        <time>2021-08-09T06:56:13Z</time>
      </trkpt>
      <trkpt lat="44.4103" lon="6.44942">
        <ele>987</ele>
        <time>2021-08-09T06:56:19Z</time>
      </trkpt>
      <trkpt lat="44.4103" lon="6.4494">
        <ele>987.2</ele>
        <time>2021-08-09T06:56:20Z</time>
      </trkpt>
      <trkpt lat="44.41031" lon="6.44938">
        <ele>987.6</ele>
        <time>2021-08-09T06:56:22Z</time>
      </trkpt>
      <trkpt lat="44.4103" lon="6.44936">
        <ele>988.2</ele>
        <time>2021-08-09T06:56:24Z</time>
      </trkpt>
      <trkpt lat="44.4103" lon="6.44935">
        <ele>988.8</ele>
        <time>2021-08-09T06:56:27Z</time>
      </trkpt>
      <trkpt lat="44.41032" lon="6.44928">
        <ele>991</ele>
        <time>2021-08-09T06:56:37Z</time>
      </trkpt>
      <trkpt lat="44.41034" lon="6.44927">
        <ele>991.2</ele>
        <time>2021-08-09T06:56:39Z</time>
      </trkpt>
      <trkpt lat="44.41035" lon="6.44921">
        <ele>991.8</ele>
        <time>2021-08-09T06:56:44Z</time>
      </trkpt>
      <trkpt lat="44.41036" lon="6.44919">
        <ele>992.2</ele>
        <time>2021-08-09T06:56:45Z</time>
      </trkpt>
      <trkpt lat="44.41037" lon="6.44916">
        <ele>992.6</ele>
        <time>2021-08-09T06:56:47Z</time>
      </trkpt>
      <trkpt lat="44.4104" lon="6.44912">
        <ele>993.4</ele>
        <time>2021-08-09T06:56:50Z</time>
      </trkpt>
      <trkpt lat="44.41044" lon="6.44906">
        <ele>994.6</ele>
        <time>2021-08-09T06:56:54Z</time>
      </trkpt>
      <trkpt lat="44.41045" lon="6.44903">
        <ele>995</ele>
        <time>2021-08-09T06:56:56Z</time>
      </trkpt>
      <trkpt lat="44.41047" lon="6.449">
        <ele>995.6</ele>
        <time>2021-08-09T06:56:58Z</time>
      </trkpt>
      <trkpt lat="44.4105" lon="6.44892">
        <ele>996.8</ele>
        <time>2021-08-09T06:57:02Z</time>
      </trkpt>
      <trkpt lat="44.41051" lon="6.4489">
        <ele>997</ele>
        <time>2021-08-09T06:57:03Z</time>
      </trkpt>
      <trkpt lat="44.41055" lon="6.44885">
        <ele>997.8</ele>
        <time>2021-08-09T06:57:07Z</time>
      </trkpt>
      <trkpt lat="44.41056" lon="6.44883">
        <ele>997.8</ele>
        <time>2021-08-09T06:57:08Z</time>
      </trkpt>
      <trkpt lat="44.41057" lon="6.44881">
        <ele>998</ele>
        <time>2021-08-09T06:57:09Z</time>
      </trkpt>
      <trkpt lat="44.41062" lon="6.44873">
        <ele>999</ele>
        <time>2021-08-09T06:57:15Z</time>
      </trkpt>
      <trkpt lat="44.41063" lon="6.44872">
        <ele>999.2</ele>
        <time>2021-08-09T06:57:16Z</time>
      </trkpt>
      <trkpt lat="44.41065" lon="6.4487">
        <ele>999.6</ele>
        <time>2021-08-09T06:57:18Z</time>
      </trkpt>
      <trkpt lat="44.41067" lon="6.44866">
        <ele>1000.2</ele>
        <time>2021-08-09T06:57:21Z</time>
      </trkpt>
      <trkpt lat="44.41068" lon="6.44865">
        <ele>1000.4</ele>
        <time>2021-08-09T06:57:22Z</time>
      </trkpt>
      <trkpt lat="44.41071" lon="6.4486">
        <ele>1000.8</ele>
        <time>2021-08-09T06:57:25Z</time>
      </trkpt>
      <trkpt lat="44.41072" lon="6.44858">
        <ele>1001.2</ele>
        <time>2021-08-09T06:57:27Z</time>
      </trkpt>
      <trkpt lat="44.41074" lon="6.44856">
        <ele>1001.4</ele>
        <time>2021-08-09T06:57:28Z</time>
      </trkpt>
      <trkpt lat="44.41079" lon="6.4485">
        <ele>1002.4</ele>
        <time>2021-08-09T06:57:32Z</time>
      </trkpt>
      <trkpt lat="44.41081" lon="6.44849">
        <ele>1002.6</ele>
        <time>2021-08-09T06:57:33Z</time>
      </trkpt>
      <trkpt lat="44.41086" lon="6.44844">
        <ele>1003</ele>
        <time>2021-08-09T06:57:37Z</time>
      </trkpt>
      <trkpt lat="44.41087" lon="6.44842">
        <ele>1003.2</ele>
        <time>2021-08-09T06:57:38Z</time>
      </trkpt>
      <trkpt lat="44.41091" lon="6.44836">
        <ele>1003.6</ele>
        <time>2021-08-09T06:57:42Z</time>
      </trkpt>
      <trkpt lat="44.41092" lon="6.44833">
        <ele>1004</ele>
        <time>2021-08-09T06:57:44Z</time>
      </trkpt>
      <trkpt lat="44.41096" lon="6.44827">
        <ele>1004.6</ele>
        <time>2021-08-09T06:57:47Z</time>
      </trkpt>
      <trkpt lat="44.411" lon="6.44826">
        <ele>1004.8</ele>
        <time>2021-08-09T06:57:49Z</time>
      </trkpt>
      <trkpt lat="44.41105" lon="6.44826">
        <ele>1005.2</ele>
        <time>2021-08-09T06:57:51Z</time>
      </trkpt>
      <trkpt lat="44.41118" lon="6.44824">
        <ele>1005.8</ele>
        <time>2021-08-09T06:57:55Z</time>
      </trkpt>
      <trkpt lat="44.41134" lon="6.44814">
        <ele>1005.8</ele>
        <time>2021-08-09T06:58:01Z</time>
      </trkpt>
      <trkpt lat="44.41151" lon="6.44804">
        <ele>1005.4</ele>
        <time>2021-08-09T06:58:06Z</time>
      </trkpt>
      <trkpt lat="44.41155" lon="6.44801">
        <ele>1005.4</ele>
        <time>2021-08-09T06:58:07Z</time>
      </trkpt>
      <trkpt lat="44.4117" lon="6.44791">
        <ele>1005.4</ele>
        <time>2021-08-09T06:58:10Z</time>
      </trkpt>
      <trkpt lat="44.41192" lon="6.4478">
        <ele>1004.4</ele>
        <time>2021-08-09T06:58:15Z</time>
      </trkpt>
      <trkpt lat="44.412" lon="6.44775">
        <ele>1003.2</ele>
        <time>2021-08-09T06:58:17Z</time>
      </trkpt>
      <trkpt lat="44.41211" lon="6.44767">
        <ele>1002.2</ele>
        <time>2021-08-09T06:58:20Z</time>
      </trkpt>
      <trkpt lat="44.41216" lon="6.44762">
        <ele>1002.2</ele>
        <time>2021-08-09T06:58:22Z</time>
      </trkpt>
      <trkpt lat="44.41219" lon="6.44756">
        <ele>1002.2</ele>
        <time>2021-08-09T06:58:24Z</time>
      </trkpt>
      <trkpt lat="44.41231" lon="6.44747">
        <ele>1002.6</ele>
        <time>2021-08-09T06:58:29Z</time>
      </trkpt>
      <trkpt lat="44.41236" lon="6.44745">
        <ele>1003.6</ele>
        <time>2021-08-09T06:58:31Z</time>
      </trkpt>
      <trkpt lat="44.41245" lon="6.44742">
        <ele>1004.6</ele>
        <time>2021-08-09T06:58:34Z</time>
      </trkpt>
      <trkpt lat="44.41255" lon="6.44739">
        <ele>1005.8</ele>
        <time>2021-08-09T06:58:38Z</time>
      </trkpt>
      <trkpt lat="44.41257" lon="6.44738">
        <ele>1006.2</ele>
        <time>2021-08-09T06:58:39Z</time>
      </trkpt>
      <trkpt lat="44.41266" lon="6.44738">
        <ele>1006.6</ele>
        <time>2021-08-09T06:58:44Z</time>
      </trkpt>
      <trkpt lat="44.41267" lon="6.44738">
        <ele>1006.6</ele>
        <time>2021-08-09T06:58:45Z</time>
      </trkpt>
      <trkpt lat="44.4127" lon="6.44737">
        <ele>1006</ele>
        <time>2021-08-09T06:58:55Z</time>
      </trkpt>
      <trkpt lat="44.41271" lon="6.44737">
        <ele>1005.8</ele>
        <time>2021-08-09T06:58:58Z</time>
      </trkpt>
      <trkpt lat="44.41274" lon="6.44736">
        <ele>1005.6</ele>
        <time>2021-08-09T06:59:03Z</time>
      </trkpt>
      <trkpt lat="44.41284" lon="6.44737">
        <ele>1005.6</ele>
        <time>2021-08-09T06:59:09Z</time>
      </trkpt>
      <trkpt lat="44.41295" lon="6.44734">
        <ele>1006.4</ele>
        <time>2021-08-09T06:59:17Z</time>
      </trkpt>
      <trkpt lat="44.41298" lon="6.44733">
        <ele>1007</ele>
        <time>2021-08-09T06:59:19Z</time>
      </trkpt>
      <trkpt lat="44.41302" lon="6.4473">
        <ele>1008</ele>
        <time>2021-08-09T06:59:22Z</time>
      </trkpt>
      <trkpt lat="44.41303" lon="6.44729">
        <ele>1008.4</ele>
        <time>2021-08-09T06:59:23Z</time>
      </trkpt>
      <trkpt lat="44.41309" lon="6.44726">
        <ele>1009.6</ele>
        <time>2021-08-09T06:59:27Z</time>
      </trkpt>
      <trkpt lat="44.41309" lon="6.44725">
        <ele>1009.8</ele>
        <time>2021-08-09T06:59:28Z</time>
      </trkpt>
      <trkpt lat="44.41311" lon="6.44722">
        <ele>1010.6</ele>
        <time>2021-08-09T06:59:31Z</time>
      </trkpt>
      <trkpt lat="44.41312" lon="6.44721">
        <ele>1011.2</ele>
        <time>2021-08-09T06:59:33Z</time>
      </trkpt>
      <trkpt lat="44.41316" lon="6.44717">
        <ele>1012.6</ele>
        <time>2021-08-09T06:59:38Z</time>
      </trkpt>
      <trkpt lat="44.41322" lon="6.44712">
        <ele>1013.4</ele>
        <time>2021-08-09T06:59:45Z</time>
      </trkpt>
      <trkpt lat="44.41322" lon="6.44711">
        <ele>1013.6</ele>
        <time>2021-08-09T06:59:46Z</time>
      </trkpt>
      <trkpt lat="44.41322" lon="6.44711">
        <ele>1014</ele>
        <time>2021-08-09T06:59:48Z</time>
      </trkpt>
      <trkpt lat="44.41325" lon="6.44708">
        <ele>1015.4</ele>
        <time>2021-08-09T06:59:54Z</time>
      </trkpt>
      <trkpt lat="44.41327" lon="6.44706">
        <ele>1015.6</ele>
        <time>2021-08-09T06:59:56Z</time>
      </trkpt>
      <trkpt lat="44.41336" lon="6.44696">
        <ele>1015.6</ele>
        <time>2021-08-09T07:00:03Z</time>
      </trkpt>
      <trkpt lat="44.41348" lon="6.44688">
        <ele>1015.6</ele>
        <time>2021-08-09T07:00:08Z</time>
      </trkpt>
      <trkpt lat="44.41353" lon="6.44686">
        <ele>1015.6</ele>
        <time>2021-08-09T07:00:10Z</time>
      </trkpt>
      <trkpt lat="44.41356" lon="6.44679">
        <ele>1015.4</ele>
        <time>2021-08-09T07:00:12Z</time>
      </trkpt>
      <trkpt lat="44.41365" lon="6.44668">
        <ele>1015.4</ele>
        <time>2021-08-09T07:00:16Z</time>
      </trkpt>
      <trkpt lat="44.41374" lon="6.44657">
        <ele>1015.2</ele>
        <time>2021-08-09T07:00:20Z</time>
      </trkpt>
      <trkpt lat="44.41387" lon="6.44645">
        <ele>1015.4</ele>
        <time>2021-08-09T07:00:24Z</time>
      </trkpt>
      <trkpt lat="44.41401" lon="6.44636">
        <ele>1015.4</ele>
        <time>2021-08-09T07:00:27Z</time>
      </trkpt>
      <trkpt lat="44.41409" lon="6.4463">
        <ele>1015.4</ele>
        <time>2021-08-09T07:00:29Z</time>
      </trkpt>
      <trkpt lat="44.4142" lon="6.44619">
        <ele>1015.4</ele>
        <time>2021-08-09T07:00:33Z</time>
      </trkpt>
      <trkpt lat="44.41433" lon="6.44606">
        <ele>1015.4</ele>
        <time>2021-08-09T07:00:37Z</time>
      </trkpt>
      <trkpt lat="44.41437" lon="6.44603">
        <ele>1015.4</ele>
        <time>2021-08-09T07:00:38Z</time>
      </trkpt>
      <trkpt lat="44.41443" lon="6.44595">
        <ele>1015</ele>
        <time>2021-08-09T07:00:41Z</time>
      </trkpt>
      <trkpt lat="44.41457" lon="6.44583">
        <ele>1015.2</ele>
        <time>2021-08-09T07:00:47Z</time>
      </trkpt>
      <trkpt lat="44.4147" lon="6.44576">
        <ele>1015.6</ele>
        <time>2021-08-09T07:00:51Z</time>
      </trkpt>
      <trkpt lat="44.41481" lon="6.4457">
        <ele>1016</ele>
        <time>2021-08-09T07:00:54Z</time>
      </trkpt>
      <trkpt lat="44.41498" lon="6.44561">
        <ele>1016</ele>
        <time>2021-08-09T07:00:58Z</time>
      </trkpt>
      <trkpt lat="44.4151" lon="6.4455">
        <ele>1016</ele>
        <time>2021-08-09T07:01:02Z</time>
      </trkpt>
      <trkpt lat="44.41524" lon="6.44532">
        <ele>1016.2</ele>
        <time>2021-08-09T07:01:08Z</time>
      </trkpt>
      <trkpt lat="44.41533" lon="6.44517">
        <ele>1016.6</ele>
        <time>2021-08-09T07:01:14Z</time>
      </trkpt>
      <trkpt lat="44.41534" lon="6.44513">
        <ele>1017</ele>
        <time>2021-08-09T07:01:15Z</time>
      </trkpt>
      <trkpt lat="44.41538" lon="6.44507">
        <ele>1018.2</ele>
        <time>2021-08-09T07:01:18Z</time>
      </trkpt>
      <trkpt lat="44.41539" lon="6.44506">
        <ele>1018.4</ele>
        <time>2021-08-09T07:01:19Z</time>
      </trkpt>
      <trkpt lat="44.41543" lon="6.44501">
        <ele>1019.2</ele>
        <time>2021-08-09T07:01:22Z</time>
      </trkpt>
      <trkpt lat="44.41544" lon="6.445">
        <ele>1019.4</ele>
        <time>2021-08-09T07:01:23Z</time>
      </trkpt>
      <trkpt lat="44.41547" lon="6.44497">
        <ele>1020.2</ele>
        <time>2021-08-09T07:01:25Z</time>
      </trkpt>
      <trkpt lat="44.41549" lon="6.44495">
        <ele>1021</ele>
        <time>2021-08-09T07:01:27Z</time>
      </trkpt>
      <trkpt lat="44.41549" lon="6.44493">
        <ele>1021.2</ele>
        <time>2021-08-09T07:01:28Z</time>
      </trkpt>
      <trkpt lat="44.41552" lon="6.44486">
        <ele>1022.6</ele>
        <time>2021-08-09T07:01:32Z</time>
      </trkpt>
      <trkpt lat="44.41553" lon="6.44483">
        <ele>1023</ele>
        <time>2021-08-09T07:01:34Z</time>
      </trkpt>
      <trkpt lat="44.41554" lon="6.4448">
        <ele>1023.6</ele>
        <time>2021-08-09T07:01:36Z</time>
      </trkpt>
      <trkpt lat="44.41556" lon="6.44475">
        <ele>1024.8</ele>
        <time>2021-08-09T07:01:40Z</time>
      </trkpt>
      <trkpt lat="44.41557" lon="6.44472">
        <ele>1025.8</ele>
        <time>2021-08-09T07:01:42Z</time>
      </trkpt>
      <trkpt lat="44.41557" lon="6.44471">
        <ele>1026</ele>
        <time>2021-08-09T07:01:43Z</time>
      </trkpt>
      <trkpt lat="44.41558" lon="6.44462">
        <ele>1027</ele>
        <time>2021-08-09T07:01:48Z</time>
      </trkpt>
      <trkpt lat="44.41559" lon="6.44459">
        <ele>1027.4</ele>
        <time>2021-08-09T07:01:50Z</time>
      </trkpt>
      <trkpt lat="44.4156" lon="6.44452">
        <ele>1028</ele>
        <time>2021-08-09T07:01:54Z</time>
      </trkpt>
      <trkpt lat="44.41564" lon="6.44445">
        <ele>1029.4</ele>
        <time>2021-08-09T07:01:59Z</time>
      </trkpt>
      <trkpt lat="44.41567" lon="6.44438">
        <ele>1030.4</ele>
        <time>2021-08-09T07:02:03Z</time>
      </trkpt>
      <trkpt lat="44.4157" lon="6.4443">
        <ele>1031.4</ele>
        <time>2021-08-09T07:02:07Z</time>
      </trkpt>
      <trkpt lat="44.41572" lon="6.44426">
        <ele>1031.8</ele>
        <time>2021-08-09T07:02:09Z</time>
      </trkpt>
      <trkpt lat="44.41575" lon="6.44419">
        <ele>1032.2</ele>
        <time>2021-08-09T07:02:12Z</time>
      </trkpt>
      <trkpt lat="44.41575" lon="6.44411">
        <ele>1032.2</ele>
        <time>2021-08-09T07:02:14Z</time>
      </trkpt>
      <trkpt lat="44.41576" lon="6.4439">
        <ele>1032.4</ele>
        <time>2021-08-09T07:02:19Z</time>
      </trkpt>
      <trkpt lat="44.41582" lon="6.44369">
        <ele>1031.6</ele>
        <time>2021-08-09T07:02:24Z</time>
      </trkpt>
      <trkpt lat="44.4159" lon="6.44347">
        <ele>1031.2</ele>
        <time>2021-08-09T07:02:29Z</time>
      </trkpt>
      <trkpt lat="44.41594" lon="6.44339">
        <ele>1031</ele>
        <time>2021-08-09T07:02:32Z</time>
      </trkpt>
      <trkpt lat="44.41594" lon="6.44336">
        <ele>1030.8</ele>
        <time>2021-08-09T07:02:34Z</time>
      </trkpt>
      <trkpt lat="44.41595" lon="6.44333">
        <ele>1030.4</ele>
        <time>2021-08-09T07:02:37Z</time>
      </trkpt>
      <trkpt lat="44.41598" lon="6.44323">
        <ele>1031.2</ele>
        <time>2021-08-09T07:02:50Z</time>
      </trkpt>
      <trkpt lat="44.41598" lon="6.44321">
        <ele>1031.2</ele>
        <time>2021-08-09T07:02:51Z</time>
      </trkpt>
      <trkpt lat="44.41604" lon="6.44307">
        <ele>1031.6</ele>
        <time>2021-08-09T07:02:58Z</time>
      </trkpt>
      <trkpt lat="44.41607" lon="6.44302">
        <ele>1032.4</ele>
        <time>2021-08-09T07:03:01Z</time>
      </trkpt>
      <trkpt lat="44.41607" lon="6.443">
        <ele>1032.8</ele>
        <time>2021-08-09T07:03:02Z</time>
      </trkpt>
      <trkpt lat="44.41608" lon="6.44298">
        <ele>1033</ele>
        <time>2021-08-09T07:03:03Z</time>
      </trkpt>
      <trkpt lat="44.4161" lon="6.4429">
        <ele>1033.6</ele>
        <time>2021-08-09T07:03:06Z</time>
      </trkpt>
      <trkpt lat="44.41611" lon="6.44285">
        <ele>1034.2</ele>
        <time>2021-08-09T07:03:08Z</time>
      </trkpt>
      <trkpt lat="44.41613" lon="6.4428">
        <ele>1034.8</ele>
        <time>2021-08-09T07:03:11Z</time>
      </trkpt>
      <trkpt lat="44.41615" lon="6.44276">
        <ele>1035.4</ele>
        <time>2021-08-09T07:03:13Z</time>
      </trkpt>
      <trkpt lat="44.41616" lon="6.44273">
        <ele>1035.6</ele>
        <time>2021-08-09T07:03:14Z</time>
      </trkpt>
      <trkpt lat="44.41617" lon="6.44271">
        <ele>1035.8</ele>
        <time>2021-08-09T07:03:15Z</time>
      </trkpt>
      <trkpt lat="44.41622" lon="6.44264">
        <ele>1036.6</ele>
        <time>2021-08-09T07:03:19Z</time>
      </trkpt>
      <trkpt lat="44.41629" lon="6.44258">
        <ele>1037</ele>
        <time>2021-08-09T07:03:23Z</time>
      </trkpt>
      <trkpt lat="44.41631" lon="6.44255">
        <ele>1037.2</ele>
        <time>2021-08-09T07:03:25Z</time>
      </trkpt>
      <trkpt lat="44.41634" lon="6.44253">
        <ele>1037.4</ele>
        <time>2021-08-09T07:03:27Z</time>
      </trkpt>
      <trkpt lat="44.4164" lon="6.44249">
        <ele>1037.6</ele>
        <time>2021-08-09T07:03:30Z</time>
      </trkpt>
      <trkpt lat="44.41643" lon="6.44246">
        <ele>1037.6</ele>
        <time>2021-08-09T07:03:32Z</time>
      </trkpt>
      <trkpt lat="44.41644" lon="6.44245">
        <ele>1038</ele>
        <time>2021-08-09T07:03:33Z</time>
      </trkpt>
      <trkpt lat="44.41646" lon="6.44242">
        <ele>1038.4</ele>
        <time>2021-08-09T07:03:34Z</time>
      </trkpt>
      <trkpt lat="44.41647" lon="6.4424">
        <ele>1038.6</ele>
        <time>2021-08-09T07:03:35Z</time>
      </trkpt>
      <trkpt lat="44.41648" lon="6.44238">
        <ele>1039</ele>
        <time>2021-08-09T07:03:36Z</time>
      </trkpt>
      <trkpt lat="44.41652" lon="6.44231">
        <ele>1039</ele>
        <time>2021-08-09T07:03:40Z</time>
      </trkpt>
      <trkpt lat="44.41653" lon="6.44229">
        <ele>1039</ele>
        <time>2021-08-09T07:03:41Z</time>
      </trkpt>
      <trkpt lat="44.41653" lon="6.44219">
        <ele>1039</ele>
        <time>2021-08-09T07:03:45Z</time>
      </trkpt>
      <trkpt lat="44.4165" lon="6.44214">
        <ele>1038.8</ele>
        <time>2021-08-09T07:03:46Z</time>
      </trkpt>
      <trkpt lat="44.41646" lon="6.44203">
        <ele>1038.4</ele>
        <time>2021-08-09T07:03:49Z</time>
      </trkpt>
      <trkpt lat="44.41642" lon="6.44194">
        <ele>1037.4</ele>
        <time>2021-08-09T07:03:52Z</time>
      </trkpt>
      <trkpt lat="44.41638" lon="6.44188">
        <ele>1036.2</ele>
        <time>2021-08-09T07:03:54Z</time>
      </trkpt>
      <trkpt lat="44.41635" lon="6.44177">
        <ele>1035</ele>
        <time>2021-08-09T07:03:57Z</time>
      </trkpt>
      <trkpt lat="44.41635" lon="6.44174">
        <ele>1034.6</ele>
        <time>2021-08-09T07:03:58Z</time>
      </trkpt>
      <trkpt lat="44.41635" lon="6.44162">
        <ele>1033.8</ele>
        <time>2021-08-09T07:04:01Z</time>
      </trkpt>
      <trkpt lat="44.41635" lon="6.44158">
        <ele>1033.2</ele>
        <time>2021-08-09T07:04:02Z</time>
      </trkpt>
      <trkpt lat="44.41635" lon="6.44148">
        <ele>1032</ele>
        <time>2021-08-09T07:04:04Z</time>
      </trkpt>
      <trkpt lat="44.41636" lon="6.44143">
        <ele>1030.8</ele>
        <time>2021-08-09T07:04:06Z</time>
      </trkpt>
      <trkpt lat="44.41636" lon="6.44137">
        <ele>1029.4</ele>
        <time>2021-08-09T07:04:08Z</time>
      </trkpt>
      <trkpt lat="44.41634" lon="6.44131">
        <ele>1028.2</ele>
        <time>2021-08-09T07:04:10Z</time>
      </trkpt>
      <trkpt lat="44.41634" lon="6.44129">
        <ele>1027.4</ele>
        <time>2021-08-09T07:04:11Z</time>
      </trkpt>
      <trkpt lat="44.41633" lon="6.44127">
        <ele>1026.6</ele>
        <time>2021-08-09T07:04:12Z</time>
      </trkpt>
      <trkpt lat="44.41633" lon="6.44126">
        <ele>1025.4</ele>
        <time>2021-08-09T07:04:14Z</time>
      </trkpt>
      <trkpt lat="44.41633" lon="6.44125">
        <ele>1024.6</ele>
        <time>2021-08-09T07:04:16Z</time>
      </trkpt>
      <trkpt lat="44.41638" lon="6.4412">
        <ele>1022.2</ele>
        <time>2021-08-09T07:04:51Z</time>
      </trkpt>
      <trkpt lat="44.41638" lon="6.44119">
        <ele>1022.2</ele>
        <time>2021-08-09T07:04:53Z</time>
      </trkpt>
      <trkpt lat="44.41635" lon="6.44114">
        <ele>1021.8</ele>
        <time>2021-08-09T07:05:02Z</time>
      </trkpt>
      <trkpt lat="44.41638" lon="6.44111">
        <ele>1021.8</ele>
        <time>2021-08-09T07:05:05Z</time>
      </trkpt>
      <trkpt lat="44.41638" lon="6.44111">
        <ele>1021.8</ele>
        <time>2021-08-09T07:05:07Z</time>
      </trkpt>
      <trkpt lat="44.41648" lon="6.44116">
        <ele>1021.2</ele>
        <time>2021-08-09T07:09:13Z</time>
      </trkpt>
      <trkpt lat="44.4165" lon="6.44118">
        <ele>1021.4</ele>
        <time>2021-08-09T07:09:15Z</time>
      </trkpt>
      <trkpt lat="44.41651" lon="6.4412">
        <ele>1021.4</ele>
        <time>2021-08-09T07:09:16Z</time>
      </trkpt>
      <trkpt lat="44.41655" lon="6.44126">
        <ele>1021.8</ele>
        <time>2021-08-09T07:09:24Z</time>
      </trkpt>
      <trkpt lat="44.41655" lon="6.44127">
        <ele>1022.2</ele>
        <time>2021-08-09T07:09:25Z</time>
      </trkpt>
      <trkpt lat="44.41658" lon="6.44132">
        <ele>1024</ele>
        <time>2021-08-09T07:09:30Z</time>
      </trkpt>
      <trkpt lat="44.41667" lon="6.44138">
        <ele>1024.8</ele>
        <time>2021-08-09T07:09:34Z</time>
      </trkpt>
      <trkpt lat="44.41669" lon="6.44139">
        <ele>1024.8</ele>
        <time>2021-08-09T07:09:35Z</time>
      </trkpt>
      <trkpt lat="44.41678" lon="6.44143">
        <ele>1025</ele>
        <time>2021-08-09T07:09:39Z</time>
      </trkpt>
      <trkpt lat="44.41689" lon="6.44147">
        <ele>1025.2</ele>
        <time>2021-08-09T07:09:43Z</time>
      </trkpt>
      <trkpt lat="44.417" lon="6.44152">
        <ele>1025</ele>
        <time>2021-08-09T07:09:47Z</time>
      </trkpt>
      <trkpt lat="44.41707" lon="6.44156">
        <ele>1025</ele>
        <time>2021-08-09T07:09:50Z</time>
      </trkpt>
      <trkpt lat="44.41717" lon="6.4416">
        <ele>1024.8</ele>
        <time>2021-08-09T07:09:56Z</time>
      </trkpt>
      <trkpt lat="44.41718" lon="6.4416">
        <ele>1024.8</ele>
        <time>2021-08-09T07:09:59Z</time>
      </trkpt>
      <trkpt lat="44.41722" lon="6.4416">
        <ele>1025.6</ele>
        <time>2021-08-09T07:10:12Z</time>
      </trkpt>
      <trkpt lat="44.41724" lon="6.44161">
        <ele>1025.8</ele>
        <time>2021-08-09T07:10:14Z</time>
      </trkpt>
      <trkpt lat="44.41724" lon="6.44161">
        <ele>1026</ele>
        <time>2021-08-09T07:10:15Z</time>
      </trkpt>
      <trkpt lat="44.41727" lon="6.44162">
        <ele>1026</ele>
        <time>2021-08-09T07:10:21Z</time>
      </trkpt>
      <trkpt lat="44.41727" lon="6.44162">
        <ele>1026.4</ele>
        <time>2021-08-09T07:10:22Z</time>
      </trkpt>
      <trkpt lat="44.41731" lon="6.44165">
        <ele>1027</ele>
        <time>2021-08-09T07:10:29Z</time>
      </trkpt>
      <trkpt lat="44.41737" lon="6.44167">
        <ele>1027.4</ele>
        <time>2021-08-09T07:10:34Z</time>
      </trkpt>
      <trkpt lat="44.41737" lon="6.44167">
        <ele>1027.6</ele>
        <time>2021-08-09T07:10:38Z</time>
      </trkpt>
      <trkpt lat="44.41749" lon="6.4417">
        <ele>1032.4</ele>
        <time>2021-08-09T07:10:57Z</time>
      </trkpt>
      <trkpt lat="44.41751" lon="6.4417">
        <ele>1032.8</ele>
        <time>2021-08-09T07:10:59Z</time>
      </trkpt>
      <trkpt lat="44.41753" lon="6.44171">
        <ele>1033.6</ele>
        <time>2021-08-09T07:11:02Z</time>
      </trkpt>
      <trkpt lat="44.41754" lon="6.44174">
        <ele>1034.8</ele>
        <time>2021-08-09T07:11:08Z</time>
      </trkpt>
      <trkpt lat="44.41754" lon="6.44174">
        <ele>1035</ele>
        <time>2021-08-09T07:11:10Z</time>
      </trkpt>
      <trkpt lat="44.41757" lon="6.44177">
        <ele>1036</ele>
        <time>2021-08-09T07:11:13Z</time>
      </trkpt>
      <trkpt lat="44.41759" lon="6.44179">
        <ele>1036.4</ele>
        <time>2021-08-09T07:11:15Z</time>
      </trkpt>
      <trkpt lat="44.41761" lon="6.44182">
        <ele>1036.8</ele>
        <time>2021-08-09T07:11:17Z</time>
      </trkpt>
      <trkpt lat="44.41764" lon="6.44184">
        <ele>1037</ele>
        <time>2021-08-09T07:11:19Z</time>
      </trkpt>
      <trkpt lat="44.4177" lon="6.44189">
        <ele>1037.2</ele>
        <time>2021-08-09T07:11:23Z</time>
      </trkpt>
      <trkpt lat="44.41771" lon="6.4419">
        <ele>1037.2</ele>
        <time>2021-08-09T07:11:24Z</time>
      </trkpt>
      <trkpt lat="44.41778" lon="6.44198">
        <ele>1037.6</ele>
        <time>2021-08-09T07:11:30Z</time>
      </trkpt>
      <trkpt lat="44.4178" lon="6.44199">
        <ele>1038</ele>
        <time>2021-08-09T07:11:33Z</time>
      </trkpt>
      <trkpt lat="44.41782" lon="6.44199">
        <ele>1038.2</ele>
        <time>2021-08-09T07:11:35Z</time>
      </trkpt>
      <trkpt lat="44.41782" lon="6.442">
        <ele>1038.4</ele>
        <time>2021-08-09T07:11:36Z</time>
      </trkpt>
      <trkpt lat="44.41783" lon="6.442">
        <ele>1039.2</ele>
        <time>2021-08-09T07:11:38Z</time>
      </trkpt>
      <trkpt lat="44.41785" lon="6.44202">
        <ele>1040.4</ele>
        <time>2021-08-09T07:11:48Z</time>
      </trkpt>
      <trkpt lat="44.41787" lon="6.44205">
        <ele>1040.4</ele>
        <time>2021-08-09T07:11:50Z</time>
      </trkpt>
      <trkpt lat="44.41792" lon="6.4421">
        <ele>1040.4</ele>
        <time>2021-08-09T07:11:54Z</time>
      </trkpt>
      <trkpt lat="44.41792" lon="6.44211">
        <ele>1040.4</ele>
        <time>2021-08-09T07:11:55Z</time>
      </trkpt>
      <trkpt lat="44.41798" lon="6.44221">
        <ele>1040</ele>
        <time>2021-08-09T07:12:00Z</time>
      </trkpt>
      <trkpt lat="44.41809" lon="6.4423">
        <ele>1039.8</ele>
        <time>2021-08-09T07:12:05Z</time>
      </trkpt>
      <trkpt lat="44.41811" lon="6.44232">
        <ele>1039.4</ele>
        <time>2021-08-09T07:12:06Z</time>
      </trkpt>
      <trkpt lat="44.41814" lon="6.44235">
        <ele>1039.2</ele>
        <time>2021-08-09T07:12:07Z</time>
      </trkpt>
      <trkpt lat="44.4182" lon="6.44239">
        <ele>1038.2</ele>
        <time>2021-08-09T07:12:09Z</time>
      </trkpt>
      <trkpt lat="44.41823" lon="6.44243">
        <ele>1037.2</ele>
        <time>2021-08-09T07:12:12Z</time>
      </trkpt>
      <trkpt lat="44.41824" lon="6.44246">
        <ele>1036.8</ele>
        <time>2021-08-09T07:12:13Z</time>
      </trkpt>
      <trkpt lat="44.4183" lon="6.44254">
        <ele>1035.8</ele>
        <time>2021-08-09T07:12:16Z</time>
      </trkpt>
      <trkpt lat="44.41833" lon="6.44257">
        <ele>1035.2</ele>
        <time>2021-08-09T07:12:18Z</time>
      </trkpt>
      <trkpt lat="44.41839" lon="6.44261">
        <ele>1034.6</ele>
        <time>2021-08-09T07:12:21Z</time>
      </trkpt>
      <trkpt lat="44.41845" lon="6.44266">
        <ele>1033.2</ele>
        <time>2021-08-09T07:12:24Z</time>
      </trkpt>
      <trkpt lat="44.41851" lon="6.4427">
        <ele>1032</ele>
        <time>2021-08-09T07:12:27Z</time>
      </trkpt>
      <trkpt lat="44.41852" lon="6.44273">
        <ele>1031.8</ele>
        <time>2021-08-09T07:12:28Z</time>
      </trkpt>
      <trkpt lat="44.41858" lon="6.44279">
        <ele>1030.8</ele>
        <time>2021-08-09T07:12:30Z</time>
      </trkpt>
      <trkpt lat="44.41862" lon="6.44281">
        <ele>1030.4</ele>
        <time>2021-08-09T07:12:31Z</time>
      </trkpt>
      <trkpt lat="44.41866" lon="6.44283">
        <ele>1029.8</ele>
        <time>2021-08-09T07:12:32Z</time>
      </trkpt>
      <trkpt lat="44.41875" lon="6.44285">
        <ele>1028.2</ele>
        <time>2021-08-09T07:12:34Z</time>
      </trkpt>
      <trkpt lat="44.4188" lon="6.44286">
        <ele>1027.6</ele>
        <time>2021-08-09T07:12:35Z</time>
      </trkpt>
      <trkpt lat="44.41886" lon="6.44287">
        <ele>1027</ele>
        <time>2021-08-09T07:12:36Z</time>
      </trkpt>
      <trkpt lat="44.41896" lon="6.44287">
        <ele>1025.4</ele>
        <time>2021-08-09T07:12:38Z</time>
      </trkpt>
      <trkpt lat="44.419" lon="6.44286">
        <ele>1024.6</ele>
        <time>2021-08-09T07:12:39Z</time>
      </trkpt>
      <trkpt lat="44.41905" lon="6.44285">
        <ele>1024.2</ele>
        <time>2021-08-09T07:12:40Z</time>
      </trkpt>
      <trkpt lat="44.41912" lon="6.44283">
        <ele>1022.4</ele>
        <time>2021-08-09T07:12:42Z</time>
      </trkpt>
      <trkpt lat="44.41918" lon="6.44282">
        <ele>1021</ele>
        <time>2021-08-09T07:12:44Z</time>
      </trkpt>
      <trkpt lat="44.41924" lon="6.44281">
        <ele>1019.6</ele>
        <time>2021-08-09T07:12:46Z</time>
      </trkpt>
      <trkpt lat="44.41933" lon="6.4428">
        <ele>1018</ele>
        <time>2021-08-09T07:12:48Z</time>
      </trkpt>
      <trkpt lat="44.41938" lon="6.44281">
        <ele>1017.6</ele>
        <time>2021-08-09T07:12:49Z</time>
      </trkpt>
      <trkpt lat="44.41942" lon="6.44281">
        <ele>1017</ele>
        <time>2021-08-09T07:12:50Z</time>
      </trkpt>
      <trkpt lat="44.4195" lon="6.44282">
        <ele>1015.6</ele>
        <time>2021-08-09T07:12:52Z</time>
      </trkpt>
      <trkpt lat="44.41957" lon="6.44285">
        <ele>1013.8</ele>
        <time>2021-08-09T07:12:54Z</time>
      </trkpt>
      <trkpt lat="44.41961" lon="6.44287">
        <ele>1012.6</ele>
        <time>2021-08-09T07:12:56Z</time>
      </trkpt>
      <trkpt lat="44.41963" lon="6.4429">
        <ele>1012.2</ele>
        <time>2021-08-09T07:12:57Z</time>
      </trkpt>
      <trkpt lat="44.41965" lon="6.44292">
        <ele>1011.8</ele>
        <time>2021-08-09T07:12:58Z</time>
      </trkpt>
      <trkpt lat="44.41967" lon="6.44294">
        <ele>1011.4</ele>
        <time>2021-08-09T07:12:59Z</time>
      </trkpt>
      <trkpt lat="44.41971" lon="6.44296">
        <ele>1011</ele>
        <time>2021-08-09T07:13:01Z</time>
      </trkpt>
      <trkpt lat="44.4198" lon="6.44297">
        <ele>1010.6</ele>
        <time>2021-08-09T07:13:06Z</time>
      </trkpt>
      <trkpt lat="44.41996" lon="6.44292">
        <ele>1005.4</ele>
        <time>2021-08-09T07:13:34Z</time>
      </trkpt>
      <trkpt lat="44.42003" lon="6.44291">
        <ele>1004.6</ele>
        <time>2021-08-09T07:13:37Z</time>
      </trkpt>
      <trkpt lat="44.42009" lon="6.44291">
        <ele>1004.2</ele>
        <time>2021-08-09T07:13:39Z</time>
      </trkpt>
      <trkpt lat="44.42023" lon="6.44287">
        <ele>1003.6</ele>
        <time>2021-08-09T07:13:42Z</time>
      </trkpt>
      <trkpt lat="44.42033" lon="6.44283">
        <ele>1002.8</ele>
        <time>2021-08-09T07:13:44Z</time>
      </trkpt>
      <trkpt lat="44.42041" lon="6.44279">
        <ele>1001.6</ele>
        <time>2021-08-09T07:13:46Z</time>
      </trkpt>
      <trkpt lat="44.42048" lon="6.44274">
        <ele>1000.4</ele>
        <time>2021-08-09T07:13:48Z</time>
      </trkpt>
      <trkpt lat="44.42055" lon="6.44267">
        <ele>999</ele>
        <time>2021-08-09T07:13:50Z</time>
      </trkpt>
      <trkpt lat="44.4206" lon="6.44259">
        <ele>998</ele>
        <time>2021-08-09T07:13:52Z</time>
      </trkpt>
      <trkpt lat="44.42064" lon="6.4425">
        <ele>996.6</ele>
        <time>2021-08-09T07:13:55Z</time>
      </trkpt>
      <trkpt lat="44.42064" lon="6.44247">
        <ele>996.2</ele>
        <time>2021-08-09T07:13:56Z</time>
      </trkpt>
      <trkpt lat="44.42065" lon="6.4424">
        <ele>995.6</ele>
        <time>2021-08-09T07:13:58Z</time>
      </trkpt>
      <trkpt lat="44.42065" lon="6.44237">
        <ele>995.2</ele>
        <time>2021-08-09T07:13:59Z</time>
      </trkpt>
      <trkpt lat="44.42069" lon="6.44226">
        <ele>994.2</ele>
        <time>2021-08-09T07:14:02Z</time>
      </trkpt>
      <trkpt lat="44.42082" lon="6.44218">
        <ele>993</ele>
        <time>2021-08-09T07:14:05Z</time>
      </trkpt>
      <trkpt lat="44.42091" lon="6.44213">
        <ele>992</ele>
        <time>2021-08-09T07:14:07Z</time>
      </trkpt>
      <trkpt lat="44.421" lon="6.44208">
        <ele>991</ele>
        <time>2021-08-09T07:14:09Z</time>
      </trkpt>
      <trkpt lat="44.42103" lon="6.44206">
        <ele>990.2</ele>
        <time>2021-08-09T07:14:10Z</time>
      </trkpt>
      <trkpt lat="44.42106" lon="6.44204">
        <ele>989</ele>
        <time>2021-08-09T07:14:11Z</time>
      </trkpt>
      <trkpt lat="44.4211" lon="6.44201">
        <ele>987.8</ele>
        <time>2021-08-09T07:14:12Z</time>
      </trkpt>
      <trkpt lat="44.42113" lon="6.442">
        <ele>986.6</ele>
        <time>2021-08-09T07:14:13Z</time>
      </trkpt>
      <trkpt lat="44.42116" lon="6.44199">
        <ele>985.4</ele>
        <time>2021-08-09T07:14:14Z</time>
      </trkpt>
      <trkpt lat="44.4212" lon="6.44198">
        <ele>984.4</ele>
        <time>2021-08-09T07:14:15Z</time>
      </trkpt>
      <trkpt lat="44.42126" lon="6.44196">
        <ele>983.6</ele>
        <time>2021-08-09T07:14:17Z</time>
      </trkpt>
      <trkpt lat="44.42129" lon="6.44195">
        <ele>983</ele>
        <time>2021-08-09T07:14:18Z</time>
      </trkpt>
      <trkpt lat="44.42139" lon="6.44192">
        <ele>982</ele>
        <time>2021-08-09T07:14:20Z</time>
      </trkpt>
      <trkpt lat="44.42142" lon="6.44191">
        <ele>981.4</ele>
        <time>2021-08-09T07:14:21Z</time>
      </trkpt>
      <trkpt lat="44.42152" lon="6.44187">
        <ele>980.2</ele>
        <time>2021-08-09T07:14:23Z</time>
      </trkpt>
      <trkpt lat="44.42155" lon="6.44184">
        <ele>979.8</ele>
        <time>2021-08-09T07:14:24Z</time>
      </trkpt>
      <trkpt lat="44.42158" lon="6.44181">
        <ele>979.2</ele>
        <time>2021-08-09T07:14:25Z</time>
      </trkpt>
      <trkpt lat="44.4216" lon="6.44178">
        <ele>978.6</ele>
        <time>2021-08-09T07:14:26Z</time>
      </trkpt>
      <trkpt lat="44.42163" lon="6.44176">
        <ele>978.2</ele>
        <time>2021-08-09T07:14:27Z</time>
      </trkpt>
      <trkpt lat="44.42166" lon="6.44173">
        <ele>976.8</ele>
        <time>2021-08-09T07:14:29Z</time>
      </trkpt>
      <trkpt lat="44.4217" lon="6.44169">
        <ele>975.4</ele>
        <time>2021-08-09T07:14:31Z</time>
      </trkpt>
      <trkpt lat="44.42174" lon="6.44167">
        <ele>973.6</ele>
        <time>2021-08-09T07:14:33Z</time>
      </trkpt>
      <trkpt lat="44.42178" lon="6.44167">
        <ele>972.6</ele>
        <time>2021-08-09T07:14:35Z</time>
      </trkpt>
      <trkpt lat="44.42181" lon="6.44165">
        <ele>972.4</ele>
        <time>2021-08-09T07:14:36Z</time>
      </trkpt>
      <trkpt lat="44.42186" lon="6.44162">
        <ele>971.4</ele>
        <time>2021-08-09T07:14:38Z</time>
      </trkpt>
      <trkpt lat="44.42189" lon="6.4416">
        <ele>970.8</ele>
        <time>2021-08-09T07:14:39Z</time>
      </trkpt>
      <trkpt lat="44.42197" lon="6.44154">
        <ele>969.8</ele>
        <time>2021-08-09T07:14:41Z</time>
      </trkpt>
      <trkpt lat="44.42207" lon="6.44147">
        <ele>968.4</ele>
        <time>2021-08-09T07:14:44Z</time>
      </trkpt>
      <trkpt lat="44.42214" lon="6.44141">
        <ele>967.2</ele>
        <time>2021-08-09T07:14:46Z</time>
      </trkpt>
      <trkpt lat="44.42217" lon="6.44137">
        <ele>966.2</ele>
        <time>2021-08-09T07:14:47Z</time>
      </trkpt>
      <trkpt lat="44.42221" lon="6.44132">
        <ele>965.4</ele>
        <time>2021-08-09T07:14:48Z</time>
      </trkpt>
      <trkpt lat="44.42224" lon="6.44128">
        <ele>964.4</ele>
        <time>2021-08-09T07:14:49Z</time>
      </trkpt>
      <trkpt lat="44.42227" lon="6.44122">
        <ele>963.2</ele>
        <time>2021-08-09T07:14:50Z</time>
      </trkpt>
      <trkpt lat="44.42229" lon="6.44116">
        <ele>962.2</ele>
        <time>2021-08-09T07:14:51Z</time>
      </trkpt>
      <trkpt lat="44.42232" lon="6.44112">
        <ele>961.6</ele>
        <time>2021-08-09T07:14:52Z</time>
      </trkpt>
      <trkpt lat="44.42235" lon="6.44107">
        <ele>959.8</ele>
        <time>2021-08-09T07:14:54Z</time>
      </trkpt>
      <trkpt lat="44.42238" lon="6.44103">
        <ele>958.2</ele>
        <time>2021-08-09T07:14:56Z</time>
      </trkpt>
      <trkpt lat="44.42243" lon="6.44098">
        <ele>956.6</ele>
        <time>2021-08-09T07:14:58Z</time>
      </trkpt>
      <trkpt lat="44.42245" lon="6.44093">
        <ele>955.2</ele>
        <time>2021-08-09T07:15:00Z</time>
      </trkpt>
      <trkpt lat="44.42247" lon="6.44092">
        <ele>954.6</ele>
        <time>2021-08-09T07:15:01Z</time>
      </trkpt>
      <trkpt lat="44.42247" lon="6.4409">
        <ele>953.6</ele>
        <time>2021-08-09T07:15:02Z</time>
      </trkpt>
      <trkpt lat="44.42249" lon="6.44083">
        <ele>952.4</ele>
        <time>2021-08-09T07:15:05Z</time>
      </trkpt>
      <trkpt lat="44.42251" lon="6.44078">
        <ele>951</ele>
        <time>2021-08-09T07:15:08Z</time>
      </trkpt>
      <trkpt lat="44.42254" lon="6.44079">
        <ele>950.4</ele>
        <time>2021-08-09T07:15:10Z</time>
      </trkpt>
      <trkpt lat="44.42256" lon="6.44081">
        <ele>950</ele>
        <time>2021-08-09T07:15:11Z</time>
      </trkpt>
      <trkpt lat="44.42259" lon="6.44084">
        <ele>949.6</ele>
        <time>2021-08-09T07:15:12Z</time>
      </trkpt>
      <trkpt lat="44.42262" lon="6.44087">
        <ele>949.4</ele>
        <time>2021-08-09T07:15:13Z</time>
      </trkpt>
      <trkpt lat="44.42266" lon="6.44092">
        <ele>948.4</ele>
        <time>2021-08-09T07:15:15Z</time>
      </trkpt>
      <trkpt lat="44.4227" lon="6.44093">
        <ele>947.6</ele>
        <time>2021-08-09T07:15:17Z</time>
      </trkpt>
      <trkpt lat="44.42271" lon="6.44095">
        <ele>947.2</ele>
        <time>2021-08-09T07:15:18Z</time>
      </trkpt>
      <trkpt lat="44.42275" lon="6.44096">
        <ele>946</ele>
        <time>2021-08-09T07:15:20Z</time>
      </trkpt>
      <trkpt lat="44.42277" lon="6.44097">
        <ele>945.2</ele>
        <time>2021-08-09T07:15:21Z</time>
      </trkpt>
      <trkpt lat="44.42279" lon="6.44098">
        <ele>944.6</ele>
        <time>2021-08-09T07:15:22Z</time>
      </trkpt>
      <trkpt lat="44.42282" lon="6.44101">
        <ele>943</ele>
        <time>2021-08-09T07:15:24Z</time>
      </trkpt>
      <trkpt lat="44.42284" lon="6.44104">
        <ele>942</ele>
        <time>2021-08-09T07:15:26Z</time>
      </trkpt>
      <trkpt lat="44.42286" lon="6.44106">
        <ele>941.6</ele>
        <time>2021-08-09T07:15:27Z</time>
      </trkpt>
      <trkpt lat="44.42289" lon="6.4411">
        <ele>940.6</ele>
        <time>2021-08-09T07:15:29Z</time>
      </trkpt>
      <trkpt lat="44.42293" lon="6.44113">
        <ele>939.6</ele>
        <time>2021-08-09T07:15:31Z</time>
      </trkpt>
      <trkpt lat="44.42295" lon="6.44114">
        <ele>939</ele>
        <time>2021-08-09T07:15:32Z</time>
      </trkpt>
      <trkpt lat="44.42298" lon="6.44117">
        <ele>938.2</ele>
        <time>2021-08-09T07:15:34Z</time>
      </trkpt>
      <trkpt lat="44.423" lon="6.4412">
        <ele>937</ele>
        <time>2021-08-09T07:15:36Z</time>
      </trkpt>
      <trkpt lat="44.42301" lon="6.4412">
        <ele>936.6</ele>
        <time>2021-08-09T07:15:37Z</time>
      </trkpt>
      <trkpt lat="44.42302" lon="6.44119">
        <ele>936</ele>
        <time>2021-08-09T07:15:38Z</time>
      </trkpt>
      <trkpt lat="44.42303" lon="6.44122">
        <ele>932.8</ele>
        <time>2021-08-09T07:15:45Z</time>
      </trkpt>
      <trkpt lat="44.42306" lon="6.44124">
        <ele>932.2</ele>
        <time>2021-08-09T07:15:48Z</time>
      </trkpt>
      <trkpt lat="44.42308" lon="6.44124">
        <ele>932</ele>
        <time>2021-08-09T07:15:49Z</time>
      </trkpt>
      <trkpt lat="44.42317" lon="6.44122">
        <ele>931.8</ele>
        <time>2021-08-09T07:15:52Z</time>
      </trkpt>
      <trkpt lat="44.4232" lon="6.4412">
        <ele>931.8</ele>
        <time>2021-08-09T07:15:53Z</time>
      </trkpt>
      <trkpt lat="44.42323" lon="6.44111">
        <ele>931.2</ele>
        <time>2021-08-09T07:15:55Z</time>
      </trkpt>
      <trkpt lat="44.42324" lon="6.44097">
        <ele>930.6</ele>
        <time>2021-08-09T07:15:57Z</time>
      </trkpt>
      <trkpt lat="44.42324" lon="6.44082">
        <ele>929.2</ele>
        <time>2021-08-09T07:15:59Z</time>
      </trkpt>
      <trkpt lat="44.42328" lon="6.4407">
        <ele>927.8</ele>
        <time>2021-08-09T07:16:01Z</time>
      </trkpt>
      <trkpt lat="44.42331" lon="6.44068">
        <ele>927.4</ele>
        <time>2021-08-09T07:16:02Z</time>
      </trkpt>
      <trkpt lat="44.42334" lon="6.44068">
        <ele>926.8</ele>
        <time>2021-08-09T07:16:03Z</time>
      </trkpt>
      <trkpt lat="44.42339" lon="6.44074">
        <ele>925.2</ele>
        <time>2021-08-09T07:16:05Z</time>
      </trkpt>
      <trkpt lat="44.42341" lon="6.44077">
        <ele>924</ele>
        <time>2021-08-09T07:16:06Z</time>
      </trkpt>
      <trkpt lat="44.42343" lon="6.4408">
        <ele>923</ele>
        <time>2021-08-09T07:16:07Z</time>
      </trkpt>
      <trkpt lat="44.42346" lon="6.4408">
        <ele>922</ele>
        <time>2021-08-09T07:16:08Z</time>
      </trkpt>
      <trkpt lat="44.42348" lon="6.44078">
        <ele>921</ele>
        <time>2021-08-09T07:16:09Z</time>
      </trkpt>
      <trkpt lat="44.42353" lon="6.44072">
        <ele>919.4</ele>
        <time>2021-08-09T07:16:11Z</time>
      </trkpt>
      <trkpt lat="44.42357" lon="6.44064">
        <ele>918.2</ele>
        <time>2021-08-09T07:16:13Z</time>
      </trkpt>
      <trkpt lat="44.42359" lon="6.44059">
        <ele>917.6</ele>
        <time>2021-08-09T07:16:14Z</time>
      </trkpt>
      <trkpt lat="44.42361" lon="6.44054">
        <ele>917.2</ele>
        <time>2021-08-09T07:16:15Z</time>
      </trkpt>
      <trkpt lat="44.42368" lon="6.44034">
        <ele>916.4</ele>
        <time>2021-08-09T07:16:20Z</time>
      </trkpt>
      <trkpt lat="44.42381" lon="6.44011">
        <ele>916.4</ele>
        <time>2021-08-09T07:16:25Z</time>
      </trkpt>
      <trkpt lat="44.42407" lon="6.43971">
        <ele>916.4</ele>
        <time>2021-08-09T07:16:32Z</time>
      </trkpt>
      <trkpt lat="44.42421" lon="6.43954">
        <ele>916.2</ele>
        <time>2021-08-09T07:16:35Z</time>
      </trkpt>
      <trkpt lat="44.42437" lon="6.43929">
        <ele>914.8</ele>
        <time>2021-08-09T07:16:39Z</time>
      </trkpt>
      <trkpt lat="44.42441" lon="6.43923">
        <ele>914.4</ele>
        <time>2021-08-09T07:16:40Z</time>
      </trkpt>
      <trkpt lat="44.42449" lon="6.43914">
        <ele>913.6</ele>
        <time>2021-08-09T07:16:42Z</time>
      </trkpt>
      <trkpt lat="44.42457" lon="6.43906">
        <ele>913.2</ele>
        <time>2021-08-09T07:16:44Z</time>
      </trkpt>
      <trkpt lat="44.42464" lon="6.43898">
        <ele>913.2</ele>
        <time>2021-08-09T07:16:46Z</time>
      </trkpt>
      <trkpt lat="44.42469" lon="6.43887">
        <ele>913.2</ele>
        <time>2021-08-09T07:16:48Z</time>
      </trkpt>
      <trkpt lat="44.4249" lon="6.43861">
        <ele>913.2</ele>
        <time>2021-08-09T07:16:54Z</time>
      </trkpt>
      <trkpt lat="44.42515" lon="6.43816">
        <ele>914</ele>
        <time>2021-08-09T07:17:02Z</time>
      </trkpt>
      <trkpt lat="44.42521" lon="6.43806">
        <ele>914</ele>
        <time>2021-08-09T07:17:04Z</time>
      </trkpt>
      <trkpt lat="44.42531" lon="6.43793">
        <ele>914.2</ele>
        <time>2021-08-09T07:17:07Z</time>
      </trkpt>
      <trkpt lat="44.42538" lon="6.43785">
        <ele>914.6</ele>
        <time>2021-08-09T07:17:09Z</time>
      </trkpt>
      <trkpt lat="44.42542" lon="6.43782">
        <ele>914.8</ele>
        <time>2021-08-09T07:17:10Z</time>
      </trkpt>
      <trkpt lat="44.42551" lon="6.43777">
        <ele>915.4</ele>
        <time>2021-08-09T07:17:12Z</time>
      </trkpt>
      <trkpt lat="44.42559" lon="6.43769">
        <ele>915.8</ele>
        <time>2021-08-09T07:17:14Z</time>
      </trkpt>
      <trkpt lat="44.42563" lon="6.43765">
        <ele>915.8</ele>
        <time>2021-08-09T07:17:15Z</time>
      </trkpt>
      <trkpt lat="44.42575" lon="6.43753">
        <ele>916</ele>
        <time>2021-08-09T07:17:18Z</time>
      </trkpt>
      <trkpt lat="44.4259" lon="6.43737">
        <ele>916.2</ele>
        <time>2021-08-09T07:17:23Z</time>
      </trkpt>
      <trkpt lat="44.4261" lon="6.43719">
        <ele>916.6</ele>
        <time>2021-08-09T07:17:29Z</time>
      </trkpt>
      <trkpt lat="44.42617" lon="6.43713">
        <ele>917</ele>
        <time>2021-08-09T07:17:31Z</time>
      </trkpt>
      <trkpt lat="44.42643" lon="6.43698">
        <ele>917.4</ele>
        <time>2021-08-09T07:17:37Z</time>
      </trkpt>
      <trkpt lat="44.42685" lon="6.43678">
        <ele>917.6</ele>
        <time>2021-08-09T07:17:46Z</time>
      </trkpt>
      <trkpt lat="44.42709" lon="6.43664">
        <ele>918</ele>
        <time>2021-08-09T07:17:52Z</time>
      </trkpt>
      <trkpt lat="44.42712" lon="6.43662">
        <ele>918.2</ele>
        <time>2021-08-09T07:17:53Z</time>
      </trkpt>
      <trkpt lat="44.4273" lon="6.43647">
        <ele>919.2</ele>
        <time>2021-08-09T07:17:59Z</time>
      </trkpt>
      <trkpt lat="44.42738" lon="6.43644">
        <ele>919.4</ele>
        <time>2021-08-09T07:18:01Z</time>
      </trkpt>
      <trkpt lat="44.42742" lon="6.43642">
        <ele>919.4</ele>
        <time>2021-08-09T07:18:02Z</time>
      </trkpt>
      <trkpt lat="44.4275" lon="6.43634">
        <ele>919.4</ele>
        <time>2021-08-09T07:18:04Z</time>
      </trkpt>
      <trkpt lat="44.42754" lon="6.4363">
        <ele>919.4</ele>
        <time>2021-08-09T07:18:05Z</time>
      </trkpt>
      <trkpt lat="44.42767" lon="6.43617">
        <ele>919.4</ele>
        <time>2021-08-09T07:18:08Z</time>
      </trkpt>
      <trkpt lat="44.42793" lon="6.43585">
        <ele>919.2</ele>
        <time>2021-08-09T07:18:14Z</time>
      </trkpt>
      <trkpt lat="44.42796" lon="6.43578">
        <ele>919</ele>
        <time>2021-08-09T07:18:15Z</time>
      </trkpt>
      <trkpt lat="44.42804" lon="6.43558">
        <ele>919</ele>
        <time>2021-08-09T07:18:18Z</time>
      </trkpt>
      <trkpt lat="44.4281" lon="6.43546">
        <ele>918.6</ele>
        <time>2021-08-09T07:18:20Z</time>
      </trkpt>
      <trkpt lat="44.42813" lon="6.43539">
        <ele>918.4</ele>
        <time>2021-08-09T07:18:21Z</time>
      </trkpt>
      <trkpt lat="44.42823" lon="6.43521">
        <ele>918.2</ele>
        <time>2021-08-09T07:18:24Z</time>
      </trkpt>
      <trkpt lat="44.42833" lon="6.43507">
        <ele>918</ele>
        <time>2021-08-09T07:18:27Z</time>
      </trkpt>
      <trkpt lat="44.42841" lon="6.435">
        <ele>918</ele>
        <time>2021-08-09T07:18:29Z</time>
      </trkpt>
      <trkpt lat="44.42846" lon="6.43497">
        <ele>918</ele>
        <time>2021-08-09T07:18:31Z</time>
      </trkpt>
      <trkpt lat="44.42843" lon="6.43494">
        <ele>918</ele>
        <time>2021-08-09T07:18:34Z</time>
      </trkpt>
      <trkpt lat="44.42843" lon="6.43494">
        <ele>918</ele>
        <time>2021-08-09T07:18:36Z</time>
      </trkpt>
      <trkpt lat="44.42842" lon="6.43494">
        <ele>918.8</ele>
        <time>2021-08-09T07:18:45Z</time>
      </trkpt>
      <trkpt lat="44.42841" lon="6.43494">
        <ele>918.8</ele>
        <time>2021-08-09T07:18:46Z</time>
      </trkpt>
      <trkpt lat="44.42831" lon="6.43497">
        <ele>918.8</ele>
        <time>2021-08-09T07:18:50Z</time>
      </trkpt>
      <trkpt lat="44.4283" lon="6.435">
        <ele>918.8</ele>
        <time>2021-08-09T07:18:51Z</time>
      </trkpt>
      <trkpt lat="44.42819" lon="6.4352">
        <ele>919</ele>
        <time>2021-08-09T07:18:56Z</time>
      </trkpt>
      <trkpt lat="44.42802" lon="6.43554">
        <ele>918.4</ele>
        <time>2021-08-09T07:19:04Z</time>
      </trkpt>
      <trkpt lat="44.428" lon="6.43559">
        <ele>918.4</ele>
        <time>2021-08-09T07:19:05Z</time>
      </trkpt>
      <trkpt lat="44.42788" lon="6.43584">
        <ele>918</ele>
        <time>2021-08-09T07:19:10Z</time>
      </trkpt>
      <trkpt lat="44.42778" lon="6.43598">
        <ele>918</ele>
        <time>2021-08-09T07:19:13Z</time>
      </trkpt>
      <trkpt lat="44.42767" lon="6.43608">
        <ele>918</ele>
        <time>2021-08-09T07:19:16Z</time>
      </trkpt>
      <trkpt lat="44.42763" lon="6.4362">
        <ele>918.4</ele>
        <time>2021-08-09T07:19:19Z</time>
      </trkpt>
      <trkpt lat="44.42768" lon="6.43618">
        <ele>918.6</ele>
        <time>2021-08-09T07:19:21Z</time>
      </trkpt>
      <trkpt lat="44.42771" lon="6.43614">
        <ele>918.6</ele>
        <time>2021-08-09T07:19:22Z</time>
      </trkpt>
      <trkpt lat="44.42786" lon="6.43595">
        <ele>919</ele>
        <time>2021-08-09T07:19:26Z</time>
      </trkpt>
      <trkpt lat="44.42805" lon="6.43557">
        <ele>919.2</ele>
        <time>2021-08-09T07:19:32Z</time>
      </trkpt>
      <trkpt lat="44.42827" lon="6.43507">
        <ele>918</ele>
        <time>2021-08-09T07:19:40Z</time>
      </trkpt>
      <trkpt lat="44.42829" lon="6.43501">
        <ele>918</ele>
        <time>2021-08-09T07:19:41Z</time>
      </trkpt>
      <trkpt lat="44.42829" lon="6.43495">
        <ele>918</ele>
        <time>2021-08-09T07:19:42Z</time>
      </trkpt>
      <trkpt lat="44.42825" lon="6.43491">
        <ele>918</ele>
        <time>2021-08-09T07:19:43Z</time>
      </trkpt>
      <trkpt lat="44.42818" lon="6.43495">
        <ele>918</ele>
        <time>2021-08-09T07:19:45Z</time>
      </trkpt>
      <trkpt lat="44.42815" lon="6.43501">
        <ele>917.8</ele>
        <time>2021-08-09T07:19:46Z</time>
      </trkpt>
      <trkpt lat="44.42802" lon="6.43528">
        <ele>917.8</ele>
        <time>2021-08-09T07:19:50Z</time>
      </trkpt>
      <trkpt lat="44.42799" lon="6.43535">
        <ele>917.8</ele>
        <time>2021-08-09T07:19:51Z</time>
      </trkpt>
      <trkpt lat="44.42786" lon="6.43573">
        <ele>916.8</ele>
        <time>2021-08-09T07:19:56Z</time>
      </trkpt>
      <trkpt lat="44.42782" lon="6.43579">
        <ele>916.4</ele>
        <time>2021-08-09T07:19:57Z</time>
      </trkpt>
      <trkpt lat="44.42774" lon="6.4358">
        <ele>916</ele>
        <time>2021-08-09T07:19:59Z</time>
      </trkpt>
      <trkpt lat="44.42772" lon="6.43576">
        <ele>915.8</ele>
        <time>2021-08-09T07:20:00Z</time>
      </trkpt>
      <trkpt lat="44.42773" lon="6.43569">
        <ele>915.6</ele>
        <time>2021-08-09T07:20:01Z</time>
      </trkpt>
      <trkpt lat="44.42782" lon="6.43551">
        <ele>914.6</ele>
        <time>2021-08-09T07:20:04Z</time>
      </trkpt>
      <trkpt lat="44.42785" lon="6.43545">
        <ele>914.4</ele>
        <time>2021-08-09T07:20:05Z</time>
      </trkpt>
      <trkpt lat="44.42788" lon="6.43539">
        <ele>914.2</ele>
        <time>2021-08-09T07:20:06Z</time>
      </trkpt>
      <trkpt lat="44.42794" lon="6.43513">
        <ele>913.8</ele>
        <time>2021-08-09T07:20:10Z</time>
      </trkpt>
      <trkpt lat="44.42807" lon="6.43465">
        <ele>913.8</ele>
        <time>2021-08-09T07:20:18Z</time>
      </trkpt>
      <trkpt lat="44.42819" lon="6.43423">
        <ele>914</ele>
        <time>2021-08-09T07:20:25Z</time>
      </trkpt>
      <trkpt lat="44.42836" lon="6.43352">
        <ele>914</ele>
        <time>2021-08-09T07:20:35Z</time>
      </trkpt>
      <trkpt lat="44.42855" lon="6.43287">
        <ele>914</ele>
        <time>2021-08-09T07:20:44Z</time>
      </trkpt>
      <trkpt lat="44.42869" lon="6.43251">
        <ele>913.8</ele>
        <time>2021-08-09T07:20:49Z</time>
      </trkpt>
      <trkpt lat="44.42875" lon="6.43237">
        <ele>913.6</ele>
        <time>2021-08-09T07:20:51Z</time>
      </trkpt>
      <trkpt lat="44.42896" lon="6.43179">
        <ele>913.4</ele>
        <time>2021-08-09T07:20:59Z</time>
      </trkpt>
      <trkpt lat="44.42917" lon="6.43133">
        <ele>913.2</ele>
        <time>2021-08-09T07:21:06Z</time>
      </trkpt>
      <trkpt lat="44.42942" lon="6.43093">
        <ele>912.8</ele>
        <time>2021-08-09T07:21:12Z</time>
      </trkpt>
      <trkpt lat="44.42947" lon="6.43087">
        <ele>912.6</ele>
        <time>2021-08-09T07:21:13Z</time>
      </trkpt>
      <trkpt lat="44.42974" lon="6.43057">
        <ele>911.6</ele>
        <time>2021-08-09T07:21:18Z</time>
      </trkpt>
      <trkpt lat="44.42996" lon="6.43037">
        <ele>911.4</ele>
        <time>2021-08-09T07:21:22Z</time>
      </trkpt>
      <trkpt lat="44.43008" lon="6.43028">
        <ele>911.4</ele>
        <time>2021-08-09T07:21:24Z</time>
      </trkpt>
      <trkpt lat="44.4303" lon="6.43014">
        <ele>910.6</ele>
        <time>2021-08-09T07:21:28Z</time>
      </trkpt>
      <trkpt lat="44.43042" lon="6.43006">
        <ele>910.2</ele>
        <time>2021-08-09T07:21:30Z</time>
      </trkpt>
      <trkpt lat="44.43067" lon="6.42991">
        <ele>909.6</ele>
        <time>2021-08-09T07:21:34Z</time>
      </trkpt>
      <trkpt lat="44.43087" lon="6.42978">
        <ele>908.8</ele>
        <time>2021-08-09T07:21:37Z</time>
      </trkpt>
      <trkpt lat="44.431" lon="6.42969">
        <ele>908.4</ele>
        <time>2021-08-09T07:21:39Z</time>
      </trkpt>
      <trkpt lat="44.43127" lon="6.42952">
        <ele>907.2</ele>
        <time>2021-08-09T07:21:43Z</time>
      </trkpt>
      <trkpt lat="44.43148" lon="6.42937">
        <ele>905.8</ele>
        <time>2021-08-09T07:21:46Z</time>
      </trkpt>
      <trkpt lat="44.43175" lon="6.4292">
        <ele>904.8</ele>
        <time>2021-08-09T07:21:50Z</time>
      </trkpt>
      <trkpt lat="44.43192" lon="6.42909">
        <ele>903.8</ele>
        <time>2021-08-09T07:21:53Z</time>
      </trkpt>
      <trkpt lat="44.43194" lon="6.42906">
        <ele>903.6</ele>
        <time>2021-08-09T07:21:54Z</time>
      </trkpt>
      <trkpt lat="44.43194" lon="6.42893">
        <ele>903.6</ele>
        <time>2021-08-09T07:21:58Z</time>
      </trkpt>
      <trkpt lat="44.432" lon="6.42884">
        <ele>903.6</ele>
        <time>2021-08-09T07:22:02Z</time>
      </trkpt>
      <trkpt lat="44.43201" lon="6.42881">
        <ele>903.8</ele>
        <time>2021-08-09T07:22:03Z</time>
      </trkpt>
      <trkpt lat="44.4321" lon="6.42873">
        <ele>904.8</ele>
        <time>2021-08-09T07:22:08Z</time>
      </trkpt>
      <trkpt lat="44.43212" lon="6.42872">
        <ele>905</ele>
        <time>2021-08-09T07:22:09Z</time>
      </trkpt>
      <trkpt lat="44.43219" lon="6.42867">
        <ele>906</ele>
        <time>2021-08-09T07:22:12Z</time>
      </trkpt>
      <trkpt lat="44.43226" lon="6.42864">
        <ele>906.8</ele>
        <time>2021-08-09T07:22:15Z</time>
      </trkpt>
      <trkpt lat="44.43229" lon="6.42862">
        <ele>907.2</ele>
        <time>2021-08-09T07:22:16Z</time>
      </trkpt>
      <trkpt lat="44.43238" lon="6.42855">
        <ele>908.4</ele>
        <time>2021-08-09T07:22:20Z</time>
      </trkpt>
      <trkpt lat="44.43243" lon="6.42852">
        <ele>908.6</ele>
        <time>2021-08-09T07:22:22Z</time>
      </trkpt>
      <trkpt lat="44.43253" lon="6.42843">
        <ele>909.2</ele>
        <time>2021-08-09T07:22:27Z</time>
      </trkpt>
      <trkpt lat="44.43254" lon="6.4284">
        <ele>909.4</ele>
        <time>2021-08-09T07:22:28Z</time>
      </trkpt>
      <trkpt lat="44.43253" lon="6.42838">
        <ele>909.6</ele>
        <time>2021-08-09T07:22:29Z</time>
      </trkpt>
      <trkpt lat="44.4325" lon="6.42825">
        <ele>910.6</ele>
        <time>2021-08-09T07:22:35Z</time>
      </trkpt>
      <trkpt lat="44.43247" lon="6.42821">
        <ele>910.8</ele>
        <time>2021-08-09T07:22:38Z</time>
      </trkpt>
      <trkpt lat="44.43242" lon="6.42814">
        <ele>911.8</ele>
        <time>2021-08-09T07:22:43Z</time>
      </trkpt>
      <trkpt lat="44.43241" lon="6.42812">
        <ele>912.2</ele>
        <time>2021-08-09T07:22:44Z</time>
      </trkpt>
      <trkpt lat="44.43239" lon="6.42808">
        <ele>913</ele>
        <time>2021-08-09T07:22:47Z</time>
      </trkpt>
      <trkpt lat="44.43236" lon="6.42802">
        <ele>914</ele>
        <time>2021-08-09T07:22:51Z</time>
      </trkpt>
      <trkpt lat="44.43235" lon="6.42801">
        <ele>914</ele>
        <time>2021-08-09T07:22:52Z</time>
      </trkpt>
      <trkpt lat="44.4323" lon="6.42796">
        <ele>915</ele>
        <time>2021-08-09T07:22:56Z</time>
      </trkpt>
      <trkpt lat="44.43228" lon="6.42794">
        <ele>915.4</ele>
        <time>2021-08-09T07:22:58Z</time>
      </trkpt>
      <trkpt lat="44.43225" lon="6.42788">
        <ele>916.2</ele>
        <time>2021-08-09T07:23:02Z</time>
      </trkpt>
      <trkpt lat="44.43223" lon="6.42786">
        <ele>916.8</ele>
        <time>2021-08-09T07:23:04Z</time>
      </trkpt>
      <trkpt lat="44.4322" lon="6.42782">
        <ele>917.4</ele>
        <time>2021-08-09T07:23:07Z</time>
      </trkpt>
      <trkpt lat="44.43217" lon="6.42774">
        <ele>918.2</ele>
        <time>2021-08-09T07:23:12Z</time>
      </trkpt>
      <trkpt lat="44.43216" lon="6.42773">
        <ele>918.6</ele>
        <time>2021-08-09T07:23:13Z</time>
      </trkpt>
      <trkpt lat="44.43214" lon="6.42769">
        <ele>919.6</ele>
        <time>2021-08-09T07:23:16Z</time>
      </trkpt>
      <trkpt lat="44.43212" lon="6.42762">
        <ele>920.8</ele>
        <time>2021-08-09T07:23:20Z</time>
      </trkpt>
      <trkpt lat="44.43218" lon="6.42755">
        <ele>922</ele>
        <time>2021-08-09T07:23:24Z</time>
      </trkpt>
      <trkpt lat="44.43224" lon="6.4275">
        <ele>923.6</ele>
        <time>2021-08-09T07:23:27Z</time>
      </trkpt>
      <trkpt lat="44.43234" lon="6.42739">
        <ele>924</ele>
        <time>2021-08-09T07:23:32Z</time>
      </trkpt>
      <trkpt lat="44.43251" lon="6.42722">
        <ele>924</ele>
        <time>2021-08-09T07:23:39Z</time>
      </trkpt>
      <trkpt lat="44.43261" lon="6.42712">
        <ele>924.2</ele>
        <time>2021-08-09T07:23:45Z</time>
      </trkpt>
      <trkpt lat="44.43269" lon="6.42705">
        <ele>924.8</ele>
        <time>2021-08-09T07:23:53Z</time>
      </trkpt>
      <trkpt lat="44.43269" lon="6.42705">
        <ele>924.8</ele>
        <time>2021-08-09T07:23:55Z</time>
      </trkpt>
      <trkpt lat="44.43267" lon="6.42708">
        <ele>924.8</ele>
        <time>2021-08-09T07:23:59Z</time>
      </trkpt>
      <trkpt lat="44.43265" lon="6.4271">
        <ele>924.8</ele>
        <time>2021-08-09T07:24:00Z</time>
      </trkpt>
      <trkpt lat="44.43254" lon="6.42721">
        <ele>924.8</ele>
        <time>2021-08-09T07:24:06Z</time>
      </trkpt>
      <trkpt lat="44.4324" lon="6.42734">
        <ele>924.2</ele>
        <time>2021-08-09T07:24:13Z</time>
      </trkpt>
      <trkpt lat="44.43223" lon="6.42752">
        <ele>924</ele>
        <time>2021-08-09T07:24:20Z</time>
      </trkpt>
      <trkpt lat="44.43216" lon="6.42759">
        <ele>923.8</ele>
        <time>2021-08-09T07:24:25Z</time>
      </trkpt>
      <trkpt lat="44.43215" lon="6.42761">
        <ele>924</ele>
        <time>2021-08-09T07:24:37Z</time>
      </trkpt>
      <trkpt lat="44.43213" lon="6.42764">
        <ele>924</ele>
        <time>2021-08-09T07:24:40Z</time>
      </trkpt>
      <trkpt lat="44.43213" lon="6.42764">
        <ele>924</ele>
        <time>2021-08-09T07:24:41Z</time>
      </trkpt>
      <trkpt lat="44.43217" lon="6.42763">
        <ele>923.8</ele>
        <time>2021-08-09T07:25:07Z</time>
      </trkpt>
      <trkpt lat="44.43221" lon="6.42758">
        <ele>924</ele>
        <time>2021-08-09T07:25:10Z</time>
      </trkpt>
      <trkpt lat="44.43228" lon="6.42751">
        <ele>924</ele>
        <time>2021-08-09T07:25:13Z</time>
      </trkpt>
      <trkpt lat="44.43237" lon="6.42741">
        <ele>924.2</ele>
        <time>2021-08-09T07:25:16Z</time>
      </trkpt>
      <trkpt lat="44.43261" lon="6.42717">
        <ele>924.2</ele>
        <time>2021-08-09T07:25:23Z</time>
      </trkpt>
      <trkpt lat="44.43295" lon="6.42683">
        <ele>924.2</ele>
        <time>2021-08-09T07:25:33Z</time>
      </trkpt>
      <trkpt lat="44.4333" lon="6.4265">
        <ele>924.4</ele>
        <time>2021-08-09T07:25:43Z</time>
      </trkpt>
      <trkpt lat="44.43337" lon="6.42644">
        <ele>924.4</ele>
        <time>2021-08-09T07:25:45Z</time>
      </trkpt>
      <trkpt lat="44.43348" lon="6.42635">
        <ele>925</ele>
        <time>2021-08-09T07:25:48Z</time>
      </trkpt>
      <trkpt lat="44.43358" lon="6.42625">
        <ele>925.2</ele>
        <time>2021-08-09T07:25:51Z</time>
      </trkpt>
      <trkpt lat="44.43369" lon="6.4261">
        <ele>925.8</ele>
        <time>2021-08-09T07:25:55Z</time>
      </trkpt>
      <trkpt lat="44.43371" lon="6.42603">
        <ele>926</ele>
        <time>2021-08-09T07:25:57Z</time>
      </trkpt>
      <trkpt lat="44.43369" lon="6.42601">
        <ele>926.2</ele>
        <time>2021-08-09T07:25:58Z</time>
      </trkpt>
      <trkpt lat="44.43361" lon="6.42608">
        <ele>926.2</ele>
        <time>2021-08-09T07:26:01Z</time>
      </trkpt>
      <trkpt lat="44.43337" lon="6.42633">
        <ele>926.2</ele>
        <time>2021-08-09T07:26:07Z</time>
      </trkpt>
      <trkpt lat="44.43303" lon="6.42662">
        <ele>925.2</ele>
        <time>2021-08-09T07:26:15Z</time>
      </trkpt>
      <trkpt lat="44.43275" lon="6.42689">
        <ele>924</ele>
        <time>2021-08-09T07:26:22Z</time>
      </trkpt>
      <trkpt lat="44.43271" lon="6.42693">
        <ele>923.8</ele>
        <time>2021-08-09T07:26:23Z</time>
      </trkpt>
      <trkpt lat="44.4324" lon="6.42724">
        <ele>923.6</ele>
        <time>2021-08-09T07:26:31Z</time>
      </trkpt>
      <trkpt lat="44.43213" lon="6.42751">
        <ele>923.6</ele>
        <time>2021-08-09T07:26:39Z</time>
      </trkpt>
      <trkpt lat="44.43199" lon="6.42761">
        <ele>923.2</ele>
        <time>2021-08-09T07:26:44Z</time>
      </trkpt>
      <trkpt lat="44.43194" lon="6.42762">
        <ele>923.2</ele>
        <time>2021-08-09T07:26:46Z</time>
      </trkpt>
      <trkpt lat="44.43194" lon="6.42763">
        <ele>923</ele>
        <time>2021-08-09T07:26:47Z</time>
      </trkpt>
      <trkpt lat="44.432" lon="6.42761">
        <ele>923</ele>
        <time>2021-08-09T07:26:51Z</time>
      </trkpt>
      <trkpt lat="44.43208" lon="6.42753">
        <ele>923.4</ele>
        <time>2021-08-09T07:26:55Z</time>
      </trkpt>
      <trkpt lat="44.43209" lon="6.42747">
        <ele>923.6</ele>
        <time>2021-08-09T07:26:57Z</time>
      </trkpt>
      <trkpt lat="44.43214" lon="6.42735">
        <ele>924</ele>
        <time>2021-08-09T07:27:03Z</time>
      </trkpt>
      <trkpt lat="44.43214" lon="6.42729">
        <ele>924.4</ele>
        <time>2021-08-09T07:27:06Z</time>
      </trkpt>
      <trkpt lat="44.43213" lon="6.42722">
        <ele>925.6</ele>
        <time>2021-08-09T07:27:10Z</time>
      </trkpt>
      <trkpt lat="44.43213" lon="6.42715">
        <ele>926.8</ele>
        <time>2021-08-09T07:27:13Z</time>
      </trkpt>
      <trkpt lat="44.43211" lon="6.42709">
        <ele>928.2</ele>
        <time>2021-08-09T07:27:17Z</time>
      </trkpt>
      <trkpt lat="44.43211" lon="6.42709">
        <ele>928.4</ele>
        <time>2021-08-09T07:27:18Z</time>
      </trkpt>
      <trkpt lat="44.4321" lon="6.42705">
        <ele>931.2</ele>
        <time>2021-08-09T07:27:26Z</time>
      </trkpt>
      <trkpt lat="44.4321" lon="6.42704">
        <ele>931.6</ele>
        <time>2021-08-09T07:27:29Z</time>
      </trkpt>
      <trkpt lat="44.43211" lon="6.42701">
        <ele>932.6</ele>
        <time>2021-08-09T07:27:38Z</time>
      </trkpt>
      <trkpt lat="44.43218" lon="6.42688">
        <ele>932.8</ele>
        <time>2021-08-09T07:27:44Z</time>
      </trkpt>
      <trkpt lat="44.43224" lon="6.42677">
        <ele>933.2</ele>
        <time>2021-08-09T07:27:49Z</time>
      </trkpt>
      <trkpt lat="44.43233" lon="6.42665">
        <ele>934</ele>
        <time>2021-08-09T07:27:55Z</time>
      </trkpt>
      <trkpt lat="44.4324" lon="6.42659">
        <ele>935</ele>
        <time>2021-08-09T07:27:59Z</time>
      </trkpt>
      <trkpt lat="44.43248" lon="6.42651">
        <ele>936</ele>
        <time>2021-08-09T07:28:04Z</time>
      </trkpt>
      <trkpt lat="44.43254" lon="6.42646">
        <ele>936.8</ele>
        <time>2021-08-09T07:28:07Z</time>
      </trkpt>
      <trkpt lat="44.43257" lon="6.42643">
        <ele>937.2</ele>
        <time>2021-08-09T07:28:09Z</time>
      </trkpt>
      <trkpt lat="44.43266" lon="6.42635">
        <ele>938.4</ele>
        <time>2021-08-09T07:28:14Z</time>
      </trkpt>
      <trkpt lat="44.43268" lon="6.42634">
        <ele>938.6</ele>
        <time>2021-08-09T07:28:15Z</time>
      </trkpt>
      <trkpt lat="44.43275" lon="6.42624">
        <ele>939.4</ele>
        <time>2021-08-09T07:28:20Z</time>
      </trkpt>
      <trkpt lat="44.4328" lon="6.42618">
        <ele>939.8</ele>
        <time>2021-08-09T07:28:23Z</time>
      </trkpt>
      <trkpt lat="44.43282" lon="6.42616">
        <ele>940</ele>
        <time>2021-08-09T07:28:24Z</time>
      </trkpt>
      <trkpt lat="44.43287" lon="6.4261">
        <ele>940.4</ele>
        <time>2021-08-09T07:28:27Z</time>
      </trkpt>
      <trkpt lat="44.43295" lon="6.42598">
        <ele>941.6</ele>
        <time>2021-08-09T07:28:33Z</time>
      </trkpt>
      <trkpt lat="44.43297" lon="6.42596">
        <ele>941.8</ele>
        <time>2021-08-09T07:28:34Z</time>
      </trkpt>
      <trkpt lat="44.43304" lon="6.42589">
        <ele>942.8</ele>
        <time>2021-08-09T07:28:38Z</time>
      </trkpt>
      <trkpt lat="44.43309" lon="6.4258">
        <ele>943.6</ele>
        <time>2021-08-09T07:28:42Z</time>
      </trkpt>
      <trkpt lat="44.43312" lon="6.42576">
        <ele>944</ele>
        <time>2021-08-09T07:28:44Z</time>
      </trkpt>
      <trkpt lat="44.43319" lon="6.42567">
        <ele>945</ele>
        <time>2021-08-09T07:28:49Z</time>
      </trkpt>
      <trkpt lat="44.43326" lon="6.42557">
        <ele>945.6</ele>
        <time>2021-08-09T07:28:54Z</time>
      </trkpt>
      <trkpt lat="44.43329" lon="6.42552">
        <ele>946</ele>
        <time>2021-08-09T07:28:56Z</time>
      </trkpt>
      <trkpt lat="44.43335" lon="6.42537">
        <ele>947.2</ele>
        <time>2021-08-09T07:29:01Z</time>
      </trkpt>
      <trkpt lat="44.43338" lon="6.42531">
        <ele>947.6</ele>
        <time>2021-08-09T07:29:03Z</time>
      </trkpt>
      <trkpt lat="44.43345" lon="6.42515">
        <ele>948.4</ele>
        <time>2021-08-09T07:29:08Z</time>
      </trkpt>
      <trkpt lat="44.43353" lon="6.42499">
        <ele>949.2</ele>
        <time>2021-08-09T07:29:13Z</time>
      </trkpt>
      <trkpt lat="44.43363" lon="6.42483">
        <ele>949.4</ele>
        <time>2021-08-09T07:29:18Z</time>
      </trkpt>
      <trkpt lat="44.43369" lon="6.42475">
        <ele>949.6</ele>
        <time>2021-08-09T07:29:20Z</time>
      </trkpt>
      <trkpt lat="44.43389" lon="6.42453">
        <ele>950</ele>
        <time>2021-08-09T07:29:25Z</time>
      </trkpt>
      <trkpt lat="44.43412" lon="6.42432">
        <ele>950</ele>
        <time>2021-08-09T07:29:30Z</time>
      </trkpt>
      <trkpt lat="44.4342" lon="6.42421">
        <ele>950</ele>
        <time>2021-08-09T07:29:32Z</time>
      </trkpt>
      <trkpt lat="44.43435" lon="6.42395">
        <ele>949.6</ele>
        <time>2021-08-09T07:29:37Z</time>
      </trkpt>
      <trkpt lat="44.43437" lon="6.42389">
        <ele>949.6</ele>
        <time>2021-08-09T07:29:38Z</time>
      </trkpt>
      <trkpt lat="44.43443" lon="6.4236">
        <ele>949.8</ele>
        <time>2021-08-09T07:29:44Z</time>
      </trkpt>
      <trkpt lat="44.43449" lon="6.42343">
        <ele>951.2</ele>
        <time>2021-08-09T07:29:48Z</time>
      </trkpt>
      <trkpt lat="44.43453" lon="6.4233">
        <ele>952</ele>
        <time>2021-08-09T07:29:51Z</time>
      </trkpt>
      <trkpt lat="44.43454" lon="6.42326">
        <ele>952.4</ele>
        <time>2021-08-09T07:29:52Z</time>
      </trkpt>
      <trkpt lat="44.43455" lon="6.42307">
        <ele>953.4</ele>
        <time>2021-08-09T07:29:56Z</time>
      </trkpt>
      <trkpt lat="44.43456" lon="6.42299">
        <ele>953.8</ele>
        <time>2021-08-09T07:29:58Z</time>
      </trkpt>
      <trkpt lat="44.4346" lon="6.42281">
        <ele>954.6</ele>
        <time>2021-08-09T07:30:02Z</time>
      </trkpt>
      <trkpt lat="44.43465" lon="6.4227">
        <ele>955.2</ele>
        <time>2021-08-09T07:30:05Z</time>
      </trkpt>
      <trkpt lat="44.43472" lon="6.42258">
        <ele>956</ele>
        <time>2021-08-09T07:30:09Z</time>
      </trkpt>
      <trkpt lat="44.4348" lon="6.42243">
        <ele>957</ele>
        <time>2021-08-09T07:30:14Z</time>
      </trkpt>
      <trkpt lat="44.43484" lon="6.42237">
        <ele>957.4</ele>
        <time>2021-08-09T07:30:16Z</time>
      </trkpt>
      <trkpt lat="44.43489" lon="6.42228">
        <ele>958.2</ele>
        <time>2021-08-09T07:30:19Z</time>
      </trkpt>
      <trkpt lat="44.43497" lon="6.42213">
        <ele>959.2</ele>
        <time>2021-08-09T07:30:24Z</time>
      </trkpt>
      <trkpt lat="44.43499" lon="6.4221">
        <ele>959.4</ele>
        <time>2021-08-09T07:30:25Z</time>
      </trkpt>
      <trkpt lat="44.43509" lon="6.42197">
        <ele>960.6</ele>
        <time>2021-08-09T07:30:30Z</time>
      </trkpt>
      <trkpt lat="44.43511" lon="6.42194">
        <ele>961</ele>
        <time>2021-08-09T07:30:31Z</time>
      </trkpt>
      <trkpt lat="44.43518" lon="6.42183">
        <ele>961.8</ele>
        <time>2021-08-09T07:30:35Z</time>
      </trkpt>
      <trkpt lat="44.43521" lon="6.42178">
        <ele>961.8</ele>
        <time>2021-08-09T07:30:37Z</time>
      </trkpt>
      <trkpt lat="44.4353" lon="6.42165">
        <ele>963</ele>
        <time>2021-08-09T07:30:42Z</time>
      </trkpt>
      <trkpt lat="44.43537" lon="6.42153">
        <ele>963.8</ele>
        <time>2021-08-09T07:30:47Z</time>
      </trkpt>
      <trkpt lat="44.43538" lon="6.42146">
        <ele>964</ele>
        <time>2021-08-09T07:30:49Z</time>
      </trkpt>
      <trkpt lat="44.43536" lon="6.42137">
        <ele>964.6</ele>
        <time>2021-08-09T07:30:52Z</time>
      </trkpt>
      <trkpt lat="44.43531" lon="6.42128">
        <ele>965.2</ele>
        <time>2021-08-09T07:30:55Z</time>
      </trkpt>
      <trkpt lat="44.43525" lon="6.42118">
        <ele>966.4</ele>
        <time>2021-08-09T07:30:59Z</time>
      </trkpt>
      <trkpt lat="44.43523" lon="6.42117">
        <ele>966.4</ele>
        <time>2021-08-09T07:31:00Z</time>
      </trkpt>
      <trkpt lat="44.43513" lon="6.42113">
        <ele>967.4</ele>
        <time>2021-08-09T07:31:05Z</time>
      </trkpt>
      <trkpt lat="44.43511" lon="6.42113">
        <ele>967.6</ele>
        <time>2021-08-09T07:31:06Z</time>
      </trkpt>
      <trkpt lat="44.43502" lon="6.42115">
        <ele>968.6</ele>
        <time>2021-08-09T07:31:11Z</time>
      </trkpt>
      <trkpt lat="44.43497" lon="6.42118">
        <ele>969.2</ele>
        <time>2021-08-09T07:31:14Z</time>
      </trkpt>
      <trkpt lat="44.43494" lon="6.4212">
        <ele>969.8</ele>
        <time>2021-08-09T07:31:16Z</time>
      </trkpt>
      <trkpt lat="44.43488" lon="6.42122">
        <ele>971</ele>
        <time>2021-08-09T07:31:20Z</time>
      </trkpt>
      <trkpt lat="44.43486" lon="6.42123">
        <ele>971.2</ele>
        <time>2021-08-09T07:31:21Z</time>
      </trkpt>
      <trkpt lat="44.43481" lon="6.42125">
        <ele>972</ele>
        <time>2021-08-09T07:31:24Z</time>
      </trkpt>
      <trkpt lat="44.43476" lon="6.42126">
        <ele>973</ele>
        <time>2021-08-09T07:31:27Z</time>
      </trkpt>
      <trkpt lat="44.43475" lon="6.42127">
        <ele>973.2</ele>
        <time>2021-08-09T07:31:28Z</time>
      </trkpt>
      <trkpt lat="44.43466" lon="6.42129">
        <ele>974.4</ele>
        <time>2021-08-09T07:31:33Z</time>
      </trkpt>
      <trkpt lat="44.43461" lon="6.42131">
        <ele>975</ele>
        <time>2021-08-09T07:31:36Z</time>
      </trkpt>
      <trkpt lat="44.43458" lon="6.42131">
        <ele>975.4</ele>
        <time>2021-08-09T07:31:38Z</time>
      </trkpt>
      <trkpt lat="44.43448" lon="6.42135">
        <ele>976.6</ele>
        <time>2021-08-09T07:31:44Z</time>
      </trkpt>
      <trkpt lat="44.43438" lon="6.42138">
        <ele>977.6</ele>
        <time>2021-08-09T07:31:50Z</time>
      </trkpt>
      <trkpt lat="44.4343" lon="6.42142">
        <ele>978.4</ele>
        <time>2021-08-09T07:31:55Z</time>
      </trkpt>
      <trkpt lat="44.43429" lon="6.42143">
        <ele>978.8</ele>
        <time>2021-08-09T07:31:56Z</time>
      </trkpt>
      <trkpt lat="44.43421" lon="6.42146">
        <ele>979.8</ele>
        <time>2021-08-09T07:32:01Z</time>
      </trkpt>
      <trkpt lat="44.43416" lon="6.42149">
        <ele>980.4</ele>
        <time>2021-08-09T07:32:04Z</time>
      </trkpt>
      <trkpt lat="44.43411" lon="6.42151">
        <ele>980.8</ele>
        <time>2021-08-09T07:32:07Z</time>
      </trkpt>
      <trkpt lat="44.43402" lon="6.42159">
        <ele>981.8</ele>
        <time>2021-08-09T07:32:14Z</time>
      </trkpt>
      <trkpt lat="44.43393" lon="6.42166">
        <ele>982.8</ele>
        <time>2021-08-09T07:32:20Z</time>
      </trkpt>
      <trkpt lat="44.43383" lon="6.42175">
        <ele>983.8</ele>
        <time>2021-08-09T07:32:27Z</time>
      </trkpt>
      <trkpt lat="44.43377" lon="6.4218">
        <ele>984.8</ele>
        <time>2021-08-09T07:32:31Z</time>
      </trkpt>
      <trkpt lat="44.43371" lon="6.42186">
        <ele>986</ele>
        <time>2021-08-09T07:32:36Z</time>
      </trkpt>
      <trkpt lat="44.4336" lon="6.42196">
        <ele>987</ele>
        <time>2021-08-09T07:32:44Z</time>
      </trkpt>
      <trkpt lat="44.43358" lon="6.42197">
        <ele>987.2</ele>
        <time>2021-08-09T07:32:45Z</time>
      </trkpt>
      <trkpt lat="44.43351" lon="6.42203">
        <ele>988</ele>
        <time>2021-08-09T07:32:50Z</time>
      </trkpt>
      <trkpt lat="44.43347" lon="6.42207">
        <ele>988.6</ele>
        <time>2021-08-09T07:32:53Z</time>
      </trkpt>
      <trkpt lat="44.43342" lon="6.42212">
        <ele>989.2</ele>
        <time>2021-08-09T07:32:57Z</time>
      </trkpt>
      <trkpt lat="44.43336" lon="6.42217">
        <ele>989.8</ele>
        <time>2021-08-09T07:33:00Z</time>
      </trkpt>
      <trkpt lat="44.43333" lon="6.42221">
        <ele>990.4</ele>
        <time>2021-08-09T07:33:02Z</time>
      </trkpt>
      <trkpt lat="44.43326" lon="6.4223">
        <ele>991.4</ele>
        <time>2021-08-09T07:33:07Z</time>
      </trkpt>
      <trkpt lat="44.43323" lon="6.42233">
        <ele>992</ele>
        <time>2021-08-09T07:33:09Z</time>
      </trkpt>
      <trkpt lat="44.4332" lon="6.42236">
        <ele>992.6</ele>
        <time>2021-08-09T07:33:11Z</time>
      </trkpt>
      <trkpt lat="44.43312" lon="6.42243">
        <ele>993.6</ele>
        <time>2021-08-09T07:33:16Z</time>
      </trkpt>
      <trkpt lat="44.43305" lon="6.42249">
        <ele>994.8</ele>
        <time>2021-08-09T07:33:21Z</time>
      </trkpt>
      <trkpt lat="44.43304" lon="6.42251">
        <ele>995</ele>
        <time>2021-08-09T07:33:22Z</time>
      </trkpt>
      <trkpt lat="44.43298" lon="6.42255">
        <ele>996</ele>
        <time>2021-08-09T07:33:26Z</time>
      </trkpt>
      <trkpt lat="44.43292" lon="6.42261">
        <ele>997</ele>
        <time>2021-08-09T07:33:30Z</time>
      </trkpt>
      <trkpt lat="44.4329" lon="6.42262">
        <ele>997.2</ele>
        <time>2021-08-09T07:33:31Z</time>
      </trkpt>
      <trkpt lat="44.43285" lon="6.4227">
        <ele>998.4</ele>
        <time>2021-08-09T07:33:36Z</time>
      </trkpt>
      <trkpt lat="44.43278" lon="6.42278">
        <ele>999.4</ele>
        <time>2021-08-09T07:33:41Z</time>
      </trkpt>
      <trkpt lat="44.43274" lon="6.42282">
        <ele>1000.2</ele>
        <time>2021-08-09T07:33:44Z</time>
      </trkpt>
      <trkpt lat="44.43272" lon="6.42285">
        <ele>1000.8</ele>
        <time>2021-08-09T07:33:46Z</time>
      </trkpt>
      <trkpt lat="44.43264" lon="6.42295">
        <ele>1001.8</ele>
        <time>2021-08-09T07:33:51Z</time>
      </trkpt>
      <trkpt lat="44.43256" lon="6.42306">
        <ele>1002.8</ele>
        <time>2021-08-09T07:33:57Z</time>
      </trkpt>
      <trkpt lat="44.43255" lon="6.42308">
        <ele>1003</ele>
        <time>2021-08-09T07:33:58Z</time>
      </trkpt>
      <trkpt lat="44.43247" lon="6.42318">
        <ele>1004</ele>
        <time>2021-08-09T07:34:03Z</time>
      </trkpt>
      <trkpt lat="44.43243" lon="6.42321">
        <ele>1004.4</ele>
        <time>2021-08-09T07:34:05Z</time>
      </trkpt>
      <trkpt lat="44.43234" lon="6.42329">
        <ele>1005.2</ele>
        <time>2021-08-09T07:34:10Z</time>
      </trkpt>
      <trkpt lat="44.43229" lon="6.42333">
        <ele>1005.6</ele>
        <time>2021-08-09T07:34:13Z</time>
      </trkpt>
      <trkpt lat="44.43222" lon="6.42339">
        <ele>1006.2</ele>
        <time>2021-08-09T07:34:17Z</time>
      </trkpt>
      <trkpt lat="44.43215" lon="6.42344">
        <ele>1007.4</ele>
        <time>2021-08-09T07:34:21Z</time>
      </trkpt>
      <trkpt lat="44.43206" lon="6.42345">
        <ele>1008.4</ele>
        <time>2021-08-09T07:34:26Z</time>
      </trkpt>
      <trkpt lat="44.43198" lon="6.42348">
        <ele>1009.6</ele>
        <time>2021-08-09T07:34:30Z</time>
      </trkpt>
      <trkpt lat="44.43197" lon="6.42349">
        <ele>1009.8</ele>
        <time>2021-08-09T07:34:31Z</time>
      </trkpt>
      <trkpt lat="44.43188" lon="6.42354">
        <ele>1010.8</ele>
        <time>2021-08-09T07:34:36Z</time>
      </trkpt>
      <trkpt lat="44.43182" lon="6.42357">
        <ele>1011.4</ele>
        <time>2021-08-09T07:34:39Z</time>
      </trkpt>
      <trkpt lat="44.43178" lon="6.42362">
        <ele>1012</ele>
        <time>2021-08-09T07:34:42Z</time>
      </trkpt>
      <trkpt lat="44.43169" lon="6.42369">
        <ele>1013</ele>
        <time>2021-08-09T07:34:47Z</time>
      </trkpt>
      <trkpt lat="44.43168" lon="6.42371">
        <ele>1013.2</ele>
        <time>2021-08-09T07:34:48Z</time>
      </trkpt>
      <trkpt lat="44.43159" lon="6.42377">
        <ele>1014.2</ele>
        <time>2021-08-09T07:34:53Z</time>
      </trkpt>
      <trkpt lat="44.43156" lon="6.4238">
        <ele>1014.6</ele>
        <time>2021-08-09T07:34:55Z</time>
      </trkpt>
      <trkpt lat="44.43151" lon="6.42384">
        <ele>1015.4</ele>
        <time>2021-08-09T07:34:58Z</time>
      </trkpt>
      <trkpt lat="44.43143" lon="6.4239">
        <ele>1016.4</ele>
        <time>2021-08-09T07:35:03Z</time>
      </trkpt>
      <trkpt lat="44.43141" lon="6.42391">
        <ele>1016.6</ele>
        <time>2021-08-09T07:35:04Z</time>
      </trkpt>
      <trkpt lat="44.43133" lon="6.42398">
        <ele>1017.6</ele>
        <time>2021-08-09T07:35:09Z</time>
      </trkpt>
      <trkpt lat="44.43128" lon="6.42402">
        <ele>1018.2</ele>
        <time>2021-08-09T07:35:12Z</time>
      </trkpt>
      <trkpt lat="44.43122" lon="6.42408">
        <ele>1018.8</ele>
        <time>2021-08-09T07:35:16Z</time>
      </trkpt>
      <trkpt lat="44.43114" lon="6.42416">
        <ele>1019.6</ele>
        <time>2021-08-09T07:35:21Z</time>
      </trkpt>
      <trkpt lat="44.43113" lon="6.42418">
        <ele>1019.8</ele>
        <time>2021-08-09T07:35:22Z</time>
      </trkpt>
      <trkpt lat="44.43104" lon="6.42433">
        <ele>1021</ele>
        <time>2021-08-09T07:35:29Z</time>
      </trkpt>
      <trkpt lat="44.43103" lon="6.42435">
        <ele>1021</ele>
        <time>2021-08-09T07:35:30Z</time>
      </trkpt>
      <trkpt lat="44.43097" lon="6.42445">
        <ele>1022</ele>
        <time>2021-08-09T07:35:35Z</time>
      </trkpt>
      <trkpt lat="44.43096" lon="6.42447">
        <ele>1022.4</ele>
        <time>2021-08-09T07:35:36Z</time>
      </trkpt>
      <trkpt lat="44.43095" lon="6.42453">
        <ele>1022.6</ele>
        <time>2021-08-09T07:35:38Z</time>
      </trkpt>
      <trkpt lat="44.43092" lon="6.4246">
        <ele>1023.2</ele>
        <time>2021-08-09T07:35:41Z</time>
      </trkpt>
      <trkpt lat="44.43091" lon="6.42462">
        <ele>1023.4</ele>
        <time>2021-08-09T07:35:42Z</time>
      </trkpt>
      <trkpt lat="44.43088" lon="6.42465">
        <ele>1023.8</ele>
        <time>2021-08-09T07:35:44Z</time>
      </trkpt>
      <trkpt lat="44.43082" lon="6.4247">
        <ele>1024.6</ele>
        <time>2021-08-09T07:35:48Z</time>
      </trkpt>
      <trkpt lat="44.43077" lon="6.4247">
        <ele>1025</ele>
        <time>2021-08-09T07:35:51Z</time>
      </trkpt>
      <trkpt lat="44.43071" lon="6.42473">
        <ele>1025.6</ele>
        <time>2021-08-09T07:35:54Z</time>
      </trkpt>
      <trkpt lat="44.43067" lon="6.42476">
        <ele>1026</ele>
        <time>2021-08-09T07:35:57Z</time>
      </trkpt>
      <trkpt lat="44.43061" lon="6.42482">
        <ele>1026.8</ele>
        <time>2021-08-09T07:36:01Z</time>
      </trkpt>
      <trkpt lat="44.43058" lon="6.42489">
        <ele>1027.4</ele>
        <time>2021-08-09T07:36:04Z</time>
      </trkpt>
      <trkpt lat="44.43057" lon="6.42491">
        <ele>1027.6</ele>
        <time>2021-08-09T07:36:05Z</time>
      </trkpt>
      <trkpt lat="44.43055" lon="6.42501">
        <ele>1029</ele>
        <time>2021-08-09T07:36:09Z</time>
      </trkpt>
      <trkpt lat="44.43054" lon="6.42503">
        <ele>1029.2</ele>
        <time>2021-08-09T07:36:10Z</time>
      </trkpt>
      <trkpt lat="44.43053" lon="6.42511">
        <ele>1030</ele>
        <time>2021-08-09T07:36:13Z</time>
      </trkpt>
      <trkpt lat="44.43051" lon="6.4252">
        <ele>1031.2</ele>
        <time>2021-08-09T07:36:17Z</time>
      </trkpt>
      <trkpt lat="44.4305" lon="6.42522">
        <ele>1031.4</ele>
        <time>2021-08-09T07:36:18Z</time>
      </trkpt>
      <trkpt lat="44.43048" lon="6.42535">
        <ele>1032.2</ele>
        <time>2021-08-09T07:36:23Z</time>
      </trkpt>
      <trkpt lat="44.43047" lon="6.42544">
        <ele>1032.6</ele>
        <time>2021-08-09T07:36:26Z</time>
      </trkpt>
      <trkpt lat="44.43046" lon="6.42546">
        <ele>1032.6</ele>
        <time>2021-08-09T07:36:27Z</time>
      </trkpt>
      <trkpt lat="44.43045" lon="6.42554">
        <ele>1033.4</ele>
        <time>2021-08-09T07:36:30Z</time>
      </trkpt>
      <trkpt lat="44.43045" lon="6.42557">
        <ele>1033.6</ele>
        <time>2021-08-09T07:36:31Z</time>
      </trkpt>
      <trkpt lat="44.43044" lon="6.42565">
        <ele>1034.4</ele>
        <time>2021-08-09T07:36:34Z</time>
      </trkpt>
      <trkpt lat="44.43044" lon="6.42573">
        <ele>1034.6</ele>
        <time>2021-08-09T07:36:37Z</time>
      </trkpt>
      <trkpt lat="44.43042" lon="6.4258">
        <ele>1035.2</ele>
        <time>2021-08-09T07:36:40Z</time>
      </trkpt>
      <trkpt lat="44.43038" lon="6.42589">
        <ele>1036</ele>
        <time>2021-08-09T07:36:44Z</time>
      </trkpt>
      <trkpt lat="44.43037" lon="6.42591">
        <ele>1036.4</ele>
        <time>2021-08-09T07:36:45Z</time>
      </trkpt>
      <trkpt lat="44.43032" lon="6.42599">
        <ele>1037.4</ele>
        <time>2021-08-09T07:36:49Z</time>
      </trkpt>
      <trkpt lat="44.43025" lon="6.42611">
        <ele>1038.6</ele>
        <time>2021-08-09T07:36:55Z</time>
      </trkpt>
      <trkpt lat="44.43022" lon="6.42618">
        <ele>1039.2</ele>
        <time>2021-08-09T07:36:58Z</time>
      </trkpt>
      <trkpt lat="44.4302" lon="6.42625">
        <ele>1039.8</ele>
        <time>2021-08-09T07:37:01Z</time>
      </trkpt>
      <trkpt lat="44.43017" lon="6.42634">
        <ele>1040.6</ele>
        <time>2021-08-09T07:37:05Z</time>
      </trkpt>
      <trkpt lat="44.43015" lon="6.4264">
        <ele>1040.8</ele>
        <time>2021-08-09T07:37:07Z</time>
      </trkpt>
      <trkpt lat="44.43011" lon="6.42657">
        <ele>1041.8</ele>
        <time>2021-08-09T07:37:14Z</time>
      </trkpt>
      <trkpt lat="44.43009" lon="6.42666">
        <ele>1042.8</ele>
        <time>2021-08-09T07:37:18Z</time>
      </trkpt>
      <trkpt lat="44.43005" lon="6.42671">
        <ele>1043.6</ele>
        <time>2021-08-09T07:37:21Z</time>
      </trkpt>
      <trkpt lat="44.43002" lon="6.42675">
        <ele>1044</ele>
        <time>2021-08-09T07:37:23Z</time>
      </trkpt>
      <trkpt lat="44.42997" lon="6.42684">
        <ele>1045.2</ele>
        <time>2021-08-09T07:37:28Z</time>
      </trkpt>
      <trkpt lat="44.42995" lon="6.42688">
        <ele>1045.6</ele>
        <time>2021-08-09T07:37:30Z</time>
      </trkpt>
      <trkpt lat="44.42993" lon="6.42694">
        <ele>1046.2</ele>
        <time>2021-08-09T07:37:33Z</time>
      </trkpt>
      <trkpt lat="44.42989" lon="6.42701">
        <ele>1047</ele>
        <time>2021-08-09T07:37:37Z</time>
      </trkpt>
      <trkpt lat="44.42988" lon="6.42702">
        <ele>1047.2</ele>
        <time>2021-08-09T07:37:38Z</time>
      </trkpt>
      <trkpt lat="44.42983" lon="6.42711">
        <ele>1048.4</ele>
        <time>2021-08-09T07:37:44Z</time>
      </trkpt>
      <trkpt lat="44.42976" lon="6.42721">
        <ele>1049.6</ele>
        <time>2021-08-09T07:37:50Z</time>
      </trkpt>
      <trkpt lat="44.42973" lon="6.42726">
        <ele>1050</ele>
        <time>2021-08-09T07:37:53Z</time>
      </trkpt>
      <trkpt lat="44.42968" lon="6.42732">
        <ele>1050.6</ele>
        <time>2021-08-09T07:37:57Z</time>
      </trkpt>
      <trkpt lat="44.42964" lon="6.42737">
        <ele>1051</ele>
        <time>2021-08-09T07:38:00Z</time>
      </trkpt>
      <trkpt lat="44.42958" lon="6.42743">
        <ele>1051.8</ele>
        <time>2021-08-09T07:38:05Z</time>
      </trkpt>
      <trkpt lat="44.42954" lon="6.42747">
        <ele>1052.4</ele>
        <time>2021-08-09T07:38:08Z</time>
      </trkpt>
      <trkpt lat="44.42951" lon="6.42749">
        <ele>1052.8</ele>
        <time>2021-08-09T07:38:10Z</time>
      </trkpt>
      <trkpt lat="44.42943" lon="6.42753">
        <ele>1054.2</ele>
        <time>2021-08-09T07:38:16Z</time>
      </trkpt>
      <trkpt lat="44.42936" lon="6.42756">
        <ele>1055.2</ele>
        <time>2021-08-09T07:38:21Z</time>
      </trkpt>
      <trkpt lat="44.42932" lon="6.42757">
        <ele>1055.8</ele>
        <time>2021-08-09T07:38:24Z</time>
      </trkpt>
      <trkpt lat="44.42927" lon="6.42759">
        <ele>1056.4</ele>
        <time>2021-08-09T07:38:27Z</time>
      </trkpt>
      <trkpt lat="44.42922" lon="6.42761">
        <ele>1056.8</ele>
        <time>2021-08-09T07:38:30Z</time>
      </trkpt>
      <trkpt lat="44.42913" lon="6.42763">
        <ele>1057.4</ele>
        <time>2021-08-09T07:38:35Z</time>
      </trkpt>
      <trkpt lat="44.42909" lon="6.42764">
        <ele>1057.8</ele>
        <time>2021-08-09T07:38:37Z</time>
      </trkpt>
      <trkpt lat="44.42903" lon="6.42768">
        <ele>1058.8</ele>
        <time>2021-08-09T07:38:41Z</time>
      </trkpt>
      <trkpt lat="44.42895" lon="6.42773">
        <ele>1059.6</ele>
        <time>2021-08-09T07:38:45Z</time>
      </trkpt>
      <trkpt lat="44.42892" lon="6.42775">
        <ele>1059.8</ele>
        <time>2021-08-09T07:38:47Z</time>
      </trkpt>
      <trkpt lat="44.42883" lon="6.4278">
        <ele>1060</ele>
        <time>2021-08-09T07:38:52Z</time>
      </trkpt>
      <trkpt lat="44.42874" lon="6.42787">
        <ele>1061</ele>
        <time>2021-08-09T07:38:57Z</time>
      </trkpt>
      <trkpt lat="44.42865" lon="6.42791">
        <ele>1061.6</ele>
        <time>2021-08-09T07:39:02Z</time>
      </trkpt>
      <trkpt lat="44.4286" lon="6.42794">
        <ele>1062.2</ele>
        <time>2021-08-09T07:39:05Z</time>
      </trkpt>
      <trkpt lat="44.4285" lon="6.42797">
        <ele>1063.2</ele>
        <time>2021-08-09T07:39:10Z</time>
      </trkpt>
      <trkpt lat="44.42847" lon="6.42797">
        <ele>1063.6</ele>
        <time>2021-08-09T07:39:12Z</time>
      </trkpt>
      <trkpt lat="44.42841" lon="6.42798">
        <ele>1064.2</ele>
        <time>2021-08-09T07:39:15Z</time>
      </trkpt>
      <trkpt lat="44.42829" lon="6.42798">
        <ele>1065.4</ele>
        <time>2021-08-09T07:39:21Z</time>
      </trkpt>
      <trkpt lat="44.42828" lon="6.42798">
        <ele>1065.6</ele>
        <time>2021-08-09T07:39:22Z</time>
      </trkpt>
      <trkpt lat="44.42818" lon="6.42797">
        <ele>1066.6</ele>
        <time>2021-08-09T07:39:27Z</time>
      </trkpt>
      <trkpt lat="44.42808" lon="6.42796">
        <ele>1067.6</ele>
        <time>2021-08-09T07:39:32Z</time>
      </trkpt>
      <trkpt lat="44.42804" lon="6.42796">
        <ele>1067.8</ele>
        <time>2021-08-09T07:39:34Z</time>
      </trkpt>
      <trkpt lat="44.42793" lon="6.42796">
        <ele>1068.8</ele>
        <time>2021-08-09T07:39:40Z</time>
      </trkpt>
      <trkpt lat="44.42783" lon="6.42797">
        <ele>1069.8</ele>
        <time>2021-08-09T07:39:45Z</time>
      </trkpt>
      <trkpt lat="44.42782" lon="6.42797">
        <ele>1070</ele>
        <time>2021-08-09T07:39:46Z</time>
      </trkpt>
      <trkpt lat="44.42772" lon="6.428">
        <ele>1070.8</ele>
        <time>2021-08-09T07:39:51Z</time>
      </trkpt>
      <trkpt lat="44.42765" lon="6.42803">
        <ele>1071.6</ele>
        <time>2021-08-09T07:39:55Z</time>
      </trkpt>
      <trkpt lat="44.42763" lon="6.42803">
        <ele>1071.8</ele>
        <time>2021-08-09T07:39:56Z</time>
      </trkpt>
      <trkpt lat="44.42751" lon="6.42807">
        <ele>1073</ele>
        <time>2021-08-09T07:40:03Z</time>
      </trkpt>
      <trkpt lat="44.42745" lon="6.42809">
        <ele>1073.6</ele>
        <time>2021-08-09T07:40:06Z</time>
      </trkpt>
      <trkpt lat="44.42742" lon="6.42811">
        <ele>1074.2</ele>
        <time>2021-08-09T07:40:08Z</time>
      </trkpt>
      <trkpt lat="44.42731" lon="6.42814">
        <ele>1075.2</ele>
        <time>2021-08-09T07:40:14Z</time>
      </trkpt>
      <trkpt lat="44.42728" lon="6.42815">
        <ele>1075.4</ele>
        <time>2021-08-09T07:40:16Z</time>
      </trkpt>
      <trkpt lat="44.42721" lon="6.42816">
        <ele>1076.2</ele>
        <time>2021-08-09T07:40:20Z</time>
      </trkpt>
      <trkpt lat="44.42712" lon="6.42817">
        <ele>1077.2</ele>
        <time>2021-08-09T07:40:25Z</time>
      </trkpt>
      <trkpt lat="44.4271" lon="6.42817">
        <ele>1077.4</ele>
        <time>2021-08-09T07:40:26Z</time>
      </trkpt>
      <trkpt lat="44.42702" lon="6.42822">
        <ele>1078.4</ele>
        <time>2021-08-09T07:40:31Z</time>
      </trkpt>
      <trkpt lat="44.42699" lon="6.42824">
        <ele>1078.8</ele>
        <time>2021-08-09T07:40:33Z</time>
      </trkpt>
      <trkpt lat="44.42694" lon="6.42827">
        <ele>1079.6</ele>
        <time>2021-08-09T07:40:36Z</time>
      </trkpt>
      <trkpt lat="44.42686" lon="6.42832">
        <ele>1080.6</ele>
        <time>2021-08-09T07:40:41Z</time>
      </trkpt>
      <trkpt lat="44.42682" lon="6.42835">
        <ele>1081</ele>
        <time>2021-08-09T07:40:43Z</time>
      </trkpt>
      <trkpt lat="44.42677" lon="6.42838">
        <ele>1081.8</ele>
        <time>2021-08-09T07:40:46Z</time>
      </trkpt>
      <trkpt lat="44.42671" lon="6.42844">
        <ele>1082.8</ele>
        <time>2021-08-09T07:40:50Z</time>
      </trkpt>
      <trkpt lat="44.4267" lon="6.42845">
        <ele>1083</ele>
        <time>2021-08-09T07:40:51Z</time>
      </trkpt>
      <trkpt lat="44.42661" lon="6.42852">
        <ele>1084</ele>
        <time>2021-08-09T07:40:57Z</time>
      </trkpt>
      <trkpt lat="44.42658" lon="6.42854">
        <ele>1084.4</ele>
        <time>2021-08-09T07:40:59Z</time>
      </trkpt>
      <trkpt lat="44.42654" lon="6.42857">
        <ele>1085</ele>
        <time>2021-08-09T07:41:02Z</time>
      </trkpt>
      <trkpt lat="44.42647" lon="6.4286">
        <ele>1086.2</ele>
        <time>2021-08-09T07:41:06Z</time>
      </trkpt>
      <trkpt lat="44.42637" lon="6.42865">
        <ele>1087.2</ele>
        <time>2021-08-09T07:41:12Z</time>
      </trkpt>
      <trkpt lat="44.42633" lon="6.42867">
        <ele>1087.8</ele>
        <time>2021-08-09T07:41:15Z</time>
      </trkpt>
      <trkpt lat="44.4263" lon="6.42868">
        <ele>1088.2</ele>
        <time>2021-08-09T07:41:17Z</time>
      </trkpt>
      <trkpt lat="44.42623" lon="6.42873">
        <ele>1089.2</ele>
        <time>2021-08-09T07:41:21Z</time>
      </trkpt>
      <trkpt lat="44.42614" lon="6.4288">
        <ele>1090.4</ele>
        <time>2021-08-09T07:41:27Z</time>
      </trkpt>
      <trkpt lat="44.42606" lon="6.42887">
        <ele>1091.2</ele>
        <time>2021-08-09T07:41:32Z</time>
      </trkpt>
      <trkpt lat="44.42603" lon="6.42889">
        <ele>1091.6</ele>
        <time>2021-08-09T07:41:34Z</time>
      </trkpt>
      <trkpt lat="44.42592" lon="6.42899">
        <ele>1092.8</ele>
        <time>2021-08-09T07:41:41Z</time>
      </trkpt>
      <trkpt lat="44.42581" lon="6.42905">
        <ele>1093.8</ele>
        <time>2021-08-09T07:41:47Z</time>
      </trkpt>
      <trkpt lat="44.42573" lon="6.42908">
        <ele>1095</ele>
        <time>2021-08-09T07:41:52Z</time>
      </trkpt>
      <trkpt lat="44.4257" lon="6.4291">
        <ele>1095.4</ele>
        <time>2021-08-09T07:41:54Z</time>
      </trkpt>
      <trkpt lat="44.42564" lon="6.42911">
        <ele>1096</ele>
        <time>2021-08-09T07:41:57Z</time>
      </trkpt>
      <trkpt lat="44.4256" lon="6.42913">
        <ele>1096.6</ele>
        <time>2021-08-09T07:42:00Z</time>
      </trkpt>
      <trkpt lat="44.42556" lon="6.42916">
        <ele>1097.2</ele>
        <time>2021-08-09T07:42:03Z</time>
      </trkpt>
      <trkpt lat="44.4255" lon="6.4292">
        <ele>1098</ele>
        <time>2021-08-09T07:42:07Z</time>
      </trkpt>
      <trkpt lat="44.42548" lon="6.42921">
        <ele>1098.2</ele>
        <time>2021-08-09T07:42:08Z</time>
      </trkpt>
      <trkpt lat="44.42535" lon="6.42925">
        <ele>1099.2</ele>
        <time>2021-08-09T07:42:15Z</time>
      </trkpt>
      <trkpt lat="44.42533" lon="6.42926">
        <ele>1099.4</ele>
        <time>2021-08-09T07:42:16Z</time>
      </trkpt>
      <trkpt lat="44.42528" lon="6.42928">
        <ele>1100</ele>
        <time>2021-08-09T07:42:19Z</time>
      </trkpt>
      <trkpt lat="44.42525" lon="6.42931">
        <ele>1100.4</ele>
        <time>2021-08-09T07:42:21Z</time>
      </trkpt>
      <trkpt lat="44.42524" lon="6.42933">
        <ele>1100.6</ele>
        <time>2021-08-09T07:42:22Z</time>
      </trkpt>
      <trkpt lat="44.42518" lon="6.42941">
        <ele>1101.4</ele>
        <time>2021-08-09T07:42:28Z</time>
      </trkpt>
      <trkpt lat="44.42518" lon="6.42941">
        <ele>1101.6</ele>
        <time>2021-08-09T07:42:29Z</time>
      </trkpt>
      <trkpt lat="44.42517" lon="6.4294">
        <ele>1103</ele>
        <time>2021-08-09T07:46:42Z</time>
      </trkpt>
      <trkpt lat="44.42513" lon="6.42941">
        <ele>1103</ele>
        <time>2021-08-09T07:46:45Z</time>
      </trkpt>
      <trkpt lat="44.4251" lon="6.42943">
        <ele>1103</ele>
        <time>2021-08-09T07:46:47Z</time>
      </trkpt>
      <trkpt lat="44.42498" lon="6.42953">
        <ele>1103.4</ele>
        <time>2021-08-09T07:46:56Z</time>
      </trkpt>
      <trkpt lat="44.42494" lon="6.42957">
        <ele>1104</ele>
        <time>2021-08-09T07:46:59Z</time>
      </trkpt>
      <trkpt lat="44.42491" lon="6.42959">
        <ele>1104.2</ele>
        <time>2021-08-09T07:47:01Z</time>
      </trkpt>
      <trkpt lat="44.42486" lon="6.42962">
        <ele>1105</ele>
        <time>2021-08-09T07:47:05Z</time>
      </trkpt>
      <trkpt lat="44.4248" lon="6.42963">
        <ele>1106</ele>
        <time>2021-08-09T07:47:09Z</time>
      </trkpt>
      <trkpt lat="44.42479" lon="6.42963">
        <ele>1106.2</ele>
        <time>2021-08-09T07:47:10Z</time>
      </trkpt>
      <trkpt lat="44.42473" lon="6.42968">
        <ele>1107.2</ele>
        <time>2021-08-09T07:47:15Z</time>
      </trkpt>
      <trkpt lat="44.42471" lon="6.4297">
        <ele>1107.6</ele>
        <time>2021-08-09T07:47:17Z</time>
      </trkpt>
      <trkpt lat="44.42468" lon="6.42974">
        <ele>1108.4</ele>
        <time>2021-08-09T07:47:20Z</time>
      </trkpt>
      <trkpt lat="44.42463" lon="6.42979">
        <ele>1109</ele>
        <time>2021-08-09T07:47:24Z</time>
      </trkpt>
      <trkpt lat="44.4246" lon="6.42982">
        <ele>1109.4</ele>
        <time>2021-08-09T07:47:27Z</time>
      </trkpt>
      <trkpt lat="44.42456" lon="6.42986">
        <ele>1109.8</ele>
        <time>2021-08-09T07:47:30Z</time>
      </trkpt>
      <trkpt lat="44.42452" lon="6.4299">
        <ele>1110.4</ele>
        <time>2021-08-09T07:47:33Z</time>
      </trkpt>
      <trkpt lat="44.42446" lon="6.42996">
        <ele>1111</ele>
        <time>2021-08-09T07:47:38Z</time>
      </trkpt>
      <trkpt lat="44.42442" lon="6.43">
        <ele>1111.6</ele>
        <time>2021-08-09T07:47:41Z</time>
      </trkpt>
      <trkpt lat="44.42435" lon="6.43007">
        <ele>1112.2</ele>
        <time>2021-08-09T07:47:46Z</time>
      </trkpt>
      <trkpt lat="44.42432" lon="6.43009">
        <ele>1112.6</ele>
        <time>2021-08-09T07:47:48Z</time>
      </trkpt>
      <trkpt lat="44.42426" lon="6.43019">
        <ele>1113.6</ele>
        <time>2021-08-09T07:47:54Z</time>
      </trkpt>
      <trkpt lat="44.42424" lon="6.43021">
        <ele>1113.6</ele>
        <time>2021-08-09T07:47:55Z</time>
      </trkpt>
      <trkpt lat="44.42416" lon="6.43032">
        <ele>1114.6</ele>
        <time>2021-08-09T07:48:02Z</time>
      </trkpt>
      <trkpt lat="44.42413" lon="6.43035">
        <ele>1114.8</ele>
        <time>2021-08-09T07:48:04Z</time>
      </trkpt>
      <trkpt lat="44.42406" lon="6.43045">
        <ele>1116</ele>
        <time>2021-08-09T07:48:10Z</time>
      </trkpt>
      <trkpt lat="44.42405" lon="6.43046">
        <ele>1116.2</ele>
        <time>2021-08-09T07:48:11Z</time>
      </trkpt>
      <trkpt lat="44.42398" lon="6.43052">
        <ele>1117</ele>
        <time>2021-08-09T07:48:16Z</time>
      </trkpt>
      <trkpt lat="44.4239" lon="6.43055">
        <ele>1118</ele>
        <time>2021-08-09T07:48:21Z</time>
      </trkpt>
      <trkpt lat="44.42389" lon="6.43055">
        <ele>1118.2</ele>
        <time>2021-08-09T07:48:22Z</time>
      </trkpt>
      <trkpt lat="44.42381" lon="6.43057">
        <ele>1119.2</ele>
        <time>2021-08-09T07:48:27Z</time>
      </trkpt>
      <trkpt lat="44.42375" lon="6.4306">
        <ele>1120</ele>
        <time>2021-08-09T07:48:31Z</time>
      </trkpt>
      <trkpt lat="44.42372" lon="6.43061">
        <ele>1120.4</ele>
        <time>2021-08-09T07:48:33Z</time>
      </trkpt>
      <trkpt lat="44.42366" lon="6.43064">
        <ele>1121</ele>
        <time>2021-08-09T07:48:37Z</time>
      </trkpt>
      <trkpt lat="44.4236" lon="6.43069">
        <ele>1121.6</ele>
        <time>2021-08-09T07:48:42Z</time>
      </trkpt>
      <trkpt lat="44.42358" lon="6.43073">
        <ele>1122.2</ele>
        <time>2021-08-09T07:48:45Z</time>
      </trkpt>
      <trkpt lat="44.42356" lon="6.43076">
        <ele>1122.6</ele>
        <time>2021-08-09T07:48:47Z</time>
      </trkpt>
      <trkpt lat="44.42352" lon="6.43086">
        <ele>1123.8</ele>
        <time>2021-08-09T07:48:52Z</time>
      </trkpt>
      <trkpt lat="44.4235" lon="6.43091">
        <ele>1124.6</ele>
        <time>2021-08-09T07:48:55Z</time>
      </trkpt>
      <trkpt lat="44.42349" lon="6.43093">
        <ele>1124.8</ele>
        <time>2021-08-09T07:48:56Z</time>
      </trkpt>
      <trkpt lat="44.42347" lon="6.43096">
        <ele>1125.2</ele>
        <time>2021-08-09T07:48:58Z</time>
      </trkpt>
      <trkpt lat="44.42342" lon="6.43098">
        <ele>1126</ele>
        <time>2021-08-09T07:49:01Z</time>
      </trkpt>
      <trkpt lat="44.42335" lon="6.43107">
        <ele>1127.2</ele>
        <time>2021-08-09T07:49:07Z</time>
      </trkpt>
      <trkpt lat="44.42333" lon="6.43109">
        <ele>1127.2</ele>
        <time>2021-08-09T07:49:09Z</time>
      </trkpt>
      <trkpt lat="44.42327" lon="6.43117">
        <ele>1128.2</ele>
        <time>2021-08-09T07:49:14Z</time>
      </trkpt>
      <trkpt lat="44.42325" lon="6.4312">
        <ele>1128.6</ele>
        <time>2021-08-09T07:49:16Z</time>
      </trkpt>
      <trkpt lat="44.42322" lon="6.43125">
        <ele>1129.2</ele>
        <time>2021-08-09T07:49:19Z</time>
      </trkpt>
      <trkpt lat="44.42316" lon="6.43135">
        <ele>1130.2</ele>
        <time>2021-08-09T07:49:25Z</time>
      </trkpt>
      <trkpt lat="44.42315" lon="6.43137">
        <ele>1130.4</ele>
        <time>2021-08-09T07:49:26Z</time>
      </trkpt>
      <trkpt lat="44.42305" lon="6.43148">
        <ele>1131.6</ele>
        <time>2021-08-09T07:49:34Z</time>
      </trkpt>
      <trkpt lat="44.42295" lon="6.43161">
        <ele>1132.6</ele>
        <time>2021-08-09T07:49:43Z</time>
      </trkpt>
      <trkpt lat="44.42288" lon="6.43167">
        <ele>1133.8</ele>
        <time>2021-08-09T07:49:48Z</time>
      </trkpt>
      <trkpt lat="44.4228" lon="6.43173">
        <ele>1135</ele>
        <time>2021-08-09T07:49:54Z</time>
      </trkpt>
      <trkpt lat="44.4227" lon="6.43181">
        <ele>1135.8</ele>
        <time>2021-08-09T07:50:02Z</time>
      </trkpt>
      <trkpt lat="44.42263" lon="6.43187">
        <ele>1137</ele>
        <time>2021-08-09T07:50:08Z</time>
      </trkpt>
      <trkpt lat="44.4226" lon="6.4319">
        <ele>1137.8</ele>
        <time>2021-08-09T07:50:11Z</time>
      </trkpt>
      <trkpt lat="44.42258" lon="6.43192">
        <ele>1138.2</ele>
        <time>2021-08-09T07:50:13Z</time>
      </trkpt>
      <trkpt lat="44.42252" lon="6.43198">
        <ele>1139.2</ele>
        <time>2021-08-09T07:50:19Z</time>
      </trkpt>
      <trkpt lat="44.42247" lon="6.43205">
        <ele>1140.2</ele>
        <time>2021-08-09T07:50:24Z</time>
      </trkpt>
      <trkpt lat="44.42243" lon="6.4321">
        <ele>1140.6</ele>
        <time>2021-08-09T07:50:27Z</time>
      </trkpt>
      <trkpt lat="44.42238" lon="6.43217">
        <ele>1141.4</ele>
        <time>2021-08-09T07:50:31Z</time>
      </trkpt>
      <trkpt lat="44.42235" lon="6.43223">
        <ele>1141.8</ele>
        <time>2021-08-09T07:50:34Z</time>
      </trkpt>
      <trkpt lat="44.42231" lon="6.43227">
        <ele>1142.2</ele>
        <time>2021-08-09T07:50:37Z</time>
      </trkpt>
      <trkpt lat="44.42226" lon="6.43235">
        <ele>1143.4</ele>
        <time>2021-08-09T07:50:42Z</time>
      </trkpt>
      <trkpt lat="44.42225" lon="6.43237">
        <ele>1143.6</ele>
        <time>2021-08-09T07:50:43Z</time>
      </trkpt>
      <trkpt lat="44.42218" lon="6.43246">
        <ele>1144.6</ele>
        <time>2021-08-09T07:50:49Z</time>
      </trkpt>
      <trkpt lat="44.42212" lon="6.43254">
        <ele>1145.4</ele>
        <time>2021-08-09T07:50:54Z</time>
      </trkpt>
      <trkpt lat="44.42211" lon="6.43256">
        <ele>1145.6</ele>
        <time>2021-08-09T07:50:55Z</time>
      </trkpt>
      <trkpt lat="44.42203" lon="6.43268">
        <ele>1146.8</ele>
        <time>2021-08-09T07:51:02Z</time>
      </trkpt>
      <trkpt lat="44.42199" lon="6.43278">
        <ele>1147.8</ele>
        <time>2021-08-09T07:51:08Z</time>
      </trkpt>
      <trkpt lat="44.42197" lon="6.43281">
        <ele>1148.2</ele>
        <time>2021-08-09T07:51:10Z</time>
      </trkpt>
      <trkpt lat="44.42194" lon="6.43288">
        <ele>1148.8</ele>
        <time>2021-08-09T07:51:14Z</time>
      </trkpt>
      <trkpt lat="44.42191" lon="6.43292">
        <ele>1149.2</ele>
        <time>2021-08-09T07:51:17Z</time>
      </trkpt>
      <trkpt lat="44.42183" lon="6.43302">
        <ele>1150</ele>
        <time>2021-08-09T07:51:24Z</time>
      </trkpt>
      <trkpt lat="44.42183" lon="6.43303">
        <ele>1150.2</ele>
        <time>2021-08-09T07:51:25Z</time>
      </trkpt>
      <trkpt lat="44.42179" lon="6.43306">
        <ele>1150.8</ele>
        <time>2021-08-09T07:51:28Z</time>
      </trkpt>
      <trkpt lat="44.42177" lon="6.43309">
        <ele>1151.2</ele>
        <time>2021-08-09T07:51:30Z</time>
      </trkpt>
      <trkpt lat="44.42173" lon="6.43314">
        <ele>1151.6</ele>
        <time>2021-08-09T07:51:33Z</time>
      </trkpt>
      <trkpt lat="44.42167" lon="6.43321">
        <ele>1152.2</ele>
        <time>2021-08-09T07:51:38Z</time>
      </trkpt>
      <trkpt lat="44.42163" lon="6.43325">
        <ele>1152.4</ele>
        <time>2021-08-09T07:51:41Z</time>
      </trkpt>
      <trkpt lat="44.42158" lon="6.43334">
        <ele>1153.4</ele>
        <time>2021-08-09T07:51:46Z</time>
      </trkpt>
      <trkpt lat="44.42155" lon="6.43341">
        <ele>1153.8</ele>
        <time>2021-08-09T07:51:50Z</time>
      </trkpt>
      <trkpt lat="44.4215" lon="6.43351">
        <ele>1154.6</ele>
        <time>2021-08-09T07:51:55Z</time>
      </trkpt>
      <trkpt lat="44.42148" lon="6.43355">
        <ele>1155</ele>
        <time>2021-08-09T07:51:57Z</time>
      </trkpt>
      <trkpt lat="44.42147" lon="6.43358">
        <ele>1155.6</ele>
        <time>2021-08-09T07:51:59Z</time>
      </trkpt>
      <trkpt lat="44.42139" lon="6.43366">
        <ele>1156.8</ele>
        <time>2021-08-09T07:52:05Z</time>
      </trkpt>
      <trkpt lat="44.42136" lon="6.43367">
        <ele>1157</ele>
        <time>2021-08-09T07:52:07Z</time>
      </trkpt>
      <trkpt lat="44.42134" lon="6.43368">
        <ele>1157.6</ele>
        <time>2021-08-09T07:52:08Z</time>
      </trkpt>
      <trkpt lat="44.42131" lon="6.43369">
        <ele>1157.8</ele>
        <time>2021-08-09T07:52:10Z</time>
      </trkpt>
      <trkpt lat="44.42128" lon="6.4337">
        <ele>1158.2</ele>
        <time>2021-08-09T07:52:12Z</time>
      </trkpt>
      <trkpt lat="44.42122" lon="6.43372">
        <ele>1159</ele>
        <time>2021-08-09T07:52:16Z</time>
      </trkpt>
      <trkpt lat="44.42118" lon="6.43375">
        <ele>1159.4</ele>
        <time>2021-08-09T07:52:19Z</time>
      </trkpt>
      <trkpt lat="44.42115" lon="6.43377">
        <ele>1160</ele>
        <time>2021-08-09T07:52:21Z</time>
      </trkpt>
      <trkpt lat="44.42106" lon="6.43383">
        <ele>1161.2</ele>
        <time>2021-08-09T07:52:27Z</time>
      </trkpt>
      <trkpt lat="44.42104" lon="6.43385">
        <ele>1161.4</ele>
        <time>2021-08-09T07:52:29Z</time>
      </trkpt>
      <trkpt lat="44.42095" lon="6.43391">
        <ele>1162</ele>
        <time>2021-08-09T07:52:35Z</time>
      </trkpt>
      <trkpt lat="44.42093" lon="6.43393">
        <ele>1162.4</ele>
        <time>2021-08-09T07:52:37Z</time>
      </trkpt>
      <trkpt lat="44.42084" lon="6.43401">
        <ele>1163.4</ele>
        <time>2021-08-09T07:52:44Z</time>
      </trkpt>
      <trkpt lat="44.42083" lon="6.43402">
        <ele>1163.6</ele>
        <time>2021-08-09T07:52:45Z</time>
      </trkpt>
      <trkpt lat="44.42074" lon="6.43413">
        <ele>1164.4</ele>
        <time>2021-08-09T07:52:52Z</time>
      </trkpt>
      <trkpt lat="44.42071" lon="6.43416">
        <ele>1164.6</ele>
        <time>2021-08-09T07:52:54Z</time>
      </trkpt>
      <trkpt lat="44.42065" lon="6.43423">
        <ele>1165.6</ele>
        <time>2021-08-09T07:52:59Z</time>
      </trkpt>
      <trkpt lat="44.42061" lon="6.43426">
        <ele>1166.2</ele>
        <time>2021-08-09T07:53:02Z</time>
      </trkpt>
      <trkpt lat="44.42057" lon="6.4343">
        <ele>1166.8</ele>
        <time>2021-08-09T07:53:05Z</time>
      </trkpt>
      <trkpt lat="44.4205" lon="6.43437">
        <ele>1167.8</ele>
        <time>2021-08-09T07:53:11Z</time>
      </trkpt>
      <trkpt lat="44.42049" lon="6.43438">
        <ele>1168.2</ele>
        <time>2021-08-09T07:53:12Z</time>
      </trkpt>
      <trkpt lat="44.42043" lon="6.43442">
        <ele>1169.4</ele>
        <time>2021-08-09T07:53:16Z</time>
      </trkpt>
      <trkpt lat="44.42038" lon="6.43445">
        <ele>1170</ele>
        <time>2021-08-09T07:53:19Z</time>
      </trkpt>
      <trkpt lat="44.42034" lon="6.43448">
        <ele>1170.6</ele>
        <time>2021-08-09T07:53:22Z</time>
      </trkpt>
      <trkpt lat="44.42024" lon="6.43455">
        <ele>1171.6</ele>
        <time>2021-08-09T07:53:29Z</time>
      </trkpt>
      <trkpt lat="44.42016" lon="6.43463">
        <ele>1172.4</ele>
        <time>2021-08-09T07:53:35Z</time>
      </trkpt>
      <trkpt lat="44.42012" lon="6.43467">
        <ele>1172.6</ele>
        <time>2021-08-09T07:53:38Z</time>
      </trkpt>
      <trkpt lat="44.42004" lon="6.43474">
        <ele>1173.6</ele>
        <time>2021-08-09T07:53:44Z</time>
      </trkpt>
      <trkpt lat="44.42003" lon="6.43476">
        <ele>1173.8</ele>
        <time>2021-08-09T07:53:45Z</time>
      </trkpt>
      <trkpt lat="44.41992" lon="6.43486">
        <ele>1174.6</ele>
        <time>2021-08-09T07:53:53Z</time>
      </trkpt>
      <trkpt lat="44.41991" lon="6.43488">
        <ele>1174.8</ele>
        <time>2021-08-09T07:53:54Z</time>
      </trkpt>
      <trkpt lat="44.41985" lon="6.43493">
        <ele>1175.8</ele>
        <time>2021-08-09T07:53:59Z</time>
      </trkpt>
      <trkpt lat="44.41983" lon="6.43495">
        <ele>1176.4</ele>
        <time>2021-08-09T07:54:01Z</time>
      </trkpt>
      <trkpt lat="44.4198" lon="6.43497">
        <ele>1176.8</ele>
        <time>2021-08-09T07:54:03Z</time>
      </trkpt>
      <trkpt lat="44.41974" lon="6.43503">
        <ele>1178</ele>
        <time>2021-08-09T07:54:08Z</time>
      </trkpt>
      <trkpt lat="44.41968" lon="6.43513">
        <ele>1179</ele>
        <time>2021-08-09T07:54:14Z</time>
      </trkpt>
      <trkpt lat="44.41967" lon="6.43515">
        <ele>1179.2</ele>
        <time>2021-08-09T07:54:15Z</time>
      </trkpt>
      <trkpt lat="44.41964" lon="6.43526">
        <ele>1180</ele>
        <time>2021-08-09T07:54:21Z</time>
      </trkpt>
      <trkpt lat="44.41963" lon="6.43527">
        <ele>1180.2</ele>
        <time>2021-08-09T07:54:22Z</time>
      </trkpt>
      <trkpt lat="44.41958" lon="6.43539">
        <ele>1181.2</ele>
        <time>2021-08-09T07:54:28Z</time>
      </trkpt>
      <trkpt lat="44.41958" lon="6.43541">
        <ele>1181.2</ele>
        <time>2021-08-09T07:54:29Z</time>
      </trkpt>
      <trkpt lat="44.41955" lon="6.43547">
        <ele>1181.6</ele>
        <time>2021-08-09T07:54:32Z</time>
      </trkpt>
      <trkpt lat="44.41955" lon="6.43554">
        <ele>1182.2</ele>
        <time>2021-08-09T07:54:35Z</time>
      </trkpt>
      <trkpt lat="44.41954" lon="6.43556">
        <ele>1182.2</ele>
        <time>2021-08-09T07:54:36Z</time>
      </trkpt>
      <trkpt lat="44.41951" lon="6.43576">
        <ele>1183.4</ele>
        <time>2021-08-09T07:54:44Z</time>
      </trkpt>
      <trkpt lat="44.41946" lon="6.43593">
        <ele>1184.4</ele>
        <time>2021-08-09T07:54:52Z</time>
      </trkpt>
      <trkpt lat="44.41945" lon="6.43595">
        <ele>1184.4</ele>
        <time>2021-08-09T07:54:53Z</time>
      </trkpt>
      <trkpt lat="44.41943" lon="6.43604">
        <ele>1185.2</ele>
        <time>2021-08-09T07:54:58Z</time>
      </trkpt>
      <trkpt lat="44.41942" lon="6.43606">
        <ele>1185.6</ele>
        <time>2021-08-09T07:55:00Z</time>
      </trkpt>
      <trkpt lat="44.4194" lon="6.43612">
        <ele>1186.2</ele>
        <time>2021-08-09T07:55:04Z</time>
      </trkpt>
      <trkpt lat="44.41939" lon="6.43616">
        <ele>1186.6</ele>
        <time>2021-08-09T07:55:06Z</time>
      </trkpt>
      <trkpt lat="44.41935" lon="6.43622">
        <ele>1187.2</ele>
        <time>2021-08-09T07:55:10Z</time>
      </trkpt>
      <trkpt lat="44.41935" lon="6.43624">
        <ele>1187.4</ele>
        <time>2021-08-09T07:55:11Z</time>
      </trkpt>
      <trkpt lat="44.41933" lon="6.43628">
        <ele>1187.6</ele>
        <time>2021-08-09T07:55:13Z</time>
      </trkpt>
      <trkpt lat="44.41931" lon="6.43634">
        <ele>1188.2</ele>
        <time>2021-08-09T07:55:16Z</time>
      </trkpt>
      <trkpt lat="44.4193" lon="6.43636">
        <ele>1188.2</ele>
        <time>2021-08-09T07:55:17Z</time>
      </trkpt>
      <trkpt lat="44.41927" lon="6.43641">
        <ele>1188.8</ele>
        <time>2021-08-09T07:55:20Z</time>
      </trkpt>
      <trkpt lat="44.41925" lon="6.43647">
        <ele>1189.2</ele>
        <time>2021-08-09T07:55:23Z</time>
      </trkpt>
      <trkpt lat="44.41924" lon="6.43649">
        <ele>1189.4</ele>
        <time>2021-08-09T07:55:24Z</time>
      </trkpt>
      <trkpt lat="44.41921" lon="6.43656">
        <ele>1190</ele>
        <time>2021-08-09T07:55:28Z</time>
      </trkpt>
      <trkpt lat="44.41918" lon="6.43663">
        <ele>1190.6</ele>
        <time>2021-08-09T07:55:32Z</time>
      </trkpt>
      <trkpt lat="44.41917" lon="6.43668">
        <ele>1191</ele>
        <time>2021-08-09T07:55:34Z</time>
      </trkpt>
      <trkpt lat="44.41915" lon="6.43679">
        <ele>1191.8</ele>
        <time>2021-08-09T07:55:39Z</time>
      </trkpt>
      <trkpt lat="44.41915" lon="6.43682">
        <ele>1192</ele>
        <time>2021-08-09T07:55:40Z</time>
      </trkpt>
      <trkpt lat="44.41916" lon="6.43684">
        <ele>1192.2</ele>
        <time>2021-08-09T07:55:41Z</time>
      </trkpt>
      <trkpt lat="44.41917" lon="6.43691">
        <ele>1192.8</ele>
        <time>2021-08-09T07:55:45Z</time>
      </trkpt>
      <trkpt lat="44.41918" lon="6.43693">
        <ele>1193</ele>
        <time>2021-08-09T07:55:46Z</time>
      </trkpt>
      <trkpt lat="44.41918" lon="6.43698">
        <ele>1193.2</ele>
        <time>2021-08-09T07:55:48Z</time>
      </trkpt>
      <trkpt lat="44.41921" lon="6.43707">
        <ele>1194</ele>
        <time>2021-08-09T07:55:52Z</time>
      </trkpt>
      <trkpt lat="44.41923" lon="6.43714">
        <ele>1194.4</ele>
        <time>2021-08-09T07:55:55Z</time>
      </trkpt>
      <trkpt lat="44.41927" lon="6.43727">
        <ele>1195.6</ele>
        <time>2021-08-09T07:56:01Z</time>
      </trkpt>
      <trkpt lat="44.41931" lon="6.43744">
        <ele>1196.6</ele>
        <time>2021-08-09T07:56:09Z</time>
      </trkpt>
      <trkpt lat="44.41931" lon="6.43747">
        <ele>1196.8</ele>
        <time>2021-08-09T07:56:10Z</time>
      </trkpt>
      <trkpt lat="44.4193" lon="6.43758">
        <ele>1197.8</ele>
        <time>2021-08-09T07:56:15Z</time>
      </trkpt>
      <trkpt lat="44.41927" lon="6.43764">
        <ele>1198.2</ele>
        <time>2021-08-09T07:56:18Z</time>
      </trkpt>
      <trkpt lat="44.41923" lon="6.4377">
        <ele>1198.8</ele>
        <time>2021-08-09T07:56:22Z</time>
      </trkpt>
      <trkpt lat="44.41919" lon="6.43776">
        <ele>1199.6</ele>
        <time>2021-08-09T07:56:26Z</time>
      </trkpt>
      <trkpt lat="44.41916" lon="6.43778">
        <ele>1200</ele>
        <time>2021-08-09T07:56:28Z</time>
      </trkpt>
      <trkpt lat="44.41914" lon="6.4378">
        <ele>1200.4</ele>
        <time>2021-08-09T07:56:30Z</time>
      </trkpt>
      <trkpt lat="44.41911" lon="6.43782">
        <ele>1200.8</ele>
        <time>2021-08-09T07:56:32Z</time>
      </trkpt>
      <trkpt lat="44.41908" lon="6.43784">
        <ele>1201</ele>
        <time>2021-08-09T07:56:34Z</time>
      </trkpt>
      <trkpt lat="44.41902" lon="6.43786">
        <ele>1202</ele>
        <time>2021-08-09T07:56:38Z</time>
      </trkpt>
      <trkpt lat="44.41901" lon="6.43786">
        <ele>1202.2</ele>
        <time>2021-08-09T07:56:39Z</time>
      </trkpt>
      <trkpt lat="44.41899" lon="6.43787">
        <ele>1202.2</ele>
        <time>2021-08-09T07:56:40Z</time>
      </trkpt>
      <trkpt lat="44.41892" lon="6.43789">
        <ele>1202.8</ele>
        <time>2021-08-09T07:56:45Z</time>
      </trkpt>
      <trkpt lat="44.41886" lon="6.43791">
        <ele>1203.4</ele>
        <time>2021-08-09T07:56:49Z</time>
      </trkpt>
      <trkpt lat="44.41881" lon="6.43792">
        <ele>1203.8</ele>
        <time>2021-08-09T07:56:52Z</time>
      </trkpt>
      <trkpt lat="44.41873" lon="6.43793">
        <ele>1204.6</ele>
        <time>2021-08-09T07:56:57Z</time>
      </trkpt>
      <trkpt lat="44.41866" lon="6.43793">
        <ele>1205.2</ele>
        <time>2021-08-09T07:57:02Z</time>
      </trkpt>
      <trkpt lat="44.41861" lon="6.43795">
        <ele>1205.6</ele>
        <time>2021-08-09T07:57:05Z</time>
      </trkpt>
      <trkpt lat="44.41853" lon="6.43796">
        <ele>1206.2</ele>
        <time>2021-08-09T07:57:10Z</time>
      </trkpt>
      <trkpt lat="44.4184" lon="6.43795">
        <ele>1207</ele>
        <time>2021-08-09T07:57:18Z</time>
      </trkpt>
      <trkpt lat="44.41835" lon="6.43795">
        <ele>1207.2</ele>
        <time>2021-08-09T07:57:21Z</time>
      </trkpt>
      <trkpt lat="44.41824" lon="6.43797">
        <ele>1208</ele>
        <time>2021-08-09T07:57:28Z</time>
      </trkpt>
      <trkpt lat="44.4182" lon="6.43797">
        <ele>1208.4</ele>
        <time>2021-08-09T07:57:30Z</time>
      </trkpt>
      <trkpt lat="44.41815" lon="6.43798">
        <ele>1209</ele>
        <time>2021-08-09T07:57:33Z</time>
      </trkpt>
      <trkpt lat="44.41811" lon="6.43799">
        <ele>1209.4</ele>
        <time>2021-08-09T07:57:36Z</time>
      </trkpt>
      <trkpt lat="44.41804" lon="6.43799">
        <ele>1210.2</ele>
        <time>2021-08-09T07:57:40Z</time>
      </trkpt>
      <trkpt lat="44.41793" lon="6.438">
        <ele>1211.2</ele>
        <time>2021-08-09T07:57:47Z</time>
      </trkpt>
      <trkpt lat="44.41791" lon="6.438">
        <ele>1211.2</ele>
        <time>2021-08-09T07:57:48Z</time>
      </trkpt>
      <trkpt lat="44.41778" lon="6.438">
        <ele>1212</ele>
        <time>2021-08-09T07:57:54Z</time>
      </trkpt>
      <trkpt lat="44.41774" lon="6.438">
        <ele>1212.4</ele>
        <time>2021-08-09T07:57:56Z</time>
      </trkpt>
      <trkpt lat="44.4176" lon="6.438">
        <ele>1213.4</ele>
        <time>2021-08-09T07:58:03Z</time>
      </trkpt>
      <trkpt lat="44.4175" lon="6.43798">
        <ele>1214.6</ele>
        <time>2021-08-09T07:58:08Z</time>
      </trkpt>
      <trkpt lat="44.41745" lon="6.43796">
        <ele>1215.6</ele>
        <time>2021-08-09T07:58:11Z</time>
      </trkpt>
      <trkpt lat="44.41743" lon="6.43795">
        <ele>1215.8</ele>
        <time>2021-08-09T07:58:12Z</time>
      </trkpt>
      <trkpt lat="44.41734" lon="6.43791">
        <ele>1216.8</ele>
        <time>2021-08-09T07:58:18Z</time>
      </trkpt>
      <trkpt lat="44.41727" lon="6.43786">
        <ele>1217.6</ele>
        <time>2021-08-09T07:58:22Z</time>
      </trkpt>
      <trkpt lat="44.41722" lon="6.43784">
        <ele>1218.2</ele>
        <time>2021-08-09T07:58:25Z</time>
      </trkpt>
      <trkpt lat="44.41713" lon="6.43778">
        <ele>1218.8</ele>
        <time>2021-08-09T07:58:31Z</time>
      </trkpt>
      <trkpt lat="44.4171" lon="6.43776">
        <ele>1219.2</ele>
        <time>2021-08-09T07:58:33Z</time>
      </trkpt>
      <trkpt lat="44.41699" lon="6.43768">
        <ele>1220.4</ele>
        <time>2021-08-09T07:58:40Z</time>
      </trkpt>
      <trkpt lat="44.4169" lon="6.43762">
        <ele>1221.4</ele>
        <time>2021-08-09T07:58:46Z</time>
      </trkpt>
      <trkpt lat="44.41688" lon="6.43761">
        <ele>1221.4</ele>
        <time>2021-08-09T07:58:47Z</time>
      </trkpt>
      <trkpt lat="44.41681" lon="6.43755">
        <ele>1222.2</ele>
        <time>2021-08-09T07:58:52Z</time>
      </trkpt>
      <trkpt lat="44.41677" lon="6.43754">
        <ele>1222.6</ele>
        <time>2021-08-09T07:58:54Z</time>
      </trkpt>
      <trkpt lat="44.41676" lon="6.43753">
        <ele>1222.8</ele>
        <time>2021-08-09T07:58:55Z</time>
      </trkpt>
      <trkpt lat="44.41665" lon="6.43751">
        <ele>1223.6</ele>
        <time>2021-08-09T07:59:02Z</time>
      </trkpt>
      <trkpt lat="44.41663" lon="6.43751">
        <ele>1223.8</ele>
        <time>2021-08-09T07:59:03Z</time>
      </trkpt>
      <trkpt lat="44.41662" lon="6.43751">
        <ele>1224</ele>
        <time>2021-08-09T07:59:04Z</time>
      </trkpt>
      <trkpt lat="44.41656" lon="6.4375">
        <ele>1224.8</ele>
        <time>2021-08-09T07:59:08Z</time>
      </trkpt>
      <trkpt lat="44.41653" lon="6.4375">
        <ele>1225.2</ele>
        <time>2021-08-09T07:59:10Z</time>
      </trkpt>
      <trkpt lat="44.41648" lon="6.43749">
        <ele>1225.8</ele>
        <time>2021-08-09T07:59:13Z</time>
      </trkpt>
      <trkpt lat="44.41644" lon="6.43748">
        <ele>1226.4</ele>
        <time>2021-08-09T07:59:16Z</time>
      </trkpt>
      <trkpt lat="44.41639" lon="6.43745">
        <ele>1227</ele>
        <time>2021-08-09T07:59:19Z</time>
      </trkpt>
      <trkpt lat="44.41633" lon="6.43742">
        <ele>1227.6</ele>
        <time>2021-08-09T07:59:23Z</time>
      </trkpt>
      <trkpt lat="44.41627" lon="6.43739">
        <ele>1228</ele>
        <time>2021-08-09T07:59:27Z</time>
      </trkpt>
      <trkpt lat="44.4162" lon="6.43735">
        <ele>1228.6</ele>
        <time>2021-08-09T07:59:32Z</time>
      </trkpt>
      <trkpt lat="44.41617" lon="6.43733">
        <ele>1229</ele>
        <time>2021-08-09T07:59:34Z</time>
      </trkpt>
      <trkpt lat="44.41608" lon="6.43725">
        <ele>1229.8</ele>
        <time>2021-08-09T07:59:40Z</time>
      </trkpt>
      <trkpt lat="44.41603" lon="6.4372">
        <ele>1230.2</ele>
        <time>2021-08-09T07:59:43Z</time>
      </trkpt>
      <trkpt lat="44.41598" lon="6.43713">
        <ele>1230.6</ele>
        <time>2021-08-09T07:59:47Z</time>
      </trkpt>
      <trkpt lat="44.41591" lon="6.43707">
        <ele>1231.2</ele>
        <time>2021-08-09T07:59:51Z</time>
      </trkpt>
      <trkpt lat="44.41585" lon="6.43702">
        <ele>1232</ele>
        <time>2021-08-09T07:59:55Z</time>
      </trkpt>
      <trkpt lat="44.41581" lon="6.437">
        <ele>1232.4</ele>
        <time>2021-08-09T07:59:57Z</time>
      </trkpt>
      <trkpt lat="44.41572" lon="6.43692">
        <ele>1233.2</ele>
        <time>2021-08-09T08:00:03Z</time>
      </trkpt>
      <trkpt lat="44.41569" lon="6.43688">
        <ele>1233.4</ele>
        <time>2021-08-09T08:00:05Z</time>
      </trkpt>
      <trkpt lat="44.41568" lon="6.4368">
        <ele>1233.6</ele>
        <time>2021-08-09T08:00:09Z</time>
      </trkpt>
      <trkpt lat="44.41575" lon="6.43678">
        <ele>1234.2</ele>
        <time>2021-08-09T08:00:13Z</time>
      </trkpt>
      <trkpt lat="44.41576" lon="6.43678">
        <ele>1234.4</ele>
        <time>2021-08-09T08:00:14Z</time>
      </trkpt>
      <trkpt lat="44.41581" lon="6.43677">
        <ele>1235.8</ele>
        <time>2021-08-09T08:00:17Z</time>
      </trkpt>
      <trkpt lat="44.41589" lon="6.43675">
        <ele>1236.6</ele>
        <time>2021-08-09T08:00:22Z</time>
      </trkpt>
      <trkpt lat="44.41594" lon="6.43674">
        <ele>1237</ele>
        <time>2021-08-09T08:00:25Z</time>
      </trkpt>
      <trkpt lat="44.41602" lon="6.43672">
        <ele>1238</ele>
        <time>2021-08-09T08:00:30Z</time>
      </trkpt>
      <trkpt lat="44.41604" lon="6.43671">
        <ele>1238.2</ele>
        <time>2021-08-09T08:00:31Z</time>
      </trkpt>
      <trkpt lat="44.41613" lon="6.43668">
        <ele>1239.2</ele>
        <time>2021-08-09T08:00:37Z</time>
      </trkpt>
      <trkpt lat="44.41615" lon="6.43668">
        <ele>1239.4</ele>
        <time>2021-08-09T08:00:38Z</time>
      </trkpt>
      <trkpt lat="44.41621" lon="6.43666">
        <ele>1240.4</ele>
        <time>2021-08-09T08:00:42Z</time>
      </trkpt>
      <trkpt lat="44.41629" lon="6.43663">
        <ele>1241.4</ele>
        <time>2021-08-09T08:00:47Z</time>
      </trkpt>
      <trkpt lat="44.4164" lon="6.43658">
        <ele>1242.6</ele>
        <time>2021-08-09T08:00:54Z</time>
      </trkpt>
      <trkpt lat="44.41644" lon="6.43656">
        <ele>1243</ele>
        <time>2021-08-09T08:00:57Z</time>
      </trkpt>
      <trkpt lat="44.4165" lon="6.43653">
        <ele>1243.6</ele>
        <time>2021-08-09T08:01:01Z</time>
      </trkpt>
      <trkpt lat="44.41659" lon="6.43649">
        <ele>1244.6</ele>
        <time>2021-08-09T08:01:07Z</time>
      </trkpt>
      <trkpt lat="44.41669" lon="6.43642">
        <ele>1246</ele>
        <time>2021-08-09T08:01:14Z</time>
      </trkpt>
      <trkpt lat="44.41676" lon="6.43636">
        <ele>1247.2</ele>
        <time>2021-08-09T08:01:19Z</time>
      </trkpt>
      <trkpt lat="44.4168" lon="6.43632">
        <ele>1248</ele>
        <time>2021-08-09T08:01:22Z</time>
      </trkpt>
      <trkpt lat="44.41681" lon="6.4363">
        <ele>1248.2</ele>
        <time>2021-08-09T08:01:23Z</time>
      </trkpt>
      <trkpt lat="44.41689" lon="6.43623">
        <ele>1249</ele>
        <time>2021-08-09T08:01:29Z</time>
      </trkpt>
      <trkpt lat="44.41692" lon="6.43621">
        <ele>1249.4</ele>
        <time>2021-08-09T08:01:31Z</time>
      </trkpt>
      <trkpt lat="44.41699" lon="6.43616">
        <ele>1250.4</ele>
        <time>2021-08-09T08:01:36Z</time>
      </trkpt>
      <trkpt lat="44.417" lon="6.43615">
        <ele>1250.4</ele>
        <time>2021-08-09T08:01:37Z</time>
      </trkpt>
      <trkpt lat="44.41706" lon="6.43608">
        <ele>1251.4</ele>
        <time>2021-08-09T08:01:42Z</time>
      </trkpt>
      <trkpt lat="44.41708" lon="6.43606">
        <ele>1252</ele>
        <time>2021-08-09T08:01:44Z</time>
      </trkpt>
      <trkpt lat="44.41713" lon="6.43602">
        <ele>1252.4</ele>
        <time>2021-08-09T08:01:47Z</time>
      </trkpt>
      <trkpt lat="44.41721" lon="6.43594">
        <ele>1253.2</ele>
        <time>2021-08-09T08:01:52Z</time>
      </trkpt>
      <trkpt lat="44.41724" lon="6.43592">
        <ele>1253.4</ele>
        <time>2021-08-09T08:01:54Z</time>
      </trkpt>
      <trkpt lat="44.41733" lon="6.43585">
        <ele>1254</ele>
        <time>2021-08-09T08:02:00Z</time>
      </trkpt>
      <trkpt lat="44.41736" lon="6.43582">
        <ele>1254.6</ele>
        <time>2021-08-09T08:02:02Z</time>
      </trkpt>
      <trkpt lat="44.41744" lon="6.43573">
        <ele>1255.4</ele>
        <time>2021-08-09T08:02:08Z</time>
      </trkpt>
      <trkpt lat="44.41746" lon="6.4357">
        <ele>1255.6</ele>
        <time>2021-08-09T08:02:10Z</time>
      </trkpt>
      <trkpt lat="44.41751" lon="6.43558">
        <ele>1256</ele>
        <time>2021-08-09T08:02:16Z</time>
      </trkpt>
      <trkpt lat="44.41753" lon="6.43552">
        <ele>1256.6</ele>
        <time>2021-08-09T08:02:20Z</time>
      </trkpt>
      <trkpt lat="44.41754" lon="6.43548">
        <ele>1257.2</ele>
        <time>2021-08-09T08:02:23Z</time>
      </trkpt>
      <trkpt lat="44.41761" lon="6.4354">
        <ele>1257.8</ele>
        <time>2021-08-09T08:02:28Z</time>
      </trkpt>
      <trkpt lat="44.41764" lon="6.43534">
        <ele>1258</ele>
        <time>2021-08-09T08:02:30Z</time>
      </trkpt>
      <trkpt lat="44.41765" lon="6.43518">
        <ele>1258.8</ele>
        <time>2021-08-09T08:02:35Z</time>
      </trkpt>
      <trkpt lat="44.41763" lon="6.43505">
        <ele>1259.4</ele>
        <time>2021-08-09T08:02:38Z</time>
      </trkpt>
      <trkpt lat="44.41765" lon="6.43502">
        <ele>1259.8</ele>
        <time>2021-08-09T08:02:40Z</time>
      </trkpt>
      <trkpt lat="44.41773" lon="6.43494">
        <ele>1260.6</ele>
        <time>2021-08-09T08:02:45Z</time>
      </trkpt>
      <trkpt lat="44.41776" lon="6.43488">
        <ele>1261</ele>
        <time>2021-08-09T08:02:48Z</time>
      </trkpt>
      <trkpt lat="44.41776" lon="6.43479">
        <ele>1261.2</ele>
        <time>2021-08-09T08:02:52Z</time>
      </trkpt>
      <trkpt lat="44.41775" lon="6.43463">
        <ele>1262</ele>
        <time>2021-08-09T08:02:59Z</time>
      </trkpt>
      <trkpt lat="44.41775" lon="6.43461">
        <ele>1262</ele>
        <time>2021-08-09T08:03:00Z</time>
      </trkpt>
      <trkpt lat="44.41775" lon="6.43444">
        <ele>1262.6</ele>
        <time>2021-08-09T08:03:08Z</time>
      </trkpt>
      <trkpt lat="44.41775" lon="6.43441">
        <ele>1263.2</ele>
        <time>2021-08-09T08:03:09Z</time>
      </trkpt>
      <trkpt lat="44.41774" lon="6.43431">
        <ele>1263.8</ele>
        <time>2021-08-09T08:03:14Z</time>
      </trkpt>
      <trkpt lat="44.41773" lon="6.4343">
        <ele>1264</ele>
        <time>2021-08-09T08:03:15Z</time>
      </trkpt>
      <trkpt lat="44.41773" lon="6.43428">
        <ele>1264.2</ele>
        <time>2021-08-09T08:03:16Z</time>
      </trkpt>
      <trkpt lat="44.41772" lon="6.43424">
        <ele>1264.8</ele>
        <time>2021-08-09T08:03:18Z</time>
      </trkpt>
      <trkpt lat="44.4177" lon="6.43417">
        <ele>1265.4</ele>
        <time>2021-08-09T08:03:21Z</time>
      </trkpt>
      <trkpt lat="44.41769" lon="6.43414">
        <ele>1265.6</ele>
        <time>2021-08-09T08:03:22Z</time>
      </trkpt>
      <trkpt lat="44.41768" lon="6.43404">
        <ele>1266.4</ele>
        <time>2021-08-09T08:03:27Z</time>
      </trkpt>
      <trkpt lat="44.41768" lon="6.43401">
        <ele>1266.4</ele>
        <time>2021-08-09T08:03:28Z</time>
      </trkpt>
      <trkpt lat="44.41769" lon="6.43383">
        <ele>1267.4</ele>
        <time>2021-08-09T08:03:34Z</time>
      </trkpt>
      <trkpt lat="44.4177" lon="6.43381">
        <ele>1267.6</ele>
        <time>2021-08-09T08:03:35Z</time>
      </trkpt>
      <trkpt lat="44.41774" lon="6.43372">
        <ele>1268.6</ele>
        <time>2021-08-09T08:03:39Z</time>
      </trkpt>
      <trkpt lat="44.41776" lon="6.43368">
        <ele>1269</ele>
        <time>2021-08-09T08:03:41Z</time>
      </trkpt>
      <trkpt lat="44.41778" lon="6.43357">
        <ele>1269.8</ele>
        <time>2021-08-09T08:03:46Z</time>
      </trkpt>
      <trkpt lat="44.4178" lon="6.43353">
        <ele>1270</ele>
        <time>2021-08-09T08:03:48Z</time>
      </trkpt>
      <trkpt lat="44.41782" lon="6.43341">
        <ele>1270.8</ele>
        <time>2021-08-09T08:03:54Z</time>
      </trkpt>
      <trkpt lat="44.41783" lon="6.43339">
        <ele>1271</ele>
        <time>2021-08-09T08:03:55Z</time>
      </trkpt>
      <trkpt lat="44.41784" lon="6.43328">
        <ele>1272</ele>
        <time>2021-08-09T08:04:00Z</time>
      </trkpt>
      <trkpt lat="44.41786" lon="6.43324">
        <ele>1272.4</ele>
        <time>2021-08-09T08:04:02Z</time>
      </trkpt>
      <trkpt lat="44.41787" lon="6.43317">
        <ele>1273</ele>
        <time>2021-08-09T08:04:05Z</time>
      </trkpt>
      <trkpt lat="44.41788" lon="6.43312">
        <ele>1273.6</ele>
        <time>2021-08-09T08:04:07Z</time>
      </trkpt>
      <trkpt lat="44.41789" lon="6.4331">
        <ele>1273.8</ele>
        <time>2021-08-09T08:04:08Z</time>
      </trkpt>
      <trkpt lat="44.41791" lon="6.43305">
        <ele>1274.2</ele>
        <time>2021-08-09T08:04:11Z</time>
      </trkpt>
      <trkpt lat="44.41792" lon="6.43296">
        <ele>1274.8</ele>
        <time>2021-08-09T08:04:15Z</time>
      </trkpt>
      <trkpt lat="44.41793" lon="6.43294">
        <ele>1275</ele>
        <time>2021-08-09T08:04:16Z</time>
      </trkpt>
      <trkpt lat="44.41795" lon="6.43283">
        <ele>1276</ele>
        <time>2021-08-09T08:04:22Z</time>
      </trkpt>
      <trkpt lat="44.41796" lon="6.43281">
        <ele>1276.2</ele>
        <time>2021-08-09T08:04:23Z</time>
      </trkpt>
      <trkpt lat="44.41797" lon="6.4327">
        <ele>1277.2</ele>
        <time>2021-08-09T08:04:28Z</time>
      </trkpt>
      <trkpt lat="44.41797" lon="6.43268">
        <ele>1277.4</ele>
        <time>2021-08-09T08:04:29Z</time>
      </trkpt>
      <trkpt lat="44.41799" lon="6.43262">
        <ele>1278.6</ele>
        <time>2021-08-09T08:04:32Z</time>
      </trkpt>
      <trkpt lat="44.41799" lon="6.43258">
        <ele>1279.6</ele>
        <time>2021-08-09T08:04:34Z</time>
      </trkpt>
      <trkpt lat="44.41799" lon="6.43256">
        <ele>1279.8</ele>
        <time>2021-08-09T08:04:35Z</time>
      </trkpt>
      <trkpt lat="44.418" lon="6.43254">
        <ele>1279.8</ele>
        <time>2021-08-09T08:04:36Z</time>
      </trkpt>
      <trkpt lat="44.41802" lon="6.43242">
        <ele>1280.6</ele>
        <time>2021-08-09T08:04:41Z</time>
      </trkpt>
      <trkpt lat="44.41803" lon="6.43236">
        <ele>1280.8</ele>
        <time>2021-08-09T08:04:44Z</time>
      </trkpt>
      <trkpt lat="44.41807" lon="6.43225">
        <ele>1281.4</ele>
        <time>2021-08-09T08:04:49Z</time>
      </trkpt>
      <trkpt lat="44.41808" lon="6.43221">
        <ele>1281.8</ele>
        <time>2021-08-09T08:04:51Z</time>
      </trkpt>
      <trkpt lat="44.4181" lon="6.4321">
        <ele>1283</ele>
        <time>2021-08-09T08:04:56Z</time>
      </trkpt>
      <trkpt lat="44.41811" lon="6.43204">
        <ele>1283.6</ele>
        <time>2021-08-09T08:04:59Z</time>
      </trkpt>
      <trkpt lat="44.41812" lon="6.432">
        <ele>1284</ele>
        <time>2021-08-09T08:05:01Z</time>
      </trkpt>
      <trkpt lat="44.41815" lon="6.43191">
        <ele>1285</ele>
        <time>2021-08-09T08:05:05Z</time>
      </trkpt>
      <trkpt lat="44.41816" lon="6.43189">
        <ele>1285.2</ele>
        <time>2021-08-09T08:05:06Z</time>
      </trkpt>
      <trkpt lat="44.41819" lon="6.43179">
        <ele>1286</ele>
        <time>2021-08-09T08:05:11Z</time>
      </trkpt>
      <trkpt lat="44.41819" lon="6.43176">
        <ele>1286.2</ele>
        <time>2021-08-09T08:05:12Z</time>
      </trkpt>
      <trkpt lat="44.41822" lon="6.43166">
        <ele>1286.6</ele>
        <time>2021-08-09T08:05:17Z</time>
      </trkpt>
      <trkpt lat="44.41823" lon="6.43159">
        <ele>1287.2</ele>
        <time>2021-08-09T08:05:20Z</time>
      </trkpt>
      <trkpt lat="44.41826" lon="6.43145">
        <ele>1288.2</ele>
        <time>2021-08-09T08:05:27Z</time>
      </trkpt>
      <trkpt lat="44.41827" lon="6.43143">
        <ele>1288.4</ele>
        <time>2021-08-09T08:05:28Z</time>
      </trkpt>
      <trkpt lat="44.41831" lon="6.43132">
        <ele>1289.4</ele>
        <time>2021-08-09T08:05:34Z</time>
      </trkpt>
      <trkpt lat="44.41832" lon="6.4313">
        <ele>1289.6</ele>
        <time>2021-08-09T08:05:35Z</time>
      </trkpt>
      <trkpt lat="44.41839" lon="6.43118">
        <ele>1290.4</ele>
        <time>2021-08-09T08:05:42Z</time>
      </trkpt>
      <trkpt lat="44.4184" lon="6.43117">
        <ele>1290.6</ele>
        <time>2021-08-09T08:05:43Z</time>
      </trkpt>
      <trkpt lat="44.41845" lon="6.43109">
        <ele>1291.4</ele>
        <time>2021-08-09T08:05:48Z</time>
      </trkpt>
      <trkpt lat="44.41849" lon="6.43102">
        <ele>1291.8</ele>
        <time>2021-08-09T08:05:52Z</time>
      </trkpt>
      <trkpt lat="44.41854" lon="6.43095">
        <ele>1292.6</ele>
        <time>2021-08-09T08:05:57Z</time>
      </trkpt>
      <trkpt lat="44.41857" lon="6.4309">
        <ele>1293.4</ele>
        <time>2021-08-09T08:06:01Z</time>
      </trkpt>
      <trkpt lat="44.41859" lon="6.43087">
        <ele>1293.6</ele>
        <time>2021-08-09T08:06:03Z</time>
      </trkpt>
      <trkpt lat="44.41865" lon="6.43078">
        <ele>1294.8</ele>
        <time>2021-08-09T08:06:08Z</time>
      </trkpt>
      <trkpt lat="44.4187" lon="6.4307">
        <ele>1296</ele>
        <time>2021-08-09T08:06:13Z</time>
      </trkpt>
      <trkpt lat="44.4187" lon="6.43066">
        <ele>1296.2</ele>
        <time>2021-08-09T08:06:15Z</time>
      </trkpt>
      <trkpt lat="44.4187" lon="6.43054">
        <ele>1297</ele>
        <time>2021-08-09T08:06:21Z</time>
      </trkpt>
      <trkpt lat="44.41869" lon="6.43042">
        <ele>1298.2</ele>
        <time>2021-08-09T08:06:27Z</time>
      </trkpt>
      <trkpt lat="44.41869" lon="6.43039">
        <ele>1298.6</ele>
        <time>2021-08-09T08:06:29Z</time>
      </trkpt>
      <trkpt lat="44.41868" lon="6.43028">
        <ele>1299.2</ele>
        <time>2021-08-09T08:06:35Z</time>
      </trkpt>
      <trkpt lat="44.41868" lon="6.43025">
        <ele>1299.4</ele>
        <time>2021-08-09T08:06:37Z</time>
      </trkpt>
      <trkpt lat="44.41867" lon="6.43016">
        <ele>1300.2</ele>
        <time>2021-08-09T08:06:42Z</time>
      </trkpt>
      <trkpt lat="44.41867" lon="6.43013">
        <ele>1300.6</ele>
        <time>2021-08-09T08:06:44Z</time>
      </trkpt>
      <trkpt lat="44.41866" lon="6.43009">
        <ele>1301.2</ele>
        <time>2021-08-09T08:06:46Z</time>
      </trkpt>
      <trkpt lat="44.41864" lon="6.42998">
        <ele>1302.2</ele>
        <time>2021-08-09T08:06:51Z</time>
      </trkpt>
      <trkpt lat="44.41862" lon="6.42993">
        <ele>1302.8</ele>
        <time>2021-08-09T08:06:53Z</time>
      </trkpt>
      <trkpt lat="44.41862" lon="6.42989">
        <ele>1303.2</ele>
        <time>2021-08-09T08:06:55Z</time>
      </trkpt>
      <trkpt lat="44.4186" lon="6.42976">
        <ele>1304.4</ele>
        <time>2021-08-09T08:07:01Z</time>
      </trkpt>
      <trkpt lat="44.4186" lon="6.42974">
        <ele>1304.6</ele>
        <time>2021-08-09T08:07:02Z</time>
      </trkpt>
      <trkpt lat="44.41864" lon="6.42962">
        <ele>1305.4</ele>
        <time>2021-08-09T08:07:09Z</time>
      </trkpt>
      <trkpt lat="44.41867" lon="6.42957">
        <ele>1306.2</ele>
        <time>2021-08-09T08:07:13Z</time>
      </trkpt>
      <trkpt lat="44.41869" lon="6.42954">
        <ele>1306.6</ele>
        <time>2021-08-09T08:07:15Z</time>
      </trkpt>
      <trkpt lat="44.41872" lon="6.42949">
        <ele>1307.8</ele>
        <time>2021-08-09T08:07:19Z</time>
      </trkpt>
      <trkpt lat="44.41874" lon="6.42946">
        <ele>1308.6</ele>
        <time>2021-08-09T08:07:22Z</time>
      </trkpt>
      <trkpt lat="44.41875" lon="6.42946">
        <ele>1308.8</ele>
        <time>2021-08-09T08:07:23Z</time>
      </trkpt>
      <trkpt lat="44.41875" lon="6.42947">
        <ele>1309.2</ele>
        <time>2021-08-09T08:07:25Z</time>
      </trkpt>
      <trkpt lat="44.41875" lon="6.42948">
        <ele>1309.4</ele>
        <time>2021-08-09T08:07:26Z</time>
      </trkpt>
      <trkpt lat="44.41872" lon="6.42951">
        <ele>1309.8</ele>
        <time>2021-08-09T08:07:29Z</time>
      </trkpt>
      <trkpt lat="44.4187" lon="6.42952">
        <ele>1310</ele>
        <time>2021-08-09T08:07:34Z</time>
      </trkpt>
      <trkpt lat="44.41868" lon="6.42948">
        <ele>1310</ele>
        <time>2021-08-09T08:07:37Z</time>
      </trkpt>
      <trkpt lat="44.41867" lon="6.42943">
        <ele>1309.8</ele>
        <time>2021-08-09T08:07:40Z</time>
      </trkpt>
      <trkpt lat="44.41867" lon="6.42932">
        <ele>1309.8</ele>
        <time>2021-08-09T08:07:47Z</time>
      </trkpt>
      <trkpt lat="44.41867" lon="6.42926">
        <ele>1311</ele>
        <time>2021-08-09T08:07:50Z</time>
      </trkpt>
      <trkpt lat="44.41867" lon="6.42921">
        <ele>1312</ele>
        <time>2021-08-09T08:07:53Z</time>
      </trkpt>
      <trkpt lat="44.41867" lon="6.4292">
        <ele>1312.4</ele>
        <time>2021-08-09T08:07:54Z</time>
      </trkpt>
      <trkpt lat="44.41867" lon="6.42919">
        <ele>1312.8</ele>
        <time>2021-08-09T08:07:55Z</time>
      </trkpt>
      <trkpt lat="44.41867" lon="6.42917">
        <ele>1313.2</ele>
        <time>2021-08-09T08:07:56Z</time>
      </trkpt>
      <trkpt lat="44.41867" lon="6.42912">
        <ele>1314.2</ele>
        <time>2021-08-09T08:07:59Z</time>
      </trkpt>
      <trkpt lat="44.41867" lon="6.42908">
        <ele>1315.2</ele>
        <time>2021-08-09T08:08:02Z</time>
      </trkpt>
      <trkpt lat="44.41867" lon="6.42903">
        <ele>1316.4</ele>
        <time>2021-08-09T08:08:06Z</time>
      </trkpt>
      <trkpt lat="44.41866" lon="6.42899">
        <ele>1317.2</ele>
        <time>2021-08-09T08:08:09Z</time>
      </trkpt>
      <trkpt lat="44.41866" lon="6.42897">
        <ele>1317.6</ele>
        <time>2021-08-09T08:08:10Z</time>
      </trkpt>
      <trkpt lat="44.41866" lon="6.42896">
        <ele>1318.4</ele>
        <time>2021-08-09T08:08:13Z</time>
      </trkpt>
      <trkpt lat="44.41861" lon="6.42882">
        <ele>1323.8</ele>
        <time>2021-08-09T08:09:01Z</time>
      </trkpt>
      <trkpt lat="44.41862" lon="6.42881">
        <ele>1324</ele>
        <time>2021-08-09T08:09:02Z</time>
      </trkpt>
      <trkpt lat="44.41863" lon="6.42872">
        <ele>1324.4</ele>
        <time>2021-08-09T08:09:12Z</time>
      </trkpt>
      <trkpt lat="44.41864" lon="6.4287">
        <ele>1325.2</ele>
        <time>2021-08-09T08:09:15Z</time>
      </trkpt>
      <trkpt lat="44.41864" lon="6.42867">
        <ele>1326.2</ele>
        <time>2021-08-09T08:09:20Z</time>
      </trkpt>
      <trkpt lat="44.41864" lon="6.42865">
        <ele>1327</ele>
        <time>2021-08-09T08:09:23Z</time>
      </trkpt>
      <trkpt lat="44.41864" lon="6.42863">
        <ele>1327.4</ele>
        <time>2021-08-09T08:09:25Z</time>
      </trkpt>
      <trkpt lat="44.41865" lon="6.42859">
        <ele>1328.6</ele>
        <time>2021-08-09T08:09:30Z</time>
      </trkpt>
      <trkpt lat="44.41866" lon="6.42856">
        <ele>1329.2</ele>
        <time>2021-08-09T08:09:33Z</time>
      </trkpt>
      <trkpt lat="44.41866" lon="6.42854">
        <ele>1329.6</ele>
        <time>2021-08-09T08:09:35Z</time>
      </trkpt>
      <trkpt lat="44.41866" lon="6.42852">
        <ele>1330.2</ele>
        <time>2021-08-09T08:09:38Z</time>
      </trkpt>
      <trkpt lat="44.41865" lon="6.42848">
        <ele>1331.4</ele>
        <time>2021-08-09T08:09:43Z</time>
      </trkpt>
      <trkpt lat="44.41865" lon="6.42846">
        <ele>1332</ele>
        <time>2021-08-09T08:09:46Z</time>
      </trkpt>
      <trkpt lat="44.41865" lon="6.42845">
        <ele>1332.4</ele>
        <time>2021-08-09T08:09:48Z</time>
      </trkpt>
      <trkpt lat="44.41865" lon="6.42844">
        <ele>1332.8</ele>
        <time>2021-08-09T08:09:50Z</time>
      </trkpt>
      <trkpt lat="44.41865" lon="6.42843">
        <ele>1334.8</ele>
        <time>2021-08-09T08:09:57Z</time>
      </trkpt>
      <trkpt lat="44.41864" lon="6.4284">
        <ele>1335.2</ele>
        <time>2021-08-09T08:10:00Z</time>
      </trkpt>
      <trkpt lat="44.41865" lon="6.42836">
        <ele>1335.8</ele>
        <time>2021-08-09T08:10:07Z</time>
      </trkpt>
      <trkpt lat="44.41866" lon="6.42829">
        <ele>1338.6</ele>
        <time>2021-08-09T08:10:17Z</time>
      </trkpt>
      <trkpt lat="44.41866" lon="6.42828">
        <ele>1338.8</ele>
        <time>2021-08-09T08:10:18Z</time>
      </trkpt>
      <trkpt lat="44.41868" lon="6.42823">
        <ele>1339.6</ele>
        <time>2021-08-09T08:10:23Z</time>
      </trkpt>
      <trkpt lat="44.41869" lon="6.42821">
        <ele>1340.8</ele>
        <time>2021-08-09T08:10:27Z</time>
      </trkpt>
      <trkpt lat="44.41869" lon="6.4282">
        <ele>1341</ele>
        <time>2021-08-09T08:10:29Z</time>
      </trkpt>
      <trkpt lat="44.4187" lon="6.42817">
        <ele>1342.8</ele>
        <time>2021-08-09T08:10:53Z</time>
      </trkpt>
      <trkpt lat="44.41873" lon="6.42813">
        <ele>1342.8</ele>
        <time>2021-08-09T08:10:57Z</time>
      </trkpt>
      <trkpt lat="44.41875" lon="6.4281">
        <ele>1342.8</ele>
        <time>2021-08-09T08:10:59Z</time>
      </trkpt>
      <trkpt lat="44.4188" lon="6.42803">
        <ele>1343.8</ele>
        <time>2021-08-09T08:11:04Z</time>
      </trkpt>
      <trkpt lat="44.41883" lon="6.42799">
        <ele>1344.8</ele>
        <time>2021-08-09T08:11:07Z</time>
      </trkpt>
      <trkpt lat="44.41883" lon="6.42798">
        <ele>1345.2</ele>
        <time>2021-08-09T08:11:08Z</time>
      </trkpt>
      <trkpt lat="44.41886" lon="6.42792">
        <ele>1346.4</ele>
        <time>2021-08-09T08:11:12Z</time>
      </trkpt>
      <trkpt lat="44.41888" lon="6.42789">
        <ele>1347</ele>
        <time>2021-08-09T08:11:14Z</time>
      </trkpt>
      <trkpt lat="44.41889" lon="6.42786">
        <ele>1347.6</ele>
        <time>2021-08-09T08:11:16Z</time>
      </trkpt>
      <trkpt lat="44.41893" lon="6.42781">
        <ele>1349</ele>
        <time>2021-08-09T08:11:20Z</time>
      </trkpt>
      <trkpt lat="44.41893" lon="6.42779">
        <ele>1349.2</ele>
        <time>2021-08-09T08:11:21Z</time>
      </trkpt>
      <trkpt lat="44.41895" lon="6.42777">
        <ele>1350</ele>
        <time>2021-08-09T08:11:23Z</time>
      </trkpt>
      <trkpt lat="44.41898" lon="6.42773">
        <ele>1351.2</ele>
        <time>2021-08-09T08:11:27Z</time>
      </trkpt>
      <trkpt lat="44.419" lon="6.42769">
        <ele>1352.2</ele>
        <time>2021-08-09T08:11:30Z</time>
      </trkpt>
      <trkpt lat="44.41903" lon="6.42765">
        <ele>1353.4</ele>
        <time>2021-08-09T08:11:34Z</time>
      </trkpt>
      <trkpt lat="44.41904" lon="6.42764">
        <ele>1353.8</ele>
        <time>2021-08-09T08:11:35Z</time>
      </trkpt>
      <trkpt lat="44.41905" lon="6.42762">
        <ele>1354.6</ele>
        <time>2021-08-09T08:11:37Z</time>
      </trkpt>
      <trkpt lat="44.41906" lon="6.42761">
        <ele>1355.2</ele>
        <time>2021-08-09T08:11:40Z</time>
      </trkpt>
      <trkpt lat="44.41903" lon="6.42763">
        <ele>1357.2</ele>
        <time>2021-08-09T08:12:08Z</time>
      </trkpt>
      <trkpt lat="44.41902" lon="6.42764">
        <ele>1357.2</ele>
        <time>2021-08-09T08:12:09Z</time>
      </trkpt>
      <trkpt lat="44.41901" lon="6.42766">
        <ele>1357.2</ele>
        <time>2021-08-09T08:12:10Z</time>
      </trkpt>
      <trkpt lat="44.41893" lon="6.42779">
        <ele>1356.6</ele>
        <time>2021-08-09T08:12:16Z</time>
      </trkpt>
      <trkpt lat="44.4189" lon="6.42785">
        <ele>1356</ele>
        <time>2021-08-09T08:12:18Z</time>
      </trkpt>
      <trkpt lat="44.41885" lon="6.42794">
        <ele>1354.6</ele>
        <time>2021-08-09T08:12:21Z</time>
      </trkpt>
      <trkpt lat="44.41883" lon="6.42797">
        <ele>1354</ele>
        <time>2021-08-09T08:12:22Z</time>
      </trkpt>
      <trkpt lat="44.41881" lon="6.428">
        <ele>1353.4</ele>
        <time>2021-08-09T08:12:23Z</time>
      </trkpt>
      <trkpt lat="44.41877" lon="6.42806">
        <ele>1351.8</ele>
        <time>2021-08-09T08:12:25Z</time>
      </trkpt>
      <trkpt lat="44.41874" lon="6.4281">
        <ele>1350.2</ele>
        <time>2021-08-09T08:12:27Z</time>
      </trkpt>
      <trkpt lat="44.41873" lon="6.42812">
        <ele>1349.4</ele>
        <time>2021-08-09T08:12:28Z</time>
      </trkpt>
      <trkpt lat="44.41872" lon="6.42814">
        <ele>1348.6</ele>
        <time>2021-08-09T08:12:29Z</time>
      </trkpt>
      <trkpt lat="44.41871" lon="6.42818">
        <ele>1347.2</ele>
        <time>2021-08-09T08:12:31Z</time>
      </trkpt>
      <trkpt lat="44.4187" lon="6.42821">
        <ele>1345</ele>
        <time>2021-08-09T08:12:33Z</time>
      </trkpt>
      <trkpt lat="44.41869" lon="6.42823">
        <ele>1344.6</ele>
        <time>2021-08-09T08:12:34Z</time>
      </trkpt>
      <trkpt lat="44.41869" lon="6.42824">
        <ele>1344</ele>
        <time>2021-08-09T08:12:35Z</time>
      </trkpt>
      <trkpt lat="44.41868" lon="6.42827">
        <ele>1343</ele>
        <time>2021-08-09T08:12:37Z</time>
      </trkpt>
      <trkpt lat="44.41868" lon="6.42832">
        <ele>1341.6</ele>
        <time>2021-08-09T08:12:40Z</time>
      </trkpt>
      <trkpt lat="44.41867" lon="6.42834">
        <ele>1341.2</ele>
        <time>2021-08-09T08:12:41Z</time>
      </trkpt>
      <trkpt lat="44.41867" lon="6.42836">
        <ele>1340.6</ele>
        <time>2021-08-09T08:12:42Z</time>
      </trkpt>
      <trkpt lat="44.41867" lon="6.42839">
        <ele>1339.2</ele>
        <time>2021-08-09T08:12:44Z</time>
      </trkpt>
      <trkpt lat="44.41866" lon="6.42843">
        <ele>1338</ele>
        <time>2021-08-09T08:12:46Z</time>
      </trkpt>
      <trkpt lat="44.41866" lon="6.42846">
        <ele>1337.6</ele>
        <time>2021-08-09T08:12:47Z</time>
      </trkpt>
      <trkpt lat="44.41866" lon="6.42848">
        <ele>1337</ele>
        <time>2021-08-09T08:12:48Z</time>
      </trkpt>
      <trkpt lat="44.41866" lon="6.42852">
        <ele>1335.6</ele>
        <time>2021-08-09T08:12:50Z</time>
      </trkpt>
      <trkpt lat="44.41866" lon="6.42856">
        <ele>1334.4</ele>
        <time>2021-08-09T08:12:52Z</time>
      </trkpt>
      <trkpt lat="44.41865" lon="6.42858">
        <ele>1333.8</ele>
        <time>2021-08-09T08:12:53Z</time>
      </trkpt>
      <trkpt lat="44.41865" lon="6.4286">
        <ele>1333</ele>
        <time>2021-08-09T08:12:54Z</time>
      </trkpt>
      <trkpt lat="44.41865" lon="6.42864">
        <ele>1332</ele>
        <time>2021-08-09T08:12:56Z</time>
      </trkpt>
      <trkpt lat="44.41863" lon="6.42869">
        <ele>1330.8</ele>
        <time>2021-08-09T08:12:58Z</time>
      </trkpt>
      <trkpt lat="44.41863" lon="6.42875">
        <ele>1329.6</ele>
        <time>2021-08-09T08:13:00Z</time>
      </trkpt>
      <trkpt lat="44.41863" lon="6.42877">
        <ele>1328.6</ele>
        <time>2021-08-09T08:13:01Z</time>
      </trkpt>
      <trkpt lat="44.41863" lon="6.42879">
        <ele>1328</ele>
        <time>2021-08-09T08:13:02Z</time>
      </trkpt>
      <trkpt lat="44.41864" lon="6.42884">
        <ele>1326.6</ele>
        <time>2021-08-09T08:13:05Z</time>
      </trkpt>
      <trkpt lat="44.41865" lon="6.4289">
        <ele>1325.6</ele>
        <time>2021-08-09T08:13:07Z</time>
      </trkpt>
      <trkpt lat="44.41865" lon="6.42893">
        <ele>1325</ele>
        <time>2021-08-09T08:13:08Z</time>
      </trkpt>
      <trkpt lat="44.41865" lon="6.42902">
        <ele>1323.4</ele>
        <time>2021-08-09T08:13:11Z</time>
      </trkpt>
      <trkpt lat="44.41866" lon="6.42908">
        <ele>1322.6</ele>
        <time>2021-08-09T08:13:13Z</time>
      </trkpt>
      <trkpt lat="44.41866" lon="6.42911">
        <ele>1322</ele>
        <time>2021-08-09T08:13:14Z</time>
      </trkpt>
      <trkpt lat="44.41865" lon="6.42918">
        <ele>1320.8</ele>
        <time>2021-08-09T08:13:16Z</time>
      </trkpt>
      <trkpt lat="44.41866" lon="6.42926">
        <ele>1319</ele>
        <time>2021-08-09T08:13:18Z</time>
      </trkpt>
      <trkpt lat="44.41866" lon="6.42929">
        <ele>1318.4</ele>
        <time>2021-08-09T08:13:19Z</time>
      </trkpt>
      <trkpt lat="44.41866" lon="6.42931">
        <ele>1317.8</ele>
        <time>2021-08-09T08:13:20Z</time>
      </trkpt>
      <trkpt lat="44.41867" lon="6.42936">
        <ele>1316.6</ele>
        <time>2021-08-09T08:13:22Z</time>
      </trkpt>
      <trkpt lat="44.41868" lon="6.42939">
        <ele>1315.6</ele>
        <time>2021-08-09T08:13:24Z</time>
      </trkpt>
      <trkpt lat="44.41869" lon="6.42939">
        <ele>1314.2</ele>
        <time>2021-08-09T08:13:26Z</time>
      </trkpt>
      <trkpt lat="44.41871" lon="6.42938">
        <ele>1312.4</ele>
        <time>2021-08-09T08:13:28Z</time>
      </trkpt>
      <trkpt lat="44.41872" lon="6.42937">
        <ele>1311.6</ele>
        <time>2021-08-09T08:13:29Z</time>
      </trkpt>
      <trkpt lat="44.41873" lon="6.42936">
        <ele>1311</ele>
        <time>2021-08-09T08:13:30Z</time>
      </trkpt>
      <trkpt lat="44.41876" lon="6.42928">
        <ele>1310</ele>
        <time>2021-08-09T08:13:34Z</time>
      </trkpt>
      <trkpt lat="44.41877" lon="6.42926">
        <ele>1309.8</ele>
        <time>2021-08-09T08:13:35Z</time>
      </trkpt>
      <trkpt lat="44.41878" lon="6.42923">
        <ele>1310</ele>
        <time>2021-08-09T08:13:37Z</time>
      </trkpt>
      <trkpt lat="44.41881" lon="6.42914">
        <ele>1310</ele>
        <time>2021-08-09T08:13:41Z</time>
      </trkpt>
      <trkpt lat="44.41882" lon="6.42909">
        <ele>1310.6</ele>
        <time>2021-08-09T08:13:44Z</time>
      </trkpt>
      <trkpt lat="44.41884" lon="6.42902">
        <ele>1311.4</ele>
        <time>2021-08-09T08:13:47Z</time>
      </trkpt>
      <trkpt lat="44.41887" lon="6.42895">
        <ele>1312</ele>
        <time>2021-08-09T08:13:50Z</time>
      </trkpt>
      <trkpt lat="44.41889" lon="6.4289">
        <ele>1312.4</ele>
        <time>2021-08-09T08:13:52Z</time>
      </trkpt>
      <trkpt lat="44.41893" lon="6.42884">
        <ele>1313</ele>
        <time>2021-08-09T08:13:55Z</time>
      </trkpt>
      <trkpt lat="44.41896" lon="6.42876">
        <ele>1314</ele>
        <time>2021-08-09T08:13:58Z</time>
      </trkpt>
      <trkpt lat="44.41897" lon="6.42874">
        <ele>1314.2</ele>
        <time>2021-08-09T08:13:59Z</time>
      </trkpt>
      <trkpt lat="44.41903" lon="6.4286">
        <ele>1315.4</ele>
        <time>2021-08-09T08:14:04Z</time>
      </trkpt>
      <trkpt lat="44.41916" lon="6.42849">
        <ele>1316.4</ele>
        <time>2021-08-09T08:14:10Z</time>
      </trkpt>
      <trkpt lat="44.41936" lon="6.42834">
        <ele>1317.2</ele>
        <time>2021-08-09T08:14:16Z</time>
      </trkpt>
      <trkpt lat="44.41944" lon="6.42827">
        <ele>1317.6</ele>
        <time>2021-08-09T08:14:18Z</time>
      </trkpt>
      <trkpt lat="44.4196" lon="6.42813">
        <ele>1317.6</ele>
        <time>2021-08-09T08:14:22Z</time>
      </trkpt>
      <trkpt lat="44.41992" lon="6.42798">
        <ele>1317.6</ele>
        <time>2021-08-09T08:14:29Z</time>
      </trkpt>
      <trkpt lat="44.42029" lon="6.4278">
        <ele>1317</ele>
        <time>2021-08-09T08:14:37Z</time>
      </trkpt>
      <trkpt lat="44.4205" lon="6.42768">
        <ele>1317</ele>
        <time>2021-08-09T08:14:42Z</time>
      </trkpt>
      <trkpt lat="44.42059" lon="6.42762">
        <ele>1317</ele>
        <time>2021-08-09T08:14:44Z</time>
      </trkpt>
      <trkpt lat="44.4208" lon="6.42748">
        <ele>1317.4</ele>
        <time>2021-08-09T08:14:49Z</time>
      </trkpt>
      <trkpt lat="44.421" lon="6.4273">
        <ele>1318</ele>
        <time>2021-08-09T08:14:55Z</time>
      </trkpt>
      <trkpt lat="44.42107" lon="6.42724">
        <ele>1318.6</ele>
        <time>2021-08-09T08:14:57Z</time>
      </trkpt>
      <trkpt lat="44.42119" lon="6.42714">
        <ele>1319.6</ele>
        <time>2021-08-09T08:15:01Z</time>
      </trkpt>
      <trkpt lat="44.42122" lon="6.42711">
        <ele>1319.6</ele>
        <time>2021-08-09T08:15:02Z</time>
      </trkpt>
      <trkpt lat="44.42139" lon="6.42698">
        <ele>1320.8</ele>
        <time>2021-08-09T08:15:08Z</time>
      </trkpt>
      <trkpt lat="44.4215" lon="6.42689">
        <ele>1321.8</ele>
        <time>2021-08-09T08:15:13Z</time>
      </trkpt>
      <trkpt lat="44.42156" lon="6.42683">
        <ele>1322.8</ele>
        <time>2021-08-09T08:15:16Z</time>
      </trkpt>
      <trkpt lat="44.42157" lon="6.42681">
        <ele>1323</ele>
        <time>2021-08-09T08:15:17Z</time>
      </trkpt>
      <trkpt lat="44.42163" lon="6.42672">
        <ele>1324.2</ele>
        <time>2021-08-09T08:15:21Z</time>
      </trkpt>
      <trkpt lat="44.42166" lon="6.42666">
        <ele>1325</ele>
        <time>2021-08-09T08:15:23Z</time>
      </trkpt>
      <trkpt lat="44.42168" lon="6.42664">
        <ele>1325.4</ele>
        <time>2021-08-09T08:15:24Z</time>
      </trkpt>
      <trkpt lat="44.42177" lon="6.42651">
        <ele>1326.4</ele>
        <time>2021-08-09T08:15:29Z</time>
      </trkpt>
      <trkpt lat="44.42192" lon="6.42632">
        <ele>1327</ele>
        <time>2021-08-09T08:15:36Z</time>
      </trkpt>
      <trkpt lat="44.42203" lon="6.42618">
        <ele>1327.4</ele>
        <time>2021-08-09T08:15:41Z</time>
      </trkpt>
      <trkpt lat="44.42205" lon="6.42615">
        <ele>1327.6</ele>
        <time>2021-08-09T08:15:42Z</time>
      </trkpt>
      <trkpt lat="44.42219" lon="6.42592">
        <ele>1328.4</ele>
        <time>2021-08-09T08:15:48Z</time>
      </trkpt>
      <trkpt lat="44.42222" lon="6.42588">
        <ele>1328.4</ele>
        <time>2021-08-09T08:15:49Z</time>
      </trkpt>
      <trkpt lat="44.42234" lon="6.42566">
        <ele>1328.6</ele>
        <time>2021-08-09T08:15:54Z</time>
      </trkpt>
      <trkpt lat="44.4224" lon="6.42556">
        <ele>1328.6</ele>
        <time>2021-08-09T08:15:56Z</time>
      </trkpt>
      <trkpt lat="44.42252" lon="6.42536">
        <ele>1328.6</ele>
        <time>2021-08-09T08:15:59Z</time>
      </trkpt>
      <trkpt lat="44.42257" lon="6.4253">
        <ele>1328.6</ele>
        <time>2021-08-09T08:16:00Z</time>
      </trkpt>
      <trkpt lat="44.42279" lon="6.42506">
        <ele>1328</ele>
        <time>2021-08-09T08:16:04Z</time>
      </trkpt>
      <trkpt lat="44.42291" lon="6.42494">
        <ele>1327.2</ele>
        <time>2021-08-09T08:16:06Z</time>
      </trkpt>
      <trkpt lat="44.423" lon="6.42477">
        <ele>1326.6</ele>
        <time>2021-08-09T08:16:08Z</time>
      </trkpt>
      <trkpt lat="44.42303" lon="6.42463">
        <ele>1326</ele>
        <time>2021-08-09T08:16:10Z</time>
      </trkpt>
      <trkpt lat="44.42305" lon="6.42451">
        <ele>1325.8</ele>
        <time>2021-08-09T08:16:12Z</time>
      </trkpt>
      <trkpt lat="44.42308" lon="6.42435">
        <ele>1325.6</ele>
        <time>2021-08-09T08:16:17Z</time>
      </trkpt>
      <trkpt lat="44.42311" lon="6.42417">
        <ele>1327.2</ele>
        <time>2021-08-09T08:16:23Z</time>
      </trkpt>
      <trkpt lat="44.42315" lon="6.42406">
        <ele>1328.4</ele>
        <time>2021-08-09T08:16:27Z</time>
      </trkpt>
      <trkpt lat="44.42315" lon="6.42403">
        <ele>1328.6</ele>
        <time>2021-08-09T08:16:28Z</time>
      </trkpt>
      <trkpt lat="44.42317" lon="6.42397">
        <ele>1329.4</ele>
        <time>2021-08-09T08:16:30Z</time>
      </trkpt>
      <trkpt lat="44.4232" lon="6.42384">
        <ele>1330.4</ele>
        <time>2021-08-09T08:16:35Z</time>
      </trkpt>
      <trkpt lat="44.4232" lon="6.42381">
        <ele>1330.6</ele>
        <time>2021-08-09T08:16:36Z</time>
      </trkpt>
      <trkpt lat="44.42326" lon="6.42373">
        <ele>1331.4</ele>
        <time>2021-08-09T08:16:40Z</time>
      </trkpt>
      <trkpt lat="44.42327" lon="6.42371">
        <ele>1331.8</ele>
        <time>2021-08-09T08:16:41Z</time>
      </trkpt>
      <trkpt lat="44.42332" lon="6.42366">
        <ele>1332.6</ele>
        <time>2021-08-09T08:16:44Z</time>
      </trkpt>
      <trkpt lat="44.42337" lon="6.42361">
        <ele>1333.4</ele>
        <time>2021-08-09T08:16:47Z</time>
      </trkpt>
      <trkpt lat="44.42338" lon="6.4236">
        <ele>1333.6</ele>
        <time>2021-08-09T08:16:48Z</time>
      </trkpt>
      <trkpt lat="44.42343" lon="6.42356">
        <ele>1334.6</ele>
        <time>2021-08-09T08:16:51Z</time>
      </trkpt>
      <trkpt lat="44.42347" lon="6.42352">
        <ele>1335</ele>
        <time>2021-08-09T08:16:54Z</time>
      </trkpt>
      <trkpt lat="44.4235" lon="6.4235">
        <ele>1335.6</ele>
        <time>2021-08-09T08:16:56Z</time>
      </trkpt>
      <trkpt lat="44.42359" lon="6.42346">
        <ele>1336.8</ele>
        <time>2021-08-09T08:17:01Z</time>
      </trkpt>
      <trkpt lat="44.42374" lon="6.42339">
        <ele>1338</ele>
        <time>2021-08-09T08:17:09Z</time>
      </trkpt>
      <trkpt lat="44.42382" lon="6.42331">
        <ele>1339.2</ele>
        <time>2021-08-09T08:17:14Z</time>
      </trkpt>
      <trkpt lat="44.42387" lon="6.42325">
        <ele>1340</ele>
        <time>2021-08-09T08:17:18Z</time>
      </trkpt>
      <trkpt lat="44.42389" lon="6.42323">
        <ele>1340.4</ele>
        <time>2021-08-09T08:17:19Z</time>
      </trkpt>
      <trkpt lat="44.42396" lon="6.42314">
        <ele>1341.4</ele>
        <time>2021-08-09T08:17:25Z</time>
      </trkpt>
      <trkpt lat="44.42398" lon="6.42311">
        <ele>1342</ele>
        <time>2021-08-09T08:17:27Z</time>
      </trkpt>
      <trkpt lat="44.42403" lon="6.42305">
        <ele>1342.6</ele>
        <time>2021-08-09T08:17:31Z</time>
      </trkpt>
      <trkpt lat="44.42407" lon="6.42298">
        <ele>1343.4</ele>
        <time>2021-08-09T08:17:35Z</time>
      </trkpt>
      <trkpt lat="44.42409" lon="6.42295">
        <ele>1343.8</ele>
        <time>2021-08-09T08:17:37Z</time>
      </trkpt>
      <trkpt lat="44.42415" lon="6.42286">
        <ele>1344.6</ele>
        <time>2021-08-09T08:17:42Z</time>
      </trkpt>
      <trkpt lat="44.42417" lon="6.42283">
        <ele>1344.8</ele>
        <time>2021-08-09T08:17:44Z</time>
      </trkpt>
      <trkpt lat="44.42422" lon="6.42271">
        <ele>1346</ele>
        <time>2021-08-09T08:17:50Z</time>
      </trkpt>
      <trkpt lat="44.42427" lon="6.42262">
        <ele>1347</ele>
        <time>2021-08-09T08:17:55Z</time>
      </trkpt>
      <trkpt lat="44.4243" lon="6.42256">
        <ele>1347.6</ele>
        <time>2021-08-09T08:17:58Z</time>
      </trkpt>
      <trkpt lat="44.42434" lon="6.42249">
        <ele>1348</ele>
        <time>2021-08-09T08:18:02Z</time>
      </trkpt>
      <trkpt lat="44.42439" lon="6.4224">
        <ele>1349</ele>
        <time>2021-08-09T08:18:07Z</time>
      </trkpt>
      <trkpt lat="44.4244" lon="6.42238">
        <ele>1349.2</ele>
        <time>2021-08-09T08:18:08Z</time>
      </trkpt>
      <trkpt lat="44.42445" lon="6.4223">
        <ele>1350.2</ele>
        <time>2021-08-09T08:18:13Z</time>
      </trkpt>
      <trkpt lat="44.4245" lon="6.42224">
        <ele>1351.2</ele>
        <time>2021-08-09T08:18:18Z</time>
      </trkpt>
      <trkpt lat="44.42459" lon="6.42216">
        <ele>1352.4</ele>
        <time>2021-08-09T08:18:24Z</time>
      </trkpt>
      <trkpt lat="44.4246" lon="6.42215">
        <ele>1352.6</ele>
        <time>2021-08-09T08:18:25Z</time>
      </trkpt>
      <trkpt lat="44.42469" lon="6.42207">
        <ele>1353.4</ele>
        <time>2021-08-09T08:18:31Z</time>
      </trkpt>
      <trkpt lat="44.42475" lon="6.42203">
        <ele>1354.2</ele>
        <time>2021-08-09T08:18:35Z</time>
      </trkpt>
      <trkpt lat="44.42478" lon="6.422">
        <ele>1354.2</ele>
        <time>2021-08-09T08:18:37Z</time>
      </trkpt>
      <trkpt lat="44.42487" lon="6.42192">
        <ele>1355.4</ele>
        <time>2021-08-09T08:18:44Z</time>
      </trkpt>
      <trkpt lat="44.42493" lon="6.42187">
        <ele>1356.4</ele>
        <time>2021-08-09T08:18:48Z</time>
      </trkpt>
      <trkpt lat="44.425" lon="6.4218">
        <ele>1357.4</ele>
        <time>2021-08-09T08:18:53Z</time>
      </trkpt>
      <trkpt lat="44.42501" lon="6.42179">
        <ele>1357.8</ele>
        <time>2021-08-09T08:18:54Z</time>
      </trkpt>
      <trkpt lat="44.42508" lon="6.42172">
        <ele>1358.6</ele>
        <time>2021-08-09T08:18:59Z</time>
      </trkpt>
      <trkpt lat="44.42513" lon="6.42169">
        <ele>1359.2</ele>
        <time>2021-08-09T08:19:02Z</time>
      </trkpt>
      <trkpt lat="44.42518" lon="6.42166">
        <ele>1359.6</ele>
        <time>2021-08-09T08:19:05Z</time>
      </trkpt>
      <trkpt lat="44.42523" lon="6.42163">
        <ele>1360.2</ele>
        <time>2021-08-09T08:19:08Z</time>
      </trkpt>
      <trkpt lat="44.42529" lon="6.42161">
        <ele>1360.8</ele>
        <time>2021-08-09T08:19:12Z</time>
      </trkpt>
      <trkpt lat="44.42539" lon="6.42155">
        <ele>1361.8</ele>
        <time>2021-08-09T08:19:19Z</time>
      </trkpt>
      <trkpt lat="44.4255" lon="6.42151">
        <ele>1362.8</ele>
        <time>2021-08-09T08:19:26Z</time>
      </trkpt>
      <trkpt lat="44.42552" lon="6.4215">
        <ele>1363</ele>
        <time>2021-08-09T08:19:27Z</time>
      </trkpt>
      <trkpt lat="44.42558" lon="6.42146">
        <ele>1363.8</ele>
        <time>2021-08-09T08:19:31Z</time>
      </trkpt>
      <trkpt lat="44.42567" lon="6.42139">
        <ele>1365</ele>
        <time>2021-08-09T08:19:37Z</time>
      </trkpt>
      <trkpt lat="44.42576" lon="6.42132">
        <ele>1366.2</ele>
        <time>2021-08-09T08:19:42Z</time>
      </trkpt>
      <trkpt lat="44.4258" lon="6.4213">
        <ele>1366.4</ele>
        <time>2021-08-09T08:19:44Z</time>
      </trkpt>
      <trkpt lat="44.4259" lon="6.42123">
        <ele>1367.2</ele>
        <time>2021-08-09T08:19:51Z</time>
      </trkpt>
      <trkpt lat="44.42604" lon="6.42114">
        <ele>1368.4</ele>
        <time>2021-08-09T08:20:00Z</time>
      </trkpt>
      <trkpt lat="44.42605" lon="6.42113">
        <ele>1368.6</ele>
        <time>2021-08-09T08:20:01Z</time>
      </trkpt>
      <trkpt lat="44.42612" lon="6.42107">
        <ele>1369.6</ele>
        <time>2021-08-09T08:20:06Z</time>
      </trkpt>
      <trkpt lat="44.42614" lon="6.42105">
        <ele>1370</ele>
        <time>2021-08-09T08:20:08Z</time>
      </trkpt>
      <trkpt lat="44.42619" lon="6.42103">
        <ele>1370.8</ele>
        <time>2021-08-09T08:20:11Z</time>
      </trkpt>
      <trkpt lat="44.42627" lon="6.42098">
        <ele>1371.6</ele>
        <time>2021-08-09T08:20:17Z</time>
      </trkpt>
      <trkpt lat="44.42632" lon="6.42095">
        <ele>1371.8</ele>
        <time>2021-08-09T08:20:20Z</time>
      </trkpt>
      <trkpt lat="44.4264" lon="6.42089">
        <ele>1373.2</ele>
        <time>2021-08-09T08:20:26Z</time>
      </trkpt>
      <trkpt lat="44.42643" lon="6.42086">
        <ele>1373.8</ele>
        <time>2021-08-09T08:20:28Z</time>
      </trkpt>
      <trkpt lat="44.42646" lon="6.42084">
        <ele>1374.2</ele>
        <time>2021-08-09T08:20:30Z</time>
      </trkpt>
      <trkpt lat="44.42656" lon="6.42075">
        <ele>1375.4</ele>
        <time>2021-08-09T08:20:37Z</time>
      </trkpt>
      <trkpt lat="44.42658" lon="6.42074">
        <ele>1375.4</ele>
        <time>2021-08-09T08:20:38Z</time>
      </trkpt>
      <trkpt lat="44.42662" lon="6.42071">
        <ele>1376.2</ele>
        <time>2021-08-09T08:20:41Z</time>
      </trkpt>
      <trkpt lat="44.4267" lon="6.42062">
        <ele>1377.2</ele>
        <time>2021-08-09T08:20:47Z</time>
      </trkpt>
      <trkpt lat="44.42671" lon="6.4206">
        <ele>1377.2</ele>
        <time>2021-08-09T08:20:48Z</time>
      </trkpt>
      <trkpt lat="44.42678" lon="6.42051">
        <ele>1378.4</ele>
        <time>2021-08-09T08:20:54Z</time>
      </trkpt>
      <trkpt lat="44.42679" lon="6.42049">
        <ele>1378.4</ele>
        <time>2021-08-09T08:20:55Z</time>
      </trkpt>
      <trkpt lat="44.42683" lon="6.42042">
        <ele>1379.4</ele>
        <time>2021-08-09T08:20:59Z</time>
      </trkpt>
      <trkpt lat="44.42686" lon="6.42037">
        <ele>1380</ele>
        <time>2021-08-09T08:21:02Z</time>
      </trkpt>
      <trkpt lat="44.42689" lon="6.42032">
        <ele>1380.4</ele>
        <time>2021-08-09T08:21:05Z</time>
      </trkpt>
      <trkpt lat="44.42696" lon="6.42025">
        <ele>1381.4</ele>
        <time>2021-08-09T08:21:09Z</time>
      </trkpt>
      <trkpt lat="44.42698" lon="6.42023">
        <ele>1381.4</ele>
        <time>2021-08-09T08:21:10Z</time>
      </trkpt>
      <trkpt lat="44.42709" lon="6.42014">
        <ele>1382.4</ele>
        <time>2021-08-09T08:21:17Z</time>
      </trkpt>
      <trkpt lat="44.4271" lon="6.42013">
        <ele>1382.6</ele>
        <time>2021-08-09T08:21:18Z</time>
      </trkpt>
      <trkpt lat="44.42716" lon="6.42009">
        <ele>1383.4</ele>
        <time>2021-08-09T08:21:22Z</time>
      </trkpt>
      <trkpt lat="44.42724" lon="6.42004">
        <ele>1384.2</ele>
        <time>2021-08-09T08:21:27Z</time>
      </trkpt>
      <trkpt lat="44.42727" lon="6.42001">
        <ele>1384.6</ele>
        <time>2021-08-09T08:21:29Z</time>
      </trkpt>
      <trkpt lat="44.42736" lon="6.41994">
        <ele>1385.6</ele>
        <time>2021-08-09T08:21:35Z</time>
      </trkpt>
      <trkpt lat="44.42738" lon="6.41993">
        <ele>1386</ele>
        <time>2021-08-09T08:21:36Z</time>
      </trkpt>
      <trkpt lat="44.42747" lon="6.41983">
        <ele>1386.6</ele>
        <time>2021-08-09T08:21:41Z</time>
      </trkpt>
      <trkpt lat="44.4275" lon="6.41978">
        <ele>1386.8</ele>
        <time>2021-08-09T08:21:43Z</time>
      </trkpt>
      <trkpt lat="44.42759" lon="6.41964">
        <ele>1387.6</ele>
        <time>2021-08-09T08:21:49Z</time>
      </trkpt>
      <trkpt lat="44.42761" lon="6.41958">
        <ele>1388</ele>
        <time>2021-08-09T08:21:51Z</time>
      </trkpt>
      <trkpt lat="44.42769" lon="6.41942">
        <ele>1388.6</ele>
        <time>2021-08-09T08:21:57Z</time>
      </trkpt>
      <trkpt lat="44.42773" lon="6.41935">
        <ele>1389.4</ele>
        <time>2021-08-09T08:22:00Z</time>
      </trkpt>
      <trkpt lat="44.42775" lon="6.4193">
        <ele>1389.8</ele>
        <time>2021-08-09T08:22:02Z</time>
      </trkpt>
      <trkpt lat="44.42781" lon="6.41919">
        <ele>1390.6</ele>
        <time>2021-08-09T08:22:07Z</time>
      </trkpt>
      <trkpt lat="44.42782" lon="6.41917">
        <ele>1390.8</ele>
        <time>2021-08-09T08:22:08Z</time>
      </trkpt>
      <trkpt lat="44.42783" lon="6.41912">
        <ele>1391.2</ele>
        <time>2021-08-09T08:22:10Z</time>
      </trkpt>
      <trkpt lat="44.42781" lon="6.41908">
        <ele>1391.4</ele>
        <time>2021-08-09T08:22:12Z</time>
      </trkpt>
      <trkpt lat="44.42775" lon="6.41907">
        <ele>1391.8</ele>
        <time>2021-08-09T08:22:15Z</time>
      </trkpt>
      <trkpt lat="44.42773" lon="6.41909">
        <ele>1392</ele>
        <time>2021-08-09T08:22:16Z</time>
      </trkpt>
      <trkpt lat="44.42768" lon="6.41917">
        <ele>1392.8</ele>
        <time>2021-08-09T08:22:20Z</time>
      </trkpt>
      <trkpt lat="44.42764" lon="6.41924">
        <ele>1393</ele>
        <time>2021-08-09T08:22:23Z</time>
      </trkpt>
      <trkpt lat="44.42763" lon="6.41926">
        <ele>1393</ele>
        <time>2021-08-09T08:22:24Z</time>
      </trkpt>
      <trkpt lat="44.42753" lon="6.41943">
        <ele>1394</ele>
        <time>2021-08-09T08:22:32Z</time>
      </trkpt>
      <trkpt lat="44.42751" lon="6.41945">
        <ele>1394.4</ele>
        <time>2021-08-09T08:22:33Z</time>
      </trkpt>
      <trkpt lat="44.42744" lon="6.41954">
        <ele>1395</ele>
        <time>2021-08-09T08:22:38Z</time>
      </trkpt>
      <trkpt lat="44.42743" lon="6.41956">
        <ele>1395.4</ele>
        <time>2021-08-09T08:22:39Z</time>
      </trkpt>
      <trkpt lat="44.42738" lon="6.41961">
        <ele>1396.4</ele>
        <time>2021-08-09T08:22:42Z</time>
      </trkpt>
      <trkpt lat="44.4273" lon="6.41968">
        <ele>1396.8</ele>
        <time>2021-08-09T08:22:47Z</time>
      </trkpt>
      <trkpt lat="44.42727" lon="6.4197">
        <ele>1397.2</ele>
        <time>2021-08-09T08:22:49Z</time>
      </trkpt>
      <trkpt lat="44.42718" lon="6.41976">
        <ele>1398.2</ele>
        <time>2021-08-09T08:22:54Z</time>
      </trkpt>
      <trkpt lat="44.42715" lon="6.41978">
        <ele>1398.6</ele>
        <time>2021-08-09T08:22:56Z</time>
      </trkpt>
      <trkpt lat="44.42708" lon="6.41981">
        <ele>1399.4</ele>
        <time>2021-08-09T08:23:00Z</time>
      </trkpt>
      <trkpt lat="44.42699" lon="6.41988">
        <ele>1400.4</ele>
        <time>2021-08-09T08:23:05Z</time>
      </trkpt>
      <trkpt lat="44.42691" lon="6.41996">
        <ele>1401.6</ele>
        <time>2021-08-09T08:23:10Z</time>
      </trkpt>
      <trkpt lat="44.42688" lon="6.41998">
        <ele>1401.8</ele>
        <time>2021-08-09T08:23:11Z</time>
      </trkpt>
      <trkpt lat="44.42677" lon="6.42007">
        <ele>1402.8</ele>
        <time>2021-08-09T08:23:16Z</time>
      </trkpt>
      <trkpt lat="44.42665" lon="6.42015">
        <ele>1403.6</ele>
        <time>2021-08-09T08:23:21Z</time>
      </trkpt>
      <trkpt lat="44.42663" lon="6.42017">
        <ele>1403.8</ele>
        <time>2021-08-09T08:23:22Z</time>
      </trkpt>
      <trkpt lat="44.42649" lon="6.4203">
        <ele>1405.4</ele>
        <time>2021-08-09T08:23:29Z</time>
      </trkpt>
      <trkpt lat="44.42637" lon="6.42042">
        <ele>1406</ele>
        <time>2021-08-09T08:23:35Z</time>
      </trkpt>
      <trkpt lat="44.42632" lon="6.42044">
        <ele>1406.6</ele>
        <time>2021-08-09T08:23:37Z</time>
      </trkpt>
      <trkpt lat="44.42622" lon="6.42048">
        <ele>1407.4</ele>
        <time>2021-08-09T08:23:42Z</time>
      </trkpt>
      <trkpt lat="44.42616" lon="6.4205">
        <ele>1407.6</ele>
        <time>2021-08-09T08:23:45Z</time>
      </trkpt>
      <trkpt lat="44.42607" lon="6.4205">
        <ele>1408.2</ele>
        <time>2021-08-09T08:23:49Z</time>
      </trkpt>
      <trkpt lat="44.42603" lon="6.42049">
        <ele>1408.6</ele>
        <time>2021-08-09T08:23:51Z</time>
      </trkpt>
      <trkpt lat="44.42593" lon="6.42044">
        <ele>1409.6</ele>
        <time>2021-08-09T08:23:56Z</time>
      </trkpt>
      <trkpt lat="44.42585" lon="6.42041">
        <ele>1409.8</ele>
        <time>2021-08-09T08:23:59Z</time>
      </trkpt>
      <trkpt lat="44.42578" lon="6.4204">
        <ele>1410.4</ele>
        <time>2021-08-09T08:24:02Z</time>
      </trkpt>
      <trkpt lat="44.42573" lon="6.4204">
        <ele>1410.6</ele>
        <time>2021-08-09T08:24:04Z</time>
      </trkpt>
      <trkpt lat="44.42562" lon="6.4204">
        <ele>1410.4</ele>
        <time>2021-08-09T08:24:09Z</time>
      </trkpt>
      <trkpt lat="44.42558" lon="6.42041">
        <ele>1410.8</ele>
        <time>2021-08-09T08:24:11Z</time>
      </trkpt>
      <trkpt lat="44.42548" lon="6.42043">
        <ele>1411.8</ele>
        <time>2021-08-09T08:24:16Z</time>
      </trkpt>
      <trkpt lat="44.42539" lon="6.42045">
        <ele>1413</ele>
        <time>2021-08-09T08:24:21Z</time>
      </trkpt>
      <trkpt lat="44.42536" lon="6.42046">
        <ele>1413.4</ele>
        <time>2021-08-09T08:24:23Z</time>
      </trkpt>
      <trkpt lat="44.42533" lon="6.4205">
        <ele>1414</ele>
        <time>2021-08-09T08:24:25Z</time>
      </trkpt>
      <trkpt lat="44.42532" lon="6.42051">
        <ele>1414</ele>
        <time>2021-08-09T08:24:26Z</time>
      </trkpt>
      <trkpt lat="44.42528" lon="6.42053">
        <ele>1414.8</ele>
        <time>2021-08-09T08:24:28Z</time>
      </trkpt>
      <trkpt lat="44.42526" lon="6.42054">
        <ele>1415</ele>
        <time>2021-08-09T08:24:29Z</time>
      </trkpt>
      <trkpt lat="44.4252" lon="6.42055">
        <ele>1415.8</ele>
        <time>2021-08-09T08:24:32Z</time>
      </trkpt>
      <trkpt lat="44.42516" lon="6.42056">
        <ele>1416</ele>
        <time>2021-08-09T08:24:34Z</time>
      </trkpt>
      <trkpt lat="44.42507" lon="6.42058">
        <ele>1417.2</ele>
        <time>2021-08-09T08:24:39Z</time>
      </trkpt>
      <trkpt lat="44.42503" lon="6.42058">
        <ele>1417.6</ele>
        <time>2021-08-09T08:24:41Z</time>
      </trkpt>
      <trkpt lat="44.42498" lon="6.42058">
        <ele>1418.2</ele>
        <time>2021-08-09T08:24:44Z</time>
      </trkpt>
      <trkpt lat="44.42489" lon="6.4206">
        <ele>1419</ele>
        <time>2021-08-09T08:24:49Z</time>
      </trkpt>
      <trkpt lat="44.42484" lon="6.42062">
        <ele>1419.4</ele>
        <time>2021-08-09T08:24:52Z</time>
      </trkpt>
      <trkpt lat="44.42476" lon="6.42065">
        <ele>1420.2</ele>
        <time>2021-08-09T08:24:57Z</time>
      </trkpt>
      <trkpt lat="44.42474" lon="6.42066">
        <ele>1420.4</ele>
        <time>2021-08-09T08:24:58Z</time>
      </trkpt>
      <trkpt lat="44.42464" lon="6.4207">
        <ele>1421.2</ele>
        <time>2021-08-09T08:25:04Z</time>
      </trkpt>
      <trkpt lat="44.42459" lon="6.42071">
        <ele>1421.6</ele>
        <time>2021-08-09T08:25:07Z</time>
      </trkpt>
      <trkpt lat="44.42455" lon="6.42073">
        <ele>1422.4</ele>
        <time>2021-08-09T08:25:10Z</time>
      </trkpt>
      <trkpt lat="44.42444" lon="6.42075">
        <ele>1423.2</ele>
        <time>2021-08-09T08:25:16Z</time>
      </trkpt>
      <trkpt lat="44.42443" lon="6.42075">
        <ele>1423.6</ele>
        <time>2021-08-09T08:25:17Z</time>
      </trkpt>
      <trkpt lat="44.42434" lon="6.42078">
        <ele>1424.8</ele>
        <time>2021-08-09T08:25:22Z</time>
      </trkpt>
      <trkpt lat="44.42422" lon="6.42084">
        <ele>1425.6</ele>
        <time>2021-08-09T08:25:29Z</time>
      </trkpt>
      <trkpt lat="44.42418" lon="6.42088">
        <ele>1426</ele>
        <time>2021-08-09T08:25:32Z</time>
      </trkpt>
      <trkpt lat="44.42412" lon="6.42092">
        <ele>1426.8</ele>
        <time>2021-08-09T08:25:36Z</time>
      </trkpt>
      <trkpt lat="44.42409" lon="6.42094">
        <ele>1427</ele>
        <time>2021-08-09T08:25:38Z</time>
      </trkpt>
      <trkpt lat="44.42404" lon="6.42099">
        <ele>1427.8</ele>
        <time>2021-08-09T08:25:42Z</time>
      </trkpt>
      <trkpt lat="44.42396" lon="6.42105">
        <ele>1429</ele>
        <time>2021-08-09T08:25:47Z</time>
      </trkpt>
      <trkpt lat="44.42385" lon="6.42112">
        <ele>1430.2</ele>
        <time>2021-08-09T08:25:54Z</time>
      </trkpt>
      <trkpt lat="44.42381" lon="6.42114">
        <ele>1430.6</ele>
        <time>2021-08-09T08:25:56Z</time>
      </trkpt>
      <trkpt lat="44.42375" lon="6.42118">
        <ele>1431.2</ele>
        <time>2021-08-09T08:26:00Z</time>
      </trkpt>
      <trkpt lat="44.42366" lon="6.42122">
        <ele>1432</ele>
        <time>2021-08-09T08:26:05Z</time>
      </trkpt>
      <trkpt lat="44.42359" lon="6.42125">
        <ele>1432.2</ele>
        <time>2021-08-09T08:26:09Z</time>
      </trkpt>
      <trkpt lat="44.42348" lon="6.42129">
        <ele>1433.2</ele>
        <time>2021-08-09T08:26:15Z</time>
      </trkpt>
      <trkpt lat="44.42347" lon="6.42129">
        <ele>1433.4</ele>
        <time>2021-08-09T08:26:16Z</time>
      </trkpt>
      <trkpt lat="44.4234" lon="6.42132">
        <ele>1434</ele>
        <time>2021-08-09T08:26:20Z</time>
      </trkpt>
      <trkpt lat="44.42335" lon="6.42135">
        <ele>1434.4</ele>
        <time>2021-08-09T08:26:23Z</time>
      </trkpt>
      <trkpt lat="44.42325" lon="6.42143">
        <ele>1435.6</ele>
        <time>2021-08-09T08:26:29Z</time>
      </trkpt>
      <trkpt lat="44.42323" lon="6.42144">
        <ele>1435.6</ele>
        <time>2021-08-09T08:26:30Z</time>
      </trkpt>
      <trkpt lat="44.42311" lon="6.42154">
        <ele>1436.6</ele>
        <time>2021-08-09T08:26:37Z</time>
      </trkpt>
      <trkpt lat="44.42309" lon="6.42156">
        <ele>1436.8</ele>
        <time>2021-08-09T08:26:38Z</time>
      </trkpt>
      <trkpt lat="44.42297" lon="6.42167">
        <ele>1437.6</ele>
        <time>2021-08-09T08:26:45Z</time>
      </trkpt>
      <trkpt lat="44.42293" lon="6.4217">
        <ele>1438</ele>
        <time>2021-08-09T08:26:47Z</time>
      </trkpt>
      <trkpt lat="44.42288" lon="6.42175">
        <ele>1438.6</ele>
        <time>2021-08-09T08:26:50Z</time>
      </trkpt>
      <trkpt lat="44.42282" lon="6.42181">
        <ele>1439.4</ele>
        <time>2021-08-09T08:26:54Z</time>
      </trkpt>
      <trkpt lat="44.4228" lon="6.42183">
        <ele>1439.6</ele>
        <time>2021-08-09T08:26:55Z</time>
      </trkpt>
      <trkpt lat="44.4227" lon="6.42192">
        <ele>1440.6</ele>
        <time>2021-08-09T08:27:01Z</time>
      </trkpt>
      <trkpt lat="44.42262" lon="6.42199">
        <ele>1441.6</ele>
        <time>2021-08-09T08:27:06Z</time>
      </trkpt>
      <trkpt lat="44.4226" lon="6.422">
        <ele>1441.6</ele>
        <time>2021-08-09T08:27:07Z</time>
      </trkpt>
      <trkpt lat="44.42253" lon="6.42211">
        <ele>1442.8</ele>
        <time>2021-08-09T08:27:12Z</time>
      </trkpt>
      <trkpt lat="44.42249" lon="6.42217">
        <ele>1443.2</ele>
        <time>2021-08-09T08:27:15Z</time>
      </trkpt>
      <trkpt lat="44.42242" lon="6.42226">
        <ele>1444</ele>
        <time>2021-08-09T08:27:20Z</time>
      </trkpt>
      <trkpt lat="44.42237" lon="6.42231">
        <ele>1444.8</ele>
        <time>2021-08-09T08:27:23Z</time>
      </trkpt>
      <trkpt lat="44.42235" lon="6.42232">
        <ele>1445.2</ele>
        <time>2021-08-09T08:27:24Z</time>
      </trkpt>
      <trkpt lat="44.42226" lon="6.42238">
        <ele>1446.2</ele>
        <time>2021-08-09T08:27:29Z</time>
      </trkpt>
      <trkpt lat="44.42224" lon="6.42239">
        <ele>1446.4</ele>
        <time>2021-08-09T08:27:30Z</time>
      </trkpt>
      <trkpt lat="44.42216" lon="6.42242">
        <ele>1447.2</ele>
        <time>2021-08-09T08:27:34Z</time>
      </trkpt>
      <trkpt lat="44.42205" lon="6.42246">
        <ele>1448.4</ele>
        <time>2021-08-09T08:27:40Z</time>
      </trkpt>
      <trkpt lat="44.42196" lon="6.4225">
        <ele>1449.4</ele>
        <time>2021-08-09T08:27:45Z</time>
      </trkpt>
      <trkpt lat="44.4219" lon="6.42253">
        <ele>1450</ele>
        <time>2021-08-09T08:27:48Z</time>
      </trkpt>
      <trkpt lat="44.42187" lon="6.42256">
        <ele>1450.6</ele>
        <time>2021-08-09T08:27:50Z</time>
      </trkpt>
      <trkpt lat="44.42178" lon="6.42263">
        <ele>1451.2</ele>
        <time>2021-08-09T08:27:55Z</time>
      </trkpt>
      <trkpt lat="44.42175" lon="6.42266">
        <ele>1451.6</ele>
        <time>2021-08-09T08:27:57Z</time>
      </trkpt>
      <trkpt lat="44.42165" lon="6.42276">
        <ele>1452.6</ele>
        <time>2021-08-09T08:28:03Z</time>
      </trkpt>
      <trkpt lat="44.42151" lon="6.42288">
        <ele>1453.6</ele>
        <time>2021-08-09T08:28:11Z</time>
      </trkpt>
      <trkpt lat="44.42149" lon="6.42289">
        <ele>1453.8</ele>
        <time>2021-08-09T08:28:12Z</time>
      </trkpt>
      <trkpt lat="44.42141" lon="6.42299">
        <ele>1454.6</ele>
        <time>2021-08-09T08:28:17Z</time>
      </trkpt>
      <trkpt lat="44.42134" lon="6.42306">
        <ele>1455.4</ele>
        <time>2021-08-09T08:28:21Z</time>
      </trkpt>
      <trkpt lat="44.42132" lon="6.42308">
        <ele>1455.4</ele>
        <time>2021-08-09T08:28:22Z</time>
      </trkpt>
      <trkpt lat="44.42124" lon="6.4232">
        <ele>1456.4</ele>
        <time>2021-08-09T08:28:28Z</time>
      </trkpt>
      <trkpt lat="44.42121" lon="6.42324">
        <ele>1456.6</ele>
        <time>2021-08-09T08:28:30Z</time>
      </trkpt>
      <trkpt lat="44.42115" lon="6.42337">
        <ele>1457.6</ele>
        <time>2021-08-09T08:28:36Z</time>
      </trkpt>
      <trkpt lat="44.42105" lon="6.42347">
        <ele>1458.6</ele>
        <time>2021-08-09T08:28:42Z</time>
      </trkpt>
      <trkpt lat="44.42104" lon="6.42349">
        <ele>1458.8</ele>
        <time>2021-08-09T08:28:43Z</time>
      </trkpt>
      <trkpt lat="44.42097" lon="6.42355">
        <ele>1460</ele>
        <time>2021-08-09T08:28:47Z</time>
      </trkpt>
      <trkpt lat="44.42091" lon="6.42358">
        <ele>1460.6</ele>
        <time>2021-08-09T08:28:50Z</time>
      </trkpt>
      <trkpt lat="44.42086" lon="6.42363">
        <ele>1461.2</ele>
        <time>2021-08-09T08:28:53Z</time>
      </trkpt>
      <trkpt lat="44.42076" lon="6.42372">
        <ele>1461.6</ele>
        <time>2021-08-09T08:28:57Z</time>
      </trkpt>
      <trkpt lat="44.42064" lon="6.42384">
        <ele>1462</ele>
        <time>2021-08-09T08:29:01Z</time>
      </trkpt>
      <trkpt lat="44.42061" lon="6.42386">
        <ele>1462.2</ele>
        <time>2021-08-09T08:29:02Z</time>
      </trkpt>
      <trkpt lat="44.42047" lon="6.424">
        <ele>1462.8</ele>
        <time>2021-08-09T08:29:08Z</time>
      </trkpt>
      <trkpt lat="44.42044" lon="6.42402">
        <ele>1463.2</ele>
        <time>2021-08-09T08:29:09Z</time>
      </trkpt>
      <trkpt lat="44.42038" lon="6.42408">
        <ele>1464</ele>
        <time>2021-08-09T08:29:12Z</time>
      </trkpt>
      <trkpt lat="44.42029" lon="6.42415">
        <ele>1465.2</ele>
        <time>2021-08-09T08:29:16Z</time>
      </trkpt>
      <trkpt lat="44.42021" lon="6.42422">
        <ele>1466.2</ele>
        <time>2021-08-09T08:29:20Z</time>
      </trkpt>
      <trkpt lat="44.42014" lon="6.4243">
        <ele>1466.8</ele>
        <time>2021-08-09T08:29:24Z</time>
      </trkpt>
      <trkpt lat="44.4201" lon="6.42437">
        <ele>1467.2</ele>
        <time>2021-08-09T08:29:27Z</time>
      </trkpt>
      <trkpt lat="44.42001" lon="6.42447">
        <ele>1468</ele>
        <time>2021-08-09T08:29:32Z</time>
      </trkpt>
      <trkpt lat="44.41999" lon="6.42448">
        <ele>1468.2</ele>
        <time>2021-08-09T08:29:33Z</time>
      </trkpt>
      <trkpt lat="44.41986" lon="6.42458">
        <ele>1469.2</ele>
        <time>2021-08-09T08:29:40Z</time>
      </trkpt>
      <trkpt lat="44.41976" lon="6.4247">
        <ele>1470.2</ele>
        <time>2021-08-09T08:29:46Z</time>
      </trkpt>
      <trkpt lat="44.41973" lon="6.42474">
        <ele>1470.6</ele>
        <time>2021-08-09T08:29:48Z</time>
      </trkpt>
      <trkpt lat="44.41966" lon="6.42479">
        <ele>1471.4</ele>
        <time>2021-08-09T08:29:52Z</time>
      </trkpt>
      <trkpt lat="44.41956" lon="6.42486">
        <ele>1472.2</ele>
        <time>2021-08-09T08:29:57Z</time>
      </trkpt>
      <trkpt lat="44.41954" lon="6.42488">
        <ele>1472.2</ele>
        <time>2021-08-09T08:29:58Z</time>
      </trkpt>
      <trkpt lat="44.4194" lon="6.42495">
        <ele>1473.4</ele>
        <time>2021-08-09T08:30:04Z</time>
      </trkpt>
      <trkpt lat="44.41925" lon="6.42506">
        <ele>1474.2</ele>
        <time>2021-08-09T08:30:10Z</time>
      </trkpt>
      <trkpt lat="44.41921" lon="6.4251">
        <ele>1474.4</ele>
        <time>2021-08-09T08:30:12Z</time>
      </trkpt>
      <trkpt lat="44.41914" lon="6.42516">
        <ele>1475.4</ele>
        <time>2021-08-09T08:30:16Z</time>
      </trkpt>
      <trkpt lat="44.41912" lon="6.42517">
        <ele>1475.8</ele>
        <time>2021-08-09T08:30:17Z</time>
      </trkpt>
      <trkpt lat="44.41906" lon="6.4252">
        <ele>1476.6</ele>
        <time>2021-08-09T08:30:20Z</time>
      </trkpt>
      <trkpt lat="44.41899" lon="6.42521">
        <ele>1477.2</ele>
        <time>2021-08-09T08:30:23Z</time>
      </trkpt>
      <trkpt lat="44.41894" lon="6.42523">
        <ele>1477.6</ele>
        <time>2021-08-09T08:30:26Z</time>
      </trkpt>
      <trkpt lat="44.41892" lon="6.42524">
        <ele>1477.8</ele>
        <time>2021-08-09T08:30:27Z</time>
      </trkpt>
      <trkpt lat="44.41873" lon="6.4253">
        <ele>1478.2</ele>
        <time>2021-08-09T08:30:36Z</time>
      </trkpt>
      <trkpt lat="44.41867" lon="6.42534">
        <ele>1478.8</ele>
        <time>2021-08-09T08:30:39Z</time>
      </trkpt>
      <trkpt lat="44.41857" lon="6.42539">
        <ele>1479.8</ele>
        <time>2021-08-09T08:30:44Z</time>
      </trkpt>
      <trkpt lat="44.41855" lon="6.4254">
        <ele>1479.8</ele>
        <time>2021-08-09T08:30:45Z</time>
      </trkpt>
      <trkpt lat="44.41844" lon="6.42545">
        <ele>1480.6</ele>
        <time>2021-08-09T08:30:51Z</time>
      </trkpt>
      <trkpt lat="44.41842" lon="6.42546">
        <ele>1480.8</ele>
        <time>2021-08-09T08:30:52Z</time>
      </trkpt>
      <trkpt lat="44.41833" lon="6.42549">
        <ele>1481.8</ele>
        <time>2021-08-09T08:30:57Z</time>
      </trkpt>
      <trkpt lat="44.41826" lon="6.42552">
        <ele>1482.6</ele>
        <time>2021-08-09T08:31:01Z</time>
      </trkpt>
      <trkpt lat="44.41824" lon="6.42553">
        <ele>1483</ele>
        <time>2021-08-09T08:31:02Z</time>
      </trkpt>
      <trkpt lat="44.41815" lon="6.42558">
        <ele>1483.6</ele>
        <time>2021-08-09T08:31:05Z</time>
      </trkpt>
      <trkpt lat="44.41811" lon="6.4256">
        <ele>1483.8</ele>
        <time>2021-08-09T08:31:07Z</time>
      </trkpt>
      <trkpt lat="44.41799" lon="6.42566">
        <ele>1484.8</ele>
        <time>2021-08-09T08:31:13Z</time>
      </trkpt>
      <trkpt lat="44.41797" lon="6.42566">
        <ele>1485.2</ele>
        <time>2021-08-09T08:31:14Z</time>
      </trkpt>
      <trkpt lat="44.4179" lon="6.42571">
        <ele>1486</ele>
        <time>2021-08-09T08:31:18Z</time>
      </trkpt>
      <trkpt lat="44.41785" lon="6.42578">
        <ele>1486.6</ele>
        <time>2021-08-09T08:31:22Z</time>
      </trkpt>
      <trkpt lat="44.41783" lon="6.42581">
        <ele>1487</ele>
        <time>2021-08-09T08:31:24Z</time>
      </trkpt>
      <trkpt lat="44.41779" lon="6.42586">
        <ele>1488.2</ele>
        <time>2021-08-09T08:31:27Z</time>
      </trkpt>
      <trkpt lat="44.41776" lon="6.42592">
        <ele>1489</ele>
        <time>2021-08-09T08:31:30Z</time>
      </trkpt>
      <trkpt lat="44.41775" lon="6.42594">
        <ele>1489.2</ele>
        <time>2021-08-09T08:31:31Z</time>
      </trkpt>
      <trkpt lat="44.41769" lon="6.42603">
        <ele>1490.2</ele>
        <time>2021-08-09T08:31:36Z</time>
      </trkpt>
      <trkpt lat="44.41768" lon="6.42605">
        <ele>1490.4</ele>
        <time>2021-08-09T08:31:37Z</time>
      </trkpt>
      <trkpt lat="44.41758" lon="6.42613">
        <ele>1491.2</ele>
        <time>2021-08-09T08:31:44Z</time>
      </trkpt>
      <trkpt lat="44.41756" lon="6.42614">
        <ele>1491.4</ele>
        <time>2021-08-09T08:31:45Z</time>
      </trkpt>
      <trkpt lat="44.4175" lon="6.42618">
        <ele>1492.4</ele>
        <time>2021-08-09T08:31:49Z</time>
      </trkpt>
      <trkpt lat="44.41746" lon="6.42621">
        <ele>1492.8</ele>
        <time>2021-08-09T08:31:52Z</time>
      </trkpt>
      <trkpt lat="44.41742" lon="6.42625">
        <ele>1493.4</ele>
        <time>2021-08-09T08:31:55Z</time>
      </trkpt>
      <trkpt lat="44.41734" lon="6.42631">
        <ele>1494.2</ele>
        <time>2021-08-09T08:32:00Z</time>
      </trkpt>
      <trkpt lat="44.41732" lon="6.42633">
        <ele>1494.6</ele>
        <time>2021-08-09T08:32:02Z</time>
      </trkpt>
      <trkpt lat="44.41725" lon="6.42641">
        <ele>1495.6</ele>
        <time>2021-08-09T08:32:07Z</time>
      </trkpt>
      <trkpt lat="44.41717" lon="6.42649">
        <ele>1496.6</ele>
        <time>2021-08-09T08:32:13Z</time>
      </trkpt>
      <trkpt lat="44.41714" lon="6.42652">
        <ele>1496.8</ele>
        <time>2021-08-09T08:32:15Z</time>
      </trkpt>
      <trkpt lat="44.41709" lon="6.42657">
        <ele>1497.6</ele>
        <time>2021-08-09T08:32:19Z</time>
      </trkpt>
      <trkpt lat="44.41703" lon="6.42662">
        <ele>1498.4</ele>
        <time>2021-08-09T08:32:23Z</time>
      </trkpt>
      <trkpt lat="44.417" lon="6.42664">
        <ele>1498.8</ele>
        <time>2021-08-09T08:32:25Z</time>
      </trkpt>
      <trkpt lat="44.41692" lon="6.4267">
        <ele>1499.8</ele>
        <time>2021-08-09T08:32:30Z</time>
      </trkpt>
      <trkpt lat="44.41691" lon="6.42671">
        <ele>1500.2</ele>
        <time>2021-08-09T08:32:31Z</time>
      </trkpt>
      <trkpt lat="44.41685" lon="6.42677">
        <ele>1501</ele>
        <time>2021-08-09T08:32:35Z</time>
      </trkpt>
      <trkpt lat="44.4168" lon="6.42681">
        <ele>1501.6</ele>
        <time>2021-08-09T08:32:38Z</time>
      </trkpt>
      <trkpt lat="44.41677" lon="6.42684">
        <ele>1502</ele>
        <time>2021-08-09T08:32:40Z</time>
      </trkpt>
      <trkpt lat="44.4167" lon="6.42691">
        <ele>1503</ele>
        <time>2021-08-09T08:32:45Z</time>
      </trkpt>
      <trkpt lat="44.41669" lon="6.42693">
        <ele>1503.2</ele>
        <time>2021-08-09T08:32:46Z</time>
      </trkpt>
      <trkpt lat="44.41661" lon="6.427">
        <ele>1504.4</ele>
        <time>2021-08-09T08:32:52Z</time>
      </trkpt>
      <trkpt lat="44.41658" lon="6.42702">
        <ele>1504.8</ele>
        <time>2021-08-09T08:32:54Z</time>
      </trkpt>
      <trkpt lat="44.41654" lon="6.42705">
        <ele>1505.6</ele>
        <time>2021-08-09T08:32:58Z</time>
      </trkpt>
      <trkpt lat="44.41648" lon="6.42709">
        <ele>1506.4</ele>
        <time>2021-08-09T08:33:02Z</time>
      </trkpt>
      <trkpt lat="44.41646" lon="6.42712">
        <ele>1506.8</ele>
        <time>2021-08-09T08:33:04Z</time>
      </trkpt>
      <trkpt lat="44.41641" lon="6.42715">
        <ele>1507.6</ele>
        <time>2021-08-09T08:33:07Z</time>
      </trkpt>
      <trkpt lat="44.41639" lon="6.42717">
        <ele>1508</ele>
        <time>2021-08-09T08:33:09Z</time>
      </trkpt>
      <trkpt lat="44.41631" lon="6.42723">
        <ele>1508.8</ele>
        <time>2021-08-09T08:33:14Z</time>
      </trkpt>
      <trkpt lat="44.41629" lon="6.42724">
        <ele>1509.2</ele>
        <time>2021-08-09T08:33:15Z</time>
      </trkpt>
      <trkpt lat="44.41618" lon="6.42729">
        <ele>1510.2</ele>
        <time>2021-08-09T08:33:22Z</time>
      </trkpt>
      <trkpt lat="44.41616" lon="6.42729">
        <ele>1510.4</ele>
        <time>2021-08-09T08:33:23Z</time>
      </trkpt>
      <trkpt lat="44.41606" lon="6.42731">
        <ele>1511.2</ele>
        <time>2021-08-09T08:33:29Z</time>
      </trkpt>
      <trkpt lat="44.41605" lon="6.42731">
        <ele>1511.4</ele>
        <time>2021-08-09T08:33:30Z</time>
      </trkpt>
      <trkpt lat="44.41598" lon="6.42732">
        <ele>1512.6</ele>
        <time>2021-08-09T08:33:34Z</time>
      </trkpt>
      <trkpt lat="44.41593" lon="6.42734">
        <ele>1513</ele>
        <time>2021-08-09T08:33:37Z</time>
      </trkpt>
      <trkpt lat="44.41588" lon="6.42736">
        <ele>1513.6</ele>
        <time>2021-08-09T08:33:40Z</time>
      </trkpt>
      <trkpt lat="44.4158" lon="6.4274">
        <ele>1514.4</ele>
        <time>2021-08-09T08:33:45Z</time>
      </trkpt>
      <trkpt lat="44.41579" lon="6.4274">
        <ele>1514.6</ele>
        <time>2021-08-09T08:33:46Z</time>
      </trkpt>
      <trkpt lat="44.41569" lon="6.42746">
        <ele>1515.6</ele>
        <time>2021-08-09T08:33:52Z</time>
      </trkpt>
      <trkpt lat="44.41559" lon="6.42751">
        <ele>1516.6</ele>
        <time>2021-08-09T08:33:58Z</time>
      </trkpt>
      <trkpt lat="44.41557" lon="6.42752">
        <ele>1516.8</ele>
        <time>2021-08-09T08:33:59Z</time>
      </trkpt>
      <trkpt lat="44.4155" lon="6.42755">
        <ele>1517.8</ele>
        <time>2021-08-09T08:34:03Z</time>
      </trkpt>
      <trkpt lat="44.41541" lon="6.42757">
        <ele>1518.4</ele>
        <time>2021-08-09T08:34:08Z</time>
      </trkpt>
      <trkpt lat="44.41535" lon="6.42754">
        <ele>1518.8</ele>
        <time>2021-08-09T08:34:12Z</time>
      </trkpt>
      <trkpt lat="44.41532" lon="6.42751">
        <ele>1519.4</ele>
        <time>2021-08-09T08:34:14Z</time>
      </trkpt>
      <trkpt lat="44.4153" lon="6.42738">
        <ele>1520</ele>
        <time>2021-08-09T08:34:19Z</time>
      </trkpt>
      <trkpt lat="44.41531" lon="6.42735">
        <ele>1520.2</ele>
        <time>2021-08-09T08:34:20Z</time>
      </trkpt>
      <trkpt lat="44.41538" lon="6.42725">
        <ele>1520.6</ele>
        <time>2021-08-09T08:34:25Z</time>
      </trkpt>
      <trkpt lat="44.41541" lon="6.42722">
        <ele>1521</ele>
        <time>2021-08-09T08:34:27Z</time>
      </trkpt>
      <trkpt lat="44.4155" lon="6.42715">
        <ele>1522</ele>
        <time>2021-08-09T08:34:32Z</time>
      </trkpt>
      <trkpt lat="44.41553" lon="6.42712">
        <ele>1522.6</ele>
        <time>2021-08-09T08:34:34Z</time>
      </trkpt>
      <trkpt lat="44.41558" lon="6.42708">
        <ele>1523.2</ele>
        <time>2021-08-09T08:34:37Z</time>
      </trkpt>
      <trkpt lat="44.41565" lon="6.42701">
        <ele>1524.4</ele>
        <time>2021-08-09T08:34:42Z</time>
      </trkpt>
      <trkpt lat="44.41572" lon="6.42693">
        <ele>1525.6</ele>
        <time>2021-08-09T08:34:47Z</time>
      </trkpt>
      <trkpt lat="44.41573" lon="6.42692">
        <ele>1525.6</ele>
        <time>2021-08-09T08:34:48Z</time>
      </trkpt>
      <trkpt lat="44.41578" lon="6.42686">
        <ele>1526.6</ele>
        <time>2021-08-09T08:34:52Z</time>
      </trkpt>
      <trkpt lat="44.41583" lon="6.42681">
        <ele>1527</ele>
        <time>2021-08-09T08:34:55Z</time>
      </trkpt>
      <trkpt lat="44.41588" lon="6.42675">
        <ele>1527.6</ele>
        <time>2021-08-09T08:34:59Z</time>
      </trkpt>
      <trkpt lat="44.41593" lon="6.42671">
        <ele>1528.8</ele>
        <time>2021-08-09T08:35:03Z</time>
      </trkpt>
      <trkpt lat="44.41595" lon="6.42669">
        <ele>1528.8</ele>
        <time>2021-08-09T08:35:04Z</time>
      </trkpt>
      <trkpt lat="44.41605" lon="6.42662">
        <ele>1529.8</ele>
        <time>2021-08-09T08:35:11Z</time>
      </trkpt>
      <trkpt lat="44.41606" lon="6.4266">
        <ele>1530</ele>
        <time>2021-08-09T08:35:12Z</time>
      </trkpt>
      <trkpt lat="44.41613" lon="6.42654">
        <ele>1530.8</ele>
        <time>2021-08-09T08:35:17Z</time>
      </trkpt>
      <trkpt lat="44.41619" lon="6.42649">
        <ele>1531.8</ele>
        <time>2021-08-09T08:35:21Z</time>
      </trkpt>
      <trkpt lat="44.41621" lon="6.42646">
        <ele>1532.4</ele>
        <time>2021-08-09T08:35:23Z</time>
      </trkpt>
      <trkpt lat="44.41625" lon="6.42641">
        <ele>1533</ele>
        <time>2021-08-09T08:35:26Z</time>
      </trkpt>
      <trkpt lat="44.41631" lon="6.42634">
        <ele>1533.8</ele>
        <time>2021-08-09T08:35:31Z</time>
      </trkpt>
      <trkpt lat="44.41632" lon="6.42632">
        <ele>1534</ele>
        <time>2021-08-09T08:35:32Z</time>
      </trkpt>
      <trkpt lat="44.4164" lon="6.42622">
        <ele>1534.8</ele>
        <time>2021-08-09T08:35:38Z</time>
      </trkpt>
      <trkpt lat="44.41642" lon="6.42619">
        <ele>1535</ele>
        <time>2021-08-09T08:35:40Z</time>
      </trkpt>
      <trkpt lat="44.41651" lon="6.42607">
        <ele>1536</ele>
        <time>2021-08-09T08:35:47Z</time>
      </trkpt>
      <trkpt lat="44.41653" lon="6.42605">
        <ele>1536.4</ele>
        <time>2021-08-09T08:35:48Z</time>
      </trkpt>
      <trkpt lat="44.41658" lon="6.426">
        <ele>1537.2</ele>
        <time>2021-08-09T08:35:52Z</time>
      </trkpt>
      <trkpt lat="44.41663" lon="6.42594">
        <ele>1537.6</ele>
        <time>2021-08-09T08:35:56Z</time>
      </trkpt>
      <trkpt lat="44.41666" lon="6.42591">
        <ele>1538.2</ele>
        <time>2021-08-09T08:35:58Z</time>
      </trkpt>
      <trkpt lat="44.41675" lon="6.4258">
        <ele>1539.4</ele>
        <time>2021-08-09T08:36:05Z</time>
      </trkpt>
      <trkpt lat="44.41676" lon="6.42578">
        <ele>1539.4</ele>
        <time>2021-08-09T08:36:06Z</time>
      </trkpt>
      <trkpt lat="44.41685" lon="6.42565">
        <ele>1540.4</ele>
        <time>2021-08-09T08:36:13Z</time>
      </trkpt>
      <trkpt lat="44.41692" lon="6.42552">
        <ele>1541.2</ele>
        <time>2021-08-09T08:36:18Z</time>
      </trkpt>
      <trkpt lat="44.41692" lon="6.42549">
        <ele>1541.4</ele>
        <time>2021-08-09T08:36:19Z</time>
      </trkpt>
      <trkpt lat="44.41687" lon="6.42543">
        <ele>1542</ele>
        <time>2021-08-09T08:36:23Z</time>
      </trkpt>
      <trkpt lat="44.41683" lon="6.42546">
        <ele>1542.6</ele>
        <time>2021-08-09T08:36:25Z</time>
      </trkpt>
      <trkpt lat="44.4168" lon="6.4255">
        <ele>1542.8</ele>
        <time>2021-08-09T08:36:27Z</time>
      </trkpt>
      <trkpt lat="44.41673" lon="6.42563">
        <ele>1543.6</ele>
        <time>2021-08-09T08:36:33Z</time>
      </trkpt>
      <trkpt lat="44.41671" lon="6.42565">
        <ele>1543.8</ele>
        <time>2021-08-09T08:36:34Z</time>
      </trkpt>
      <trkpt lat="44.41659" lon="6.42576">
        <ele>1544.6</ele>
        <time>2021-08-09T08:36:41Z</time>
      </trkpt>
      <trkpt lat="44.41658" lon="6.42578">
        <ele>1544.8</ele>
        <time>2021-08-09T08:36:42Z</time>
      </trkpt>
      <trkpt lat="44.41646" lon="6.42583">
        <ele>1545.6</ele>
        <time>2021-08-09T08:36:48Z</time>
      </trkpt>
      <trkpt lat="44.41644" lon="6.42583">
        <ele>1545.8</ele>
        <time>2021-08-09T08:36:49Z</time>
      </trkpt>
      <trkpt lat="44.41633" lon="6.42585">
        <ele>1547</ele>
        <time>2021-08-09T08:36:55Z</time>
      </trkpt>
      <trkpt lat="44.41622" lon="6.42587">
        <ele>1548.4</ele>
        <time>2021-08-09T08:37:01Z</time>
      </trkpt>
      <trkpt lat="44.41621" lon="6.42588">
        <ele>1548.6</ele>
        <time>2021-08-09T08:37:02Z</time>
      </trkpt>
      <trkpt lat="44.41618" lon="6.4259">
        <ele>1549.4</ele>
        <time>2021-08-09T08:37:05Z</time>
      </trkpt>
      <trkpt lat="44.41618" lon="6.42589">
        <ele>1550</ele>
        <time>2021-08-09T08:37:07Z</time>
      </trkpt>
      <trkpt lat="44.41613" lon="6.42588">
        <ele>1550</ele>
        <time>2021-08-09T08:48:51Z</time>
      </trkpt>
      <trkpt lat="44.41607" lon="6.42583">
        <ele>1550</ele>
        <time>2021-08-09T08:48:57Z</time>
      </trkpt>
      <trkpt lat="44.41605" lon="6.42582">
        <ele>1550</ele>
        <time>2021-08-09T08:48:59Z</time>
      </trkpt>
      <trkpt lat="44.41596" lon="6.42577">
        <ele>1550.6</ele>
        <time>2021-08-09T08:49:05Z</time>
      </trkpt>
      <trkpt lat="44.41589" lon="6.42575">
        <ele>1551</ele>
        <time>2021-08-09T08:49:09Z</time>
      </trkpt>
      <trkpt lat="44.41584" lon="6.42573">
        <ele>1551.8</ele>
        <time>2021-08-09T08:49:13Z</time>
      </trkpt>
      <trkpt lat="44.41577" lon="6.4257">
        <ele>1552.2</ele>
        <time>2021-08-09T08:49:18Z</time>
      </trkpt>
      <trkpt lat="44.41574" lon="6.42568">
        <ele>1552.6</ele>
        <time>2021-08-09T08:49:21Z</time>
      </trkpt>
      <trkpt lat="44.41568" lon="6.42566">
        <ele>1553.2</ele>
        <time>2021-08-09T08:49:25Z</time>
      </trkpt>
      <trkpt lat="44.41563" lon="6.42564">
        <ele>1554.2</ele>
        <time>2021-08-09T08:49:29Z</time>
      </trkpt>
      <trkpt lat="44.41561" lon="6.42563">
        <ele>1554.4</ele>
        <time>2021-08-09T08:49:30Z</time>
      </trkpt>
      <trkpt lat="44.41557" lon="6.4256">
        <ele>1555.4</ele>
        <time>2021-08-09T08:49:34Z</time>
      </trkpt>
      <trkpt lat="44.41552" lon="6.42559">
        <ele>1555.8</ele>
        <time>2021-08-09T08:49:37Z</time>
      </trkpt>
      <trkpt lat="44.41549" lon="6.42558">
        <ele>1556.4</ele>
        <time>2021-08-09T08:49:39Z</time>
      </trkpt>
      <trkpt lat="44.4154" lon="6.42557">
        <ele>1557.4</ele>
        <time>2021-08-09T08:49:45Z</time>
      </trkpt>
      <trkpt lat="44.41534" lon="6.42554">
        <ele>1558.6</ele>
        <time>2021-08-09T08:49:50Z</time>
      </trkpt>
      <trkpt lat="44.41531" lon="6.42553">
        <ele>1559</ele>
        <time>2021-08-09T08:49:52Z</time>
      </trkpt>
      <trkpt lat="44.41527" lon="6.42552">
        <ele>1559.4</ele>
        <time>2021-08-09T08:49:55Z</time>
      </trkpt>
      <trkpt lat="44.4152" lon="6.42549">
        <ele>1560.2</ele>
        <time>2021-08-09T08:50:00Z</time>
      </trkpt>
      <trkpt lat="44.41519" lon="6.42549">
        <ele>1560.4</ele>
        <time>2021-08-09T08:50:01Z</time>
      </trkpt>
      <trkpt lat="44.41512" lon="6.42549">
        <ele>1561.2</ele>
        <time>2021-08-09T08:50:06Z</time>
      </trkpt>
      <trkpt lat="44.4151" lon="6.42548">
        <ele>1561.6</ele>
        <time>2021-08-09T08:50:08Z</time>
      </trkpt>
      <trkpt lat="44.41504" lon="6.42548">
        <ele>1562.8</ele>
        <time>2021-08-09T08:50:12Z</time>
      </trkpt>
      <trkpt lat="44.41502" lon="6.42547">
        <ele>1563</ele>
        <time>2021-08-09T08:50:13Z</time>
      </trkpt>
      <trkpt lat="44.41495" lon="6.42546">
        <ele>1563.8</ele>
        <time>2021-08-09T08:50:17Z</time>
      </trkpt>
      <trkpt lat="44.4149" lon="6.42547">
        <ele>1564.4</ele>
        <time>2021-08-09T08:50:20Z</time>
      </trkpt>
      <trkpt lat="44.41485" lon="6.42547">
        <ele>1564.8</ele>
        <time>2021-08-09T08:50:23Z</time>
      </trkpt>
      <trkpt lat="44.41481" lon="6.42548">
        <ele>1565.2</ele>
        <time>2021-08-09T08:50:25Z</time>
      </trkpt>
      <trkpt lat="44.41478" lon="6.4255">
        <ele>1565.4</ele>
        <time>2021-08-09T08:50:27Z</time>
      </trkpt>
      <trkpt lat="44.41474" lon="6.42553">
        <ele>1565.8</ele>
        <time>2021-08-09T08:50:30Z</time>
      </trkpt>
      <trkpt lat="44.41466" lon="6.42558">
        <ele>1566.2</ele>
        <time>2021-08-09T08:50:35Z</time>
      </trkpt>
      <trkpt lat="44.41458" lon="6.42563">
        <ele>1566.8</ele>
        <time>2021-08-09T08:50:39Z</time>
      </trkpt>
      <trkpt lat="44.41452" lon="6.42568">
        <ele>1567.2</ele>
        <time>2021-08-09T08:50:42Z</time>
      </trkpt>
      <trkpt lat="44.41435" lon="6.42581">
        <ele>1567.4</ele>
        <time>2021-08-09T08:50:51Z</time>
      </trkpt>
      <trkpt lat="44.41429" lon="6.42586">
        <ele>1567.6</ele>
        <time>2021-08-09T08:50:55Z</time>
      </trkpt>
      <trkpt lat="44.41424" lon="6.4259">
        <ele>1568.2</ele>
        <time>2021-08-09T08:50:58Z</time>
      </trkpt>
      <trkpt lat="44.4142" lon="6.42594">
        <ele>1568.8</ele>
        <time>2021-08-09T08:51:01Z</time>
      </trkpt>
      <trkpt lat="44.41413" lon="6.426">
        <ele>1568.8</ele>
        <time>2021-08-09T08:51:06Z</time>
      </trkpt>
      <trkpt lat="44.41408" lon="6.42606">
        <ele>1569.6</ele>
        <time>2021-08-09T08:51:10Z</time>
      </trkpt>
      <trkpt lat="44.41402" lon="6.42612">
        <ele>1570.4</ele>
        <time>2021-08-09T08:51:15Z</time>
      </trkpt>
      <trkpt lat="44.414" lon="6.42614">
        <ele>1570.6</ele>
        <time>2021-08-09T08:51:17Z</time>
      </trkpt>
      <trkpt lat="44.41393" lon="6.4262">
        <ele>1571.4</ele>
        <time>2021-08-09T08:51:22Z</time>
      </trkpt>
      <trkpt lat="44.41389" lon="6.42623">
        <ele>1571.8</ele>
        <time>2021-08-09T08:51:24Z</time>
      </trkpt>
      <trkpt lat="44.41382" lon="6.4263">
        <ele>1572.8</ele>
        <time>2021-08-09T08:51:30Z</time>
      </trkpt>
      <trkpt lat="44.4137" lon="6.42637">
        <ele>1573.6</ele>
        <time>2021-08-09T08:51:37Z</time>
      </trkpt>
      <trkpt lat="44.41368" lon="6.42639">
        <ele>1573.8</ele>
        <time>2021-08-09T08:51:38Z</time>
      </trkpt>
      <trkpt lat="44.41359" lon="6.42642">
        <ele>1574.6</ele>
        <time>2021-08-09T08:51:43Z</time>
      </trkpt>
      <trkpt lat="44.41357" lon="6.42643">
        <ele>1574.8</ele>
        <time>2021-08-09T08:51:44Z</time>
      </trkpt>
      <trkpt lat="44.4135" lon="6.42646">
        <ele>1575.8</ele>
        <time>2021-08-09T08:51:48Z</time>
      </trkpt>
      <trkpt lat="44.41347" lon="6.42649">
        <ele>1576.2</ele>
        <time>2021-08-09T08:51:50Z</time>
      </trkpt>
      <trkpt lat="44.4134" lon="6.42656">
        <ele>1576.6</ele>
        <time>2021-08-09T08:51:55Z</time>
      </trkpt>
      <trkpt lat="44.41335" lon="6.42662">
        <ele>1577.2</ele>
        <time>2021-08-09T08:51:58Z</time>
      </trkpt>
      <trkpt lat="44.4133" lon="6.42668">
        <ele>1577.8</ele>
        <time>2021-08-09T08:52:01Z</time>
      </trkpt>
      <trkpt lat="44.41326" lon="6.42673">
        <ele>1578</ele>
        <time>2021-08-09T08:52:03Z</time>
      </trkpt>
      <trkpt lat="44.41312" lon="6.4269">
        <ele>1578.4</ele>
        <time>2021-08-09T08:52:08Z</time>
      </trkpt>
      <trkpt lat="44.41309" lon="6.42691">
        <ele>1578.6</ele>
        <time>2021-08-09T08:52:09Z</time>
      </trkpt>
      <trkpt lat="44.41295" lon="6.427">
        <ele>1578.8</ele>
        <time>2021-08-09T08:52:14Z</time>
      </trkpt>
      <trkpt lat="44.41286" lon="6.42708">
        <ele>1579.8</ele>
        <time>2021-08-09T08:52:19Z</time>
      </trkpt>
      <trkpt lat="44.41283" lon="6.42712">
        <ele>1580.4</ele>
        <time>2021-08-09T08:52:21Z</time>
      </trkpt>
      <trkpt lat="44.41279" lon="6.42718">
        <ele>1581</ele>
        <time>2021-08-09T08:52:24Z</time>
      </trkpt>
      <trkpt lat="44.41274" lon="6.42727">
        <ele>1581.6</ele>
        <time>2021-08-09T08:52:29Z</time>
      </trkpt>
      <trkpt lat="44.41269" lon="6.42735">
        <ele>1581.8</ele>
        <time>2021-08-09T08:52:33Z</time>
      </trkpt>
      <trkpt lat="44.41264" lon="6.42743">
        <ele>1582.4</ele>
        <time>2021-08-09T08:52:37Z</time>
      </trkpt>
      <trkpt lat="44.41261" lon="6.42746">
        <ele>1582.8</ele>
        <time>2021-08-09T08:52:39Z</time>
      </trkpt>
      <trkpt lat="44.41252" lon="6.42756">
        <ele>1583.8</ele>
        <time>2021-08-09T08:52:45Z</time>
      </trkpt>
      <trkpt lat="44.4124" lon="6.42767">
        <ele>1584.6</ele>
        <time>2021-08-09T08:52:53Z</time>
      </trkpt>
      <trkpt lat="44.41235" lon="6.42769">
        <ele>1585</ele>
        <time>2021-08-09T08:52:56Z</time>
      </trkpt>
      <trkpt lat="44.41229" lon="6.42771">
        <ele>1585.4</ele>
        <time>2021-08-09T08:52:59Z</time>
      </trkpt>
      <trkpt lat="44.41226" lon="6.42769">
        <ele>1585.6</ele>
        <time>2021-08-09T08:53:01Z</time>
      </trkpt>
      <trkpt lat="44.41221" lon="6.42765">
        <ele>1586.2</ele>
        <time>2021-08-09T08:53:04Z</time>
      </trkpt>
      <trkpt lat="44.41218" lon="6.4276">
        <ele>1586.4</ele>
        <time>2021-08-09T08:53:07Z</time>
      </trkpt>
      <trkpt lat="44.41216" lon="6.4275">
        <ele>1587.4</ele>
        <time>2021-08-09T08:53:11Z</time>
      </trkpt>
      <trkpt lat="44.41216" lon="6.42745">
        <ele>1587.6</ele>
        <time>2021-08-09T08:53:13Z</time>
      </trkpt>
      <trkpt lat="44.41215" lon="6.42737">
        <ele>1588.2</ele>
        <time>2021-08-09T08:53:17Z</time>
      </trkpt>
      <trkpt lat="44.41215" lon="6.42728">
        <ele>1589.2</ele>
        <time>2021-08-09T08:53:21Z</time>
      </trkpt>
      <trkpt lat="44.41214" lon="6.42724">
        <ele>1589.8</ele>
        <time>2021-08-09T08:53:23Z</time>
      </trkpt>
      <trkpt lat="44.41212" lon="6.42715">
        <ele>1590.8</ele>
        <time>2021-08-09T08:53:27Z</time>
      </trkpt>
      <trkpt lat="44.41212" lon="6.42712">
        <ele>1591</ele>
        <time>2021-08-09T08:53:28Z</time>
      </trkpt>
      <trkpt lat="44.41205" lon="6.42692">
        <ele>1591.6</ele>
        <time>2021-08-09T08:53:34Z</time>
      </trkpt>
      <trkpt lat="44.41204" lon="6.42689">
        <ele>1591.8</ele>
        <time>2021-08-09T08:53:35Z</time>
      </trkpt>
      <trkpt lat="44.41194" lon="6.42674">
        <ele>1592.6</ele>
        <time>2021-08-09T08:53:40Z</time>
      </trkpt>
      <trkpt lat="44.41187" lon="6.42664">
        <ele>1592.8</ele>
        <time>2021-08-09T08:53:44Z</time>
      </trkpt>
      <trkpt lat="44.41183" lon="6.42656">
        <ele>1593</ele>
        <time>2021-08-09T08:53:47Z</time>
      </trkpt>
      <trkpt lat="44.41179" lon="6.42638">
        <ele>1594</ele>
        <time>2021-08-09T08:53:53Z</time>
      </trkpt>
      <trkpt lat="44.41178" lon="6.42635">
        <ele>1594.2</ele>
        <time>2021-08-09T08:53:54Z</time>
      </trkpt>
      <trkpt lat="44.41177" lon="6.42623">
        <ele>1595.2</ele>
        <time>2021-08-09T08:53:58Z</time>
      </trkpt>
      <trkpt lat="44.41177" lon="6.42616">
        <ele>1595.6</ele>
        <time>2021-08-09T08:54:00Z</time>
      </trkpt>
      <trkpt lat="44.41173" lon="6.42605">
        <ele>1596.2</ele>
        <time>2021-08-09T08:54:03Z</time>
      </trkpt>
      <trkpt lat="44.4117" lon="6.42595">
        <ele>1597.2</ele>
        <time>2021-08-09T08:54:06Z</time>
      </trkpt>
      <trkpt lat="44.41168" lon="6.42592">
        <ele>1597.2</ele>
        <time>2021-08-09T08:54:07Z</time>
      </trkpt>
      <trkpt lat="44.41159" lon="6.42584">
        <ele>1598</ele>
        <time>2021-08-09T08:54:11Z</time>
      </trkpt>
      <trkpt lat="44.41155" lon="6.4258">
        <ele>1598.6</ele>
        <time>2021-08-09T08:54:13Z</time>
      </trkpt>
      <trkpt lat="44.41147" lon="6.42572">
        <ele>1599</ele>
        <time>2021-08-09T08:54:17Z</time>
      </trkpt>
      <trkpt lat="44.41141" lon="6.42566">
        <ele>1599.6</ele>
        <time>2021-08-09T08:54:20Z</time>
      </trkpt>
      <trkpt lat="44.41132" lon="6.42559">
        <ele>1600</ele>
        <time>2021-08-09T08:54:24Z</time>
      </trkpt>
      <trkpt lat="44.41128" lon="6.42556">
        <ele>1600.4</ele>
        <time>2021-08-09T08:54:26Z</time>
      </trkpt>
      <trkpt lat="44.41122" lon="6.42551">
        <ele>1601</ele>
        <time>2021-08-09T08:54:29Z</time>
      </trkpt>
      <trkpt lat="44.41116" lon="6.42547">
        <ele>1601.4</ele>
        <time>2021-08-09T08:54:32Z</time>
      </trkpt>
      <trkpt lat="44.41108" lon="6.42541">
        <ele>1602</ele>
        <time>2021-08-09T08:54:36Z</time>
      </trkpt>
      <trkpt lat="44.41106" lon="6.4254">
        <ele>1602.4</ele>
        <time>2021-08-09T08:54:37Z</time>
      </trkpt>
      <trkpt lat="44.41098" lon="6.42529">
        <ele>1603.2</ele>
        <time>2021-08-09T08:54:42Z</time>
      </trkpt>
      <trkpt lat="44.41097" lon="6.42527">
        <ele>1603.4</ele>
        <time>2021-08-09T08:54:43Z</time>
      </trkpt>
      <trkpt lat="44.41094" lon="6.42518">
        <ele>1604</ele>
        <time>2021-08-09T08:54:47Z</time>
      </trkpt>
      <trkpt lat="44.41092" lon="6.42513">
        <ele>1604.4</ele>
        <time>2021-08-09T08:54:49Z</time>
      </trkpt>
      <trkpt lat="44.41083" lon="6.42502">
        <ele>1605.4</ele>
        <time>2021-08-09T08:54:54Z</time>
      </trkpt>
      <trkpt lat="44.41081" lon="6.42501">
        <ele>1605.6</ele>
        <time>2021-08-09T08:54:55Z</time>
      </trkpt>
      <trkpt lat="44.41069" lon="6.42496">
        <ele>1606.4</ele>
        <time>2021-08-09T08:55:00Z</time>
      </trkpt>
      <trkpt lat="44.41061" lon="6.42491">
        <ele>1606.8</ele>
        <time>2021-08-09T08:55:03Z</time>
      </trkpt>
      <trkpt lat="44.41051" lon="6.42483">
        <ele>1607.2</ele>
        <time>2021-08-09T08:55:07Z</time>
      </trkpt>
      <trkpt lat="44.41042" lon="6.42467">
        <ele>1607.4</ele>
        <time>2021-08-09T08:55:13Z</time>
      </trkpt>
      <trkpt lat="44.41041" lon="6.4246">
        <ele>1607.6</ele>
        <time>2021-08-09T08:55:15Z</time>
      </trkpt>
      <trkpt lat="44.4104" lon="6.42449">
        <ele>1608.2</ele>
        <time>2021-08-09T08:55:19Z</time>
      </trkpt>
      <trkpt lat="44.41038" lon="6.42437">
        <ele>1608.8</ele>
        <time>2021-08-09T08:55:23Z</time>
      </trkpt>
      <trkpt lat="44.41037" lon="6.4243">
        <ele>1609.4</ele>
        <time>2021-08-09T08:55:25Z</time>
      </trkpt>
      <trkpt lat="44.41033" lon="6.4242">
        <ele>1609.6</ele>
        <time>2021-08-09T08:55:28Z</time>
      </trkpt>
      <trkpt lat="44.41026" lon="6.4241">
        <ele>1610.4</ele>
        <time>2021-08-09T08:55:32Z</time>
      </trkpt>
      <trkpt lat="44.41024" lon="6.42408">
        <ele>1610.6</ele>
        <time>2021-08-09T08:55:33Z</time>
      </trkpt>
      <trkpt lat="44.41021" lon="6.42397">
        <ele>1611</ele>
        <time>2021-08-09T08:55:37Z</time>
      </trkpt>
      <trkpt lat="44.41017" lon="6.42382">
        <ele>1611.8</ele>
        <time>2021-08-09T08:55:42Z</time>
      </trkpt>
      <trkpt lat="44.41015" lon="6.42379">
        <ele>1612</ele>
        <time>2021-08-09T08:55:43Z</time>
      </trkpt>
      <trkpt lat="44.4101" lon="6.42366">
        <ele>1613</ele>
        <time>2021-08-09T08:55:47Z</time>
      </trkpt>
      <trkpt lat="44.41006" lon="6.42353">
        <ele>1613.2</ele>
        <time>2021-08-09T08:55:51Z</time>
      </trkpt>
      <trkpt lat="44.41003" lon="6.42335">
        <ele>1613.8</ele>
        <time>2021-08-09T08:55:56Z</time>
      </trkpt>
      <trkpt lat="44.41002" lon="6.42325">
        <ele>1614.2</ele>
        <time>2021-08-09T08:55:59Z</time>
      </trkpt>
      <trkpt lat="44.41" lon="6.42311">
        <ele>1614.8</ele>
        <time>2021-08-09T08:56:03Z</time>
      </trkpt>
      <trkpt lat="44.40996" lon="6.42298">
        <ele>1615.2</ele>
        <time>2021-08-09T08:56:07Z</time>
      </trkpt>
      <trkpt lat="44.40991" lon="6.42287">
        <ele>1615.6</ele>
        <time>2021-08-09T08:56:11Z</time>
      </trkpt>
      <trkpt lat="44.40988" lon="6.42284">
        <ele>1615.8</ele>
        <time>2021-08-09T08:56:13Z</time>
      </trkpt>
      <trkpt lat="44.40977" lon="6.42284">
        <ele>1616.4</ele>
        <time>2021-08-09T08:56:18Z</time>
      </trkpt>
      <trkpt lat="44.40975" lon="6.42285">
        <ele>1616.6</ele>
        <time>2021-08-09T08:56:19Z</time>
      </trkpt>
      <trkpt lat="44.40963" lon="6.42295">
        <ele>1617.6</ele>
        <time>2021-08-09T08:56:25Z</time>
      </trkpt>
      <trkpt lat="44.40953" lon="6.423">
        <ele>1618.2</ele>
        <time>2021-08-09T08:56:31Z</time>
      </trkpt>
      <trkpt lat="44.40953" lon="6.423">
        <ele>1618.4</ele>
        <time>2021-08-09T08:56:32Z</time>
      </trkpt>
      <trkpt lat="44.40951" lon="6.42299">
        <ele>1619.4</ele>
        <time>2021-08-09T08:56:36Z</time>
      </trkpt>
      <trkpt lat="44.40951" lon="6.42299">
        <ele>1619.4</ele>
        <time>2021-08-09T08:56:37Z</time>
      </trkpt>
      <trkpt lat="44.4095" lon="6.42298">
        <ele>1619.6</ele>
        <time>2021-08-09T08:56:40Z</time>
      </trkpt>
      <trkpt lat="44.40948" lon="6.42302">
        <ele>1620.8</ele>
        <time>2021-08-09T08:58:02Z</time>
      </trkpt>
      <trkpt lat="44.40947" lon="6.42305">
        <ele>1620.8</ele>
        <time>2021-08-09T08:58:04Z</time>
      </trkpt>
      <trkpt lat="44.40946" lon="6.42311">
        <ele>1620.6</ele>
        <time>2021-08-09T08:58:07Z</time>
      </trkpt>
      <trkpt lat="44.40944" lon="6.42318">
        <ele>1620.6</ele>
        <time>2021-08-09T08:58:10Z</time>
      </trkpt>
      <trkpt lat="44.40944" lon="6.42321">
        <ele>1620.6</ele>
        <time>2021-08-09T08:58:11Z</time>
      </trkpt>
      <trkpt lat="44.40942" lon="6.42336">
        <ele>1620.8</ele>
        <time>2021-08-09T08:58:16Z</time>
      </trkpt>
      <trkpt lat="44.40935" lon="6.42345">
        <ele>1620.8</ele>
        <time>2021-08-09T08:58:20Z</time>
      </trkpt>
      <trkpt lat="44.40931" lon="6.42348">
        <ele>1621.2</ele>
        <time>2021-08-09T08:58:22Z</time>
      </trkpt>
      <trkpt lat="44.40928" lon="6.42349">
        <ele>1621.4</ele>
        <time>2021-08-09T08:58:23Z</time>
      </trkpt>
      <trkpt lat="44.40918" lon="6.4235">
        <ele>1622</ele>
        <time>2021-08-09T08:58:27Z</time>
      </trkpt>
      <trkpt lat="44.40914" lon="6.42352">
        <ele>1622.4</ele>
        <time>2021-08-09T08:58:29Z</time>
      </trkpt>
      <trkpt lat="44.40911" lon="6.42357">
        <ele>1622.6</ele>
        <time>2021-08-09T08:58:31Z</time>
      </trkpt>
      <trkpt lat="44.40906" lon="6.4237">
        <ele>1622.8</ele>
        <time>2021-08-09T08:58:36Z</time>
      </trkpt>
      <trkpt lat="44.40902" lon="6.42378">
        <ele>1623.2</ele>
        <time>2021-08-09T08:58:39Z</time>
      </trkpt>
      <trkpt lat="44.40897" lon="6.42386">
        <ele>1623.8</ele>
        <time>2021-08-09T08:58:42Z</time>
      </trkpt>
      <trkpt lat="44.40891" lon="6.42394">
        <ele>1624.6</ele>
        <time>2021-08-09T08:58:45Z</time>
      </trkpt>
      <trkpt lat="44.40886" lon="6.42403">
        <ele>1624.8</ele>
        <time>2021-08-09T08:58:48Z</time>
      </trkpt>
      <trkpt lat="44.40877" lon="6.42421">
        <ele>1625.4</ele>
        <time>2021-08-09T08:58:55Z</time>
      </trkpt>
      <trkpt lat="44.40876" lon="6.42423">
        <ele>1625.6</ele>
        <time>2021-08-09T08:58:56Z</time>
      </trkpt>
      <trkpt lat="44.40867" lon="6.42431">
        <ele>1626.4</ele>
        <time>2021-08-09T08:59:01Z</time>
      </trkpt>
      <trkpt lat="44.40859" lon="6.42437">
        <ele>1627.4</ele>
        <time>2021-08-09T08:59:05Z</time>
      </trkpt>
      <trkpt lat="44.40852" lon="6.4244">
        <ele>1628</ele>
        <time>2021-08-09T08:59:08Z</time>
      </trkpt>
      <trkpt lat="44.40841" lon="6.42447">
        <ele>1628.4</ele>
        <time>2021-08-09T08:59:13Z</time>
      </trkpt>
      <trkpt lat="44.4084" lon="6.4245">
        <ele>1628.6</ele>
        <time>2021-08-09T08:59:14Z</time>
      </trkpt>
      <trkpt lat="44.40841" lon="6.42466">
        <ele>1629</ele>
        <time>2021-08-09T08:59:19Z</time>
      </trkpt>
      <trkpt lat="44.40843" lon="6.42472">
        <ele>1629.4</ele>
        <time>2021-08-09T08:59:21Z</time>
      </trkpt>
      <trkpt lat="44.40847" lon="6.42482">
        <ele>1629.8</ele>
        <time>2021-08-09T08:59:25Z</time>
      </trkpt>
      <trkpt lat="44.40849" lon="6.42487">
        <ele>1630.4</ele>
        <time>2021-08-09T08:59:27Z</time>
      </trkpt>
      <trkpt lat="44.40849" lon="6.42493">
        <ele>1631</ele>
        <time>2021-08-09T08:59:29Z</time>
      </trkpt>
      <trkpt lat="44.40847" lon="6.42499">
        <ele>1631.4</ele>
        <time>2021-08-09T08:59:31Z</time>
      </trkpt>
      <trkpt lat="44.4084" lon="6.42507">
        <ele>1632</ele>
        <time>2021-08-09T08:59:35Z</time>
      </trkpt>
      <trkpt lat="44.40839" lon="6.4251">
        <ele>1632</ele>
        <time>2021-08-09T08:59:36Z</time>
      </trkpt>
      <trkpt lat="44.40835" lon="6.42519">
        <ele>1632.4</ele>
        <time>2021-08-09T08:59:39Z</time>
      </trkpt>
      <trkpt lat="44.40833" lon="6.4253">
        <ele>1632.6</ele>
        <time>2021-08-09T08:59:42Z</time>
      </trkpt>
      <trkpt lat="44.4083" lon="6.42552">
        <ele>1633.4</ele>
        <time>2021-08-09T08:59:47Z</time>
      </trkpt>
      <trkpt lat="44.4083" lon="6.42557">
        <ele>1633.6</ele>
        <time>2021-08-09T08:59:48Z</time>
      </trkpt>
      <trkpt lat="44.40825" lon="6.42583">
        <ele>1634.2</ele>
        <time>2021-08-09T08:59:55Z</time>
      </trkpt>
      <trkpt lat="44.4082" lon="6.42596">
        <ele>1634.6</ele>
        <time>2021-08-09T08:59:58Z</time>
      </trkpt>
      <trkpt lat="44.40814" lon="6.42604">
        <ele>1635</ele>
        <time>2021-08-09T09:00:01Z</time>
      </trkpt>
      <trkpt lat="44.40799" lon="6.42611">
        <ele>1635.2</ele>
        <time>2021-08-09T09:00:07Z</time>
      </trkpt>
      <trkpt lat="44.40793" lon="6.42618">
        <ele>1635.6</ele>
        <time>2021-08-09T09:00:10Z</time>
      </trkpt>
      <trkpt lat="44.40791" lon="6.42623">
        <ele>1636</ele>
        <time>2021-08-09T09:00:12Z</time>
      </trkpt>
      <trkpt lat="44.40784" lon="6.42633">
        <ele>1636.8</ele>
        <time>2021-08-09T09:00:16Z</time>
      </trkpt>
      <trkpt lat="44.40779" lon="6.42638">
        <ele>1637.2</ele>
        <time>2021-08-09T09:00:19Z</time>
      </trkpt>
      <trkpt lat="44.40772" lon="6.42646">
        <ele>1637.8</ele>
        <time>2021-08-09T09:00:22Z</time>
      </trkpt>
      <trkpt lat="44.4077" lon="6.42653">
        <ele>1638.4</ele>
        <time>2021-08-09T09:00:24Z</time>
      </trkpt>
      <trkpt lat="44.4077" lon="6.42658">
        <ele>1638.6</ele>
        <time>2021-08-09T09:00:25Z</time>
      </trkpt>
      <trkpt lat="44.40769" lon="6.42679">
        <ele>1639.6</ele>
        <time>2021-08-09T09:00:30Z</time>
      </trkpt>
      <trkpt lat="44.40767" lon="6.42686">
        <ele>1639.6</ele>
        <time>2021-08-09T09:00:32Z</time>
      </trkpt>
      <trkpt lat="44.40761" lon="6.42692">
        <ele>1640.2</ele>
        <time>2021-08-09T09:00:35Z</time>
      </trkpt>
      <trkpt lat="44.4075" lon="6.42702">
        <ele>1640.8</ele>
        <time>2021-08-09T09:00:41Z</time>
      </trkpt>
      <trkpt lat="44.40748" lon="6.42704">
        <ele>1641</ele>
        <time>2021-08-09T09:00:42Z</time>
      </trkpt>
      <trkpt lat="44.40738" lon="6.42711">
        <ele>1641.8</ele>
        <time>2021-08-09T09:00:46Z</time>
      </trkpt>
      <trkpt lat="44.40734" lon="6.42714">
        <ele>1642.2</ele>
        <time>2021-08-09T09:00:48Z</time>
      </trkpt>
      <trkpt lat="44.40719" lon="6.42723">
        <ele>1642.8</ele>
        <time>2021-08-09T09:00:54Z</time>
      </trkpt>
      <trkpt lat="44.40715" lon="6.42728">
        <ele>1643</ele>
        <time>2021-08-09T09:00:56Z</time>
      </trkpt>
      <trkpt lat="44.40694" lon="6.42742">
        <ele>1643.6</ele>
        <time>2021-08-09T09:01:04Z</time>
      </trkpt>
      <trkpt lat="44.40688" lon="6.42748">
        <ele>1643.8</ele>
        <time>2021-08-09T09:01:07Z</time>
      </trkpt>
      <trkpt lat="44.40681" lon="6.42754">
        <ele>1644.2</ele>
        <time>2021-08-09T09:01:10Z</time>
      </trkpt>
      <trkpt lat="44.40676" lon="6.42757">
        <ele>1644.6</ele>
        <time>2021-08-09T09:01:12Z</time>
      </trkpt>
      <trkpt lat="44.40668" lon="6.4276">
        <ele>1645.2</ele>
        <time>2021-08-09T09:01:15Z</time>
      </trkpt>
      <trkpt lat="44.40662" lon="6.42765">
        <ele>1645.8</ele>
        <time>2021-08-09T09:01:17Z</time>
      </trkpt>
      <trkpt lat="44.40646" lon="6.42778">
        <ele>1646.8</ele>
        <time>2021-08-09T09:01:23Z</time>
      </trkpt>
      <trkpt lat="44.40633" lon="6.42791">
        <ele>1647</ele>
        <time>2021-08-09T09:01:29Z</time>
      </trkpt>
      <trkpt lat="44.4062" lon="6.42797">
        <ele>1647.8</ele>
        <time>2021-08-09T09:01:34Z</time>
      </trkpt>
      <trkpt lat="44.40617" lon="6.42798">
        <ele>1647.8</ele>
        <time>2021-08-09T09:01:35Z</time>
      </trkpt>
      <trkpt lat="44.40607" lon="6.42804">
        <ele>1648.8</ele>
        <time>2021-08-09T09:01:39Z</time>
      </trkpt>
      <trkpt lat="44.406" lon="6.42807">
        <ele>1649.2</ele>
        <time>2021-08-09T09:01:42Z</time>
      </trkpt>
      <trkpt lat="44.40587" lon="6.42812">
        <ele>1650</ele>
        <time>2021-08-09T09:01:47Z</time>
      </trkpt>
      <trkpt lat="44.40572" lon="6.42817">
        <ele>1650.6</ele>
        <time>2021-08-09T09:01:53Z</time>
      </trkpt>
      <trkpt lat="44.40567" lon="6.42818">
        <ele>1650.8</ele>
        <time>2021-08-09T09:01:55Z</time>
      </trkpt>
      <trkpt lat="44.40555" lon="6.4282">
        <ele>1652</ele>
        <time>2021-08-09T09:02:00Z</time>
      </trkpt>
      <trkpt lat="44.40543" lon="6.42825">
        <ele>1653.2</ele>
        <time>2021-08-09T09:02:05Z</time>
      </trkpt>
      <trkpt lat="44.40538" lon="6.42826">
        <ele>1653.6</ele>
        <time>2021-08-09T09:02:07Z</time>
      </trkpt>
      <trkpt lat="44.40524" lon="6.42827">
        <ele>1654.2</ele>
        <time>2021-08-09T09:02:12Z</time>
      </trkpt>
      <trkpt lat="44.40519" lon="6.42825">
        <ele>1655</ele>
        <time>2021-08-09T09:02:14Z</time>
      </trkpt>
      <trkpt lat="44.4051" lon="6.4282">
        <ele>1655.4</ele>
        <time>2021-08-09T09:02:17Z</time>
      </trkpt>
      <trkpt lat="44.40504" lon="6.42815">
        <ele>1656</ele>
        <time>2021-08-09T09:02:20Z</time>
      </trkpt>
      <trkpt lat="44.40501" lon="6.42811">
        <ele>1656.6</ele>
        <time>2021-08-09T09:02:22Z</time>
      </trkpt>
      <trkpt lat="44.40496" lon="6.42804">
        <ele>1657.2</ele>
        <time>2021-08-09T09:02:25Z</time>
      </trkpt>
      <trkpt lat="44.40492" lon="6.42798">
        <ele>1657.6</ele>
        <time>2021-08-09T09:02:28Z</time>
      </trkpt>
      <trkpt lat="44.4049" lon="6.42794">
        <ele>1657.8</ele>
        <time>2021-08-09T09:02:30Z</time>
      </trkpt>
      <trkpt lat="44.40483" lon="6.4278">
        <ele>1658.4</ele>
        <time>2021-08-09T09:02:35Z</time>
      </trkpt>
      <trkpt lat="44.40472" lon="6.4276">
        <ele>1659.6</ele>
        <time>2021-08-09T09:02:41Z</time>
      </trkpt>
      <trkpt lat="44.40467" lon="6.42753">
        <ele>1660</ele>
        <time>2021-08-09T09:02:43Z</time>
      </trkpt>
      <trkpt lat="44.40455" lon="6.42733">
        <ele>1660.4</ele>
        <time>2021-08-09T09:02:49Z</time>
      </trkpt>
      <trkpt lat="44.40444" lon="6.42718">
        <ele>1660.6</ele>
        <time>2021-08-09T09:02:54Z</time>
      </trkpt>
      <trkpt lat="44.40439" lon="6.42714">
        <ele>1660.8</ele>
        <time>2021-08-09T09:02:56Z</time>
      </trkpt>
      <trkpt lat="44.40421" lon="6.42698">
        <ele>1661.6</ele>
        <time>2021-08-09T09:03:04Z</time>
      </trkpt>
      <trkpt lat="44.40418" lon="6.42696">
        <ele>1661.8</ele>
        <time>2021-08-09T09:03:05Z</time>
      </trkpt>
      <trkpt lat="44.40401" lon="6.42688">
        <ele>1662.6</ele>
        <time>2021-08-09T09:03:12Z</time>
      </trkpt>
      <trkpt lat="44.40398" lon="6.42687">
        <ele>1662.8</ele>
        <time>2021-08-09T09:03:13Z</time>
      </trkpt>
      <trkpt lat="44.40386" lon="6.42674">
        <ele>1663.4</ele>
        <time>2021-08-09T09:03:19Z</time>
      </trkpt>
      <trkpt lat="44.40372" lon="6.42663">
        <ele>1664.4</ele>
        <time>2021-08-09T09:03:26Z</time>
      </trkpt>
      <trkpt lat="44.4037" lon="6.42662">
        <ele>1664.6</ele>
        <time>2021-08-09T09:03:27Z</time>
      </trkpt>
      <trkpt lat="44.40356" lon="6.42659">
        <ele>1665.8</ele>
        <time>2021-08-09T09:03:32Z</time>
      </trkpt>
      <trkpt lat="44.40354" lon="6.42658">
        <ele>1666.2</ele>
        <time>2021-08-09T09:03:33Z</time>
      </trkpt>
      <trkpt lat="44.4034" lon="6.42649">
        <ele>1667</ele>
        <time>2021-08-09T09:03:38Z</time>
      </trkpt>
      <trkpt lat="44.40332" lon="6.42644">
        <ele>1667.4</ele>
        <time>2021-08-09T09:03:41Z</time>
      </trkpt>
      <trkpt lat="44.40327" lon="6.42639">
        <ele>1668</ele>
        <time>2021-08-09T09:03:44Z</time>
      </trkpt>
      <trkpt lat="44.40323" lon="6.42635">
        <ele>1668.4</ele>
        <time>2021-08-09T09:03:46Z</time>
      </trkpt>
      <trkpt lat="44.40316" lon="6.42621">
        <ele>1669.2</ele>
        <time>2021-08-09T09:03:51Z</time>
      </trkpt>
      <trkpt lat="44.40315" lon="6.42618">
        <ele>1669.4</ele>
        <time>2021-08-09T09:03:52Z</time>
      </trkpt>
      <trkpt lat="44.40309" lon="6.42602">
        <ele>1670.2</ele>
        <time>2021-08-09T09:03:57Z</time>
      </trkpt>
      <trkpt lat="44.40306" lon="6.42595">
        <ele>1670.6</ele>
        <time>2021-08-09T09:03:59Z</time>
      </trkpt>
      <trkpt lat="44.40297" lon="6.42576">
        <ele>1671.2</ele>
        <time>2021-08-09T09:04:05Z</time>
      </trkpt>
      <trkpt lat="44.40295" lon="6.42573">
        <ele>1671.2</ele>
        <time>2021-08-09T09:04:06Z</time>
      </trkpt>
      <trkpt lat="44.40288" lon="6.42552">
        <ele>1671.4</ele>
        <time>2021-08-09T09:04:12Z</time>
      </trkpt>
      <trkpt lat="44.40285" lon="6.42541">
        <ele>1672.2</ele>
        <time>2021-08-09T09:04:15Z</time>
      </trkpt>
      <trkpt lat="44.40282" lon="6.4252">
        <ele>1673.2</ele>
        <time>2021-08-09T09:04:20Z</time>
      </trkpt>
      <trkpt lat="44.4028" lon="6.42499">
        <ele>1674.2</ele>
        <time>2021-08-09T09:04:26Z</time>
      </trkpt>
      <trkpt lat="44.4028" lon="6.42496">
        <ele>1674.2</ele>
        <time>2021-08-09T09:04:27Z</time>
      </trkpt>
      <trkpt lat="44.40278" lon="6.42482">
        <ele>1674.6</ele>
        <time>2021-08-09T09:04:31Z</time>
      </trkpt>
      <trkpt lat="44.40277" lon="6.42472">
        <ele>1675.4</ele>
        <time>2021-08-09T09:04:34Z</time>
      </trkpt>
      <trkpt lat="44.40275" lon="6.42456">
        <ele>1676.2</ele>
        <time>2021-08-09T09:04:39Z</time>
      </trkpt>
      <trkpt lat="44.40275" lon="6.42453">
        <ele>1676.6</ele>
        <time>2021-08-09T09:04:40Z</time>
      </trkpt>
      <trkpt lat="44.40273" lon="6.42436">
        <ele>1677.2</ele>
        <time>2021-08-09T09:04:45Z</time>
      </trkpt>
      <trkpt lat="44.40273" lon="6.42433">
        <ele>1677.4</ele>
        <time>2021-08-09T09:04:46Z</time>
      </trkpt>
      <trkpt lat="44.40271" lon="6.42409">
        <ele>1678.6</ele>
        <time>2021-08-09T09:04:53Z</time>
      </trkpt>
      <trkpt lat="44.40272" lon="6.42385">
        <ele>1679.6</ele>
        <time>2021-08-09T09:05:00Z</time>
      </trkpt>
      <trkpt lat="44.40272" lon="6.4238">
        <ele>1679.6</ele>
        <time>2021-08-09T09:05:01Z</time>
      </trkpt>
      <trkpt lat="44.40271" lon="6.4236">
        <ele>1680.2</ele>
        <time>2021-08-09T09:05:05Z</time>
      </trkpt>
      <trkpt lat="44.40271" lon="6.42354">
        <ele>1680.2</ele>
        <time>2021-08-09T09:05:06Z</time>
      </trkpt>
      <trkpt lat="44.40271" lon="6.42315">
        <ele>1680.2</ele>
        <time>2021-08-09T09:05:12Z</time>
      </trkpt>
      <trkpt lat="44.40267" lon="6.42269">
        <ele>1679.8</ele>
        <time>2021-08-09T09:05:18Z</time>
      </trkpt>
      <trkpt lat="44.40256" lon="6.42238">
        <ele>1678.8</ele>
        <time>2021-08-09T09:05:23Z</time>
      </trkpt>
      <trkpt lat="44.40254" lon="6.42232">
        <ele>1678.4</ele>
        <time>2021-08-09T09:05:24Z</time>
      </trkpt>
      <trkpt lat="44.40243" lon="6.42203">
        <ele>1677.8</ele>
        <time>2021-08-09T09:05:30Z</time>
      </trkpt>
      <trkpt lat="44.40241" lon="6.42182">
        <ele>1677.8</ele>
        <time>2021-08-09T09:05:35Z</time>
      </trkpt>
      <trkpt lat="44.40236" lon="6.42158">
        <ele>1679.2</ele>
        <time>2021-08-09T09:05:41Z</time>
      </trkpt>
      <trkpt lat="44.40235" lon="6.42154">
        <ele>1679.6</ele>
        <time>2021-08-09T09:05:42Z</time>
      </trkpt>
      <trkpt lat="44.40232" lon="6.42147">
        <ele>1680.2</ele>
        <time>2021-08-09T09:05:44Z</time>
      </trkpt>
      <trkpt lat="44.40226" lon="6.42137">
        <ele>1680.8</ele>
        <time>2021-08-09T09:05:48Z</time>
      </trkpt>
      <trkpt lat="44.40213" lon="6.42131">
        <ele>1680.8</ele>
        <time>2021-08-09T09:05:54Z</time>
      </trkpt>
      <trkpt lat="44.40209" lon="6.42132">
        <ele>1681</ele>
        <time>2021-08-09T09:05:56Z</time>
      </trkpt>
      <trkpt lat="44.40205" lon="6.4214">
        <ele>1681</ele>
        <time>2021-08-09T09:05:59Z</time>
      </trkpt>
      <trkpt lat="44.40202" lon="6.42148">
        <ele>1681.2</ele>
        <time>2021-08-09T09:06:01Z</time>
      </trkpt>
      <trkpt lat="44.40195" lon="6.42163">
        <ele>1682</ele>
        <time>2021-08-09T09:06:05Z</time>
      </trkpt>
      <trkpt lat="44.40193" lon="6.42166">
        <ele>1682.2</ele>
        <time>2021-08-09T09:06:06Z</time>
      </trkpt>
      <trkpt lat="44.40178" lon="6.42184">
        <ele>1682.8</ele>
        <time>2021-08-09T09:06:12Z</time>
      </trkpt>
      <trkpt lat="44.4016" lon="6.42197">
        <ele>1683</ele>
        <time>2021-08-09T09:06:19Z</time>
      </trkpt>
      <trkpt lat="44.40145" lon="6.42207">
        <ele>1683.8</ele>
        <time>2021-08-09T09:06:25Z</time>
      </trkpt>
      <trkpt lat="44.40136" lon="6.42213">
        <ele>1684.2</ele>
        <time>2021-08-09T09:06:28Z</time>
      </trkpt>
      <trkpt lat="44.4013" lon="6.42217">
        <ele>1684.6</ele>
        <time>2021-08-09T09:06:30Z</time>
      </trkpt>
      <trkpt lat="44.40125" lon="6.42219">
        <ele>1685.2</ele>
        <time>2021-08-09T09:06:32Z</time>
      </trkpt>
      <trkpt lat="44.40111" lon="6.42233">
        <ele>1686</ele>
        <time>2021-08-09T09:06:38Z</time>
      </trkpt>
      <trkpt lat="44.4011" lon="6.42236">
        <ele>1686.4</ele>
        <time>2021-08-09T09:06:39Z</time>
      </trkpt>
      <trkpt lat="44.40099" lon="6.42258">
        <ele>1687.4</ele>
        <time>2021-08-09T09:06:45Z</time>
      </trkpt>
      <trkpt lat="44.4009" lon="6.42281">
        <ele>1687.8</ele>
        <time>2021-08-09T09:06:51Z</time>
      </trkpt>
      <trkpt lat="44.40088" lon="6.42296">
        <ele>1688.4</ele>
        <time>2021-08-09T09:06:55Z</time>
      </trkpt>
      <trkpt lat="44.40082" lon="6.42319">
        <ele>1689.4</ele>
        <time>2021-08-09T09:07:01Z</time>
      </trkpt>
      <trkpt lat="44.40068" lon="6.42344">
        <ele>1690.4</ele>
        <time>2021-08-09T09:07:08Z</time>
      </trkpt>
      <trkpt lat="44.40065" lon="6.42347">
        <ele>1690.6</ele>
        <time>2021-08-09T09:07:09Z</time>
      </trkpt>
      <trkpt lat="44.40052" lon="6.42368">
        <ele>1690.8</ele>
        <time>2021-08-09T09:07:15Z</time>
      </trkpt>
      <trkpt lat="44.40045" lon="6.4239">
        <ele>1691.2</ele>
        <time>2021-08-09T09:07:20Z</time>
      </trkpt>
      <trkpt lat="44.40043" lon="6.42395">
        <ele>1691.4</ele>
        <time>2021-08-09T09:07:21Z</time>
      </trkpt>
      <trkpt lat="44.40035" lon="6.42421">
        <ele>1691.6</ele>
        <time>2021-08-09T09:07:26Z</time>
      </trkpt>
      <trkpt lat="44.40032" lon="6.42432">
        <ele>1691.8</ele>
        <time>2021-08-09T09:07:28Z</time>
      </trkpt>
      <trkpt lat="44.40028" lon="6.42468">
        <ele>1691.8</ele>
        <time>2021-08-09T09:07:35Z</time>
      </trkpt>
      <trkpt lat="44.40023" lon="6.42486">
        <ele>1692.2</ele>
        <time>2021-08-09T09:07:39Z</time>
      </trkpt>
      <trkpt lat="44.4002" lon="6.4249">
        <ele>1692.2</ele>
        <time>2021-08-09T09:07:40Z</time>
      </trkpt>
      <trkpt lat="44.40011" lon="6.42508">
        <ele>1693</ele>
        <time>2021-08-09T09:07:45Z</time>
      </trkpt>
      <trkpt lat="44.4001" lon="6.42512">
        <ele>1693.2</ele>
        <time>2021-08-09T09:07:46Z</time>
      </trkpt>
      <trkpt lat="44.40004" lon="6.42532">
        <ele>1693.6</ele>
        <time>2021-08-09T09:07:50Z</time>
      </trkpt>
      <trkpt lat="44.39999" lon="6.42546">
        <ele>1694.2</ele>
        <time>2021-08-09T09:07:53Z</time>
      </trkpt>
      <trkpt lat="44.39995" lon="6.42558">
        <ele>1694.6</ele>
        <time>2021-08-09T09:07:56Z</time>
      </trkpt>
      <trkpt lat="44.39993" lon="6.42583">
        <ele>1695.2</ele>
        <time>2021-08-09T09:08:02Z</time>
      </trkpt>
      <trkpt lat="44.39992" lon="6.42591">
        <ele>1695.4</ele>
        <time>2021-08-09T09:08:04Z</time>
      </trkpt>
      <trkpt lat="44.39988" lon="6.42605">
        <ele>1696</ele>
        <time>2021-08-09T09:08:07Z</time>
      </trkpt>
      <trkpt lat="44.39974" lon="6.42634">
        <ele>1696.4</ele>
        <time>2021-08-09T09:08:14Z</time>
      </trkpt>
      <trkpt lat="44.39968" lon="6.42644">
        <ele>1696.4</ele>
        <time>2021-08-09T09:08:17Z</time>
      </trkpt>
      <trkpt lat="44.39965" lon="6.42646">
        <ele>1696.6</ele>
        <time>2021-08-09T09:08:18Z</time>
      </trkpt>
      <trkpt lat="44.39961" lon="6.42648">
        <ele>1696.6</ele>
        <time>2021-08-09T09:08:19Z</time>
      </trkpt>
      <trkpt lat="44.39951" lon="6.42647">
        <ele>1696.8</ele>
        <time>2021-08-09T09:08:23Z</time>
      </trkpt>
      <trkpt lat="44.39938" lon="6.4264">
        <ele>1697.2</ele>
        <time>2021-08-09T09:08:27Z</time>
      </trkpt>
      <trkpt lat="44.39921" lon="6.42629">
        <ele>1697.6</ele>
        <time>2021-08-09T09:08:33Z</time>
      </trkpt>
      <trkpt lat="44.39918" lon="6.42627">
        <ele>1697.6</ele>
        <time>2021-08-09T09:08:34Z</time>
      </trkpt>
      <trkpt lat="44.39899" lon="6.42615">
        <ele>1698.8</ele>
        <time>2021-08-09T09:08:40Z</time>
      </trkpt>
      <trkpt lat="44.39896" lon="6.42613">
        <ele>1699</ele>
        <time>2021-08-09T09:08:41Z</time>
      </trkpt>
      <trkpt lat="44.39886" lon="6.42607">
        <ele>1699.8</ele>
        <time>2021-08-09T09:08:44Z</time>
      </trkpt>
      <trkpt lat="44.39874" lon="6.42604">
        <ele>1700.4</ele>
        <time>2021-08-09T09:08:48Z</time>
      </trkpt>
      <trkpt lat="44.3986" lon="6.42598">
        <ele>1700.8</ele>
        <time>2021-08-09T09:08:53Z</time>
      </trkpt>
      <trkpt lat="44.39857" lon="6.42597">
        <ele>1701</ele>
        <time>2021-08-09T09:08:54Z</time>
      </trkpt>
      <trkpt lat="44.39848" lon="6.42591">
        <ele>1702</ele>
        <time>2021-08-09T09:08:57Z</time>
      </trkpt>
      <trkpt lat="44.3983" lon="6.42579">
        <ele>1702.4</ele>
        <time>2021-08-09T09:09:02Z</time>
      </trkpt>
      <trkpt lat="44.39813" lon="6.42565">
        <ele>1702.6</ele>
        <time>2021-08-09T09:09:08Z</time>
      </trkpt>
      <trkpt lat="44.39806" lon="6.42554">
        <ele>1702.6</ele>
        <time>2021-08-09T09:09:12Z</time>
      </trkpt>
      <trkpt lat="44.39805" lon="6.42551">
        <ele>1702.8</ele>
        <time>2021-08-09T09:09:13Z</time>
      </trkpt>
      <trkpt lat="44.39795" lon="6.42533">
        <ele>1703.8</ele>
        <time>2021-08-09T09:09:19Z</time>
      </trkpt>
      <trkpt lat="44.39794" lon="6.42529">
        <ele>1704.2</ele>
        <time>2021-08-09T09:09:20Z</time>
      </trkpt>
      <trkpt lat="44.39784" lon="6.42512">
        <ele>1704.8</ele>
        <time>2021-08-09T09:09:24Z</time>
      </trkpt>
      <trkpt lat="44.39775" lon="6.42497">
        <ele>1705.2</ele>
        <time>2021-08-09T09:09:28Z</time>
      </trkpt>
      <trkpt lat="44.39767" lon="6.42486">
        <ele>1705.2</ele>
        <time>2021-08-09T09:09:31Z</time>
      </trkpt>
      <trkpt lat="44.39745" lon="6.42464">
        <ele>1705.4</ele>
        <time>2021-08-09T09:09:38Z</time>
      </trkpt>
      <trkpt lat="44.39728" lon="6.42461">
        <ele>1705.6</ele>
        <time>2021-08-09T09:09:43Z</time>
      </trkpt>
      <trkpt lat="44.39719" lon="6.42462">
        <ele>1705.8</ele>
        <time>2021-08-09T09:09:46Z</time>
      </trkpt>
      <trkpt lat="44.39715" lon="6.42463">
        <ele>1706</ele>
        <time>2021-08-09T09:09:47Z</time>
      </trkpt>
      <trkpt lat="44.39706" lon="6.4247">
        <ele>1706.6</ele>
        <time>2021-08-09T09:09:50Z</time>
      </trkpt>
      <trkpt lat="44.39695" lon="6.42482">
        <ele>1707</ele>
        <time>2021-08-09T09:09:54Z</time>
      </trkpt>
      <trkpt lat="44.39688" lon="6.42485">
        <ele>1707</ele>
        <time>2021-08-09T09:09:56Z</time>
      </trkpt>
      <trkpt lat="44.39664" lon="6.42489">
        <ele>1707.2</ele>
        <time>2021-08-09T09:10:02Z</time>
      </trkpt>
      <trkpt lat="44.39638" lon="6.42491">
        <ele>1707.8</ele>
        <time>2021-08-09T09:10:09Z</time>
      </trkpt>
      <trkpt lat="44.39635" lon="6.42491">
        <ele>1708</ele>
        <time>2021-08-09T09:10:10Z</time>
      </trkpt>
      <trkpt lat="44.39614" lon="6.4249">
        <ele>1708.6</ele>
        <time>2021-08-09T09:10:17Z</time>
      </trkpt>
      <trkpt lat="44.39609" lon="6.42492">
        <ele>1709</ele>
        <time>2021-08-09T09:10:19Z</time>
      </trkpt>
      <trkpt lat="44.39594" lon="6.42494">
        <ele>1709.4</ele>
        <time>2021-08-09T09:10:24Z</time>
      </trkpt>
      <trkpt lat="44.39584" lon="6.42493">
        <ele>1710.2</ele>
        <time>2021-08-09T09:10:27Z</time>
      </trkpt>
      <trkpt lat="44.39574" lon="6.42489">
        <ele>1710.8</ele>
        <time>2021-08-09T09:10:30Z</time>
      </trkpt>
      <trkpt lat="44.39565" lon="6.42485">
        <ele>1711.4</ele>
        <time>2021-08-09T09:10:33Z</time>
      </trkpt>
      <trkpt lat="44.39554" lon="6.42478">
        <ele>1711.8</ele>
        <time>2021-08-09T09:10:37Z</time>
      </trkpt>
      <trkpt lat="44.39547" lon="6.42463">
        <ele>1712.2</ele>
        <time>2021-08-09T09:10:41Z</time>
      </trkpt>
      <trkpt lat="44.39547" lon="6.42459">
        <ele>1712.4</ele>
        <time>2021-08-09T09:10:42Z</time>
      </trkpt>
      <trkpt lat="44.39542" lon="6.42436">
        <ele>1713.6</ele>
        <time>2021-08-09T09:10:47Z</time>
      </trkpt>
      <trkpt lat="44.39534" lon="6.42423">
        <ele>1713.8</ele>
        <time>2021-08-09T09:10:50Z</time>
      </trkpt>
      <trkpt lat="44.3953" lon="6.42419">
        <ele>1713.8</ele>
        <time>2021-08-09T09:10:51Z</time>
      </trkpt>
      <trkpt lat="44.39515" lon="6.42419">
        <ele>1713.8</ele>
        <time>2021-08-09T09:10:55Z</time>
      </trkpt>
      <trkpt lat="44.39507" lon="6.42436">
        <ele>1713.6</ele>
        <time>2021-08-09T09:10:59Z</time>
      </trkpt>
      <trkpt lat="44.39506" lon="6.42441">
        <ele>1713.4</ele>
        <time>2021-08-09T09:11:00Z</time>
      </trkpt>
      <trkpt lat="44.39499" lon="6.4246">
        <ele>1713.4</ele>
        <time>2021-08-09T09:11:04Z</time>
      </trkpt>
      <trkpt lat="44.39485" lon="6.42484">
        <ele>1713.2</ele>
        <time>2021-08-09T09:11:09Z</time>
      </trkpt>
      <trkpt lat="44.3947" lon="6.42487">
        <ele>1713.2</ele>
        <time>2021-08-09T09:11:13Z</time>
      </trkpt>
      <trkpt lat="44.39466" lon="6.42489">
        <ele>1713.2</ele>
        <time>2021-08-09T09:11:14Z</time>
      </trkpt>
      <trkpt lat="44.3946" lon="6.42496">
        <ele>1713.2</ele>
        <time>2021-08-09T09:11:16Z</time>
      </trkpt>
      <trkpt lat="44.39454" lon="6.42513">
        <ele>1712.8</ele>
        <time>2021-08-09T09:11:20Z</time>
      </trkpt>
      <trkpt lat="44.39447" lon="6.42522">
        <ele>1712.8</ele>
        <time>2021-08-09T09:11:23Z</time>
      </trkpt>
      <trkpt lat="44.39441" lon="6.42528">
        <ele>1712.8</ele>
        <time>2021-08-09T09:11:25Z</time>
      </trkpt>
      <trkpt lat="44.39431" lon="6.42549">
        <ele>1712.6</ele>
        <time>2021-08-09T09:11:30Z</time>
      </trkpt>
      <trkpt lat="44.39423" lon="6.42564">
        <ele>1712</ele>
        <time>2021-08-09T09:11:34Z</time>
      </trkpt>
      <trkpt lat="44.39422" lon="6.42566">
        <ele>1712</ele>
        <time>2021-08-09T09:11:35Z</time>
      </trkpt>
      <trkpt lat="44.39418" lon="6.42577">
        <ele>1711.8</ele>
        <time>2021-08-09T09:11:41Z</time>
      </trkpt>
      <trkpt lat="44.39418" lon="6.42577">
        <ele>1711.8</ele>
        <time>2021-08-09T09:11:42Z</time>
      </trkpt>
      <trkpt lat="44.39415" lon="6.42578">
        <ele>1711.2</ele>
        <time>2021-08-09T09:11:58Z</time>
      </trkpt>
      <trkpt lat="44.39413" lon="6.42582">
        <ele>1711.2</ele>
        <time>2021-08-09T09:12:00Z</time>
      </trkpt>
      <trkpt lat="44.39402" lon="6.42595">
        <ele>1711.2</ele>
        <time>2021-08-09T09:12:09Z</time>
      </trkpt>
      <trkpt lat="44.39393" lon="6.42596">
        <ele>1711.6</ele>
        <time>2021-08-09T09:12:15Z</time>
      </trkpt>
      <trkpt lat="44.39383" lon="6.42594">
        <ele>1713</ele>
        <time>2021-08-09T09:12:21Z</time>
      </trkpt>
      <trkpt lat="44.39382" lon="6.42593">
        <ele>1713.2</ele>
        <time>2021-08-09T09:12:22Z</time>
      </trkpt>
      <trkpt lat="44.39372" lon="6.42589">
        <ele>1714.2</ele>
        <time>2021-08-09T09:12:28Z</time>
      </trkpt>
      <trkpt lat="44.39368" lon="6.42585">
        <ele>1714.8</ele>
        <time>2021-08-09T09:12:31Z</time>
      </trkpt>
      <trkpt lat="44.39365" lon="6.42583">
        <ele>1715.2</ele>
        <time>2021-08-09T09:12:33Z</time>
      </trkpt>
      <trkpt lat="44.3936" lon="6.4258">
        <ele>1716.2</ele>
        <time>2021-08-09T09:12:37Z</time>
      </trkpt>
      <trkpt lat="44.39358" lon="6.42579">
        <ele>1716.6</ele>
        <time>2021-08-09T09:12:38Z</time>
      </trkpt>
      <trkpt lat="44.39354" lon="6.42577">
        <ele>1717.8</ele>
        <time>2021-08-09T09:12:41Z</time>
      </trkpt>
      <trkpt lat="44.39346" lon="6.42571">
        <ele>1718.6</ele>
        <time>2021-08-09T09:12:47Z</time>
      </trkpt>
      <trkpt lat="44.39344" lon="6.42569">
        <ele>1718.8</ele>
        <time>2021-08-09T09:12:49Z</time>
      </trkpt>
      <trkpt lat="44.39337" lon="6.42565">
        <ele>1719.8</ele>
        <time>2021-08-09T09:12:54Z</time>
      </trkpt>
      <trkpt lat="44.39335" lon="6.42564">
        <ele>1720.4</ele>
        <time>2021-08-09T09:12:56Z</time>
      </trkpt>
      <trkpt lat="44.39331" lon="6.42562">
        <ele>1720.8</ele>
        <time>2021-08-09T09:12:59Z</time>
      </trkpt>
      <trkpt lat="44.39322" lon="6.42558">
        <ele>1721.8</ele>
        <time>2021-08-09T09:13:05Z</time>
      </trkpt>
      <trkpt lat="44.39321" lon="6.42557">
        <ele>1722.2</ele>
        <time>2021-08-09T09:13:06Z</time>
      </trkpt>
      <trkpt lat="44.39313" lon="6.42553">
        <ele>1723.2</ele>
        <time>2021-08-09T09:13:12Z</time>
      </trkpt>
      <trkpt lat="44.39307" lon="6.4255">
        <ele>1724</ele>
        <time>2021-08-09T09:13:18Z</time>
      </trkpt>
      <trkpt lat="44.39306" lon="6.42549">
        <ele>1724.4</ele>
        <time>2021-08-09T09:13:19Z</time>
      </trkpt>
      <trkpt lat="44.393" lon="6.42548">
        <ele>1725.6</ele>
        <time>2021-08-09T09:13:23Z</time>
      </trkpt>
      <trkpt lat="44.39298" lon="6.42547">
        <ele>1726.2</ele>
        <time>2021-08-09T09:13:25Z</time>
      </trkpt>
      <trkpt lat="44.39293" lon="6.42545">
        <ele>1727</ele>
        <time>2021-08-09T09:13:29Z</time>
      </trkpt>
      <trkpt lat="44.39288" lon="6.42542">
        <ele>1727.8</ele>
        <time>2021-08-09T09:13:33Z</time>
      </trkpt>
      <trkpt lat="44.39286" lon="6.42542">
        <ele>1728</ele>
        <time>2021-08-09T09:13:34Z</time>
      </trkpt>
      <trkpt lat="44.39281" lon="6.42539">
        <ele>1729</ele>
        <time>2021-08-09T09:13:38Z</time>
      </trkpt>
      <trkpt lat="44.39276" lon="6.42536">
        <ele>1729.8</ele>
        <time>2021-08-09T09:13:43Z</time>
      </trkpt>
      <trkpt lat="44.39275" lon="6.42536">
        <ele>1730</ele>
        <time>2021-08-09T09:13:44Z</time>
      </trkpt>
      <trkpt lat="44.39268" lon="6.42535">
        <ele>1731</ele>
        <time>2021-08-09T09:13:49Z</time>
      </trkpt>
      <trkpt lat="44.39267" lon="6.42535">
        <ele>1731.2</ele>
        <time>2021-08-09T09:13:50Z</time>
      </trkpt>
      <trkpt lat="44.39262" lon="6.42532">
        <ele>1732.4</ele>
        <time>2021-08-09T09:13:55Z</time>
      </trkpt>
      <trkpt lat="44.3926" lon="6.42531">
        <ele>1732.8</ele>
        <time>2021-08-09T09:13:57Z</time>
      </trkpt>
      <trkpt lat="44.39256" lon="6.42528">
        <ele>1733.4</ele>
        <time>2021-08-09T09:14:00Z</time>
      </trkpt>
      <trkpt lat="44.39252" lon="6.42526">
        <ele>1734.2</ele>
        <time>2021-08-09T09:14:04Z</time>
      </trkpt>
      <trkpt lat="44.3925" lon="6.42526">
        <ele>1734.6</ele>
        <time>2021-08-09T09:14:06Z</time>
      </trkpt>
      <trkpt lat="44.39245" lon="6.42524">
        <ele>1735.8</ele>
        <time>2021-08-09T09:14:11Z</time>
      </trkpt>
      <trkpt lat="44.39243" lon="6.42524">
        <ele>1735.8</ele>
        <time>2021-08-09T09:14:13Z</time>
      </trkpt>
      <trkpt lat="44.39239" lon="6.42523">
        <ele>1736.4</ele>
        <time>2021-08-09T09:14:17Z</time>
      </trkpt>
      <trkpt lat="44.39238" lon="6.42523">
        <ele>1736.6</ele>
        <time>2021-08-09T09:14:18Z</time>
      </trkpt>
      <trkpt lat="44.39235" lon="6.42521">
        <ele>1737.4</ele>
        <time>2021-08-09T09:14:22Z</time>
      </trkpt>
      <trkpt lat="44.39233" lon="6.42521">
        <ele>1737.8</ele>
        <time>2021-08-09T09:14:24Z</time>
      </trkpt>
      <trkpt lat="44.39229" lon="6.42518">
        <ele>1738.8</ele>
        <time>2021-08-09T09:14:29Z</time>
      </trkpt>
      <trkpt lat="44.39226" lon="6.42517">
        <ele>1739.6</ele>
        <time>2021-08-09T09:14:32Z</time>
      </trkpt>
      <trkpt lat="44.39224" lon="6.42517">
        <ele>1740</ele>
        <time>2021-08-09T09:14:34Z</time>
      </trkpt>
      <trkpt lat="44.3922" lon="6.42517">
        <ele>1741.2</ele>
        <time>2021-08-09T09:14:38Z</time>
      </trkpt>
      <trkpt lat="44.39217" lon="6.42517">
        <ele>1741.8</ele>
        <time>2021-08-09T09:14:40Z</time>
      </trkpt>
      <trkpt lat="44.39216" lon="6.42517">
        <ele>1742</ele>
        <time>2021-08-09T09:14:42Z</time>
      </trkpt>
      <trkpt lat="44.39211" lon="6.42516">
        <ele>1743.2</ele>
        <time>2021-08-09T09:14:47Z</time>
      </trkpt>
      <trkpt lat="44.39205" lon="6.42515">
        <ele>1744.2</ele>
        <time>2021-08-09T09:14:52Z</time>
      </trkpt>
      <trkpt lat="44.39203" lon="6.42515">
        <ele>1744.8</ele>
        <time>2021-08-09T09:14:54Z</time>
      </trkpt>
      <trkpt lat="44.39202" lon="6.42515">
        <ele>1745</ele>
        <time>2021-08-09T09:14:55Z</time>
      </trkpt>
      <trkpt lat="44.392" lon="6.42515">
        <ele>1745.6</ele>
        <time>2021-08-09T09:14:57Z</time>
      </trkpt>
      <trkpt lat="44.39197" lon="6.42515">
        <ele>1746</ele>
        <time>2021-08-09T09:14:59Z</time>
      </trkpt>
      <trkpt lat="44.39195" lon="6.42517">
        <ele>1746.6</ele>
        <time>2021-08-09T09:15:01Z</time>
      </trkpt>
      <trkpt lat="44.39192" lon="6.42517">
        <ele>1747.8</ele>
        <time>2021-08-09T09:15:05Z</time>
      </trkpt>
      <trkpt lat="44.39192" lon="6.42517">
        <ele>1748</ele>
        <time>2021-08-09T09:15:06Z</time>
      </trkpt>
      <trkpt lat="44.39188" lon="6.42515">
        <ele>1749.8</ele>
        <time>2021-08-09T09:15:16Z</time>
      </trkpt>
      <trkpt lat="44.39186" lon="6.42514">
        <ele>1749.8</ele>
        <time>2021-08-09T09:15:17Z</time>
      </trkpt>
      <trkpt lat="44.39181" lon="6.42513">
        <ele>1749.8</ele>
        <time>2021-08-09T09:15:20Z</time>
      </trkpt>
      <trkpt lat="44.39172" lon="6.42512">
        <ele>1750.8</ele>
        <time>2021-08-09T09:15:27Z</time>
      </trkpt>
      <trkpt lat="44.39171" lon="6.42511">
        <ele>1751</ele>
        <time>2021-08-09T09:15:28Z</time>
      </trkpt>
      <trkpt lat="44.39165" lon="6.42509">
        <ele>1752</ele>
        <time>2021-08-09T09:15:33Z</time>
      </trkpt>
      <trkpt lat="44.39162" lon="6.42508">
        <ele>1752.6</ele>
        <time>2021-08-09T09:15:36Z</time>
      </trkpt>
      <trkpt lat="44.39159" lon="6.42505">
        <ele>1753.2</ele>
        <time>2021-08-09T09:15:40Z</time>
      </trkpt>
      <trkpt lat="44.39156" lon="6.42503">
        <ele>1754</ele>
        <time>2021-08-09T09:15:43Z</time>
      </trkpt>
      <trkpt lat="44.39155" lon="6.42503">
        <ele>1754.2</ele>
        <time>2021-08-09T09:15:44Z</time>
      </trkpt>
      <trkpt lat="44.39153" lon="6.42503">
        <ele>1754.4</ele>
        <time>2021-08-09T09:15:45Z</time>
      </trkpt>
      <trkpt lat="44.3915" lon="6.42502">
        <ele>1754.8</ele>
        <time>2021-08-09T09:15:48Z</time>
      </trkpt>
      <trkpt lat="44.39148" lon="6.42502">
        <ele>1755.4</ele>
        <time>2021-08-09T09:15:50Z</time>
      </trkpt>
      <trkpt lat="44.39143" lon="6.42499">
        <ele>1756.4</ele>
        <time>2021-08-09T09:15:55Z</time>
      </trkpt>
      <trkpt lat="44.39141" lon="6.42498">
        <ele>1756.8</ele>
        <time>2021-08-09T09:15:57Z</time>
      </trkpt>
      <trkpt lat="44.39138" lon="6.42496">
        <ele>1757.4</ele>
        <time>2021-08-09T09:16:00Z</time>
      </trkpt>
      <trkpt lat="44.39133" lon="6.42495">
        <ele>1758</ele>
        <time>2021-08-09T09:16:04Z</time>
      </trkpt>
      <trkpt lat="44.39133" lon="6.42494">
        <ele>1758.2</ele>
        <time>2021-08-09T09:16:05Z</time>
      </trkpt>
      <trkpt lat="44.39131" lon="6.42492">
        <ele>1758.6</ele>
        <time>2021-08-09T09:16:07Z</time>
      </trkpt>
      <trkpt lat="44.39127" lon="6.42491">
        <ele>1759.4</ele>
        <time>2021-08-09T09:16:10Z</time>
      </trkpt>
      <trkpt lat="44.39126" lon="6.42491">
        <ele>1759.6</ele>
        <time>2021-08-09T09:16:11Z</time>
      </trkpt>
      <trkpt lat="44.39125" lon="6.4249">
        <ele>1759.8</ele>
        <time>2021-08-09T09:16:12Z</time>
      </trkpt>
      <trkpt lat="44.3912" lon="6.4249">
        <ele>1761</ele>
        <time>2021-08-09T09:16:16Z</time>
      </trkpt>
      <trkpt lat="44.39119" lon="6.42489">
        <ele>1761.4</ele>
        <time>2021-08-09T09:16:17Z</time>
      </trkpt>
      <trkpt lat="44.39117" lon="6.42489">
        <ele>1762</ele>
        <time>2021-08-09T09:16:19Z</time>
      </trkpt>
      <trkpt lat="44.39115" lon="6.42488">
        <ele>1763.2</ele>
        <time>2021-08-09T09:16:22Z</time>
      </trkpt>
      <trkpt lat="44.39111" lon="6.42487">
        <ele>1764</ele>
        <time>2021-08-09T09:16:25Z</time>
      </trkpt>
      <trkpt lat="44.3911" lon="6.42487">
        <ele>1764.4</ele>
        <time>2021-08-09T09:16:26Z</time>
      </trkpt>
      <trkpt lat="44.39105" lon="6.42485">
        <ele>1765.6</ele>
        <time>2021-08-09T09:16:31Z</time>
      </trkpt>
      <trkpt lat="44.39103" lon="6.42483">
        <ele>1765.8</ele>
        <time>2021-08-09T09:16:33Z</time>
      </trkpt>
      <trkpt lat="44.39098" lon="6.42481">
        <ele>1766.6</ele>
        <time>2021-08-09T09:16:38Z</time>
      </trkpt>
      <trkpt lat="44.39093" lon="6.42481">
        <ele>1767.4</ele>
        <time>2021-08-09T09:16:42Z</time>
      </trkpt>
      <trkpt lat="44.3909" lon="6.42481">
        <ele>1767.8</ele>
        <time>2021-08-09T09:16:44Z</time>
      </trkpt>
      <trkpt lat="44.39084" lon="6.42482">
        <ele>1768.8</ele>
        <time>2021-08-09T09:16:49Z</time>
      </trkpt>
      <trkpt lat="44.39075" lon="6.42481">
        <ele>1770</ele>
        <time>2021-08-09T09:16:55Z</time>
      </trkpt>
      <trkpt lat="44.39071" lon="6.42482">
        <ele>1770.4</ele>
        <time>2021-08-09T09:16:57Z</time>
      </trkpt>
      <trkpt lat="44.39067" lon="6.42481">
        <ele>1771.2</ele>
        <time>2021-08-09T09:17:00Z</time>
      </trkpt>
      <trkpt lat="44.39058" lon="6.4248">
        <ele>1771.4</ele>
        <time>2021-08-09T09:17:04Z</time>
      </trkpt>
      <trkpt lat="44.39038" lon="6.42477">
        <ele>1771.6</ele>
        <time>2021-08-09T09:17:10Z</time>
      </trkpt>
      <trkpt lat="44.39016" lon="6.42482">
        <ele>1771.4</ele>
        <time>2021-08-09T09:17:15Z</time>
      </trkpt>
      <trkpt lat="44.39004" lon="6.42493">
        <ele>1769.8</ele>
        <time>2021-08-09T09:17:20Z</time>
      </trkpt>
      <trkpt lat="44.38995" lon="6.425">
        <ele>1769</ele>
        <time>2021-08-09T09:17:26Z</time>
      </trkpt>
      <trkpt lat="44.38981" lon="6.42502">
        <ele>1769</ele>
        <time>2021-08-09T09:17:34Z</time>
      </trkpt>
      <trkpt lat="44.38965" lon="6.42499">
        <ele>1770</ele>
        <time>2021-08-09T09:17:43Z</time>
      </trkpt>
      <trkpt lat="44.38955" lon="6.4249">
        <ele>1770.4</ele>
        <time>2021-08-09T09:17:51Z</time>
      </trkpt>
      <trkpt lat="44.38954" lon="6.42489">
        <ele>1770.6</ele>
        <time>2021-08-09T09:17:52Z</time>
      </trkpt>
      <trkpt lat="44.38951" lon="6.42484">
        <ele>1771</ele>
        <time>2021-08-09T09:17:55Z</time>
      </trkpt>
      <trkpt lat="44.38948" lon="6.42484">
        <ele>1771</ele>
        <time>2021-08-09T09:17:57Z</time>
      </trkpt>
      <trkpt lat="44.38943" lon="6.42486">
        <ele>1771.8</ele>
        <time>2021-08-09T09:18:00Z</time>
      </trkpt>
      <trkpt lat="44.38938" lon="6.42487">
        <ele>1772.4</ele>
        <time>2021-08-09T09:18:03Z</time>
      </trkpt>
      <trkpt lat="44.38937" lon="6.42488">
        <ele>1772.8</ele>
        <time>2021-08-09T09:18:04Z</time>
      </trkpt>
      <trkpt lat="44.38936" lon="6.42488">
        <ele>1773</ele>
        <time>2021-08-09T09:18:05Z</time>
      </trkpt>
      <trkpt lat="44.38934" lon="6.4249">
        <ele>1773.2</ele>
        <time>2021-08-09T09:18:07Z</time>
      </trkpt>
      <trkpt lat="44.38932" lon="6.4249">
        <ele>1773.4</ele>
        <time>2021-08-09T09:18:09Z</time>
      </trkpt>
      <trkpt lat="44.38923" lon="6.42488">
        <ele>1774</ele>
        <time>2021-08-09T09:18:15Z</time>
      </trkpt>
      <trkpt lat="44.38922" lon="6.42488">
        <ele>1774.2</ele>
        <time>2021-08-09T09:18:16Z</time>
      </trkpt>
      <trkpt lat="44.38921" lon="6.42487">
        <ele>1774.4</ele>
        <time>2021-08-09T09:18:17Z</time>
      </trkpt>
      <trkpt lat="44.38916" lon="6.42487">
        <ele>1775.2</ele>
        <time>2021-08-09T09:18:21Z</time>
      </trkpt>
      <trkpt lat="44.38915" lon="6.42486">
        <ele>1775.2</ele>
        <time>2021-08-09T09:18:22Z</time>
      </trkpt>
      <trkpt lat="44.3891" lon="6.42483">
        <ele>1776.2</ele>
        <time>2021-08-09T09:18:27Z</time>
      </trkpt>
      <trkpt lat="44.38908" lon="6.42482">
        <ele>1776.4</ele>
        <time>2021-08-09T09:18:28Z</time>
      </trkpt>
      <trkpt lat="44.38904" lon="6.42479">
        <ele>1777.2</ele>
        <time>2021-08-09T09:18:33Z</time>
      </trkpt>
      <trkpt lat="44.38904" lon="6.42478">
        <ele>1777.4</ele>
        <time>2021-08-09T09:18:34Z</time>
      </trkpt>
      <trkpt lat="44.38899" lon="6.42474">
        <ele>1778.2</ele>
        <time>2021-08-09T09:18:39Z</time>
      </trkpt>
      <trkpt lat="44.38897" lon="6.42471">
        <ele>1778.8</ele>
        <time>2021-08-09T09:18:41Z</time>
      </trkpt>
      <trkpt lat="44.38894" lon="6.42467">
        <ele>1779.4</ele>
        <time>2021-08-09T09:18:44Z</time>
      </trkpt>
      <trkpt lat="44.38893" lon="6.42466">
        <ele>1779.6</ele>
        <time>2021-08-09T09:18:45Z</time>
      </trkpt>
      <trkpt lat="44.38891" lon="6.42466">
        <ele>1780</ele>
        <time>2021-08-09T09:18:47Z</time>
      </trkpt>
      <trkpt lat="44.38889" lon="6.42466">
        <ele>1780.6</ele>
        <time>2021-08-09T09:18:49Z</time>
      </trkpt>
      <trkpt lat="44.38884" lon="6.42466">
        <ele>1781.8</ele>
        <time>2021-08-09T09:18:53Z</time>
      </trkpt>
      <trkpt lat="44.38883" lon="6.42466">
        <ele>1782</ele>
        <time>2021-08-09T09:18:54Z</time>
      </trkpt>
      <trkpt lat="44.38875" lon="6.42467">
        <ele>1782.8</ele>
        <time>2021-08-09T09:19:01Z</time>
      </trkpt>
      <trkpt lat="44.38871" lon="6.42467">
        <ele>1783.2</ele>
        <time>2021-08-09T09:19:06Z</time>
      </trkpt>
      <trkpt lat="44.38866" lon="6.42466">
        <ele>1785.6</ele>
        <time>2021-08-09T09:19:15Z</time>
      </trkpt>
      <trkpt lat="44.38862" lon="6.42461">
        <ele>1786.6</ele>
        <time>2021-08-09T09:19:23Z</time>
      </trkpt>
      <trkpt lat="44.3886" lon="6.42458">
        <ele>1787.2</ele>
        <time>2021-08-09T09:19:27Z</time>
      </trkpt>
      <trkpt lat="44.38859" lon="6.42456">
        <ele>1787.6</ele>
        <time>2021-08-09T09:19:29Z</time>
      </trkpt>
      <trkpt lat="44.38857" lon="6.42447">
        <ele>1788.4</ele>
        <time>2021-08-09T09:19:37Z</time>
      </trkpt>
      <trkpt lat="44.38857" lon="6.42446">
        <ele>1788.6</ele>
        <time>2021-08-09T09:19:38Z</time>
      </trkpt>
      <trkpt lat="44.38858" lon="6.42439">
        <ele>1789.6</ele>
        <time>2021-08-09T09:19:44Z</time>
      </trkpt>
      <trkpt lat="44.3886" lon="6.42434">
        <ele>1790.2</ele>
        <time>2021-08-09T09:19:49Z</time>
      </trkpt>
      <trkpt lat="44.38862" lon="6.42429">
        <ele>1790.4</ele>
        <time>2021-08-09T09:19:53Z</time>
      </trkpt>
      <trkpt lat="44.38862" lon="6.42428">
        <ele>1790.6</ele>
        <time>2021-08-09T09:19:54Z</time>
      </trkpt>
      <trkpt lat="44.38864" lon="6.42418">
        <ele>1790.8</ele>
        <time>2021-08-09T09:20:01Z</time>
      </trkpt>
      <trkpt lat="44.38866" lon="6.42415">
        <ele>1791.2</ele>
        <time>2021-08-09T09:20:06Z</time>
      </trkpt>
      <trkpt lat="44.38867" lon="6.42412">
        <ele>1791.4</ele>
        <time>2021-08-09T09:20:09Z</time>
      </trkpt>
      <trkpt lat="44.3887" lon="6.42408">
        <ele>1792.4</ele>
        <time>2021-08-09T09:20:15Z</time>
      </trkpt>
      <trkpt lat="44.38873" lon="6.42405">
        <ele>1793</ele>
        <time>2021-08-09T09:20:21Z</time>
      </trkpt>
      <trkpt lat="44.38875" lon="6.42405">
        <ele>1793.4</ele>
        <time>2021-08-09T09:20:25Z</time>
      </trkpt>
      <trkpt lat="44.38878" lon="6.42403">
        <ele>1794.2</ele>
        <time>2021-08-09T09:20:30Z</time>
      </trkpt>
      <trkpt lat="44.38879" lon="6.42402">
        <ele>1794.4</ele>
        <time>2021-08-09T09:20:31Z</time>
      </trkpt>
      <trkpt lat="44.38882" lon="6.424">
        <ele>1795</ele>
        <time>2021-08-09T09:20:35Z</time>
      </trkpt>
      <trkpt lat="44.38884" lon="6.42398">
        <ele>1795.4</ele>
        <time>2021-08-09T09:20:38Z</time>
      </trkpt>
      <trkpt lat="44.38888" lon="6.42396">
        <ele>1796.4</ele>
        <time>2021-08-09T09:20:43Z</time>
      </trkpt>
      <trkpt lat="44.38891" lon="6.42394">
        <ele>1797.6</ele>
        <time>2021-08-09T09:20:47Z</time>
      </trkpt>
      <trkpt lat="44.38897" lon="6.42392">
        <ele>1798.8</ele>
        <time>2021-08-09T09:20:55Z</time>
      </trkpt>
      <trkpt lat="44.38897" lon="6.42392">
        <ele>1799</ele>
        <time>2021-08-09T09:20:56Z</time>
      </trkpt>
      <trkpt lat="44.38899" lon="6.42389">
        <ele>1799.6</ele>
        <time>2021-08-09T09:20:59Z</time>
      </trkpt>
      <trkpt lat="44.389" lon="6.42388">
        <ele>1800.6</ele>
        <time>2021-08-09T09:21:03Z</time>
      </trkpt>
      <trkpt lat="44.38903" lon="6.42387">
        <ele>1801.6</ele>
        <time>2021-08-09T09:21:09Z</time>
      </trkpt>
      <trkpt lat="44.38904" lon="6.42386">
        <ele>1801.8</ele>
        <time>2021-08-09T09:21:10Z</time>
      </trkpt>
      <trkpt lat="44.3891" lon="6.4238">
        <ele>1802.2</ele>
        <time>2021-08-09T09:21:17Z</time>
      </trkpt>
      <trkpt lat="44.38915" lon="6.42376">
        <ele>1802.8</ele>
        <time>2021-08-09T09:21:22Z</time>
      </trkpt>
      <trkpt lat="44.38917" lon="6.42374">
        <ele>1803</ele>
        <time>2021-08-09T09:21:24Z</time>
      </trkpt>
      <trkpt lat="44.38921" lon="6.42368">
        <ele>1803.8</ele>
        <time>2021-08-09T09:21:28Z</time>
      </trkpt>
      <trkpt lat="44.38923" lon="6.42366">
        <ele>1804</ele>
        <time>2021-08-09T09:21:30Z</time>
      </trkpt>
      <trkpt lat="44.38925" lon="6.42362">
        <ele>1804.6</ele>
        <time>2021-08-09T09:21:33Z</time>
      </trkpt>
      <trkpt lat="44.3893" lon="6.42357">
        <ele>1805.6</ele>
        <time>2021-08-09T09:21:37Z</time>
      </trkpt>
      <trkpt lat="44.38931" lon="6.42356">
        <ele>1805.8</ele>
        <time>2021-08-09T09:21:38Z</time>
      </trkpt>
      <trkpt lat="44.38936" lon="6.42347">
        <ele>1807</ele>
        <time>2021-08-09T09:21:44Z</time>
      </trkpt>
      <trkpt lat="44.38938" lon="6.42345">
        <ele>1807.4</ele>
        <time>2021-08-09T09:21:46Z</time>
      </trkpt>
      <trkpt lat="44.38941" lon="6.42341">
        <ele>1808</ele>
        <time>2021-08-09T09:21:49Z</time>
      </trkpt>
      <trkpt lat="44.38946" lon="6.42336">
        <ele>1808.8</ele>
        <time>2021-08-09T09:21:54Z</time>
      </trkpt>
      <trkpt lat="44.38953" lon="6.42329">
        <ele>1809.8</ele>
        <time>2021-08-09T09:22:00Z</time>
      </trkpt>
      <trkpt lat="44.38953" lon="6.42327">
        <ele>1810</ele>
        <time>2021-08-09T09:22:01Z</time>
      </trkpt>
      <trkpt lat="44.38955" lon="6.42321">
        <ele>1811.2</ele>
        <time>2021-08-09T09:22:06Z</time>
      </trkpt>
      <trkpt lat="44.38958" lon="6.42314">
        <ele>1812.2</ele>
        <time>2021-08-09T09:22:11Z</time>
      </trkpt>
      <trkpt lat="44.38959" lon="6.42313">
        <ele>1812.4</ele>
        <time>2021-08-09T09:22:12Z</time>
      </trkpt>
      <trkpt lat="44.38961" lon="6.42309">
        <ele>1813.2</ele>
        <time>2021-08-09T09:22:16Z</time>
      </trkpt>
      <trkpt lat="44.38964" lon="6.42306">
        <ele>1814.2</ele>
        <time>2021-08-09T09:22:20Z</time>
      </trkpt>
      <trkpt lat="44.38966" lon="6.42305">
        <ele>1814.6</ele>
        <time>2021-08-09T09:22:22Z</time>
      </trkpt>
      <trkpt lat="44.38969" lon="6.42304">
        <ele>1815</ele>
        <time>2021-08-09T09:22:25Z</time>
      </trkpt>
      <trkpt lat="44.38971" lon="6.42304">
        <ele>1815.6</ele>
        <time>2021-08-09T09:22:27Z</time>
      </trkpt>
      <trkpt lat="44.38973" lon="6.42303">
        <ele>1816.2</ele>
        <time>2021-08-09T09:22:29Z</time>
      </trkpt>
      <trkpt lat="44.38976" lon="6.42303">
        <ele>1817</ele>
        <time>2021-08-09T09:22:32Z</time>
      </trkpt>
      <trkpt lat="44.38977" lon="6.42303">
        <ele>1817.2</ele>
        <time>2021-08-09T09:22:33Z</time>
      </trkpt>
      <trkpt lat="44.38979" lon="6.42303">
        <ele>1817.8</ele>
        <time>2021-08-09T09:22:35Z</time>
      </trkpt>
      <trkpt lat="44.3898" lon="6.42303">
        <ele>1818.2</ele>
        <time>2021-08-09T09:22:36Z</time>
      </trkpt>
      <trkpt lat="44.38981" lon="6.42303">
        <ele>1818.4</ele>
        <time>2021-08-09T09:22:37Z</time>
      </trkpt>
      <trkpt lat="44.38982" lon="6.42303">
        <ele>1818.6</ele>
        <time>2021-08-09T09:22:38Z</time>
      </trkpt>
      <trkpt lat="44.38986" lon="6.42303">
        <ele>1819.4</ele>
        <time>2021-08-09T09:22:41Z</time>
      </trkpt>
      <trkpt lat="44.38987" lon="6.42303">
        <ele>1819.6</ele>
        <time>2021-08-09T09:22:42Z</time>
      </trkpt>
      <trkpt lat="44.38994" lon="6.42304">
        <ele>1820.4</ele>
        <time>2021-08-09T09:22:47Z</time>
      </trkpt>
      <trkpt lat="44.38995" lon="6.42305">
        <ele>1820.4</ele>
        <time>2021-08-09T09:22:48Z</time>
      </trkpt>
      <trkpt lat="44.39001" lon="6.42305">
        <ele>1821.4</ele>
        <time>2021-08-09T09:22:53Z</time>
      </trkpt>
      <trkpt lat="44.39003" lon="6.42305">
        <ele>1821.6</ele>
        <time>2021-08-09T09:22:54Z</time>
      </trkpt>
      <trkpt lat="44.39013" lon="6.42302">
        <ele>1822.6</ele>
        <time>2021-08-09T09:23:01Z</time>
      </trkpt>
      <trkpt lat="44.39016" lon="6.42292">
        <ele>1822.8</ele>
        <time>2021-08-09T09:23:07Z</time>
      </trkpt>
      <trkpt lat="44.39014" lon="6.42286">
        <ele>1823.2</ele>
        <time>2021-08-09T09:23:11Z</time>
      </trkpt>
      <trkpt lat="44.39012" lon="6.42284">
        <ele>1823.4</ele>
        <time>2021-08-09T09:23:13Z</time>
      </trkpt>
      <trkpt lat="44.39011" lon="6.42283">
        <ele>1823.6</ele>
        <time>2021-08-09T09:23:14Z</time>
      </trkpt>
      <trkpt lat="44.39004" lon="6.4228">
        <ele>1824</ele>
        <time>2021-08-09T09:23:20Z</time>
      </trkpt>
      <trkpt lat="44.39" lon="6.42277">
        <ele>1824.6</ele>
        <time>2021-08-09T09:23:24Z</time>
      </trkpt>
      <trkpt lat="44.38994" lon="6.42275">
        <ele>1825.4</ele>
        <time>2021-08-09T09:23:29Z</time>
      </trkpt>
      <trkpt lat="44.38992" lon="6.42275">
        <ele>1825.6</ele>
        <time>2021-08-09T09:23:30Z</time>
      </trkpt>
      <trkpt lat="44.38988" lon="6.42271">
        <ele>1826.4</ele>
        <time>2021-08-09T09:23:34Z</time>
      </trkpt>
      <trkpt lat="44.38986" lon="6.42268">
        <ele>1826.8</ele>
        <time>2021-08-09T09:23:36Z</time>
      </trkpt>
      <trkpt lat="44.38984" lon="6.4226">
        <ele>1827.8</ele>
        <time>2021-08-09T09:23:41Z</time>
      </trkpt>
      <trkpt lat="44.38984" lon="6.42258">
        <ele>1828</ele>
        <time>2021-08-09T09:23:42Z</time>
      </trkpt>
      <trkpt lat="44.38988" lon="6.42248">
        <ele>1829</ele>
        <time>2021-08-09T09:23:48Z</time>
      </trkpt>
      <trkpt lat="44.38993" lon="6.4224">
        <ele>1830.2</ele>
        <time>2021-08-09T09:23:53Z</time>
      </trkpt>
      <trkpt lat="44.38998" lon="6.42233">
        <ele>1831.4</ele>
        <time>2021-08-09T09:23:58Z</time>
      </trkpt>
      <trkpt lat="44.39003" lon="6.42225">
        <ele>1832.4</ele>
        <time>2021-08-09T09:24:04Z</time>
      </trkpt>
      <trkpt lat="44.39004" lon="6.42222">
        <ele>1832.8</ele>
        <time>2021-08-09T09:24:06Z</time>
      </trkpt>
      <trkpt lat="44.39009" lon="6.42219">
        <ele>1833.4</ele>
        <time>2021-08-09T09:24:10Z</time>
      </trkpt>
      <trkpt lat="44.39011" lon="6.42215">
        <ele>1833.8</ele>
        <time>2021-08-09T09:24:13Z</time>
      </trkpt>
      <trkpt lat="44.39015" lon="6.42211">
        <ele>1834.6</ele>
        <time>2021-08-09T09:24:17Z</time>
      </trkpt>
      <trkpt lat="44.39019" lon="6.42207">
        <ele>1835</ele>
        <time>2021-08-09T09:24:21Z</time>
      </trkpt>
      <trkpt lat="44.3902" lon="6.42204">
        <ele>1835.6</ele>
        <time>2021-08-09T09:24:23Z</time>
      </trkpt>
      <trkpt lat="44.39023" lon="6.42197">
        <ele>1836.8</ele>
        <time>2021-08-09T09:24:28Z</time>
      </trkpt>
      <trkpt lat="44.39023" lon="6.42196">
        <ele>1837.2</ele>
        <time>2021-08-09T09:24:29Z</time>
      </trkpt>
      <trkpt lat="44.39026" lon="6.42194">
        <ele>1837.8</ele>
        <time>2021-08-09T09:24:32Z</time>
      </trkpt>
      <trkpt lat="44.39027" lon="6.42193">
        <ele>1838</ele>
        <time>2021-08-09T09:24:33Z</time>
      </trkpt>
      <trkpt lat="44.3903" lon="6.42192">
        <ele>1838</ele>
        <time>2021-08-09T09:24:35Z</time>
      </trkpt>
      <trkpt lat="44.39032" lon="6.42191">
        <ele>1838.4</ele>
        <time>2021-08-09T09:24:37Z</time>
      </trkpt>
      <trkpt lat="44.39034" lon="6.42187">
        <ele>1838.8</ele>
        <time>2021-08-09T09:24:40Z</time>
      </trkpt>
      <trkpt lat="44.39035" lon="6.42186">
        <ele>1839</ele>
        <time>2021-08-09T09:24:41Z</time>
      </trkpt>
      <trkpt lat="44.39038" lon="6.4218">
        <ele>1840</ele>
        <time>2021-08-09T09:24:46Z</time>
      </trkpt>
      <trkpt lat="44.3904" lon="6.42179">
        <ele>1840.8</ele>
        <time>2021-08-09T09:24:48Z</time>
      </trkpt>
      <trkpt lat="44.3904" lon="6.42178">
        <ele>1841</ele>
        <time>2021-08-09T09:24:49Z</time>
      </trkpt>
      <trkpt lat="44.39043" lon="6.42177">
        <ele>1841.6</ele>
        <time>2021-08-09T09:24:52Z</time>
      </trkpt>
      <trkpt lat="44.39047" lon="6.42175">
        <ele>1842</ele>
        <time>2021-08-09T09:24:55Z</time>
      </trkpt>
      <trkpt lat="44.39048" lon="6.42174">
        <ele>1842.6</ele>
        <time>2021-08-09T09:24:57Z</time>
      </trkpt>
      <trkpt lat="44.39052" lon="6.42172">
        <ele>1843</ele>
        <time>2021-08-09T09:25:00Z</time>
      </trkpt>
      <trkpt lat="44.39056" lon="6.4217">
        <ele>1844</ele>
        <time>2021-08-09T09:25:05Z</time>
      </trkpt>
      <trkpt lat="44.39058" lon="6.42171">
        <ele>1844</ele>
        <time>2021-08-09T09:25:06Z</time>
      </trkpt>
      <trkpt lat="44.39063" lon="6.42171">
        <ele>1844.8</ele>
        <time>2021-08-09T09:25:12Z</time>
      </trkpt>
      <trkpt lat="44.39065" lon="6.42171">
        <ele>1845.2</ele>
        <time>2021-08-09T09:25:14Z</time>
      </trkpt>
      <trkpt lat="44.39067" lon="6.4217">
        <ele>1845.4</ele>
        <time>2021-08-09T09:25:15Z</time>
      </trkpt>
      <trkpt lat="44.39072" lon="6.42169">
        <ele>1846.2</ele>
        <time>2021-08-09T09:25:20Z</time>
      </trkpt>
      <trkpt lat="44.39073" lon="6.42169">
        <ele>1846.6</ele>
        <time>2021-08-09T09:25:21Z</time>
      </trkpt>
      <trkpt lat="44.39076" lon="6.42167">
        <ele>1847.4</ele>
        <time>2021-08-09T09:25:25Z</time>
      </trkpt>
      <trkpt lat="44.3908" lon="6.42164">
        <ele>1848.2</ele>
        <time>2021-08-09T09:25:29Z</time>
      </trkpt>
      <trkpt lat="44.39082" lon="6.42163">
        <ele>1848.6</ele>
        <time>2021-08-09T09:25:31Z</time>
      </trkpt>
      <trkpt lat="44.3909" lon="6.42159">
        <ele>1849.8</ele>
        <time>2021-08-09T09:25:37Z</time>
      </trkpt>
      <trkpt lat="44.39097" lon="6.42158">
        <ele>1850.6</ele>
        <time>2021-08-09T09:25:43Z</time>
      </trkpt>
      <trkpt lat="44.39101" lon="6.42158">
        <ele>1851</ele>
        <time>2021-08-09T09:25:46Z</time>
      </trkpt>
      <trkpt lat="44.39107" lon="6.4216">
        <ele>1851.6</ele>
        <time>2021-08-09T09:25:50Z</time>
      </trkpt>
      <trkpt lat="44.3911" lon="6.42161">
        <ele>1852.2</ele>
        <time>2021-08-09T09:25:52Z</time>
      </trkpt>
      <trkpt lat="44.39117" lon="6.42163">
        <ele>1853.2</ele>
        <time>2021-08-09T09:25:59Z</time>
      </trkpt>
      <trkpt lat="44.39123" lon="6.42167">
        <ele>1854</ele>
        <time>2021-08-09T09:26:04Z</time>
      </trkpt>
      <trkpt lat="44.39125" lon="6.42168">
        <ele>1854.4</ele>
        <time>2021-08-09T09:26:06Z</time>
      </trkpt>
      <trkpt lat="44.39126" lon="6.42169">
        <ele>1854.6</ele>
        <time>2021-08-09T09:26:07Z</time>
      </trkpt>
      <trkpt lat="44.39128" lon="6.4217">
        <ele>1855.2</ele>
        <time>2021-08-09T09:26:09Z</time>
      </trkpt>
      <trkpt lat="44.39136" lon="6.42171">
        <ele>1856.4</ele>
        <time>2021-08-09T09:26:15Z</time>
      </trkpt>
      <trkpt lat="44.39138" lon="6.42172">
        <ele>1856.8</ele>
        <time>2021-08-09T09:26:17Z</time>
      </trkpt>
      <trkpt lat="44.39142" lon="6.42172">
        <ele>1857.4</ele>
        <time>2021-08-09T09:26:20Z</time>
      </trkpt>
      <trkpt lat="44.39144" lon="6.42172">
        <ele>1857.6</ele>
        <time>2021-08-09T09:26:21Z</time>
      </trkpt>
      <trkpt lat="44.39149" lon="6.42171">
        <ele>1858.6</ele>
        <time>2021-08-09T09:26:25Z</time>
      </trkpt>
      <trkpt lat="44.39153" lon="6.42169">
        <ele>1858.8</ele>
        <time>2021-08-09T09:26:28Z</time>
      </trkpt>
      <trkpt lat="44.39158" lon="6.42166">
        <ele>1859.6</ele>
        <time>2021-08-09T09:26:32Z</time>
      </trkpt>
      <trkpt lat="44.39161" lon="6.4216">
        <ele>1860.2</ele>
        <time>2021-08-09T09:26:36Z</time>
      </trkpt>
      <trkpt lat="44.39163" lon="6.42155">
        <ele>1860.8</ele>
        <time>2021-08-09T09:26:39Z</time>
      </trkpt>
      <trkpt lat="44.39164" lon="6.42147">
        <ele>1861.4</ele>
        <time>2021-08-09T09:26:43Z</time>
      </trkpt>
      <trkpt lat="44.39165" lon="6.42141">
        <ele>1861.8</ele>
        <time>2021-08-09T09:26:46Z</time>
      </trkpt>
      <trkpt lat="44.39165" lon="6.42135">
        <ele>1862.2</ele>
        <time>2021-08-09T09:26:49Z</time>
      </trkpt>
      <trkpt lat="44.39165" lon="6.42131">
        <ele>1862.4</ele>
        <time>2021-08-09T09:26:51Z</time>
      </trkpt>
      <trkpt lat="44.39164" lon="6.4213">
        <ele>1862.8</ele>
        <time>2021-08-09T09:26:52Z</time>
      </trkpt>
      <trkpt lat="44.39163" lon="6.42129">
        <ele>1862.8</ele>
        <time>2021-08-09T09:26:53Z</time>
      </trkpt>
      <trkpt lat="44.39162" lon="6.42128">
        <ele>1863</ele>
        <time>2021-08-09T09:26:54Z</time>
      </trkpt>
      <trkpt lat="44.39158" lon="6.42124">
        <ele>1863.8</ele>
        <time>2021-08-09T09:26:58Z</time>
      </trkpt>
      <trkpt lat="44.39157" lon="6.42123">
        <ele>1864</ele>
        <time>2021-08-09T09:26:59Z</time>
      </trkpt>
      <trkpt lat="44.39155" lon="6.42118">
        <ele>1865.2</ele>
        <time>2021-08-09T09:27:03Z</time>
      </trkpt>
      <trkpt lat="44.39154" lon="6.42115">
        <ele>1865.4</ele>
        <time>2021-08-09T09:27:05Z</time>
      </trkpt>
      <trkpt lat="44.39154" lon="6.42111">
        <ele>1865.8</ele>
        <time>2021-08-09T09:27:08Z</time>
      </trkpt>
      <trkpt lat="44.39153" lon="6.42108">
        <ele>1866</ele>
        <time>2021-08-09T09:27:10Z</time>
      </trkpt>
      <trkpt lat="44.39153" lon="6.42105">
        <ele>1866.4</ele>
        <time>2021-08-09T09:27:12Z</time>
      </trkpt>
      <trkpt lat="44.39153" lon="6.42105">
        <ele>1867</ele>
        <time>2021-08-09T09:27:14Z</time>
      </trkpt>
      <trkpt lat="44.39157" lon="6.42104">
        <ele>1868.8</ele>
        <time>2021-08-09T09:27:28Z</time>
      </trkpt>
      <trkpt lat="44.3916" lon="6.42101">
        <ele>1868.8</ele>
        <time>2021-08-09T09:27:32Z</time>
      </trkpt>
      <trkpt lat="44.39163" lon="6.42094">
        <ele>1868.8</ele>
        <time>2021-08-09T09:27:40Z</time>
      </trkpt>
      <trkpt lat="44.39166" lon="6.42089">
        <ele>1869.8</ele>
        <time>2021-08-09T09:27:46Z</time>
      </trkpt>
      <trkpt lat="44.39167" lon="6.42087">
        <ele>1870.2</ele>
        <time>2021-08-09T09:27:48Z</time>
      </trkpt>
      <trkpt lat="44.39167" lon="6.42082">
        <ele>1871</ele>
        <time>2021-08-09T09:27:53Z</time>
      </trkpt>
      <trkpt lat="44.39168" lon="6.42081">
        <ele>1871.2</ele>
        <time>2021-08-09T09:27:55Z</time>
      </trkpt>
      <trkpt lat="44.39169" lon="6.42075">
        <ele>1872.2</ele>
        <time>2021-08-09T09:28:00Z</time>
      </trkpt>
      <trkpt lat="44.39169" lon="6.4207">
        <ele>1872.6</ele>
        <time>2021-08-09T09:28:04Z</time>
      </trkpt>
      <trkpt lat="44.3917" lon="6.42069">
        <ele>1873</ele>
        <time>2021-08-09T09:28:05Z</time>
      </trkpt>
      <trkpt lat="44.3917" lon="6.42068">
        <ele>1873.2</ele>
        <time>2021-08-09T09:28:06Z</time>
      </trkpt>
      <trkpt lat="44.39172" lon="6.42063">
        <ele>1874.4</ele>
        <time>2021-08-09T09:28:11Z</time>
      </trkpt>
      <trkpt lat="44.39172" lon="6.42063">
        <ele>1874.6</ele>
        <time>2021-08-09T09:28:12Z</time>
      </trkpt>
      <trkpt lat="44.39173" lon="6.42062">
        <ele>1875.2</ele>
        <time>2021-08-09T09:28:14Z</time>
      </trkpt>
      <trkpt lat="44.39174" lon="6.42062">
        <ele>1875.8</ele>
        <time>2021-08-09T09:28:15Z</time>
      </trkpt>
      <trkpt lat="44.39177" lon="6.42055">
        <ele>1876.6</ele>
        <time>2021-08-09T09:28:22Z</time>
      </trkpt>
      <trkpt lat="44.39178" lon="6.42052">
        <ele>1877</ele>
        <time>2021-08-09T09:28:26Z</time>
      </trkpt>
      <trkpt lat="44.3918" lon="6.42049">
        <ele>1877.6</ele>
        <time>2021-08-09T09:28:30Z</time>
      </trkpt>
      <trkpt lat="44.39183" lon="6.42045">
        <ele>1878.4</ele>
        <time>2021-08-09T09:28:35Z</time>
      </trkpt>
      <trkpt lat="44.39185" lon="6.42043">
        <ele>1878.8</ele>
        <time>2021-08-09T09:28:38Z</time>
      </trkpt>
      <trkpt lat="44.39188" lon="6.42038">
        <ele>1879.8</ele>
        <time>2021-08-09T09:28:45Z</time>
      </trkpt>
      <trkpt lat="44.39189" lon="6.42037">
        <ele>1880.4</ele>
        <time>2021-08-09T09:28:47Z</time>
      </trkpt>
      <trkpt lat="44.39192" lon="6.42034">
        <ele>1881</ele>
        <time>2021-08-09T09:28:52Z</time>
      </trkpt>
      <trkpt lat="44.39196" lon="6.42032">
        <ele>1881.6</ele>
        <time>2021-08-09T09:28:57Z</time>
      </trkpt>
      <trkpt lat="44.39202" lon="6.42028">
        <ele>1882</ele>
        <time>2021-08-09T09:29:02Z</time>
      </trkpt>
      <trkpt lat="44.39205" lon="6.42023">
        <ele>1883.2</ele>
        <time>2021-08-09T09:29:07Z</time>
      </trkpt>
      <trkpt lat="44.3921" lon="6.42015">
        <ele>1884.4</ele>
        <time>2021-08-09T09:29:15Z</time>
      </trkpt>
      <trkpt lat="44.39211" lon="6.42013">
        <ele>1884.6</ele>
        <time>2021-08-09T09:29:17Z</time>
      </trkpt>
      <trkpt lat="44.39215" lon="6.42008">
        <ele>1885.2</ele>
        <time>2021-08-09T09:29:22Z</time>
      </trkpt>
      <trkpt lat="44.39218" lon="6.42003">
        <ele>1885.6</ele>
        <time>2021-08-09T09:29:27Z</time>
      </trkpt>
      <trkpt lat="44.39224" lon="6.41994">
        <ele>1886.4</ele>
        <time>2021-08-09T09:29:36Z</time>
      </trkpt>
      <trkpt lat="44.39226" lon="6.4199">
        <ele>1886.8</ele>
        <time>2021-08-09T09:29:39Z</time>
      </trkpt>
      <trkpt lat="44.39228" lon="6.41987">
        <ele>1887.6</ele>
        <time>2021-08-09T09:29:42Z</time>
      </trkpt>
      <trkpt lat="44.39231" lon="6.41983">
        <ele>1888.6</ele>
        <time>2021-08-09T09:29:47Z</time>
      </trkpt>
      <trkpt lat="44.39232" lon="6.41983">
        <ele>1888.8</ele>
        <time>2021-08-09T09:29:48Z</time>
      </trkpt>
      <trkpt lat="44.3924" lon="6.41973">
        <ele>1889.6</ele>
        <time>2021-08-09T09:29:54Z</time>
      </trkpt>
      <trkpt lat="44.39241" lon="6.41971">
        <ele>1889.8</ele>
        <time>2021-08-09T09:29:55Z</time>
      </trkpt>
      <trkpt lat="44.39251" lon="6.41957">
        <ele>1890.8</ele>
        <time>2021-08-09T09:30:02Z</time>
      </trkpt>
      <trkpt lat="44.39253" lon="6.41954">
        <ele>1890.8</ele>
        <time>2021-08-09T09:30:03Z</time>
      </trkpt>
      <trkpt lat="44.39261" lon="6.41944">
        <ele>1891.6</ele>
        <time>2021-08-09T09:30:09Z</time>
      </trkpt>
      <trkpt lat="44.39264" lon="6.41941">
        <ele>1891.8</ele>
        <time>2021-08-09T09:30:11Z</time>
      </trkpt>
      <trkpt lat="44.39266" lon="6.41937">
        <ele>1892</ele>
        <time>2021-08-09T09:30:13Z</time>
      </trkpt>
      <trkpt lat="44.39267" lon="6.41934">
        <ele>1892</ele>
        <time>2021-08-09T09:30:14Z</time>
      </trkpt>
      <trkpt lat="44.39271" lon="6.41922">
        <ele>1892.6</ele>
        <time>2021-08-09T09:30:20Z</time>
      </trkpt>
      <trkpt lat="44.39271" lon="6.41919">
        <ele>1892.6</ele>
        <time>2021-08-09T09:30:21Z</time>
      </trkpt>
      <trkpt lat="44.39271" lon="6.41914">
        <ele>1893</ele>
        <time>2021-08-09T09:30:24Z</time>
      </trkpt>
      <trkpt lat="44.39271" lon="6.41912">
        <ele>1893.2</ele>
        <time>2021-08-09T09:30:25Z</time>
      </trkpt>
      <trkpt lat="44.39271" lon="6.41906">
        <ele>1893.6</ele>
        <time>2021-08-09T09:30:30Z</time>
      </trkpt>
      <trkpt lat="44.39272" lon="6.41903">
        <ele>1894</ele>
        <time>2021-08-09T09:30:33Z</time>
      </trkpt>
      <trkpt lat="44.39272" lon="6.41902">
        <ele>1894.2</ele>
        <time>2021-08-09T09:30:34Z</time>
      </trkpt>
      <trkpt lat="44.39274" lon="6.41895">
        <ele>1895</ele>
        <time>2021-08-09T09:30:40Z</time>
      </trkpt>
      <trkpt lat="44.39274" lon="6.41893">
        <ele>1895.2</ele>
        <time>2021-08-09T09:30:42Z</time>
      </trkpt>
      <trkpt lat="44.39276" lon="6.41886">
        <ele>1896.2</ele>
        <time>2021-08-09T09:30:49Z</time>
      </trkpt>
      <trkpt lat="44.39276" lon="6.41885">
        <ele>1896.6</ele>
        <time>2021-08-09T09:30:50Z</time>
      </trkpt>
      <trkpt lat="44.39276" lon="6.41885">
        <ele>1896.8</ele>
        <time>2021-08-09T09:30:51Z</time>
      </trkpt>
      <trkpt lat="44.39276" lon="6.41884">
        <ele>1897.6</ele>
        <time>2021-08-09T09:30:58Z</time>
      </trkpt>
      <trkpt lat="44.39276" lon="6.41882">
        <ele>1897.4</ele>
        <time>2021-08-09T09:31:00Z</time>
      </trkpt>
      <trkpt lat="44.39277" lon="6.41878">
        <ele>1897.6</ele>
        <time>2021-08-09T09:31:02Z</time>
      </trkpt>
      <trkpt lat="44.39278" lon="6.41868">
        <ele>1897.8</ele>
        <time>2021-08-09T09:31:08Z</time>
      </trkpt>
      <trkpt lat="44.39277" lon="6.41867">
        <ele>1898</ele>
        <time>2021-08-09T09:31:09Z</time>
      </trkpt>
      <trkpt lat="44.39278" lon="6.4186">
        <ele>1898.6</ele>
        <time>2021-08-09T09:31:13Z</time>
      </trkpt>
      <trkpt lat="44.39278" lon="6.41858">
        <ele>1898.8</ele>
        <time>2021-08-09T09:31:14Z</time>
      </trkpt>
      <trkpt lat="44.39278" lon="6.41857">
        <ele>1899</ele>
        <time>2021-08-09T09:31:15Z</time>
      </trkpt>
      <trkpt lat="44.39278" lon="6.41851">
        <ele>1899.4</ele>
        <time>2021-08-09T09:31:18Z</time>
      </trkpt>
      <trkpt lat="44.39278" lon="6.4185">
        <ele>1899.8</ele>
        <time>2021-08-09T09:31:19Z</time>
      </trkpt>
      <trkpt lat="44.39277" lon="6.41839">
        <ele>1900.8</ele>
        <time>2021-08-09T09:31:24Z</time>
      </trkpt>
      <trkpt lat="44.39275" lon="6.4183">
        <ele>1901.2</ele>
        <time>2021-08-09T09:31:29Z</time>
      </trkpt>
      <trkpt lat="44.39275" lon="6.41828">
        <ele>1901.2</ele>
        <time>2021-08-09T09:31:30Z</time>
      </trkpt>
      <trkpt lat="44.39276" lon="6.41822">
        <ele>1902</ele>
        <time>2021-08-09T09:31:33Z</time>
      </trkpt>
      <trkpt lat="44.39276" lon="6.4182">
        <ele>1902.2</ele>
        <time>2021-08-09T09:31:34Z</time>
      </trkpt>
      <trkpt lat="44.39277" lon="6.41817">
        <ele>1902.4</ele>
        <time>2021-08-09T09:31:36Z</time>
      </trkpt>
      <trkpt lat="44.39279" lon="6.41809">
        <ele>1903</ele>
        <time>2021-08-09T09:31:40Z</time>
      </trkpt>
      <trkpt lat="44.3928" lon="6.41805">
        <ele>1903.6</ele>
        <time>2021-08-09T09:31:42Z</time>
      </trkpt>
      <trkpt lat="44.3928" lon="6.41802">
        <ele>1904</ele>
        <time>2021-08-09T09:31:44Z</time>
      </trkpt>
      <trkpt lat="44.39281" lon="6.41797">
        <ele>1904.8</ele>
        <time>2021-08-09T09:31:47Z</time>
      </trkpt>
      <trkpt lat="44.39281" lon="6.41794">
        <ele>1905.2</ele>
        <time>2021-08-09T09:31:49Z</time>
      </trkpt>
      <trkpt lat="44.39282" lon="6.41789">
        <ele>1905.8</ele>
        <time>2021-08-09T09:31:52Z</time>
      </trkpt>
      <trkpt lat="44.39283" lon="6.41786">
        <ele>1906.2</ele>
        <time>2021-08-09T09:31:54Z</time>
      </trkpt>
      <trkpt lat="44.39285" lon="6.41775">
        <ele>1907.2</ele>
        <time>2021-08-09T09:32:00Z</time>
      </trkpt>
      <trkpt lat="44.39285" lon="6.41773">
        <ele>1907.4</ele>
        <time>2021-08-09T09:32:01Z</time>
      </trkpt>
      <trkpt lat="44.39286" lon="6.41763">
        <ele>1908.2</ele>
        <time>2021-08-09T09:32:07Z</time>
      </trkpt>
      <trkpt lat="44.39287" lon="6.4176">
        <ele>1908.6</ele>
        <time>2021-08-09T09:32:09Z</time>
      </trkpt>
      <trkpt lat="44.39287" lon="6.41756">
        <ele>1909.2</ele>
        <time>2021-08-09T09:32:11Z</time>
      </trkpt>
      <trkpt lat="44.39288" lon="6.41747">
        <ele>1909.6</ele>
        <time>2021-08-09T09:32:16Z</time>
      </trkpt>
      <trkpt lat="44.39291" lon="6.41741">
        <ele>1910.2</ele>
        <time>2021-08-09T09:32:20Z</time>
      </trkpt>
      <trkpt lat="44.39293" lon="6.41738">
        <ele>1910.4</ele>
        <time>2021-08-09T09:32:23Z</time>
      </trkpt>
      <trkpt lat="44.39295" lon="6.41735">
        <ele>1911.2</ele>
        <time>2021-08-09T09:32:26Z</time>
      </trkpt>
      <trkpt lat="44.39296" lon="6.41734">
        <ele>1912</ele>
        <time>2021-08-09T09:32:29Z</time>
      </trkpt>
      <trkpt lat="44.39297" lon="6.41732">
        <ele>1913.2</ele>
        <time>2021-08-09T09:33:04Z</time>
      </trkpt>
      <trkpt lat="44.393" lon="6.41727">
        <ele>1913.4</ele>
        <time>2021-08-09T09:33:08Z</time>
      </trkpt>
      <trkpt lat="44.39308" lon="6.41715">
        <ele>1913.6</ele>
        <time>2021-08-09T09:33:16Z</time>
      </trkpt>
      <trkpt lat="44.39311" lon="6.41711">
        <ele>1914.2</ele>
        <time>2021-08-09T09:33:19Z</time>
      </trkpt>
      <trkpt lat="44.39315" lon="6.41708">
        <ele>1915.6</ele>
        <time>2021-08-09T09:33:23Z</time>
      </trkpt>
      <trkpt lat="44.39317" lon="6.41706">
        <ele>1915.6</ele>
        <time>2021-08-09T09:33:24Z</time>
      </trkpt>
      <trkpt lat="44.39319" lon="6.41702">
        <ele>1916.4</ele>
        <time>2021-08-09T09:33:27Z</time>
      </trkpt>
      <trkpt lat="44.39321" lon="6.41697">
        <ele>1917</ele>
        <time>2021-08-09T09:33:31Z</time>
      </trkpt>
      <trkpt lat="44.39323" lon="6.41694">
        <ele>1917.8</ele>
        <time>2021-08-09T09:33:33Z</time>
      </trkpt>
      <trkpt lat="44.39324" lon="6.4169">
        <ele>1919</ele>
        <time>2021-08-09T09:33:36Z</time>
      </trkpt>
      <trkpt lat="44.39325" lon="6.41688">
        <ele>1919.2</ele>
        <time>2021-08-09T09:33:37Z</time>
      </trkpt>
      <trkpt lat="44.39328" lon="6.41685">
        <ele>1920.2</ele>
        <time>2021-08-09T09:33:40Z</time>
      </trkpt>
      <trkpt lat="44.3933" lon="6.4168">
        <ele>1921</ele>
        <time>2021-08-09T09:33:43Z</time>
      </trkpt>
      <trkpt lat="44.3933" lon="6.41678">
        <ele>1921.2</ele>
        <time>2021-08-09T09:33:44Z</time>
      </trkpt>
      <trkpt lat="44.39331" lon="6.41676">
        <ele>1921.4</ele>
        <time>2021-08-09T09:33:45Z</time>
      </trkpt>
      <trkpt lat="44.39332" lon="6.41672">
        <ele>1922.2</ele>
        <time>2021-08-09T09:33:48Z</time>
      </trkpt>
      <trkpt lat="44.39333" lon="6.4167">
        <ele>1922.4</ele>
        <time>2021-08-09T09:33:49Z</time>
      </trkpt>
      <trkpt lat="44.39335" lon="6.41668">
        <ele>1922.6</ele>
        <time>2021-08-09T09:33:51Z</time>
      </trkpt>
      <trkpt lat="44.39336" lon="6.41667">
        <ele>1922.8</ele>
        <time>2021-08-09T09:33:52Z</time>
      </trkpt>
      <trkpt lat="44.39336" lon="6.41663">
        <ele>1923.2</ele>
        <time>2021-08-09T09:33:54Z</time>
      </trkpt>
      <trkpt lat="44.39336" lon="6.41659">
        <ele>1924.2</ele>
        <time>2021-08-09T09:33:57Z</time>
      </trkpt>
      <trkpt lat="44.39336" lon="6.41657">
        <ele>1924.4</ele>
        <time>2021-08-09T09:33:58Z</time>
      </trkpt>
      <trkpt lat="44.39334" lon="6.41644">
        <ele>1925.2</ele>
        <time>2021-08-09T09:34:06Z</time>
      </trkpt>
      <trkpt lat="44.39334" lon="6.4164">
        <ele>1925.4</ele>
        <time>2021-08-09T09:34:09Z</time>
      </trkpt>
      <trkpt lat="44.39334" lon="6.41636">
        <ele>1925.8</ele>
        <time>2021-08-09T09:34:12Z</time>
      </trkpt>
      <trkpt lat="44.39333" lon="6.41624">
        <ele>1926.6</ele>
        <time>2021-08-09T09:34:19Z</time>
      </trkpt>
      <trkpt lat="44.39334" lon="6.41615">
        <ele>1927.6</ele>
        <time>2021-08-09T09:34:25Z</time>
      </trkpt>
      <trkpt lat="44.39337" lon="6.41609">
        <ele>1928</ele>
        <time>2021-08-09T09:34:29Z</time>
      </trkpt>
      <trkpt lat="44.39338" lon="6.41607">
        <ele>1928.2</ele>
        <time>2021-08-09T09:34:31Z</time>
      </trkpt>
      <trkpt lat="44.39339" lon="6.41602">
        <ele>1928.8</ele>
        <time>2021-08-09T09:34:34Z</time>
      </trkpt>
      <trkpt lat="44.39339" lon="6.416">
        <ele>1929</ele>
        <time>2021-08-09T09:34:35Z</time>
      </trkpt>
      <trkpt lat="44.3934" lon="6.41596">
        <ele>1929.4</ele>
        <time>2021-08-09T09:34:37Z</time>
      </trkpt>
      <trkpt lat="44.3934" lon="6.41592">
        <ele>1929.8</ele>
        <time>2021-08-09T09:34:39Z</time>
      </trkpt>
      <trkpt lat="44.39339" lon="6.41582">
        <ele>1930.8</ele>
        <time>2021-08-09T09:34:44Z</time>
      </trkpt>
      <trkpt lat="44.39339" lon="6.4158">
        <ele>1931</ele>
        <time>2021-08-09T09:34:45Z</time>
      </trkpt>
      <trkpt lat="44.3934" lon="6.41571">
        <ele>1931.4</ele>
        <time>2021-08-09T09:34:50Z</time>
      </trkpt>
      <trkpt lat="44.39341" lon="6.41557">
        <ele>1932</ele>
        <time>2021-08-09T09:34:55Z</time>
      </trkpt>
      <trkpt lat="44.3934" lon="6.41554">
        <ele>1932.2</ele>
        <time>2021-08-09T09:34:56Z</time>
      </trkpt>
      <trkpt lat="44.39343" lon="6.41538">
        <ele>1933</ele>
        <time>2021-08-09T09:35:01Z</time>
      </trkpt>
      <trkpt lat="44.39345" lon="6.41535">
        <ele>1933.2</ele>
        <time>2021-08-09T09:35:02Z</time>
      </trkpt>
      <trkpt lat="44.39355" lon="6.41518">
        <ele>1934.2</ele>
        <time>2021-08-09T09:35:07Z</time>
      </trkpt>
      <trkpt lat="44.39356" lon="6.41514">
        <ele>1934.4</ele>
        <time>2021-08-09T09:35:08Z</time>
      </trkpt>
      <trkpt lat="44.39363" lon="6.41501">
        <ele>1934.6</ele>
        <time>2021-08-09T09:35:11Z</time>
      </trkpt>
      <trkpt lat="44.39368" lon="6.41492">
        <ele>1934.8</ele>
        <time>2021-08-09T09:35:13Z</time>
      </trkpt>
      <trkpt lat="44.39378" lon="6.41473">
        <ele>1934.8</ele>
        <time>2021-08-09T09:35:18Z</time>
      </trkpt>
      <trkpt lat="44.39388" lon="6.41462">
        <ele>1934</ele>
        <time>2021-08-09T09:35:25Z</time>
      </trkpt>
      <trkpt lat="44.39398" lon="6.41452">
        <ele>1933.8</ele>
        <time>2021-08-09T09:35:31Z</time>
      </trkpt>
      <trkpt lat="44.39411" lon="6.41439">
        <ele>1934.2</ele>
        <time>2021-08-09T09:35:38Z</time>
      </trkpt>
      <trkpt lat="44.39424" lon="6.41423">
        <ele>1934.8</ele>
        <time>2021-08-09T09:35:45Z</time>
      </trkpt>
      <trkpt lat="44.39426" lon="6.4142">
        <ele>1935</ele>
        <time>2021-08-09T09:35:46Z</time>
      </trkpt>
      <trkpt lat="44.39436" lon="6.41408">
        <ele>1936</ele>
        <time>2021-08-09T09:35:52Z</time>
      </trkpt>
      <trkpt lat="44.39437" lon="6.41406">
        <ele>1936</ele>
        <time>2021-08-09T09:35:53Z</time>
      </trkpt>
      <trkpt lat="44.39443" lon="6.41398">
        <ele>1936.6</ele>
        <time>2021-08-09T09:35:57Z</time>
      </trkpt>
      <trkpt lat="44.39451" lon="6.41389">
        <ele>1937.4</ele>
        <time>2021-08-09T09:36:01Z</time>
      </trkpt>
      <trkpt lat="44.39456" lon="6.41382">
        <ele>1937.8</ele>
        <time>2021-08-09T09:36:04Z</time>
      </trkpt>
      <trkpt lat="44.39465" lon="6.41369">
        <ele>1938.6</ele>
        <time>2021-08-09T09:36:09Z</time>
      </trkpt>
      <trkpt lat="44.3947" lon="6.41363">
        <ele>1938.6</ele>
        <time>2021-08-09T09:36:12Z</time>
      </trkpt>
      <trkpt lat="44.39471" lon="6.41356">
        <ele>1939.2</ele>
        <time>2021-08-09T09:36:15Z</time>
      </trkpt>
      <trkpt lat="44.3947" lon="6.41351">
        <ele>1939.4</ele>
        <time>2021-08-09T09:36:17Z</time>
      </trkpt>
      <trkpt lat="44.3947" lon="6.41349">
        <ele>1939.6</ele>
        <time>2021-08-09T09:36:18Z</time>
      </trkpt>
      <trkpt lat="44.39469" lon="6.41347">
        <ele>1939.8</ele>
        <time>2021-08-09T09:36:19Z</time>
      </trkpt>
      <trkpt lat="44.39468" lon="6.41339">
        <ele>1940.4</ele>
        <time>2021-08-09T09:36:23Z</time>
      </trkpt>
      <trkpt lat="44.39467" lon="6.4133">
        <ele>1941.6</ele>
        <time>2021-08-09T09:36:27Z</time>
      </trkpt>
      <trkpt lat="44.39466" lon="6.41324">
        <ele>1942.4</ele>
        <time>2021-08-09T09:36:30Z</time>
      </trkpt>
      <trkpt lat="44.39465" lon="6.41322">
        <ele>1942.6</ele>
        <time>2021-08-09T09:36:31Z</time>
      </trkpt>
      <trkpt lat="44.39465" lon="6.41314">
        <ele>1943.8</ele>
        <time>2021-08-09T09:36:35Z</time>
      </trkpt>
      <trkpt lat="44.39465" lon="6.41313">
        <ele>1944</ele>
        <time>2021-08-09T09:36:36Z</time>
      </trkpt>
      <trkpt lat="44.39466" lon="6.41307">
        <ele>1944.6</ele>
        <time>2021-08-09T09:36:39Z</time>
      </trkpt>
      <trkpt lat="44.39466" lon="6.41306">
        <ele>1945</ele>
        <time>2021-08-09T09:36:40Z</time>
      </trkpt>
      <trkpt lat="44.39466" lon="6.41304">
        <ele>1945.2</ele>
        <time>2021-08-09T09:36:41Z</time>
      </trkpt>
      <trkpt lat="44.39465" lon="6.413">
        <ele>1946.2</ele>
        <time>2021-08-09T09:36:44Z</time>
      </trkpt>
      <trkpt lat="44.39464" lon="6.41294">
        <ele>1946.8</ele>
        <time>2021-08-09T09:36:48Z</time>
      </trkpt>
      <trkpt lat="44.39462" lon="6.41288">
        <ele>1947</ele>
        <time>2021-08-09T09:36:52Z</time>
      </trkpt>
      <trkpt lat="44.39461" lon="6.41287">
        <ele>1947.2</ele>
        <time>2021-08-09T09:36:53Z</time>
      </trkpt>
      <trkpt lat="44.39461" lon="6.41284">
        <ele>1947.2</ele>
        <time>2021-08-09T09:36:55Z</time>
      </trkpt>
      <trkpt lat="44.3946" lon="6.41275">
        <ele>1947.8</ele>
        <time>2021-08-09T09:37:00Z</time>
      </trkpt>
      <trkpt lat="44.3946" lon="6.4127">
        <ele>1948.2</ele>
        <time>2021-08-09T09:37:03Z</time>
      </trkpt>
      <trkpt lat="44.3946" lon="6.41264">
        <ele>1949</ele>
        <time>2021-08-09T09:37:07Z</time>
      </trkpt>
      <trkpt lat="44.39461" lon="6.41261">
        <ele>1949.4</ele>
        <time>2021-08-09T09:37:09Z</time>
      </trkpt>
      <trkpt lat="44.39463" lon="6.41255">
        <ele>1950.8</ele>
        <time>2021-08-09T09:37:13Z</time>
      </trkpt>
      <trkpt lat="44.39463" lon="6.41253">
        <ele>1951</ele>
        <time>2021-08-09T09:37:14Z</time>
      </trkpt>
      <trkpt lat="44.39463" lon="6.41248">
        <ele>1952</ele>
        <time>2021-08-09T09:37:17Z</time>
      </trkpt>
      <trkpt lat="44.39464" lon="6.41239">
        <ele>1952.8</ele>
        <time>2021-08-09T09:37:22Z</time>
      </trkpt>
      <trkpt lat="44.39464" lon="6.41235">
        <ele>1952.8</ele>
        <time>2021-08-09T09:37:24Z</time>
      </trkpt>
      <trkpt lat="44.39464" lon="6.41229">
        <ele>1953.4</ele>
        <time>2021-08-09T09:37:28Z</time>
      </trkpt>
      <trkpt lat="44.39465" lon="6.41227">
        <ele>1953.8</ele>
        <time>2021-08-09T09:37:30Z</time>
      </trkpt>
      <trkpt lat="44.39466" lon="6.41226">
        <ele>1953.8</ele>
        <time>2021-08-09T09:37:31Z</time>
      </trkpt>
      <trkpt lat="44.39466" lon="6.41226">
        <ele>1954.2</ele>
        <time>2021-08-09T09:37:32Z</time>
      </trkpt>
      <trkpt lat="44.39466" lon="6.41224">
        <ele>1955.4</ele>
        <time>2021-08-09T09:39:52Z</time>
      </trkpt>
      <trkpt lat="44.39472" lon="6.41216">
        <ele>1955.4</ele>
        <time>2021-08-09T09:39:59Z</time>
      </trkpt>
      <trkpt lat="44.39473" lon="6.41215">
        <ele>1955.4</ele>
        <time>2021-08-09T09:40:00Z</time>
      </trkpt>
      <trkpt lat="44.39475" lon="6.41209">
        <ele>1955.4</ele>
        <time>2021-08-09T09:40:05Z</time>
      </trkpt>
      <trkpt lat="44.39478" lon="6.41199">
        <ele>1956.4</ele>
        <time>2021-08-09T09:40:12Z</time>
      </trkpt>
      <trkpt lat="44.39479" lon="6.41191">
        <ele>1957.4</ele>
        <time>2021-08-09T09:40:17Z</time>
      </trkpt>
      <trkpt lat="44.39481" lon="6.41188">
        <ele>1958</ele>
        <time>2021-08-09T09:40:19Z</time>
      </trkpt>
      <trkpt lat="44.39481" lon="6.41187">
        <ele>1958.6</ele>
        <time>2021-08-09T09:40:20Z</time>
      </trkpt>
      <trkpt lat="44.39484" lon="6.41178">
        <ele>1959.8</ele>
        <time>2021-08-09T09:40:25Z</time>
      </trkpt>
      <trkpt lat="44.39485" lon="6.41176">
        <ele>1960</ele>
        <time>2021-08-09T09:40:26Z</time>
      </trkpt>
      <trkpt lat="44.39488" lon="6.41171">
        <ele>1961</ele>
        <time>2021-08-09T09:40:30Z</time>
      </trkpt>
      <trkpt lat="44.39491" lon="6.41162">
        <ele>1961.8</ele>
        <time>2021-08-09T09:40:36Z</time>
      </trkpt>
      <trkpt lat="44.39492" lon="6.41161">
        <ele>1962</ele>
        <time>2021-08-09T09:40:37Z</time>
      </trkpt>
      <trkpt lat="44.39494" lon="6.41155">
        <ele>1963.2</ele>
        <time>2021-08-09T09:40:42Z</time>
      </trkpt>
      <trkpt lat="44.39495" lon="6.41153">
        <ele>1963.4</ele>
        <time>2021-08-09T09:40:43Z</time>
      </trkpt>
      <trkpt lat="44.39496" lon="6.4115">
        <ele>1964.8</ele>
        <time>2021-08-09T09:40:48Z</time>
      </trkpt>
      <trkpt lat="44.39497" lon="6.41147">
        <ele>1966.4</ele>
        <time>2021-08-09T09:40:54Z</time>
      </trkpt>
      <trkpt lat="44.39498" lon="6.41139">
        <ele>1967</ele>
        <time>2021-08-09T09:41:02Z</time>
      </trkpt>
      <trkpt lat="44.395" lon="6.41137">
        <ele>1967.4</ele>
        <time>2021-08-09T09:41:05Z</time>
      </trkpt>
      <trkpt lat="44.39501" lon="6.41135">
        <ele>1967.6</ele>
        <time>2021-08-09T09:41:08Z</time>
      </trkpt>
      <trkpt lat="44.39502" lon="6.41131">
        <ele>1968.4</ele>
        <time>2021-08-09T09:41:13Z</time>
      </trkpt>
      <trkpt lat="44.39504" lon="6.41128">
        <ele>1969</ele>
        <time>2021-08-09T09:41:17Z</time>
      </trkpt>
      <trkpt lat="44.39505" lon="6.41124">
        <ele>1969.6</ele>
        <time>2021-08-09T09:41:21Z</time>
      </trkpt>
      <trkpt lat="44.39507" lon="6.4112">
        <ele>1970</ele>
        <time>2021-08-09T09:41:26Z</time>
      </trkpt>
      <trkpt lat="44.39508" lon="6.41116">
        <ele>1970.6</ele>
        <time>2021-08-09T09:41:30Z</time>
      </trkpt>
      <trkpt lat="44.3951" lon="6.41112">
        <ele>1971.2</ele>
        <time>2021-08-09T09:41:34Z</time>
      </trkpt>
      <trkpt lat="44.39511" lon="6.41108">
        <ele>1971.6</ele>
        <time>2021-08-09T09:41:37Z</time>
      </trkpt>
      <trkpt lat="44.39512" lon="6.41104">
        <ele>1972.2</ele>
        <time>2021-08-09T09:41:41Z</time>
      </trkpt>
      <trkpt lat="44.39513" lon="6.41103">
        <ele>1972.8</ele>
        <time>2021-08-09T09:41:43Z</time>
      </trkpt>
      <trkpt lat="44.39516" lon="6.411">
        <ele>1973.6</ele>
        <time>2021-08-09T09:41:48Z</time>
      </trkpt>
      <trkpt lat="44.39517" lon="6.41099">
        <ele>1973.8</ele>
        <time>2021-08-09T09:41:49Z</time>
      </trkpt>
      <trkpt lat="44.39519" lon="6.41092">
        <ele>1974.4</ele>
        <time>2021-08-09T09:41:55Z</time>
      </trkpt>
      <trkpt lat="44.39519" lon="6.41089">
        <ele>1974.8</ele>
        <time>2021-08-09T09:41:58Z</time>
      </trkpt>
      <trkpt lat="44.3952" lon="6.41085">
        <ele>1975.6</ele>
        <time>2021-08-09T09:42:02Z</time>
      </trkpt>
      <trkpt lat="44.39521" lon="6.41083">
        <ele>1975.8</ele>
        <time>2021-08-09T09:42:04Z</time>
      </trkpt>
      <trkpt lat="44.39524" lon="6.41078">
        <ele>1977</ele>
        <time>2021-08-09T09:42:09Z</time>
      </trkpt>
      <trkpt lat="44.39525" lon="6.41076">
        <ele>1977.2</ele>
        <time>2021-08-09T09:42:11Z</time>
      </trkpt>
      <trkpt lat="44.39528" lon="6.41072">
        <ele>1978</ele>
        <time>2021-08-09T09:42:16Z</time>
      </trkpt>
      <trkpt lat="44.39529" lon="6.4107">
        <ele>1978.2</ele>
        <time>2021-08-09T09:42:18Z</time>
      </trkpt>
      <trkpt lat="44.39532" lon="6.41065">
        <ele>1979</ele>
        <time>2021-08-09T09:42:23Z</time>
      </trkpt>
      <trkpt lat="44.39534" lon="6.41061">
        <ele>1979.4</ele>
        <time>2021-08-09T09:42:26Z</time>
      </trkpt>
      <trkpt lat="44.39535" lon="6.41058">
        <ele>1980.2</ele>
        <time>2021-08-09T09:42:30Z</time>
      </trkpt>
      <trkpt lat="44.39536" lon="6.41054">
        <ele>1980.6</ele>
        <time>2021-08-09T09:42:33Z</time>
      </trkpt>
      <trkpt lat="44.39536" lon="6.41052">
        <ele>1980.8</ele>
        <time>2021-08-09T09:42:35Z</time>
      </trkpt>
      <trkpt lat="44.39538" lon="6.4105">
        <ele>1981.2</ele>
        <time>2021-08-09T09:42:37Z</time>
      </trkpt>
      <trkpt lat="44.39539" lon="6.41047">
        <ele>1981.6</ele>
        <time>2021-08-09T09:42:39Z</time>
      </trkpt>
      <trkpt lat="44.39542" lon="6.4104">
        <ele>1982.2</ele>
        <time>2021-08-09T09:42:42Z</time>
      </trkpt>
      <trkpt lat="44.39544" lon="6.41033">
        <ele>1982.8</ele>
        <time>2021-08-09T09:42:45Z</time>
      </trkpt>
      <trkpt lat="44.3955" lon="6.41016">
        <ele>1983.4</ele>
        <time>2021-08-09T09:42:51Z</time>
      </trkpt>
      <trkpt lat="44.39552" lon="6.41013">
        <ele>1983.4</ele>
        <time>2021-08-09T09:42:52Z</time>
      </trkpt>
      <trkpt lat="44.39558" lon="6.40998">
        <ele>1984.2</ele>
        <time>2021-08-09T09:42:57Z</time>
      </trkpt>
      <trkpt lat="44.39561" lon="6.40993">
        <ele>1984.4</ele>
        <time>2021-08-09T09:42:59Z</time>
      </trkpt>
      <trkpt lat="44.39564" lon="6.40987">
        <ele>1984.6</ele>
        <time>2021-08-09T09:43:01Z</time>
      </trkpt>
      <trkpt lat="44.39571" lon="6.4097">
        <ele>1984.6</ele>
        <time>2021-08-09T09:43:07Z</time>
      </trkpt>
      <trkpt lat="44.39571" lon="6.40953">
        <ele>1984.6</ele>
        <time>2021-08-09T09:43:11Z</time>
      </trkpt>
      <trkpt lat="44.39565" lon="6.40937">
        <ele>1984.6</ele>
        <time>2021-08-09T09:43:16Z</time>
      </trkpt>
      <trkpt lat="44.39565" lon="6.40934">
        <ele>1984.4</ele>
        <time>2021-08-09T09:43:17Z</time>
      </trkpt>
      <trkpt lat="44.39566" lon="6.40918">
        <ele>1984</ele>
        <time>2021-08-09T09:43:22Z</time>
      </trkpt>
      <trkpt lat="44.39571" lon="6.40906">
        <ele>1984</ele>
        <time>2021-08-09T09:43:26Z</time>
      </trkpt>
      <trkpt lat="44.3958" lon="6.40888">
        <ele>1983.8</ele>
        <time>2021-08-09T09:43:31Z</time>
      </trkpt>
      <trkpt lat="44.39583" lon="6.40875">
        <ele>1983.6</ele>
        <time>2021-08-09T09:43:36Z</time>
      </trkpt>
      <trkpt lat="44.39584" lon="6.40871">
        <ele>1983.2</ele>
        <time>2021-08-09T09:43:38Z</time>
      </trkpt>
      <trkpt lat="44.39588" lon="6.40858">
        <ele>1982.2</ele>
        <time>2021-08-09T09:43:44Z</time>
      </trkpt>
      <trkpt lat="44.39591" lon="6.40851">
        <ele>1982</ele>
        <time>2021-08-09T09:43:48Z</time>
      </trkpt>
      <trkpt lat="44.39594" lon="6.40847">
        <ele>1982</ele>
        <time>2021-08-09T09:43:51Z</time>
      </trkpt>
      <trkpt lat="44.39602" lon="6.40835">
        <ele>1982</ele>
        <time>2021-08-09T09:43:57Z</time>
      </trkpt>
      <trkpt lat="44.39605" lon="6.4083">
        <ele>1981.8</ele>
        <time>2021-08-09T09:44:01Z</time>
      </trkpt>
      <trkpt lat="44.39607" lon="6.40828">
        <ele>1978.4</ele>
        <time>2021-08-09T09:44:13Z</time>
      </trkpt>
      <trkpt lat="44.39613" lon="6.40824">
        <ele>1978.4</ele>
        <time>2021-08-09T09:44:15Z</time>
      </trkpt>
      <trkpt lat="44.39628" lon="6.40815">
        <ele>1978</ele>
        <time>2021-08-09T09:44:20Z</time>
      </trkpt>
      <trkpt lat="44.39639" lon="6.40803">
        <ele>1977</ele>
        <time>2021-08-09T09:44:24Z</time>
      </trkpt>
      <trkpt lat="44.39642" lon="6.40799">
        <ele>1976.2</ele>
        <time>2021-08-09T09:44:25Z</time>
      </trkpt>
      <trkpt lat="44.39648" lon="6.40795">
        <ele>1975.8</ele>
        <time>2021-08-09T09:44:27Z</time>
      </trkpt>
      <trkpt lat="44.39653" lon="6.40792">
        <ele>1975.4</ele>
        <time>2021-08-09T09:44:29Z</time>
      </trkpt>
      <trkpt lat="44.39658" lon="6.4079">
        <ele>1974.6</ele>
        <time>2021-08-09T09:44:32Z</time>
      </trkpt>
      <trkpt lat="44.39662" lon="6.40789">
        <ele>1974</ele>
        <time>2021-08-09T09:44:34Z</time>
      </trkpt>
      <trkpt lat="44.39667" lon="6.40788">
        <ele>1973.4</ele>
        <time>2021-08-09T09:44:37Z</time>
      </trkpt>
      <trkpt lat="44.39674" lon="6.40787">
        <ele>1973</ele>
        <time>2021-08-09T09:44:41Z</time>
      </trkpt>
      <trkpt lat="44.39687" lon="6.40784">
        <ele>1972.8</ele>
        <time>2021-08-09T09:44:47Z</time>
      </trkpt>
      <trkpt lat="44.39704" lon="6.40773">
        <ele>1972.6</ele>
        <time>2021-08-09T09:44:54Z</time>
      </trkpt>
      <trkpt lat="44.39713" lon="6.40762">
        <ele>1972.6</ele>
        <time>2021-08-09T09:44:59Z</time>
      </trkpt>
      <trkpt lat="44.39725" lon="6.40761">
        <ele>1972.6</ele>
        <time>2021-08-09T09:45:05Z</time>
      </trkpt>
      <trkpt lat="44.39737" lon="6.40757">
        <ele>1972.8</ele>
        <time>2021-08-09T09:45:10Z</time>
      </trkpt>
      <trkpt lat="44.39751" lon="6.40746">
        <ele>1973.4</ele>
        <time>2021-08-09T09:45:16Z</time>
      </trkpt>
      <trkpt lat="44.39766" lon="6.40736">
        <ele>1973.2</ele>
        <time>2021-08-09T09:45:22Z</time>
      </trkpt>
      <trkpt lat="44.39785" lon="6.40732">
        <ele>1972.4</ele>
        <time>2021-08-09T09:45:29Z</time>
      </trkpt>
      <trkpt lat="44.39787" lon="6.40732">
        <ele>1972.2</ele>
        <time>2021-08-09T09:45:30Z</time>
      </trkpt>
      <trkpt lat="44.39796" lon="6.40733">
        <ele>1971.4</ele>
        <time>2021-08-09T09:45:34Z</time>
      </trkpt>
      <trkpt lat="44.39799" lon="6.40734">
        <ele>1971.2</ele>
        <time>2021-08-09T09:45:35Z</time>
      </trkpt>
      <trkpt lat="44.39809" lon="6.40733">
        <ele>1970.8</ele>
        <time>2021-08-09T09:45:38Z</time>
      </trkpt>
      <trkpt lat="44.39815" lon="6.40728">
        <ele>1970.2</ele>
        <time>2021-08-09T09:45:41Z</time>
      </trkpt>
      <trkpt lat="44.39818" lon="6.40722">
        <ele>1969.4</ele>
        <time>2021-08-09T09:45:44Z</time>
      </trkpt>
      <trkpt lat="44.3982" lon="6.40719">
        <ele>1969.2</ele>
        <time>2021-08-09T09:45:46Z</time>
      </trkpt>
      <trkpt lat="44.39821" lon="6.40716">
        <ele>1969</ele>
        <time>2021-08-09T09:45:49Z</time>
      </trkpt>
      <trkpt lat="44.3982" lon="6.40715">
        <ele>1967.2</ele>
        <time>2021-08-09T09:47:49Z</time>
      </trkpt>
      <trkpt lat="44.39819" lon="6.40714">
        <ele>1967.2</ele>
        <time>2021-08-09T09:47:50Z</time>
      </trkpt>
      <trkpt lat="44.39816" lon="6.40717">
        <ele>1967.4</ele>
        <time>2021-08-09T09:47:53Z</time>
      </trkpt>
      <trkpt lat="44.39814" lon="6.40726">
        <ele>1967.6</ele>
        <time>2021-08-09T09:47:57Z</time>
      </trkpt>
      <trkpt lat="44.39805" lon="6.40734">
        <ele>1967.6</ele>
        <time>2021-08-09T09:48:02Z</time>
      </trkpt>
      <trkpt lat="44.39796" lon="6.40734">
        <ele>1967.6</ele>
        <time>2021-08-09T09:48:07Z</time>
      </trkpt>
      <trkpt lat="44.39791" lon="6.40734">
        <ele>1967.6</ele>
        <time>2021-08-09T09:48:10Z</time>
      </trkpt>
      <trkpt lat="44.39784" lon="6.40734">
        <ele>1967.6</ele>
        <time>2021-08-09T09:48:14Z</time>
      </trkpt>
      <trkpt lat="44.39775" lon="6.40736">
        <ele>1968.2</ele>
        <time>2021-08-09T09:48:20Z</time>
      </trkpt>
      <trkpt lat="44.39773" lon="6.40736">
        <ele>1968.4</ele>
        <time>2021-08-09T09:48:21Z</time>
      </trkpt>
      <trkpt lat="44.39765" lon="6.40737">
        <ele>1969.6</ele>
        <time>2021-08-09T09:48:26Z</time>
      </trkpt>
      <trkpt lat="44.39764" lon="6.40738">
        <ele>1969.8</ele>
        <time>2021-08-09T09:48:27Z</time>
      </trkpt>
      <trkpt lat="44.39754" lon="6.40745">
        <ele>1970.6</ele>
        <time>2021-08-09T09:48:33Z</time>
      </trkpt>
      <trkpt lat="44.39751" lon="6.40748">
        <ele>1970.8</ele>
        <time>2021-08-09T09:48:35Z</time>
      </trkpt>
      <trkpt lat="44.39739" lon="6.40757">
        <ele>1971.6</ele>
        <time>2021-08-09T09:48:42Z</time>
      </trkpt>
      <trkpt lat="44.39737" lon="6.40758">
        <ele>1971.8</ele>
        <time>2021-08-09T09:48:43Z</time>
      </trkpt>
      <trkpt lat="44.39724" lon="6.40762">
        <ele>1972.4</ele>
        <time>2021-08-09T09:48:50Z</time>
      </trkpt>
      <trkpt lat="44.3972" lon="6.40762">
        <ele>1972.8</ele>
        <time>2021-08-09T09:48:52Z</time>
      </trkpt>
      <trkpt lat="44.39711" lon="6.40765">
        <ele>1972.8</ele>
        <time>2021-08-09T09:48:55Z</time>
      </trkpt>
      <trkpt lat="44.39698" lon="6.40779">
        <ele>1972.8</ele>
        <time>2021-08-09T09:49:00Z</time>
      </trkpt>
      <trkpt lat="44.39685" lon="6.40787">
        <ele>1972.6</ele>
        <time>2021-08-09T09:49:06Z</time>
      </trkpt>
      <trkpt lat="44.39668" lon="6.40786">
        <ele>1972.6</ele>
        <time>2021-08-09T09:49:12Z</time>
      </trkpt>
      <trkpt lat="44.39655" lon="6.40788">
        <ele>1972.4</ele>
        <time>2021-08-09T09:49:18Z</time>
      </trkpt>
      <trkpt lat="44.39642" lon="6.40798">
        <ele>1972</ele>
        <time>2021-08-09T09:49:26Z</time>
      </trkpt>
      <trkpt lat="44.3963" lon="6.40812">
        <ele>1972.6</ele>
        <time>2021-08-09T09:49:34Z</time>
      </trkpt>
      <trkpt lat="44.39618" lon="6.40822">
        <ele>1973</ele>
        <time>2021-08-09T09:49:41Z</time>
      </trkpt>
      <trkpt lat="44.39609" lon="6.40829">
        <ele>1973.2</ele>
        <time>2021-08-09T09:49:46Z</time>
      </trkpt>
      <trkpt lat="44.39607" lon="6.4083">
        <ele>1973.8</ele>
        <time>2021-08-09T09:49:47Z</time>
      </trkpt>
      <trkpt lat="44.39606" lon="6.4083">
        <ele>1974</ele>
        <time>2021-08-09T09:49:48Z</time>
      </trkpt>
      <trkpt lat="44.39601" lon="6.40833">
        <ele>1974.8</ele>
        <time>2021-08-09T09:49:51Z</time>
      </trkpt>
      <trkpt lat="44.39599" lon="6.40836">
        <ele>1975.4</ele>
        <time>2021-08-09T09:49:53Z</time>
      </trkpt>
      <trkpt lat="44.39596" lon="6.4084">
        <ele>1975.8</ele>
        <time>2021-08-09T09:49:56Z</time>
      </trkpt>
      <trkpt lat="44.39593" lon="6.40846">
        <ele>1976.6</ele>
        <time>2021-08-09T09:50:00Z</time>
      </trkpt>
      <trkpt lat="44.39591" lon="6.40848">
        <ele>1977</ele>
        <time>2021-08-09T09:50:02Z</time>
      </trkpt>
      <trkpt lat="44.39588" lon="6.40852">
        <ele>1978.4</ele>
        <time>2021-08-09T09:50:06Z</time>
      </trkpt>
      <trkpt lat="44.39586" lon="6.40852">
        <ele>1978.8</ele>
        <time>2021-08-09T09:50:07Z</time>
      </trkpt>
      <trkpt lat="44.39582" lon="6.40849">
        <ele>1979.4</ele>
        <time>2021-08-09T09:50:10Z</time>
      </trkpt>
      <trkpt lat="44.3958" lon="6.40846">
        <ele>1979.6</ele>
        <time>2021-08-09T09:50:11Z</time>
      </trkpt>
      <trkpt lat="44.39568" lon="6.40828">
        <ele>1979.8</ele>
        <time>2021-08-09T09:50:17Z</time>
      </trkpt>
      <trkpt lat="44.39558" lon="6.4081">
        <ele>1979.6</ele>
        <time>2021-08-09T09:50:25Z</time>
      </trkpt>
      <trkpt lat="44.39551" lon="6.40794">
        <ele>1980</ele>
        <time>2021-08-09T09:50:32Z</time>
      </trkpt>
      <trkpt lat="44.39548" lon="6.40789">
        <ele>1980.2</ele>
        <time>2021-08-09T09:50:36Z</time>
      </trkpt>
      <trkpt lat="44.39547" lon="6.40788">
        <ele>1980.4</ele>
        <time>2021-08-09T09:50:37Z</time>
      </trkpt>
      <trkpt lat="44.39546" lon="6.40787">
        <ele>1980.6</ele>
        <time>2021-08-09T09:50:38Z</time>
      </trkpt>
      <trkpt lat="44.39538" lon="6.40779">
        <ele>1981.6</ele>
        <time>2021-08-09T09:50:45Z</time>
      </trkpt>
      <trkpt lat="44.39537" lon="6.40778">
        <ele>1981.8</ele>
        <time>2021-08-09T09:50:46Z</time>
      </trkpt>
      <trkpt lat="44.39535" lon="6.40776">
        <ele>1982.4</ele>
        <time>2021-08-09T09:50:48Z</time>
      </trkpt>
      <trkpt lat="44.39531" lon="6.40772">
        <ele>1983</ele>
        <time>2021-08-09T09:50:52Z</time>
      </trkpt>
      <trkpt lat="44.39529" lon="6.40771">
        <ele>1983</ele>
        <time>2021-08-09T09:50:53Z</time>
      </trkpt>
      <trkpt lat="44.39524" lon="6.40767">
        <ele>1984.2</ele>
        <time>2021-08-09T09:50:57Z</time>
      </trkpt>
      <trkpt lat="44.39523" lon="6.40765">
        <ele>1984.4</ele>
        <time>2021-08-09T09:50:59Z</time>
      </trkpt>
      <trkpt lat="44.39519" lon="6.40763">
        <ele>1985</ele>
        <time>2021-08-09T09:51:03Z</time>
      </trkpt>
      <trkpt lat="44.39515" lon="6.4076">
        <ele>1985.4</ele>
        <time>2021-08-09T09:51:06Z</time>
      </trkpt>
      <trkpt lat="44.39514" lon="6.40759">
        <ele>1985.6</ele>
        <time>2021-08-09T09:51:07Z</time>
      </trkpt>
      <trkpt lat="44.39509" lon="6.40756">
        <ele>1986.2</ele>
        <time>2021-08-09T09:51:11Z</time>
      </trkpt>
      <trkpt lat="44.39504" lon="6.40753">
        <ele>1986.6</ele>
        <time>2021-08-09T09:51:14Z</time>
      </trkpt>
      <trkpt lat="44.39496" lon="6.40747">
        <ele>1987.2</ele>
        <time>2021-08-09T09:51:21Z</time>
      </trkpt>
      <trkpt lat="44.39494" lon="6.40746">
        <ele>1987.6</ele>
        <time>2021-08-09T09:51:23Z</time>
      </trkpt>
      <trkpt lat="44.39489" lon="6.40742">
        <ele>1988.4</ele>
        <time>2021-08-09T09:51:28Z</time>
      </trkpt>
      <trkpt lat="44.39487" lon="6.40741">
        <ele>1989</ele>
        <time>2021-08-09T09:51:31Z</time>
      </trkpt>
      <trkpt lat="44.39485" lon="6.4074">
        <ele>1989.4</ele>
        <time>2021-08-09T09:51:32Z</time>
      </trkpt>
      <trkpt lat="44.3948" lon="6.40738">
        <ele>1990.4</ele>
        <time>2021-08-09T09:51:36Z</time>
      </trkpt>
      <trkpt lat="44.3948" lon="6.40737">
        <ele>1991.2</ele>
        <time>2021-08-09T09:51:39Z</time>
      </trkpt>
      <trkpt lat="44.39478" lon="6.40736">
        <ele>1992.4</ele>
        <time>2021-08-09T09:51:44Z</time>
      </trkpt>
      <trkpt lat="44.39475" lon="6.40735">
        <ele>1993.4</ele>
        <time>2021-08-09T09:51:48Z</time>
      </trkpt>
      <trkpt lat="44.39471" lon="6.40733">
        <ele>1994.4</ele>
        <time>2021-08-09T09:51:54Z</time>
      </trkpt>
      <trkpt lat="44.3947" lon="6.40731">
        <ele>1994.8</ele>
        <time>2021-08-09T09:51:56Z</time>
      </trkpt>
      <trkpt lat="44.39467" lon="6.40728">
        <ele>1995.6</ele>
        <time>2021-08-09T09:52:00Z</time>
      </trkpt>
      <trkpt lat="44.39465" lon="6.40726">
        <ele>1996.2</ele>
        <time>2021-08-09T09:52:04Z</time>
      </trkpt>
      <trkpt lat="44.39464" lon="6.40725">
        <ele>1996.8</ele>
        <time>2021-08-09T09:52:06Z</time>
      </trkpt>
      <trkpt lat="44.3946" lon="6.40722">
        <ele>1997.6</ele>
        <time>2021-08-09T09:52:11Z</time>
      </trkpt>
      <trkpt lat="44.3946" lon="6.40721">
        <ele>1998</ele>
        <time>2021-08-09T09:52:12Z</time>
      </trkpt>
      <trkpt lat="44.39456" lon="6.40716">
        <ele>1998.8</ele>
        <time>2021-08-09T09:52:18Z</time>
      </trkpt>
      <trkpt lat="44.39455" lon="6.40716">
        <ele>1998.8</ele>
        <time>2021-08-09T09:52:19Z</time>
      </trkpt>
      <trkpt lat="44.39453" lon="6.4071">
        <ele>2000</ele>
        <time>2021-08-09T09:52:25Z</time>
      </trkpt>
      <trkpt lat="44.39452" lon="6.4071">
        <ele>2000.2</ele>
        <time>2021-08-09T09:52:26Z</time>
      </trkpt>
      <trkpt lat="44.39451" lon="6.40705">
        <ele>2001</ele>
        <time>2021-08-09T09:52:31Z</time>
      </trkpt>
      <trkpt lat="44.39449" lon="6.40702">
        <ele>2001.8</ele>
        <time>2021-08-09T09:52:34Z</time>
      </trkpt>
      <trkpt lat="44.39448" lon="6.407">
        <ele>2002.2</ele>
        <time>2021-08-09T09:52:36Z</time>
      </trkpt>
      <trkpt lat="44.39447" lon="6.40696">
        <ele>2003.2</ele>
        <time>2021-08-09T09:52:42Z</time>
      </trkpt>
      <trkpt lat="44.39445" lon="6.40691">
        <ele>2004.2</ele>
        <time>2021-08-09T09:52:50Z</time>
      </trkpt>
      <trkpt lat="44.39444" lon="6.4069">
        <ele>2004.4</ele>
        <time>2021-08-09T09:52:52Z</time>
      </trkpt>
      <trkpt lat="44.39444" lon="6.4069">
        <ele>2004.6</ele>
        <time>2021-08-09T09:52:54Z</time>
      </trkpt>
      <trkpt lat="44.39444" lon="6.40688">
        <ele>2005.4</ele>
        <time>2021-08-09T09:52:57Z</time>
      </trkpt>
      <trkpt lat="44.39443" lon="6.40687">
        <ele>2005.6</ele>
        <time>2021-08-09T09:52:58Z</time>
      </trkpt>
      <trkpt lat="44.39443" lon="6.40687">
        <ele>2005.6</ele>
        <time>2021-08-09T09:52:59Z</time>
      </trkpt>
      <trkpt lat="44.39441" lon="6.40687">
        <ele>2006.2</ele>
        <time>2021-08-09T09:53:02Z</time>
      </trkpt>
      <trkpt lat="44.3944" lon="6.40687">
        <ele>2006.2</ele>
        <time>2021-08-09T09:53:04Z</time>
      </trkpt>
      <trkpt lat="44.39438" lon="6.40687">
        <ele>2006.4</ele>
        <time>2021-08-09T09:53:06Z</time>
      </trkpt>
      <trkpt lat="44.39438" lon="6.40688">
        <ele>2006.6</ele>
        <time>2021-08-09T09:53:07Z</time>
      </trkpt>
      <trkpt lat="44.39434" lon="6.40686">
        <ele>2007</ele>
        <time>2021-08-09T09:53:14Z</time>
      </trkpt>
      <trkpt lat="44.3943" lon="6.40684">
        <ele>2007.4</ele>
        <time>2021-08-09T09:53:20Z</time>
      </trkpt>
      <trkpt lat="44.39427" lon="6.40681">
        <ele>2008.8</ele>
        <time>2021-08-09T09:53:25Z</time>
      </trkpt>
      <trkpt lat="44.39425" lon="6.40679">
        <ele>2009.8</ele>
        <time>2021-08-09T09:53:29Z</time>
      </trkpt>
      <trkpt lat="44.39422" lon="6.40676">
        <ele>2011</ele>
        <time>2021-08-09T09:53:33Z</time>
      </trkpt>
      <trkpt lat="44.3942" lon="6.40674">
        <ele>2012</ele>
        <time>2021-08-09T09:53:38Z</time>
      </trkpt>
      <trkpt lat="44.39415" lon="6.40671">
        <ele>2012.6</ele>
        <time>2021-08-09T09:53:45Z</time>
      </trkpt>
      <trkpt lat="44.39413" lon="6.4067">
        <ele>2013</ele>
        <time>2021-08-09T09:53:48Z</time>
      </trkpt>
      <trkpt lat="44.39411" lon="6.40668">
        <ele>2013.4</ele>
        <time>2021-08-09T09:53:52Z</time>
      </trkpt>
      <trkpt lat="44.39409" lon="6.40667">
        <ele>2014</ele>
        <time>2021-08-09T09:53:55Z</time>
      </trkpt>
      <trkpt lat="44.39406" lon="6.40666">
        <ele>2015.2</ele>
        <time>2021-08-09T09:53:59Z</time>
      </trkpt>
      <trkpt lat="44.39401" lon="6.40664">
        <ele>2016.6</ele>
        <time>2021-08-09T09:54:05Z</time>
      </trkpt>
      <trkpt lat="44.39398" lon="6.40663">
        <ele>2017.4</ele>
        <time>2021-08-09T09:54:10Z</time>
      </trkpt>
      <trkpt lat="44.39395" lon="6.40662">
        <ele>2017.8</ele>
        <time>2021-08-09T09:54:13Z</time>
      </trkpt>
      <trkpt lat="44.39391" lon="6.40661">
        <ele>2018.6</ele>
        <time>2021-08-09T09:54:19Z</time>
      </trkpt>
      <trkpt lat="44.3939" lon="6.4066">
        <ele>2018.8</ele>
        <time>2021-08-09T09:54:20Z</time>
      </trkpt>
      <trkpt lat="44.39388" lon="6.40658">
        <ele>2020</ele>
        <time>2021-08-09T09:54:24Z</time>
      </trkpt>
      <trkpt lat="44.39386" lon="6.40658">
        <ele>2020.4</ele>
        <time>2021-08-09T09:54:26Z</time>
      </trkpt>
      <trkpt lat="44.39383" lon="6.40658">
        <ele>2021.2</ele>
        <time>2021-08-09T09:54:30Z</time>
      </trkpt>
      <trkpt lat="44.39382" lon="6.40658">
        <ele>2021.4</ele>
        <time>2021-08-09T09:54:32Z</time>
      </trkpt>
      <trkpt lat="44.3938" lon="6.40658">
        <ele>2021.6</ele>
        <time>2021-08-09T09:54:35Z</time>
      </trkpt>
      <trkpt lat="44.39377" lon="6.40658">
        <ele>2021.8</ele>
        <time>2021-08-09T09:54:38Z</time>
      </trkpt>
      <trkpt lat="44.39372" lon="6.4066">
        <ele>2021.8</ele>
        <time>2021-08-09T09:54:42Z</time>
      </trkpt>
      <trkpt lat="44.39362" lon="6.40661">
        <ele>2022</ele>
        <time>2021-08-09T09:54:49Z</time>
      </trkpt>
      <trkpt lat="44.39357" lon="6.40659">
        <ele>2022.2</ele>
        <time>2021-08-09T09:54:52Z</time>
      </trkpt>
      <trkpt lat="44.39352" lon="6.40656">
        <ele>2022.2</ele>
        <time>2021-08-09T09:54:55Z</time>
      </trkpt>
      <trkpt lat="44.39337" lon="6.40659">
        <ele>2022</ele>
        <time>2021-08-09T09:55:01Z</time>
      </trkpt>
      <trkpt lat="44.39318" lon="6.40656">
        <ele>2021.8</ele>
        <time>2021-08-09T09:55:07Z</time>
      </trkpt>
      <trkpt lat="44.39303" lon="6.4066">
        <ele>2021.2</ele>
        <time>2021-08-09T09:55:12Z</time>
      </trkpt>
      <trkpt lat="44.39287" lon="6.40662">
        <ele>2021</ele>
        <time>2021-08-09T09:55:17Z</time>
      </trkpt>
      <trkpt lat="44.39281" lon="6.40662">
        <ele>2020.8</ele>
        <time>2021-08-09T09:55:19Z</time>
      </trkpt>
      <trkpt lat="44.3927" lon="6.40661">
        <ele>2020.8</ele>
        <time>2021-08-09T09:55:24Z</time>
      </trkpt>
      <trkpt lat="44.39261" lon="6.40658">
        <ele>2021.4</ele>
        <time>2021-08-09T09:55:30Z</time>
      </trkpt>
      <trkpt lat="44.39258" lon="6.40656">
        <ele>2022</ele>
        <time>2021-08-09T09:55:32Z</time>
      </trkpt>
      <trkpt lat="44.39257" lon="6.40654">
        <ele>2022.2</ele>
        <time>2021-08-09T09:55:33Z</time>
      </trkpt>
      <trkpt lat="44.39256" lon="6.40651">
        <ele>2022.8</ele>
        <time>2021-08-09T09:55:35Z</time>
      </trkpt>
      <trkpt lat="44.39255" lon="6.4065">
        <ele>2023.2</ele>
        <time>2021-08-09T09:55:36Z</time>
      </trkpt>
      <trkpt lat="44.39253" lon="6.40646">
        <ele>2024.2</ele>
        <time>2021-08-09T09:55:39Z</time>
      </trkpt>
      <trkpt lat="44.39252" lon="6.40644">
        <ele>2024.6</ele>
        <time>2021-08-09T09:55:40Z</time>
      </trkpt>
      <trkpt lat="44.39245" lon="6.40638">
        <ele>2025.2</ele>
        <time>2021-08-09T09:55:43Z</time>
      </trkpt>
      <trkpt lat="44.39243" lon="6.40636">
        <ele>2025.4</ele>
        <time>2021-08-09T09:55:44Z</time>
      </trkpt>
      <trkpt lat="44.39229" lon="6.40626">
        <ele>2025.4</ele>
        <time>2021-08-09T09:55:49Z</time>
      </trkpt>
      <trkpt lat="44.39224" lon="6.40618">
        <ele>2024.8</ele>
        <time>2021-08-09T09:55:54Z</time>
      </trkpt>
      <trkpt lat="44.39218" lon="6.40608">
        <ele>2024.6</ele>
        <time>2021-08-09T09:56:00Z</time>
      </trkpt>
      <trkpt lat="44.3921" lon="6.40596">
        <ele>2025.8</ele>
        <time>2021-08-09T09:56:08Z</time>
      </trkpt>
      <trkpt lat="44.39205" lon="6.40591">
        <ele>2026.4</ele>
        <time>2021-08-09T09:56:12Z</time>
      </trkpt>
      <trkpt lat="44.39203" lon="6.40589">
        <ele>2026.6</ele>
        <time>2021-08-09T09:56:15Z</time>
      </trkpt>
      <trkpt lat="44.39203" lon="6.40589">
        <ele>2026.8</ele>
        <time>2021-08-09T09:56:16Z</time>
      </trkpt>
      <trkpt lat="44.39202" lon="6.40587">
        <ele>2028.4</ele>
        <time>2021-08-09T09:56:27Z</time>
      </trkpt>
      <trkpt lat="44.392" lon="6.40584">
        <ele>2028.6</ele>
        <time>2021-08-09T09:56:31Z</time>
      </trkpt>
      <trkpt lat="44.39197" lon="6.40579">
        <ele>2029</ele>
        <time>2021-08-09T09:56:38Z</time>
      </trkpt>
      <trkpt lat="44.39197" lon="6.40578">
        <ele>2029.4</ele>
        <time>2021-08-09T09:56:41Z</time>
      </trkpt>
      <trkpt lat="44.39196" lon="6.40576">
        <ele>2029.8</ele>
        <time>2021-08-09T09:56:43Z</time>
      </trkpt>
      <trkpt lat="44.39196" lon="6.40574">
        <ele>2030</ele>
        <time>2021-08-09T09:56:46Z</time>
      </trkpt>
      <trkpt lat="44.39194" lon="6.40571">
        <ele>2030.6</ele>
        <time>2021-08-09T09:56:50Z</time>
      </trkpt>
      <trkpt lat="44.39193" lon="6.40567">
        <ele>2031.6</ele>
        <time>2021-08-09T09:56:55Z</time>
      </trkpt>
      <trkpt lat="44.39193" lon="6.40566">
        <ele>2032</ele>
        <time>2021-08-09T09:56:56Z</time>
      </trkpt>
      <trkpt lat="44.39191" lon="6.40561">
        <ele>2033</ele>
        <time>2021-08-09T09:57:03Z</time>
      </trkpt>
      <trkpt lat="44.39191" lon="6.4056">
        <ele>2033.2</ele>
        <time>2021-08-09T09:57:04Z</time>
      </trkpt>
      <trkpt lat="44.3919" lon="6.40558">
        <ele>2034</ele>
        <time>2021-08-09T09:57:09Z</time>
      </trkpt>
      <trkpt lat="44.39189" lon="6.40557">
        <ele>2034.2</ele>
        <time>2021-08-09T09:57:10Z</time>
      </trkpt>
      <trkpt lat="44.39188" lon="6.40554">
        <ele>2035.2</ele>
        <time>2021-08-09T09:57:14Z</time>
      </trkpt>
      <trkpt lat="44.39187" lon="6.40553">
        <ele>2035.6</ele>
        <time>2021-08-09T09:57:16Z</time>
      </trkpt>
      <trkpt lat="44.39185" lon="6.40551">
        <ele>2036.2</ele>
        <time>2021-08-09T09:57:19Z</time>
      </trkpt>
      <trkpt lat="44.39184" lon="6.40551">
        <ele>2036.8</ele>
        <time>2021-08-09T09:57:22Z</time>
      </trkpt>
      <trkpt lat="44.39183" lon="6.4055">
        <ele>2037.4</ele>
        <time>2021-08-09T09:57:27Z</time>
      </trkpt>
      <trkpt lat="44.39175" lon="6.40547">
        <ele>2037.4</ele>
        <time>2021-08-09T09:57:32Z</time>
      </trkpt>
      <trkpt lat="44.39165" lon="6.40539">
        <ele>2037.2</ele>
        <time>2021-08-09T09:57:38Z</time>
      </trkpt>
      <trkpt lat="44.39155" lon="6.40535">
        <ele>2037.2</ele>
        <time>2021-08-09T09:57:44Z</time>
      </trkpt>
      <trkpt lat="44.39139" lon="6.40538">
        <ele>2038.2</ele>
        <time>2021-08-09T09:57:50Z</time>
      </trkpt>
      <trkpt lat="44.39135" lon="6.40538">
        <ele>2038.4</ele>
        <time>2021-08-09T09:57:52Z</time>
      </trkpt>
      <trkpt lat="44.39127" lon="6.40539">
        <ele>2038.6</ele>
        <time>2021-08-09T09:57:57Z</time>
      </trkpt>
      <trkpt lat="44.39126" lon="6.40539">
        <ele>2038.6</ele>
        <time>2021-08-09T09:57:58Z</time>
      </trkpt>
      <trkpt lat="44.39123" lon="6.40537">
        <ele>2038.6</ele>
        <time>2021-08-09T09:58:00Z</time>
      </trkpt>
      <trkpt lat="44.39121" lon="6.40534">
        <ele>2039</ele>
        <time>2021-08-09T09:58:02Z</time>
      </trkpt>
      <trkpt lat="44.39121" lon="6.40534">
        <ele>2039.4</ele>
        <time>2021-08-09T09:58:04Z</time>
      </trkpt>
      <trkpt lat="44.39117" lon="6.40529">
        <ele>2041.8</ele>
        <time>2021-08-09T09:58:55Z</time>
      </trkpt>
      <trkpt lat="44.39116" lon="6.40527">
        <ele>2041.8</ele>
        <time>2021-08-09T09:58:57Z</time>
      </trkpt>
      <trkpt lat="44.39111" lon="6.4051">
        <ele>2041.4</ele>
        <time>2021-08-09T09:59:06Z</time>
      </trkpt>
      <trkpt lat="44.39109" lon="6.40497">
        <ele>2041.2</ele>
        <time>2021-08-09T09:59:12Z</time>
      </trkpt>
      <trkpt lat="44.39105" lon="6.40476">
        <ele>2041.2</ele>
        <time>2021-08-09T09:59:19Z</time>
      </trkpt>
      <trkpt lat="44.39106" lon="6.40455">
        <ele>2041</ele>
        <time>2021-08-09T09:59:26Z</time>
      </trkpt>
      <trkpt lat="44.39105" lon="6.40439">
        <ele>2040.6</ele>
        <time>2021-08-09T09:59:31Z</time>
      </trkpt>
      <trkpt lat="44.39098" lon="6.40426">
        <ele>2040.8</ele>
        <time>2021-08-09T09:59:36Z</time>
      </trkpt>
      <trkpt lat="44.39086" lon="6.40419">
        <ele>2040.6</ele>
        <time>2021-08-09T09:59:42Z</time>
      </trkpt>
      <trkpt lat="44.39071" lon="6.40409">
        <ele>2040.6</ele>
        <time>2021-08-09T09:59:50Z</time>
      </trkpt>
      <trkpt lat="44.39054" lon="6.40398">
        <ele>2040.6</ele>
        <time>2021-08-09T09:59:59Z</time>
      </trkpt>
      <trkpt lat="44.39042" lon="6.40395">
        <ele>2040.6</ele>
        <time>2021-08-09T10:00:05Z</time>
      </trkpt>
      <trkpt lat="44.39028" lon="6.40393">
        <ele>2041.8</ele>
        <time>2021-08-09T10:00:13Z</time>
      </trkpt>
      <trkpt lat="44.3902" lon="6.40398">
        <ele>2042</ele>
        <time>2021-08-09T10:00:18Z</time>
      </trkpt>
      <trkpt lat="44.39011" lon="6.40404">
        <ele>2042</ele>
        <time>2021-08-09T10:00:24Z</time>
      </trkpt>
      <trkpt lat="44.38999" lon="6.40411">
        <ele>2042.4</ele>
        <time>2021-08-09T10:00:30Z</time>
      </trkpt>
      <trkpt lat="44.38988" lon="6.40419">
        <ele>2042.8</ele>
        <time>2021-08-09T10:00:36Z</time>
      </trkpt>
      <trkpt lat="44.38979" lon="6.40432">
        <ele>2042.8</ele>
        <time>2021-08-09T10:00:41Z</time>
      </trkpt>
      <trkpt lat="44.38963" lon="6.40449">
        <ele>2042.6</ele>
        <time>2021-08-09T10:00:49Z</time>
      </trkpt>
      <trkpt lat="44.38946" lon="6.40468">
        <ele>2042.6</ele>
        <time>2021-08-09T10:00:57Z</time>
      </trkpt>
      <trkpt lat="44.38931" lon="6.40485">
        <ele>2042.8</ele>
        <time>2021-08-09T10:01:05Z</time>
      </trkpt>
      <trkpt lat="44.38924" lon="6.4049">
        <ele>2043</ele>
        <time>2021-08-09T10:01:09Z</time>
      </trkpt>
      <trkpt lat="44.38922" lon="6.40489">
        <ele>2043</ele>
        <time>2021-08-09T10:01:10Z</time>
      </trkpt>
      <trkpt lat="44.38918" lon="6.40486">
        <ele>2043.2</ele>
        <time>2021-08-09T10:01:13Z</time>
      </trkpt>
      <trkpt lat="44.38916" lon="6.40485">
        <ele>2043.4</ele>
        <time>2021-08-09T10:01:14Z</time>
      </trkpt>
      <trkpt lat="44.38911" lon="6.4048">
        <ele>2043.6</ele>
        <time>2021-08-09T10:01:18Z</time>
      </trkpt>
      <trkpt lat="44.38906" lon="6.40466">
        <ele>2044.4</ele>
        <time>2021-08-09T10:01:25Z</time>
      </trkpt>
      <trkpt lat="44.38903" lon="6.40461">
        <ele>2045</ele>
        <time>2021-08-09T10:01:28Z</time>
      </trkpt>
      <trkpt lat="44.38899" lon="6.40457">
        <ele>2045.4</ele>
        <time>2021-08-09T10:01:31Z</time>
      </trkpt>
      <trkpt lat="44.38893" lon="6.40455">
        <ele>2046.4</ele>
        <time>2021-08-09T10:01:35Z</time>
      </trkpt>
      <trkpt lat="44.3889" lon="6.40455">
        <ele>2046.8</ele>
        <time>2021-08-09T10:01:37Z</time>
      </trkpt>
      <trkpt lat="44.38886" lon="6.40453">
        <ele>2047</ele>
        <time>2021-08-09T10:01:40Z</time>
      </trkpt>
      <trkpt lat="44.38884" lon="6.40451">
        <ele>2047.2</ele>
        <time>2021-08-09T10:01:41Z</time>
      </trkpt>
      <trkpt lat="44.38877" lon="6.4045">
        <ele>2047.2</ele>
        <time>2021-08-09T10:01:44Z</time>
      </trkpt>
      <trkpt lat="44.38874" lon="6.40449">
        <ele>2047.2</ele>
        <time>2021-08-09T10:01:46Z</time>
      </trkpt>
      <trkpt lat="44.3886" lon="6.40448">
        <ele>2046.8</ele>
        <time>2021-08-09T10:01:54Z</time>
      </trkpt>
      <trkpt lat="44.38858" lon="6.40447">
        <ele>2046.8</ele>
        <time>2021-08-09T10:01:55Z</time>
      </trkpt>
      <trkpt lat="44.38853" lon="6.40445">
        <ele>2046.8</ele>
        <time>2021-08-09T10:01:59Z</time>
      </trkpt>
      <trkpt lat="44.38852" lon="6.40444">
        <ele>2046.8</ele>
        <time>2021-08-09T10:02:00Z</time>
      </trkpt>
      <trkpt lat="44.38848" lon="6.40442">
        <ele>2047</ele>
        <time>2021-08-09T10:02:04Z</time>
      </trkpt>
      <trkpt lat="44.38847" lon="6.4044">
        <ele>2047.4</ele>
        <time>2021-08-09T10:02:08Z</time>
      </trkpt>
      <trkpt lat="44.38847" lon="6.4044">
        <ele>2047.6</ele>
        <time>2021-08-09T10:02:09Z</time>
      </trkpt>
      <trkpt lat="44.38845" lon="6.40438">
        <ele>2048.6</ele>
        <time>2021-08-09T10:02:14Z</time>
      </trkpt>
      <trkpt lat="44.38844" lon="6.40438">
        <ele>2048.8</ele>
        <time>2021-08-09T10:02:15Z</time>
      </trkpt>
      <trkpt lat="44.38841" lon="6.40438">
        <ele>2050</ele>
        <time>2021-08-09T10:02:22Z</time>
      </trkpt>
      <trkpt lat="44.38839" lon="6.40437">
        <ele>2050.6</ele>
        <time>2021-08-09T10:02:24Z</time>
      </trkpt>
      <trkpt lat="44.38838" lon="6.40436">
        <ele>2050.8</ele>
        <time>2021-08-09T10:02:27Z</time>
      </trkpt>
      <trkpt lat="44.38837" lon="6.40435">
        <ele>2051</ele>
        <time>2021-08-09T10:02:29Z</time>
      </trkpt>
      <trkpt lat="44.38836" lon="6.40434">
        <ele>2051.8</ele>
        <time>2021-08-09T10:02:32Z</time>
      </trkpt>
      <trkpt lat="44.38835" lon="6.40432">
        <ele>2052.6</ele>
        <time>2021-08-09T10:02:36Z</time>
      </trkpt>
      <trkpt lat="44.38834" lon="6.40429">
        <ele>2052.8</ele>
        <time>2021-08-09T10:02:45Z</time>
      </trkpt>
      <trkpt lat="44.38829" lon="6.40416">
        <ele>2052.8</ele>
        <time>2021-08-09T10:02:51Z</time>
      </trkpt>
      <trkpt lat="44.38818" lon="6.40393">
        <ele>2052.2</ele>
        <time>2021-08-09T10:02:58Z</time>
      </trkpt>
      <trkpt lat="44.38815" lon="6.40388">
        <ele>2051.6</ele>
        <time>2021-08-09T10:03:00Z</time>
      </trkpt>
      <trkpt lat="44.38808" lon="6.4038">
        <ele>2051.2</ele>
        <time>2021-08-09T10:03:04Z</time>
      </trkpt>
      <trkpt lat="44.38794" lon="6.40373">
        <ele>2050.8</ele>
        <time>2021-08-09T10:03:10Z</time>
      </trkpt>
      <trkpt lat="44.3878" lon="6.40372">
        <ele>2051.2</ele>
        <time>2021-08-09T10:03:17Z</time>
      </trkpt>
      <trkpt lat="44.38761" lon="6.40368">
        <ele>2051.4</ele>
        <time>2021-08-09T10:03:25Z</time>
      </trkpt>
      <trkpt lat="44.38752" lon="6.40354">
        <ele>2051.6</ele>
        <time>2021-08-09T10:03:30Z</time>
      </trkpt>
      <trkpt lat="44.38743" lon="6.40337">
        <ele>2051.6</ele>
        <time>2021-08-09T10:03:35Z</time>
      </trkpt>
      <trkpt lat="44.38732" lon="6.40324">
        <ele>2050.6</ele>
        <time>2021-08-09T10:03:41Z</time>
      </trkpt>
      <trkpt lat="44.38728" lon="6.40322">
        <ele>2050.4</ele>
        <time>2021-08-09T10:03:43Z</time>
      </trkpt>
      <trkpt lat="44.38727" lon="6.4032">
        <ele>2050.4</ele>
        <time>2021-08-09T10:03:44Z</time>
      </trkpt>
      <trkpt lat="44.38726" lon="6.40317">
        <ele>2050.4</ele>
        <time>2021-08-09T10:03:45Z</time>
      </trkpt>
      <trkpt lat="44.38725" lon="6.40297">
        <ele>2050.4</ele>
        <time>2021-08-09T10:03:51Z</time>
      </trkpt>
      <trkpt lat="44.38724" lon="6.40269">
        <ele>2050.4</ele>
        <time>2021-08-09T10:04:00Z</time>
      </trkpt>
      <trkpt lat="44.38717" lon="6.40262">
        <ele>2050.2</ele>
        <time>2021-08-09T10:04:05Z</time>
      </trkpt>
      <trkpt lat="44.3871" lon="6.40258">
        <ele>2050.6</ele>
        <time>2021-08-09T10:04:11Z</time>
      </trkpt>
      <trkpt lat="44.38709" lon="6.40254">
        <ele>2051.4</ele>
        <time>2021-08-09T10:04:13Z</time>
      </trkpt>
      <trkpt lat="44.38706" lon="6.40242">
        <ele>2052.4</ele>
        <time>2021-08-09T10:04:18Z</time>
      </trkpt>
      <trkpt lat="44.38705" lon="6.40237">
        <ele>2052.4</ele>
        <time>2021-08-09T10:04:20Z</time>
      </trkpt>
      <trkpt lat="44.38699" lon="6.40225">
        <ele>2052.8</ele>
        <time>2021-08-09T10:04:27Z</time>
      </trkpt>
      <trkpt lat="44.38697" lon="6.40222">
        <ele>2052.8</ele>
        <time>2021-08-09T10:04:29Z</time>
      </trkpt>
      <trkpt lat="44.38694" lon="6.40219">
        <ele>2052.8</ele>
        <time>2021-08-09T10:04:32Z</time>
      </trkpt>
      <trkpt lat="44.38692" lon="6.40216">
        <ele>2053.2</ele>
        <time>2021-08-09T10:04:34Z</time>
      </trkpt>
      <trkpt lat="44.38691" lon="6.40215">
        <ele>2053.4</ele>
        <time>2021-08-09T10:04:35Z</time>
      </trkpt>
      <trkpt lat="44.38687" lon="6.40211">
        <ele>2054.6</ele>
        <time>2021-08-09T10:04:38Z</time>
      </trkpt>
      <trkpt lat="44.38684" lon="6.4021">
        <ele>2055.4</ele>
        <time>2021-08-09T10:04:40Z</time>
      </trkpt>
      <trkpt lat="44.38681" lon="6.40208">
        <ele>2055.8</ele>
        <time>2021-08-09T10:04:42Z</time>
      </trkpt>
      <trkpt lat="44.38672" lon="6.40202">
        <ele>2056.4</ele>
        <time>2021-08-09T10:04:48Z</time>
      </trkpt>
      <trkpt lat="44.38668" lon="6.40198">
        <ele>2056.8</ele>
        <time>2021-08-09T10:04:51Z</time>
      </trkpt>
      <trkpt lat="44.38663" lon="6.40195">
        <ele>2057</ele>
        <time>2021-08-09T10:04:55Z</time>
      </trkpt>
      <trkpt lat="44.38657" lon="6.40192">
        <ele>2057.2</ele>
        <time>2021-08-09T10:04:59Z</time>
      </trkpt>
      <trkpt lat="44.38656" lon="6.40188">
        <ele>2057.4</ele>
        <time>2021-08-09T10:05:01Z</time>
      </trkpt>
      <trkpt lat="44.38655" lon="6.40185">
        <ele>2057.8</ele>
        <time>2021-08-09T10:05:03Z</time>
      </trkpt>
      <trkpt lat="44.38654" lon="6.40175">
        <ele>2058.6</ele>
        <time>2021-08-09T10:05:08Z</time>
      </trkpt>
      <trkpt lat="44.38652" lon="6.40168">
        <ele>2058.8</ele>
        <time>2021-08-09T10:05:12Z</time>
      </trkpt>
      <trkpt lat="44.38652" lon="6.40161">
        <ele>2059.4</ele>
        <time>2021-08-09T10:05:16Z</time>
      </trkpt>
      <trkpt lat="44.3865" lon="6.40159">
        <ele>2060</ele>
        <time>2021-08-09T10:05:18Z</time>
      </trkpt>
      <trkpt lat="44.38645" lon="6.40156">
        <ele>2060.6</ele>
        <time>2021-08-09T10:05:22Z</time>
      </trkpt>
      <trkpt lat="44.38643" lon="6.40156">
        <ele>2061</ele>
        <time>2021-08-09T10:05:23Z</time>
      </trkpt>
      <trkpt lat="44.38637" lon="6.40152">
        <ele>2062</ele>
        <time>2021-08-09T10:05:28Z</time>
      </trkpt>
      <trkpt lat="44.38633" lon="6.4015">
        <ele>2062.4</ele>
        <time>2021-08-09T10:05:31Z</time>
      </trkpt>
      <trkpt lat="44.38626" lon="6.40146">
        <ele>2063.2</ele>
        <time>2021-08-09T10:05:36Z</time>
      </trkpt>
      <trkpt lat="44.38622" lon="6.40143">
        <ele>2063.6</ele>
        <time>2021-08-09T10:05:39Z</time>
      </trkpt>
      <trkpt lat="44.38616" lon="6.4014">
        <ele>2064.2</ele>
        <time>2021-08-09T10:05:43Z</time>
      </trkpt>
      <trkpt lat="44.38608" lon="6.40135">
        <ele>2065.2</ele>
        <time>2021-08-09T10:05:48Z</time>
      </trkpt>
      <trkpt lat="44.38607" lon="6.40135">
        <ele>2065.2</ele>
        <time>2021-08-09T10:05:49Z</time>
      </trkpt>
      <trkpt lat="44.38597" lon="6.40131">
        <ele>2066.2</ele>
        <time>2021-08-09T10:05:56Z</time>
      </trkpt>
      <trkpt lat="44.38593" lon="6.4013">
        <ele>2066.4</ele>
        <time>2021-08-09T10:05:58Z</time>
      </trkpt>
      <trkpt lat="44.38584" lon="6.40126">
        <ele>2067.2</ele>
        <time>2021-08-09T10:06:05Z</time>
      </trkpt>
      <trkpt lat="44.38582" lon="6.40125">
        <ele>2067.4</ele>
        <time>2021-08-09T10:06:07Z</time>
      </trkpt>
      <trkpt lat="44.38581" lon="6.40124">
        <ele>2067.4</ele>
        <time>2021-08-09T10:06:08Z</time>
      </trkpt>
      <trkpt lat="44.38577" lon="6.40119">
        <ele>2068</ele>
        <time>2021-08-09T10:06:12Z</time>
      </trkpt>
      <trkpt lat="44.38575" lon="6.40114">
        <ele>2068.6</ele>
        <time>2021-08-09T10:06:15Z</time>
      </trkpt>
      <trkpt lat="44.38571" lon="6.40107">
        <ele>2069.4</ele>
        <time>2021-08-09T10:06:19Z</time>
      </trkpt>
      <trkpt lat="44.3857" lon="6.40105">
        <ele>2069.6</ele>
        <time>2021-08-09T10:06:20Z</time>
      </trkpt>
      <trkpt lat="44.38563" lon="6.40092">
        <ele>2070.4</ele>
        <time>2021-08-09T10:06:28Z</time>
      </trkpt>
      <trkpt lat="44.38562" lon="6.40091">
        <ele>2070.6</ele>
        <time>2021-08-09T10:06:29Z</time>
      </trkpt>
      <trkpt lat="44.38557" lon="6.40085">
        <ele>2071.2</ele>
        <time>2021-08-09T10:06:34Z</time>
      </trkpt>
      <trkpt lat="44.38554" lon="6.40079">
        <ele>2071.6</ele>
        <time>2021-08-09T10:06:37Z</time>
      </trkpt>
      <trkpt lat="44.38551" lon="6.40071">
        <ele>2072.6</ele>
        <time>2021-08-09T10:06:42Z</time>
      </trkpt>
      <trkpt lat="44.3855" lon="6.40067">
        <ele>2072.8</ele>
        <time>2021-08-09T10:06:44Z</time>
      </trkpt>
      <trkpt lat="44.38546" lon="6.4006">
        <ele>2073</ele>
        <time>2021-08-09T10:06:48Z</time>
      </trkpt>
      <trkpt lat="44.38537" lon="6.40046">
        <ele>2073.6</ele>
        <time>2021-08-09T10:06:56Z</time>
      </trkpt>
      <trkpt lat="44.38528" lon="6.4003">
        <ele>2073.6</ele>
        <time>2021-08-09T10:07:01Z</time>
      </trkpt>
      <trkpt lat="44.38517" lon="6.40019">
        <ele>2073.6</ele>
        <time>2021-08-09T10:07:06Z</time>
      </trkpt>
      <trkpt lat="44.38501" lon="6.40011">
        <ele>2073</ele>
        <time>2021-08-09T10:07:11Z</time>
      </trkpt>
      <trkpt lat="44.38486" lon="6.40001">
        <ele>2072.6</ele>
        <time>2021-08-09T10:07:16Z</time>
      </trkpt>
      <trkpt lat="44.38466" lon="6.3998">
        <ele>2072</ele>
        <time>2021-08-09T10:07:23Z</time>
      </trkpt>
      <trkpt lat="44.3845" lon="6.39965">
        <ele>2071.6</ele>
        <time>2021-08-09T10:07:28Z</time>
      </trkpt>
      <trkpt lat="44.38447" lon="6.39962">
        <ele>2071.4</ele>
        <time>2021-08-09T10:07:29Z</time>
      </trkpt>
      <trkpt lat="44.38443" lon="6.39959">
        <ele>2071.4</ele>
        <time>2021-08-09T10:07:30Z</time>
      </trkpt>
      <trkpt lat="44.38432" lon="6.39954">
        <ele>2070.6</ele>
        <time>2021-08-09T10:07:33Z</time>
      </trkpt>
      <trkpt lat="44.38429" lon="6.39952">
        <ele>2070.2</ele>
        <time>2021-08-09T10:07:34Z</time>
      </trkpt>
      <trkpt lat="44.38416" lon="6.39944">
        <ele>2069.8</ele>
        <time>2021-08-09T10:07:39Z</time>
      </trkpt>
      <trkpt lat="44.38388" lon="6.39926">
        <ele>2069.8</ele>
        <time>2021-08-09T10:07:49Z</time>
      </trkpt>
      <trkpt lat="44.3838" lon="6.39925">
        <ele>2070</ele>
        <time>2021-08-09T10:07:53Z</time>
      </trkpt>
      <trkpt lat="44.3838" lon="6.39926">
        <ele>2070</ele>
        <time>2021-08-09T10:07:54Z</time>
      </trkpt>
      <trkpt lat="44.38382" lon="6.39936">
        <ele>2070.2</ele>
        <time>2021-08-09T10:07:59Z</time>
      </trkpt>
      <trkpt lat="44.38382" lon="6.39944">
        <ele>2071.2</ele>
        <time>2021-08-09T10:08:03Z</time>
      </trkpt>
      <trkpt lat="44.3838" lon="6.39945">
        <ele>2071.6</ele>
        <time>2021-08-09T10:08:05Z</time>
      </trkpt>
      <trkpt lat="44.38379" lon="6.39946">
        <ele>2071.8</ele>
        <time>2021-08-09T10:08:06Z</time>
      </trkpt>
      <trkpt lat="44.38378" lon="6.39946">
        <ele>2071.8</ele>
        <time>2021-08-09T10:08:08Z</time>
      </trkpt>
      <trkpt lat="44.3838" lon="6.39942">
        <ele>2071</ele>
        <time>2021-08-09T10:14:38Z</time>
      </trkpt>
      <trkpt lat="44.3838" lon="6.39941">
        <ele>2071</ele>
        <time>2021-08-09T10:14:39Z</time>
      </trkpt>
      <trkpt lat="44.38373" lon="6.39929">
        <ele>2071.2</ele>
        <time>2021-08-09T10:14:45Z</time>
      </trkpt>
      <trkpt lat="44.38363" lon="6.3992">
        <ele>2071.4</ele>
        <time>2021-08-09T10:14:51Z</time>
      </trkpt>
      <trkpt lat="44.38352" lon="6.39911">
        <ele>2071.6</ele>
        <time>2021-08-09T10:14:58Z</time>
      </trkpt>
      <trkpt lat="44.3835" lon="6.3991">
        <ele>2071.8</ele>
        <time>2021-08-09T10:14:59Z</time>
      </trkpt>
      <trkpt lat="44.38338" lon="6.39904">
        <ele>2072.8</ele>
        <time>2021-08-09T10:15:06Z</time>
      </trkpt>
      <trkpt lat="44.38336" lon="6.39904">
        <ele>2073</ele>
        <time>2021-08-09T10:15:07Z</time>
      </trkpt>
      <trkpt lat="44.3833" lon="6.39907">
        <ele>2073.4</ele>
        <time>2021-08-09T10:15:11Z</time>
      </trkpt>
      <trkpt lat="44.38325" lon="6.39905">
        <ele>2074</ele>
        <time>2021-08-09T10:15:15Z</time>
      </trkpt>
      <trkpt lat="44.38323" lon="6.39904">
        <ele>2074.4</ele>
        <time>2021-08-09T10:15:17Z</time>
      </trkpt>
      <trkpt lat="44.38323" lon="6.39904">
        <ele>2074.6</ele>
        <time>2021-08-09T10:15:18Z</time>
      </trkpt>
      <trkpt lat="44.38322" lon="6.39902">
        <ele>2075</ele>
        <time>2021-08-09T10:15:28Z</time>
      </trkpt>
      <trkpt lat="44.3832" lon="6.39899">
        <ele>2074.8</ele>
        <time>2021-08-09T10:15:30Z</time>
      </trkpt>
      <trkpt lat="44.38318" lon="6.39898">
        <ele>2074.6</ele>
        <time>2021-08-09T10:15:31Z</time>
      </trkpt>
      <trkpt lat="44.38313" lon="6.39899">
        <ele>2074.4</ele>
        <time>2021-08-09T10:15:34Z</time>
      </trkpt>
      <trkpt lat="44.38304" lon="6.39901">
        <ele>2073.8</ele>
        <time>2021-08-09T10:15:38Z</time>
      </trkpt>
      <trkpt lat="44.38301" lon="6.39901">
        <ele>2073.4</ele>
        <time>2021-08-09T10:15:39Z</time>
      </trkpt>
      <trkpt lat="44.38294" lon="6.39899">
        <ele>2073</ele>
        <time>2021-08-09T10:15:41Z</time>
      </trkpt>
      <trkpt lat="44.38285" lon="6.399">
        <ele>2072.8</ele>
        <time>2021-08-09T10:15:43Z</time>
      </trkpt>
      <trkpt lat="44.38276" lon="6.39902">
        <ele>2072.6</ele>
        <time>2021-08-09T10:15:45Z</time>
      </trkpt>
      <trkpt lat="44.38265" lon="6.39905">
        <ele>2072.2</ele>
        <time>2021-08-09T10:15:47Z</time>
      </trkpt>
      <trkpt lat="44.38259" lon="6.39906">
        <ele>2071.8</ele>
        <time>2021-08-09T10:15:48Z</time>
      </trkpt>
      <trkpt lat="44.38246" lon="6.39908">
        <ele>2070.8</ele>
        <time>2021-08-09T10:15:50Z</time>
      </trkpt>
      <trkpt lat="44.38231" lon="6.3991">
        <ele>2069.6</ele>
        <time>2021-08-09T10:15:52Z</time>
      </trkpt>
      <trkpt lat="44.38207" lon="6.39915">
        <ele>2068.4</ele>
        <time>2021-08-09T10:15:55Z</time>
      </trkpt>
      <trkpt lat="44.38199" lon="6.39915">
        <ele>2067.8</ele>
        <time>2021-08-09T10:15:56Z</time>
      </trkpt>
      <trkpt lat="44.38191" lon="6.39913">
        <ele>2067.2</ele>
        <time>2021-08-09T10:15:57Z</time>
      </trkpt>
      <trkpt lat="44.38178" lon="6.3991">
        <ele>2066</ele>
        <time>2021-08-09T10:15:59Z</time>
      </trkpt>
      <trkpt lat="44.38166" lon="6.39906">
        <ele>2064.4</ele>
        <time>2021-08-09T10:16:01Z</time>
      </trkpt>
      <trkpt lat="44.38161" lon="6.39901">
        <ele>2063.6</ele>
        <time>2021-08-09T10:16:02Z</time>
      </trkpt>
      <trkpt lat="44.38156" lon="6.39895">
        <ele>2062.8</ele>
        <time>2021-08-09T10:16:03Z</time>
      </trkpt>
      <trkpt lat="44.38147" lon="6.39886">
        <ele>2061.2</ele>
        <time>2021-08-09T10:16:05Z</time>
      </trkpt>
      <trkpt lat="44.38136" lon="6.39878">
        <ele>2060.2</ele>
        <time>2021-08-09T10:16:07Z</time>
      </trkpt>
      <trkpt lat="44.38125" lon="6.39872">
        <ele>2059.2</ele>
        <time>2021-08-09T10:16:09Z</time>
      </trkpt>
      <trkpt lat="44.3812" lon="6.39868">
        <ele>2058.6</ele>
        <time>2021-08-09T10:16:10Z</time>
      </trkpt>
      <trkpt lat="44.38115" lon="6.39862">
        <ele>2058.2</ele>
        <time>2021-08-09T10:16:11Z</time>
      </trkpt>
      <trkpt lat="44.38111" lon="6.39856">
        <ele>2057.6</ele>
        <time>2021-08-09T10:16:12Z</time>
      </trkpt>
      <trkpt lat="44.38097" lon="6.39836">
        <ele>2056.2</ele>
        <time>2021-08-09T10:16:15Z</time>
      </trkpt>
      <trkpt lat="44.38092" lon="6.39831">
        <ele>2055.6</ele>
        <time>2021-08-09T10:16:16Z</time>
      </trkpt>
      <trkpt lat="44.38081" lon="6.39823">
        <ele>2054.4</ele>
        <time>2021-08-09T10:16:18Z</time>
      </trkpt>
      <trkpt lat="44.38069" lon="6.39817">
        <ele>2053</ele>
        <time>2021-08-09T10:16:20Z</time>
      </trkpt>
      <trkpt lat="44.38058" lon="6.39812">
        <ele>2051.2</ele>
        <time>2021-08-09T10:16:22Z</time>
      </trkpt>
      <trkpt lat="44.38049" lon="6.39805">
        <ele>2048.8</ele>
        <time>2021-08-09T10:16:24Z</time>
      </trkpt>
      <trkpt lat="44.38047" lon="6.39803">
        <ele>2048.4</ele>
        <time>2021-08-09T10:16:25Z</time>
      </trkpt>
      <trkpt lat="44.38046" lon="6.39801">
        <ele>2047.8</ele>
        <time>2021-08-09T10:16:26Z</time>
      </trkpt>
      <trkpt lat="44.38046" lon="6.39801">
        <ele>2047</ele>
        <time>2021-08-09T10:16:27Z</time>
      </trkpt>
      <trkpt lat="44.38046" lon="6.39801">
        <ele>2046.2</ele>
        <time>2021-08-09T10:16:28Z</time>
      </trkpt>
      <trkpt lat="44.38045" lon="6.39799">
        <ele>2042.6</ele>
        <time>2021-08-09T10:18:47Z</time>
      </trkpt>
      <trkpt lat="44.38041" lon="6.39796">
        <ele>2042.6</ele>
        <time>2021-08-09T10:18:49Z</time>
      </trkpt>
      <trkpt lat="44.38027" lon="6.39784">
        <ele>2042.2</ele>
        <time>2021-08-09T10:18:53Z</time>
      </trkpt>
      <trkpt lat="44.38014" lon="6.39773">
        <ele>2042</ele>
        <time>2021-08-09T10:18:56Z</time>
      </trkpt>
      <trkpt lat="44.38" lon="6.39765">
        <ele>2041.2</ele>
        <time>2021-08-09T10:18:59Z</time>
      </trkpt>
      <trkpt lat="44.37989" lon="6.39759">
        <ele>2040.2</ele>
        <time>2021-08-09T10:19:01Z</time>
      </trkpt>
      <trkpt lat="44.37974" lon="6.39748">
        <ele>2038.6</ele>
        <time>2021-08-09T10:19:04Z</time>
      </trkpt>
      <trkpt lat="44.3797" lon="6.39745">
        <ele>2037.6</ele>
        <time>2021-08-09T10:19:05Z</time>
      </trkpt>
      <trkpt lat="44.37962" lon="6.39735">
        <ele>2036.2</ele>
        <time>2021-08-09T10:19:07Z</time>
      </trkpt>
      <trkpt lat="44.37957" lon="6.39729">
        <ele>2035.8</ele>
        <time>2021-08-09T10:19:08Z</time>
      </trkpt>
      <trkpt lat="44.37953" lon="6.39725">
        <ele>2035.2</ele>
        <time>2021-08-09T10:19:09Z</time>
      </trkpt>
      <trkpt lat="44.37948" lon="6.39721">
        <ele>2034.6</ele>
        <time>2021-08-09T10:19:10Z</time>
      </trkpt>
      <trkpt lat="44.37938" lon="6.39716">
        <ele>2033.4</ele>
        <time>2021-08-09T10:19:12Z</time>
      </trkpt>
      <trkpt lat="44.37934" lon="6.39714">
        <ele>2033</ele>
        <time>2021-08-09T10:19:13Z</time>
      </trkpt>
      <trkpt lat="44.37924" lon="6.39713">
        <ele>2031.4</ele>
        <time>2021-08-09T10:19:15Z</time>
      </trkpt>
      <trkpt lat="44.37919" lon="6.39714">
        <ele>2030.6</ele>
        <time>2021-08-09T10:19:16Z</time>
      </trkpt>
      <trkpt lat="44.37914" lon="6.39714">
        <ele>2030</ele>
        <time>2021-08-09T10:19:17Z</time>
      </trkpt>
      <trkpt lat="44.3791" lon="6.39714">
        <ele>2029.2</ele>
        <time>2021-08-09T10:19:18Z</time>
      </trkpt>
      <trkpt lat="44.37905" lon="6.39713">
        <ele>2028.6</ele>
        <time>2021-08-09T10:19:19Z</time>
      </trkpt>
      <trkpt lat="44.379" lon="6.39709">
        <ele>2028</ele>
        <time>2021-08-09T10:19:20Z</time>
      </trkpt>
      <trkpt lat="44.37896" lon="6.39705">
        <ele>2027.6</ele>
        <time>2021-08-09T10:19:21Z</time>
      </trkpt>
      <trkpt lat="44.37892" lon="6.39702">
        <ele>2027.2</ele>
        <time>2021-08-09T10:19:22Z</time>
      </trkpt>
      <trkpt lat="44.37883" lon="6.39701">
        <ele>2026.4</ele>
        <time>2021-08-09T10:19:24Z</time>
      </trkpt>
      <trkpt lat="44.37872" lon="6.39699">
        <ele>2025.4</ele>
        <time>2021-08-09T10:19:26Z</time>
      </trkpt>
      <trkpt lat="44.37868" lon="6.39696">
        <ele>2025</ele>
        <time>2021-08-09T10:19:27Z</time>
      </trkpt>
      <trkpt lat="44.37861" lon="6.39686">
        <ele>2024</ele>
        <time>2021-08-09T10:19:29Z</time>
      </trkpt>
      <trkpt lat="44.37852" lon="6.39676">
        <ele>2023.2</ele>
        <time>2021-08-09T10:19:31Z</time>
      </trkpt>
      <trkpt lat="44.37849" lon="6.39671">
        <ele>2022.6</ele>
        <time>2021-08-09T10:19:32Z</time>
      </trkpt>
      <trkpt lat="44.37843" lon="6.39657">
        <ele>2021.6</ele>
        <time>2021-08-09T10:19:34Z</time>
      </trkpt>
      <trkpt lat="44.3784" lon="6.39651">
        <ele>2020.8</ele>
        <time>2021-08-09T10:19:35Z</time>
      </trkpt>
      <trkpt lat="44.37837" lon="6.39646">
        <ele>2020.2</ele>
        <time>2021-08-09T10:19:36Z</time>
      </trkpt>
      <trkpt lat="44.37827" lon="6.39641">
        <ele>2019</ele>
        <time>2021-08-09T10:19:38Z</time>
      </trkpt>
      <trkpt lat="44.37816" lon="6.39639">
        <ele>2018</ele>
        <time>2021-08-09T10:19:40Z</time>
      </trkpt>
      <trkpt lat="44.37807" lon="6.39634">
        <ele>2016</ele>
        <time>2021-08-09T10:19:42Z</time>
      </trkpt>
      <trkpt lat="44.37794" lon="6.39639">
        <ele>2014.6</ele>
        <time>2021-08-09T10:19:45Z</time>
      </trkpt>
      <trkpt lat="44.37786" lon="6.39648">
        <ele>2012.8</ele>
        <time>2021-08-09T10:19:47Z</time>
      </trkpt>
      <trkpt lat="44.37783" lon="6.39654">
        <ele>2012</ele>
        <time>2021-08-09T10:19:48Z</time>
      </trkpt>
      <trkpt lat="44.37779" lon="6.39659">
        <ele>2011.4</ele>
        <time>2021-08-09T10:19:49Z</time>
      </trkpt>
      <trkpt lat="44.37769" lon="6.39678">
        <ele>2010.2</ele>
        <time>2021-08-09T10:19:52Z</time>
      </trkpt>
      <trkpt lat="44.37764" lon="6.39684">
        <ele>2010</ele>
        <time>2021-08-09T10:19:53Z</time>
      </trkpt>
      <trkpt lat="44.37759" lon="6.39689">
        <ele>2009.4</ele>
        <time>2021-08-09T10:19:54Z</time>
      </trkpt>
      <trkpt lat="44.37754" lon="6.39693">
        <ele>2008.8</ele>
        <time>2021-08-09T10:19:55Z</time>
      </trkpt>
      <trkpt lat="44.37742" lon="6.39694">
        <ele>2007.6</ele>
        <time>2021-08-09T10:19:57Z</time>
      </trkpt>
      <trkpt lat="44.37729" lon="6.39689">
        <ele>2006.2</ele>
        <time>2021-08-09T10:19:59Z</time>
      </trkpt>
      <trkpt lat="44.37714" lon="6.39684">
        <ele>2004.8</ele>
        <time>2021-08-09T10:20:01Z</time>
      </trkpt>
      <trkpt lat="44.37706" lon="6.39681">
        <ele>2003.8</ele>
        <time>2021-08-09T10:20:02Z</time>
      </trkpt>
      <trkpt lat="44.37692" lon="6.39673">
        <ele>2002</ele>
        <time>2021-08-09T10:20:04Z</time>
      </trkpt>
      <trkpt lat="44.37686" lon="6.39669">
        <ele>2001.4</ele>
        <time>2021-08-09T10:20:05Z</time>
      </trkpt>
      <trkpt lat="44.37679" lon="6.39664">
        <ele>2001</ele>
        <time>2021-08-09T10:20:06Z</time>
      </trkpt>
      <trkpt lat="44.37666" lon="6.39657">
        <ele>1999.6</ele>
        <time>2021-08-09T10:20:08Z</time>
      </trkpt>
      <trkpt lat="44.37652" lon="6.39655">
        <ele>1997.8</ele>
        <time>2021-08-09T10:20:10Z</time>
      </trkpt>
      <trkpt lat="44.37644" lon="6.39656">
        <ele>1995.6</ele>
        <time>2021-08-09T10:20:11Z</time>
      </trkpt>
      <trkpt lat="44.37636" lon="6.39658">
        <ele>1995</ele>
        <time>2021-08-09T10:20:12Z</time>
      </trkpt>
      <trkpt lat="44.37628" lon="6.3966">
        <ele>1994.4</ele>
        <time>2021-08-09T10:20:13Z</time>
      </trkpt>
      <trkpt lat="44.37613" lon="6.39664">
        <ele>1993.2</ele>
        <time>2021-08-09T10:20:15Z</time>
      </trkpt>
      <trkpt lat="44.376" lon="6.39669">
        <ele>1991.8</ele>
        <time>2021-08-09T10:20:17Z</time>
      </trkpt>
      <trkpt lat="44.37588" lon="6.39674">
        <ele>1990.2</ele>
        <time>2021-08-09T10:20:19Z</time>
      </trkpt>
      <trkpt lat="44.37574" lon="6.39676">
        <ele>1988.8</ele>
        <time>2021-08-09T10:20:21Z</time>
      </trkpt>
      <trkpt lat="44.37567" lon="6.39678">
        <ele>1987.8</ele>
        <time>2021-08-09T10:20:22Z</time>
      </trkpt>
      <trkpt lat="44.37559" lon="6.3968">
        <ele>1987.2</ele>
        <time>2021-08-09T10:20:23Z</time>
      </trkpt>
      <trkpt lat="44.37542" lon="6.39685">
        <ele>1985.4</ele>
        <time>2021-08-09T10:20:25Z</time>
      </trkpt>
      <trkpt lat="44.37527" lon="6.39688">
        <ele>1983.8</ele>
        <time>2021-08-09T10:20:27Z</time>
      </trkpt>
      <trkpt lat="44.37514" lon="6.3969">
        <ele>1982.4</ele>
        <time>2021-08-09T10:20:29Z</time>
      </trkpt>
      <trkpt lat="44.37501" lon="6.39697">
        <ele>1981.2</ele>
        <time>2021-08-09T10:20:31Z</time>
      </trkpt>
      <trkpt lat="44.37493" lon="6.39704">
        <ele>1979.4</ele>
        <time>2021-08-09T10:20:33Z</time>
      </trkpt>
      <trkpt lat="44.3749" lon="6.39705">
        <ele>1978.6</ele>
        <time>2021-08-09T10:20:34Z</time>
      </trkpt>
      <trkpt lat="44.37488" lon="6.39705">
        <ele>1977.6</ele>
        <time>2021-08-09T10:20:35Z</time>
      </trkpt>
      <trkpt lat="44.37483" lon="6.39705">
        <ele>1976.6</ele>
        <time>2021-08-09T10:20:37Z</time>
      </trkpt>
      <trkpt lat="44.37481" lon="6.39703">
        <ele>1976.2</ele>
        <time>2021-08-09T10:20:38Z</time>
      </trkpt>
      <trkpt lat="44.3748" lon="6.39701">
        <ele>1975.6</ele>
        <time>2021-08-09T10:20:39Z</time>
      </trkpt>
      <trkpt lat="44.37479" lon="6.39697">
        <ele>1974.2</ele>
        <time>2021-08-09T10:20:40Z</time>
      </trkpt>
      <trkpt lat="44.37479" lon="6.39696">
        <ele>1973.8</ele>
        <time>2021-08-09T10:20:41Z</time>
      </trkpt>
      <trkpt lat="44.37479" lon="6.39695">
        <ele>1973.2</ele>
        <time>2021-08-09T10:20:43Z</time>
      </trkpt>
      <trkpt lat="44.37477" lon="6.39699">
        <ele>1971</ele>
        <time>2021-08-09T10:20:57Z</time>
      </trkpt>
      <trkpt lat="44.37474" lon="6.39701">
        <ele>1971</ele>
        <time>2021-08-09T10:20:59Z</time>
      </trkpt>
      <trkpt lat="44.37469" lon="6.39701">
        <ele>1971</ele>
        <time>2021-08-09T10:21:02Z</time>
      </trkpt>
      <trkpt lat="44.37461" lon="6.397">
        <ele>1971</ele>
        <time>2021-08-09T10:21:05Z</time>
      </trkpt>
      <trkpt lat="44.3745" lon="6.39705">
        <ele>1970.6</ele>
        <time>2021-08-09T10:21:09Z</time>
      </trkpt>
      <trkpt lat="44.37437" lon="6.39711">
        <ele>1969.4</ele>
        <time>2021-08-09T10:21:14Z</time>
      </trkpt>
      <trkpt lat="44.37426" lon="6.39718">
        <ele>1968.4</ele>
        <time>2021-08-09T10:21:17Z</time>
      </trkpt>
      <trkpt lat="44.37418" lon="6.39722">
        <ele>1968.2</ele>
        <time>2021-08-09T10:21:19Z</time>
      </trkpt>
      <trkpt lat="44.37413" lon="6.39725">
        <ele>1967.2</ele>
        <time>2021-08-09T10:21:22Z</time>
      </trkpt>
      <trkpt lat="44.37412" lon="6.39725">
        <ele>1966.8</ele>
        <time>2021-08-09T10:21:23Z</time>
      </trkpt>
      <trkpt lat="44.37411" lon="6.39724">
        <ele>1966.4</ele>
        <time>2021-08-09T10:21:24Z</time>
      </trkpt>
      <trkpt lat="44.37409" lon="6.39724">
        <ele>1965.8</ele>
        <time>2021-08-09T10:21:25Z</time>
      </trkpt>
      <trkpt lat="44.37407" lon="6.39722">
        <ele>1965</ele>
        <time>2021-08-09T10:21:27Z</time>
      </trkpt>
      <trkpt lat="44.37407" lon="6.39721">
        <ele>1964.6</ele>
        <time>2021-08-09T10:21:28Z</time>
      </trkpt>
      <trkpt lat="44.37407" lon="6.3972">
        <ele>1964.4</ele>
        <time>2021-08-09T10:21:29Z</time>
      </trkpt>
      <trkpt lat="44.37411" lon="6.39711">
        <ele>1963.6</ele>
        <time>2021-08-09T10:21:33Z</time>
      </trkpt>
      <trkpt lat="44.37415" lon="6.39705">
        <ele>1962.6</ele>
        <time>2021-08-09T10:21:35Z</time>
      </trkpt>
      <trkpt lat="44.37418" lon="6.39701">
        <ele>1961.6</ele>
        <time>2021-08-09T10:21:36Z</time>
      </trkpt>
      <trkpt lat="44.37423" lon="6.39692">
        <ele>1960.8</ele>
        <time>2021-08-09T10:21:38Z</time>
      </trkpt>
      <trkpt lat="44.37425" lon="6.39686">
        <ele>1960.4</ele>
        <time>2021-08-09T10:21:39Z</time>
      </trkpt>
      <trkpt lat="44.37432" lon="6.39671">
        <ele>1959.2</ele>
        <time>2021-08-09T10:21:42Z</time>
      </trkpt>
      <trkpt lat="44.37435" lon="6.39667">
        <ele>1958.6</ele>
        <time>2021-08-09T10:21:43Z</time>
      </trkpt>
      <trkpt lat="44.37438" lon="6.39663">
        <ele>1958.2</ele>
        <time>2021-08-09T10:21:44Z</time>
      </trkpt>
      <trkpt lat="44.37443" lon="6.39655">
        <ele>1956.8</ele>
        <time>2021-08-09T10:21:46Z</time>
      </trkpt>
      <trkpt lat="44.37445" lon="6.39651">
        <ele>1956.2</ele>
        <time>2021-08-09T10:21:47Z</time>
      </trkpt>
      <trkpt lat="44.37447" lon="6.39649">
        <ele>1955.6</ele>
        <time>2021-08-09T10:21:48Z</time>
      </trkpt>
      <trkpt lat="44.37447" lon="6.39646">
        <ele>1954.2</ele>
        <time>2021-08-09T10:21:50Z</time>
      </trkpt>
      <trkpt lat="44.37445" lon="6.39646">
        <ele>1952.8</ele>
        <time>2021-08-09T10:21:52Z</time>
      </trkpt>
      <trkpt lat="44.37443" lon="6.39646">
        <ele>1952.4</ele>
        <time>2021-08-09T10:21:53Z</time>
      </trkpt>
      <trkpt lat="44.37436" lon="6.39645">
        <ele>1951.6</ele>
        <time>2021-08-09T10:21:55Z</time>
      </trkpt>
      <trkpt lat="44.37429" lon="6.39644">
        <ele>1950.8</ele>
        <time>2021-08-09T10:21:57Z</time>
      </trkpt>
      <trkpt lat="44.37425" lon="6.39644">
        <ele>1950.6</ele>
        <time>2021-08-09T10:21:58Z</time>
      </trkpt>
      <trkpt lat="44.37409" lon="6.39646">
        <ele>1949.6</ele>
        <time>2021-08-09T10:22:02Z</time>
      </trkpt>
      <trkpt lat="44.37405" lon="6.39647">
        <ele>1949</ele>
        <time>2021-08-09T10:22:03Z</time>
      </trkpt>
      <trkpt lat="44.374" lon="6.39649">
        <ele>1947.6</ele>
        <time>2021-08-09T10:22:04Z</time>
      </trkpt>
      <trkpt lat="44.37392" lon="6.39652">
        <ele>1945.8</ele>
        <time>2021-08-09T10:22:06Z</time>
      </trkpt>
      <trkpt lat="44.37388" lon="6.39654">
        <ele>1945</ele>
        <time>2021-08-09T10:22:07Z</time>
      </trkpt>
      <trkpt lat="44.37385" lon="6.39655">
        <ele>1944.2</ele>
        <time>2021-08-09T10:22:08Z</time>
      </trkpt>
      <trkpt lat="44.37379" lon="6.39657">
        <ele>1942.2</ele>
        <time>2021-08-09T10:22:10Z</time>
      </trkpt>
      <trkpt lat="44.37375" lon="6.39658">
        <ele>1941.2</ele>
        <time>2021-08-09T10:22:11Z</time>
      </trkpt>
      <trkpt lat="44.37372" lon="6.3966">
        <ele>1940.2</ele>
        <time>2021-08-09T10:22:12Z</time>
      </trkpt>
      <trkpt lat="44.37368" lon="6.39662">
        <ele>1939.2</ele>
        <time>2021-08-09T10:22:13Z</time>
      </trkpt>
      <trkpt lat="44.3736" lon="6.39667">
        <ele>1937.2</ele>
        <time>2021-08-09T10:22:15Z</time>
      </trkpt>
      <trkpt lat="44.37354" lon="6.39673">
        <ele>1935.4</ele>
        <time>2021-08-09T10:22:17Z</time>
      </trkpt>
      <trkpt lat="44.37349" lon="6.39678">
        <ele>1934</ele>
        <time>2021-08-09T10:22:19Z</time>
      </trkpt>
      <trkpt lat="44.37343" lon="6.39682">
        <ele>1932.4</ele>
        <time>2021-08-09T10:22:21Z</time>
      </trkpt>
      <trkpt lat="44.37338" lon="6.39685">
        <ele>1930.6</ele>
        <time>2021-08-09T10:22:23Z</time>
      </trkpt>
      <trkpt lat="44.37333" lon="6.39688">
        <ele>1928.8</ele>
        <time>2021-08-09T10:22:25Z</time>
      </trkpt>
      <trkpt lat="44.37331" lon="6.39688">
        <ele>1927.8</ele>
        <time>2021-08-09T10:22:26Z</time>
      </trkpt>
      <trkpt lat="44.37328" lon="6.39687">
        <ele>1927</ele>
        <time>2021-08-09T10:22:27Z</time>
      </trkpt>
      <trkpt lat="44.37323" lon="6.39684">
        <ele>1925.8</ele>
        <time>2021-08-09T10:22:29Z</time>
      </trkpt>
      <trkpt lat="44.37319" lon="6.39685">
        <ele>1924.8</ele>
        <time>2021-08-09T10:22:31Z</time>
      </trkpt>
      <trkpt lat="44.37315" lon="6.39689">
        <ele>1923.2</ele>
        <time>2021-08-09T10:22:33Z</time>
      </trkpt>
      <trkpt lat="44.3731" lon="6.39695">
        <ele>1922.6</ele>
        <time>2021-08-09T10:22:35Z</time>
      </trkpt>
      <trkpt lat="44.37307" lon="6.39696">
        <ele>1922</ele>
        <time>2021-08-09T10:22:36Z</time>
      </trkpt>
      <trkpt lat="44.37303" lon="6.39696">
        <ele>1920.8</ele>
        <time>2021-08-09T10:22:38Z</time>
      </trkpt>
      <trkpt lat="44.37302" lon="6.39695">
        <ele>1920.4</ele>
        <time>2021-08-09T10:22:39Z</time>
      </trkpt>
      <trkpt lat="44.373" lon="6.39692">
        <ele>1919.6</ele>
        <time>2021-08-09T10:22:41Z</time>
      </trkpt>
      <trkpt lat="44.37297" lon="6.39689">
        <ele>1917.8</ele>
        <time>2021-08-09T10:22:44Z</time>
      </trkpt>
      <trkpt lat="44.37296" lon="6.39687">
        <ele>1916.8</ele>
        <time>2021-08-09T10:22:46Z</time>
      </trkpt>
      <trkpt lat="44.37292" lon="6.39684">
        <ele>1916.2</ele>
        <time>2021-08-09T10:22:49Z</time>
      </trkpt>
      <trkpt lat="44.3729" lon="6.39683">
        <ele>1915.8</ele>
        <time>2021-08-09T10:22:50Z</time>
      </trkpt>
      <trkpt lat="44.37287" lon="6.39684">
        <ele>1915.2</ele>
        <time>2021-08-09T10:22:52Z</time>
      </trkpt>
      <trkpt lat="44.37284" lon="6.39685">
        <ele>1914.8</ele>
        <time>2021-08-09T10:22:54Z</time>
      </trkpt>
      <trkpt lat="44.3728" lon="6.39688">
        <ele>1913.6</ele>
        <time>2021-08-09T10:22:57Z</time>
      </trkpt>
      <trkpt lat="44.37274" lon="6.39694">
        <ele>1912.6</ele>
        <time>2021-08-09T10:23:00Z</time>
      </trkpt>
      <trkpt lat="44.37268" lon="6.39693">
        <ele>1911.2</ele>
        <time>2021-08-09T10:23:02Z</time>
      </trkpt>
      <trkpt lat="44.37265" lon="6.3969">
        <ele>1910.4</ele>
        <time>2021-08-09T10:23:04Z</time>
      </trkpt>
      <trkpt lat="44.37262" lon="6.39688">
        <ele>1909.8</ele>
        <time>2021-08-09T10:23:05Z</time>
      </trkpt>
      <trkpt lat="44.37256" lon="6.39686">
        <ele>1908.6</ele>
        <time>2021-08-09T10:23:07Z</time>
      </trkpt>
      <trkpt lat="44.37253" lon="6.39685">
        <ele>1908</ele>
        <time>2021-08-09T10:23:08Z</time>
      </trkpt>
      <trkpt lat="44.3725" lon="6.39686">
        <ele>1907.4</ele>
        <time>2021-08-09T10:23:09Z</time>
      </trkpt>
      <trkpt lat="44.3724" lon="6.39685">
        <ele>1906</ele>
        <time>2021-08-09T10:23:12Z</time>
      </trkpt>
      <trkpt lat="44.37234" lon="6.39685">
        <ele>1904.8</ele>
        <time>2021-08-09T10:23:14Z</time>
      </trkpt>
      <trkpt lat="44.37231" lon="6.39685">
        <ele>1904.2</ele>
        <time>2021-08-09T10:23:15Z</time>
      </trkpt>
      <trkpt lat="44.37228" lon="6.39683">
        <ele>1903.4</ele>
        <time>2021-08-09T10:23:16Z</time>
      </trkpt>
      <trkpt lat="44.37221" lon="6.3968">
        <ele>1902</ele>
        <time>2021-08-09T10:23:18Z</time>
      </trkpt>
      <trkpt lat="44.37218" lon="6.3968">
        <ele>1901.2</ele>
        <time>2021-08-09T10:23:19Z</time>
      </trkpt>
      <trkpt lat="44.37215" lon="6.3968">
        <ele>1900.4</ele>
        <time>2021-08-09T10:23:20Z</time>
      </trkpt>
      <trkpt lat="44.37212" lon="6.39681">
        <ele>1898.8</ele>
        <time>2021-08-09T10:23:22Z</time>
      </trkpt>
      <trkpt lat="44.37211" lon="6.39682">
        <ele>1897.2</ele>
        <time>2021-08-09T10:23:24Z</time>
      </trkpt>
      <trkpt lat="44.3721" lon="6.39683">
        <ele>1896.6</ele>
        <time>2021-08-09T10:23:25Z</time>
      </trkpt>
      <trkpt lat="44.3721" lon="6.39684">
        <ele>1896</ele>
        <time>2021-08-09T10:23:26Z</time>
      </trkpt>
      <trkpt lat="44.3721" lon="6.39689">
        <ele>1894.6</ele>
        <time>2021-08-09T10:23:28Z</time>
      </trkpt>
      <trkpt lat="44.37209" lon="6.39694">
        <ele>1893</ele>
        <time>2021-08-09T10:23:30Z</time>
      </trkpt>
      <trkpt lat="44.37202" lon="6.39704">
        <ele>1892</ele>
        <time>2021-08-09T10:23:34Z</time>
      </trkpt>
      <trkpt lat="44.37199" lon="6.39705">
        <ele>1890.8</ele>
        <time>2021-08-09T10:23:38Z</time>
      </trkpt>
      <trkpt lat="44.37196" lon="6.39705">
        <ele>1889</ele>
        <time>2021-08-09T10:23:44Z</time>
      </trkpt>
      <trkpt lat="44.37189" lon="6.39705">
        <ele>1888.2</ele>
        <time>2021-08-09T10:23:51Z</time>
      </trkpt>
      <trkpt lat="44.37184" lon="6.39705">
        <ele>1887.8</ele>
        <time>2021-08-09T10:23:57Z</time>
      </trkpt>
      <trkpt lat="44.37182" lon="6.39705">
        <ele>1887.4</ele>
        <time>2021-08-09T10:23:59Z</time>
      </trkpt>
      <trkpt lat="44.37177" lon="6.39705">
        <ele>1886.8</ele>
        <time>2021-08-09T10:24:06Z</time>
      </trkpt>
      <trkpt lat="44.37176" lon="6.39705">
        <ele>1886.8</ele>
        <time>2021-08-09T10:24:07Z</time>
      </trkpt>
      <trkpt lat="44.37173" lon="6.39704">
        <ele>1886.6</ele>
        <time>2021-08-09T10:24:11Z</time>
      </trkpt>
      <trkpt lat="44.37172" lon="6.39704">
        <ele>1886.2</ele>
        <time>2021-08-09T10:24:17Z</time>
      </trkpt>
      <trkpt lat="44.37168" lon="6.39702">
        <ele>1885.6</ele>
        <time>2021-08-09T10:24:19Z</time>
      </trkpt>
      <trkpt lat="44.37164" lon="6.39701">
        <ele>1885.4</ele>
        <time>2021-08-09T10:24:21Z</time>
      </trkpt>
      <trkpt lat="44.37157" lon="6.39698">
        <ele>1885</ele>
        <time>2021-08-09T10:24:25Z</time>
      </trkpt>
      <trkpt lat="44.37153" lon="6.39696">
        <ele>1884.2</ele>
        <time>2021-08-09T10:24:28Z</time>
      </trkpt>
      <trkpt lat="44.37151" lon="6.39696">
        <ele>1883.4</ele>
        <time>2021-08-09T10:24:30Z</time>
      </trkpt>
      <trkpt lat="44.3715" lon="6.39697">
        <ele>1882.8</ele>
        <time>2021-08-09T10:24:31Z</time>
      </trkpt>
      <trkpt lat="44.37148" lon="6.397">
        <ele>1881.8</ele>
        <time>2021-08-09T10:24:33Z</time>
      </trkpt>
      <trkpt lat="44.37147" lon="6.39702">
        <ele>1880.8</ele>
        <time>2021-08-09T10:24:35Z</time>
      </trkpt>
      <trkpt lat="44.37145" lon="6.39705">
        <ele>1880.4</ele>
        <time>2021-08-09T10:24:36Z</time>
      </trkpt>
      <trkpt lat="44.37142" lon="6.39708">
        <ele>1879.8</ele>
        <time>2021-08-09T10:24:38Z</time>
      </trkpt>
      <trkpt lat="44.3714" lon="6.39708">
        <ele>1879.6</ele>
        <time>2021-08-09T10:24:39Z</time>
      </trkpt>
      <trkpt lat="44.37136" lon="6.39707">
        <ele>1879.2</ele>
        <time>2021-08-09T10:24:41Z</time>
      </trkpt>
      <trkpt lat="44.37132" lon="6.39704">
        <ele>1878.6</ele>
        <time>2021-08-09T10:24:43Z</time>
      </trkpt>
      <trkpt lat="44.3713" lon="6.39702">
        <ele>1877.8</ele>
        <time>2021-08-09T10:24:45Z</time>
      </trkpt>
      <trkpt lat="44.37129" lon="6.39701">
        <ele>1877.2</ele>
        <time>2021-08-09T10:24:46Z</time>
      </trkpt>
      <trkpt lat="44.37126" lon="6.39697">
        <ele>1876</ele>
        <time>2021-08-09T10:24:50Z</time>
      </trkpt>
      <trkpt lat="44.37125" lon="6.39697">
        <ele>1875.6</ele>
        <time>2021-08-09T10:24:51Z</time>
      </trkpt>
      <trkpt lat="44.37121" lon="6.39699">
        <ele>1874.8</ele>
        <time>2021-08-09T10:24:53Z</time>
      </trkpt>
      <trkpt lat="44.37116" lon="6.397">
        <ele>1874.2</ele>
        <time>2021-08-09T10:24:55Z</time>
      </trkpt>
      <trkpt lat="44.37113" lon="6.39699">
        <ele>1873.6</ele>
        <time>2021-08-09T10:24:56Z</time>
      </trkpt>
      <trkpt lat="44.37105" lon="6.39697">
        <ele>1872.2</ele>
        <time>2021-08-09T10:24:59Z</time>
      </trkpt>
      <trkpt lat="44.37104" lon="6.39697">
        <ele>1871.8</ele>
        <time>2021-08-09T10:25:00Z</time>
      </trkpt>
      <trkpt lat="44.37102" lon="6.39698">
        <ele>1871.2</ele>
        <time>2021-08-09T10:25:02Z</time>
      </trkpt>
      <trkpt lat="44.37098" lon="6.39703">
        <ele>1869.8</ele>
        <time>2021-08-09T10:25:05Z</time>
      </trkpt>
      <trkpt lat="44.37096" lon="6.39705">
        <ele>1868.6</ele>
        <time>2021-08-09T10:25:07Z</time>
      </trkpt>
      <trkpt lat="44.37091" lon="6.39705">
        <ele>1867.8</ele>
        <time>2021-08-09T10:25:09Z</time>
      </trkpt>
      <trkpt lat="44.37089" lon="6.39704">
        <ele>1867.4</ele>
        <time>2021-08-09T10:25:10Z</time>
      </trkpt>
      <trkpt lat="44.37082" lon="6.39706">
        <ele>1866.2</ele>
        <time>2021-08-09T10:25:13Z</time>
      </trkpt>
      <trkpt lat="44.37079" lon="6.39707">
        <ele>1865.8</ele>
        <time>2021-08-09T10:25:14Z</time>
      </trkpt>
      <trkpt lat="44.3707" lon="6.39707">
        <ele>1865</ele>
        <time>2021-08-09T10:25:16Z</time>
      </trkpt>
      <trkpt lat="44.37067" lon="6.39708">
        <ele>1864.4</ele>
        <time>2021-08-09T10:25:17Z</time>
      </trkpt>
      <trkpt lat="44.37065" lon="6.39709">
        <ele>1863.8</ele>
        <time>2021-08-09T10:25:18Z</time>
      </trkpt>
      <trkpt lat="44.37062" lon="6.39712">
        <ele>1862.8</ele>
        <time>2021-08-09T10:25:20Z</time>
      </trkpt>
      <trkpt lat="44.37061" lon="6.39715">
        <ele>1862.2</ele>
        <time>2021-08-09T10:25:21Z</time>
      </trkpt>
      <trkpt lat="44.37057" lon="6.39721">
        <ele>1861.2</ele>
        <time>2021-08-09T10:25:23Z</time>
      </trkpt>
      <trkpt lat="44.37052" lon="6.39721">
        <ele>1858.2</ele>
        <time>2021-08-09T10:25:25Z</time>
      </trkpt>
      <trkpt lat="44.37047" lon="6.39721">
        <ele>1856.8</ele>
        <time>2021-08-09T10:25:27Z</time>
      </trkpt>
      <trkpt lat="44.37044" lon="6.39721">
        <ele>1856.2</ele>
        <time>2021-08-09T10:25:28Z</time>
      </trkpt>
      <trkpt lat="44.37042" lon="6.39721">
        <ele>1855.8</ele>
        <time>2021-08-09T10:25:29Z</time>
      </trkpt>
      <trkpt lat="44.37037" lon="6.39722">
        <ele>1854.4</ele>
        <time>2021-08-09T10:25:31Z</time>
      </trkpt>
      <trkpt lat="44.37034" lon="6.39722">
        <ele>1853.8</ele>
        <time>2021-08-09T10:25:32Z</time>
      </trkpt>
      <trkpt lat="44.37032" lon="6.39723">
        <ele>1853.2</ele>
        <time>2021-08-09T10:25:33Z</time>
      </trkpt>
      <trkpt lat="44.37026" lon="6.39727">
        <ele>1851.8</ele>
        <time>2021-08-09T10:25:36Z</time>
      </trkpt>
      <trkpt lat="44.37023" lon="6.3973">
        <ele>1851.4</ele>
        <time>2021-08-09T10:25:37Z</time>
      </trkpt>
      <trkpt lat="44.3702" lon="6.39733">
        <ele>1851</ele>
        <time>2021-08-09T10:25:38Z</time>
      </trkpt>
      <trkpt lat="44.37016" lon="6.39737">
        <ele>1850.6</ele>
        <time>2021-08-09T10:25:39Z</time>
      </trkpt>
      <trkpt lat="44.3701" lon="6.39743">
        <ele>1849.2</ele>
        <time>2021-08-09T10:25:41Z</time>
      </trkpt>
      <trkpt lat="44.37007" lon="6.39747">
        <ele>1848.2</ele>
        <time>2021-08-09T10:25:43Z</time>
      </trkpt>
      <trkpt lat="44.37004" lon="6.39754">
        <ele>1847</ele>
        <time>2021-08-09T10:25:45Z</time>
      </trkpt>
      <trkpt lat="44.36998" lon="6.39761">
        <ele>1845.2</ele>
        <time>2021-08-09T10:25:47Z</time>
      </trkpt>
      <trkpt lat="44.36995" lon="6.39763">
        <ele>1844.2</ele>
        <time>2021-08-09T10:25:48Z</time>
      </trkpt>
      <trkpt lat="44.36992" lon="6.39764">
        <ele>1843.2</ele>
        <time>2021-08-09T10:25:49Z</time>
      </trkpt>
      <trkpt lat="44.36988" lon="6.39764">
        <ele>1842.4</ele>
        <time>2021-08-09T10:25:50Z</time>
      </trkpt>
      <trkpt lat="44.36983" lon="6.39763">
        <ele>1841.2</ele>
        <time>2021-08-09T10:25:52Z</time>
      </trkpt>
      <trkpt lat="44.3698" lon="6.39763">
        <ele>1839.6</ele>
        <time>2021-08-09T10:25:53Z</time>
      </trkpt>
      <trkpt lat="44.36977" lon="6.39762">
        <ele>1838.8</ele>
        <time>2021-08-09T10:25:54Z</time>
      </trkpt>
      <trkpt lat="44.36975" lon="6.39763">
        <ele>1838.2</ele>
        <time>2021-08-09T10:25:55Z</time>
      </trkpt>
      <trkpt lat="44.36968" lon="6.39766">
        <ele>1837.6</ele>
        <time>2021-08-09T10:25:57Z</time>
      </trkpt>
      <trkpt lat="44.36964" lon="6.39768">
        <ele>1837.2</ele>
        <time>2021-08-09T10:25:58Z</time>
      </trkpt>
      <trkpt lat="44.36955" lon="6.39775">
        <ele>1835.6</ele>
        <time>2021-08-09T10:26:01Z</time>
      </trkpt>
      <trkpt lat="44.36953" lon="6.39777">
        <ele>1835.2</ele>
        <time>2021-08-09T10:26:02Z</time>
      </trkpt>
      <trkpt lat="44.36952" lon="6.3978">
        <ele>1834.6</ele>
        <time>2021-08-09T10:26:03Z</time>
      </trkpt>
      <trkpt lat="44.36949" lon="6.39785">
        <ele>1832.8</ele>
        <time>2021-08-09T10:26:05Z</time>
      </trkpt>
      <trkpt lat="44.36948" lon="6.39787">
        <ele>1832</ele>
        <time>2021-08-09T10:26:06Z</time>
      </trkpt>
      <trkpt lat="44.36946" lon="6.39787">
        <ele>1831</ele>
        <time>2021-08-09T10:26:07Z</time>
      </trkpt>
      <trkpt lat="44.36941" lon="6.39786">
        <ele>1829.4</ele>
        <time>2021-08-09T10:26:09Z</time>
      </trkpt>
      <trkpt lat="44.36937" lon="6.39783">
        <ele>1828</ele>
        <time>2021-08-09T10:26:11Z</time>
      </trkpt>
      <trkpt lat="44.36936" lon="6.39782">
        <ele>1827.4</ele>
        <time>2021-08-09T10:26:12Z</time>
      </trkpt>
      <trkpt lat="44.36933" lon="6.39778">
        <ele>1826.8</ele>
        <time>2021-08-09T10:26:13Z</time>
      </trkpt>
      <trkpt lat="44.36929" lon="6.39772">
        <ele>1825.4</ele>
        <time>2021-08-09T10:26:15Z</time>
      </trkpt>
      <trkpt lat="44.36926" lon="6.3977">
        <ele>1825</ele>
        <time>2021-08-09T10:26:16Z</time>
      </trkpt>
      <trkpt lat="44.36916" lon="6.39766">
        <ele>1823.8</ele>
        <time>2021-08-09T10:26:18Z</time>
      </trkpt>
      <trkpt lat="44.36906" lon="6.39763">
        <ele>1821.8</ele>
        <time>2021-08-09T10:26:20Z</time>
      </trkpt>
      <trkpt lat="44.36902" lon="6.39763">
        <ele>1820.8</ele>
        <time>2021-08-09T10:26:21Z</time>
      </trkpt>
      <trkpt lat="44.36891" lon="6.39762">
        <ele>1819</ele>
        <time>2021-08-09T10:26:23Z</time>
      </trkpt>
      <trkpt lat="44.36883" lon="6.39763">
        <ele>1817.6</ele>
        <time>2021-08-09T10:26:25Z</time>
      </trkpt>
      <trkpt lat="44.36879" lon="6.39764">
        <ele>1816.8</ele>
        <time>2021-08-09T10:26:26Z</time>
      </trkpt>
      <trkpt lat="44.36875" lon="6.39764">
        <ele>1816</ele>
        <time>2021-08-09T10:26:27Z</time>
      </trkpt>
      <trkpt lat="44.36872" lon="6.39763">
        <ele>1815.2</ele>
        <time>2021-08-09T10:26:28Z</time>
      </trkpt>
      <trkpt lat="44.36868" lon="6.39761">
        <ele>1814.4</ele>
        <time>2021-08-09T10:26:29Z</time>
      </trkpt>
      <trkpt lat="44.3686" lon="6.39759">
        <ele>1812.8</ele>
        <time>2021-08-09T10:26:31Z</time>
      </trkpt>
      <trkpt lat="44.36857" lon="6.39758">
        <ele>1812</ele>
        <time>2021-08-09T10:26:32Z</time>
      </trkpt>
      <trkpt lat="44.36853" lon="6.39756">
        <ele>1811.4</ele>
        <time>2021-08-09T10:26:33Z</time>
      </trkpt>
      <trkpt lat="44.36846" lon="6.39752">
        <ele>1810</ele>
        <time>2021-08-09T10:26:35Z</time>
      </trkpt>
      <trkpt lat="44.36842" lon="6.39751">
        <ele>1809.2</ele>
        <time>2021-08-09T10:26:36Z</time>
      </trkpt>
      <trkpt lat="44.36838" lon="6.3975">
        <ele>1808.6</ele>
        <time>2021-08-09T10:26:37Z</time>
      </trkpt>
      <trkpt lat="44.36832" lon="6.39746">
        <ele>1807.2</ele>
        <time>2021-08-09T10:26:39Z</time>
      </trkpt>
      <trkpt lat="44.36829" lon="6.39742">
        <ele>1806.6</ele>
        <time>2021-08-09T10:26:40Z</time>
      </trkpt>
      <trkpt lat="44.36825" lon="6.39739">
        <ele>1805.8</ele>
        <time>2021-08-09T10:26:41Z</time>
      </trkpt>
      <trkpt lat="44.36818" lon="6.39733">
        <ele>1804.4</ele>
        <time>2021-08-09T10:26:43Z</time>
      </trkpt>
      <trkpt lat="44.36813" lon="6.39729">
        <ele>1802.6</ele>
        <time>2021-08-09T10:26:45Z</time>
      </trkpt>
      <trkpt lat="44.36807" lon="6.39727">
        <ele>1801</ele>
        <time>2021-08-09T10:26:47Z</time>
      </trkpt>
      <trkpt lat="44.368" lon="6.39721">
        <ele>1798.4</ele>
        <time>2021-08-09T10:26:49Z</time>
      </trkpt>
      <trkpt lat="44.36796" lon="6.39718">
        <ele>1797.6</ele>
        <time>2021-08-09T10:26:50Z</time>
      </trkpt>
      <trkpt lat="44.36792" lon="6.39714">
        <ele>1796.8</ele>
        <time>2021-08-09T10:26:51Z</time>
      </trkpt>
      <trkpt lat="44.36786" lon="6.39706">
        <ele>1795.6</ele>
        <time>2021-08-09T10:26:53Z</time>
      </trkpt>
      <trkpt lat="44.3678" lon="6.39697">
        <ele>1794</ele>
        <time>2021-08-09T10:26:55Z</time>
      </trkpt>
      <trkpt lat="44.36777" lon="6.39691">
        <ele>1793.2</ele>
        <time>2021-08-09T10:26:56Z</time>
      </trkpt>
      <trkpt lat="44.36775" lon="6.39684">
        <ele>1792.6</ele>
        <time>2021-08-09T10:26:57Z</time>
      </trkpt>
      <trkpt lat="44.36774" lon="6.39678">
        <ele>1791.4</ele>
        <time>2021-08-09T10:26:58Z</time>
      </trkpt>
      <trkpt lat="44.36772" lon="6.39672">
        <ele>1790.6</ele>
        <time>2021-08-09T10:26:59Z</time>
      </trkpt>
      <trkpt lat="44.3677" lon="6.39667">
        <ele>1789.4</ele>
        <time>2021-08-09T10:27:00Z</time>
      </trkpt>
      <trkpt lat="44.36766" lon="6.39654">
        <ele>1787.8</ele>
        <time>2021-08-09T10:27:02Z</time>
      </trkpt>
      <trkpt lat="44.36761" lon="6.39638">
        <ele>1785.8</ele>
        <time>2021-08-09T10:27:04Z</time>
      </trkpt>
      <trkpt lat="44.36756" lon="6.39623">
        <ele>1783.8</ele>
        <time>2021-08-09T10:27:06Z</time>
      </trkpt>
      <trkpt lat="44.36753" lon="6.39617">
        <ele>1782.8</ele>
        <time>2021-08-09T10:27:07Z</time>
      </trkpt>
      <trkpt lat="44.36751" lon="6.39611">
        <ele>1782.2</ele>
        <time>2021-08-09T10:27:08Z</time>
      </trkpt>
      <trkpt lat="44.36749" lon="6.39602">
        <ele>1780.2</ele>
        <time>2021-08-09T10:27:10Z</time>
      </trkpt>
      <trkpt lat="44.36748" lon="6.39598">
        <ele>1779.2</ele>
        <time>2021-08-09T10:27:11Z</time>
      </trkpt>
      <trkpt lat="44.36747" lon="6.39593">
        <ele>1778</ele>
        <time>2021-08-09T10:27:12Z</time>
      </trkpt>
      <trkpt lat="44.36745" lon="6.39587">
        <ele>1776.6</ele>
        <time>2021-08-09T10:27:13Z</time>
      </trkpt>
      <trkpt lat="44.36743" lon="6.39582">
        <ele>1775.4</ele>
        <time>2021-08-09T10:27:14Z</time>
      </trkpt>
      <trkpt lat="44.36741" lon="6.39577">
        <ele>1774.2</ele>
        <time>2021-08-09T10:27:15Z</time>
      </trkpt>
      <trkpt lat="44.36739" lon="6.39572">
        <ele>1773.2</ele>
        <time>2021-08-09T10:27:16Z</time>
      </trkpt>
      <trkpt lat="44.36736" lon="6.39566">
        <ele>1771.6</ele>
        <time>2021-08-09T10:27:17Z</time>
      </trkpt>
      <trkpt lat="44.36728" lon="6.39555">
        <ele>1770</ele>
        <time>2021-08-09T10:27:19Z</time>
      </trkpt>
      <trkpt lat="44.36725" lon="6.39551">
        <ele>1769</ele>
        <time>2021-08-09T10:27:20Z</time>
      </trkpt>
      <trkpt lat="44.36718" lon="6.39543">
        <ele>1767</ele>
        <time>2021-08-09T10:27:22Z</time>
      </trkpt>
      <trkpt lat="44.36715" lon="6.3954">
        <ele>1766</ele>
        <time>2021-08-09T10:27:23Z</time>
      </trkpt>
      <trkpt lat="44.36712" lon="6.39537">
        <ele>1765.2</ele>
        <time>2021-08-09T10:27:24Z</time>
      </trkpt>
      <trkpt lat="44.36705" lon="6.39531">
        <ele>1763.2</ele>
        <time>2021-08-09T10:27:26Z</time>
      </trkpt>
      <trkpt lat="44.36702" lon="6.39529">
        <ele>1762.2</ele>
        <time>2021-08-09T10:27:27Z</time>
      </trkpt>
      <trkpt lat="44.36696" lon="6.39527">
        <ele>1760.6</ele>
        <time>2021-08-09T10:27:29Z</time>
      </trkpt>
      <trkpt lat="44.36689" lon="6.39525">
        <ele>1758.8</ele>
        <time>2021-08-09T10:27:31Z</time>
      </trkpt>
      <trkpt lat="44.36686" lon="6.39525">
        <ele>1758</ele>
        <time>2021-08-09T10:27:32Z</time>
      </trkpt>
      <trkpt lat="44.36683" lon="6.39526">
        <ele>1757.4</ele>
        <time>2021-08-09T10:27:33Z</time>
      </trkpt>
      <trkpt lat="44.36677" lon="6.39526">
        <ele>1755.8</ele>
        <time>2021-08-09T10:27:35Z</time>
      </trkpt>
      <trkpt lat="44.3667" lon="6.3953">
        <ele>1754.4</ele>
        <time>2021-08-09T10:27:37Z</time>
      </trkpt>
      <trkpt lat="44.36658" lon="6.39538">
        <ele>1752.8</ele>
        <time>2021-08-09T10:27:40Z</time>
      </trkpt>
      <trkpt lat="44.36654" lon="6.39541">
        <ele>1752.2</ele>
        <time>2021-08-09T10:27:41Z</time>
      </trkpt>
      <trkpt lat="44.36652" lon="6.39545">
        <ele>1751.8</ele>
        <time>2021-08-09T10:27:42Z</time>
      </trkpt>
      <trkpt lat="44.36647" lon="6.39552">
        <ele>1750.8</ele>
        <time>2021-08-09T10:27:44Z</time>
      </trkpt>
      <trkpt lat="44.36645" lon="6.39558">
        <ele>1749</ele>
        <time>2021-08-09T10:27:46Z</time>
      </trkpt>
      <trkpt lat="44.36643" lon="6.39563">
        <ele>1747.4</ele>
        <time>2021-08-09T10:27:48Z</time>
      </trkpt>
      <trkpt lat="44.36638" lon="6.39568">
        <ele>1746.4</ele>
        <time>2021-08-09T10:27:51Z</time>
      </trkpt>
      <trkpt lat="44.36634" lon="6.39571">
        <ele>1746.2</ele>
        <time>2021-08-09T10:27:54Z</time>
      </trkpt>
      <trkpt lat="44.36626" lon="6.39579">
        <ele>1746.4</ele>
        <time>2021-08-09T10:27:59Z</time>
      </trkpt>
      <trkpt lat="44.36622" lon="6.39584">
        <ele>1747.8</ele>
        <time>2021-08-09T10:28:02Z</time>
      </trkpt>
      <trkpt lat="44.36614" lon="6.39586">
        <ele>1748.8</ele>
        <time>2021-08-09T10:28:06Z</time>
      </trkpt>
      <trkpt lat="44.36601" lon="6.39589">
        <ele>1750.2</ele>
        <time>2021-08-09T10:28:13Z</time>
      </trkpt>
      <trkpt lat="44.366" lon="6.3959">
        <ele>1750.6</ele>
        <time>2021-08-09T10:28:14Z</time>
      </trkpt>
      <trkpt lat="44.36598" lon="6.3959">
        <ele>1751.2</ele>
        <time>2021-08-09T10:28:15Z</time>
      </trkpt>
      <trkpt lat="44.36597" lon="6.39591">
        <ele>1752.2</ele>
        <time>2021-08-09T10:28:16Z</time>
      </trkpt>
      <trkpt lat="44.36595" lon="6.39592">
        <ele>1752.4</ele>
        <time>2021-08-09T10:28:17Z</time>
      </trkpt>
      <trkpt lat="44.36592" lon="6.39595">
        <ele>1753.2</ele>
        <time>2021-08-09T10:28:19Z</time>
      </trkpt>
      <trkpt lat="44.36589" lon="6.39597">
        <ele>1753.6</ele>
        <time>2021-08-09T10:28:21Z</time>
      </trkpt>
      <trkpt lat="44.36581" lon="6.3961">
        <ele>1754.4</ele>
        <time>2021-08-09T10:28:28Z</time>
      </trkpt>
      <trkpt lat="44.36581" lon="6.39612">
        <ele>1754.6</ele>
        <time>2021-08-09T10:28:29Z</time>
      </trkpt>
      <trkpt lat="44.3658" lon="6.39614">
        <ele>1754.6</ele>
        <time>2021-08-09T10:28:30Z</time>
      </trkpt>
      <trkpt lat="44.36578" lon="6.39621">
        <ele>1755</ele>
        <time>2021-08-09T10:28:34Z</time>
      </trkpt>
      <trkpt lat="44.36577" lon="6.39626">
        <ele>1755.4</ele>
        <time>2021-08-09T10:28:37Z</time>
      </trkpt>
      <trkpt lat="44.36576" lon="6.3963">
        <ele>1755.8</ele>
        <time>2021-08-09T10:28:39Z</time>
      </trkpt>
      <trkpt lat="44.36575" lon="6.39639">
        <ele>1756.8</ele>
        <time>2021-08-09T10:28:44Z</time>
      </trkpt>
      <trkpt lat="44.36574" lon="6.39641">
        <ele>1757</ele>
        <time>2021-08-09T10:28:45Z</time>
      </trkpt>
      <trkpt lat="44.36572" lon="6.39649">
        <ele>1758</ele>
        <time>2021-08-09T10:28:50Z</time>
      </trkpt>
      <trkpt lat="44.36572" lon="6.3965">
        <ele>1758.2</ele>
        <time>2021-08-09T10:28:51Z</time>
      </trkpt>
      <trkpt lat="44.36569" lon="6.39658">
        <ele>1758.6</ele>
        <time>2021-08-09T10:28:55Z</time>
      </trkpt>
      <trkpt lat="44.36567" lon="6.39662">
        <ele>1759.2</ele>
        <time>2021-08-09T10:28:57Z</time>
      </trkpt>
      <trkpt lat="44.36561" lon="6.39675">
        <ele>1760.2</ele>
        <time>2021-08-09T10:29:04Z</time>
      </trkpt>
      <trkpt lat="44.36561" lon="6.39677">
        <ele>1760.4</ele>
        <time>2021-08-09T10:29:05Z</time>
      </trkpt>
      <trkpt lat="44.36558" lon="6.39687">
        <ele>1761.4</ele>
        <time>2021-08-09T10:29:10Z</time>
      </trkpt>
      <trkpt lat="44.36553" lon="6.39695">
        <ele>1762.4</ele>
        <time>2021-08-09T10:29:15Z</time>
      </trkpt>
      <trkpt lat="44.36552" lon="6.39696">
        <ele>1762.6</ele>
        <time>2021-08-09T10:29:16Z</time>
      </trkpt>
      <trkpt lat="44.36544" lon="6.397">
        <ele>1763.4</ele>
        <time>2021-08-09T10:29:22Z</time>
      </trkpt>
      <trkpt lat="44.36542" lon="6.397">
        <ele>1763.6</ele>
        <time>2021-08-09T10:29:23Z</time>
      </trkpt>
      <trkpt lat="44.36537" lon="6.397">
        <ele>1764.2</ele>
        <time>2021-08-09T10:29:27Z</time>
      </trkpt>
      <trkpt lat="44.36536" lon="6.397">
        <ele>1764.4</ele>
        <time>2021-08-09T10:29:28Z</time>
      </trkpt>
      <trkpt lat="44.36534" lon="6.397">
        <ele>1764.6</ele>
        <time>2021-08-09T10:29:29Z</time>
      </trkpt>
      <trkpt lat="44.36527" lon="6.39698">
        <ele>1765.4</ele>
        <time>2021-08-09T10:29:34Z</time>
      </trkpt>
      <trkpt lat="44.36525" lon="6.39695">
        <ele>1765.6</ele>
        <time>2021-08-09T10:29:36Z</time>
      </trkpt>
      <trkpt lat="44.36522" lon="6.39691">
        <ele>1766</ele>
        <time>2021-08-09T10:29:39Z</time>
      </trkpt>
      <trkpt lat="44.36518" lon="6.39685">
        <ele>1766.2</ele>
        <time>2021-08-09T10:29:44Z</time>
      </trkpt>
      <trkpt lat="44.36517" lon="6.39682">
        <ele>1766.6</ele>
        <time>2021-08-09T10:29:46Z</time>
      </trkpt>
      <trkpt lat="44.36515" lon="6.39675">
        <ele>1767.4</ele>
        <time>2021-08-09T10:29:50Z</time>
      </trkpt>
      <trkpt lat="44.36514" lon="6.39673">
        <ele>1767.6</ele>
        <time>2021-08-09T10:29:51Z</time>
      </trkpt>
      <trkpt lat="44.3651" lon="6.39663">
        <ele>1768.6</ele>
        <time>2021-08-09T10:29:56Z</time>
      </trkpt>
      <trkpt lat="44.3651" lon="6.39661">
        <ele>1768.8</ele>
        <time>2021-08-09T10:29:57Z</time>
      </trkpt>
      <trkpt lat="44.36509" lon="6.39659">
        <ele>1769.2</ele>
        <time>2021-08-09T10:29:59Z</time>
      </trkpt>
      <trkpt lat="44.36507" lon="6.39656">
        <ele>1769.6</ele>
        <time>2021-08-09T10:30:01Z</time>
      </trkpt>
      <trkpt lat="44.36506" lon="6.39655">
        <ele>1770</ele>
        <time>2021-08-09T10:30:02Z</time>
      </trkpt>
      <trkpt lat="44.36501" lon="6.39645">
        <ele>1770.4</ele>
        <time>2021-08-09T10:30:07Z</time>
      </trkpt>
      <trkpt lat="44.36499" lon="6.39642">
        <ele>1771</ele>
        <time>2021-08-09T10:30:09Z</time>
      </trkpt>
      <trkpt lat="44.36493" lon="6.39633">
        <ele>1772.2</ele>
        <time>2021-08-09T10:30:14Z</time>
      </trkpt>
      <trkpt lat="44.36491" lon="6.39627">
        <ele>1772.6</ele>
        <time>2021-08-09T10:30:17Z</time>
      </trkpt>
      <trkpt lat="44.36489" lon="6.39623">
        <ele>1772.8</ele>
        <time>2021-08-09T10:30:19Z</time>
      </trkpt>
      <trkpt lat="44.36487" lon="6.3962">
        <ele>1773.2</ele>
        <time>2021-08-09T10:30:21Z</time>
      </trkpt>
      <trkpt lat="44.36484" lon="6.39614">
        <ele>1773.8</ele>
        <time>2021-08-09T10:30:24Z</time>
      </trkpt>
      <trkpt lat="44.3648" lon="6.39606">
        <ele>1774.4</ele>
        <time>2021-08-09T10:30:28Z</time>
      </trkpt>
      <trkpt lat="44.36478" lon="6.396">
        <ele>1774.6</ele>
        <time>2021-08-09T10:30:31Z</time>
      </trkpt>
      <trkpt lat="44.36474" lon="6.39591">
        <ele>1775.4</ele>
        <time>2021-08-09T10:30:35Z</time>
      </trkpt>
      <trkpt lat="44.3647" lon="6.39584">
        <ele>1776.4</ele>
        <time>2021-08-09T10:30:39Z</time>
      </trkpt>
      <trkpt lat="44.36469" lon="6.39582">
        <ele>1776.8</ele>
        <time>2021-08-09T10:30:40Z</time>
      </trkpt>
      <trkpt lat="44.36465" lon="6.39578">
        <ele>1777.2</ele>
        <time>2021-08-09T10:30:43Z</time>
      </trkpt>
      <trkpt lat="44.3646" lon="6.39572">
        <ele>1777.8</ele>
        <time>2021-08-09T10:30:47Z</time>
      </trkpt>
      <trkpt lat="44.36455" lon="6.39565">
        <ele>1779</ele>
        <time>2021-08-09T10:30:51Z</time>
      </trkpt>
      <trkpt lat="44.36446" lon="6.39554">
        <ele>1780</ele>
        <time>2021-08-09T10:30:59Z</time>
      </trkpt>
      <trkpt lat="44.3644" lon="6.39549">
        <ele>1781.2</ele>
        <time>2021-08-09T10:31:04Z</time>
      </trkpt>
      <trkpt lat="44.36439" lon="6.39548">
        <ele>1781.2</ele>
        <time>2021-08-09T10:31:05Z</time>
      </trkpt>
      <trkpt lat="44.36435" lon="6.39545">
        <ele>1782.2</ele>
        <time>2021-08-09T10:31:08Z</time>
      </trkpt>
      <trkpt lat="44.36434" lon="6.39545">
        <ele>1782.4</ele>
        <time>2021-08-09T10:31:09Z</time>
      </trkpt>
      <trkpt lat="44.36428" lon="6.39541">
        <ele>1783.2</ele>
        <time>2021-08-09T10:31:13Z</time>
      </trkpt>
      <trkpt lat="44.36424" lon="6.3954">
        <ele>1783.8</ele>
        <time>2021-08-09T10:31:16Z</time>
      </trkpt>
      <trkpt lat="44.36415" lon="6.39539">
        <ele>1784.6</ele>
        <time>2021-08-09T10:31:21Z</time>
      </trkpt>
      <trkpt lat="44.36414" lon="6.39539">
        <ele>1784.8</ele>
        <time>2021-08-09T10:31:22Z</time>
      </trkpt>
      <trkpt lat="44.36403" lon="6.3954">
        <ele>1785.4</ele>
        <time>2021-08-09T10:31:29Z</time>
      </trkpt>
      <trkpt lat="44.36401" lon="6.3954">
        <ele>1785.6</ele>
        <time>2021-08-09T10:31:30Z</time>
      </trkpt>
      <trkpt lat="44.36393" lon="6.39544">
        <ele>1786.2</ele>
        <time>2021-08-09T10:31:36Z</time>
      </trkpt>
      <trkpt lat="44.36387" lon="6.39546">
        <ele>1786.8</ele>
        <time>2021-08-09T10:31:40Z</time>
      </trkpt>
      <trkpt lat="44.36381" lon="6.39546">
        <ele>1787.6</ele>
        <time>2021-08-09T10:31:44Z</time>
      </trkpt>
      <trkpt lat="44.36379" lon="6.39546">
        <ele>1787.8</ele>
        <time>2021-08-09T10:31:45Z</time>
      </trkpt>
      <trkpt lat="44.36371" lon="6.39547">
        <ele>1789</ele>
        <time>2021-08-09T10:31:50Z</time>
      </trkpt>
      <trkpt lat="44.36367" lon="6.39547">
        <ele>1789.2</ele>
        <time>2021-08-09T10:31:52Z</time>
      </trkpt>
      <trkpt lat="44.36358" lon="6.39547">
        <ele>1790.2</ele>
        <time>2021-08-09T10:31:57Z</time>
      </trkpt>
      <trkpt lat="44.36352" lon="6.39546">
        <ele>1790.8</ele>
        <time>2021-08-09T10:32:00Z</time>
      </trkpt>
      <trkpt lat="44.3634" lon="6.39545">
        <ele>1791</ele>
        <time>2021-08-09T10:32:05Z</time>
      </trkpt>
      <trkpt lat="44.36327" lon="6.39541">
        <ele>1790.4</ele>
        <time>2021-08-09T10:32:11Z</time>
      </trkpt>
      <trkpt lat="44.36322" lon="6.39536">
        <ele>1789.2</ele>
        <time>2021-08-09T10:32:13Z</time>
      </trkpt>
      <trkpt lat="44.36316" lon="6.39533">
        <ele>1788.2</ele>
        <time>2021-08-09T10:32:15Z</time>
      </trkpt>
      <trkpt lat="44.36313" lon="6.39532">
        <ele>1787.8</ele>
        <time>2021-08-09T10:32:16Z</time>
      </trkpt>
      <trkpt lat="44.36306" lon="6.3953">
        <ele>1787</ele>
        <time>2021-08-09T10:32:18Z</time>
      </trkpt>
      <trkpt lat="44.36295" lon="6.39531">
        <ele>1785.6</ele>
        <time>2021-08-09T10:32:21Z</time>
      </trkpt>
      <trkpt lat="44.36287" lon="6.39531">
        <ele>1784.6</ele>
        <time>2021-08-09T10:32:23Z</time>
      </trkpt>
      <trkpt lat="44.36282" lon="6.39532">
        <ele>1784</ele>
        <time>2021-08-09T10:32:24Z</time>
      </trkpt>
      <trkpt lat="44.36279" lon="6.39533">
        <ele>1783.2</ele>
        <time>2021-08-09T10:32:25Z</time>
      </trkpt>
      <trkpt lat="44.36275" lon="6.39534">
        <ele>1782.4</ele>
        <time>2021-08-09T10:32:26Z</time>
      </trkpt>
      <trkpt lat="44.36271" lon="6.39535">
        <ele>1781.6</ele>
        <time>2021-08-09T10:32:27Z</time>
      </trkpt>
      <trkpt lat="44.36267" lon="6.39536">
        <ele>1780.4</ele>
        <time>2021-08-09T10:32:28Z</time>
      </trkpt>
      <trkpt lat="44.36262" lon="6.39536">
        <ele>1779.6</ele>
        <time>2021-08-09T10:32:29Z</time>
      </trkpt>
      <trkpt lat="44.36258" lon="6.39536">
        <ele>1779</ele>
        <time>2021-08-09T10:32:30Z</time>
      </trkpt>
      <trkpt lat="44.36252" lon="6.39535">
        <ele>1778.4</ele>
        <time>2021-08-09T10:32:31Z</time>
      </trkpt>
      <trkpt lat="44.36247" lon="6.39536">
        <ele>1776.4</ele>
        <time>2021-08-09T10:32:32Z</time>
      </trkpt>
      <trkpt lat="44.36238" lon="6.3954">
        <ele>1774.8</ele>
        <time>2021-08-09T10:32:34Z</time>
      </trkpt>
      <trkpt lat="44.36233" lon="6.39543">
        <ele>1773.8</ele>
        <time>2021-08-09T10:32:35Z</time>
      </trkpt>
      <trkpt lat="44.36228" lon="6.39545">
        <ele>1772.8</ele>
        <time>2021-08-09T10:32:36Z</time>
      </trkpt>
      <trkpt lat="44.36222" lon="6.39547">
        <ele>1771.6</ele>
        <time>2021-08-09T10:32:37Z</time>
      </trkpt>
      <trkpt lat="44.36216" lon="6.39549">
        <ele>1770</ele>
        <time>2021-08-09T10:32:38Z</time>
      </trkpt>
      <trkpt lat="44.36211" lon="6.3955">
        <ele>1768.6</ele>
        <time>2021-08-09T10:32:39Z</time>
      </trkpt>
      <trkpt lat="44.36205" lon="6.39551">
        <ele>1767.2</ele>
        <time>2021-08-09T10:32:40Z</time>
      </trkpt>
      <trkpt lat="44.362" lon="6.39553">
        <ele>1766.2</ele>
        <time>2021-08-09T10:32:41Z</time>
      </trkpt>
      <trkpt lat="44.36193" lon="6.39556">
        <ele>1765.2</ele>
        <time>2021-08-09T10:32:42Z</time>
      </trkpt>
      <trkpt lat="44.36187" lon="6.3956">
        <ele>1764</ele>
        <time>2021-08-09T10:32:43Z</time>
      </trkpt>
      <trkpt lat="44.3618" lon="6.39565">
        <ele>1762.8</ele>
        <time>2021-08-09T10:32:44Z</time>
      </trkpt>
      <trkpt lat="44.36173" lon="6.3957">
        <ele>1761.6</ele>
        <time>2021-08-09T10:32:45Z</time>
      </trkpt>
      <trkpt lat="44.36165" lon="6.39575">
        <ele>1760.2</ele>
        <time>2021-08-09T10:32:46Z</time>
      </trkpt>
      <trkpt lat="44.36158" lon="6.39579">
        <ele>1759</ele>
        <time>2021-08-09T10:32:47Z</time>
      </trkpt>
      <trkpt lat="44.36152" lon="6.39584">
        <ele>1758</ele>
        <time>2021-08-09T10:32:48Z</time>
      </trkpt>
      <trkpt lat="44.36144" lon="6.39598">
        <ele>1756.4</ele>
        <time>2021-08-09T10:32:50Z</time>
      </trkpt>
      <trkpt lat="44.36141" lon="6.39607">
        <ele>1755.6</ele>
        <time>2021-08-09T10:32:51Z</time>
      </trkpt>
      <trkpt lat="44.36137" lon="6.39617">
        <ele>1754.6</ele>
        <time>2021-08-09T10:32:52Z</time>
      </trkpt>
      <trkpt lat="44.36128" lon="6.39635">
        <ele>1752.8</ele>
        <time>2021-08-09T10:32:54Z</time>
      </trkpt>
      <trkpt lat="44.36118" lon="6.39654">
        <ele>1751</ele>
        <time>2021-08-09T10:32:56Z</time>
      </trkpt>
      <trkpt lat="44.36099" lon="6.39692">
        <ele>1749.6</ele>
        <time>2021-08-09T10:33:00Z</time>
      </trkpt>
      <trkpt lat="44.36095" lon="6.39699">
        <ele>1749</ele>
        <time>2021-08-09T10:33:01Z</time>
      </trkpt>
      <trkpt lat="44.36092" lon="6.39707">
        <ele>1747.6</ele>
        <time>2021-08-09T10:33:02Z</time>
      </trkpt>
      <trkpt lat="44.3609" lon="6.39714">
        <ele>1746.4</ele>
        <time>2021-08-09T10:33:03Z</time>
      </trkpt>
      <trkpt lat="44.36089" lon="6.3972">
        <ele>1745.4</ele>
        <time>2021-08-09T10:33:04Z</time>
      </trkpt>
      <trkpt lat="44.36088" lon="6.39726">
        <ele>1744.4</ele>
        <time>2021-08-09T10:33:05Z</time>
      </trkpt>
      <trkpt lat="44.36086" lon="6.39731">
        <ele>1743.4</ele>
        <time>2021-08-09T10:33:06Z</time>
      </trkpt>
      <trkpt lat="44.36086" lon="6.39737">
        <ele>1742.6</ele>
        <time>2021-08-09T10:33:07Z</time>
      </trkpt>
      <trkpt lat="44.36086" lon="6.39743">
        <ele>1742</ele>
        <time>2021-08-09T10:33:08Z</time>
      </trkpt>
      <trkpt lat="44.36087" lon="6.3975">
        <ele>1741.6</ele>
        <time>2021-08-09T10:33:09Z</time>
      </trkpt>
      <trkpt lat="44.36085" lon="6.39771">
        <ele>1740.6</ele>
        <time>2021-08-09T10:33:12Z</time>
      </trkpt>
      <trkpt lat="44.36082" lon="6.39776">
        <ele>1740.4</ele>
        <time>2021-08-09T10:33:13Z</time>
      </trkpt>
      <trkpt lat="44.36073" lon="6.39779">
        <ele>1739.6</ele>
        <time>2021-08-09T10:33:15Z</time>
      </trkpt>
      <trkpt lat="44.36069" lon="6.39777">
        <ele>1739.2</ele>
        <time>2021-08-09T10:33:16Z</time>
      </trkpt>
      <trkpt lat="44.3606" lon="6.39768">
        <ele>1738.2</ele>
        <time>2021-08-09T10:33:18Z</time>
      </trkpt>
      <trkpt lat="44.36056" lon="6.39762">
        <ele>1737.6</ele>
        <time>2021-08-09T10:33:19Z</time>
      </trkpt>
      <trkpt lat="44.36044" lon="6.39751">
        <ele>1735.6</ele>
        <time>2021-08-09T10:33:21Z</time>
      </trkpt>
      <trkpt lat="44.36038" lon="6.39746">
        <ele>1734.4</ele>
        <time>2021-08-09T10:33:22Z</time>
      </trkpt>
      <trkpt lat="44.36031" lon="6.3974">
        <ele>1732.6</ele>
        <time>2021-08-09T10:33:24Z</time>
      </trkpt>
      <trkpt lat="44.36028" lon="6.39734">
        <ele>1731.2</ele>
        <time>2021-08-09T10:33:27Z</time>
      </trkpt>
      <trkpt lat="44.36027" lon="6.39733">
        <ele>1730.2</ele>
        <time>2021-08-09T10:33:28Z</time>
      </trkpt>
      <trkpt lat="44.36025" lon="6.3973">
        <ele>1729.2</ele>
        <time>2021-08-09T10:33:29Z</time>
      </trkpt>
      <trkpt lat="44.36023" lon="6.39725">
        <ele>1726.4</ele>
        <time>2021-08-09T10:33:31Z</time>
      </trkpt>
      <trkpt lat="44.36022" lon="6.39724">
        <ele>1725.8</ele>
        <time>2021-08-09T10:33:32Z</time>
      </trkpt>
      <trkpt lat="44.36021" lon="6.39723">
        <ele>1725.4</ele>
        <time>2021-08-09T10:33:33Z</time>
      </trkpt>
      <trkpt lat="44.36021" lon="6.39723">
        <ele>1725</ele>
        <time>2021-08-09T10:33:34Z</time>
      </trkpt>
      <trkpt lat="44.3602" lon="6.39725">
        <ele>1723.6</ele>
        <time>2021-08-09T10:33:43Z</time>
      </trkpt>
      <trkpt lat="44.3602" lon="6.39727">
        <ele>1723.6</ele>
        <time>2021-08-09T10:33:44Z</time>
      </trkpt>
      <trkpt lat="44.36023" lon="6.39731">
        <ele>1723.6</ele>
        <time>2021-08-09T10:33:47Z</time>
      </trkpt>
      <trkpt lat="44.36025" lon="6.39733">
        <ele>1723.6</ele>
        <time>2021-08-09T10:33:48Z</time>
      </trkpt>
      <trkpt lat="44.36033" lon="6.39746">
        <ele>1723.6</ele>
        <time>2021-08-09T10:33:55Z</time>
      </trkpt>
      <trkpt lat="44.36033" lon="6.39747">
        <ele>1723.6</ele>
        <time>2021-08-09T10:33:56Z</time>
      </trkpt>
      <trkpt lat="44.36035" lon="6.39746">
        <ele>1723.6</ele>
        <time>2021-08-09T10:33:58Z</time>
      </trkpt>
      <trkpt lat="44.3603" lon="6.39738">
        <ele>1723.8</ele>
        <time>2021-08-09T10:34:01Z</time>
      </trkpt>
      <trkpt lat="44.36027" lon="6.39734">
        <ele>1724</ele>
        <time>2021-08-09T10:34:02Z</time>
      </trkpt>
      <trkpt lat="44.36015" lon="6.39708">
        <ele>1724.2</ele>
        <time>2021-08-09T10:34:06Z</time>
      </trkpt>
      <trkpt lat="44.36" lon="6.39663">
        <ele>1723.8</ele>
        <time>2021-08-09T10:34:11Z</time>
      </trkpt>
      <trkpt lat="44.35997" lon="6.39646">
        <ele>1722.6</ele>
        <time>2021-08-09T10:34:13Z</time>
      </trkpt>
      <trkpt lat="44.35996" lon="6.39637">
        <ele>1721.6</ele>
        <time>2021-08-09T10:34:14Z</time>
      </trkpt>
      <trkpt lat="44.35996" lon="6.39629">
        <ele>1720.2</ele>
        <time>2021-08-09T10:34:15Z</time>
      </trkpt>
      <trkpt lat="44.35998" lon="6.39621">
        <ele>1719</ele>
        <time>2021-08-09T10:34:16Z</time>
      </trkpt>
      <trkpt lat="44.36" lon="6.39612">
        <ele>1718</ele>
        <time>2021-08-09T10:34:17Z</time>
      </trkpt>
      <trkpt lat="44.36003" lon="6.39604">
        <ele>1717</ele>
        <time>2021-08-09T10:34:18Z</time>
      </trkpt>
      <trkpt lat="44.36007" lon="6.39595">
        <ele>1715.8</ele>
        <time>2021-08-09T10:34:19Z</time>
      </trkpt>
      <trkpt lat="44.36012" lon="6.39585">
        <ele>1714.8</ele>
        <time>2021-08-09T10:34:20Z</time>
      </trkpt>
      <trkpt lat="44.36017" lon="6.39574">
        <ele>1713.8</ele>
        <time>2021-08-09T10:34:21Z</time>
      </trkpt>
      <trkpt lat="44.36027" lon="6.39552">
        <ele>1712.2</ele>
        <time>2021-08-09T10:34:23Z</time>
      </trkpt>
      <trkpt lat="44.36036" lon="6.39531">
        <ele>1710.2</ele>
        <time>2021-08-09T10:34:25Z</time>
      </trkpt>
      <trkpt lat="44.3604" lon="6.39521">
        <ele>1709</ele>
        <time>2021-08-09T10:34:26Z</time>
      </trkpt>
      <trkpt lat="44.36045" lon="6.39511">
        <ele>1707.8</ele>
        <time>2021-08-09T10:34:27Z</time>
      </trkpt>
      <trkpt lat="44.3605" lon="6.395">
        <ele>1704.8</ele>
        <time>2021-08-09T10:34:28Z</time>
      </trkpt>
      <trkpt lat="44.36055" lon="6.39489">
        <ele>1702.8</ele>
        <time>2021-08-09T10:34:29Z</time>
      </trkpt>
      <trkpt lat="44.3606" lon="6.39477">
        <ele>1700.8</ele>
        <time>2021-08-09T10:34:30Z</time>
      </trkpt>
      <trkpt lat="44.36065" lon="6.39465">
        <ele>1699.4</ele>
        <time>2021-08-09T10:34:31Z</time>
      </trkpt>
      <trkpt lat="44.36071" lon="6.39453">
        <ele>1697.8</ele>
        <time>2021-08-09T10:34:32Z</time>
      </trkpt>
      <trkpt lat="44.36076" lon="6.39442">
        <ele>1696.6</ele>
        <time>2021-08-09T10:34:33Z</time>
      </trkpt>
      <trkpt lat="44.36081" lon="6.39432">
        <ele>1695.2</ele>
        <time>2021-08-09T10:34:34Z</time>
      </trkpt>
      <trkpt lat="44.36086" lon="6.39422">
        <ele>1694</ele>
        <time>2021-08-09T10:34:35Z</time>
      </trkpt>
      <trkpt lat="44.36091" lon="6.39412">
        <ele>1692.8</ele>
        <time>2021-08-09T10:34:36Z</time>
      </trkpt>
      <trkpt lat="44.36097" lon="6.39404">
        <ele>1691.6</ele>
        <time>2021-08-09T10:34:37Z</time>
      </trkpt>
      <trkpt lat="44.36104" lon="6.39396">
        <ele>1690.2</ele>
        <time>2021-08-09T10:34:38Z</time>
      </trkpt>
      <trkpt lat="44.3611" lon="6.39389">
        <ele>1688.6</ele>
        <time>2021-08-09T10:34:39Z</time>
      </trkpt>
      <trkpt lat="44.36116" lon="6.39384">
        <ele>1686.8</ele>
        <time>2021-08-09T10:34:40Z</time>
      </trkpt>
      <trkpt lat="44.36122" lon="6.39378">
        <ele>1685.4</ele>
        <time>2021-08-09T10:34:41Z</time>
      </trkpt>
      <trkpt lat="44.36129" lon="6.39374">
        <ele>1684.6</ele>
        <time>2021-08-09T10:34:42Z</time>
      </trkpt>
      <trkpt lat="44.36136" lon="6.3937">
        <ele>1684</ele>
        <time>2021-08-09T10:34:43Z</time>
      </trkpt>
      <trkpt lat="44.3615" lon="6.39366">
        <ele>1683.4</ele>
        <time>2021-08-09T10:34:45Z</time>
      </trkpt>
      <trkpt lat="44.36157" lon="6.39364">
        <ele>1683.4</ele>
        <time>2021-08-09T10:34:46Z</time>
      </trkpt>
      <trkpt lat="44.36196" lon="6.39361">
        <ele>1683.4</ele>
        <time>2021-08-09T10:34:52Z</time>
      </trkpt>
      <trkpt lat="44.36203" lon="6.3936">
        <ele>1683.4</ele>
        <time>2021-08-09T10:34:53Z</time>
      </trkpt>
      <trkpt lat="44.36222" lon="6.39351">
        <ele>1683.6</ele>
        <time>2021-08-09T10:34:56Z</time>
      </trkpt>
      <trkpt lat="44.36227" lon="6.39347">
        <ele>1683.8</ele>
        <time>2021-08-09T10:34:57Z</time>
      </trkpt>
      <trkpt lat="44.36233" lon="6.39344">
        <ele>1683.8</ele>
        <time>2021-08-09T10:34:59Z</time>
      </trkpt>
      <trkpt lat="44.36234" lon="6.39343">
        <ele>1683.8</ele>
        <time>2021-08-09T10:35:00Z</time>
      </trkpt>
      <trkpt lat="44.36233" lon="6.39341">
        <ele>1684</ele>
        <time>2021-08-09T10:35:02Z</time>
      </trkpt>
      <trkpt lat="44.36225" lon="6.39346">
        <ele>1684.2</ele>
        <time>2021-08-09T10:35:06Z</time>
      </trkpt>
      <trkpt lat="44.36204" lon="6.39359">
        <ele>1684.6</ele>
        <time>2021-08-09T10:35:13Z</time>
      </trkpt>
      <trkpt lat="44.36191" lon="6.3936">
        <ele>1684.8</ele>
        <time>2021-08-09T10:35:18Z</time>
      </trkpt>
      <trkpt lat="44.36176" lon="6.39363">
        <ele>1684.8</ele>
        <time>2021-08-09T10:35:23Z</time>
      </trkpt>
      <trkpt lat="44.36162" lon="6.39365">
        <ele>1685</ele>
        <time>2021-08-09T10:35:27Z</time>
      </trkpt>
      <trkpt lat="44.36147" lon="6.3937">
        <ele>1685</ele>
        <time>2021-08-09T10:35:31Z</time>
      </trkpt>
      <trkpt lat="44.36132" lon="6.39376">
        <ele>1685</ele>
        <time>2021-08-09T10:35:36Z</time>
      </trkpt>
      <trkpt lat="44.36121" lon="6.39384">
        <ele>1684.8</ele>
        <time>2021-08-09T10:35:39Z</time>
      </trkpt>
      <trkpt lat="44.36113" lon="6.3939">
        <ele>1684.8</ele>
        <time>2021-08-09T10:35:41Z</time>
      </trkpt>
      <trkpt lat="44.36109" lon="6.39393">
        <ele>1684.8</ele>
        <time>2021-08-09T10:35:42Z</time>
      </trkpt>
      <trkpt lat="44.361" lon="6.39402">
        <ele>1684.6</ele>
        <time>2021-08-09T10:35:45Z</time>
      </trkpt>
      <trkpt lat="44.36083" lon="6.39424">
        <ele>1685</ele>
        <time>2021-08-09T10:35:52Z</time>
      </trkpt>
      <trkpt lat="44.36078" lon="6.39442">
        <ele>1685</ele>
        <time>2021-08-09T10:35:57Z</time>
      </trkpt>
      <trkpt lat="44.36076" lon="6.39444">
        <ele>1685</ele>
        <time>2021-08-09T10:35:58Z</time>
      </trkpt>
      <trkpt lat="44.36075" lon="6.39445">
        <ele>1685.4</ele>
        <time>2021-08-09T10:36:01Z</time>
      </trkpt>
      <trkpt lat="44.36075" lon="6.39443">
        <ele>1686.6</ele>
        <time>2021-08-09T10:36:07Z</time>
      </trkpt>
      <trkpt lat="44.36076" lon="6.39436">
        <ele>1686.8</ele>
        <time>2021-08-09T10:36:10Z</time>
      </trkpt>
      <trkpt lat="44.36084" lon="6.39412">
        <ele>1686.8</ele>
        <time>2021-08-09T10:36:16Z</time>
      </trkpt>
      <trkpt lat="44.36094" lon="6.39394">
        <ele>1685.6</ele>
        <time>2021-08-09T10:36:20Z</time>
      </trkpt>
      <trkpt lat="44.36097" lon="6.39389">
        <ele>1685.2</ele>
        <time>2021-08-09T10:36:21Z</time>
      </trkpt>
      <trkpt lat="44.36104" lon="6.39376">
        <ele>1684</ele>
        <time>2021-08-09T10:36:24Z</time>
      </trkpt>
      <trkpt lat="44.36107" lon="6.39365">
        <ele>1682.2</ele>
        <time>2021-08-09T10:36:27Z</time>
      </trkpt>
      <trkpt lat="44.36107" lon="6.39363">
        <ele>1681.6</ele>
        <time>2021-08-09T10:36:28Z</time>
      </trkpt>
      <trkpt lat="44.36106" lon="6.39362">
        <ele>1681</ele>
        <time>2021-08-09T10:36:29Z</time>
      </trkpt>
      <trkpt lat="44.36102" lon="6.39364">
        <ele>1679.4</ele>
        <time>2021-08-09T10:36:31Z</time>
      </trkpt>
      <trkpt lat="44.36095" lon="6.39366">
        <ele>1678.6</ele>
        <time>2021-08-09T10:36:33Z</time>
      </trkpt>
      <trkpt lat="44.3609" lon="6.39367">
        <ele>1678.2</ele>
        <time>2021-08-09T10:36:34Z</time>
      </trkpt>
      <trkpt lat="44.36085" lon="6.39368">
        <ele>1677.8</ele>
        <time>2021-08-09T10:36:35Z</time>
      </trkpt>
      <trkpt lat="44.36074" lon="6.39372">
        <ele>1677</ele>
        <time>2021-08-09T10:36:37Z</time>
      </trkpt>
      <trkpt lat="44.36062" lon="6.39374">
        <ele>1676</ele>
        <time>2021-08-09T10:36:39Z</time>
      </trkpt>
      <trkpt lat="44.36056" lon="6.39374">
        <ele>1675.4</ele>
        <time>2021-08-09T10:36:40Z</time>
      </trkpt>
      <trkpt lat="44.36048" lon="6.39373">
        <ele>1675</ele>
        <time>2021-08-09T10:36:41Z</time>
      </trkpt>
      <trkpt lat="44.36034" lon="6.39372">
        <ele>1674.2</ele>
        <time>2021-08-09T10:36:43Z</time>
      </trkpt>
      <trkpt lat="44.36019" lon="6.39373">
        <ele>1672.4</ele>
        <time>2021-08-09T10:36:45Z</time>
      </trkpt>
      <trkpt lat="44.36011" lon="6.39373">
        <ele>1670.6</ele>
        <time>2021-08-09T10:36:46Z</time>
      </trkpt>
      <trkpt lat="44.36005" lon="6.39376">
        <ele>1670</ele>
        <time>2021-08-09T10:36:47Z</time>
      </trkpt>
      <trkpt lat="44.35998" lon="6.39378">
        <ele>1669.2</ele>
        <time>2021-08-09T10:36:48Z</time>
      </trkpt>
      <trkpt lat="44.35987" lon="6.39386">
        <ele>1668.2</ele>
        <time>2021-08-09T10:36:50Z</time>
      </trkpt>
      <trkpt lat="44.35977" lon="6.39398">
        <ele>1667</ele>
        <time>2021-08-09T10:36:52Z</time>
      </trkpt>
      <trkpt lat="44.35969" lon="6.39411">
        <ele>1665.8</ele>
        <time>2021-08-09T10:36:54Z</time>
      </trkpt>
      <trkpt lat="44.35959" lon="6.39426">
        <ele>1664.4</ele>
        <time>2021-08-09T10:36:57Z</time>
      </trkpt>
      <trkpt lat="44.35954" lon="6.39432">
        <ele>1664.2</ele>
        <time>2021-08-09T10:36:58Z</time>
      </trkpt>
      <trkpt lat="44.35944" lon="6.39445">
        <ele>1663.4</ele>
        <time>2021-08-09T10:37:00Z</time>
      </trkpt>
      <trkpt lat="44.35933" lon="6.39456">
        <ele>1663</ele>
        <time>2021-08-09T10:37:02Z</time>
      </trkpt>
      <trkpt lat="44.3592" lon="6.39466">
        <ele>1662.8</ele>
        <time>2021-08-09T10:37:04Z</time>
      </trkpt>
      <trkpt lat="44.35905" lon="6.39476">
        <ele>1662.4</ele>
        <time>2021-08-09T10:37:06Z</time>
      </trkpt>
      <trkpt lat="44.35897" lon="6.39479">
        <ele>1662.2</ele>
        <time>2021-08-09T10:37:07Z</time>
      </trkpt>
      <trkpt lat="44.35883" lon="6.39481">
        <ele>1661.2</ele>
        <time>2021-08-09T10:37:09Z</time>
      </trkpt>
      <trkpt lat="44.35871" lon="6.39476">
        <ele>1660</ele>
        <time>2021-08-09T10:37:12Z</time>
      </trkpt>
      <trkpt lat="44.35872" lon="6.39473">
        <ele>1658</ele>
        <time>2021-08-09T10:37:13Z</time>
      </trkpt>
      <trkpt lat="44.35873" lon="6.3947">
        <ele>1656.8</ele>
        <time>2021-08-09T10:37:14Z</time>
      </trkpt>
      <trkpt lat="44.35876" lon="6.39467">
        <ele>1655.8</ele>
        <time>2021-08-09T10:37:15Z</time>
      </trkpt>
      <trkpt lat="44.35878" lon="6.39464">
        <ele>1655</ele>
        <time>2021-08-09T10:37:16Z</time>
      </trkpt>
      <trkpt lat="44.35885" lon="6.39459">
        <ele>1653.2</ele>
        <time>2021-08-09T10:37:18Z</time>
      </trkpt>
      <trkpt lat="44.3589" lon="6.39455">
        <ele>1652.4</ele>
        <time>2021-08-09T10:37:20Z</time>
      </trkpt>
      <trkpt lat="44.35887" lon="6.39454">
        <ele>1652.2</ele>
        <time>2021-08-09T10:37:22Z</time>
      </trkpt>
      <trkpt lat="44.35885" lon="6.39454">
        <ele>1652</ele>
        <time>2021-08-09T10:37:23Z</time>
      </trkpt>
      <trkpt lat="44.35873" lon="6.39452">
        <ele>1651.4</ele>
        <time>2021-08-09T10:37:26Z</time>
      </trkpt>
      <trkpt lat="44.35868" lon="6.3945">
        <ele>1651</ele>
        <time>2021-08-09T10:37:27Z</time>
      </trkpt>
      <trkpt lat="44.35847" lon="6.39443">
        <ele>1650.2</ele>
        <time>2021-08-09T10:37:30Z</time>
      </trkpt>
      <trkpt lat="44.35841" lon="6.39442">
        <ele>1650</ele>
        <time>2021-08-09T10:37:31Z</time>
      </trkpt>
      <trkpt lat="44.35831" lon="6.39441">
        <ele>1649</ele>
        <time>2021-08-09T10:37:33Z</time>
      </trkpt>
      <trkpt lat="44.35828" lon="6.39441">
        <ele>1648</ele>
        <time>2021-08-09T10:37:34Z</time>
      </trkpt>
      <trkpt lat="44.35826" lon="6.39439">
        <ele>1647.2</ele>
        <time>2021-08-09T10:37:35Z</time>
      </trkpt>
      <trkpt lat="44.35826" lon="6.39433">
        <ele>1645.6</ele>
        <time>2021-08-09T10:37:37Z</time>
      </trkpt>
      <trkpt lat="44.3583" lon="6.39426">
        <ele>1644.2</ele>
        <time>2021-08-09T10:37:39Z</time>
      </trkpt>
      <trkpt lat="44.35833" lon="6.39422">
        <ele>1642.6</ele>
        <time>2021-08-09T10:37:40Z</time>
      </trkpt>
      <trkpt lat="44.35838" lon="6.39416">
        <ele>1641.6</ele>
        <time>2021-08-09T10:37:42Z</time>
      </trkpt>
      <trkpt lat="44.35845" lon="6.39413">
        <ele>1640.6</ele>
        <time>2021-08-09T10:37:44Z</time>
      </trkpt>
      <trkpt lat="44.3585" lon="6.39411">
        <ele>1640</ele>
        <time>2021-08-09T10:37:45Z</time>
      </trkpt>
      <trkpt lat="44.35855" lon="6.39408">
        <ele>1639.2</ele>
        <time>2021-08-09T10:37:46Z</time>
      </trkpt>
      <trkpt lat="44.3586" lon="6.39407">
        <ele>1638.6</ele>
        <time>2021-08-09T10:37:47Z</time>
      </trkpt>
      <trkpt lat="44.35874" lon="6.39402">
        <ele>1637.6</ele>
        <time>2021-08-09T10:37:50Z</time>
      </trkpt>
      <trkpt lat="44.35879" lon="6.394">
        <ele>1637</ele>
        <time>2021-08-09T10:37:51Z</time>
      </trkpt>
      <trkpt lat="44.35883" lon="6.39397">
        <ele>1636.2</ele>
        <time>2021-08-09T10:37:52Z</time>
      </trkpt>
      <trkpt lat="44.35891" lon="6.39393">
        <ele>1634.6</ele>
        <time>2021-08-09T10:37:54Z</time>
      </trkpt>
      <trkpt lat="44.35894" lon="6.39392">
        <ele>1633.8</ele>
        <time>2021-08-09T10:37:55Z</time>
      </trkpt>
      <trkpt lat="44.35897" lon="6.39389">
        <ele>1633.2</ele>
        <time>2021-08-09T10:37:56Z</time>
      </trkpt>
      <trkpt lat="44.35903" lon="6.3938">
        <ele>1632</ele>
        <time>2021-08-09T10:37:58Z</time>
      </trkpt>
      <trkpt lat="44.35904" lon="6.39374">
        <ele>1631</ele>
        <time>2021-08-09T10:37:59Z</time>
      </trkpt>
      <trkpt lat="44.35905" lon="6.39369">
        <ele>1630.2</ele>
        <time>2021-08-09T10:38:00Z</time>
      </trkpt>
      <trkpt lat="44.35906" lon="6.39357">
        <ele>1629</ele>
        <time>2021-08-09T10:38:02Z</time>
      </trkpt>
      <trkpt lat="44.35907" lon="6.39348">
        <ele>1628.8</ele>
        <time>2021-08-09T10:38:03Z</time>
      </trkpt>
      <trkpt lat="44.35908" lon="6.3934">
        <ele>1628.6</ele>
        <time>2021-08-09T10:38:04Z</time>
      </trkpt>
      <trkpt lat="44.35908" lon="6.39322">
        <ele>1627.8</ele>
        <time>2021-08-09T10:38:07Z</time>
      </trkpt>
      <trkpt lat="44.35907" lon="6.39318">
        <ele>1626.8</ele>
        <time>2021-08-09T10:38:08Z</time>
      </trkpt>
      <trkpt lat="44.35904" lon="6.39312">
        <ele>1625</ele>
        <time>2021-08-09T10:38:10Z</time>
      </trkpt>
      <trkpt lat="44.35902" lon="6.39312">
        <ele>1623.6</ele>
        <time>2021-08-09T10:38:11Z</time>
      </trkpt>
      <trkpt lat="44.35899" lon="6.39313">
        <ele>1622.2</ele>
        <time>2021-08-09T10:38:12Z</time>
      </trkpt>
      <trkpt lat="44.35895" lon="6.39312">
        <ele>1621.2</ele>
        <time>2021-08-09T10:38:13Z</time>
      </trkpt>
      <trkpt lat="44.35885" lon="6.39311">
        <ele>1619.4</ele>
        <time>2021-08-09T10:38:15Z</time>
      </trkpt>
      <trkpt lat="44.35876" lon="6.3931">
        <ele>1617.8</ele>
        <time>2021-08-09T10:38:17Z</time>
      </trkpt>
      <trkpt lat="44.35874" lon="6.39309">
        <ele>1617.2</ele>
        <time>2021-08-09T10:38:18Z</time>
      </trkpt>
      <trkpt lat="44.35875" lon="6.39308">
        <ele>1616.6</ele>
        <time>2021-08-09T10:38:19Z</time>
      </trkpt>
      <trkpt lat="44.35875" lon="6.39305">
        <ele>1616</ele>
        <time>2021-08-09T10:38:20Z</time>
      </trkpt>
      <trkpt lat="44.35876" lon="6.39303">
        <ele>1615</ele>
        <time>2021-08-09T10:38:21Z</time>
      </trkpt>
      <trkpt lat="44.35876" lon="6.39299">
        <ele>1614</ele>
        <time>2021-08-09T10:38:22Z</time>
      </trkpt>
      <trkpt lat="44.35877" lon="6.39295">
        <ele>1613.2</ele>
        <time>2021-08-09T10:38:23Z</time>
      </trkpt>
      <trkpt lat="44.35878" lon="6.39287">
        <ele>1612.2</ele>
        <time>2021-08-09T10:38:24Z</time>
      </trkpt>
      <trkpt lat="44.35879" lon="6.39278">
        <ele>1611.2</ele>
        <time>2021-08-09T10:38:25Z</time>
      </trkpt>
      <trkpt lat="44.35879" lon="6.3927">
        <ele>1610.8</ele>
        <time>2021-08-09T10:38:26Z</time>
      </trkpt>
      <trkpt lat="44.3588" lon="6.39258">
        <ele>1610</ele>
        <time>2021-08-09T10:38:28Z</time>
      </trkpt>
      <trkpt lat="44.3588" lon="6.39254">
        <ele>1609.6</ele>
        <time>2021-08-09T10:38:29Z</time>
      </trkpt>
      <trkpt lat="44.35877" lon="6.3925">
        <ele>1608.6</ele>
        <time>2021-08-09T10:38:31Z</time>
      </trkpt>
      <trkpt lat="44.35873" lon="6.3925">
        <ele>1607.6</ele>
        <time>2021-08-09T10:38:32Z</time>
      </trkpt>
      <trkpt lat="44.35869" lon="6.3925">
        <ele>1606.6</ele>
        <time>2021-08-09T10:38:33Z</time>
      </trkpt>
      <trkpt lat="44.35866" lon="6.39249">
        <ele>1605.6</ele>
        <time>2021-08-09T10:38:34Z</time>
      </trkpt>
      <trkpt lat="44.35864" lon="6.39246">
        <ele>1604.6</ele>
        <time>2021-08-09T10:38:35Z</time>
      </trkpt>
      <trkpt lat="44.35864" lon="6.39242">
        <ele>1602.6</ele>
        <time>2021-08-09T10:38:36Z</time>
      </trkpt>
      <trkpt lat="44.35866" lon="6.39237">
        <ele>1601.4</ele>
        <time>2021-08-09T10:38:38Z</time>
      </trkpt>
      <trkpt lat="44.3587" lon="6.3923">
        <ele>1599.8</ele>
        <time>2021-08-09T10:38:40Z</time>
      </trkpt>
      <trkpt lat="44.35871" lon="6.39225">
        <ele>1598.4</ele>
        <time>2021-08-09T10:38:41Z</time>
      </trkpt>
      <trkpt lat="44.35872" lon="6.39217">
        <ele>1597.8</ele>
        <time>2021-08-09T10:38:42Z</time>
      </trkpt>
      <trkpt lat="44.35873" lon="6.39209">
        <ele>1597</ele>
        <time>2021-08-09T10:38:43Z</time>
      </trkpt>
      <trkpt lat="44.35877" lon="6.39195">
        <ele>1595.8</ele>
        <time>2021-08-09T10:38:45Z</time>
      </trkpt>
      <trkpt lat="44.3588" lon="6.39189">
        <ele>1595.4</ele>
        <time>2021-08-09T10:38:46Z</time>
      </trkpt>
      <trkpt lat="44.35883" lon="6.39183">
        <ele>1594.6</ele>
        <time>2021-08-09T10:38:47Z</time>
      </trkpt>
      <trkpt lat="44.35886" lon="6.39175">
        <ele>1593.8</ele>
        <time>2021-08-09T10:38:48Z</time>
      </trkpt>
      <trkpt lat="44.35889" lon="6.39167">
        <ele>1592.8</ele>
        <time>2021-08-09T10:38:49Z</time>
      </trkpt>
      <trkpt lat="44.35891" lon="6.39159">
        <ele>1591.6</ele>
        <time>2021-08-09T10:38:50Z</time>
      </trkpt>
      <trkpt lat="44.35892" lon="6.39149">
        <ele>1590.4</ele>
        <time>2021-08-09T10:38:51Z</time>
      </trkpt>
      <trkpt lat="44.35893" lon="6.39138">
        <ele>1589.2</ele>
        <time>2021-08-09T10:38:52Z</time>
      </trkpt>
      <trkpt lat="44.35895" lon="6.39131">
        <ele>1588</ele>
        <time>2021-08-09T10:38:53Z</time>
      </trkpt>
      <trkpt lat="44.35896" lon="6.39126">
        <ele>1587.2</ele>
        <time>2021-08-09T10:38:54Z</time>
      </trkpt>
      <trkpt lat="44.35896" lon="6.39122">
        <ele>1586.4</ele>
        <time>2021-08-09T10:38:55Z</time>
      </trkpt>
      <trkpt lat="44.35896" lon="6.39117">
        <ele>1584.4</ele>
        <time>2021-08-09T10:38:57Z</time>
      </trkpt>
      <trkpt lat="44.35896" lon="6.39116">
        <ele>1583.2</ele>
        <time>2021-08-09T10:38:58Z</time>
      </trkpt>
      <trkpt lat="44.35891" lon="6.3911">
        <ele>1578.8</ele>
        <time>2021-08-09T10:39:04Z</time>
      </trkpt>
      <trkpt lat="44.35886" lon="6.39111">
        <ele>1578.6</ele>
        <time>2021-08-09T10:39:06Z</time>
      </trkpt>
      <trkpt lat="44.35879" lon="6.39114">
        <ele>1578.6</ele>
        <time>2021-08-09T10:39:08Z</time>
      </trkpt>
      <trkpt lat="44.35872" lon="6.39115">
        <ele>1578.4</ele>
        <time>2021-08-09T10:39:10Z</time>
      </trkpt>
      <trkpt lat="44.35865" lon="6.39113">
        <ele>1577.6</ele>
        <time>2021-08-09T10:39:14Z</time>
      </trkpt>
      <trkpt lat="44.35864" lon="6.39111">
        <ele>1577.2</ele>
        <time>2021-08-09T10:39:15Z</time>
      </trkpt>
      <trkpt lat="44.35862" lon="6.3911">
        <ele>1576.4</ele>
        <time>2021-08-09T10:39:17Z</time>
      </trkpt>
      <trkpt lat="44.35862" lon="6.39109">
        <ele>1576</ele>
        <time>2021-08-09T10:39:18Z</time>
      </trkpt>
      <trkpt lat="44.35859" lon="6.39109">
        <ele>1572.8</ele>
        <time>2021-08-09T10:39:55Z</time>
      </trkpt>
      <trkpt lat="44.35858" lon="6.39109">
        <ele>1572.8</ele>
        <time>2021-08-09T10:39:56Z</time>
      </trkpt>
      <trkpt lat="44.35855" lon="6.39109">
        <ele>1572.8</ele>
        <time>2021-08-09T10:40:00Z</time>
      </trkpt>
      <trkpt lat="44.35853" lon="6.39105">
        <ele>1573.2</ele>
        <time>2021-08-09T10:40:55Z</time>
      </trkpt>
      <trkpt lat="44.35852" lon="6.39093">
        <ele>1573.2</ele>
        <time>2021-08-09T10:40:58Z</time>
      </trkpt>
      <trkpt lat="44.35858" lon="6.39077">
        <ele>1572.8</ele>
        <time>2021-08-09T10:41:01Z</time>
      </trkpt>
      <trkpt lat="44.35873" lon="6.39069">
        <ele>1572.2</ele>
        <time>2021-08-09T10:41:04Z</time>
      </trkpt>
      <trkpt lat="44.35885" lon="6.39053">
        <ele>1571.4</ele>
        <time>2021-08-09T10:41:06Z</time>
      </trkpt>
      <trkpt lat="44.35891" lon="6.39044">
        <ele>1570.8</ele>
        <time>2021-08-09T10:41:07Z</time>
      </trkpt>
      <trkpt lat="44.35903" lon="6.39022">
        <ele>1570.4</ele>
        <time>2021-08-09T10:41:09Z</time>
      </trkpt>
      <trkpt lat="44.35907" lon="6.3901">
        <ele>1570.2</ele>
        <time>2021-08-09T10:41:10Z</time>
      </trkpt>
      <trkpt lat="44.35915" lon="6.38993">
        <ele>1569</ele>
        <time>2021-08-09T10:41:12Z</time>
      </trkpt>
      <trkpt lat="44.35921" lon="6.38986">
        <ele>1568</ele>
        <time>2021-08-09T10:41:13Z</time>
      </trkpt>
      <trkpt lat="44.35927" lon="6.38979">
        <ele>1566.8</ele>
        <time>2021-08-09T10:41:14Z</time>
      </trkpt>
      <trkpt lat="44.35933" lon="6.38973">
        <ele>1565.6</ele>
        <time>2021-08-09T10:41:15Z</time>
      </trkpt>
      <trkpt lat="44.35938" lon="6.38965">
        <ele>1564.6</ele>
        <time>2021-08-09T10:41:16Z</time>
      </trkpt>
      <trkpt lat="44.35943" lon="6.38958">
        <ele>1563.2</ele>
        <time>2021-08-09T10:41:17Z</time>
      </trkpt>
      <trkpt lat="44.35948" lon="6.38949">
        <ele>1561.6</ele>
        <time>2021-08-09T10:41:18Z</time>
      </trkpt>
      <trkpt lat="44.35954" lon="6.38941">
        <ele>1560.4</ele>
        <time>2021-08-09T10:41:19Z</time>
      </trkpt>
      <trkpt lat="44.35958" lon="6.3893">
        <ele>1559.6</ele>
        <time>2021-08-09T10:41:20Z</time>
      </trkpt>
      <trkpt lat="44.35961" lon="6.38919">
        <ele>1558.8</ele>
        <time>2021-08-09T10:41:21Z</time>
      </trkpt>
      <trkpt lat="44.3597" lon="6.38898">
        <ele>1557.6</ele>
        <time>2021-08-09T10:41:23Z</time>
      </trkpt>
      <trkpt lat="44.35976" lon="6.38886">
        <ele>1556.6</ele>
        <time>2021-08-09T10:41:24Z</time>
      </trkpt>
      <trkpt lat="44.35981" lon="6.38875">
        <ele>1556</ele>
        <time>2021-08-09T10:41:25Z</time>
      </trkpt>
      <trkpt lat="44.3599" lon="6.38853">
        <ele>1554.6</ele>
        <time>2021-08-09T10:41:27Z</time>
      </trkpt>
      <trkpt lat="44.35993" lon="6.38843">
        <ele>1553.4</ele>
        <time>2021-08-09T10:41:28Z</time>
      </trkpt>
      <trkpt lat="44.35996" lon="6.38834">
        <ele>1552.4</ele>
        <time>2021-08-09T10:41:29Z</time>
      </trkpt>
      <trkpt lat="44.36003" lon="6.3882">
        <ele>1550.6</ele>
        <time>2021-08-09T10:41:31Z</time>
      </trkpt>
      <trkpt lat="44.36007" lon="6.38812">
        <ele>1549.6</ele>
        <time>2021-08-09T10:41:32Z</time>
      </trkpt>
      <trkpt lat="44.36012" lon="6.38806">
        <ele>1548.6</ele>
        <time>2021-08-09T10:41:33Z</time>
      </trkpt>
      <trkpt lat="44.36017" lon="6.38798">
        <ele>1547.6</ele>
        <time>2021-08-09T10:41:34Z</time>
      </trkpt>
      <trkpt lat="44.36022" lon="6.38791">
        <ele>1547</ele>
        <time>2021-08-09T10:41:35Z</time>
      </trkpt>
      <trkpt lat="44.36041" lon="6.38767">
        <ele>1546</ele>
        <time>2021-08-09T10:41:39Z</time>
      </trkpt>
      <trkpt lat="44.36043" lon="6.38763">
        <ele>1545.6</ele>
        <time>2021-08-09T10:41:40Z</time>
      </trkpt>
      <trkpt lat="44.36043" lon="6.38757">
        <ele>1544.4</ele>
        <time>2021-08-09T10:41:42Z</time>
      </trkpt>
      <trkpt lat="44.36039" lon="6.38754">
        <ele>1542.8</ele>
        <time>2021-08-09T10:41:44Z</time>
      </trkpt>
      <trkpt lat="44.36038" lon="6.38755">
        <ele>1542.2</ele>
        <time>2021-08-09T10:41:45Z</time>
      </trkpt>
      <trkpt lat="44.36036" lon="6.38756">
        <ele>1541.8</ele>
        <time>2021-08-09T10:41:46Z</time>
      </trkpt>
      <trkpt lat="44.36032" lon="6.3876">
        <ele>1541.2</ele>
        <time>2021-08-09T10:41:50Z</time>
      </trkpt>
      <trkpt lat="44.36033" lon="6.38758">
        <ele>1541.4</ele>
        <time>2021-08-09T10:41:52Z</time>
      </trkpt>
      <trkpt lat="44.36038" lon="6.38755">
        <ele>1541.2</ele>
        <time>2021-08-09T10:41:55Z</time>
      </trkpt>
      <trkpt lat="44.36052" lon="6.38744">
        <ele>1541.2</ele>
        <time>2021-08-09T10:41:59Z</time>
      </trkpt>
      <trkpt lat="44.36083" lon="6.38719">
        <ele>1540.8</ele>
        <time>2021-08-09T10:42:05Z</time>
      </trkpt>
      <trkpt lat="44.36099" lon="6.3871">
        <ele>1540</ele>
        <time>2021-08-09T10:42:08Z</time>
      </trkpt>
      <trkpt lat="44.36105" lon="6.38708">
        <ele>1539.8</ele>
        <time>2021-08-09T10:42:09Z</time>
      </trkpt>
      <trkpt lat="44.36111" lon="6.38706">
        <ele>1539.6</ele>
        <time>2021-08-09T10:42:10Z</time>
      </trkpt>
      <trkpt lat="44.36131" lon="6.38695">
        <ele>1539.2</ele>
        <time>2021-08-09T10:42:13Z</time>
      </trkpt>
      <trkpt lat="44.36137" lon="6.38689">
        <ele>1538.8</ele>
        <time>2021-08-09T10:42:14Z</time>
      </trkpt>
      <trkpt lat="44.36143" lon="6.3868">
        <ele>1538.6</ele>
        <time>2021-08-09T10:42:15Z</time>
      </trkpt>
      <trkpt lat="44.36153" lon="6.38658">
        <ele>1538.2</ele>
        <time>2021-08-09T10:42:17Z</time>
      </trkpt>
      <trkpt lat="44.36173" lon="6.38624">
        <ele>1537.2</ele>
        <time>2021-08-09T10:42:20Z</time>
      </trkpt>
      <trkpt lat="44.3618" lon="6.38612">
        <ele>1535.8</ele>
        <time>2021-08-09T10:42:21Z</time>
      </trkpt>
      <trkpt lat="44.36186" lon="6.38599">
        <ele>1534.8</ele>
        <time>2021-08-09T10:42:22Z</time>
      </trkpt>
      <trkpt lat="44.36193" lon="6.38588">
        <ele>1533.6</ele>
        <time>2021-08-09T10:42:23Z</time>
      </trkpt>
      <trkpt lat="44.36198" lon="6.38578">
        <ele>1532.4</ele>
        <time>2021-08-09T10:42:24Z</time>
      </trkpt>
      <trkpt lat="44.36205" lon="6.38572">
        <ele>1531.2</ele>
        <time>2021-08-09T10:42:25Z</time>
      </trkpt>
      <trkpt lat="44.36211" lon="6.38566">
        <ele>1530.2</ele>
        <time>2021-08-09T10:42:26Z</time>
      </trkpt>
      <trkpt lat="44.36218" lon="6.38562">
        <ele>1529.2</ele>
        <time>2021-08-09T10:42:27Z</time>
      </trkpt>
      <trkpt lat="44.36226" lon="6.3856">
        <ele>1528</ele>
        <time>2021-08-09T10:42:28Z</time>
      </trkpt>
      <trkpt lat="44.36234" lon="6.38556">
        <ele>1526.6</ele>
        <time>2021-08-09T10:42:29Z</time>
      </trkpt>
      <trkpt lat="44.36243" lon="6.38552">
        <ele>1525.4</ele>
        <time>2021-08-09T10:42:30Z</time>
      </trkpt>
      <trkpt lat="44.36251" lon="6.38549">
        <ele>1524.4</ele>
        <time>2021-08-09T10:42:31Z</time>
      </trkpt>
      <trkpt lat="44.36266" lon="6.38545">
        <ele>1523.2</ele>
        <time>2021-08-09T10:42:33Z</time>
      </trkpt>
      <trkpt lat="44.36274" lon="6.38548">
        <ele>1522.8</ele>
        <time>2021-08-09T10:42:34Z</time>
      </trkpt>
      <trkpt lat="44.3629" lon="6.38557">
        <ele>1521.6</ele>
        <time>2021-08-09T10:42:36Z</time>
      </trkpt>
      <trkpt lat="44.36308" lon="6.38565">
        <ele>1520</ele>
        <time>2021-08-09T10:42:38Z</time>
      </trkpt>
      <trkpt lat="44.36321" lon="6.38559">
        <ele>1518.4</ele>
        <time>2021-08-09T10:42:40Z</time>
      </trkpt>
      <trkpt lat="44.36324" lon="6.38541">
        <ele>1517.6</ele>
        <time>2021-08-09T10:42:42Z</time>
      </trkpt>
      <trkpt lat="44.36321" lon="6.38532">
        <ele>1517</ele>
        <time>2021-08-09T10:42:43Z</time>
      </trkpt>
      <trkpt lat="44.36318" lon="6.38524">
        <ele>1516.2</ele>
        <time>2021-08-09T10:42:44Z</time>
      </trkpt>
      <trkpt lat="44.36314" lon="6.38515">
        <ele>1514.8</ele>
        <time>2021-08-09T10:42:45Z</time>
      </trkpt>
      <trkpt lat="44.3631" lon="6.38505">
        <ele>1513.8</ele>
        <time>2021-08-09T10:42:46Z</time>
      </trkpt>
      <trkpt lat="44.36302" lon="6.38481">
        <ele>1512.4</ele>
        <time>2021-08-09T10:42:48Z</time>
      </trkpt>
      <trkpt lat="44.36299" lon="6.38466">
        <ele>1511.8</ele>
        <time>2021-08-09T10:42:49Z</time>
      </trkpt>
      <trkpt lat="44.36295" lon="6.38437">
        <ele>1510.8</ele>
        <time>2021-08-09T10:42:51Z</time>
      </trkpt>
      <trkpt lat="44.36292" lon="6.38406">
        <ele>1509.4</ele>
        <time>2021-08-09T10:42:53Z</time>
      </trkpt>
      <trkpt lat="44.3629" lon="6.38392">
        <ele>1508.2</ele>
        <time>2021-08-09T10:42:54Z</time>
      </trkpt>
      <trkpt lat="44.36287" lon="6.38382">
        <ele>1507.2</ele>
        <time>2021-08-09T10:42:55Z</time>
      </trkpt>
      <trkpt lat="44.36284" lon="6.38374">
        <ele>1505.8</ele>
        <time>2021-08-09T10:42:56Z</time>
      </trkpt>
      <trkpt lat="44.36278" lon="6.3837">
        <ele>1504.4</ele>
        <time>2021-08-09T10:42:57Z</time>
      </trkpt>
      <trkpt lat="44.36273" lon="6.38368">
        <ele>1503</ele>
        <time>2021-08-09T10:42:58Z</time>
      </trkpt>
      <trkpt lat="44.36269" lon="6.38373">
        <ele>1501.4</ele>
        <time>2021-08-09T10:42:59Z</time>
      </trkpt>
      <trkpt lat="44.36267" lon="6.38381">
        <ele>1500</ele>
        <time>2021-08-09T10:43:00Z</time>
      </trkpt>
      <trkpt lat="44.36268" lon="6.38391">
        <ele>1498.4</ele>
        <time>2021-08-09T10:43:01Z</time>
      </trkpt>
      <trkpt lat="44.3627" lon="6.38413">
        <ele>1497</ele>
        <time>2021-08-09T10:43:03Z</time>
      </trkpt>
      <trkpt lat="44.3627" lon="6.38422">
        <ele>1496.6</ele>
        <time>2021-08-09T10:43:04Z</time>
      </trkpt>
      <trkpt lat="44.36265" lon="6.38434">
        <ele>1496.2</ele>
        <time>2021-08-09T10:43:06Z</time>
      </trkpt>
      <trkpt lat="44.36256" lon="6.38433">
        <ele>1496</ele>
        <time>2021-08-09T10:43:08Z</time>
      </trkpt>
      <trkpt lat="44.36253" lon="6.38428">
        <ele>1495.6</ele>
        <time>2021-08-09T10:43:09Z</time>
      </trkpt>
      <trkpt lat="44.36252" lon="6.38422">
        <ele>1495</ele>
        <time>2021-08-09T10:43:10Z</time>
      </trkpt>
      <trkpt lat="44.36252" lon="6.38418">
        <ele>1494.2</ele>
        <time>2021-08-09T10:43:11Z</time>
      </trkpt>
      <trkpt lat="44.3625" lon="6.38415">
        <ele>1493.2</ele>
        <time>2021-08-09T10:43:13Z</time>
      </trkpt>
      <trkpt lat="44.3625" lon="6.38416">
        <ele>1492.6</ele>
        <time>2021-08-09T10:43:14Z</time>
      </trkpt>
      <trkpt lat="44.3625" lon="6.38417">
        <ele>1491.2</ele>
        <time>2021-08-09T10:43:16Z</time>
      </trkpt>
      <trkpt lat="44.3625" lon="6.38417">
        <ele>1490.6</ele>
        <time>2021-08-09T10:43:17Z</time>
      </trkpt>
      <trkpt lat="44.3625" lon="6.3842">
        <ele>1489</ele>
        <time>2021-08-09T10:43:20Z</time>
      </trkpt>
      <trkpt lat="44.36251" lon="6.38429">
        <ele>1488.8</ele>
        <time>2021-08-09T10:43:24Z</time>
      </trkpt>
      <trkpt lat="44.36251" lon="6.38435">
        <ele>1488.8</ele>
        <time>2021-08-09T10:43:26Z</time>
      </trkpt>
      <trkpt lat="44.36247" lon="6.38437">
        <ele>1488.8</ele>
        <time>2021-08-09T10:43:28Z</time>
      </trkpt>
      <trkpt lat="44.36242" lon="6.38435">
        <ele>1489</ele>
        <time>2021-08-09T10:43:32Z</time>
      </trkpt>
      <trkpt lat="44.3624" lon="6.38434">
        <ele>1489</ele>
        <time>2021-08-09T10:43:33Z</time>
      </trkpt>
      <trkpt lat="44.36234" lon="6.38428">
        <ele>1489</ele>
        <time>2021-08-09T10:43:36Z</time>
      </trkpt>
      <trkpt lat="44.36225" lon="6.38418">
        <ele>1489</ele>
        <time>2021-08-09T10:43:40Z</time>
      </trkpt>
      <trkpt lat="44.36214" lon="6.38409">
        <ele>1487.4</ele>
        <time>2021-08-09T10:43:46Z</time>
      </trkpt>
      <trkpt lat="44.3621" lon="6.38406">
        <ele>1486.4</ele>
        <time>2021-08-09T10:43:48Z</time>
      </trkpt>
      <trkpt lat="44.36205" lon="6.38402">
        <ele>1485</ele>
        <time>2021-08-09T10:43:51Z</time>
      </trkpt>
      <trkpt lat="44.36204" lon="6.384">
        <ele>1484.6</ele>
        <time>2021-08-09T10:43:52Z</time>
      </trkpt>
      <trkpt lat="44.362" lon="6.38396">
        <ele>1484</ele>
        <time>2021-08-09T10:43:54Z</time>
      </trkpt>
      <trkpt lat="44.36194" lon="6.38391">
        <ele>1482.6</ele>
        <time>2021-08-09T10:43:57Z</time>
      </trkpt>
      <trkpt lat="44.36191" lon="6.38388">
        <ele>1482</ele>
        <time>2021-08-09T10:43:58Z</time>
      </trkpt>
      <trkpt lat="44.3619" lon="6.38387">
        <ele>1481.6</ele>
        <time>2021-08-09T10:43:59Z</time>
      </trkpt>
      <trkpt lat="44.36186" lon="6.38384">
        <ele>1480.4</ele>
        <time>2021-08-09T10:44:01Z</time>
      </trkpt>
      <trkpt lat="44.36183" lon="6.38383">
        <ele>1480.2</ele>
        <time>2021-08-09T10:44:02Z</time>
      </trkpt>
      <trkpt lat="44.36179" lon="6.3838">
        <ele>1479.2</ele>
        <time>2021-08-09T10:44:05Z</time>
      </trkpt>
      <trkpt lat="44.36178" lon="6.38379">
        <ele>1478.6</ele>
        <time>2021-08-09T10:44:06Z</time>
      </trkpt>
      <trkpt lat="44.36177" lon="6.38378">
        <ele>1478.2</ele>
        <time>2021-08-09T10:44:07Z</time>
      </trkpt>
      <trkpt lat="44.36169" lon="6.38371">
        <ele>1477</ele>
        <time>2021-08-09T10:44:10Z</time>
      </trkpt>
      <trkpt lat="44.36158" lon="6.38361">
        <ele>1476</ele>
        <time>2021-08-09T10:44:13Z</time>
      </trkpt>
      <trkpt lat="44.36154" lon="6.38357">
        <ele>1476</ele>
        <time>2021-08-09T10:44:14Z</time>
      </trkpt>
      <trkpt lat="44.36137" lon="6.38342">
        <ele>1474.8</ele>
        <time>2021-08-09T10:44:18Z</time>
      </trkpt>
      <trkpt lat="44.36133" lon="6.38339">
        <ele>1474.2</ele>
        <time>2021-08-09T10:44:19Z</time>
      </trkpt>
      <trkpt lat="44.3613" lon="6.38336">
        <ele>1473.6</ele>
        <time>2021-08-09T10:44:20Z</time>
      </trkpt>
      <trkpt lat="44.36124" lon="6.3833">
        <ele>1472</ele>
        <time>2021-08-09T10:44:22Z</time>
      </trkpt>
      <trkpt lat="44.36119" lon="6.38324">
        <ele>1469.8</ele>
        <time>2021-08-09T10:44:24Z</time>
      </trkpt>
      <trkpt lat="44.36115" lon="6.38321">
        <ele>1468.8</ele>
        <time>2021-08-09T10:44:25Z</time>
      </trkpt>
      <trkpt lat="44.36108" lon="6.38315">
        <ele>1467</ele>
        <time>2021-08-09T10:44:27Z</time>
      </trkpt>
      <trkpt lat="44.36105" lon="6.38312">
        <ele>1466.2</ele>
        <time>2021-08-09T10:44:28Z</time>
      </trkpt>
      <trkpt lat="44.36103" lon="6.38309">
        <ele>1465.4</ele>
        <time>2021-08-09T10:44:29Z</time>
      </trkpt>
      <trkpt lat="44.36097" lon="6.38303">
        <ele>1464.2</ele>
        <time>2021-08-09T10:44:31Z</time>
      </trkpt>
      <trkpt lat="44.36095" lon="6.383">
        <ele>1463.6</ele>
        <time>2021-08-09T10:44:32Z</time>
      </trkpt>
      <trkpt lat="44.36092" lon="6.38297">
        <ele>1463</ele>
        <time>2021-08-09T10:44:33Z</time>
      </trkpt>
      <trkpt lat="44.36088" lon="6.38286">
        <ele>1461.8</ele>
        <time>2021-08-09T10:44:35Z</time>
      </trkpt>
      <trkpt lat="44.36086" lon="6.38279">
        <ele>1461</ele>
        <time>2021-08-09T10:44:36Z</time>
      </trkpt>
      <trkpt lat="44.36083" lon="6.38273">
        <ele>1460.4</ele>
        <time>2021-08-09T10:44:37Z</time>
      </trkpt>
      <trkpt lat="44.36079" lon="6.38262">
        <ele>1459</ele>
        <time>2021-08-09T10:44:39Z</time>
      </trkpt>
      <trkpt lat="44.36076" lon="6.38257">
        <ele>1458.4</ele>
        <time>2021-08-09T10:44:40Z</time>
      </trkpt>
      <trkpt lat="44.36074" lon="6.38252">
        <ele>1457.6</ele>
        <time>2021-08-09T10:44:41Z</time>
      </trkpt>
      <trkpt lat="44.36071" lon="6.38247">
        <ele>1457</ele>
        <time>2021-08-09T10:44:42Z</time>
      </trkpt>
      <trkpt lat="44.36069" lon="6.38241">
        <ele>1456.4</ele>
        <time>2021-08-09T10:44:43Z</time>
      </trkpt>
      <trkpt lat="44.36066" lon="6.38235">
        <ele>1454.8</ele>
        <time>2021-08-09T10:44:44Z</time>
      </trkpt>
      <trkpt lat="44.36064" lon="6.3823">
        <ele>1453.8</ele>
        <time>2021-08-09T10:44:45Z</time>
      </trkpt>
      <trkpt lat="44.36061" lon="6.38226">
        <ele>1452.6</ele>
        <time>2021-08-09T10:44:46Z</time>
      </trkpt>
      <trkpt lat="44.36059" lon="6.38222">
        <ele>1451.6</ele>
        <time>2021-08-09T10:44:47Z</time>
      </trkpt>
      <trkpt lat="44.36056" lon="6.38219">
        <ele>1451</ele>
        <time>2021-08-09T10:44:48Z</time>
      </trkpt>
      <trkpt lat="44.36054" lon="6.38215">
        <ele>1450</ele>
        <time>2021-08-09T10:44:49Z</time>
      </trkpt>
      <trkpt lat="44.3605" lon="6.38208">
        <ele>1448.2</ele>
        <time>2021-08-09T10:44:51Z</time>
      </trkpt>
      <trkpt lat="44.36047" lon="6.38204">
        <ele>1447.6</ele>
        <time>2021-08-09T10:44:52Z</time>
      </trkpt>
      <trkpt lat="44.36044" lon="6.38199">
        <ele>1446.6</ele>
        <time>2021-08-09T10:44:53Z</time>
      </trkpt>
      <trkpt lat="44.36039" lon="6.38189">
        <ele>1445.2</ele>
        <time>2021-08-09T10:44:55Z</time>
      </trkpt>
      <trkpt lat="44.36037" lon="6.38184">
        <ele>1444.6</ele>
        <time>2021-08-09T10:44:56Z</time>
      </trkpt>
      <trkpt lat="44.36036" lon="6.3818">
        <ele>1444</ele>
        <time>2021-08-09T10:44:57Z</time>
      </trkpt>
      <trkpt lat="44.36031" lon="6.38171">
        <ele>1443</ele>
        <time>2021-08-09T10:44:59Z</time>
      </trkpt>
      <trkpt lat="44.36027" lon="6.38164">
        <ele>1441.6</ele>
        <time>2021-08-09T10:45:01Z</time>
      </trkpt>
      <trkpt lat="44.36025" lon="6.38159">
        <ele>1440.8</ele>
        <time>2021-08-09T10:45:02Z</time>
      </trkpt>
      <trkpt lat="44.36022" lon="6.38154">
        <ele>1440</ele>
        <time>2021-08-09T10:45:03Z</time>
      </trkpt>
      <trkpt lat="44.36016" lon="6.38141">
        <ele>1438.4</ele>
        <time>2021-08-09T10:45:05Z</time>
      </trkpt>
      <trkpt lat="44.36012" lon="6.38134">
        <ele>1437.8</ele>
        <time>2021-08-09T10:45:06Z</time>
      </trkpt>
      <trkpt lat="44.36008" lon="6.38126">
        <ele>1437</ele>
        <time>2021-08-09T10:45:07Z</time>
      </trkpt>
      <trkpt lat="44.35999" lon="6.38111">
        <ele>1435.8</ele>
        <time>2021-08-09T10:45:09Z</time>
      </trkpt>
      <trkpt lat="44.35995" lon="6.38103">
        <ele>1435.2</ele>
        <time>2021-08-09T10:45:10Z</time>
      </trkpt>
      <trkpt lat="44.3599" lon="6.38096">
        <ele>1434.6</ele>
        <time>2021-08-09T10:45:11Z</time>
      </trkpt>
      <trkpt lat="44.35982" lon="6.3808">
        <ele>1431.8</ele>
        <time>2021-08-09T10:45:13Z</time>
      </trkpt>
      <trkpt lat="44.35978" lon="6.38072">
        <ele>1430.6</ele>
        <time>2021-08-09T10:45:14Z</time>
      </trkpt>
      <trkpt lat="44.35974" lon="6.38066">
        <ele>1429.4</ele>
        <time>2021-08-09T10:45:15Z</time>
      </trkpt>
      <trkpt lat="44.35972" lon="6.38061">
        <ele>1428.2</ele>
        <time>2021-08-09T10:45:16Z</time>
      </trkpt>
      <trkpt lat="44.35967" lon="6.38053">
        <ele>1426.4</ele>
        <time>2021-08-09T10:45:18Z</time>
      </trkpt>
      <trkpt lat="44.35962" lon="6.38047">
        <ele>1424.2</ele>
        <time>2021-08-09T10:45:20Z</time>
      </trkpt>
      <trkpt lat="44.35959" lon="6.38044">
        <ele>1422.8</ele>
        <time>2021-08-09T10:45:21Z</time>
      </trkpt>
      <trkpt lat="44.35956" lon="6.38039">
        <ele>1422</ele>
        <time>2021-08-09T10:45:22Z</time>
      </trkpt>
      <trkpt lat="44.35953" lon="6.38035">
        <ele>1421</ele>
        <time>2021-08-09T10:45:23Z</time>
      </trkpt>
      <trkpt lat="44.35949" lon="6.38032">
        <ele>1420.4</ele>
        <time>2021-08-09T10:45:24Z</time>
      </trkpt>
      <trkpt lat="44.3594" lon="6.38028">
        <ele>1419.8</ele>
        <time>2021-08-09T10:45:26Z</time>
      </trkpt>
      <trkpt lat="44.35935" lon="6.38024">
        <ele>1419.2</ele>
        <time>2021-08-09T10:45:28Z</time>
      </trkpt>
      <trkpt lat="44.35933" lon="6.38023">
        <ele>1418.6</ele>
        <time>2021-08-09T10:45:29Z</time>
      </trkpt>
      <trkpt lat="44.35933" lon="6.38022">
        <ele>1418</ele>
        <time>2021-08-09T10:45:30Z</time>
      </trkpt>
      <trkpt lat="44.35932" lon="6.38022">
        <ele>1417.4</ele>
        <time>2021-08-09T10:45:32Z</time>
      </trkpt>
      <trkpt lat="44.3593" lon="6.3802">
        <ele>1416.2</ele>
        <time>2021-08-09T10:47:14Z</time>
      </trkpt>
      <trkpt lat="44.35919" lon="6.38014">
        <ele>1416</ele>
        <time>2021-08-09T10:47:18Z</time>
      </trkpt>
      <trkpt lat="44.35894" lon="6.38007">
        <ele>1415.4</ele>
        <time>2021-08-09T10:47:23Z</time>
      </trkpt>
      <trkpt lat="44.35881" lon="6.38003">
        <ele>1415</ele>
        <time>2021-08-09T10:47:25Z</time>
      </trkpt>
      <trkpt lat="44.35861" lon="6.37996">
        <ele>1413.8</ele>
        <time>2021-08-09T10:47:28Z</time>
      </trkpt>
      <trkpt lat="44.35853" lon="6.37994">
        <ele>1413.4</ele>
        <time>2021-08-09T10:47:29Z</time>
      </trkpt>
      <trkpt lat="44.35838" lon="6.37988">
        <ele>1412.2</ele>
        <time>2021-08-09T10:47:31Z</time>
      </trkpt>
      <trkpt lat="44.35814" lon="6.37977">
        <ele>1411.2</ele>
        <time>2021-08-09T10:47:34Z</time>
      </trkpt>
      <trkpt lat="44.35798" lon="6.37969">
        <ele>1410</ele>
        <time>2021-08-09T10:47:36Z</time>
      </trkpt>
      <trkpt lat="44.35789" lon="6.37966">
        <ele>1408.8</ele>
        <time>2021-08-09T10:47:37Z</time>
      </trkpt>
      <trkpt lat="44.3578" lon="6.37962">
        <ele>1408.4</ele>
        <time>2021-08-09T10:47:38Z</time>
      </trkpt>
      <trkpt lat="44.35761" lon="6.37955">
        <ele>1407.6</ele>
        <time>2021-08-09T10:47:40Z</time>
      </trkpt>
      <trkpt lat="44.35751" lon="6.37954">
        <ele>1407</ele>
        <time>2021-08-09T10:47:41Z</time>
      </trkpt>
      <trkpt lat="44.35741" lon="6.37953">
        <ele>1406.6</ele>
        <time>2021-08-09T10:47:42Z</time>
      </trkpt>
      <trkpt lat="44.3572" lon="6.37954">
        <ele>1405.2</ele>
        <time>2021-08-09T10:47:44Z</time>
      </trkpt>
      <trkpt lat="44.357" lon="6.37958">
        <ele>1404</ele>
        <time>2021-08-09T10:47:46Z</time>
      </trkpt>
      <trkpt lat="44.3569" lon="6.3796">
        <ele>1403.6</ele>
        <time>2021-08-09T10:47:47Z</time>
      </trkpt>
      <trkpt lat="44.35682" lon="6.37962">
        <ele>1403</ele>
        <time>2021-08-09T10:47:48Z</time>
      </trkpt>
      <trkpt lat="44.35676" lon="6.37963">
        <ele>1402.2</ele>
        <time>2021-08-09T10:47:49Z</time>
      </trkpt>
      <trkpt lat="44.35673" lon="6.37964">
        <ele>1401.6</ele>
        <time>2021-08-09T10:47:50Z</time>
      </trkpt>
      <trkpt lat="44.35671" lon="6.37964">
        <ele>1400</ele>
        <time>2021-08-09T10:47:52Z</time>
      </trkpt>
      <trkpt lat="44.35671" lon="6.37964">
        <ele>1399.4</ele>
        <time>2021-08-09T10:47:53Z</time>
      </trkpt>
      <trkpt lat="44.35673" lon="6.37963">
        <ele>1398</ele>
        <time>2021-08-09T10:48:00Z</time>
      </trkpt>
      <trkpt lat="44.35679" lon="6.37959">
        <ele>1398</ele>
        <time>2021-08-09T10:48:03Z</time>
      </trkpt>
      <trkpt lat="44.35681" lon="6.37957">
        <ele>1398</ele>
        <time>2021-08-09T10:48:04Z</time>
      </trkpt>
      <trkpt lat="44.35686" lon="6.37954">
        <ele>1398</ele>
        <time>2021-08-09T10:48:07Z</time>
      </trkpt>
      <trkpt lat="44.35687" lon="6.37954">
        <ele>1398</ele>
        <time>2021-08-09T10:48:08Z</time>
      </trkpt>
      <trkpt lat="44.35689" lon="6.37952">
        <ele>1397.2</ele>
        <time>2021-08-09T10:48:25Z</time>
      </trkpt>
      <trkpt lat="44.35695" lon="6.37949">
        <ele>1397</ele>
        <time>2021-08-09T10:48:27Z</time>
      </trkpt>
      <trkpt lat="44.35714" lon="6.37934">
        <ele>1397</ele>
        <time>2021-08-09T10:48:31Z</time>
      </trkpt>
      <trkpt lat="44.35746" lon="6.37904">
        <ele>1396.2</ele>
        <time>2021-08-09T10:48:36Z</time>
      </trkpt>
      <trkpt lat="44.35757" lon="6.37891">
        <ele>1395</ele>
        <time>2021-08-09T10:48:38Z</time>
      </trkpt>
      <trkpt lat="44.35767" lon="6.37878">
        <ele>1393.4</ele>
        <time>2021-08-09T10:48:40Z</time>
      </trkpt>
      <trkpt lat="44.35771" lon="6.37871">
        <ele>1392.6</ele>
        <time>2021-08-09T10:48:41Z</time>
      </trkpt>
      <trkpt lat="44.35773" lon="6.37865">
        <ele>1391.6</ele>
        <time>2021-08-09T10:48:42Z</time>
      </trkpt>
      <trkpt lat="44.35774" lon="6.37848">
        <ele>1390.8</ele>
        <time>2021-08-09T10:48:45Z</time>
      </trkpt>
      <trkpt lat="44.35771" lon="6.37843">
        <ele>1390.6</ele>
        <time>2021-08-09T10:48:46Z</time>
      </trkpt>
      <trkpt lat="44.35761" lon="6.37837">
        <ele>1390.4</ele>
        <time>2021-08-09T10:48:48Z</time>
      </trkpt>
      <trkpt lat="44.35755" lon="6.37835">
        <ele>1390.2</ele>
        <time>2021-08-09T10:48:49Z</time>
      </trkpt>
      <trkpt lat="44.35726" lon="6.37826">
        <ele>1390</ele>
        <time>2021-08-09T10:48:53Z</time>
      </trkpt>
      <trkpt lat="44.35694" lon="6.37816">
        <ele>1389.4</ele>
        <time>2021-08-09T10:48:57Z</time>
      </trkpt>
      <trkpt lat="44.35679" lon="6.37809">
        <ele>1387.8</ele>
        <time>2021-08-09T10:48:59Z</time>
      </trkpt>
      <trkpt lat="44.35665" lon="6.37802">
        <ele>1386.4</ele>
        <time>2021-08-09T10:49:01Z</time>
      </trkpt>
      <trkpt lat="44.35651" lon="6.37796">
        <ele>1385.2</ele>
        <time>2021-08-09T10:49:03Z</time>
      </trkpt>
      <trkpt lat="44.35631" lon="6.37789">
        <ele>1384.2</ele>
        <time>2021-08-09T10:49:06Z</time>
      </trkpt>
      <trkpt lat="44.35606" lon="6.37785">
        <ele>1383.4</ele>
        <time>2021-08-09T10:49:11Z</time>
      </trkpt>
      <trkpt lat="44.35603" lon="6.37785">
        <ele>1383.4</ele>
        <time>2021-08-09T10:49:15Z</time>
      </trkpt>
      <trkpt lat="44.35607" lon="6.37786">
        <ele>1383.8</ele>
        <time>2021-08-09T10:49:27Z</time>
      </trkpt>
      <trkpt lat="44.35612" lon="6.37786">
        <ele>1383.8</ele>
        <time>2021-08-09T10:49:30Z</time>
      </trkpt>
      <trkpt lat="44.35622" lon="6.37787">
        <ele>1383.6</ele>
        <time>2021-08-09T10:49:37Z</time>
      </trkpt>
      <trkpt lat="44.35633" lon="6.37788">
        <ele>1383.6</ele>
        <time>2021-08-09T10:49:41Z</time>
      </trkpt>
      <trkpt lat="44.3564" lon="6.3779">
        <ele>1383.6</ele>
        <time>2021-08-09T10:49:43Z</time>
      </trkpt>
      <trkpt lat="44.35644" lon="6.3779">
        <ele>1383.6</ele>
        <time>2021-08-09T10:49:46Z</time>
      </trkpt>
      <trkpt lat="44.35645" lon="6.37791">
        <ele>1383.6</ele>
        <time>2021-08-09T10:49:49Z</time>
      </trkpt>
      <trkpt lat="44.3565" lon="6.37792">
        <ele>1383.8</ele>
        <time>2021-08-09T10:49:53Z</time>
      </trkpt>
      <trkpt lat="44.35666" lon="6.37798">
        <ele>1383.8</ele>
        <time>2021-08-09T10:49:59Z</time>
      </trkpt>
      <trkpt lat="44.35691" lon="6.37811">
        <ele>1384</ele>
        <time>2021-08-09T10:50:07Z</time>
      </trkpt>
      <trkpt lat="44.35726" lon="6.3782">
        <ele>1384.4</ele>
        <time>2021-08-09T10:50:17Z</time>
      </trkpt>
      <trkpt lat="44.35742" lon="6.37825">
        <ele>1385</ele>
        <time>2021-08-09T10:50:22Z</time>
      </trkpt>
      <trkpt lat="44.35751" lon="6.37828">
        <ele>1385.4</ele>
        <time>2021-08-09T10:50:25Z</time>
      </trkpt>
      <trkpt lat="44.35759" lon="6.3783">
        <ele>1386.2</ele>
        <time>2021-08-09T10:50:28Z</time>
      </trkpt>
      <trkpt lat="44.3577" lon="6.37834">
        <ele>1386.6</ele>
        <time>2021-08-09T10:50:32Z</time>
      </trkpt>
      <trkpt lat="44.35779" lon="6.37845">
        <ele>1387.6</ele>
        <time>2021-08-09T10:50:37Z</time>
      </trkpt>
      <trkpt lat="44.35781" lon="6.37846">
        <ele>1388.2</ele>
        <time>2021-08-09T10:50:38Z</time>
      </trkpt>
      <trkpt lat="44.35783" lon="6.37846">
        <ele>1388.8</ele>
        <time>2021-08-09T10:50:40Z</time>
      </trkpt>
      <trkpt lat="44.35783" lon="6.37844">
        <ele>1389</ele>
        <time>2021-08-09T10:50:41Z</time>
      </trkpt>
      <trkpt lat="44.35784" lon="6.37842">
        <ele>1389.2</ele>
        <time>2021-08-09T10:50:42Z</time>
      </trkpt>
      <trkpt lat="44.35788" lon="6.3783">
        <ele>1390</ele>
        <time>2021-08-09T10:50:45Z</time>
      </trkpt>
      <trkpt lat="44.358" lon="6.37802">
        <ele>1390.8</ele>
        <time>2021-08-09T10:50:52Z</time>
      </trkpt>
      <trkpt lat="44.3581" lon="6.37781">
        <ele>1390.4</ele>
        <time>2021-08-09T10:50:59Z</time>
      </trkpt>
      <trkpt lat="44.35818" lon="6.37776">
        <ele>1390.2</ele>
        <time>2021-08-09T10:51:04Z</time>
      </trkpt>
      <trkpt lat="44.3583" lon="6.37773">
        <ele>1390.2</ele>
        <time>2021-08-09T10:51:10Z</time>
      </trkpt>
      <trkpt lat="44.3584" lon="6.37767">
        <ele>1390.4</ele>
        <time>2021-08-09T10:51:16Z</time>
      </trkpt>
      <trkpt lat="44.35842" lon="6.37763">
        <ele>1390.4</ele>
        <time>2021-08-09T10:51:21Z</time>
      </trkpt>
      <trkpt lat="44.35841" lon="6.37766">
        <ele>1390.4</ele>
        <time>2021-08-09T10:51:25Z</time>
      </trkpt>
      <trkpt lat="44.35839" lon="6.37767">
        <ele>1390.4</ele>
        <time>2021-08-09T10:51:27Z</time>
      </trkpt>
      <trkpt lat="44.35838" lon="6.37768">
        <ele>1390.4</ele>
        <time>2021-08-09T10:51:28Z</time>
      </trkpt>
      <trkpt lat="44.35832" lon="6.37769">
        <ele>1390.4</ele>
        <time>2021-08-09T10:51:32Z</time>
      </trkpt>
      <trkpt lat="44.35831" lon="6.37769">
        <ele>1390.4</ele>
        <time>2021-08-09T10:51:33Z</time>
      </trkpt>
      <trkpt lat="44.35821" lon="6.37771">
        <ele>1390.6</ele>
        <time>2021-08-09T10:51:38Z</time>
      </trkpt>
      <trkpt lat="44.3581" lon="6.37779">
        <ele>1390.6</ele>
        <time>2021-08-09T10:51:43Z</time>
      </trkpt>
      <trkpt lat="44.35802" lon="6.37797">
        <ele>1390.6</ele>
        <time>2021-08-09T10:51:48Z</time>
      </trkpt>
      <trkpt lat="44.35788" lon="6.37835">
        <ele>1390.2</ele>
        <time>2021-08-09T10:51:56Z</time>
      </trkpt>
      <trkpt lat="44.35778" lon="6.3786">
        <ele>1390.2</ele>
        <time>2021-08-09T10:52:02Z</time>
      </trkpt>
      <trkpt lat="44.35763" lon="6.37879">
        <ele>1391</ele>
        <time>2021-08-09T10:52:08Z</time>
      </trkpt>
      <trkpt lat="44.35743" lon="6.37904">
        <ele>1391.8</ele>
        <time>2021-08-09T10:52:15Z</time>
      </trkpt>
      <trkpt lat="44.35734" lon="6.37913">
        <ele>1391.8</ele>
        <time>2021-08-09T10:52:18Z</time>
      </trkpt>
      <trkpt lat="44.35728" lon="6.37918">
        <ele>1391.8</ele>
        <time>2021-08-09T10:52:20Z</time>
      </trkpt>
      <trkpt lat="44.35709" lon="6.37935">
        <ele>1392.6</ele>
        <time>2021-08-09T10:52:28Z</time>
      </trkpt>
      <trkpt lat="44.35705" lon="6.37938">
        <ele>1393.4</ele>
        <time>2021-08-09T10:52:30Z</time>
      </trkpt>
      <trkpt lat="44.35698" lon="6.37943">
        <ele>1394</ele>
        <time>2021-08-09T10:52:33Z</time>
      </trkpt>
      <trkpt lat="44.35695" lon="6.37944">
        <ele>1394.4</ele>
        <time>2021-08-09T10:52:34Z</time>
      </trkpt>
      <trkpt lat="44.35687" lon="6.37949">
        <ele>1395.4</ele>
        <time>2021-08-09T10:52:38Z</time>
      </trkpt>
      <trkpt lat="44.35685" lon="6.37951">
        <ele>1395.6</ele>
        <time>2021-08-09T10:52:39Z</time>
      </trkpt>
      <trkpt lat="44.35675" lon="6.37958">
        <ele>1396.4</ele>
        <time>2021-08-09T10:52:43Z</time>
      </trkpt>
      <trkpt lat="44.35668" lon="6.37962">
        <ele>1397</ele>
        <time>2021-08-09T10:52:45Z</time>
      </trkpt>
      <trkpt lat="44.35645" lon="6.37973">
        <ele>1397.4</ele>
        <time>2021-08-09T10:52:50Z</time>
      </trkpt>
      <trkpt lat="44.3564" lon="6.37976">
        <ele>1397.4</ele>
        <time>2021-08-09T10:52:51Z</time>
      </trkpt>
      <trkpt lat="44.35623" lon="6.37987">
        <ele>1397.4</ele>
        <time>2021-08-09T10:52:54Z</time>
      </trkpt>
      <trkpt lat="44.35582" lon="6.38014">
        <ele>1395.8</ele>
        <time>2021-08-09T10:53:00Z</time>
      </trkpt>
      <trkpt lat="44.35574" lon="6.38018">
        <ele>1395.2</ele>
        <time>2021-08-09T10:53:01Z</time>
      </trkpt>
      <trkpt lat="44.35557" lon="6.38027">
        <ele>1394.4</ele>
        <time>2021-08-09T10:53:03Z</time>
      </trkpt>
      <trkpt lat="44.35548" lon="6.38029">
        <ele>1394</ele>
        <time>2021-08-09T10:53:04Z</time>
      </trkpt>
      <trkpt lat="44.35522" lon="6.38027">
        <ele>1393</ele>
        <time>2021-08-09T10:53:07Z</time>
      </trkpt>
      <trkpt lat="44.35513" lon="6.38028">
        <ele>1392.2</ele>
        <time>2021-08-09T10:53:08Z</time>
      </trkpt>
      <trkpt lat="44.35505" lon="6.38029">
        <ele>1391.4</ele>
        <time>2021-08-09T10:53:09Z</time>
      </trkpt>
      <trkpt lat="44.35489" lon="6.38035">
        <ele>1389.6</ele>
        <time>2021-08-09T10:53:11Z</time>
      </trkpt>
      <trkpt lat="44.35481" lon="6.38039">
        <ele>1388.8</ele>
        <time>2021-08-09T10:53:12Z</time>
      </trkpt>
      <trkpt lat="44.35475" lon="6.38042">
        <ele>1387.8</ele>
        <time>2021-08-09T10:53:13Z</time>
      </trkpt>
      <trkpt lat="44.35469" lon="6.38044">
        <ele>1386.8</ele>
        <time>2021-08-09T10:53:14Z</time>
      </trkpt>
      <trkpt lat="44.35463" lon="6.38045">
        <ele>1386</ele>
        <time>2021-08-09T10:53:15Z</time>
      </trkpt>
      <trkpt lat="44.35457" lon="6.38044">
        <ele>1385.4</ele>
        <time>2021-08-09T10:53:16Z</time>
      </trkpt>
      <trkpt lat="44.35438" lon="6.38041">
        <ele>1384.4</ele>
        <time>2021-08-09T10:53:19Z</time>
      </trkpt>
      <trkpt lat="44.35431" lon="6.38041">
        <ele>1384</ele>
        <time>2021-08-09T10:53:20Z</time>
      </trkpt>
      <trkpt lat="44.35424" lon="6.38041">
        <ele>1384</ele>
        <time>2021-08-09T10:53:21Z</time>
      </trkpt>
      <trkpt lat="44.35403" lon="6.38042">
        <ele>1383.6</ele>
        <time>2021-08-09T10:53:24Z</time>
      </trkpt>
      <trkpt lat="44.35395" lon="6.38042">
        <ele>1383.2</ele>
        <time>2021-08-09T10:53:25Z</time>
      </trkpt>
      <trkpt lat="44.35378" lon="6.3805">
        <ele>1382.6</ele>
        <time>2021-08-09T10:53:27Z</time>
      </trkpt>
      <trkpt lat="44.35362" lon="6.38068">
        <ele>1382</ele>
        <time>2021-08-09T10:53:29Z</time>
      </trkpt>
      <trkpt lat="44.35355" lon="6.38076">
        <ele>1381.4</ele>
        <time>2021-08-09T10:53:30Z</time>
      </trkpt>
      <trkpt lat="44.35347" lon="6.38082">
        <ele>1381</ele>
        <time>2021-08-09T10:53:31Z</time>
      </trkpt>
      <trkpt lat="44.3533" lon="6.3808">
        <ele>1379.6</ele>
        <time>2021-08-09T10:53:33Z</time>
      </trkpt>
      <trkpt lat="44.35317" lon="6.38064">
        <ele>1377.8</ele>
        <time>2021-08-09T10:53:35Z</time>
      </trkpt>
      <trkpt lat="44.35311" lon="6.38053">
        <ele>1376.8</ele>
        <time>2021-08-09T10:53:36Z</time>
      </trkpt>
      <trkpt lat="44.35305" lon="6.38043">
        <ele>1375.8</ele>
        <time>2021-08-09T10:53:37Z</time>
      </trkpt>
      <trkpt lat="44.35296" lon="6.38034">
        <ele>1374.6</ele>
        <time>2021-08-09T10:53:38Z</time>
      </trkpt>
      <trkpt lat="44.35287" lon="6.38027">
        <ele>1373.6</ele>
        <time>2021-08-09T10:53:39Z</time>
      </trkpt>
      <trkpt lat="44.35265" lon="6.38017">
        <ele>1371.8</ele>
        <time>2021-08-09T10:53:41Z</time>
      </trkpt>
      <trkpt lat="44.35243" lon="6.38006">
        <ele>1370.2</ele>
        <time>2021-08-09T10:53:43Z</time>
      </trkpt>
      <trkpt lat="44.35232" lon="6.37999">
        <ele>1369.2</ele>
        <time>2021-08-09T10:53:44Z</time>
      </trkpt>
      <trkpt lat="44.35222" lon="6.37992">
        <ele>1368.2</ele>
        <time>2021-08-09T10:53:45Z</time>
      </trkpt>
      <trkpt lat="44.35213" lon="6.37987">
        <ele>1367</ele>
        <time>2021-08-09T10:53:46Z</time>
      </trkpt>
      <trkpt lat="44.35204" lon="6.37986">
        <ele>1365.6</ele>
        <time>2021-08-09T10:53:47Z</time>
      </trkpt>
      <trkpt lat="44.35196" lon="6.3799">
        <ele>1364.4</ele>
        <time>2021-08-09T10:53:48Z</time>
      </trkpt>
      <trkpt lat="44.35189" lon="6.37997">
        <ele>1361.6</ele>
        <time>2021-08-09T10:53:49Z</time>
      </trkpt>
      <trkpt lat="44.35183" lon="6.38007">
        <ele>1360.2</ele>
        <time>2021-08-09T10:53:50Z</time>
      </trkpt>
      <trkpt lat="44.35178" lon="6.38018">
        <ele>1359</ele>
        <time>2021-08-09T10:53:51Z</time>
      </trkpt>
      <trkpt lat="44.35172" lon="6.38028">
        <ele>1357.6</ele>
        <time>2021-08-09T10:53:52Z</time>
      </trkpt>
      <trkpt lat="44.35164" lon="6.38037">
        <ele>1356.6</ele>
        <time>2021-08-09T10:53:53Z</time>
      </trkpt>
      <trkpt lat="44.35156" lon="6.3804">
        <ele>1355.8</ele>
        <time>2021-08-09T10:53:54Z</time>
      </trkpt>
      <trkpt lat="44.35141" lon="6.38033">
        <ele>1355.2</ele>
        <time>2021-08-09T10:53:56Z</time>
      </trkpt>
      <trkpt lat="44.35133" lon="6.38026">
        <ele>1354.4</ele>
        <time>2021-08-09T10:53:57Z</time>
      </trkpt>
      <trkpt lat="44.35125" lon="6.38018">
        <ele>1353.8</ele>
        <time>2021-08-09T10:53:58Z</time>
      </trkpt>
      <trkpt lat="44.3511" lon="6.38003">
        <ele>1352.6</ele>
        <time>2021-08-09T10:54:00Z</time>
      </trkpt>
      <trkpt lat="44.35102" lon="6.37998">
        <ele>1352.4</ele>
        <time>2021-08-09T10:54:01Z</time>
      </trkpt>
      <trkpt lat="44.35085" lon="6.37992">
        <ele>1351.6</ele>
        <time>2021-08-09T10:54:03Z</time>
      </trkpt>
      <trkpt lat="44.35067" lon="6.37984">
        <ele>1350.6</ele>
        <time>2021-08-09T10:54:05Z</time>
      </trkpt>
      <trkpt lat="44.35058" lon="6.37979">
        <ele>1350</ele>
        <time>2021-08-09T10:54:06Z</time>
      </trkpt>
      <trkpt lat="44.35045" lon="6.3796">
        <ele>1348.6</ele>
        <time>2021-08-09T10:54:08Z</time>
      </trkpt>
      <trkpt lat="44.35037" lon="6.37934">
        <ele>1347.2</ele>
        <time>2021-08-09T10:54:10Z</time>
      </trkpt>
      <trkpt lat="44.35029" lon="6.37908">
        <ele>1346.2</ele>
        <time>2021-08-09T10:54:12Z</time>
      </trkpt>
      <trkpt lat="44.35027" lon="6.37898">
        <ele>1345.4</ele>
        <time>2021-08-09T10:54:13Z</time>
      </trkpt>
      <trkpt lat="44.35025" lon="6.37891">
        <ele>1344.4</ele>
        <time>2021-08-09T10:54:14Z</time>
      </trkpt>
      <trkpt lat="44.35024" lon="6.37886">
        <ele>1343.2</ele>
        <time>2021-08-09T10:54:15Z</time>
      </trkpt>
      <trkpt lat="44.35022" lon="6.37882">
        <ele>1342</ele>
        <time>2021-08-09T10:54:16Z</time>
      </trkpt>
      <trkpt lat="44.35022" lon="6.37878">
        <ele>1339.6</ele>
        <time>2021-08-09T10:54:17Z</time>
      </trkpt>
      <trkpt lat="44.35022" lon="6.37873">
        <ele>1338.8</ele>
        <time>2021-08-09T10:54:18Z</time>
      </trkpt>
      <trkpt lat="44.35022" lon="6.37868">
        <ele>1338.2</ele>
        <time>2021-08-09T10:54:19Z</time>
      </trkpt>
      <trkpt lat="44.35027" lon="6.37836">
        <ele>1337.4</ele>
        <time>2021-08-09T10:54:25Z</time>
      </trkpt>
      <trkpt lat="44.35028" lon="6.37822">
        <ele>1337.2</ele>
        <time>2021-08-09T10:54:27Z</time>
      </trkpt>
      <trkpt lat="44.35034" lon="6.37794">
        <ele>1337</ele>
        <time>2021-08-09T10:54:31Z</time>
      </trkpt>
      <trkpt lat="44.35046" lon="6.37721">
        <ele>1336.6</ele>
        <time>2021-08-09T10:54:41Z</time>
      </trkpt>
      <trkpt lat="44.35051" lon="6.37686">
        <ele>1336.4</ele>
        <time>2021-08-09T10:54:45Z</time>
      </trkpt>
      <trkpt lat="44.35054" lon="6.37667">
        <ele>1336.4</ele>
        <time>2021-08-09T10:54:47Z</time>
      </trkpt>
      <trkpt lat="44.35058" lon="6.37618">
        <ele>1335.6</ele>
        <time>2021-08-09T10:54:52Z</time>
      </trkpt>
      <trkpt lat="44.35062" lon="6.37599">
        <ele>1335.2</ele>
        <time>2021-08-09T10:54:54Z</time>
      </trkpt>
      <trkpt lat="44.35074" lon="6.37576">
        <ele>1334.2</ele>
        <time>2021-08-09T10:54:57Z</time>
      </trkpt>
      <trkpt lat="44.35091" lon="6.3756">
        <ele>1333.2</ele>
        <time>2021-08-09T10:55:00Z</time>
      </trkpt>
      <trkpt lat="44.35097" lon="6.37556">
        <ele>1333</ele>
        <time>2021-08-09T10:55:01Z</time>
      </trkpt>
      <trkpt lat="44.35116" lon="6.37543">
        <ele>1332.2</ele>
        <time>2021-08-09T10:55:04Z</time>
      </trkpt>
      <trkpt lat="44.35127" lon="6.37532">
        <ele>1332</ele>
        <time>2021-08-09T10:55:06Z</time>
      </trkpt>
      <trkpt lat="44.35132" lon="6.37527">
        <ele>1332</ele>
        <time>2021-08-09T10:55:07Z</time>
      </trkpt>
      <trkpt lat="44.35144" lon="6.37498">
        <ele>1332</ele>
        <time>2021-08-09T10:55:11Z</time>
      </trkpt>
      <trkpt lat="44.35147" lon="6.37491">
        <ele>1332</ele>
        <time>2021-08-09T10:55:12Z</time>
      </trkpt>
      <trkpt lat="44.3516" lon="6.3747">
        <ele>1332.4</ele>
        <time>2021-08-09T10:55:15Z</time>
      </trkpt>
      <trkpt lat="44.35189" lon="6.37429">
        <ele>1332.6</ele>
        <time>2021-08-09T10:55:20Z</time>
      </trkpt>
      <trkpt lat="44.35195" lon="6.3742">
        <ele>1332.6</ele>
        <time>2021-08-09T10:55:21Z</time>
      </trkpt>
      <trkpt lat="44.35216" lon="6.37395">
        <ele>1332.2</ele>
        <time>2021-08-09T10:55:24Z</time>
      </trkpt>
      <trkpt lat="44.3523" lon="6.37377">
        <ele>1330.8</ele>
        <time>2021-08-09T10:55:26Z</time>
      </trkpt>
      <trkpt lat="44.35242" lon="6.3736">
        <ele>1328.8</ele>
        <time>2021-08-09T10:55:28Z</time>
      </trkpt>
      <trkpt lat="44.35255" lon="6.37345">
        <ele>1327.4</ele>
        <time>2021-08-09T10:55:30Z</time>
      </trkpt>
      <trkpt lat="44.35261" lon="6.37339">
        <ele>1327</ele>
        <time>2021-08-09T10:55:31Z</time>
      </trkpt>
      <trkpt lat="44.35268" lon="6.37332">
        <ele>1326.2</ele>
        <time>2021-08-09T10:55:32Z</time>
      </trkpt>
      <trkpt lat="44.3528" lon="6.37317">
        <ele>1325</ele>
        <time>2021-08-09T10:55:34Z</time>
      </trkpt>
      <trkpt lat="44.35305" lon="6.37289">
        <ele>1324.4</ele>
        <time>2021-08-09T10:55:38Z</time>
      </trkpt>
      <trkpt lat="44.35344" lon="6.37248">
        <ele>1324</ele>
        <time>2021-08-09T10:55:44Z</time>
      </trkpt>
      <trkpt lat="44.35356" lon="6.37232">
        <ele>1324</ele>
        <time>2021-08-09T10:55:46Z</time>
      </trkpt>
      <trkpt lat="44.35375" lon="6.37193">
        <ele>1324</ele>
        <time>2021-08-09T10:55:50Z</time>
      </trkpt>
      <trkpt lat="44.35401" lon="6.37155">
        <ele>1324</ele>
        <time>2021-08-09T10:55:55Z</time>
      </trkpt>
      <trkpt lat="44.35426" lon="6.37104">
        <ele>1323.8</ele>
        <time>2021-08-09T10:56:01Z</time>
      </trkpt>
      <trkpt lat="44.3544" lon="6.37061">
        <ele>1324.4</ele>
        <time>2021-08-09T10:56:06Z</time>
      </trkpt>
      <trkpt lat="44.3546" lon="6.37017">
        <ele>1323.4</ele>
        <time>2021-08-09T10:56:11Z</time>
      </trkpt>
      <trkpt lat="44.35463" lon="6.37007">
        <ele>1323.2</ele>
        <time>2021-08-09T10:56:12Z</time>
      </trkpt>
      <trkpt lat="44.35466" lon="6.36983">
        <ele>1322.8</ele>
        <time>2021-08-09T10:56:14Z</time>
      </trkpt>
      <trkpt lat="44.35465" lon="6.36961">
        <ele>1321.6</ele>
        <time>2021-08-09T10:56:16Z</time>
      </trkpt>
      <trkpt lat="44.35466" lon="6.36929">
        <ele>1320.2</ele>
        <time>2021-08-09T10:56:19Z</time>
      </trkpt>
      <trkpt lat="44.35468" lon="6.36919">
        <ele>1319.8</ele>
        <time>2021-08-09T10:56:20Z</time>
      </trkpt>
      <trkpt lat="44.35469" lon="6.3691">
        <ele>1319.2</ele>
        <time>2021-08-09T10:56:21Z</time>
      </trkpt>
      <trkpt lat="44.35475" lon="6.36891">
        <ele>1317.8</ele>
        <time>2021-08-09T10:56:23Z</time>
      </trkpt>
      <trkpt lat="44.35478" lon="6.36883">
        <ele>1317.2</ele>
        <time>2021-08-09T10:56:24Z</time>
      </trkpt>
      <trkpt lat="44.35493" lon="6.3684">
        <ele>1316.6</ele>
        <time>2021-08-09T10:56:29Z</time>
      </trkpt>
      <trkpt lat="44.35498" lon="6.36823">
        <ele>1316.6</ele>
        <time>2021-08-09T10:56:31Z</time>
      </trkpt>
      <trkpt lat="44.35501" lon="6.36814">
        <ele>1316.4</ele>
        <time>2021-08-09T10:56:32Z</time>
      </trkpt>
      <trkpt lat="44.35509" lon="6.36792">
        <ele>1316.4</ele>
        <time>2021-08-09T10:56:35Z</time>
      </trkpt>
      <trkpt lat="44.35512" lon="6.36785">
        <ele>1316.4</ele>
        <time>2021-08-09T10:56:36Z</time>
      </trkpt>
      <trkpt lat="44.3552" lon="6.36757">
        <ele>1316.2</ele>
        <time>2021-08-09T10:56:40Z</time>
      </trkpt>
      <trkpt lat="44.35526" lon="6.36747">
        <ele>1316.2</ele>
        <time>2021-08-09T10:56:42Z</time>
      </trkpt>
      <trkpt lat="44.35532" lon="6.36742">
        <ele>1316.2</ele>
        <time>2021-08-09T10:56:44Z</time>
      </trkpt>
      <trkpt lat="44.35541" lon="6.36737">
        <ele>1317</ele>
        <time>2021-08-09T10:56:49Z</time>
      </trkpt>
      <trkpt lat="44.35541" lon="6.36738">
        <ele>1317.8</ele>
        <time>2021-08-09T10:56:52Z</time>
      </trkpt>
      <trkpt lat="44.35537" lon="6.36741">
        <ele>1321</ele>
        <time>2021-08-09T10:57:34Z</time>
      </trkpt>
      <trkpt lat="44.35535" lon="6.36743">
        <ele>1321</ele>
        <time>2021-08-09T10:57:35Z</time>
      </trkpt>
      <trkpt lat="44.3553" lon="6.36745">
        <ele>1321</ele>
        <time>2021-08-09T10:57:39Z</time>
      </trkpt>
      <trkpt lat="44.35527" lon="6.36742">
        <ele>1320.8</ele>
        <time>2021-08-09T10:57:42Z</time>
      </trkpt>
      <trkpt lat="44.35529" lon="6.36737">
        <ele>1320.2</ele>
        <time>2021-08-09T10:57:44Z</time>
      </trkpt>
      <trkpt lat="44.35531" lon="6.36734">
        <ele>1319.8</ele>
        <time>2021-08-09T10:57:45Z</time>
      </trkpt>
      <trkpt lat="44.35537" lon="6.36721">
        <ele>1319.2</ele>
        <time>2021-08-09T10:57:48Z</time>
      </trkpt>
      <trkpt lat="44.35539" lon="6.36715">
        <ele>1319</ele>
        <time>2021-08-09T10:57:49Z</time>
      </trkpt>
      <trkpt lat="44.35545" lon="6.36703">
        <ele>1318.8</ele>
        <time>2021-08-09T10:57:51Z</time>
      </trkpt>
      <trkpt lat="44.35551" lon="6.36688">
        <ele>1318.6</ele>
        <time>2021-08-09T10:57:53Z</time>
      </trkpt>
      <trkpt lat="44.35553" lon="6.36679">
        <ele>1318.6</ele>
        <time>2021-08-09T10:57:54Z</time>
      </trkpt>
      <trkpt lat="44.35557" lon="6.36648">
        <ele>1318.2</ele>
        <time>2021-08-09T10:57:57Z</time>
      </trkpt>
      <trkpt lat="44.35559" lon="6.36627">
        <ele>1317.6</ele>
        <time>2021-08-09T10:57:59Z</time>
      </trkpt>
      <trkpt lat="44.35563" lon="6.36606">
        <ele>1316.6</ele>
        <time>2021-08-09T10:58:01Z</time>
      </trkpt>
      <trkpt lat="44.35572" lon="6.36587">
        <ele>1315.6</ele>
        <time>2021-08-09T10:58:03Z</time>
      </trkpt>
      <trkpt lat="44.35578" lon="6.36578">
        <ele>1315.2</ele>
        <time>2021-08-09T10:58:04Z</time>
      </trkpt>
      <trkpt lat="44.35586" lon="6.36571">
        <ele>1314</ele>
        <time>2021-08-09T10:58:05Z</time>
      </trkpt>
      <trkpt lat="44.35594" lon="6.36565">
        <ele>1313.6</ele>
        <time>2021-08-09T10:58:06Z</time>
      </trkpt>
      <trkpt lat="44.35611" lon="6.36554">
        <ele>1313</ele>
        <time>2021-08-09T10:58:08Z</time>
      </trkpt>
      <trkpt lat="44.35636" lon="6.36532">
        <ele>1311.4</ele>
        <time>2021-08-09T10:58:11Z</time>
      </trkpt>
      <trkpt lat="44.35648" lon="6.36515">
        <ele>1310</ele>
        <time>2021-08-09T10:58:13Z</time>
      </trkpt>
      <trkpt lat="44.35653" lon="6.36507">
        <ele>1309.2</ele>
        <time>2021-08-09T10:58:14Z</time>
      </trkpt>
      <trkpt lat="44.35657" lon="6.365">
        <ele>1308.6</ele>
        <time>2021-08-09T10:58:15Z</time>
      </trkpt>
      <trkpt lat="44.35659" lon="6.36494">
        <ele>1307.8</ele>
        <time>2021-08-09T10:58:16Z</time>
      </trkpt>
      <trkpt lat="44.35661" lon="6.3649">
        <ele>1307.4</ele>
        <time>2021-08-09T10:58:17Z</time>
      </trkpt>
      <trkpt lat="44.35664" lon="6.36484">
        <ele>1307</ele>
        <time>2021-08-09T10:58:21Z</time>
      </trkpt>
      <trkpt lat="44.35664" lon="6.36484">
        <ele>1307</ele>
        <time>2021-08-09T10:58:22Z</time>
      </trkpt>
      <trkpt lat="44.35664" lon="6.3648">
        <ele>1306.8</ele>
        <time>2021-08-09T10:59:15Z</time>
      </trkpt>
      <trkpt lat="44.35664" lon="6.36472">
        <ele>1306.8</ele>
        <time>2021-08-09T10:59:17Z</time>
      </trkpt>
      <trkpt lat="44.35664" lon="6.36467">
        <ele>1306.8</ele>
        <time>2021-08-09T10:59:20Z</time>
      </trkpt>
      <trkpt lat="44.35665" lon="6.36464">
        <ele>1306.8</ele>
        <time>2021-08-09T10:59:22Z</time>
      </trkpt>
      <trkpt lat="44.35672" lon="6.36458">
        <ele>1306.6</ele>
        <time>2021-08-09T10:59:25Z</time>
      </trkpt>
      <trkpt lat="44.35676" lon="6.36457">
        <ele>1306.6</ele>
        <time>2021-08-09T10:59:26Z</time>
      </trkpt>
      <trkpt lat="44.3568" lon="6.36455">
        <ele>1306.4</ele>
        <time>2021-08-09T10:59:27Z</time>
      </trkpt>
      <trkpt lat="44.35687" lon="6.36447">
        <ele>1305.8</ele>
        <time>2021-08-09T10:59:29Z</time>
      </trkpt>
      <trkpt lat="44.35691" lon="6.36443">
        <ele>1305.6</ele>
        <time>2021-08-09T10:59:30Z</time>
      </trkpt>
      <trkpt lat="44.35699" lon="6.36433">
        <ele>1305.6</ele>
        <time>2021-08-09T10:59:32Z</time>
      </trkpt>
      <trkpt lat="44.35709" lon="6.36414">
        <ele>1305.2</ele>
        <time>2021-08-09T10:59:35Z</time>
      </trkpt>
      <trkpt lat="44.35733" lon="6.36358">
        <ele>1305</ele>
        <time>2021-08-09T10:59:43Z</time>
      </trkpt>
      <trkpt lat="44.3576" lon="6.36309">
        <ele>1305.2</ele>
        <time>2021-08-09T10:59:50Z</time>
      </trkpt>
      <trkpt lat="44.35796" lon="6.36262">
        <ele>1305.4</ele>
        <time>2021-08-09T10:59:57Z</time>
      </trkpt>
      <trkpt lat="44.35819" lon="6.36237">
        <ele>1305</ele>
        <time>2021-08-09T11:00:01Z</time>
      </trkpt>
      <trkpt lat="44.35825" lon="6.36232">
        <ele>1304.6</ele>
        <time>2021-08-09T11:00:02Z</time>
      </trkpt>
      <trkpt lat="44.35839" lon="6.36223">
        <ele>1304</ele>
        <time>2021-08-09T11:00:04Z</time>
      </trkpt>
      <trkpt lat="44.3586" lon="6.36213">
        <ele>1303.2</ele>
        <time>2021-08-09T11:00:07Z</time>
      </trkpt>
      <trkpt lat="44.35875" lon="6.36209">
        <ele>1302.8</ele>
        <time>2021-08-09T11:00:09Z</time>
      </trkpt>
      <trkpt lat="44.35914" lon="6.36202">
        <ele>1302.2</ele>
        <time>2021-08-09T11:00:14Z</time>
      </trkpt>
      <trkpt lat="44.35947" lon="6.36195">
        <ele>1301.8</ele>
        <time>2021-08-09T11:00:18Z</time>
      </trkpt>
      <trkpt lat="44.35988" lon="6.36186">
        <ele>1300.8</ele>
        <time>2021-08-09T11:00:23Z</time>
      </trkpt>
      <trkpt lat="44.35996" lon="6.36185">
        <ele>1300.4</ele>
        <time>2021-08-09T11:00:24Z</time>
      </trkpt>
      <trkpt lat="44.36013" lon="6.3618">
        <ele>1299</ele>
        <time>2021-08-09T11:00:26Z</time>
      </trkpt>
      <trkpt lat="44.36029" lon="6.36174">
        <ele>1298</ele>
        <time>2021-08-09T11:00:28Z</time>
      </trkpt>
      <trkpt lat="44.36046" lon="6.36168">
        <ele>1297.8</ele>
        <time>2021-08-09T11:00:30Z</time>
      </trkpt>
      <trkpt lat="44.3607" lon="6.36157">
        <ele>1297</ele>
        <time>2021-08-09T11:00:33Z</time>
      </trkpt>
      <trkpt lat="44.36095" lon="6.36147">
        <ele>1295.8</ele>
        <time>2021-08-09T11:00:36Z</time>
      </trkpt>
      <trkpt lat="44.36111" lon="6.36139">
        <ele>1295.6</ele>
        <time>2021-08-09T11:00:38Z</time>
      </trkpt>
      <trkpt lat="44.36165" lon="6.36106">
        <ele>1295.2</ele>
        <time>2021-08-09T11:00:45Z</time>
      </trkpt>
      <trkpt lat="44.36187" lon="6.3609">
        <ele>1294.8</ele>
        <time>2021-08-09T11:00:48Z</time>
      </trkpt>
      <trkpt lat="44.36229" lon="6.36058">
        <ele>1294.2</ele>
        <time>2021-08-09T11:00:54Z</time>
      </trkpt>
      <trkpt lat="44.36252" lon="6.36047">
        <ele>1294</ele>
        <time>2021-08-09T11:00:57Z</time>
      </trkpt>
      <trkpt lat="44.3627" lon="6.36042">
        <ele>1293.8</ele>
        <time>2021-08-09T11:00:59Z</time>
      </trkpt>
      <trkpt lat="44.36307" lon="6.3604">
        <ele>1293</ele>
        <time>2021-08-09T11:01:03Z</time>
      </trkpt>
      <trkpt lat="44.36317" lon="6.3604">
        <ele>1292.8</ele>
        <time>2021-08-09T11:01:04Z</time>
      </trkpt>
      <trkpt lat="44.36346" lon="6.3604">
        <ele>1291.4</ele>
        <time>2021-08-09T11:01:07Z</time>
      </trkpt>
      <trkpt lat="44.36367" lon="6.36041">
        <ele>1290.2</ele>
        <time>2021-08-09T11:01:09Z</time>
      </trkpt>
      <trkpt lat="44.36388" lon="6.36041">
        <ele>1289.2</ele>
        <time>2021-08-09T11:01:11Z</time>
      </trkpt>
      <trkpt lat="44.36409" lon="6.36041">
        <ele>1288</ele>
        <time>2021-08-09T11:01:13Z</time>
      </trkpt>
      <trkpt lat="44.36431" lon="6.36042">
        <ele>1286.4</ele>
        <time>2021-08-09T11:01:15Z</time>
      </trkpt>
      <trkpt lat="44.36452" lon="6.36043">
        <ele>1284.8</ele>
        <time>2021-08-09T11:01:17Z</time>
      </trkpt>
      <trkpt lat="44.36473" lon="6.36045">
        <ele>1282.8</ele>
        <time>2021-08-09T11:01:19Z</time>
      </trkpt>
      <trkpt lat="44.36494" lon="6.36046">
        <ele>1281.2</ele>
        <time>2021-08-09T11:01:21Z</time>
      </trkpt>
      <trkpt lat="44.36505" lon="6.36047">
        <ele>1280</ele>
        <time>2021-08-09T11:01:22Z</time>
      </trkpt>
      <trkpt lat="44.36526" lon="6.36049">
        <ele>1278.4</ele>
        <time>2021-08-09T11:01:24Z</time>
      </trkpt>
      <trkpt lat="44.36547" lon="6.36051">
        <ele>1277</ele>
        <time>2021-08-09T11:01:26Z</time>
      </trkpt>
      <trkpt lat="44.36578" lon="6.36053">
        <ele>1275.8</ele>
        <time>2021-08-09T11:01:29Z</time>
      </trkpt>
      <trkpt lat="44.36608" lon="6.36047">
        <ele>1274.6</ele>
        <time>2021-08-09T11:01:32Z</time>
      </trkpt>
      <trkpt lat="44.36618" lon="6.36044">
        <ele>1274</ele>
        <time>2021-08-09T11:01:33Z</time>
      </trkpt>
      <trkpt lat="44.36628" lon="6.36042">
        <ele>1273.2</ele>
        <time>2021-08-09T11:01:34Z</time>
      </trkpt>
      <trkpt lat="44.36648" lon="6.36036">
        <ele>1272.2</ele>
        <time>2021-08-09T11:01:36Z</time>
      </trkpt>
      <trkpt lat="44.36678" lon="6.36028">
        <ele>1270.8</ele>
        <time>2021-08-09T11:01:39Z</time>
      </trkpt>
      <trkpt lat="44.36718" lon="6.36018">
        <ele>1270.2</ele>
        <time>2021-08-09T11:01:43Z</time>
      </trkpt>
      <trkpt lat="44.36762" lon="6.36005">
        <ele>1269.6</ele>
        <time>2021-08-09T11:01:48Z</time>
      </trkpt>
      <trkpt lat="44.3677" lon="6.36003">
        <ele>1269.2</ele>
        <time>2021-08-09T11:01:49Z</time>
      </trkpt>
      <trkpt lat="44.36809" lon="6.35995">
        <ele>1268.8</ele>
        <time>2021-08-09T11:01:55Z</time>
      </trkpt>
      <trkpt lat="44.36849" lon="6.35996">
        <ele>1270.4</ele>
        <time>2021-08-09T11:02:02Z</time>
      </trkpt>
      <trkpt lat="44.3686" lon="6.35996">
        <ele>1271</ele>
        <time>2021-08-09T11:02:04Z</time>
      </trkpt>
      <trkpt lat="44.36875" lon="6.35997">
        <ele>1272</ele>
        <time>2021-08-09T11:02:07Z</time>
      </trkpt>
      <trkpt lat="44.36889" lon="6.35996">
        <ele>1272.6</ele>
        <time>2021-08-09T11:02:10Z</time>
      </trkpt>
      <trkpt lat="44.36903" lon="6.35994">
        <ele>1273</ele>
        <time>2021-08-09T11:02:13Z</time>
      </trkpt>
      <trkpt lat="44.36912" lon="6.35992">
        <ele>1273.2</ele>
        <time>2021-08-09T11:02:15Z</time>
      </trkpt>
      <trkpt lat="44.36922" lon="6.3599">
        <ele>1273.2</ele>
        <time>2021-08-09T11:02:17Z</time>
      </trkpt>
      <trkpt lat="44.36945" lon="6.3598">
        <ele>1274.2</ele>
        <time>2021-08-09T11:02:22Z</time>
      </trkpt>
      <trkpt lat="44.36959" lon="6.35972">
        <ele>1274.4</ele>
        <time>2021-08-09T11:02:25Z</time>
      </trkpt>
      <trkpt lat="44.36976" lon="6.35958">
        <ele>1275.6</ele>
        <time>2021-08-09T11:02:29Z</time>
      </trkpt>
      <trkpt lat="44.36989" lon="6.35947">
        <ele>1276.6</ele>
        <time>2021-08-09T11:02:32Z</time>
      </trkpt>
      <trkpt lat="44.36997" lon="6.35938">
        <ele>1276.8</ele>
        <time>2021-08-09T11:02:34Z</time>
      </trkpt>
      <trkpt lat="44.37025" lon="6.35896">
        <ele>1277.6</ele>
        <time>2021-08-09T11:02:42Z</time>
      </trkpt>
      <trkpt lat="44.37032" lon="6.35885">
        <ele>1277.6</ele>
        <time>2021-08-09T11:02:44Z</time>
      </trkpt>
      <trkpt lat="44.37046" lon="6.35861">
        <ele>1277.8</ele>
        <time>2021-08-09T11:02:48Z</time>
      </trkpt>
      <trkpt lat="44.37065" lon="6.3583">
        <ele>1277.6</ele>
        <time>2021-08-09T11:02:53Z</time>
      </trkpt>
      <trkpt lat="44.37076" lon="6.35809">
        <ele>1277.6</ele>
        <time>2021-08-09T11:02:56Z</time>
      </trkpt>
      <trkpt lat="44.37089" lon="6.35789">
        <ele>1277.2</ele>
        <time>2021-08-09T11:02:59Z</time>
      </trkpt>
      <trkpt lat="44.37098" lon="6.35775">
        <ele>1276.2</ele>
        <time>2021-08-09T11:03:01Z</time>
      </trkpt>
      <trkpt lat="44.37113" lon="6.35755">
        <ele>1275.4</ele>
        <time>2021-08-09T11:03:04Z</time>
      </trkpt>
      <trkpt lat="44.3713" lon="6.35736">
        <ele>1275.2</ele>
        <time>2021-08-09T11:03:07Z</time>
      </trkpt>
      <trkpt lat="44.37163" lon="6.35705">
        <ele>1275</ele>
        <time>2021-08-09T11:03:13Z</time>
      </trkpt>
      <trkpt lat="44.3721" lon="6.35667">
        <ele>1275.2</ele>
        <time>2021-08-09T11:03:22Z</time>
      </trkpt>
      <trkpt lat="44.37214" lon="6.35662">
        <ele>1275.2</ele>
        <time>2021-08-09T11:03:23Z</time>
      </trkpt>
      <trkpt lat="44.37258" lon="6.35615">
        <ele>1275.2</ele>
        <time>2021-08-09T11:03:33Z</time>
      </trkpt>
      <trkpt lat="44.37294" lon="6.3556">
        <ele>1275.6</ele>
        <time>2021-08-09T11:03:43Z</time>
      </trkpt>
      <trkpt lat="44.37318" lon="6.3552">
        <ele>1276</ele>
        <time>2021-08-09T11:03:50Z</time>
      </trkpt>
      <trkpt lat="44.37354" lon="6.35477">
        <ele>1276.6</ele>
        <time>2021-08-09T11:03:58Z</time>
      </trkpt>
      <trkpt lat="44.37359" lon="6.35472">
        <ele>1276.8</ele>
        <time>2021-08-09T11:03:59Z</time>
      </trkpt>
      <trkpt lat="44.3739" lon="6.35446">
        <ele>1277.2</ele>
        <time>2021-08-09T11:04:05Z</time>
      </trkpt>
      <trkpt lat="44.37438" lon="6.3541">
        <ele>1277</ele>
        <time>2021-08-09T11:04:13Z</time>
      </trkpt>
      <trkpt lat="44.37445" lon="6.35405">
        <ele>1276.8</ele>
        <time>2021-08-09T11:04:14Z</time>
      </trkpt>
      <trkpt lat="44.37495" lon="6.35367">
        <ele>1276.6</ele>
        <time>2021-08-09T11:04:22Z</time>
      </trkpt>
      <trkpt lat="44.37507" lon="6.35357">
        <ele>1276.4</ele>
        <time>2021-08-09T11:04:24Z</time>
      </trkpt>
      <trkpt lat="44.3752" lon="6.35347">
        <ele>1276</ele>
        <time>2021-08-09T11:04:26Z</time>
      </trkpt>
      <trkpt lat="44.37558" lon="6.3532">
        <ele>1275.2</ele>
        <time>2021-08-09T11:04:32Z</time>
      </trkpt>
      <trkpt lat="44.3757" lon="6.35312">
        <ele>1275</ele>
        <time>2021-08-09T11:04:34Z</time>
      </trkpt>
      <trkpt lat="44.37605" lon="6.35291">
        <ele>1274.8</ele>
        <time>2021-08-09T11:04:40Z</time>
      </trkpt>
      <trkpt lat="44.37661" lon="6.35261">
        <ele>1275.8</ele>
        <time>2021-08-09T11:04:49Z</time>
      </trkpt>
      <trkpt lat="44.37674" lon="6.35254">
        <ele>1276.2</ele>
        <time>2021-08-09T11:04:51Z</time>
      </trkpt>
      <trkpt lat="44.37708" lon="6.35235">
        <ele>1276.2</ele>
        <time>2021-08-09T11:04:56Z</time>
      </trkpt>
      <trkpt lat="44.37761" lon="6.35205">
        <ele>1275.6</ele>
        <time>2021-08-09T11:05:03Z</time>
      </trkpt>
      <trkpt lat="44.37769" lon="6.352">
        <ele>1275.2</ele>
        <time>2021-08-09T11:05:04Z</time>
      </trkpt>
      <trkpt lat="44.37777" lon="6.35196">
        <ele>1274.8</ele>
        <time>2021-08-09T11:05:05Z</time>
      </trkpt>
      <trkpt lat="44.37803" lon="6.35186">
        <ele>1273.8</ele>
        <time>2021-08-09T11:05:08Z</time>
      </trkpt>
      <trkpt lat="44.37812" lon="6.35184">
        <ele>1273.6</ele>
        <time>2021-08-09T11:05:09Z</time>
      </trkpt>
      <trkpt lat="44.37839" lon="6.35184">
        <ele>1272.2</ele>
        <time>2021-08-09T11:05:12Z</time>
      </trkpt>
      <trkpt lat="44.37866" lon="6.35184">
        <ele>1271</ele>
        <time>2021-08-09T11:05:15Z</time>
      </trkpt>
      <trkpt lat="44.37875" lon="6.35184">
        <ele>1270.4</ele>
        <time>2021-08-09T11:05:16Z</time>
      </trkpt>
      <trkpt lat="44.37892" lon="6.35183">
        <ele>1269.8</ele>
        <time>2021-08-09T11:05:18Z</time>
      </trkpt>
      <trkpt lat="44.37918" lon="6.35183">
        <ele>1268.6</ele>
        <time>2021-08-09T11:05:21Z</time>
      </trkpt>
      <trkpt lat="44.37941" lon="6.35184">
        <ele>1268.2</ele>
        <time>2021-08-09T11:05:24Z</time>
      </trkpt>
      <trkpt lat="44.37981" lon="6.35184">
        <ele>1268.2</ele>
        <time>2021-08-09T11:05:30Z</time>
      </trkpt>
      <trkpt lat="44.38015" lon="6.35183">
        <ele>1270</ele>
        <time>2021-08-09T11:05:36Z</time>
      </trkpt>
      <trkpt lat="44.3802" lon="6.35183">
        <ele>1270.4</ele>
        <time>2021-08-09T11:05:37Z</time>
      </trkpt>
      <trkpt lat="44.38026" lon="6.35182">
        <ele>1270.8</ele>
        <time>2021-08-09T11:05:38Z</time>
      </trkpt>
      <trkpt lat="44.38031" lon="6.35181">
        <ele>1271</ele>
        <time>2021-08-09T11:05:39Z</time>
      </trkpt>
      <trkpt lat="44.38042" lon="6.35177">
        <ele>1272</ele>
        <time>2021-08-09T11:05:41Z</time>
      </trkpt>
      <trkpt lat="44.38047" lon="6.35174">
        <ele>1272.4</ele>
        <time>2021-08-09T11:05:42Z</time>
      </trkpt>
      <trkpt lat="44.38055" lon="6.35167">
        <ele>1272.8</ele>
        <time>2021-08-09T11:05:44Z</time>
      </trkpt>
      <trkpt lat="44.38066" lon="6.35156">
        <ele>1273.2</ele>
        <time>2021-08-09T11:05:47Z</time>
      </trkpt>
      <trkpt lat="44.38075" lon="6.3514">
        <ele>1273.6</ele>
        <time>2021-08-09T11:05:51Z</time>
      </trkpt>
      <trkpt lat="44.38079" lon="6.35131">
        <ele>1274</ele>
        <time>2021-08-09T11:05:53Z</time>
      </trkpt>
      <trkpt lat="44.3808" lon="6.35127">
        <ele>1274.4</ele>
        <time>2021-08-09T11:05:54Z</time>
      </trkpt>
      <trkpt lat="44.38086" lon="6.35108">
        <ele>1275.4</ele>
        <time>2021-08-09T11:05:59Z</time>
      </trkpt>
      <trkpt lat="44.38089" lon="6.35098">
        <ele>1276.2</ele>
        <time>2021-08-09T11:06:02Z</time>
      </trkpt>
      <trkpt lat="44.38091" lon="6.35091">
        <ele>1276.6</ele>
        <time>2021-08-09T11:06:04Z</time>
      </trkpt>
      <trkpt lat="44.38092" lon="6.3508">
        <ele>1277.6</ele>
        <time>2021-08-09T11:06:07Z</time>
      </trkpt>
      <trkpt lat="44.38095" lon="6.35066">
        <ele>1278.8</ele>
        <time>2021-08-09T11:06:11Z</time>
      </trkpt>
      <trkpt lat="44.38097" lon="6.35053">
        <ele>1279.8</ele>
        <time>2021-08-09T11:06:15Z</time>
      </trkpt>
      <trkpt lat="44.381" lon="6.35031">
        <ele>1281.2</ele>
        <time>2021-08-09T11:06:21Z</time>
      </trkpt>
      <trkpt lat="44.38104" lon="6.35007">
        <ele>1282.2</ele>
        <time>2021-08-09T11:06:28Z</time>
      </trkpt>
      <trkpt lat="44.38106" lon="6.35">
        <ele>1282.4</ele>
        <time>2021-08-09T11:06:30Z</time>
      </trkpt>
      <trkpt lat="44.38111" lon="6.34977">
        <ele>1283.4</ele>
        <time>2021-08-09T11:06:38Z</time>
      </trkpt>
      <trkpt lat="44.38114" lon="6.34962">
        <ele>1284.6</ele>
        <time>2021-08-09T11:06:44Z</time>
      </trkpt>
      <trkpt lat="44.38116" lon="6.34948">
        <ele>1286</ele>
        <time>2021-08-09T11:06:49Z</time>
      </trkpt>
      <trkpt lat="44.38117" lon="6.34946">
        <ele>1286.2</ele>
        <time>2021-08-09T11:06:50Z</time>
      </trkpt>
      <trkpt lat="44.38118" lon="6.34937">
        <ele>1287</ele>
        <time>2021-08-09T11:06:53Z</time>
      </trkpt>
      <trkpt lat="44.38119" lon="6.34922">
        <ele>1288.2</ele>
        <time>2021-08-09T11:06:58Z</time>
      </trkpt>
      <trkpt lat="44.3812" lon="6.34914">
        <ele>1288.6</ele>
        <time>2021-08-09T11:07:01Z</time>
      </trkpt>
      <trkpt lat="44.3812" lon="6.34908">
        <ele>1289.2</ele>
        <time>2021-08-09T11:07:03Z</time>
      </trkpt>
      <trkpt lat="44.38121" lon="6.34888">
        <ele>1290.2</ele>
        <time>2021-08-09T11:07:10Z</time>
      </trkpt>
      <trkpt lat="44.3812" lon="6.34879">
        <ele>1290.6</ele>
        <time>2021-08-09T11:07:13Z</time>
      </trkpt>
      <trkpt lat="44.3812" lon="6.34864">
        <ele>1291.4</ele>
        <time>2021-08-09T11:07:18Z</time>
      </trkpt>
      <trkpt lat="44.38119" lon="6.3485">
        <ele>1292.4</ele>
        <time>2021-08-09T11:07:23Z</time>
      </trkpt>
      <trkpt lat="44.38119" lon="6.34847">
        <ele>1292.6</ele>
        <time>2021-08-09T11:07:24Z</time>
      </trkpt>
      <trkpt lat="44.38121" lon="6.3483">
        <ele>1293.2</ele>
        <time>2021-08-09T11:07:30Z</time>
      </trkpt>
      <trkpt lat="44.38122" lon="6.34822">
        <ele>1294</ele>
        <time>2021-08-09T11:07:33Z</time>
      </trkpt>
      <trkpt lat="44.38126" lon="6.34811">
        <ele>1295.2</ele>
        <time>2021-08-09T11:07:37Z</time>
      </trkpt>
      <trkpt lat="44.38128" lon="6.34804">
        <ele>1295.4</ele>
        <time>2021-08-09T11:07:39Z</time>
      </trkpt>
      <trkpt lat="44.38136" lon="6.34787">
        <ele>1296.2</ele>
        <time>2021-08-09T11:07:44Z</time>
      </trkpt>
      <trkpt lat="44.38149" lon="6.34763">
        <ele>1297</ele>
        <time>2021-08-09T11:07:50Z</time>
      </trkpt>
      <trkpt lat="44.38169" lon="6.34732">
        <ele>1297</ele>
        <time>2021-08-09T11:07:55Z</time>
      </trkpt>
      <trkpt lat="44.38174" lon="6.34727">
        <ele>1297</ele>
        <time>2021-08-09T11:07:56Z</time>
      </trkpt>
      <trkpt lat="44.38191" lon="6.34714">
        <ele>1297</ele>
        <time>2021-08-09T11:07:59Z</time>
      </trkpt>
      <trkpt lat="44.38221" lon="6.34698">
        <ele>1294.8</ele>
        <time>2021-08-09T11:08:04Z</time>
      </trkpt>
      <trkpt lat="44.38233" lon="6.34693">
        <ele>1294.6</ele>
        <time>2021-08-09T11:08:06Z</time>
      </trkpt>
      <trkpt lat="44.38273" lon="6.34676">
        <ele>1294.4</ele>
        <time>2021-08-09T11:08:13Z</time>
      </trkpt>
      <trkpt lat="44.38311" lon="6.34658">
        <ele>1294.6</ele>
        <time>2021-08-09T11:08:19Z</time>
      </trkpt>
      <trkpt lat="44.38355" lon="6.34648">
        <ele>1294.6</ele>
        <time>2021-08-09T11:08:25Z</time>
      </trkpt>
      <trkpt lat="44.38402" lon="6.34644">
        <ele>1293.8</ele>
        <time>2021-08-09T11:08:31Z</time>
      </trkpt>
      <trkpt lat="44.38426" lon="6.34645">
        <ele>1292.2</ele>
        <time>2021-08-09T11:08:34Z</time>
      </trkpt>
      <trkpt lat="44.38448" lon="6.34648">
        <ele>1291</ele>
        <time>2021-08-09T11:08:37Z</time>
      </trkpt>
      <trkpt lat="44.3847" lon="6.34654">
        <ele>1290</ele>
        <time>2021-08-09T11:08:40Z</time>
      </trkpt>
      <trkpt lat="44.38476" lon="6.34656">
        <ele>1289.8</ele>
        <time>2021-08-09T11:08:41Z</time>
      </trkpt>
      <trkpt lat="44.38526" lon="6.34668">
        <ele>1288.8</ele>
        <time>2021-08-09T11:08:48Z</time>
      </trkpt>
      <trkpt lat="44.38533" lon="6.34669">
        <ele>1288.6</ele>
        <time>2021-08-09T11:08:49Z</time>
      </trkpt>
      <trkpt lat="44.38577" lon="6.34677">
        <ele>1288</ele>
        <time>2021-08-09T11:08:55Z</time>
      </trkpt>
      <trkpt lat="44.38623" lon="6.34692">
        <ele>1288.2</ele>
        <time>2021-08-09T11:09:02Z</time>
      </trkpt>
      <trkpt lat="44.38663" lon="6.34691">
        <ele>1288.2</ele>
        <time>2021-08-09T11:09:08Z</time>
      </trkpt>
      <trkpt lat="44.38706" lon="6.34702">
        <ele>1289</ele>
        <time>2021-08-09T11:09:15Z</time>
      </trkpt>
      <trkpt lat="44.38736" lon="6.34719">
        <ele>1289.2</ele>
        <time>2021-08-09T11:09:20Z</time>
      </trkpt>
      <trkpt lat="44.38742" lon="6.34723">
        <ele>1289.2</ele>
        <time>2021-08-09T11:09:21Z</time>
      </trkpt>
      <trkpt lat="44.3878" lon="6.34753">
        <ele>1289.2</ele>
        <time>2021-08-09T11:09:26Z</time>
      </trkpt>
      <trkpt lat="44.38809" lon="6.34788">
        <ele>1287.8</ele>
        <time>2021-08-09T11:09:30Z</time>
      </trkpt>
      <trkpt lat="44.38816" lon="6.34796">
        <ele>1287.4</ele>
        <time>2021-08-09T11:09:31Z</time>
      </trkpt>
      <trkpt lat="44.3883" lon="6.3481">
        <ele>1286</ele>
        <time>2021-08-09T11:09:33Z</time>
      </trkpt>
      <trkpt lat="44.38845" lon="6.34821">
        <ele>1283.8</ele>
        <time>2021-08-09T11:09:35Z</time>
      </trkpt>
      <trkpt lat="44.38861" lon="6.34829">
        <ele>1282.6</ele>
        <time>2021-08-09T11:09:37Z</time>
      </trkpt>
      <trkpt lat="44.38888" lon="6.34839">
        <ele>1282.2</ele>
        <time>2021-08-09T11:09:40Z</time>
      </trkpt>
      <trkpt lat="44.38926" lon="6.3485">
        <ele>1281.8</ele>
        <time>2021-08-09T11:09:44Z</time>
      </trkpt>
      <trkpt lat="44.38947" lon="6.34849">
        <ele>1281.2</ele>
        <time>2021-08-09T11:09:46Z</time>
      </trkpt>
      <trkpt lat="44.38966" lon="6.34847">
        <ele>1280.4</ele>
        <time>2021-08-09T11:09:48Z</time>
      </trkpt>
      <trkpt lat="44.38982" lon="6.34844">
        <ele>1280.2</ele>
        <time>2021-08-09T11:09:50Z</time>
      </trkpt>
      <trkpt lat="44.39014" lon="6.34838">
        <ele>1280</ele>
        <time>2021-08-09T11:09:55Z</time>
      </trkpt>
      <trkpt lat="44.39029" lon="6.34836">
        <ele>1282</ele>
        <time>2021-08-09T11:09:59Z</time>
      </trkpt>
      <trkpt lat="44.39035" lon="6.34835">
        <ele>1283.6</ele>
        <time>2021-08-09T11:10:01Z</time>
      </trkpt>
      <trkpt lat="44.39041" lon="6.34834">
        <ele>1285</ele>
        <time>2021-08-09T11:10:03Z</time>
      </trkpt>
      <trkpt lat="44.39048" lon="6.34833">
        <ele>1286.4</ele>
        <time>2021-08-09T11:10:05Z</time>
      </trkpt>
      <trkpt lat="44.39053" lon="6.34832">
        <ele>1287.6</ele>
        <time>2021-08-09T11:10:07Z</time>
      </trkpt>
      <trkpt lat="44.39056" lon="6.34832">
        <ele>1288.2</ele>
        <time>2021-08-09T11:10:08Z</time>
      </trkpt>
      <trkpt lat="44.39059" lon="6.34831">
        <ele>1288.6</ele>
        <time>2021-08-09T11:10:09Z</time>
      </trkpt>
      <trkpt lat="44.39064" lon="6.34831">
        <ele>1289.8</ele>
        <time>2021-08-09T11:10:11Z</time>
      </trkpt>
      <trkpt lat="44.39073" lon="6.3483">
        <ele>1290.8</ele>
        <time>2021-08-09T11:10:14Z</time>
      </trkpt>
      <trkpt lat="44.39078" lon="6.34829">
        <ele>1291.6</ele>
        <time>2021-08-09T11:10:16Z</time>
      </trkpt>
      <trkpt lat="44.39081" lon="6.34829">
        <ele>1291.8</ele>
        <time>2021-08-09T11:10:17Z</time>
      </trkpt>
      <trkpt lat="44.3909" lon="6.34827">
        <ele>1293</ele>
        <time>2021-08-09T11:10:20Z</time>
      </trkpt>
      <trkpt lat="44.39097" lon="6.34827">
        <ele>1294.2</ele>
        <time>2021-08-09T11:10:23Z</time>
      </trkpt>
      <trkpt lat="44.39102" lon="6.34826">
        <ele>1295</ele>
        <time>2021-08-09T11:10:25Z</time>
      </trkpt>
      <trkpt lat="44.39104" lon="6.34826">
        <ele>1295.2</ele>
        <time>2021-08-09T11:10:26Z</time>
      </trkpt>
      <trkpt lat="44.39115" lon="6.34826">
        <ele>1296.4</ele>
        <time>2021-08-09T11:10:31Z</time>
      </trkpt>
      <trkpt lat="44.39121" lon="6.34827">
        <ele>1296.8</ele>
        <time>2021-08-09T11:10:34Z</time>
      </trkpt>
      <trkpt lat="44.3913" lon="6.34829">
        <ele>1297.4</ele>
        <time>2021-08-09T11:10:39Z</time>
      </trkpt>
      <trkpt lat="44.39135" lon="6.34831">
        <ele>1297.6</ele>
        <time>2021-08-09T11:10:42Z</time>
      </trkpt>
      <trkpt lat="44.39151" lon="6.34837">
        <ele>1298.4</ele>
        <time>2021-08-09T11:10:51Z</time>
      </trkpt>
      <trkpt lat="44.39153" lon="6.34838">
        <ele>1298.4</ele>
        <time>2021-08-09T11:10:52Z</time>
      </trkpt>
      <trkpt lat="44.39168" lon="6.34843">
        <ele>1299.2</ele>
        <time>2021-08-09T11:11:00Z</time>
      </trkpt>
      <trkpt lat="44.39182" lon="6.34848">
        <ele>1299.8</ele>
        <time>2021-08-09T11:11:06Z</time>
      </trkpt>
      <trkpt lat="44.392" lon="6.34854">
        <ele>1300.4</ele>
        <time>2021-08-09T11:11:13Z</time>
      </trkpt>
      <trkpt lat="44.3921" lon="6.34855">
        <ele>1300.8</ele>
        <time>2021-08-09T11:11:17Z</time>
      </trkpt>
      <trkpt lat="44.39218" lon="6.34857">
        <ele>1301.2</ele>
        <time>2021-08-09T11:11:20Z</time>
      </trkpt>
      <trkpt lat="44.39229" lon="6.34859">
        <ele>1302</ele>
        <time>2021-08-09T11:11:23Z</time>
      </trkpt>
      <trkpt lat="44.3924" lon="6.34861">
        <ele>1302.4</ele>
        <time>2021-08-09T11:11:26Z</time>
      </trkpt>
      <trkpt lat="44.39252" lon="6.34864">
        <ele>1303</ele>
        <time>2021-08-09T11:11:29Z</time>
      </trkpt>
      <trkpt lat="44.39273" lon="6.34867">
        <ele>1303.4</ele>
        <time>2021-08-09T11:11:34Z</time>
      </trkpt>
      <trkpt lat="44.39297" lon="6.34877">
        <ele>1303.8</ele>
        <time>2021-08-09T11:11:40Z</time>
      </trkpt>
      <trkpt lat="44.39313" lon="6.34888">
        <ele>1304.2</ele>
        <time>2021-08-09T11:11:44Z</time>
      </trkpt>
      <trkpt lat="44.39324" lon="6.34895">
        <ele>1304.2</ele>
        <time>2021-08-09T11:11:47Z</time>
      </trkpt>
      <trkpt lat="44.39353" lon="6.34912">
        <ele>1304.8</ele>
        <time>2021-08-09T11:11:54Z</time>
      </trkpt>
      <trkpt lat="44.39365" lon="6.34919">
        <ele>1305.4</ele>
        <time>2021-08-09T11:11:57Z</time>
      </trkpt>
      <trkpt lat="44.39373" lon="6.34925">
        <ele>1305.6</ele>
        <time>2021-08-09T11:11:59Z</time>
      </trkpt>
      <trkpt lat="44.3938" lon="6.34933">
        <ele>1305.8</ele>
        <time>2021-08-09T11:12:01Z</time>
      </trkpt>
      <trkpt lat="44.39385" lon="6.34943">
        <ele>1306.4</ele>
        <time>2021-08-09T11:12:03Z</time>
      </trkpt>
      <trkpt lat="44.39391" lon="6.34959">
        <ele>1306.8</ele>
        <time>2021-08-09T11:12:06Z</time>
      </trkpt>
      <trkpt lat="44.39398" lon="6.34984">
        <ele>1307.2</ele>
        <time>2021-08-09T11:12:11Z</time>
      </trkpt>
      <trkpt lat="44.39399" lon="6.34989">
        <ele>1307.4</ele>
        <time>2021-08-09T11:12:12Z</time>
      </trkpt>
      <trkpt lat="44.39401" lon="6.34994">
        <ele>1307.6</ele>
        <time>2021-08-09T11:12:13Z</time>
      </trkpt>
      <trkpt lat="44.39408" lon="6.35011">
        <ele>1308.6</ele>
        <time>2021-08-09T11:12:17Z</time>
      </trkpt>
      <trkpt lat="44.39413" lon="6.35019">
        <ele>1309.6</ele>
        <time>2021-08-09T11:12:19Z</time>
      </trkpt>
      <trkpt lat="44.39415" lon="6.35023">
        <ele>1310</ele>
        <time>2021-08-09T11:12:20Z</time>
      </trkpt>
      <trkpt lat="44.39423" lon="6.3504">
        <ele>1310.8</ele>
        <time>2021-08-09T11:12:24Z</time>
      </trkpt>
      <trkpt lat="44.3943" lon="6.35058">
        <ele>1311.6</ele>
        <time>2021-08-09T11:12:28Z</time>
      </trkpt>
      <trkpt lat="44.39437" lon="6.35073">
        <ele>1312</ele>
        <time>2021-08-09T11:12:32Z</time>
      </trkpt>
      <trkpt lat="44.39444" lon="6.35078">
        <ele>1312.4</ele>
        <time>2021-08-09T11:12:34Z</time>
      </trkpt>
      <trkpt lat="44.39457" lon="6.35077">
        <ele>1313</ele>
        <time>2021-08-09T11:12:37Z</time>
      </trkpt>
      <trkpt lat="44.39462" lon="6.35075">
        <ele>1313.2</ele>
        <time>2021-08-09T11:12:38Z</time>
      </trkpt>
      <trkpt lat="44.39471" lon="6.3506">
        <ele>1313.4</ele>
        <time>2021-08-09T11:12:41Z</time>
      </trkpt>
      <trkpt lat="44.39474" lon="6.35047">
        <ele>1313.4</ele>
        <time>2021-08-09T11:12:43Z</time>
      </trkpt>
      <trkpt lat="44.39479" lon="6.35029">
        <ele>1313.4</ele>
        <time>2021-08-09T11:12:46Z</time>
      </trkpt>
      <trkpt lat="44.39481" lon="6.35024">
        <ele>1313.4</ele>
        <time>2021-08-09T11:12:47Z</time>
      </trkpt>
      <trkpt lat="44.39502" lon="6.34986">
        <ele>1312.8</ele>
        <time>2021-08-09T11:12:54Z</time>
      </trkpt>
      <trkpt lat="44.39544" lon="6.34943">
        <ele>1313</ele>
        <time>2021-08-09T11:13:04Z</time>
      </trkpt>
      <trkpt lat="44.39569" lon="6.34925">
        <ele>1313</ele>
        <time>2021-08-09T11:13:11Z</time>
      </trkpt>
      <trkpt lat="44.39585" lon="6.34915">
        <ele>1314.6</ele>
        <time>2021-08-09T11:13:16Z</time>
      </trkpt>
      <trkpt lat="44.39591" lon="6.34912">
        <ele>1315.4</ele>
        <time>2021-08-09T11:13:18Z</time>
      </trkpt>
      <trkpt lat="44.39598" lon="6.3491">
        <ele>1316</ele>
        <time>2021-08-09T11:13:20Z</time>
      </trkpt>
      <trkpt lat="44.39611" lon="6.34903">
        <ele>1317.2</ele>
        <time>2021-08-09T11:13:24Z</time>
      </trkpt>
      <trkpt lat="44.39618" lon="6.34899">
        <ele>1317.8</ele>
        <time>2021-08-09T11:13:26Z</time>
      </trkpt>
      <trkpt lat="44.39625" lon="6.34895">
        <ele>1318.2</ele>
        <time>2021-08-09T11:13:28Z</time>
      </trkpt>
      <trkpt lat="44.3964" lon="6.34885">
        <ele>1319.4</ele>
        <time>2021-08-09T11:13:33Z</time>
      </trkpt>
      <trkpt lat="44.39643" lon="6.34883">
        <ele>1319.4</ele>
        <time>2021-08-09T11:13:34Z</time>
      </trkpt>
      <trkpt lat="44.39663" lon="6.34875">
        <ele>1320.6</ele>
        <time>2021-08-09T11:13:42Z</time>
      </trkpt>
      <trkpt lat="44.39671" lon="6.34873">
        <ele>1321.6</ele>
        <time>2021-08-09T11:13:45Z</time>
      </trkpt>
      <trkpt lat="44.39682" lon="6.34869">
        <ele>1322.8</ele>
        <time>2021-08-09T11:13:50Z</time>
      </trkpt>
      <trkpt lat="44.39691" lon="6.34866">
        <ele>1324.2</ele>
        <time>2021-08-09T11:13:54Z</time>
      </trkpt>
      <trkpt lat="44.39703" lon="6.34861">
        <ele>1325.2</ele>
        <time>2021-08-09T11:13:59Z</time>
      </trkpt>
      <trkpt lat="44.39721" lon="6.34856">
        <ele>1326</ele>
        <time>2021-08-09T11:14:05Z</time>
      </trkpt>
      <trkpt lat="44.39726" lon="6.34855">
        <ele>1326.4</ele>
        <time>2021-08-09T11:14:07Z</time>
      </trkpt>
      <trkpt lat="44.39743" lon="6.34855">
        <ele>1327.4</ele>
        <time>2021-08-09T11:14:13Z</time>
      </trkpt>
      <trkpt lat="44.39746" lon="6.34856">
        <ele>1327.8</ele>
        <time>2021-08-09T11:14:14Z</time>
      </trkpt>
      <trkpt lat="44.39765" lon="6.34858">
        <ele>1328.8</ele>
        <time>2021-08-09T11:14:21Z</time>
      </trkpt>
      <trkpt lat="44.3977" lon="6.34859">
        <ele>1329</ele>
        <time>2021-08-09T11:14:23Z</time>
      </trkpt>
      <trkpt lat="44.39784" lon="6.34857">
        <ele>1330</ele>
        <time>2021-08-09T11:14:28Z</time>
      </trkpt>
      <trkpt lat="44.39797" lon="6.34854">
        <ele>1330.8</ele>
        <time>2021-08-09T11:14:33Z</time>
      </trkpt>
      <trkpt lat="44.39802" lon="6.34852">
        <ele>1331.2</ele>
        <time>2021-08-09T11:14:35Z</time>
      </trkpt>
      <trkpt lat="44.39816" lon="6.34847">
        <ele>1332</ele>
        <time>2021-08-09T11:14:41Z</time>
      </trkpt>
      <trkpt lat="44.39822" lon="6.34845">
        <ele>1332.2</ele>
        <time>2021-08-09T11:14:43Z</time>
      </trkpt>
      <trkpt lat="44.39839" lon="6.34839">
        <ele>1333.2</ele>
        <time>2021-08-09T11:14:50Z</time>
      </trkpt>
      <trkpt lat="44.39841" lon="6.34838">
        <ele>1333.4</ele>
        <time>2021-08-09T11:14:51Z</time>
      </trkpt>
      <trkpt lat="44.39852" lon="6.34835">
        <ele>1334.6</ele>
        <time>2021-08-09T11:14:56Z</time>
      </trkpt>
      <trkpt lat="44.39863" lon="6.34833">
        <ele>1335.6</ele>
        <time>2021-08-09T11:15:01Z</time>
      </trkpt>
      <trkpt lat="44.39875" lon="6.34832">
        <ele>1336.6</ele>
        <time>2021-08-09T11:15:07Z</time>
      </trkpt>
      <trkpt lat="44.39882" lon="6.34833">
        <ele>1337.8</ele>
        <time>2021-08-09T11:15:11Z</time>
      </trkpt>
      <trkpt lat="44.39894" lon="6.34835">
        <ele>1338.8</ele>
        <time>2021-08-09T11:15:17Z</time>
      </trkpt>
      <trkpt lat="44.39902" lon="6.34836">
        <ele>1339.8</ele>
        <time>2021-08-09T11:15:21Z</time>
      </trkpt>
      <trkpt lat="44.39904" lon="6.34836">
        <ele>1340</ele>
        <time>2021-08-09T11:15:22Z</time>
      </trkpt>
      <trkpt lat="44.39916" lon="6.34838">
        <ele>1341</ele>
        <time>2021-08-09T11:15:28Z</time>
      </trkpt>
      <trkpt lat="44.39922" lon="6.3484">
        <ele>1341.8</ele>
        <time>2021-08-09T11:15:31Z</time>
      </trkpt>
      <trkpt lat="44.39926" lon="6.34841">
        <ele>1342.4</ele>
        <time>2021-08-09T11:15:33Z</time>
      </trkpt>
      <trkpt lat="44.39937" lon="6.34846">
        <ele>1343.6</ele>
        <time>2021-08-09T11:15:39Z</time>
      </trkpt>
      <trkpt lat="44.39945" lon="6.34851">
        <ele>1344.2</ele>
        <time>2021-08-09T11:15:43Z</time>
      </trkpt>
      <trkpt lat="44.39955" lon="6.34856">
        <ele>1344.6</ele>
        <time>2021-08-09T11:15:48Z</time>
      </trkpt>
      <trkpt lat="44.39964" lon="6.34861">
        <ele>1345.8</ele>
        <time>2021-08-09T11:15:53Z</time>
      </trkpt>
      <trkpt lat="44.39967" lon="6.34862">
        <ele>1346</ele>
        <time>2021-08-09T11:15:54Z</time>
      </trkpt>
      <trkpt lat="44.39977" lon="6.34866">
        <ele>1346.8</ele>
        <time>2021-08-09T11:15:59Z</time>
      </trkpt>
      <trkpt lat="44.3999" lon="6.34871">
        <ele>1348</ele>
        <time>2021-08-09T11:16:05Z</time>
      </trkpt>
      <trkpt lat="44.40008" lon="6.34876">
        <ele>1349</ele>
        <time>2021-08-09T11:16:11Z</time>
      </trkpt>
      <trkpt lat="44.40018" lon="6.34879">
        <ele>1349</ele>
        <time>2021-08-09T11:16:14Z</time>
      </trkpt>
      <trkpt lat="44.40029" lon="6.34882">
        <ele>1349</ele>
        <time>2021-08-09T11:16:17Z</time>
      </trkpt>
      <trkpt lat="44.40064" lon="6.34892">
        <ele>1349</ele>
        <time>2021-08-09T11:16:26Z</time>
      </trkpt>
      <trkpt lat="44.40103" lon="6.34896">
        <ele>1349.8</ele>
        <time>2021-08-09T11:16:36Z</time>
      </trkpt>
      <trkpt lat="44.4011" lon="6.34894">
        <ele>1350.2</ele>
        <time>2021-08-09T11:16:38Z</time>
      </trkpt>
      <trkpt lat="44.40131" lon="6.34887">
        <ele>1351.2</ele>
        <time>2021-08-09T11:16:43Z</time>
      </trkpt>
      <trkpt lat="44.40139" lon="6.34884">
        <ele>1351.8</ele>
        <time>2021-08-09T11:16:45Z</time>
      </trkpt>
      <trkpt lat="44.40157" lon="6.34879">
        <ele>1352.2</ele>
        <time>2021-08-09T11:16:49Z</time>
      </trkpt>
      <trkpt lat="44.40165" lon="6.34876">
        <ele>1352.4</ele>
        <time>2021-08-09T11:16:51Z</time>
      </trkpt>
      <trkpt lat="44.40195" lon="6.34863">
        <ele>1352.4</ele>
        <time>2021-08-09T11:16:57Z</time>
      </trkpt>
      <trkpt lat="44.40226" lon="6.34843">
        <ele>1352.2</ele>
        <time>2021-08-09T11:17:04Z</time>
      </trkpt>
      <trkpt lat="44.40253" lon="6.34827">
        <ele>1351.4</ele>
        <time>2021-08-09T11:17:11Z</time>
      </trkpt>
      <trkpt lat="44.40286" lon="6.3482">
        <ele>1351.8</ele>
        <time>2021-08-09T11:17:18Z</time>
      </trkpt>
      <trkpt lat="44.40323" lon="6.34814">
        <ele>1352.6</ele>
        <time>2021-08-09T11:17:26Z</time>
      </trkpt>
      <trkpt lat="44.40356" lon="6.34812">
        <ele>1352.8</ele>
        <time>2021-08-09T11:17:33Z</time>
      </trkpt>
      <trkpt lat="44.40394" lon="6.34818">
        <ele>1353.4</ele>
        <time>2021-08-09T11:17:41Z</time>
      </trkpt>
      <trkpt lat="44.40399" lon="6.3482">
        <ele>1353.6</ele>
        <time>2021-08-09T11:17:42Z</time>
      </trkpt>
      <trkpt lat="44.40435" lon="6.34822">
        <ele>1354.2</ele>
        <time>2021-08-09T11:17:50Z</time>
      </trkpt>
      <trkpt lat="44.40443" lon="6.34819">
        <ele>1354.6</ele>
        <time>2021-08-09T11:17:52Z</time>
      </trkpt>
      <trkpt lat="44.40451" lon="6.34815">
        <ele>1355</ele>
        <time>2021-08-09T11:17:54Z</time>
      </trkpt>
      <trkpt lat="44.40468" lon="6.34807">
        <ele>1355.2</ele>
        <time>2021-08-09T11:17:57Z</time>
      </trkpt>
      <trkpt lat="44.40475" lon="6.34805">
        <ele>1355.2</ele>
        <time>2021-08-09T11:17:58Z</time>
      </trkpt>
      <trkpt lat="44.405" lon="6.34805">
        <ele>1355.2</ele>
        <time>2021-08-09T11:18:01Z</time>
      </trkpt>
      <trkpt lat="44.40509" lon="6.34806">
        <ele>1355.2</ele>
        <time>2021-08-09T11:18:02Z</time>
      </trkpt>
      <trkpt lat="44.40519" lon="6.34808">
        <ele>1355.2</ele>
        <time>2021-08-09T11:18:03Z</time>
      </trkpt>
      <trkpt lat="44.40537" lon="6.34818">
        <ele>1354.2</ele>
        <time>2021-08-09T11:18:05Z</time>
      </trkpt>
      <trkpt lat="44.40546" lon="6.34823">
        <ele>1353.6</ele>
        <time>2021-08-09T11:18:06Z</time>
      </trkpt>
      <trkpt lat="44.40555" lon="6.34829">
        <ele>1352.8</ele>
        <time>2021-08-09T11:18:07Z</time>
      </trkpt>
      <trkpt lat="44.40565" lon="6.34834">
        <ele>1352</ele>
        <time>2021-08-09T11:18:08Z</time>
      </trkpt>
      <trkpt lat="44.40585" lon="6.34845">
        <ele>1350</ele>
        <time>2021-08-09T11:18:10Z</time>
      </trkpt>
      <trkpt lat="44.40605" lon="6.34856">
        <ele>1348.4</ele>
        <time>2021-08-09T11:18:12Z</time>
      </trkpt>
      <trkpt lat="44.40626" lon="6.34868">
        <ele>1346.2</ele>
        <time>2021-08-09T11:18:14Z</time>
      </trkpt>
      <trkpt lat="44.40636" lon="6.34874">
        <ele>1345</ele>
        <time>2021-08-09T11:18:15Z</time>
      </trkpt>
      <trkpt lat="44.40647" lon="6.3488">
        <ele>1344</ele>
        <time>2021-08-09T11:18:16Z</time>
      </trkpt>
      <trkpt lat="44.40658" lon="6.34887">
        <ele>1343.2</ele>
        <time>2021-08-09T11:18:17Z</time>
      </trkpt>
      <trkpt lat="44.40668" lon="6.34894">
        <ele>1342.4</ele>
        <time>2021-08-09T11:18:18Z</time>
      </trkpt>
      <trkpt lat="44.40689" lon="6.34912">
        <ele>1340.8</ele>
        <time>2021-08-09T11:18:20Z</time>
      </trkpt>
      <trkpt lat="44.40698" lon="6.34922">
        <ele>1340.2</ele>
        <time>2021-08-09T11:18:21Z</time>
      </trkpt>
      <trkpt lat="44.40707" lon="6.34933">
        <ele>1339.8</ele>
        <time>2021-08-09T11:18:22Z</time>
      </trkpt>
      <trkpt lat="44.40724" lon="6.34957">
        <ele>1338.6</ele>
        <time>2021-08-09T11:18:24Z</time>
      </trkpt>
      <trkpt lat="44.4074" lon="6.34982">
        <ele>1337</ele>
        <time>2021-08-09T11:18:26Z</time>
      </trkpt>
      <trkpt lat="44.40754" lon="6.35009">
        <ele>1335.4</ele>
        <time>2021-08-09T11:18:28Z</time>
      </trkpt>
      <trkpt lat="44.40768" lon="6.35034">
        <ele>1333.4</ele>
        <time>2021-08-09T11:18:30Z</time>
      </trkpt>
      <trkpt lat="44.40777" lon="6.35044">
        <ele>1332.4</ele>
        <time>2021-08-09T11:18:31Z</time>
      </trkpt>
      <trkpt lat="44.40786" lon="6.35054">
        <ele>1331.2</ele>
        <time>2021-08-09T11:18:32Z</time>
      </trkpt>
      <trkpt lat="44.40805" lon="6.35069">
        <ele>1330</ele>
        <time>2021-08-09T11:18:34Z</time>
      </trkpt>
      <trkpt lat="44.40824" lon="6.35085">
        <ele>1328.6</ele>
        <time>2021-08-09T11:18:36Z</time>
      </trkpt>
      <trkpt lat="44.40842" lon="6.35106">
        <ele>1327.6</ele>
        <time>2021-08-09T11:18:38Z</time>
      </trkpt>
      <trkpt lat="44.40851" lon="6.35115">
        <ele>1327.2</ele>
        <time>2021-08-09T11:18:39Z</time>
      </trkpt>
      <trkpt lat="44.40872" lon="6.35127">
        <ele>1326.8</ele>
        <time>2021-08-09T11:18:41Z</time>
      </trkpt>
      <trkpt lat="44.40883" lon="6.35131">
        <ele>1326.4</ele>
        <time>2021-08-09T11:18:42Z</time>
      </trkpt>
      <trkpt lat="44.40904" lon="6.35136">
        <ele>1325.2</ele>
        <time>2021-08-09T11:18:44Z</time>
      </trkpt>
      <trkpt lat="44.40914" lon="6.35138">
        <ele>1324.6</ele>
        <time>2021-08-09T11:18:45Z</time>
      </trkpt>
      <trkpt lat="44.40923" lon="6.35138">
        <ele>1323.8</ele>
        <time>2021-08-09T11:18:46Z</time>
      </trkpt>
      <trkpt lat="44.40941" lon="6.35134">
        <ele>1322.2</ele>
        <time>2021-08-09T11:18:48Z</time>
      </trkpt>
      <trkpt lat="44.40964" lon="6.35112">
        <ele>1320.8</ele>
        <time>2021-08-09T11:18:51Z</time>
      </trkpt>
      <trkpt lat="44.40998" lon="6.35064">
        <ele>1320</ele>
        <time>2021-08-09T11:18:56Z</time>
      </trkpt>
      <trkpt lat="44.41006" lon="6.35056">
        <ele>1319.6</ele>
        <time>2021-08-09T11:18:57Z</time>
      </trkpt>
      <trkpt lat="44.41023" lon="6.35045">
        <ele>1318.2</ele>
        <time>2021-08-09T11:18:59Z</time>
      </trkpt>
      <trkpt lat="44.41032" lon="6.35043">
        <ele>1317</ele>
        <time>2021-08-09T11:19:00Z</time>
      </trkpt>
      <trkpt lat="44.41041" lon="6.35043">
        <ele>1315</ele>
        <time>2021-08-09T11:19:01Z</time>
      </trkpt>
      <trkpt lat="44.41058" lon="6.35045">
        <ele>1313.8</ele>
        <time>2021-08-09T11:19:03Z</time>
      </trkpt>
      <trkpt lat="44.41085" lon="6.35049">
        <ele>1313.2</ele>
        <time>2021-08-09T11:19:07Z</time>
      </trkpt>
      <trkpt lat="44.41113" lon="6.35047">
        <ele>1313.6</ele>
        <time>2021-08-09T11:19:13Z</time>
      </trkpt>
      <trkpt lat="44.41124" lon="6.35045">
        <ele>1315</ele>
        <time>2021-08-09T11:19:16Z</time>
      </trkpt>
      <trkpt lat="44.41132" lon="6.35043">
        <ele>1316.4</ele>
        <time>2021-08-09T11:19:19Z</time>
      </trkpt>
      <trkpt lat="44.41141" lon="6.35037">
        <ele>1317.6</ele>
        <time>2021-08-09T11:19:25Z</time>
      </trkpt>
      <trkpt lat="44.41141" lon="6.35037">
        <ele>1317.6</ele>
        <time>2021-08-09T11:19:26Z</time>
      </trkpt>
      <trkpt lat="44.41142" lon="6.35035">
        <ele>1318.6</ele>
        <time>2021-08-09T11:19:41Z</time>
      </trkpt>
      <trkpt lat="44.41144" lon="6.35031">
        <ele>1318.6</ele>
        <time>2021-08-09T11:19:43Z</time>
      </trkpt>
      <trkpt lat="44.41154" lon="6.35007">
        <ele>1318.4</ele>
        <time>2021-08-09T11:19:49Z</time>
      </trkpt>
      <trkpt lat="44.4116" lon="6.3499">
        <ele>1318.4</ele>
        <time>2021-08-09T11:19:54Z</time>
      </trkpt>
      <trkpt lat="44.41168" lon="6.34965">
        <ele>1318.8</ele>
        <time>2021-08-09T11:19:59Z</time>
      </trkpt>
      <trkpt lat="44.41172" lon="6.34953">
        <ele>1319</ele>
        <time>2021-08-09T11:20:01Z</time>
      </trkpt>
      <trkpt lat="44.41179" lon="6.34936">
        <ele>1319</ele>
        <time>2021-08-09T11:20:04Z</time>
      </trkpt>
      <trkpt lat="44.41187" lon="6.34926">
        <ele>1319.2</ele>
        <time>2021-08-09T11:20:06Z</time>
      </trkpt>
      <trkpt lat="44.41209" lon="6.34918">
        <ele>1319.2</ele>
        <time>2021-08-09T11:20:10Z</time>
      </trkpt>
      <trkpt lat="44.41221" lon="6.34919">
        <ele>1319</ele>
        <time>2021-08-09T11:20:12Z</time>
      </trkpt>
      <trkpt lat="44.41245" lon="6.34926">
        <ele>1318.8</ele>
        <time>2021-08-09T11:20:16Z</time>
      </trkpt>
      <trkpt lat="44.4125" lon="6.34928">
        <ele>1318.8</ele>
        <time>2021-08-09T11:20:17Z</time>
      </trkpt>
      <trkpt lat="44.41273" lon="6.34944">
        <ele>1318.2</ele>
        <time>2021-08-09T11:20:21Z</time>
      </trkpt>
      <trkpt lat="44.41291" lon="6.34956">
        <ele>1317.6</ele>
        <time>2021-08-09T11:20:24Z</time>
      </trkpt>
      <trkpt lat="44.41322" lon="6.34978">
        <ele>1316.6</ele>
        <time>2021-08-09T11:20:29Z</time>
      </trkpt>
      <trkpt lat="44.41328" lon="6.34983">
        <ele>1316.4</ele>
        <time>2021-08-09T11:20:30Z</time>
      </trkpt>
      <trkpt lat="44.41334" lon="6.34989">
        <ele>1316.2</ele>
        <time>2021-08-09T11:20:31Z</time>
      </trkpt>
      <trkpt lat="44.41346" lon="6.3501">
        <ele>1316</ele>
        <time>2021-08-09T11:20:34Z</time>
      </trkpt>
      <trkpt lat="44.41352" lon="6.35032">
        <ele>1316</ele>
        <time>2021-08-09T11:20:37Z</time>
      </trkpt>
      <trkpt lat="44.41354" lon="6.35039">
        <ele>1316</ele>
        <time>2021-08-09T11:20:38Z</time>
      </trkpt>
      <trkpt lat="44.4136" lon="6.35069">
        <ele>1316</ele>
        <time>2021-08-09T11:20:43Z</time>
      </trkpt>
      <trkpt lat="44.41362" lon="6.35074">
        <ele>1316.2</ele>
        <time>2021-08-09T11:20:44Z</time>
      </trkpt>
      <trkpt lat="44.41368" lon="6.35093">
        <ele>1317.8</ele>
        <time>2021-08-09T11:20:48Z</time>
      </trkpt>
      <trkpt lat="44.41375" lon="6.35104">
        <ele>1318.6</ele>
        <time>2021-08-09T11:20:51Z</time>
      </trkpt>
      <trkpt lat="44.41378" lon="6.35107">
        <ele>1319.4</ele>
        <time>2021-08-09T11:20:52Z</time>
      </trkpt>
      <trkpt lat="44.41392" lon="6.35114">
        <ele>1320.6</ele>
        <time>2021-08-09T11:20:56Z</time>
      </trkpt>
      <trkpt lat="44.41396" lon="6.35115">
        <ele>1320.8</ele>
        <time>2021-08-09T11:20:57Z</time>
      </trkpt>
      <trkpt lat="44.4142" lon="6.35121">
        <ele>1321.8</ele>
        <time>2021-08-09T11:21:03Z</time>
      </trkpt>
      <trkpt lat="44.41424" lon="6.35122">
        <ele>1322</ele>
        <time>2021-08-09T11:21:04Z</time>
      </trkpt>
      <trkpt lat="44.41441" lon="6.35125">
        <ele>1322.8</ele>
        <time>2021-08-09T11:21:08Z</time>
      </trkpt>
      <trkpt lat="44.41461" lon="6.35126">
        <ele>1323.4</ele>
        <time>2021-08-09T11:21:13Z</time>
      </trkpt>
      <trkpt lat="44.41487" lon="6.35125">
        <ele>1324.2</ele>
        <time>2021-08-09T11:21:20Z</time>
      </trkpt>
      <trkpt lat="44.41491" lon="6.35125">
        <ele>1324.4</ele>
        <time>2021-08-09T11:21:21Z</time>
      </trkpt>
      <trkpt lat="44.41515" lon="6.35128">
        <ele>1324.6</ele>
        <time>2021-08-09T11:21:26Z</time>
      </trkpt>
      <trkpt lat="44.41519" lon="6.35128">
        <ele>1324.6</ele>
        <time>2021-08-09T11:21:27Z</time>
      </trkpt>
      <trkpt lat="44.41529" lon="6.35129">
        <ele>1324.8</ele>
        <time>2021-08-09T11:21:29Z</time>
      </trkpt>
      <trkpt lat="44.41538" lon="6.35132">
        <ele>1324.4</ele>
        <time>2021-08-09T11:21:31Z</time>
      </trkpt>
      <trkpt lat="44.41553" lon="6.35137">
        <ele>1324.2</ele>
        <time>2021-08-09T11:21:34Z</time>
      </trkpt>
      <trkpt lat="44.41567" lon="6.35148">
        <ele>1323.6</ele>
        <time>2021-08-09T11:21:37Z</time>
      </trkpt>
      <trkpt lat="44.41579" lon="6.3516">
        <ele>1323.4</ele>
        <time>2021-08-09T11:21:40Z</time>
      </trkpt>
      <trkpt lat="44.41597" lon="6.35175">
        <ele>1322.6</ele>
        <time>2021-08-09T11:21:44Z</time>
      </trkpt>
      <trkpt lat="44.41601" lon="6.35178">
        <ele>1322.4</ele>
        <time>2021-08-09T11:21:45Z</time>
      </trkpt>
      <trkpt lat="44.41617" lon="6.35183">
        <ele>1322.2</ele>
        <time>2021-08-09T11:21:48Z</time>
      </trkpt>
      <trkpt lat="44.41623" lon="6.35184">
        <ele>1322</ele>
        <time>2021-08-09T11:21:49Z</time>
      </trkpt>
      <trkpt lat="44.41669" lon="6.35187">
        <ele>1321.8</ele>
        <time>2021-08-09T11:21:57Z</time>
      </trkpt>
      <trkpt lat="44.4171" lon="6.35189">
        <ele>1322</ele>
        <time>2021-08-09T11:22:04Z</time>
      </trkpt>
      <trkpt lat="44.41721" lon="6.35193">
        <ele>1322.2</ele>
        <time>2021-08-09T11:22:06Z</time>
      </trkpt>
      <trkpt lat="44.41759" lon="6.3521">
        <ele>1322.4</ele>
        <time>2021-08-09T11:22:12Z</time>
      </trkpt>
      <trkpt lat="44.41807" lon="6.35238">
        <ele>1321.2</ele>
        <time>2021-08-09T11:22:19Z</time>
      </trkpt>
      <trkpt lat="44.4182" lon="6.35248">
        <ele>1320.6</ele>
        <time>2021-08-09T11:22:21Z</time>
      </trkpt>
      <trkpt lat="44.41834" lon="6.35256">
        <ele>1319.8</ele>
        <time>2021-08-09T11:22:23Z</time>
      </trkpt>
      <trkpt lat="44.41889" lon="6.35293">
        <ele>1319</ele>
        <time>2021-08-09T11:22:31Z</time>
      </trkpt>
      <trkpt lat="44.41915" lon="6.3532">
        <ele>1318.8</ele>
        <time>2021-08-09T11:22:35Z</time>
      </trkpt>
      <trkpt lat="44.41921" lon="6.35329">
        <ele>1318.8</ele>
        <time>2021-08-09T11:22:36Z</time>
      </trkpt>
      <trkpt lat="44.41938" lon="6.35357">
        <ele>1318.4</ele>
        <time>2021-08-09T11:22:39Z</time>
      </trkpt>
      <trkpt lat="44.41944" lon="6.35366">
        <ele>1318.2</ele>
        <time>2021-08-09T11:22:40Z</time>
      </trkpt>
      <trkpt lat="44.4196" lon="6.35381">
        <ele>1317.8</ele>
        <time>2021-08-09T11:22:42Z</time>
      </trkpt>
      <trkpt lat="44.41976" lon="6.35394">
        <ele>1317.4</ele>
        <time>2021-08-09T11:22:44Z</time>
      </trkpt>
      <trkpt lat="44.41985" lon="6.35399">
        <ele>1317.2</ele>
        <time>2021-08-09T11:22:45Z</time>
      </trkpt>
      <trkpt lat="44.42003" lon="6.35403">
        <ele>1316.6</ele>
        <time>2021-08-09T11:22:47Z</time>
      </trkpt>
      <trkpt lat="44.42022" lon="6.35404">
        <ele>1315.2</ele>
        <time>2021-08-09T11:22:49Z</time>
      </trkpt>
      <trkpt lat="44.42041" lon="6.35408">
        <ele>1313.6</ele>
        <time>2021-08-09T11:22:51Z</time>
      </trkpt>
      <trkpt lat="44.4205" lon="6.35412">
        <ele>1312.8</ele>
        <time>2021-08-09T11:22:52Z</time>
      </trkpt>
      <trkpt lat="44.42059" lon="6.35417">
        <ele>1312.2</ele>
        <time>2021-08-09T11:22:53Z</time>
      </trkpt>
      <trkpt lat="44.42083" lon="6.35439">
        <ele>1311</ele>
        <time>2021-08-09T11:22:56Z</time>
      </trkpt>
      <trkpt lat="44.42091" lon="6.35449">
        <ele>1310.6</ele>
        <time>2021-08-09T11:22:57Z</time>
      </trkpt>
      <trkpt lat="44.42099" lon="6.35457">
        <ele>1310</ele>
        <time>2021-08-09T11:22:58Z</time>
      </trkpt>
      <trkpt lat="44.42107" lon="6.35465">
        <ele>1309.4</ele>
        <time>2021-08-09T11:22:59Z</time>
      </trkpt>
      <trkpt lat="44.42116" lon="6.35471">
        <ele>1308.8</ele>
        <time>2021-08-09T11:23:00Z</time>
      </trkpt>
      <trkpt lat="44.42126" lon="6.35475">
        <ele>1308.4</ele>
        <time>2021-08-09T11:23:01Z</time>
      </trkpt>
      <trkpt lat="44.42135" lon="6.35478">
        <ele>1307.6</ele>
        <time>2021-08-09T11:23:02Z</time>
      </trkpt>
      <trkpt lat="44.42144" lon="6.35481">
        <ele>1307.2</ele>
        <time>2021-08-09T11:23:03Z</time>
      </trkpt>
      <trkpt lat="44.42162" lon="6.35486">
        <ele>1306.6</ele>
        <time>2021-08-09T11:23:05Z</time>
      </trkpt>
      <trkpt lat="44.42171" lon="6.35489">
        <ele>1306.4</ele>
        <time>2021-08-09T11:23:06Z</time>
      </trkpt>
      <trkpt lat="44.4218" lon="6.35493">
        <ele>1306</ele>
        <time>2021-08-09T11:23:07Z</time>
      </trkpt>
      <trkpt lat="44.42189" lon="6.35498">
        <ele>1305.2</ele>
        <time>2021-08-09T11:23:08Z</time>
      </trkpt>
      <trkpt lat="44.42198" lon="6.35505">
        <ele>1304.4</ele>
        <time>2021-08-09T11:23:09Z</time>
      </trkpt>
      <trkpt lat="44.42207" lon="6.35513">
        <ele>1304</ele>
        <time>2021-08-09T11:23:10Z</time>
      </trkpt>
      <trkpt lat="44.42223" lon="6.35531">
        <ele>1303.4</ele>
        <time>2021-08-09T11:23:12Z</time>
      </trkpt>
      <trkpt lat="44.42232" lon="6.35539">
        <ele>1303.2</ele>
        <time>2021-08-09T11:23:13Z</time>
      </trkpt>
      <trkpt lat="44.42253" lon="6.35552">
        <ele>1302.6</ele>
        <time>2021-08-09T11:23:15Z</time>
      </trkpt>
      <trkpt lat="44.42264" lon="6.35555">
        <ele>1302</ele>
        <time>2021-08-09T11:23:16Z</time>
      </trkpt>
      <trkpt lat="44.42275" lon="6.35557">
        <ele>1301.6</ele>
        <time>2021-08-09T11:23:17Z</time>
      </trkpt>
      <trkpt lat="44.42287" lon="6.35559">
        <ele>1301</ele>
        <time>2021-08-09T11:23:18Z</time>
      </trkpt>
      <trkpt lat="44.42299" lon="6.35561">
        <ele>1300.6</ele>
        <time>2021-08-09T11:23:19Z</time>
      </trkpt>
      <trkpt lat="44.4231" lon="6.35565">
        <ele>1300.2</ele>
        <time>2021-08-09T11:23:20Z</time>
      </trkpt>
      <trkpt lat="44.42332" lon="6.35576">
        <ele>1299.2</ele>
        <time>2021-08-09T11:23:22Z</time>
      </trkpt>
      <trkpt lat="44.42367" lon="6.35592">
        <ele>1297.6</ele>
        <time>2021-08-09T11:23:25Z</time>
      </trkpt>
      <trkpt lat="44.42393" lon="6.35596">
        <ele>1296.2</ele>
        <time>2021-08-09T11:23:27Z</time>
      </trkpt>
      <trkpt lat="44.42406" lon="6.35596">
        <ele>1295.4</ele>
        <time>2021-08-09T11:23:28Z</time>
      </trkpt>
      <trkpt lat="44.42418" lon="6.35595">
        <ele>1294.6</ele>
        <time>2021-08-09T11:23:29Z</time>
      </trkpt>
      <trkpt lat="44.42444" lon="6.35593">
        <ele>1292.8</ele>
        <time>2021-08-09T11:23:31Z</time>
      </trkpt>
      <trkpt lat="44.4247" lon="6.35591">
        <ele>1291.6</ele>
        <time>2021-08-09T11:23:33Z</time>
      </trkpt>
      <trkpt lat="44.42496" lon="6.35591">
        <ele>1289.4</ele>
        <time>2021-08-09T11:23:35Z</time>
      </trkpt>
      <trkpt lat="44.42509" lon="6.35591">
        <ele>1288.2</ele>
        <time>2021-08-09T11:23:36Z</time>
      </trkpt>
      <trkpt lat="44.42521" lon="6.35592">
        <ele>1287</ele>
        <time>2021-08-09T11:23:37Z</time>
      </trkpt>
      <trkpt lat="44.42546" lon="6.35594">
        <ele>1285.4</ele>
        <time>2021-08-09T11:23:39Z</time>
      </trkpt>
      <trkpt lat="44.42584" lon="6.35597">
        <ele>1284</ele>
        <time>2021-08-09T11:23:42Z</time>
      </trkpt>
      <trkpt lat="44.42596" lon="6.35598">
        <ele>1283.6</ele>
        <time>2021-08-09T11:23:43Z</time>
      </trkpt>
      <trkpt lat="44.42622" lon="6.35601">
        <ele>1282.4</ele>
        <time>2021-08-09T11:23:45Z</time>
      </trkpt>
      <trkpt lat="44.42647" lon="6.35604">
        <ele>1281</ele>
        <time>2021-08-09T11:23:47Z</time>
      </trkpt>
      <trkpt lat="44.4266" lon="6.35607">
        <ele>1280.2</ele>
        <time>2021-08-09T11:23:48Z</time>
      </trkpt>
      <trkpt lat="44.42671" lon="6.35612">
        <ele>1279.4</ele>
        <time>2021-08-09T11:23:49Z</time>
      </trkpt>
      <trkpt lat="44.42704" lon="6.35634">
        <ele>1278.2</ele>
        <time>2021-08-09T11:23:52Z</time>
      </trkpt>
      <trkpt lat="44.42714" lon="6.35642">
        <ele>1277.8</ele>
        <time>2021-08-09T11:23:53Z</time>
      </trkpt>
      <trkpt lat="44.42736" lon="6.35654">
        <ele>1277</ele>
        <time>2021-08-09T11:23:55Z</time>
      </trkpt>
      <trkpt lat="44.42758" lon="6.35662">
        <ele>1276</ele>
        <time>2021-08-09T11:23:57Z</time>
      </trkpt>
      <trkpt lat="44.42769" lon="6.35665">
        <ele>1275.4</ele>
        <time>2021-08-09T11:23:58Z</time>
      </trkpt>
      <trkpt lat="44.428" lon="6.35673">
        <ele>1274</ele>
        <time>2021-08-09T11:24:01Z</time>
      </trkpt>
      <trkpt lat="44.4282" lon="6.35678">
        <ele>1272</ele>
        <time>2021-08-09T11:24:03Z</time>
      </trkpt>
      <trkpt lat="44.42831" lon="6.35681">
        <ele>1271</ele>
        <time>2021-08-09T11:24:04Z</time>
      </trkpt>
      <trkpt lat="44.42841" lon="6.35683">
        <ele>1270.2</ele>
        <time>2021-08-09T11:24:05Z</time>
      </trkpt>
      <trkpt lat="44.42862" lon="6.35689">
        <ele>1269.2</ele>
        <time>2021-08-09T11:24:07Z</time>
      </trkpt>
      <trkpt lat="44.42904" lon="6.35707">
        <ele>1268.6</ele>
        <time>2021-08-09T11:24:11Z</time>
      </trkpt>
      <trkpt lat="44.42942" lon="6.35738">
        <ele>1267.8</ele>
        <time>2021-08-09T11:24:15Z</time>
      </trkpt>
      <trkpt lat="44.42951" lon="6.35746">
        <ele>1267.2</ele>
        <time>2021-08-09T11:24:16Z</time>
      </trkpt>
      <trkpt lat="44.42961" lon="6.35754">
        <ele>1266.6</ele>
        <time>2021-08-09T11:24:17Z</time>
      </trkpt>
      <trkpt lat="44.4297" lon="6.3576">
        <ele>1266</ele>
        <time>2021-08-09T11:24:18Z</time>
      </trkpt>
      <trkpt lat="44.4298" lon="6.35766">
        <ele>1265.2</ele>
        <time>2021-08-09T11:24:19Z</time>
      </trkpt>
      <trkpt lat="44.4299" lon="6.3577">
        <ele>1264.6</ele>
        <time>2021-08-09T11:24:20Z</time>
      </trkpt>
      <trkpt lat="44.43" lon="6.35773">
        <ele>1264</ele>
        <time>2021-08-09T11:24:21Z</time>
      </trkpt>
      <trkpt lat="44.43021" lon="6.35781">
        <ele>1263</ele>
        <time>2021-08-09T11:24:23Z</time>
      </trkpt>
      <trkpt lat="44.43052" lon="6.35796">
        <ele>1261.8</ele>
        <time>2021-08-09T11:24:26Z</time>
      </trkpt>
      <trkpt lat="44.43062" lon="6.35802">
        <ele>1261.4</ele>
        <time>2021-08-09T11:24:27Z</time>
      </trkpt>
      <trkpt lat="44.43084" lon="6.3581">
        <ele>1260.2</ele>
        <time>2021-08-09T11:24:29Z</time>
      </trkpt>
      <trkpt lat="44.43105" lon="6.35814">
        <ele>1259.2</ele>
        <time>2021-08-09T11:24:31Z</time>
      </trkpt>
      <trkpt lat="44.43127" lon="6.35819">
        <ele>1257.6</ele>
        <time>2021-08-09T11:24:33Z</time>
      </trkpt>
      <trkpt lat="44.43148" lon="6.35828">
        <ele>1256.4</ele>
        <time>2021-08-09T11:24:35Z</time>
      </trkpt>
      <trkpt lat="44.43177" lon="6.3585">
        <ele>1255</ele>
        <time>2021-08-09T11:24:38Z</time>
      </trkpt>
      <trkpt lat="44.43186" lon="6.35858">
        <ele>1254.6</ele>
        <time>2021-08-09T11:24:39Z</time>
      </trkpt>
      <trkpt lat="44.43202" lon="6.35876">
        <ele>1253.4</ele>
        <time>2021-08-09T11:24:41Z</time>
      </trkpt>
      <trkpt lat="44.43218" lon="6.35895">
        <ele>1251.8</ele>
        <time>2021-08-09T11:24:43Z</time>
      </trkpt>
      <trkpt lat="44.43226" lon="6.35905">
        <ele>1251</ele>
        <time>2021-08-09T11:24:44Z</time>
      </trkpt>
      <trkpt lat="44.43233" lon="6.35916">
        <ele>1250.2</ele>
        <time>2021-08-09T11:24:45Z</time>
      </trkpt>
      <trkpt lat="44.43248" lon="6.35938">
        <ele>1249.2</ele>
        <time>2021-08-09T11:24:47Z</time>
      </trkpt>
      <trkpt lat="44.43269" lon="6.35975">
        <ele>1248.2</ele>
        <time>2021-08-09T11:24:50Z</time>
      </trkpt>
      <trkpt lat="44.43275" lon="6.35988">
        <ele>1248</ele>
        <time>2021-08-09T11:24:51Z</time>
      </trkpt>
      <trkpt lat="44.43293" lon="6.36029">
        <ele>1246.8</ele>
        <time>2021-08-09T11:24:54Z</time>
      </trkpt>
      <trkpt lat="44.43305" lon="6.36057">
        <ele>1244.8</ele>
        <time>2021-08-09T11:24:56Z</time>
      </trkpt>
      <trkpt lat="44.4331" lon="6.36071">
        <ele>1244</ele>
        <time>2021-08-09T11:24:57Z</time>
      </trkpt>
      <trkpt lat="44.43316" lon="6.36085">
        <ele>1243.2</ele>
        <time>2021-08-09T11:24:58Z</time>
      </trkpt>
      <trkpt lat="44.43326" lon="6.36112">
        <ele>1242.2</ele>
        <time>2021-08-09T11:25:00Z</time>
      </trkpt>
      <trkpt lat="44.43329" lon="6.36127">
        <ele>1241.8</ele>
        <time>2021-08-09T11:25:01Z</time>
      </trkpt>
      <trkpt lat="44.4333" lon="6.36142">
        <ele>1241.2</ele>
        <time>2021-08-09T11:25:02Z</time>
      </trkpt>
      <trkpt lat="44.4333" lon="6.36172">
        <ele>1240</ele>
        <time>2021-08-09T11:25:04Z</time>
      </trkpt>
      <trkpt lat="44.43331" lon="6.36202">
        <ele>1238.8</ele>
        <time>2021-08-09T11:25:06Z</time>
      </trkpt>
      <trkpt lat="44.43333" lon="6.36217">
        <ele>1238.6</ele>
        <time>2021-08-09T11:25:07Z</time>
      </trkpt>
      <trkpt lat="44.43336" lon="6.36231">
        <ele>1238.2</ele>
        <time>2021-08-09T11:25:08Z</time>
      </trkpt>
      <trkpt lat="44.43339" lon="6.36245">
        <ele>1237.8</ele>
        <time>2021-08-09T11:25:09Z</time>
      </trkpt>
      <trkpt lat="44.43343" lon="6.36258">
        <ele>1237.4</ele>
        <time>2021-08-09T11:25:10Z</time>
      </trkpt>
      <trkpt lat="44.43353" lon="6.36282">
        <ele>1236.6</ele>
        <time>2021-08-09T11:25:12Z</time>
      </trkpt>
      <trkpt lat="44.43365" lon="6.36305">
        <ele>1235.8</ele>
        <time>2021-08-09T11:25:14Z</time>
      </trkpt>
      <trkpt lat="44.43372" lon="6.36316">
        <ele>1235.4</ele>
        <time>2021-08-09T11:25:15Z</time>
      </trkpt>
      <trkpt lat="44.43379" lon="6.36327">
        <ele>1235.2</ele>
        <time>2021-08-09T11:25:16Z</time>
      </trkpt>
      <trkpt lat="44.43401" lon="6.36359">
        <ele>1234.4</ele>
        <time>2021-08-09T11:25:19Z</time>
      </trkpt>
      <trkpt lat="44.4344" lon="6.36413">
        <ele>1233</ele>
        <time>2021-08-09T11:25:24Z</time>
      </trkpt>
      <trkpt lat="44.43447" lon="6.36423">
        <ele>1231.4</ele>
        <time>2021-08-09T11:25:25Z</time>
      </trkpt>
      <trkpt lat="44.43464" lon="6.36445">
        <ele>1230</ele>
        <time>2021-08-09T11:25:27Z</time>
      </trkpt>
      <trkpt lat="44.43488" lon="6.36476">
        <ele>1228.8</ele>
        <time>2021-08-09T11:25:30Z</time>
      </trkpt>
      <trkpt lat="44.43505" lon="6.36496">
        <ele>1227.2</ele>
        <time>2021-08-09T11:25:32Z</time>
      </trkpt>
      <trkpt lat="44.43521" lon="6.36517">
        <ele>1226.2</ele>
        <time>2021-08-09T11:25:34Z</time>
      </trkpt>
      <trkpt lat="44.43545" lon="6.36548">
        <ele>1225</ele>
        <time>2021-08-09T11:25:37Z</time>
      </trkpt>
      <trkpt lat="44.43561" lon="6.36567">
        <ele>1224.2</ele>
        <time>2021-08-09T11:25:39Z</time>
      </trkpt>
      <trkpt lat="44.43569" lon="6.36576">
        <ele>1223.8</ele>
        <time>2021-08-09T11:25:40Z</time>
      </trkpt>
      <trkpt lat="44.43584" lon="6.36592">
        <ele>1222.8</ele>
        <time>2021-08-09T11:25:42Z</time>
      </trkpt>
      <trkpt lat="44.43592" lon="6.36598">
        <ele>1222.2</ele>
        <time>2021-08-09T11:25:43Z</time>
      </trkpt>
      <trkpt lat="44.436" lon="6.36603">
        <ele>1221.6</ele>
        <time>2021-08-09T11:25:44Z</time>
      </trkpt>
      <trkpt lat="44.43613" lon="6.3661">
        <ele>1220.4</ele>
        <time>2021-08-09T11:25:46Z</time>
      </trkpt>
      <trkpt lat="44.43617" lon="6.36612">
        <ele>1219.8</ele>
        <time>2021-08-09T11:25:47Z</time>
      </trkpt>
      <trkpt lat="44.4362" lon="6.36614">
        <ele>1219.2</ele>
        <time>2021-08-09T11:25:48Z</time>
      </trkpt>
      <trkpt lat="44.43622" lon="6.36615">
        <ele>1218.8</ele>
        <time>2021-08-09T11:25:50Z</time>
      </trkpt>
      <trkpt lat="44.43622" lon="6.36614">
        <ele>1218.8</ele>
        <time>2021-08-09T11:25:51Z</time>
      </trkpt>
      <trkpt lat="44.43623" lon="6.36614">
        <ele>1218.2</ele>
        <time>2021-08-09T11:26:23Z</time>
      </trkpt>
      <trkpt lat="44.43627" lon="6.36614">
        <ele>1218.2</ele>
        <time>2021-08-09T11:26:25Z</time>
      </trkpt>
      <trkpt lat="44.43628" lon="6.36615">
        <ele>1218.2</ele>
        <time>2021-08-09T11:26:28Z</time>
      </trkpt>
      <trkpt lat="44.43628" lon="6.36616">
        <ele>1219.2</ele>
        <time>2021-08-09T11:26:58Z</time>
      </trkpt>
      <trkpt lat="44.43628" lon="6.36617">
        <ele>1219.4</ele>
        <time>2021-08-09T11:27:00Z</time>
      </trkpt>
      <trkpt lat="44.43629" lon="6.36616">
        <ele>1219</ele>
        <time>2021-08-09T11:29:08Z</time>
      </trkpt>
      <trkpt lat="44.43632" lon="6.36614">
        <ele>1219</ele>
        <time>2021-08-09T11:29:10Z</time>
      </trkpt>
      <trkpt lat="44.43645" lon="6.36612">
        <ele>1218.8</ele>
        <time>2021-08-09T11:29:14Z</time>
      </trkpt>
      <trkpt lat="44.4365" lon="6.36612">
        <ele>1218.8</ele>
        <time>2021-08-09T11:29:15Z</time>
      </trkpt>
      <trkpt lat="44.4368" lon="6.3661">
        <ele>1218.2</ele>
        <time>2021-08-09T11:29:20Z</time>
      </trkpt>
      <trkpt lat="44.43695" lon="6.36609">
        <ele>1217.8</ele>
        <time>2021-08-09T11:29:22Z</time>
      </trkpt>
      <trkpt lat="44.4372" lon="6.36609">
        <ele>1216.8</ele>
        <time>2021-08-09T11:29:25Z</time>
      </trkpt>
      <trkpt lat="44.43728" lon="6.36608">
        <ele>1216.4</ele>
        <time>2021-08-09T11:29:26Z</time>
      </trkpt>
      <trkpt lat="44.43737" lon="6.36607">
        <ele>1216</ele>
        <time>2021-08-09T11:29:27Z</time>
      </trkpt>
      <trkpt lat="44.43755" lon="6.36606">
        <ele>1214.8</ele>
        <time>2021-08-09T11:29:29Z</time>
      </trkpt>
      <trkpt lat="44.43783" lon="6.36608">
        <ele>1213.2</ele>
        <time>2021-08-09T11:29:32Z</time>
      </trkpt>
      <trkpt lat="44.43802" lon="6.36613">
        <ele>1212.2</ele>
        <time>2021-08-09T11:29:34Z</time>
      </trkpt>
      <trkpt lat="44.43821" lon="6.36621">
        <ele>1211</ele>
        <time>2021-08-09T11:29:36Z</time>
      </trkpt>
      <trkpt lat="44.4384" lon="6.36632">
        <ele>1209.8</ele>
        <time>2021-08-09T11:29:38Z</time>
      </trkpt>
      <trkpt lat="44.43858" lon="6.36648">
        <ele>1208.8</ele>
        <time>2021-08-09T11:29:40Z</time>
      </trkpt>
      <trkpt lat="44.43866" lon="6.36657">
        <ele>1207.8</ele>
        <time>2021-08-09T11:29:41Z</time>
      </trkpt>
      <trkpt lat="44.43887" lon="6.36689">
        <ele>1206.4</ele>
        <time>2021-08-09T11:29:44Z</time>
      </trkpt>
      <trkpt lat="44.43904" lon="6.36725">
        <ele>1204.6</ele>
        <time>2021-08-09T11:29:47Z</time>
      </trkpt>
      <trkpt lat="44.43908" lon="6.36739">
        <ele>1204</ele>
        <time>2021-08-09T11:29:48Z</time>
      </trkpt>
      <trkpt lat="44.43912" lon="6.36752">
        <ele>1203.2</ele>
        <time>2021-08-09T11:29:49Z</time>
      </trkpt>
      <trkpt lat="44.43918" lon="6.36781">
        <ele>1202</ele>
        <time>2021-08-09T11:29:51Z</time>
      </trkpt>
      <trkpt lat="44.43922" lon="6.3681">
        <ele>1201</ele>
        <time>2021-08-09T11:29:53Z</time>
      </trkpt>
      <trkpt lat="44.43924" lon="6.36855">
        <ele>1199.6</ele>
        <time>2021-08-09T11:29:56Z</time>
      </trkpt>
      <trkpt lat="44.43923" lon="6.36884">
        <ele>1198.4</ele>
        <time>2021-08-09T11:29:58Z</time>
      </trkpt>
      <trkpt lat="44.43925" lon="6.3693">
        <ele>1197</ele>
        <time>2021-08-09T11:30:01Z</time>
      </trkpt>
      <trkpt lat="44.43929" lon="6.36944">
        <ele>1196.6</ele>
        <time>2021-08-09T11:30:02Z</time>
      </trkpt>
      <trkpt lat="44.43944" lon="6.36967">
        <ele>1195.8</ele>
        <time>2021-08-09T11:30:04Z</time>
      </trkpt>
      <trkpt lat="44.43965" lon="6.36977">
        <ele>1195</ele>
        <time>2021-08-09T11:30:06Z</time>
      </trkpt>
      <trkpt lat="44.43976" lon="6.36977">
        <ele>1194.6</ele>
        <time>2021-08-09T11:30:07Z</time>
      </trkpt>
      <trkpt lat="44.43988" lon="6.36974">
        <ele>1193.4</ele>
        <time>2021-08-09T11:30:08Z</time>
      </trkpt>
      <trkpt lat="44.43999" lon="6.36969">
        <ele>1192.8</ele>
        <time>2021-08-09T11:30:09Z</time>
      </trkpt>
      <trkpt lat="44.44009" lon="6.36963">
        <ele>1192.2</ele>
        <time>2021-08-09T11:30:10Z</time>
      </trkpt>
      <trkpt lat="44.4402" lon="6.36957">
        <ele>1191</ele>
        <time>2021-08-09T11:30:11Z</time>
      </trkpt>
      <trkpt lat="44.44031" lon="6.36952">
        <ele>1190</ele>
        <time>2021-08-09T11:30:12Z</time>
      </trkpt>
      <trkpt lat="44.44053" lon="6.36943">
        <ele>1188.2</ele>
        <time>2021-08-09T11:30:14Z</time>
      </trkpt>
      <trkpt lat="44.44077" lon="6.36938">
        <ele>1186.4</ele>
        <time>2021-08-09T11:30:16Z</time>
      </trkpt>
      <trkpt lat="44.441" lon="6.36937">
        <ele>1185</ele>
        <time>2021-08-09T11:30:18Z</time>
      </trkpt>
      <trkpt lat="44.44123" lon="6.36934">
        <ele>1183.6</ele>
        <time>2021-08-09T11:30:20Z</time>
      </trkpt>
      <trkpt lat="44.44145" lon="6.36931">
        <ele>1182.4</ele>
        <time>2021-08-09T11:30:22Z</time>
      </trkpt>
      <trkpt lat="44.44167" lon="6.36925">
        <ele>1181.2</ele>
        <time>2021-08-09T11:30:24Z</time>
      </trkpt>
      <trkpt lat="44.44189" lon="6.36919">
        <ele>1179.8</ele>
        <time>2021-08-09T11:30:26Z</time>
      </trkpt>
      <trkpt lat="44.4421" lon="6.36913">
        <ele>1178.4</ele>
        <time>2021-08-09T11:30:28Z</time>
      </trkpt>
      <trkpt lat="44.4423" lon="6.36905">
        <ele>1177.4</ele>
        <time>2021-08-09T11:30:30Z</time>
      </trkpt>
      <trkpt lat="44.44258" lon="6.36889">
        <ele>1175.8</ele>
        <time>2021-08-09T11:30:33Z</time>
      </trkpt>
      <trkpt lat="44.44277" lon="6.36878">
        <ele>1174.6</ele>
        <time>2021-08-09T11:30:35Z</time>
      </trkpt>
      <trkpt lat="44.44287" lon="6.36873">
        <ele>1174.4</ele>
        <time>2021-08-09T11:30:36Z</time>
      </trkpt>
      <trkpt lat="44.44318" lon="6.36864">
        <ele>1173.6</ele>
        <time>2021-08-09T11:30:39Z</time>
      </trkpt>
      <trkpt lat="44.44329" lon="6.36864">
        <ele>1173.2</ele>
        <time>2021-08-09T11:30:40Z</time>
      </trkpt>
      <trkpt lat="44.44361" lon="6.36874">
        <ele>1172.2</ele>
        <time>2021-08-09T11:30:43Z</time>
      </trkpt>
      <trkpt lat="44.44388" lon="6.36898">
        <ele>1170.8</ele>
        <time>2021-08-09T11:30:46Z</time>
      </trkpt>
      <trkpt lat="44.44406" lon="6.36916">
        <ele>1169.2</ele>
        <time>2021-08-09T11:30:48Z</time>
      </trkpt>
      <trkpt lat="44.44424" lon="6.36934">
        <ele>1167.4</ele>
        <time>2021-08-09T11:30:50Z</time>
      </trkpt>
      <trkpt lat="44.44441" lon="6.36953">
        <ele>1166</ele>
        <time>2021-08-09T11:30:52Z</time>
      </trkpt>
      <trkpt lat="44.44458" lon="6.36971">
        <ele>1164.8</ele>
        <time>2021-08-09T11:30:54Z</time>
      </trkpt>
      <trkpt lat="44.44467" lon="6.3698">
        <ele>1164.4</ele>
        <time>2021-08-09T11:30:55Z</time>
      </trkpt>
      <trkpt lat="44.44484" lon="6.36998">
        <ele>1163.6</ele>
        <time>2021-08-09T11:30:57Z</time>
      </trkpt>
      <trkpt lat="44.44502" lon="6.37016">
        <ele>1162.4</ele>
        <time>2021-08-09T11:30:59Z</time>
      </trkpt>
      <trkpt lat="44.44528" lon="6.37039">
        <ele>1161</ele>
        <time>2021-08-09T11:31:02Z</time>
      </trkpt>
      <trkpt lat="44.44548" lon="6.3705">
        <ele>1159.8</ele>
        <time>2021-08-09T11:31:04Z</time>
      </trkpt>
      <trkpt lat="44.44568" lon="6.37056">
        <ele>1159.4</ele>
        <time>2021-08-09T11:31:06Z</time>
      </trkpt>
      <trkpt lat="44.44599" lon="6.37061">
        <ele>1158.6</ele>
        <time>2021-08-09T11:31:09Z</time>
      </trkpt>
      <trkpt lat="44.44619" lon="6.37064">
        <ele>1158</ele>
        <time>2021-08-09T11:31:11Z</time>
      </trkpt>
      <trkpt lat="44.44629" lon="6.37067">
        <ele>1157.6</ele>
        <time>2021-08-09T11:31:12Z</time>
      </trkpt>
      <trkpt lat="44.44639" lon="6.37071">
        <ele>1157.2</ele>
        <time>2021-08-09T11:31:13Z</time>
      </trkpt>
      <trkpt lat="44.44658" lon="6.37081">
        <ele>1156.4</ele>
        <time>2021-08-09T11:31:15Z</time>
      </trkpt>
      <trkpt lat="44.44678" lon="6.37092">
        <ele>1155.2</ele>
        <time>2021-08-09T11:31:17Z</time>
      </trkpt>
      <trkpt lat="44.44699" lon="6.37094">
        <ele>1154</ele>
        <time>2021-08-09T11:31:19Z</time>
      </trkpt>
      <trkpt lat="44.44719" lon="6.37089">
        <ele>1153</ele>
        <time>2021-08-09T11:31:21Z</time>
      </trkpt>
      <trkpt lat="44.44729" lon="6.37087">
        <ele>1152.8</ele>
        <time>2021-08-09T11:31:22Z</time>
      </trkpt>
      <trkpt lat="44.44749" lon="6.37086">
        <ele>1151.8</ele>
        <time>2021-08-09T11:31:24Z</time>
      </trkpt>
      <trkpt lat="44.44759" lon="6.37087">
        <ele>1151.4</ele>
        <time>2021-08-09T11:31:25Z</time>
      </trkpt>
      <trkpt lat="44.44795" lon="6.37088">
        <ele>1150.2</ele>
        <time>2021-08-09T11:31:29Z</time>
      </trkpt>
      <trkpt lat="44.44801" lon="6.37088">
        <ele>1148.8</ele>
        <time>2021-08-09T11:31:30Z</time>
      </trkpt>
      <trkpt lat="44.4481" lon="6.37086">
        <ele>1147.2</ele>
        <time>2021-08-09T11:31:32Z</time>
      </trkpt>
      <trkpt lat="44.44814" lon="6.37084">
        <ele>1146.6</ele>
        <time>2021-08-09T11:31:35Z</time>
      </trkpt>
      <trkpt lat="44.44813" lon="6.37084">
        <ele>1146.6</ele>
        <time>2021-08-09T11:31:36Z</time>
      </trkpt>
      <trkpt lat="44.44815" lon="6.37085">
        <ele>1146.4</ele>
        <time>2021-08-09T11:31:41Z</time>
      </trkpt>
      <trkpt lat="44.44815" lon="6.37085">
        <ele>1146.4</ele>
        <time>2021-08-09T11:31:43Z</time>
      </trkpt>
      <trkpt lat="44.44816" lon="6.37089">
        <ele>1145.4</ele>
        <time>2021-08-09T11:32:17Z</time>
      </trkpt>
      <trkpt lat="44.44821" lon="6.37095">
        <ele>1145.6</ele>
        <time>2021-08-09T11:32:20Z</time>
      </trkpt>
      <trkpt lat="44.44824" lon="6.37097">
        <ele>1145.6</ele>
        <time>2021-08-09T11:32:21Z</time>
      </trkpt>
      <trkpt lat="44.44846" lon="6.37101">
        <ele>1145.6</ele>
        <time>2021-08-09T11:32:25Z</time>
      </trkpt>
      <trkpt lat="44.44884" lon="6.37106">
        <ele>1145</ele>
        <time>2021-08-09T11:32:30Z</time>
      </trkpt>
      <trkpt lat="44.44901" lon="6.37108">
        <ele>1144.4</ele>
        <time>2021-08-09T11:32:32Z</time>
      </trkpt>
      <trkpt lat="44.44917" lon="6.37111">
        <ele>1143.2</ele>
        <time>2021-08-09T11:32:34Z</time>
      </trkpt>
      <trkpt lat="44.44934" lon="6.37115">
        <ele>1141.4</ele>
        <time>2021-08-09T11:32:36Z</time>
      </trkpt>
      <trkpt lat="44.44951" lon="6.37119">
        <ele>1140</ele>
        <time>2021-08-09T11:32:38Z</time>
      </trkpt>
      <trkpt lat="44.44959" lon="6.37122">
        <ele>1139.6</ele>
        <time>2021-08-09T11:32:39Z</time>
      </trkpt>
      <trkpt lat="44.44976" lon="6.37127">
        <ele>1138.8</ele>
        <time>2021-08-09T11:32:41Z</time>
      </trkpt>
      <trkpt lat="44.44998" lon="6.37129">
        <ele>1138.4</ele>
        <time>2021-08-09T11:32:44Z</time>
      </trkpt>
      <trkpt lat="44.45008" lon="6.37125">
        <ele>1137.6</ele>
        <time>2021-08-09T11:32:46Z</time>
      </trkpt>
      <trkpt lat="44.4502" lon="6.37126">
        <ele>1136.6</ele>
        <time>2021-08-09T11:32:48Z</time>
      </trkpt>
      <trkpt lat="44.45032" lon="6.37135">
        <ele>1135.8</ele>
        <time>2021-08-09T11:32:50Z</time>
      </trkpt>
      <trkpt lat="44.45038" lon="6.3714">
        <ele>1135.4</ele>
        <time>2021-08-09T11:32:51Z</time>
      </trkpt>
      <trkpt lat="44.45053" lon="6.37148">
        <ele>1135.2</ele>
        <time>2021-08-09T11:32:53Z</time>
      </trkpt>
      <trkpt lat="44.4506" lon="6.37152">
        <ele>1135.2</ele>
        <time>2021-08-09T11:32:54Z</time>
      </trkpt>
      <trkpt lat="44.45086" lon="6.37161">
        <ele>1134.8</ele>
        <time>2021-08-09T11:32:57Z</time>
      </trkpt>
      <trkpt lat="44.45095" lon="6.37164">
        <ele>1134.4</ele>
        <time>2021-08-09T11:32:58Z</time>
      </trkpt>
      <trkpt lat="44.45114" lon="6.3717">
        <ele>1133.2</ele>
        <time>2021-08-09T11:33:00Z</time>
      </trkpt>
      <trkpt lat="44.45143" lon="6.37181">
        <ele>1132.2</ele>
        <time>2021-08-09T11:33:03Z</time>
      </trkpt>
      <trkpt lat="44.45153" lon="6.37185">
        <ele>1131.8</ele>
        <time>2021-08-09T11:33:04Z</time>
      </trkpt>
      <trkpt lat="44.45171" lon="6.37195">
        <ele>1131</ele>
        <time>2021-08-09T11:33:06Z</time>
      </trkpt>
      <trkpt lat="44.4518" lon="6.37203">
        <ele>1130.4</ele>
        <time>2021-08-09T11:33:07Z</time>
      </trkpt>
      <trkpt lat="44.45187" lon="6.37213">
        <ele>1130</ele>
        <time>2021-08-09T11:33:08Z</time>
      </trkpt>
      <trkpt lat="44.45197" lon="6.37238">
        <ele>1128.8</ele>
        <time>2021-08-09T11:33:10Z</time>
      </trkpt>
      <trkpt lat="44.452" lon="6.37267">
        <ele>1127.4</ele>
        <time>2021-08-09T11:33:12Z</time>
      </trkpt>
      <trkpt lat="44.452" lon="6.37283">
        <ele>1127</ele>
        <time>2021-08-09T11:33:13Z</time>
      </trkpt>
      <trkpt lat="44.45201" lon="6.37313">
        <ele>1126.2</ele>
        <time>2021-08-09T11:33:15Z</time>
      </trkpt>
      <trkpt lat="44.45205" lon="6.37342">
        <ele>1125.2</ele>
        <time>2021-08-09T11:33:17Z</time>
      </trkpt>
      <trkpt lat="44.4521" lon="6.37356">
        <ele>1124.8</ele>
        <time>2021-08-09T11:33:18Z</time>
      </trkpt>
      <trkpt lat="44.45215" lon="6.37369">
        <ele>1124.2</ele>
        <time>2021-08-09T11:33:19Z</time>
      </trkpt>
      <trkpt lat="44.45223" lon="6.37399">
        <ele>1122.4</ele>
        <time>2021-08-09T11:33:21Z</time>
      </trkpt>
      <trkpt lat="44.45223" lon="6.37431">
        <ele>1121</ele>
        <time>2021-08-09T11:33:23Z</time>
      </trkpt>
      <trkpt lat="44.45207" lon="6.37475">
        <ele>1119.8</ele>
        <time>2021-08-09T11:33:26Z</time>
      </trkpt>
      <trkpt lat="44.45201" lon="6.37489">
        <ele>1119.6</ele>
        <time>2021-08-09T11:33:27Z</time>
      </trkpt>
      <trkpt lat="44.45179" lon="6.37531">
        <ele>1118.6</ele>
        <time>2021-08-09T11:33:30Z</time>
      </trkpt>
      <trkpt lat="44.45169" lon="6.37542">
        <ele>1118</ele>
        <time>2021-08-09T11:33:31Z</time>
      </trkpt>
      <trkpt lat="44.45147" lon="6.37561">
        <ele>1117</ele>
        <time>2021-08-09T11:33:33Z</time>
      </trkpt>
      <trkpt lat="44.45134" lon="6.37567">
        <ele>1116.2</ele>
        <time>2021-08-09T11:33:34Z</time>
      </trkpt>
      <trkpt lat="44.45122" lon="6.37572">
        <ele>1115.6</ele>
        <time>2021-08-09T11:33:35Z</time>
      </trkpt>
      <trkpt lat="44.45109" lon="6.37576">
        <ele>1115</ele>
        <time>2021-08-09T11:33:36Z</time>
      </trkpt>
      <trkpt lat="44.45097" lon="6.37579">
        <ele>1114.4</ele>
        <time>2021-08-09T11:33:37Z</time>
      </trkpt>
      <trkpt lat="44.45085" lon="6.37583">
        <ele>1113.8</ele>
        <time>2021-08-09T11:33:38Z</time>
      </trkpt>
      <trkpt lat="44.45061" lon="6.37594">
        <ele>1113</ele>
        <time>2021-08-09T11:33:40Z</time>
      </trkpt>
      <trkpt lat="44.45039" lon="6.37606">
        <ele>1111.2</ele>
        <time>2021-08-09T11:33:42Z</time>
      </trkpt>
      <trkpt lat="44.45016" lon="6.37619">
        <ele>1109</ele>
        <time>2021-08-09T11:33:44Z</time>
      </trkpt>
      <trkpt lat="44.44993" lon="6.37632">
        <ele>1107.6</ele>
        <time>2021-08-09T11:33:46Z</time>
      </trkpt>
      <trkpt lat="44.44958" lon="6.3765">
        <ele>1106.6</ele>
        <time>2021-08-09T11:33:49Z</time>
      </trkpt>
      <trkpt lat="44.44946" lon="6.37655">
        <ele>1106.4</ele>
        <time>2021-08-09T11:33:50Z</time>
      </trkpt>
      <trkpt lat="44.44908" lon="6.37667">
        <ele>1105.8</ele>
        <time>2021-08-09T11:33:53Z</time>
      </trkpt>
      <trkpt lat="44.44881" lon="6.37674">
        <ele>1105.2</ele>
        <time>2021-08-09T11:33:55Z</time>
      </trkpt>
      <trkpt lat="44.44853" lon="6.37683">
        <ele>1103.8</ele>
        <time>2021-08-09T11:33:57Z</time>
      </trkpt>
      <trkpt lat="44.44825" lon="6.37691">
        <ele>1102.8</ele>
        <time>2021-08-09T11:33:59Z</time>
      </trkpt>
      <trkpt lat="44.44798" lon="6.37699">
        <ele>1101.2</ele>
        <time>2021-08-09T11:34:01Z</time>
      </trkpt>
      <trkpt lat="44.44772" lon="6.37706">
        <ele>1099.6</ele>
        <time>2021-08-09T11:34:03Z</time>
      </trkpt>
      <trkpt lat="44.44746" lon="6.37715">
        <ele>1097.8</ele>
        <time>2021-08-09T11:34:05Z</time>
      </trkpt>
      <trkpt lat="44.44722" lon="6.37726">
        <ele>1095.8</ele>
        <time>2021-08-09T11:34:07Z</time>
      </trkpt>
      <trkpt lat="44.44711" lon="6.37733">
        <ele>1094.8</ele>
        <time>2021-08-09T11:34:08Z</time>
      </trkpt>
      <trkpt lat="44.44701" lon="6.3774">
        <ele>1093.8</ele>
        <time>2021-08-09T11:34:09Z</time>
      </trkpt>
      <trkpt lat="44.44691" lon="6.37749">
        <ele>1092.8</ele>
        <time>2021-08-09T11:34:10Z</time>
      </trkpt>
      <trkpt lat="44.44681" lon="6.37758">
        <ele>1092</ele>
        <time>2021-08-09T11:34:11Z</time>
      </trkpt>
      <trkpt lat="44.44662" lon="6.37777">
        <ele>1090.8</ele>
        <time>2021-08-09T11:34:13Z</time>
      </trkpt>
      <trkpt lat="44.44653" lon="6.37786">
        <ele>1090</ele>
        <time>2021-08-09T11:34:14Z</time>
      </trkpt>
      <trkpt lat="44.44643" lon="6.37795">
        <ele>1089</ele>
        <time>2021-08-09T11:34:15Z</time>
      </trkpt>
      <trkpt lat="44.44622" lon="6.37813">
        <ele>1087.6</ele>
        <time>2021-08-09T11:34:17Z</time>
      </trkpt>
      <trkpt lat="44.44599" lon="6.37829">
        <ele>1087.2</ele>
        <time>2021-08-09T11:34:19Z</time>
      </trkpt>
      <trkpt lat="44.44541" lon="6.37863">
        <ele>1086.4</ele>
        <time>2021-08-09T11:34:24Z</time>
      </trkpt>
      <trkpt lat="44.4453" lon="6.37872">
        <ele>1086.2</ele>
        <time>2021-08-09T11:34:25Z</time>
      </trkpt>
      <trkpt lat="44.4451" lon="6.3789">
        <ele>1085.4</ele>
        <time>2021-08-09T11:34:27Z</time>
      </trkpt>
      <trkpt lat="44.44489" lon="6.37909">
        <ele>1084.2</ele>
        <time>2021-08-09T11:34:29Z</time>
      </trkpt>
      <trkpt lat="44.4448" lon="6.3792">
        <ele>1083.4</ele>
        <time>2021-08-09T11:34:30Z</time>
      </trkpt>
      <trkpt lat="44.44471" lon="6.37931">
        <ele>1082.8</ele>
        <time>2021-08-09T11:34:31Z</time>
      </trkpt>
      <trkpt lat="44.44454" lon="6.37955">
        <ele>1081.4</ele>
        <time>2021-08-09T11:34:33Z</time>
      </trkpt>
      <trkpt lat="44.44438" lon="6.37979">
        <ele>1080.4</ele>
        <time>2021-08-09T11:34:35Z</time>
      </trkpt>
      <trkpt lat="44.44415" lon="6.38019">
        <ele>1079</ele>
        <time>2021-08-09T11:34:38Z</time>
      </trkpt>
      <trkpt lat="44.44399" lon="6.38047">
        <ele>1077.8</ele>
        <time>2021-08-09T11:34:40Z</time>
      </trkpt>
      <trkpt lat="44.44383" lon="6.38075">
        <ele>1076.4</ele>
        <time>2021-08-09T11:34:42Z</time>
      </trkpt>
      <trkpt lat="44.4436" lon="6.38118">
        <ele>1074.8</ele>
        <time>2021-08-09T11:34:45Z</time>
      </trkpt>
      <trkpt lat="44.44353" lon="6.38134">
        <ele>1074.2</ele>
        <time>2021-08-09T11:34:46Z</time>
      </trkpt>
      <trkpt lat="44.44349" lon="6.38151">
        <ele>1073.6</ele>
        <time>2021-08-09T11:34:47Z</time>
      </trkpt>
      <trkpt lat="44.44346" lon="6.38188">
        <ele>1072.2</ele>
        <time>2021-08-09T11:34:49Z</time>
      </trkpt>
      <trkpt lat="44.44354" lon="6.38243">
        <ele>1070.8</ele>
        <time>2021-08-09T11:34:52Z</time>
      </trkpt>
      <trkpt lat="44.4436" lon="6.38279">
        <ele>1069.4</ele>
        <time>2021-08-09T11:34:54Z</time>
      </trkpt>
      <trkpt lat="44.44366" lon="6.38314">
        <ele>1067.6</ele>
        <time>2021-08-09T11:34:56Z</time>
      </trkpt>
      <trkpt lat="44.44372" lon="6.38348">
        <ele>1065.8</ele>
        <time>2021-08-09T11:34:58Z</time>
      </trkpt>
      <trkpt lat="44.44378" lon="6.38383">
        <ele>1064.4</ele>
        <time>2021-08-09T11:35:00Z</time>
      </trkpt>
      <trkpt lat="44.44385" lon="6.38417">
        <ele>1063.2</ele>
        <time>2021-08-09T11:35:02Z</time>
      </trkpt>
      <trkpt lat="44.444" lon="6.38502">
        <ele>1062.4</ele>
        <time>2021-08-09T11:35:07Z</time>
      </trkpt>
      <trkpt lat="44.44406" lon="6.38535">
        <ele>1062.2</ele>
        <time>2021-08-09T11:35:09Z</time>
      </trkpt>
      <trkpt lat="44.44421" lon="6.38614">
        <ele>1061</ele>
        <time>2021-08-09T11:35:14Z</time>
      </trkpt>
      <trkpt lat="44.44426" lon="6.38646">
        <ele>1058.6</ele>
        <time>2021-08-09T11:35:16Z</time>
      </trkpt>
      <trkpt lat="44.44429" lon="6.38661">
        <ele>1057.2</ele>
        <time>2021-08-09T11:35:17Z</time>
      </trkpt>
      <trkpt lat="44.44432" lon="6.38677">
        <ele>1056</ele>
        <time>2021-08-09T11:35:18Z</time>
      </trkpt>
      <trkpt lat="44.44438" lon="6.3871">
        <ele>1054.4</ele>
        <time>2021-08-09T11:35:20Z</time>
      </trkpt>
      <trkpt lat="44.44445" lon="6.38744">
        <ele>1053.8</ele>
        <time>2021-08-09T11:35:22Z</time>
      </trkpt>
      <trkpt lat="44.44448" lon="6.3876">
        <ele>1053.6</ele>
        <time>2021-08-09T11:35:23Z</time>
      </trkpt>
      <trkpt lat="44.44447" lon="6.38777">
        <ele>1053.2</ele>
        <time>2021-08-09T11:35:24Z</time>
      </trkpt>
      <trkpt lat="44.44437" lon="6.38807">
        <ele>1052.4</ele>
        <time>2021-08-09T11:35:26Z</time>
      </trkpt>
      <trkpt lat="44.44428" lon="6.38817">
        <ele>1051.6</ele>
        <time>2021-08-09T11:35:27Z</time>
      </trkpt>
      <trkpt lat="44.44416" lon="6.38823">
        <ele>1051</ele>
        <time>2021-08-09T11:35:28Z</time>
      </trkpt>
      <trkpt lat="44.44404" lon="6.38827">
        <ele>1050.2</ele>
        <time>2021-08-09T11:35:29Z</time>
      </trkpt>
      <trkpt lat="44.4438" lon="6.38835">
        <ele>1048.4</ele>
        <time>2021-08-09T11:35:31Z</time>
      </trkpt>
      <trkpt lat="44.44357" lon="6.38848">
        <ele>1046.8</ele>
        <time>2021-08-09T11:35:33Z</time>
      </trkpt>
      <trkpt lat="44.44347" lon="6.38858">
        <ele>1045.8</ele>
        <time>2021-08-09T11:35:34Z</time>
      </trkpt>
      <trkpt lat="44.44331" lon="6.38884">
        <ele>1044.4</ele>
        <time>2021-08-09T11:35:36Z</time>
      </trkpt>
      <trkpt lat="44.44316" lon="6.38911">
        <ele>1043.4</ele>
        <time>2021-08-09T11:35:38Z</time>
      </trkpt>
      <trkpt lat="44.4431" lon="6.38925">
        <ele>1042.8</ele>
        <time>2021-08-09T11:35:39Z</time>
      </trkpt>
      <trkpt lat="44.44308" lon="6.38941">
        <ele>1042.2</ele>
        <time>2021-08-09T11:35:40Z</time>
      </trkpt>
      <trkpt lat="44.44311" lon="6.38956">
        <ele>1040.8</ele>
        <time>2021-08-09T11:35:41Z</time>
      </trkpt>
      <trkpt lat="44.44317" lon="6.38969">
        <ele>1039.8</ele>
        <time>2021-08-09T11:35:42Z</time>
      </trkpt>
      <trkpt lat="44.44326" lon="6.38978">
        <ele>1038.6</ele>
        <time>2021-08-09T11:35:43Z</time>
      </trkpt>
      <trkpt lat="44.44335" lon="6.38987">
        <ele>1037.8</ele>
        <time>2021-08-09T11:35:44Z</time>
      </trkpt>
      <trkpt lat="44.44344" lon="6.38999">
        <ele>1037</ele>
        <time>2021-08-09T11:35:45Z</time>
      </trkpt>
      <trkpt lat="44.44349" lon="6.39013">
        <ele>1036.6</ele>
        <time>2021-08-09T11:35:46Z</time>
      </trkpt>
      <trkpt lat="44.44347" lon="6.39044">
        <ele>1035.8</ele>
        <time>2021-08-09T11:35:48Z</time>
      </trkpt>
      <trkpt lat="44.44335" lon="6.39073">
        <ele>1034.6</ele>
        <time>2021-08-09T11:35:50Z</time>
      </trkpt>
      <trkpt lat="44.44323" lon="6.39105">
        <ele>1033.8</ele>
        <time>2021-08-09T11:35:52Z</time>
      </trkpt>
      <trkpt lat="44.44319" lon="6.39121">
        <ele>1033.6</ele>
        <time>2021-08-09T11:35:53Z</time>
      </trkpt>
      <trkpt lat="44.4432" lon="6.39138">
        <ele>1032.8</ele>
        <time>2021-08-09T11:35:54Z</time>
      </trkpt>
      <trkpt lat="44.44326" lon="6.39152">
        <ele>1031.8</ele>
        <time>2021-08-09T11:35:55Z</time>
      </trkpt>
      <trkpt lat="44.44335" lon="6.39161">
        <ele>1030.8</ele>
        <time>2021-08-09T11:35:56Z</time>
      </trkpt>
      <trkpt lat="44.44346" lon="6.39166">
        <ele>1029.8</ele>
        <time>2021-08-09T11:35:57Z</time>
      </trkpt>
      <trkpt lat="44.44358" lon="6.39167">
        <ele>1029</ele>
        <time>2021-08-09T11:35:58Z</time>
      </trkpt>
      <trkpt lat="44.44371" lon="6.39168">
        <ele>1028.4</ele>
        <time>2021-08-09T11:35:59Z</time>
      </trkpt>
      <trkpt lat="44.44409" lon="6.39172">
        <ele>1027.2</ele>
        <time>2021-08-09T11:36:02Z</time>
      </trkpt>
      <trkpt lat="44.44435" lon="6.39179">
        <ele>1025.2</ele>
        <time>2021-08-09T11:36:04Z</time>
      </trkpt>
      <trkpt lat="44.44448" lon="6.39185">
        <ele>1024.4</ele>
        <time>2021-08-09T11:36:05Z</time>
      </trkpt>
      <trkpt lat="44.44461" lon="6.39191">
        <ele>1023.8</ele>
        <time>2021-08-09T11:36:06Z</time>
      </trkpt>
      <trkpt lat="44.44486" lon="6.39206">
        <ele>1023</ele>
        <time>2021-08-09T11:36:08Z</time>
      </trkpt>
      <trkpt lat="44.44497" lon="6.39213">
        <ele>1022.8</ele>
        <time>2021-08-09T11:36:09Z</time>
      </trkpt>
      <trkpt lat="44.44509" lon="6.3922">
        <ele>1021.4</ele>
        <time>2021-08-09T11:36:10Z</time>
      </trkpt>
      <trkpt lat="44.44521" lon="6.39226">
        <ele>1020.4</ele>
        <time>2021-08-09T11:36:11Z</time>
      </trkpt>
      <trkpt lat="44.44533" lon="6.39232">
        <ele>1018.8</ele>
        <time>2021-08-09T11:36:12Z</time>
      </trkpt>
      <trkpt lat="44.44545" lon="6.39239">
        <ele>1017.6</ele>
        <time>2021-08-09T11:36:13Z</time>
      </trkpt>
      <trkpt lat="44.44556" lon="6.39247">
        <ele>1016.4</ele>
        <time>2021-08-09T11:36:14Z</time>
      </trkpt>
      <trkpt lat="44.44579" lon="6.3926">
        <ele>1014.8</ele>
        <time>2021-08-09T11:36:16Z</time>
      </trkpt>
      <trkpt lat="44.44602" lon="6.39273">
        <ele>1013.2</ele>
        <time>2021-08-09T11:36:18Z</time>
      </trkpt>
      <trkpt lat="44.44613" lon="6.39282">
        <ele>1012.6</ele>
        <time>2021-08-09T11:36:19Z</time>
      </trkpt>
      <trkpt lat="44.44622" lon="6.39293">
        <ele>1012.2</ele>
        <time>2021-08-09T11:36:20Z</time>
      </trkpt>
      <trkpt lat="44.44629" lon="6.39305">
        <ele>1012</ele>
        <time>2021-08-09T11:36:21Z</time>
      </trkpt>
      <trkpt lat="44.44636" lon="6.39331">
        <ele>1011</ele>
        <time>2021-08-09T11:36:23Z</time>
      </trkpt>
      <trkpt lat="44.44631" lon="6.39378">
        <ele>1009.8</ele>
        <time>2021-08-09T11:36:26Z</time>
      </trkpt>
      <trkpt lat="44.44627" lon="6.39393">
        <ele>1009.4</ele>
        <time>2021-08-09T11:36:27Z</time>
      </trkpt>
      <trkpt lat="44.44619" lon="6.39426">
        <ele>1008.6</ele>
        <time>2021-08-09T11:36:29Z</time>
      </trkpt>
      <trkpt lat="44.44613" lon="6.39459">
        <ele>1007.4</ele>
        <time>2021-08-09T11:36:31Z</time>
      </trkpt>
      <trkpt lat="44.44612" lon="6.39493">
        <ele>1006.2</ele>
        <time>2021-08-09T11:36:33Z</time>
      </trkpt>
      <trkpt lat="44.44612" lon="6.39511">
        <ele>1004.8</ele>
        <time>2021-08-09T11:36:34Z</time>
      </trkpt>
      <trkpt lat="44.44611" lon="6.39528">
        <ele>1003.6</ele>
        <time>2021-08-09T11:36:35Z</time>
      </trkpt>
      <trkpt lat="44.4461" lon="6.39562">
        <ele>1002.2</ele>
        <time>2021-08-09T11:36:37Z</time>
      </trkpt>
      <trkpt lat="44.44611" lon="6.39578">
        <ele>1000.8</ele>
        <time>2021-08-09T11:36:38Z</time>
      </trkpt>
      <trkpt lat="44.44613" lon="6.39594">
        <ele>1000.2</ele>
        <time>2021-08-09T11:36:39Z</time>
      </trkpt>
      <trkpt lat="44.44617" lon="6.3961">
        <ele>999.6</ele>
        <time>2021-08-09T11:36:40Z</time>
      </trkpt>
      <trkpt lat="44.44626" lon="6.39641">
        <ele>998.2</ele>
        <time>2021-08-09T11:36:42Z</time>
      </trkpt>
      <trkpt lat="44.44631" lon="6.39656">
        <ele>997.2</ele>
        <time>2021-08-09T11:36:43Z</time>
      </trkpt>
      <trkpt lat="44.44636" lon="6.39671">
        <ele>996.4</ele>
        <time>2021-08-09T11:36:44Z</time>
      </trkpt>
      <trkpt lat="44.44649" lon="6.39717">
        <ele>995.2</ele>
        <time>2021-08-09T11:36:47Z</time>
      </trkpt>
      <trkpt lat="44.44652" lon="6.39733">
        <ele>995</ele>
        <time>2021-08-09T11:36:48Z</time>
      </trkpt>
      <trkpt lat="44.44656" lon="6.39785">
        <ele>994</ele>
        <time>2021-08-09T11:36:51Z</time>
      </trkpt>
      <trkpt lat="44.44658" lon="6.39819">
        <ele>992.2</ele>
        <time>2021-08-09T11:36:53Z</time>
      </trkpt>
      <trkpt lat="44.44661" lon="6.39854">
        <ele>990.8</ele>
        <time>2021-08-09T11:36:55Z</time>
      </trkpt>
      <trkpt lat="44.44666" lon="6.39887">
        <ele>989.4</ele>
        <time>2021-08-09T11:36:57Z</time>
      </trkpt>
      <trkpt lat="44.44669" lon="6.39904">
        <ele>989</ele>
        <time>2021-08-09T11:36:58Z</time>
      </trkpt>
      <trkpt lat="44.4468" lon="6.39935">
        <ele>988.2</ele>
        <time>2021-08-09T11:37:00Z</time>
      </trkpt>
      <trkpt lat="44.4469" lon="6.39964">
        <ele>987.2</ele>
        <time>2021-08-09T11:37:02Z</time>
      </trkpt>
      <trkpt lat="44.44703" lon="6.40004">
        <ele>985.6</ele>
        <time>2021-08-09T11:37:05Z</time>
      </trkpt>
      <trkpt lat="44.44707" lon="6.40016">
        <ele>985</ele>
        <time>2021-08-09T11:37:06Z</time>
      </trkpt>
      <trkpt lat="44.44709" lon="6.40029">
        <ele>983.4</ele>
        <time>2021-08-09T11:37:07Z</time>
      </trkpt>
      <trkpt lat="44.44712" lon="6.40071">
        <ele>982.2</ele>
        <time>2021-08-09T11:37:10Z</time>
      </trkpt>
      <trkpt lat="44.44709" lon="6.40113">
        <ele>981</ele>
        <time>2021-08-09T11:37:13Z</time>
      </trkpt>
      <trkpt lat="44.44706" lon="6.40128">
        <ele>980.4</ele>
        <time>2021-08-09T11:37:14Z</time>
      </trkpt>
      <trkpt lat="44.44704" lon="6.40142">
        <ele>979.8</ele>
        <time>2021-08-09T11:37:15Z</time>
      </trkpt>
      <trkpt lat="44.44698" lon="6.40172">
        <ele>978.8</ele>
        <time>2021-08-09T11:37:17Z</time>
      </trkpt>
      <trkpt lat="44.44694" lon="6.40187">
        <ele>978</ele>
        <time>2021-08-09T11:37:18Z</time>
      </trkpt>
      <trkpt lat="44.44688" lon="6.40202">
        <ele>977.2</ele>
        <time>2021-08-09T11:37:19Z</time>
      </trkpt>
      <trkpt lat="44.44675" lon="6.40231">
        <ele>976</ele>
        <time>2021-08-09T11:37:21Z</time>
      </trkpt>
      <trkpt lat="44.44661" lon="6.40262">
        <ele>974.4</ele>
        <time>2021-08-09T11:37:23Z</time>
      </trkpt>
      <trkpt lat="44.44654" lon="6.40278">
        <ele>973.6</ele>
        <time>2021-08-09T11:37:24Z</time>
      </trkpt>
      <trkpt lat="44.44649" lon="6.40294">
        <ele>973</ele>
        <time>2021-08-09T11:37:25Z</time>
      </trkpt>
      <trkpt lat="44.4464" lon="6.40328">
        <ele>971.2</ele>
        <time>2021-08-09T11:37:27Z</time>
      </trkpt>
      <trkpt lat="44.44635" lon="6.40345">
        <ele>970.2</ele>
        <time>2021-08-09T11:37:28Z</time>
      </trkpt>
      <trkpt lat="44.44626" lon="6.40379">
        <ele>968.2</ele>
        <time>2021-08-09T11:37:30Z</time>
      </trkpt>
      <trkpt lat="44.44618" lon="6.40414">
        <ele>967</ele>
        <time>2021-08-09T11:37:32Z</time>
      </trkpt>
      <trkpt lat="44.44615" lon="6.40431">
        <ele>966.4</ele>
        <time>2021-08-09T11:37:33Z</time>
      </trkpt>
      <trkpt lat="44.44612" lon="6.40469">
        <ele>965.4</ele>
        <time>2021-08-09T11:37:35Z</time>
      </trkpt>
      <trkpt lat="44.44611" lon="6.40488">
        <ele>963.8</ele>
        <time>2021-08-09T11:37:36Z</time>
      </trkpt>
      <trkpt lat="44.4461" lon="6.40507">
        <ele>963</ele>
        <time>2021-08-09T11:37:37Z</time>
      </trkpt>
      <trkpt lat="44.44608" lon="6.40526">
        <ele>962.2</ele>
        <time>2021-08-09T11:37:38Z</time>
      </trkpt>
      <trkpt lat="44.44601" lon="6.40563">
        <ele>960.8</ele>
        <time>2021-08-09T11:37:40Z</time>
      </trkpt>
      <trkpt lat="44.4459" lon="6.40598">
        <ele>959.2</ele>
        <time>2021-08-09T11:37:42Z</time>
      </trkpt>
      <trkpt lat="44.44579" lon="6.40633">
        <ele>957.8</ele>
        <time>2021-08-09T11:37:44Z</time>
      </trkpt>
      <trkpt lat="44.44574" lon="6.40651">
        <ele>957.2</ele>
        <time>2021-08-09T11:37:45Z</time>
      </trkpt>
      <trkpt lat="44.4457" lon="6.40669">
        <ele>956.6</ele>
        <time>2021-08-09T11:37:46Z</time>
      </trkpt>
      <trkpt lat="44.44564" lon="6.40706">
        <ele>954.6</ele>
        <time>2021-08-09T11:37:48Z</time>
      </trkpt>
      <trkpt lat="44.44562" lon="6.40725">
        <ele>953.8</ele>
        <time>2021-08-09T11:37:49Z</time>
      </trkpt>
      <trkpt lat="44.44561" lon="6.40743">
        <ele>952.8</ele>
        <time>2021-08-09T11:37:50Z</time>
      </trkpt>
      <trkpt lat="44.44559" lon="6.4078">
        <ele>951.6</ele>
        <time>2021-08-09T11:37:52Z</time>
      </trkpt>
      <trkpt lat="44.44557" lon="6.40817">
        <ele>950.6</ele>
        <time>2021-08-09T11:37:54Z</time>
      </trkpt>
      <trkpt lat="44.44552" lon="6.40852">
        <ele>949</ele>
        <time>2021-08-09T11:37:56Z</time>
      </trkpt>
      <trkpt lat="44.44548" lon="6.40886">
        <ele>947.6</ele>
        <time>2021-08-09T11:37:58Z</time>
      </trkpt>
      <trkpt lat="44.44545" lon="6.40902">
        <ele>946.6</ele>
        <time>2021-08-09T11:37:59Z</time>
      </trkpt>
      <trkpt lat="44.44541" lon="6.40934">
        <ele>945.2</ele>
        <time>2021-08-09T11:38:01Z</time>
      </trkpt>
      <trkpt lat="44.44537" lon="6.40965">
        <ele>944</ele>
        <time>2021-08-09T11:38:03Z</time>
      </trkpt>
      <trkpt lat="44.44531" lon="6.41008">
        <ele>943.6</ele>
        <time>2021-08-09T11:38:06Z</time>
      </trkpt>
      <trkpt lat="44.44528" lon="6.41022">
        <ele>943.4</ele>
        <time>2021-08-09T11:38:07Z</time>
      </trkpt>
      <trkpt lat="44.44517" lon="6.41048">
        <ele>943.2</ele>
        <time>2021-08-09T11:38:09Z</time>
      </trkpt>
      <trkpt lat="44.44501" lon="6.41068">
        <ele>943</ele>
        <time>2021-08-09T11:38:11Z</time>
      </trkpt>
      <trkpt lat="44.44492" lon="6.41076">
        <ele>942.8</ele>
        <time>2021-08-09T11:38:12Z</time>
      </trkpt>
      <trkpt lat="44.44443" lon="6.41118">
        <ele>942.8</ele>
        <time>2021-08-09T11:38:17Z</time>
      </trkpt>
      <trkpt lat="44.44423" lon="6.41135">
        <ele>942.6</ele>
        <time>2021-08-09T11:38:19Z</time>
      </trkpt>
      <trkpt lat="44.4439" lon="6.41157">
        <ele>942</ele>
        <time>2021-08-09T11:38:22Z</time>
      </trkpt>
      <trkpt lat="44.44368" lon="6.4117">
        <ele>941</ele>
        <time>2021-08-09T11:38:24Z</time>
      </trkpt>
      <trkpt lat="44.44357" lon="6.41178">
        <ele>940.4</ele>
        <time>2021-08-09T11:38:25Z</time>
      </trkpt>
      <trkpt lat="44.44336" lon="6.41197">
        <ele>939.4</ele>
        <time>2021-08-09T11:38:27Z</time>
      </trkpt>
      <trkpt lat="44.44327" lon="6.41208">
        <ele>938.6</ele>
        <time>2021-08-09T11:38:28Z</time>
      </trkpt>
      <trkpt lat="44.44317" lon="6.41219">
        <ele>938.2</ele>
        <time>2021-08-09T11:38:29Z</time>
      </trkpt>
      <trkpt lat="44.44296" lon="6.41241">
        <ele>937.2</ele>
        <time>2021-08-09T11:38:31Z</time>
      </trkpt>
      <trkpt lat="44.44274" lon="6.4126">
        <ele>936.4</ele>
        <time>2021-08-09T11:38:33Z</time>
      </trkpt>
      <trkpt lat="44.44263" lon="6.41269">
        <ele>936</ele>
        <time>2021-08-09T11:38:34Z</time>
      </trkpt>
      <trkpt lat="44.4423" lon="6.41295">
        <ele>934.8</ele>
        <time>2021-08-09T11:38:37Z</time>
      </trkpt>
      <trkpt lat="44.44197" lon="6.41322">
        <ele>933.2</ele>
        <time>2021-08-09T11:38:40Z</time>
      </trkpt>
      <trkpt lat="44.44177" lon="6.41342">
        <ele>932</ele>
        <time>2021-08-09T11:38:42Z</time>
      </trkpt>
      <trkpt lat="44.44158" lon="6.41363">
        <ele>931.2</ele>
        <time>2021-08-09T11:38:44Z</time>
      </trkpt>
      <trkpt lat="44.4415" lon="6.41374">
        <ele>930.8</ele>
        <time>2021-08-09T11:38:45Z</time>
      </trkpt>
      <trkpt lat="44.44124" lon="6.41409">
        <ele>929.6</ele>
        <time>2021-08-09T11:38:48Z</time>
      </trkpt>
      <trkpt lat="44.44115" lon="6.41421">
        <ele>929.2</ele>
        <time>2021-08-09T11:38:49Z</time>
      </trkpt>
      <trkpt lat="44.44096" lon="6.41443">
        <ele>928.2</ele>
        <time>2021-08-09T11:38:51Z</time>
      </trkpt>
      <trkpt lat="44.44075" lon="6.41461">
        <ele>927.4</ele>
        <time>2021-08-09T11:38:53Z</time>
      </trkpt>
      <trkpt lat="44.44065" lon="6.4147">
        <ele>926.8</ele>
        <time>2021-08-09T11:38:54Z</time>
      </trkpt>
      <trkpt lat="44.44033" lon="6.41497">
        <ele>925.6</ele>
        <time>2021-08-09T11:38:57Z</time>
      </trkpt>
      <trkpt lat="44.44014" lon="6.41518">
        <ele>925.2</ele>
        <time>2021-08-09T11:38:59Z</time>
      </trkpt>
      <trkpt lat="44.43997" lon="6.4154">
        <ele>924.6</ele>
        <time>2021-08-09T11:39:01Z</time>
      </trkpt>
      <trkpt lat="44.43978" lon="6.4156">
        <ele>923.4</ele>
        <time>2021-08-09T11:39:03Z</time>
      </trkpt>
      <trkpt lat="44.4396" lon="6.41579">
        <ele>922.8</ele>
        <time>2021-08-09T11:39:05Z</time>
      </trkpt>
      <trkpt lat="44.4395" lon="6.41587">
        <ele>922.4</ele>
        <time>2021-08-09T11:39:06Z</time>
      </trkpt>
      <trkpt lat="44.43913" lon="6.41621">
        <ele>921.2</ele>
        <time>2021-08-09T11:39:10Z</time>
      </trkpt>
      <trkpt lat="44.43884" lon="6.41648">
        <ele>920</ele>
        <time>2021-08-09T11:39:13Z</time>
      </trkpt>
      <trkpt lat="44.43865" lon="6.41667">
        <ele>919</ele>
        <time>2021-08-09T11:39:15Z</time>
      </trkpt>
      <trkpt lat="44.43838" lon="6.417">
        <ele>917.8</ele>
        <time>2021-08-09T11:39:18Z</time>
      </trkpt>
      <trkpt lat="44.4382" lon="6.41723">
        <ele>916.6</ele>
        <time>2021-08-09T11:39:20Z</time>
      </trkpt>
      <trkpt lat="44.43786" lon="6.41766">
        <ele>915.4</ele>
        <time>2021-08-09T11:39:24Z</time>
      </trkpt>
      <trkpt lat="44.43778" lon="6.41776">
        <ele>914.8</ele>
        <time>2021-08-09T11:39:25Z</time>
      </trkpt>
      <trkpt lat="44.4377" lon="6.41785">
        <ele>914.4</ele>
        <time>2021-08-09T11:39:26Z</time>
      </trkpt>
      <trkpt lat="44.43763" lon="6.41794">
        <ele>914</ele>
        <time>2021-08-09T11:39:27Z</time>
      </trkpt>
      <trkpt lat="44.43749" lon="6.41811">
        <ele>913.4</ele>
        <time>2021-08-09T11:39:29Z</time>
      </trkpt>
      <trkpt lat="44.43736" lon="6.41828">
        <ele>913</ele>
        <time>2021-08-09T11:39:31Z</time>
      </trkpt>
      <trkpt lat="44.43719" lon="6.41852">
        <ele>913</ele>
        <time>2021-08-09T11:39:34Z</time>
      </trkpt>
      <trkpt lat="44.43711" lon="6.41871">
        <ele>913</ele>
        <time>2021-08-09T11:39:36Z</time>
      </trkpt>
      <trkpt lat="44.43699" lon="6.41916">
        <ele>914.2</ele>
        <time>2021-08-09T11:39:41Z</time>
      </trkpt>
      <trkpt lat="44.43697" lon="6.41925">
        <ele>914.4</ele>
        <time>2021-08-09T11:39:42Z</time>
      </trkpt>
      <trkpt lat="44.43696" lon="6.41934">
        <ele>914.8</ele>
        <time>2021-08-09T11:39:43Z</time>
      </trkpt>
      <trkpt lat="44.43696" lon="6.41951">
        <ele>915.6</ele>
        <time>2021-08-09T11:39:45Z</time>
      </trkpt>
      <trkpt lat="44.43697" lon="6.4196">
        <ele>916</ele>
        <time>2021-08-09T11:39:46Z</time>
      </trkpt>
      <trkpt lat="44.43702" lon="6.41985">
        <ele>917.6</ele>
        <time>2021-08-09T11:39:49Z</time>
      </trkpt>
      <trkpt lat="44.43703" lon="6.41994">
        <ele>918</ele>
        <time>2021-08-09T11:39:50Z</time>
      </trkpt>
      <trkpt lat="44.43706" lon="6.4201">
        <ele>918.6</ele>
        <time>2021-08-09T11:39:52Z</time>
      </trkpt>
      <trkpt lat="44.43709" lon="6.42042">
        <ele>919.4</ele>
        <time>2021-08-09T11:39:56Z</time>
      </trkpt>
      <trkpt lat="44.43708" lon="6.4205">
        <ele>919.8</ele>
        <time>2021-08-09T11:39:57Z</time>
      </trkpt>
      <trkpt lat="44.43706" lon="6.42064">
        <ele>920.8</ele>
        <time>2021-08-09T11:39:59Z</time>
      </trkpt>
      <trkpt lat="44.43702" lon="6.42078">
        <ele>921.4</ele>
        <time>2021-08-09T11:40:01Z</time>
      </trkpt>
      <trkpt lat="44.43699" lon="6.42085">
        <ele>921.8</ele>
        <time>2021-08-09T11:40:02Z</time>
      </trkpt>
      <trkpt lat="44.43689" lon="6.4211">
        <ele>923</ele>
        <time>2021-08-09T11:40:06Z</time>
      </trkpt>
      <trkpt lat="44.43681" lon="6.42129">
        <ele>923.8</ele>
        <time>2021-08-09T11:40:09Z</time>
      </trkpt>
      <trkpt lat="44.43679" lon="6.42136">
        <ele>924</ele>
        <time>2021-08-09T11:40:10Z</time>
      </trkpt>
      <trkpt lat="44.43666" lon="6.42166">
        <ele>925.4</ele>
        <time>2021-08-09T11:40:15Z</time>
      </trkpt>
      <trkpt lat="44.43661" lon="6.42179">
        <ele>925.8</ele>
        <time>2021-08-09T11:40:17Z</time>
      </trkpt>
      <trkpt lat="44.43654" lon="6.42198">
        <ele>926.6</ele>
        <time>2021-08-09T11:40:20Z</time>
      </trkpt>
      <trkpt lat="44.43648" lon="6.42217">
        <ele>926.8</ele>
        <time>2021-08-09T11:40:23Z</time>
      </trkpt>
      <trkpt lat="44.43638" lon="6.42244">
        <ele>927.6</ele>
        <time>2021-08-09T11:40:27Z</time>
      </trkpt>
      <trkpt lat="44.43629" lon="6.42264">
        <ele>927.6</ele>
        <time>2021-08-09T11:40:30Z</time>
      </trkpt>
      <trkpt lat="44.43609" lon="6.42295">
        <ele>928.2</ele>
        <time>2021-08-09T11:40:35Z</time>
      </trkpt>
      <trkpt lat="44.4357" lon="6.42324">
        <ele>928.2</ele>
        <time>2021-08-09T11:40:42Z</time>
      </trkpt>
      <trkpt lat="44.43534" lon="6.42357">
        <ele>927</ele>
        <time>2021-08-09T11:40:48Z</time>
      </trkpt>
      <trkpt lat="44.43529" lon="6.42364">
        <ele>926.8</ele>
        <time>2021-08-09T11:40:49Z</time>
      </trkpt>
      <trkpt lat="44.43507" lon="6.42391">
        <ele>925.6</ele>
        <time>2021-08-09T11:40:53Z</time>
      </trkpt>
      <trkpt lat="44.43495" lon="6.42404">
        <ele>925.4</ele>
        <time>2021-08-09T11:40:55Z</time>
      </trkpt>
      <trkpt lat="44.43483" lon="6.42415">
        <ele>924.6</ele>
        <time>2021-08-09T11:40:57Z</time>
      </trkpt>
      <trkpt lat="44.43452" lon="6.42445">
        <ele>924.2</ele>
        <time>2021-08-09T11:41:02Z</time>
      </trkpt>
      <trkpt lat="44.43412" lon="6.425">
        <ele>923.8</ele>
        <time>2021-08-09T11:41:09Z</time>
      </trkpt>
      <trkpt lat="44.43407" lon="6.42508">
        <ele>923.6</ele>
        <time>2021-08-09T11:41:10Z</time>
      </trkpt>
      <trkpt lat="44.43401" lon="6.42516">
        <ele>923.4</ele>
        <time>2021-08-09T11:41:11Z</time>
      </trkpt>
      <trkpt lat="44.43378" lon="6.42563">
        <ele>922.6</ele>
        <time>2021-08-09T11:41:16Z</time>
      </trkpt>
      <trkpt lat="44.43369" lon="6.42583">
        <ele>922.2</ele>
        <time>2021-08-09T11:41:18Z</time>
      </trkpt>
      <trkpt lat="44.43352" lon="6.4261">
        <ele>922</ele>
        <time>2021-08-09T11:41:21Z</time>
      </trkpt>
      <trkpt lat="44.43317" lon="6.42645">
        <ele>921.8</ele>
        <time>2021-08-09T11:41:26Z</time>
      </trkpt>
      <trkpt lat="44.43294" lon="6.42665">
        <ele>921.4</ele>
        <time>2021-08-09T11:41:29Z</time>
      </trkpt>
      <trkpt lat="44.43258" lon="6.42699">
        <ele>920.8</ele>
        <time>2021-08-09T11:41:34Z</time>
      </trkpt>
      <trkpt lat="44.43231" lon="6.42726">
        <ele>920.4</ele>
        <time>2021-08-09T11:41:38Z</time>
      </trkpt>
      <trkpt lat="44.43197" lon="6.42762">
        <ele>919.8</ele>
        <time>2021-08-09T11:41:43Z</time>
      </trkpt>
      <trkpt lat="44.43169" lon="6.4279">
        <ele>919.6</ele>
        <time>2021-08-09T11:41:47Z</time>
      </trkpt>
      <trkpt lat="44.43163" lon="6.42797">
        <ele>919.4</ele>
        <time>2021-08-09T11:41:48Z</time>
      </trkpt>
      <trkpt lat="44.43136" lon="6.42826">
        <ele>917.8</ele>
        <time>2021-08-09T11:41:52Z</time>
      </trkpt>
      <trkpt lat="44.43087" lon="6.42881">
        <ele>917</ele>
        <time>2021-08-09T11:41:59Z</time>
      </trkpt>
      <trkpt lat="44.4308" lon="6.42889">
        <ele>916.8</ele>
        <time>2021-08-09T11:42:00Z</time>
      </trkpt>
      <trkpt lat="44.43036" lon="6.42937">
        <ele>915.6</ele>
        <time>2021-08-09T11:42:06Z</time>
      </trkpt>
      <trkpt lat="44.43029" lon="6.42945">
        <ele>915.6</ele>
        <time>2021-08-09T11:42:07Z</time>
      </trkpt>
      <trkpt lat="44.43007" lon="6.42982">
        <ele>914.8</ele>
        <time>2021-08-09T11:42:11Z</time>
      </trkpt>
      <trkpt lat="44.42997" lon="6.43005">
        <ele>914.6</ele>
        <time>2021-08-09T11:42:13Z</time>
      </trkpt>
      <trkpt lat="44.42991" lon="6.43029">
        <ele>914.6</ele>
        <time>2021-08-09T11:42:15Z</time>
      </trkpt>
      <trkpt lat="44.42982" lon="6.43061">
        <ele>914.4</ele>
        <time>2021-08-09T11:42:18Z</time>
      </trkpt>
      <trkpt lat="44.42977" lon="6.43071">
        <ele>914.4</ele>
        <time>2021-08-09T11:42:19Z</time>
      </trkpt>
      <trkpt lat="44.42953" lon="6.43114">
        <ele>914.2</ele>
        <time>2021-08-09T11:42:24Z</time>
      </trkpt>
      <trkpt lat="44.42922" lon="6.4318">
        <ele>914.6</ele>
        <time>2021-08-09T11:42:31Z</time>
      </trkpt>
      <trkpt lat="44.42917" lon="6.43189">
        <ele>915</ele>
        <time>2021-08-09T11:42:32Z</time>
      </trkpt>
      <trkpt lat="44.42886" lon="6.43257">
        <ele>915.6</ele>
        <time>2021-08-09T11:42:39Z</time>
      </trkpt>
      <trkpt lat="44.42881" lon="6.43266">
        <ele>915.6</ele>
        <time>2021-08-09T11:42:40Z</time>
      </trkpt>
      <trkpt lat="44.42871" lon="6.43295">
        <ele>915</ele>
        <time>2021-08-09T11:42:43Z</time>
      </trkpt>
      <trkpt lat="44.42867" lon="6.43316">
        <ele>914</ele>
        <time>2021-08-09T11:42:45Z</time>
      </trkpt>
      <trkpt lat="44.42866" lon="6.43327">
        <ele>913.6</ele>
        <time>2021-08-09T11:42:46Z</time>
      </trkpt>
      <trkpt lat="44.42867" lon="6.4336">
        <ele>913.2</ele>
        <time>2021-08-09T11:42:49Z</time>
      </trkpt>
      <trkpt lat="44.42868" lon="6.4337">
        <ele>913.2</ele>
        <time>2021-08-09T11:42:50Z</time>
      </trkpt>
      <trkpt lat="44.42868" lon="6.4338">
        <ele>913</ele>
        <time>2021-08-09T11:42:51Z</time>
      </trkpt>
      <trkpt lat="44.42865" lon="6.434">
        <ele>913</ele>
        <time>2021-08-09T11:42:53Z</time>
      </trkpt>
      <trkpt lat="44.42857" lon="6.43416">
        <ele>913</ele>
        <time>2021-08-09T11:42:55Z</time>
      </trkpt>
      <trkpt lat="44.42849" lon="6.43433">
        <ele>913</ele>
        <time>2021-08-09T11:42:57Z</time>
      </trkpt>
      <trkpt lat="44.42846" lon="6.43442">
        <ele>912.8</ele>
        <time>2021-08-09T11:42:58Z</time>
      </trkpt>
      <trkpt lat="44.42836" lon="6.43476">
        <ele>912.2</ele>
        <time>2021-08-09T11:43:02Z</time>
      </trkpt>
      <trkpt lat="44.42817" lon="6.43512">
        <ele>912.2</ele>
        <time>2021-08-09T11:43:07Z</time>
      </trkpt>
      <trkpt lat="44.42784" lon="6.4358">
        <ele>913.6</ele>
        <time>2021-08-09T11:43:16Z</time>
      </trkpt>
      <trkpt lat="44.42765" lon="6.43606">
        <ele>913.8</ele>
        <time>2021-08-09T11:43:20Z</time>
      </trkpt>
      <trkpt lat="44.42759" lon="6.43611">
        <ele>914</ele>
        <time>2021-08-09T11:43:21Z</time>
      </trkpt>
      <trkpt lat="44.42717" lon="6.43654">
        <ele>914.4</ele>
        <time>2021-08-09T11:43:29Z</time>
      </trkpt>
      <trkpt lat="44.42682" lon="6.43682">
        <ele>914.8</ele>
        <time>2021-08-09T11:43:35Z</time>
      </trkpt>
      <trkpt lat="44.42676" lon="6.43685">
        <ele>915</ele>
        <time>2021-08-09T11:43:36Z</time>
      </trkpt>
      <trkpt lat="44.4262" lon="6.4371">
        <ele>915.2</ele>
        <time>2021-08-09T11:43:45Z</time>
      </trkpt>
      <trkpt lat="44.42585" lon="6.4374">
        <ele>914.6</ele>
        <time>2021-08-09T11:43:51Z</time>
      </trkpt>
      <trkpt lat="44.4258" lon="6.43745">
        <ele>914.6</ele>
        <time>2021-08-09T11:43:52Z</time>
      </trkpt>
      <trkpt lat="44.42573" lon="6.43756">
        <ele>914</ele>
        <time>2021-08-09T11:43:54Z</time>
      </trkpt>
      <trkpt lat="44.42557" lon="6.43767">
        <ele>913.8</ele>
        <time>2021-08-09T11:43:57Z</time>
      </trkpt>
      <trkpt lat="44.42531" lon="6.43797">
        <ele>913.4</ele>
        <time>2021-08-09T11:44:02Z</time>
      </trkpt>
      <trkpt lat="44.42504" lon="6.4384">
        <ele>912.6</ele>
        <time>2021-08-09T11:44:08Z</time>
      </trkpt>
      <trkpt lat="44.425" lon="6.43847">
        <ele>912.6</ele>
        <time>2021-08-09T11:44:09Z</time>
      </trkpt>
      <trkpt lat="44.42472" lon="6.43891">
        <ele>911.6</ele>
        <time>2021-08-09T11:44:15Z</time>
      </trkpt>
      <trkpt lat="44.42467" lon="6.43898">
        <ele>911.4</ele>
        <time>2021-08-09T11:44:16Z</time>
      </trkpt>
      <trkpt lat="44.42432" lon="6.43941">
        <ele>910.8</ele>
        <time>2021-08-09T11:44:23Z</time>
      </trkpt>
      <trkpt lat="44.42398" lon="6.43984">
        <ele>910.8</ele>
        <time>2021-08-09T11:44:30Z</time>
      </trkpt>
      <trkpt lat="44.42384" lon="6.44006">
        <ele>910.8</ele>
        <time>2021-08-09T11:44:33Z</time>
      </trkpt>
      <trkpt lat="44.42363" lon="6.44045">
        <ele>910.8</ele>
        <time>2021-08-09T11:44:38Z</time>
      </trkpt>
      <trkpt lat="44.42333" lon="6.44117">
        <ele>911.4</ele>
        <time>2021-08-09T11:44:47Z</time>
      </trkpt>
      <trkpt lat="44.42312" lon="6.44171">
        <ele>912.8</ele>
        <time>2021-08-09T11:44:54Z</time>
      </trkpt>
      <trkpt lat="44.42309" lon="6.44178">
        <ele>913.2</ele>
        <time>2021-08-09T11:44:55Z</time>
      </trkpt>
      <trkpt lat="44.42298" lon="6.44207">
        <ele>914.2</ele>
        <time>2021-08-09T11:44:59Z</time>
      </trkpt>
      <trkpt lat="44.42288" lon="6.44228">
        <ele>915.4</ele>
        <time>2021-08-09T11:45:02Z</time>
      </trkpt>
      <trkpt lat="44.42285" lon="6.44235">
        <ele>915.6</ele>
        <time>2021-08-09T11:45:03Z</time>
      </trkpt>
      <trkpt lat="44.42267" lon="6.44265">
        <ele>916.2</ele>
        <time>2021-08-09T11:45:08Z</time>
      </trkpt>
      <trkpt lat="44.42259" lon="6.44276">
        <ele>916.6</ele>
        <time>2021-08-09T11:45:10Z</time>
      </trkpt>
      <trkpt lat="44.42236" lon="6.443">
        <ele>917.2</ele>
        <time>2021-08-09T11:45:15Z</time>
      </trkpt>
      <trkpt lat="44.42199" lon="6.44327">
        <ele>917.6</ele>
        <time>2021-08-09T11:45:23Z</time>
      </trkpt>
      <trkpt lat="44.42179" lon="6.44338">
        <ele>917.8</ele>
        <time>2021-08-09T11:45:27Z</time>
      </trkpt>
      <trkpt lat="44.4215" lon="6.44355">
        <ele>918.8</ele>
        <time>2021-08-09T11:45:33Z</time>
      </trkpt>
      <trkpt lat="44.42116" lon="6.44376">
        <ele>920.2</ele>
        <time>2021-08-09T11:45:40Z</time>
      </trkpt>
      <trkpt lat="44.42082" lon="6.44396">
        <ele>921</ele>
        <time>2021-08-09T11:45:47Z</time>
      </trkpt>
      <trkpt lat="44.42077" lon="6.44399">
        <ele>921.2</ele>
        <time>2021-08-09T11:45:48Z</time>
      </trkpt>
      <trkpt lat="44.42033" lon="6.44428">
        <ele>922</ele>
        <time>2021-08-09T11:45:57Z</time>
      </trkpt>
      <trkpt lat="44.42029" lon="6.44432">
        <ele>922.2</ele>
        <time>2021-08-09T11:45:58Z</time>
      </trkpt>
      <trkpt lat="44.42024" lon="6.44435">
        <ele>922.4</ele>
        <time>2021-08-09T11:45:59Z</time>
      </trkpt>
      <trkpt lat="44.41995" lon="6.44463">
        <ele>923.4</ele>
        <time>2021-08-09T11:46:06Z</time>
      </trkpt>
      <trkpt lat="44.41987" lon="6.44473">
        <ele>923.6</ele>
        <time>2021-08-09T11:46:08Z</time>
      </trkpt>
      <trkpt lat="44.4197" lon="6.445">
        <ele>924</ele>
        <time>2021-08-09T11:46:13Z</time>
      </trkpt>
      <trkpt lat="44.41963" lon="6.44509">
        <ele>924.4</ele>
        <time>2021-08-09T11:46:15Z</time>
      </trkpt>
      <trkpt lat="44.41952" lon="6.44524">
        <ele>924.6</ele>
        <time>2021-08-09T11:46:18Z</time>
      </trkpt>
      <trkpt lat="44.41926" lon="6.4456">
        <ele>925.4</ele>
        <time>2021-08-09T11:46:25Z</time>
      </trkpt>
      <trkpt lat="44.4191" lon="6.44579">
        <ele>925.6</ele>
        <time>2021-08-09T11:46:29Z</time>
      </trkpt>
      <trkpt lat="44.41881" lon="6.4461">
        <ele>926.8</ele>
        <time>2021-08-09T11:46:36Z</time>
      </trkpt>
      <trkpt lat="44.41853" lon="6.4463">
        <ele>928</ele>
        <time>2021-08-09T11:46:42Z</time>
      </trkpt>
      <trkpt lat="44.41844" lon="6.44635">
        <ele>928.2</ele>
        <time>2021-08-09T11:46:44Z</time>
      </trkpt>
      <trkpt lat="44.41805" lon="6.44652">
        <ele>929.2</ele>
        <time>2021-08-09T11:46:52Z</time>
      </trkpt>
      <trkpt lat="44.418" lon="6.44654">
        <ele>929.4</ele>
        <time>2021-08-09T11:46:53Z</time>
      </trkpt>
      <trkpt lat="44.41751" lon="6.44671">
        <ele>930.2</ele>
        <time>2021-08-09T11:47:03Z</time>
      </trkpt>
      <trkpt lat="44.41716" lon="6.44689">
        <ele>931</ele>
        <time>2021-08-09T11:47:11Z</time>
      </trkpt>
      <trkpt lat="44.41707" lon="6.44693">
        <ele>931.4</ele>
        <time>2021-08-09T11:47:13Z</time>
      </trkpt>
      <trkpt lat="44.41685" lon="6.44702">
        <ele>932.6</ele>
        <time>2021-08-09T11:47:18Z</time>
      </trkpt>
      <trkpt lat="44.41667" lon="6.44709">
        <ele>933.2</ele>
        <time>2021-08-09T11:47:22Z</time>
      </trkpt>
      <trkpt lat="44.41644" lon="6.44718">
        <ele>933.8</ele>
        <time>2021-08-09T11:47:27Z</time>
      </trkpt>
      <trkpt lat="44.41626" lon="6.44726">
        <ele>934.4</ele>
        <time>2021-08-09T11:47:31Z</time>
      </trkpt>
      <trkpt lat="44.41604" lon="6.44736">
        <ele>934.8</ele>
        <time>2021-08-09T11:47:36Z</time>
      </trkpt>
      <trkpt lat="44.41599" lon="6.44738">
        <ele>935</ele>
        <time>2021-08-09T11:47:37Z</time>
      </trkpt>
      <trkpt lat="44.41591" lon="6.44741">
        <ele>935.2</ele>
        <time>2021-08-09T11:47:39Z</time>
      </trkpt>
      <trkpt lat="44.41569" lon="6.44749">
        <ele>935.8</ele>
        <time>2021-08-09T11:47:44Z</time>
      </trkpt>
      <trkpt lat="44.41545" lon="6.44756">
        <ele>936.6</ele>
        <time>2021-08-09T11:47:49Z</time>
      </trkpt>
      <trkpt lat="44.41531" lon="6.44758">
        <ele>937.2</ele>
        <time>2021-08-09T11:47:52Z</time>
      </trkpt>
      <trkpt lat="44.41503" lon="6.44762">
        <ele>937.6</ele>
        <time>2021-08-09T11:47:58Z</time>
      </trkpt>
      <trkpt lat="44.41465" lon="6.44769">
        <ele>938.2</ele>
        <time>2021-08-09T11:48:06Z</time>
      </trkpt>
      <trkpt lat="44.41461" lon="6.4477">
        <ele>938.2</ele>
        <time>2021-08-09T11:48:07Z</time>
      </trkpt>
      <trkpt lat="44.41423" lon="6.44777">
        <ele>939.2</ele>
        <time>2021-08-09T11:48:15Z</time>
      </trkpt>
      <trkpt lat="44.41418" lon="6.44778">
        <ele>939.4</ele>
        <time>2021-08-09T11:48:16Z</time>
      </trkpt>
      <trkpt lat="44.41375" lon="6.44789">
        <ele>940.2</ele>
        <time>2021-08-09T11:48:25Z</time>
      </trkpt>
      <trkpt lat="44.41371" lon="6.4479">
        <ele>940.4</ele>
        <time>2021-08-09T11:48:26Z</time>
      </trkpt>
      <trkpt lat="44.41338" lon="6.44804">
        <ele>941.4</ele>
        <time>2021-08-09T11:48:33Z</time>
      </trkpt>
      <trkpt lat="44.41312" lon="6.4482">
        <ele>941.8</ele>
        <time>2021-08-09T11:48:39Z</time>
      </trkpt>
      <trkpt lat="44.41303" lon="6.44825">
        <ele>942</ele>
        <time>2021-08-09T11:48:41Z</time>
      </trkpt>
      <trkpt lat="44.41279" lon="6.44844">
        <ele>942.8</ele>
        <time>2021-08-09T11:48:47Z</time>
      </trkpt>
      <trkpt lat="44.41267" lon="6.44856">
        <ele>943</ele>
        <time>2021-08-09T11:48:50Z</time>
      </trkpt>
      <trkpt lat="44.41241" lon="6.44884">
        <ele>944</ele>
        <time>2021-08-09T11:48:57Z</time>
      </trkpt>
      <trkpt lat="44.41231" lon="6.44898">
        <ele>944.4</ele>
        <time>2021-08-09T11:49:00Z</time>
      </trkpt>
      <trkpt lat="44.41218" lon="6.44918">
        <ele>945.2</ele>
        <time>2021-08-09T11:49:04Z</time>
      </trkpt>
      <trkpt lat="44.41207" lon="6.4494">
        <ele>945.6</ele>
        <time>2021-08-09T11:49:08Z</time>
      </trkpt>
      <trkpt lat="44.41193" lon="6.44973">
        <ele>946.4</ele>
        <time>2021-08-09T11:49:14Z</time>
      </trkpt>
      <trkpt lat="44.41175" lon="6.45029">
        <ele>946.6</ele>
        <time>2021-08-09T11:49:22Z</time>
      </trkpt>
      <trkpt lat="44.41161" lon="6.45078">
        <ele>946.6</ele>
        <time>2021-08-09T11:49:29Z</time>
      </trkpt>
      <trkpt lat="44.41148" lon="6.45123">
        <ele>946.4</ele>
        <time>2021-08-09T11:49:35Z</time>
      </trkpt>
      <trkpt lat="44.41136" lon="6.45161">
        <ele>946.6</ele>
        <time>2021-08-09T11:49:40Z</time>
      </trkpt>
      <trkpt lat="44.41119" lon="6.45207">
        <ele>946.6</ele>
        <time>2021-08-09T11:49:47Z</time>
      </trkpt>
      <trkpt lat="44.41099" lon="6.4525">
        <ele>947.6</ele>
        <time>2021-08-09T11:49:54Z</time>
      </trkpt>
      <trkpt lat="44.4107" lon="6.4529">
        <ele>947.6</ele>
        <time>2021-08-09T11:50:00Z</time>
      </trkpt>
      <trkpt lat="44.41033" lon="6.45326">
        <ele>946.6</ele>
        <time>2021-08-09T11:50:06Z</time>
      </trkpt>
      <trkpt lat="44.41" lon="6.45349">
        <ele>945.4</ele>
        <time>2021-08-09T11:50:10Z</time>
      </trkpt>
      <trkpt lat="44.40983" lon="6.4536">
        <ele>945</ele>
        <time>2021-08-09T11:50:12Z</time>
      </trkpt>
      <trkpt lat="44.40966" lon="6.45372">
        <ele>944.4</ele>
        <time>2021-08-09T11:50:14Z</time>
      </trkpt>
      <trkpt lat="44.4094" lon="6.45388">
        <ele>942.4</ele>
        <time>2021-08-09T11:50:17Z</time>
      </trkpt>
      <trkpt lat="44.40924" lon="6.45399">
        <ele>941</ele>
        <time>2021-08-09T11:50:19Z</time>
      </trkpt>
      <trkpt lat="44.40916" lon="6.45405">
        <ele>940.4</ele>
        <time>2021-08-09T11:50:20Z</time>
      </trkpt>
      <trkpt lat="44.40908" lon="6.4541">
        <ele>940</ele>
        <time>2021-08-09T11:50:21Z</time>
      </trkpt>
      <trkpt lat="44.40884" lon="6.45425">
        <ele>939</ele>
        <time>2021-08-09T11:50:24Z</time>
      </trkpt>
      <trkpt lat="44.40846" lon="6.45451">
        <ele>938</ele>
        <time>2021-08-09T11:50:29Z</time>
      </trkpt>
      <trkpt lat="44.40823" lon="6.45466">
        <ele>938</ele>
        <time>2021-08-09T11:50:32Z</time>
      </trkpt>
      <trkpt lat="44.40802" lon="6.45484">
        <ele>937.8</ele>
        <time>2021-08-09T11:50:35Z</time>
      </trkpt>
      <trkpt lat="44.40772" lon="6.45523">
        <ele>937.8</ele>
        <time>2021-08-09T11:50:40Z</time>
      </trkpt>
      <trkpt lat="44.40738" lon="6.45571">
        <ele>937.6</ele>
        <time>2021-08-09T11:50:46Z</time>
      </trkpt>
      <trkpt lat="44.40702" lon="6.45628">
        <ele>937.8</ele>
        <time>2021-08-09T11:50:53Z</time>
      </trkpt>
      <trkpt lat="44.40667" lon="6.45695">
        <ele>938.2</ele>
        <time>2021-08-09T11:51:01Z</time>
      </trkpt>
      <trkpt lat="44.40636" lon="6.45764">
        <ele>939.2</ele>
        <time>2021-08-09T11:51:09Z</time>
      </trkpt>
      <trkpt lat="44.40615" lon="6.45814">
        <ele>939.2</ele>
        <time>2021-08-09T11:51:15Z</time>
      </trkpt>
      <trkpt lat="44.406" lon="6.45844">
        <ele>939.4</ele>
        <time>2021-08-09T11:51:19Z</time>
      </trkpt>
      <trkpt lat="44.40565" lon="6.45901">
        <ele>940</ele>
        <time>2021-08-09T11:51:28Z</time>
      </trkpt>
      <trkpt lat="44.40561" lon="6.45907">
        <ele>940.2</ele>
        <time>2021-08-09T11:51:29Z</time>
      </trkpt>
      <trkpt lat="44.40545" lon="6.45936">
        <ele>941.4</ele>
        <time>2021-08-09T11:51:34Z</time>
      </trkpt>
      <trkpt lat="44.40537" lon="6.45954">
        <ele>941.6</ele>
        <time>2021-08-09T11:51:37Z</time>
      </trkpt>
      <trkpt lat="44.40531" lon="6.45966">
        <ele>942.6</ele>
        <time>2021-08-09T11:51:39Z</time>
      </trkpt>
      <trkpt lat="44.4052" lon="6.45998">
        <ele>944</ele>
        <time>2021-08-09T11:51:44Z</time>
      </trkpt>
      <trkpt lat="44.40518" lon="6.46004">
        <ele>944</ele>
        <time>2021-08-09T11:51:45Z</time>
      </trkpt>
      <trkpt lat="44.40501" lon="6.4605">
        <ele>945</ele>
        <time>2021-08-09T11:51:53Z</time>
      </trkpt>
      <trkpt lat="44.40495" lon="6.46066">
        <ele>945.6</ele>
        <time>2021-08-09T11:51:56Z</time>
      </trkpt>
      <trkpt lat="44.4049" lon="6.46081">
        <ele>946</ele>
        <time>2021-08-09T11:51:59Z</time>
      </trkpt>
      <trkpt lat="44.40476" lon="6.46118">
        <ele>947.2</ele>
        <time>2021-08-09T11:52:06Z</time>
      </trkpt>
      <trkpt lat="44.40472" lon="6.46128">
        <ele>947.6</ele>
        <time>2021-08-09T11:52:08Z</time>
      </trkpt>
      <trkpt lat="44.40456" lon="6.46164">
        <ele>948.4</ele>
        <time>2021-08-09T11:52:15Z</time>
      </trkpt>
      <trkpt lat="44.40445" lon="6.46183">
        <ele>949</ele>
        <time>2021-08-09T11:52:19Z</time>
      </trkpt>
      <trkpt lat="44.40434" lon="6.46201">
        <ele>949.4</ele>
        <time>2021-08-09T11:52:23Z</time>
      </trkpt>
      <trkpt lat="44.40418" lon="6.46222">
        <ele>949.6</ele>
        <time>2021-08-09T11:52:28Z</time>
      </trkpt>
      <trkpt lat="44.40405" lon="6.46238">
        <ele>950.6</ele>
        <time>2021-08-09T11:52:32Z</time>
      </trkpt>
      <trkpt lat="44.40383" lon="6.4626">
        <ele>951.6</ele>
        <time>2021-08-09T11:52:38Z</time>
      </trkpt>
      <trkpt lat="44.40372" lon="6.4627">
        <ele>952</ele>
        <time>2021-08-09T11:52:41Z</time>
      </trkpt>
      <trkpt lat="44.40341" lon="6.46297">
        <ele>952.6</ele>
        <time>2021-08-09T11:52:49Z</time>
      </trkpt>
      <trkpt lat="44.40326" lon="6.46313">
        <ele>953</ele>
        <time>2021-08-09T11:52:53Z</time>
      </trkpt>
      <trkpt lat="44.4031" lon="6.46333">
        <ele>953.2</ele>
        <time>2021-08-09T11:52:57Z</time>
      </trkpt>
      <trkpt lat="44.40306" lon="6.46338">
        <ele>953.2</ele>
        <time>2021-08-09T11:52:58Z</time>
      </trkpt>
      <trkpt lat="44.40283" lon="6.46374">
        <ele>953.6</ele>
        <time>2021-08-09T11:53:05Z</time>
      </trkpt>
      <trkpt lat="44.40265" lon="6.4641">
        <ele>953.6</ele>
        <time>2021-08-09T11:53:11Z</time>
      </trkpt>
      <trkpt lat="44.40244" lon="6.46466">
        <ele>953.2</ele>
        <time>2021-08-09T11:53:19Z</time>
      </trkpt>
      <trkpt lat="44.40231" lon="6.46525">
        <ele>952.4</ele>
        <time>2021-08-09T11:53:26Z</time>
      </trkpt>
      <trkpt lat="44.40229" lon="6.46534">
        <ele>952.2</ele>
        <time>2021-08-09T11:53:27Z</time>
      </trkpt>
      <trkpt lat="44.40225" lon="6.46583">
        <ele>951.2</ele>
        <time>2021-08-09T11:53:32Z</time>
      </trkpt>
      <trkpt lat="44.40224" lon="6.46594">
        <ele>951</ele>
        <time>2021-08-09T11:53:33Z</time>
      </trkpt>
      <trkpt lat="44.40221" lon="6.46636">
        <ele>950</ele>
        <time>2021-08-09T11:53:37Z</time>
      </trkpt>
      <trkpt lat="44.4022" lon="6.46646">
        <ele>950</ele>
        <time>2021-08-09T11:53:38Z</time>
      </trkpt>
      <trkpt lat="44.40209" lon="6.46709">
        <ele>949</ele>
        <time>2021-08-09T11:53:44Z</time>
      </trkpt>
      <trkpt lat="44.40203" lon="6.46729">
        <ele>949</ele>
        <time>2021-08-09T11:53:46Z</time>
      </trkpt>
      <trkpt lat="44.40189" lon="6.46775">
        <ele>949</ele>
        <time>2021-08-09T11:53:51Z</time>
      </trkpt>
      <trkpt lat="44.40171" lon="6.46829">
        <ele>949.8</ele>
        <time>2021-08-09T11:53:58Z</time>
      </trkpt>
      <trkpt lat="44.40168" lon="6.46836">
        <ele>949.8</ele>
        <time>2021-08-09T11:53:59Z</time>
      </trkpt>
      <trkpt lat="44.40159" lon="6.46863">
        <ele>951.2</ele>
        <time>2021-08-09T11:54:03Z</time>
      </trkpt>
      <trkpt lat="44.4015" lon="6.46889">
        <ele>952.6</ele>
        <time>2021-08-09T11:54:07Z</time>
      </trkpt>
      <trkpt lat="44.40142" lon="6.46912">
        <ele>953.6</ele>
        <time>2021-08-09T11:54:11Z</time>
      </trkpt>
      <trkpt lat="44.40133" lon="6.46933">
        <ele>954.8</ele>
        <time>2021-08-09T11:54:15Z</time>
      </trkpt>
      <trkpt lat="44.40131" lon="6.46938">
        <ele>955</ele>
        <time>2021-08-09T11:54:16Z</time>
      </trkpt>
      <trkpt lat="44.40122" lon="6.46957">
        <ele>956.2</ele>
        <time>2021-08-09T11:54:20Z</time>
      </trkpt>
      <trkpt lat="44.40112" lon="6.46973">
        <ele>957.2</ele>
        <time>2021-08-09T11:54:24Z</time>
      </trkpt>
      <trkpt lat="44.40109" lon="6.46977">
        <ele>957.8</ele>
        <time>2021-08-09T11:54:25Z</time>
      </trkpt>
      <trkpt lat="44.40098" lon="6.46992">
        <ele>958.8</ele>
        <time>2021-08-09T11:54:29Z</time>
      </trkpt>
      <trkpt lat="44.40088" lon="6.47003">
        <ele>959.6</ele>
        <time>2021-08-09T11:54:32Z</time>
      </trkpt>
      <trkpt lat="44.40085" lon="6.47006">
        <ele>959.8</ele>
        <time>2021-08-09T11:54:33Z</time>
      </trkpt>
      <trkpt lat="44.40069" lon="6.47021">
        <ele>960.8</ele>
        <time>2021-08-09T11:54:38Z</time>
      </trkpt>
      <trkpt lat="44.40054" lon="6.4703">
        <ele>961.6</ele>
        <time>2021-08-09T11:54:42Z</time>
      </trkpt>
      <trkpt lat="44.40051" lon="6.47033">
        <ele>961.8</ele>
        <time>2021-08-09T11:54:43Z</time>
      </trkpt>
      <trkpt lat="44.40038" lon="6.4704">
        <ele>963</ele>
        <time>2021-08-09T11:54:47Z</time>
      </trkpt>
      <trkpt lat="44.40024" lon="6.47046">
        <ele>964</ele>
        <time>2021-08-09T11:54:51Z</time>
      </trkpt>
      <trkpt lat="44.40021" lon="6.47047">
        <ele>964.2</ele>
        <time>2021-08-09T11:54:52Z</time>
      </trkpt>
      <trkpt lat="44.40003" lon="6.47053">
        <ele>965.2</ele>
        <time>2021-08-09T11:54:57Z</time>
      </trkpt>
      <trkpt lat="44.39986" lon="6.47058">
        <ele>966.4</ele>
        <time>2021-08-09T11:55:02Z</time>
      </trkpt>
      <trkpt lat="44.39982" lon="6.47059">
        <ele>966.6</ele>
        <time>2021-08-09T11:55:03Z</time>
      </trkpt>
      <trkpt lat="44.39965" lon="6.47066">
        <ele>967.4</ele>
        <time>2021-08-09T11:55:08Z</time>
      </trkpt>
      <trkpt lat="44.39962" lon="6.47067">
        <ele>967.6</ele>
        <time>2021-08-09T11:55:09Z</time>
      </trkpt>
      <trkpt lat="44.39952" lon="6.47073">
        <ele>968</ele>
        <time>2021-08-09T11:55:12Z</time>
      </trkpt>
      <trkpt lat="44.39942" lon="6.47079">
        <ele>968.6</ele>
        <time>2021-08-09T11:55:15Z</time>
      </trkpt>
      <trkpt lat="44.39919" lon="6.47096">
        <ele>969.4</ele>
        <time>2021-08-09T11:55:22Z</time>
      </trkpt>
      <trkpt lat="44.39913" lon="6.47102">
        <ele>969.8</ele>
        <time>2021-08-09T11:55:24Z</time>
      </trkpt>
      <trkpt lat="44.39902" lon="6.47115">
        <ele>970.8</ele>
        <time>2021-08-09T11:55:28Z</time>
      </trkpt>
      <trkpt lat="44.39893" lon="6.47126">
        <ele>971.2</ele>
        <time>2021-08-09T11:55:31Z</time>
      </trkpt>
      <trkpt lat="44.39876" lon="6.47154">
        <ele>972</ele>
        <time>2021-08-09T11:55:38Z</time>
      </trkpt>
      <trkpt lat="44.39872" lon="6.47163">
        <ele>972.2</ele>
        <time>2021-08-09T11:55:40Z</time>
      </trkpt>
      <trkpt lat="44.39862" lon="6.47184">
        <ele>973</ele>
        <time>2021-08-09T11:55:45Z</time>
      </trkpt>
      <trkpt lat="44.39851" lon="6.47211">
        <ele>973.8</ele>
        <time>2021-08-09T11:55:51Z</time>
      </trkpt>
      <trkpt lat="44.39846" lon="6.47225">
        <ele>974</ele>
        <time>2021-08-09T11:55:54Z</time>
      </trkpt>
      <trkpt lat="44.39838" lon="6.47244">
        <ele>974.8</ele>
        <time>2021-08-09T11:55:58Z</time>
      </trkpt>
      <trkpt lat="44.39834" lon="6.47253">
        <ele>975.2</ele>
        <time>2021-08-09T11:56:00Z</time>
      </trkpt>
      <trkpt lat="44.39815" lon="6.47301">
        <ele>975.8</ele>
        <time>2021-08-09T11:56:10Z</time>
      </trkpt>
      <trkpt lat="44.39807" lon="6.47321">
        <ele>976.2</ele>
        <time>2021-08-09T11:56:14Z</time>
      </trkpt>
      <trkpt lat="44.39798" lon="6.47341">
        <ele>976.4</ele>
        <time>2021-08-09T11:56:18Z</time>
      </trkpt>
      <trkpt lat="44.39793" lon="6.47352">
        <ele>976.6</ele>
        <time>2021-08-09T11:56:20Z</time>
      </trkpt>
      <trkpt lat="44.39782" lon="6.47374">
        <ele>977.2</ele>
        <time>2021-08-09T11:56:24Z</time>
      </trkpt>
      <trkpt lat="44.3977" lon="6.47394">
        <ele>977.8</ele>
        <time>2021-08-09T11:56:28Z</time>
      </trkpt>
      <trkpt lat="44.39753" lon="6.47419">
        <ele>978.2</ele>
        <time>2021-08-09T11:56:33Z</time>
      </trkpt>
      <trkpt lat="44.39734" lon="6.47445">
        <ele>978.8</ele>
        <time>2021-08-09T11:56:38Z</time>
      </trkpt>
      <trkpt lat="44.39703" lon="6.475">
        <ele>979.4</ele>
        <time>2021-08-09T11:56:47Z</time>
      </trkpt>
      <trkpt lat="44.39693" lon="6.47524">
        <ele>979.2</ele>
        <time>2021-08-09T11:56:50Z</time>
      </trkpt>
      <trkpt lat="44.39684" lon="6.4755">
        <ele>979.4</ele>
        <time>2021-08-09T11:56:53Z</time>
      </trkpt>
      <trkpt lat="44.39673" lon="6.4761">
        <ele>979</ele>
        <time>2021-08-09T11:56:59Z</time>
      </trkpt>
      <trkpt lat="44.3967" lon="6.47662">
        <ele>978.2</ele>
        <time>2021-08-09T11:57:04Z</time>
      </trkpt>
      <trkpt lat="44.3967" lon="6.47673">
        <ele>978.2</ele>
        <time>2021-08-09T11:57:05Z</time>
      </trkpt>
      <trkpt lat="44.39675" lon="6.47733">
        <ele>977.2</ele>
        <time>2021-08-09T11:57:10Z</time>
      </trkpt>
      <trkpt lat="44.39676" lon="6.47746">
        <ele>977</ele>
        <time>2021-08-09T11:57:11Z</time>
      </trkpt>
      <trkpt lat="44.39682" lon="6.47815">
        <ele>976.2</ele>
        <time>2021-08-09T11:57:16Z</time>
      </trkpt>
      <trkpt lat="44.39685" lon="6.47844">
        <ele>975.8</ele>
        <time>2021-08-09T11:57:18Z</time>
      </trkpt>
      <trkpt lat="44.39688" lon="6.47873">
        <ele>975</ele>
        <time>2021-08-09T11:57:20Z</time>
      </trkpt>
      <trkpt lat="44.39695" lon="6.47933">
        <ele>974.2</ele>
        <time>2021-08-09T11:57:24Z</time>
      </trkpt>
      <trkpt lat="44.39701" lon="6.47977">
        <ele>972.4</ele>
        <time>2021-08-09T11:57:27Z</time>
      </trkpt>
      <trkpt lat="44.39704" lon="6.48005">
        <ele>970.8</ele>
        <time>2021-08-09T11:57:29Z</time>
      </trkpt>
      <trkpt lat="44.39707" lon="6.48032">
        <ele>969.2</ele>
        <time>2021-08-09T11:57:31Z</time>
      </trkpt>
      <trkpt lat="44.3971" lon="6.48058">
        <ele>968</ele>
        <time>2021-08-09T11:57:33Z</time>
      </trkpt>
      <trkpt lat="44.39712" lon="6.4807">
        <ele>967.6</ele>
        <time>2021-08-09T11:57:34Z</time>
      </trkpt>
      <trkpt lat="44.39717" lon="6.48138">
        <ele>967.2</ele>
        <time>2021-08-09T11:57:40Z</time>
      </trkpt>
      <trkpt lat="44.39715" lon="6.48223">
        <ele>967.6</ele>
        <time>2021-08-09T11:57:48Z</time>
      </trkpt>
      <trkpt lat="44.39702" lon="6.48292">
        <ele>968.8</ele>
        <time>2021-08-09T11:57:55Z</time>
      </trkpt>
      <trkpt lat="44.39689" lon="6.48338">
        <ele>969.2</ele>
        <time>2021-08-09T11:58:00Z</time>
      </trkpt>
      <trkpt lat="44.39676" lon="6.48383">
        <ele>969.4</ele>
        <time>2021-08-09T11:58:05Z</time>
      </trkpt>
      <trkpt lat="44.39668" lon="6.4844">
        <ele>970.2</ele>
        <time>2021-08-09T11:58:11Z</time>
      </trkpt>
      <trkpt lat="44.39668" lon="6.48487">
        <ele>971.4</ele>
        <time>2021-08-09T11:58:16Z</time>
      </trkpt>
      <trkpt lat="44.3967" lon="6.48505">
        <ele>971.6</ele>
        <time>2021-08-09T11:58:18Z</time>
      </trkpt>
      <trkpt lat="44.39681" lon="6.48558">
        <ele>971.8</ele>
        <time>2021-08-09T11:58:24Z</time>
      </trkpt>
      <trkpt lat="44.397" lon="6.48604">
        <ele>972</ele>
        <time>2021-08-09T11:58:30Z</time>
      </trkpt>
      <trkpt lat="44.39718" lon="6.48636">
        <ele>972.6</ele>
        <time>2021-08-09T11:58:35Z</time>
      </trkpt>
      <trkpt lat="44.39722" lon="6.48642">
        <ele>972.8</ele>
        <time>2021-08-09T11:58:36Z</time>
      </trkpt>
      <trkpt lat="44.39744" lon="6.48671">
        <ele>973.8</ele>
        <time>2021-08-09T11:58:42Z</time>
      </trkpt>
      <trkpt lat="44.39751" lon="6.4868">
        <ele>974</ele>
        <time>2021-08-09T11:58:44Z</time>
      </trkpt>
      <trkpt lat="44.39765" lon="6.48697">
        <ele>974.8</ele>
        <time>2021-08-09T11:58:48Z</time>
      </trkpt>
      <trkpt lat="44.39777" lon="6.48714">
        <ele>975.6</ele>
        <time>2021-08-09T11:58:52Z</time>
      </trkpt>
      <trkpt lat="44.39779" lon="6.48718">
        <ele>975.8</ele>
        <time>2021-08-09T11:58:53Z</time>
      </trkpt>
      <trkpt lat="44.39786" lon="6.4873">
        <ele>976.8</ele>
        <time>2021-08-09T11:58:56Z</time>
      </trkpt>
      <trkpt lat="44.39795" lon="6.48747">
        <ele>978</ele>
        <time>2021-08-09T11:59:00Z</time>
      </trkpt>
      <trkpt lat="44.39798" lon="6.48756">
        <ele>978.4</ele>
        <time>2021-08-09T11:59:02Z</time>
      </trkpt>
      <trkpt lat="44.39806" lon="6.48778">
        <ele>979.2</ele>
        <time>2021-08-09T11:59:07Z</time>
      </trkpt>
      <trkpt lat="44.39809" lon="6.48795">
        <ele>980.2</ele>
        <time>2021-08-09T11:59:11Z</time>
      </trkpt>
      <trkpt lat="44.3981" lon="6.48799">
        <ele>980.4</ele>
        <time>2021-08-09T11:59:12Z</time>
      </trkpt>
      <trkpt lat="44.39817" lon="6.48826">
        <ele>981.4</ele>
        <time>2021-08-09T11:59:19Z</time>
      </trkpt>
      <trkpt lat="44.39818" lon="6.48834">
        <ele>981.8</ele>
        <time>2021-08-09T11:59:21Z</time>
      </trkpt>
      <trkpt lat="44.39821" lon="6.48857">
        <ele>982.6</ele>
        <time>2021-08-09T11:59:27Z</time>
      </trkpt>
      <trkpt lat="44.39823" lon="6.48876">
        <ele>983.8</ele>
        <time>2021-08-09T11:59:32Z</time>
      </trkpt>
      <trkpt lat="44.39824" lon="6.4888">
        <ele>984</ele>
        <time>2021-08-09T11:59:33Z</time>
      </trkpt>
      <trkpt lat="44.39827" lon="6.48915">
        <ele>984.8</ele>
        <time>2021-08-09T11:59:42Z</time>
      </trkpt>
      <trkpt lat="44.39829" lon="6.48942">
        <ele>986</ele>
        <time>2021-08-09T11:59:49Z</time>
      </trkpt>
      <trkpt lat="44.39829" lon="6.48946">
        <ele>986</ele>
        <time>2021-08-09T11:59:50Z</time>
      </trkpt>
      <trkpt lat="44.39831" lon="6.48965">
        <ele>987</ele>
        <time>2021-08-09T11:59:55Z</time>
      </trkpt>
      <trkpt lat="44.39832" lon="6.48981">
        <ele>987.6</ele>
        <time>2021-08-09T11:59:59Z</time>
      </trkpt>
      <trkpt lat="44.39834" lon="6.48997">
        <ele>988</ele>
        <time>2021-08-09T12:00:03Z</time>
      </trkpt>
      <trkpt lat="44.39835" lon="6.49018">
        <ele>988.4</ele>
        <time>2021-08-09T12:00:08Z</time>
      </trkpt>
      <trkpt lat="44.3984" lon="6.49051">
        <ele>989.2</ele>
        <time>2021-08-09T12:00:16Z</time>
      </trkpt>
      <trkpt lat="44.39841" lon="6.49056">
        <ele>989.2</ele>
        <time>2021-08-09T12:00:17Z</time>
      </trkpt>
      <trkpt lat="44.39843" lon="6.49076">
        <ele>990.2</ele>
        <time>2021-08-09T12:00:21Z</time>
      </trkpt>
      <trkpt lat="44.39845" lon="6.49098">
        <ele>990.8</ele>
        <time>2021-08-09T12:00:25Z</time>
      </trkpt>
      <trkpt lat="44.39847" lon="6.49123">
        <ele>991.4</ele>
        <time>2021-08-09T12:00:30Z</time>
      </trkpt>
      <trkpt lat="44.39848" lon="6.49132">
        <ele>991.8</ele>
        <time>2021-08-09T12:00:32Z</time>
      </trkpt>
      <trkpt lat="44.39851" lon="6.4916">
        <ele>992.6</ele>
        <time>2021-08-09T12:00:37Z</time>
      </trkpt>
      <trkpt lat="44.39853" lon="6.49176">
        <ele>992.8</ele>
        <time>2021-08-09T12:00:40Z</time>
      </trkpt>
      <trkpt lat="44.39856" lon="6.49203">
        <ele>993.6</ele>
        <time>2021-08-09T12:00:45Z</time>
      </trkpt>
      <trkpt lat="44.39858" lon="6.4922">
        <ele>994.2</ele>
        <time>2021-08-09T12:00:48Z</time>
      </trkpt>
      <trkpt lat="44.39862" lon="6.49254">
        <ele>994.6</ele>
        <time>2021-08-09T12:00:54Z</time>
      </trkpt>
      <trkpt lat="44.39864" lon="6.49282">
        <ele>995.4</ele>
        <time>2021-08-09T12:00:59Z</time>
      </trkpt>
      <trkpt lat="44.39863" lon="6.49293">
        <ele>995.8</ele>
        <time>2021-08-09T12:01:01Z</time>
      </trkpt>
      <trkpt lat="44.39862" lon="6.49331">
        <ele>996.8</ele>
        <time>2021-08-09T12:01:08Z</time>
      </trkpt>
      <trkpt lat="44.39867" lon="6.49368">
        <ele>997.8</ele>
        <time>2021-08-09T12:01:15Z</time>
      </trkpt>
      <trkpt lat="44.39868" lon="6.49373">
        <ele>998.2</ele>
        <time>2021-08-09T12:01:16Z</time>
      </trkpt>
      <trkpt lat="44.39881" lon="6.49406">
        <ele>998.8</ele>
        <time>2021-08-09T12:01:23Z</time>
      </trkpt>
      <trkpt lat="44.39886" lon="6.49414">
        <ele>999</ele>
        <time>2021-08-09T12:01:25Z</time>
      </trkpt>
      <trkpt lat="44.39897" lon="6.49429">
        <ele>1000.2</ele>
        <time>2021-08-09T12:01:29Z</time>
      </trkpt>
      <trkpt lat="44.39903" lon="6.49436">
        <ele>1000.4</ele>
        <time>2021-08-09T12:01:31Z</time>
      </trkpt>
      <trkpt lat="44.39922" lon="6.49451">
        <ele>1001</ele>
        <time>2021-08-09T12:01:37Z</time>
      </trkpt>
      <trkpt lat="44.39925" lon="6.49453">
        <ele>1001.2</ele>
        <time>2021-08-09T12:01:38Z</time>
      </trkpt>
      <trkpt lat="44.39947" lon="6.49462">
        <ele>1002.6</ele>
        <time>2021-08-09T12:01:44Z</time>
      </trkpt>
      <trkpt lat="44.39955" lon="6.49466">
        <ele>1003</ele>
        <time>2021-08-09T12:01:46Z</time>
      </trkpt>
      <trkpt lat="44.39975" lon="6.49481">
        <ele>1003.6</ele>
        <time>2021-08-09T12:01:52Z</time>
      </trkpt>
      <trkpt lat="44.39978" lon="6.49484">
        <ele>1003.8</ele>
        <time>2021-08-09T12:01:53Z</time>
      </trkpt>
      <trkpt lat="44.39993" lon="6.49508">
        <ele>1004.6</ele>
        <time>2021-08-09T12:01:59Z</time>
      </trkpt>
      <trkpt lat="44.39995" lon="6.49512">
        <ele>1004.6</ele>
        <time>2021-08-09T12:02:00Z</time>
      </trkpt>
      <trkpt lat="44.40014" lon="6.49552">
        <ele>1005.8</ele>
        <time>2021-08-09T12:02:09Z</time>
      </trkpt>
      <trkpt lat="44.40019" lon="6.49561">
        <ele>1006.2</ele>
        <time>2021-08-09T12:02:11Z</time>
      </trkpt>
      <trkpt lat="44.40036" lon="6.49598">
        <ele>1007</ele>
        <time>2021-08-09T12:02:19Z</time>
      </trkpt>
      <trkpt lat="44.40043" lon="6.49616">
        <ele>1007.2</ele>
        <time>2021-08-09T12:02:23Z</time>
      </trkpt>
      <trkpt lat="44.4005" lon="6.49647">
        <ele>1008</ele>
        <time>2021-08-09T12:02:29Z</time>
      </trkpt>
      <trkpt lat="44.40052" lon="6.49657">
        <ele>1008.2</ele>
        <time>2021-08-09T12:02:31Z</time>
      </trkpt>
      <trkpt lat="44.40054" lon="6.49683">
        <ele>1009</ele>
        <time>2021-08-09T12:02:36Z</time>
      </trkpt>
      <trkpt lat="44.40054" lon="6.49694">
        <ele>1009.2</ele>
        <time>2021-08-09T12:02:38Z</time>
      </trkpt>
      <trkpt lat="44.40055" lon="6.49721">
        <ele>1010.2</ele>
        <time>2021-08-09T12:02:43Z</time>
      </trkpt>
      <trkpt lat="44.40057" lon="6.49748">
        <ele>1010.8</ele>
        <time>2021-08-09T12:02:48Z</time>
      </trkpt>
      <trkpt lat="44.40058" lon="6.49764">
        <ele>1011.2</ele>
        <time>2021-08-09T12:02:51Z</time>
      </trkpt>
      <trkpt lat="44.40059" lon="6.49796">
        <ele>1011.8</ele>
        <time>2021-08-09T12:02:57Z</time>
      </trkpt>
      <trkpt lat="44.40059" lon="6.49831">
        <ele>1012.2</ele>
        <time>2021-08-09T12:03:04Z</time>
      </trkpt>
      <trkpt lat="44.40058" lon="6.49841">
        <ele>1012.6</ele>
        <time>2021-08-09T12:03:06Z</time>
      </trkpt>
      <trkpt lat="44.40058" lon="6.49862">
        <ele>1013.4</ele>
        <time>2021-08-09T12:03:10Z</time>
      </trkpt>
      <trkpt lat="44.40057" lon="6.49896">
        <ele>1014.2</ele>
        <time>2021-08-09T12:03:17Z</time>
      </trkpt>
      <trkpt lat="44.40057" lon="6.49901">
        <ele>1014.4</ele>
        <time>2021-08-09T12:03:18Z</time>
      </trkpt>
      <trkpt lat="44.4006" lon="6.49932">
        <ele>1015.6</ele>
        <time>2021-08-09T12:03:25Z</time>
      </trkpt>
      <trkpt lat="44.40069" lon="6.49973">
        <ele>1016.6</ele>
        <time>2021-08-09T12:03:34Z</time>
      </trkpt>
      <trkpt lat="44.40071" lon="6.49982">
        <ele>1016.8</ele>
        <time>2021-08-09T12:03:36Z</time>
      </trkpt>
      <trkpt lat="44.40077" lon="6.50027">
        <ele>1017.6</ele>
        <time>2021-08-09T12:03:46Z</time>
      </trkpt>
      <trkpt lat="44.40075" lon="6.50074">
        <ele>1018.6</ele>
        <time>2021-08-09T12:03:56Z</time>
      </trkpt>
      <trkpt lat="44.40075" lon="6.50079">
        <ele>1018.8</ele>
        <time>2021-08-09T12:03:57Z</time>
      </trkpt>
      <trkpt lat="44.40074" lon="6.50107">
        <ele>1019.8</ele>
        <time>2021-08-09T12:04:03Z</time>
      </trkpt>
      <trkpt lat="44.40073" lon="6.50125">
        <ele>1020.4</ele>
        <time>2021-08-09T12:04:07Z</time>
      </trkpt>
      <trkpt lat="44.40073" lon="6.50147">
        <ele>1021</ele>
        <time>2021-08-09T12:04:12Z</time>
      </trkpt>
      <trkpt lat="44.40071" lon="6.5017">
        <ele>1021.6</ele>
        <time>2021-08-09T12:04:17Z</time>
      </trkpt>
      <trkpt lat="44.40067" lon="6.50188">
        <ele>1022</ele>
        <time>2021-08-09T12:04:21Z</time>
      </trkpt>
      <trkpt lat="44.40061" lon="6.50205">
        <ele>1022.4</ele>
        <time>2021-08-09T12:04:25Z</time>
      </trkpt>
      <trkpt lat="44.40046" lon="6.50236">
        <ele>1023</ele>
        <time>2021-08-09T12:04:33Z</time>
      </trkpt>
      <trkpt lat="44.40041" lon="6.50243">
        <ele>1023</ele>
        <time>2021-08-09T12:04:35Z</time>
      </trkpt>
      <trkpt lat="44.40033" lon="6.50257">
        <ele>1024</ele>
        <time>2021-08-09T12:04:39Z</time>
      </trkpt>
      <trkpt lat="44.4003" lon="6.5026">
        <ele>1024.2</ele>
        <time>2021-08-09T12:04:40Z</time>
      </trkpt>
      <trkpt lat="44.40015" lon="6.50285">
        <ele>1025</ele>
        <time>2021-08-09T12:04:47Z</time>
      </trkpt>
      <trkpt lat="44.40009" lon="6.50295">
        <ele>1025</ele>
        <time>2021-08-09T12:04:50Z</time>
      </trkpt>
      <trkpt lat="44.40006" lon="6.50299">
        <ele>1025.2</ele>
        <time>2021-08-09T12:04:51Z</time>
      </trkpt>
      <trkpt lat="44.39995" lon="6.50317">
        <ele>1026</ele>
        <time>2021-08-09T12:04:56Z</time>
      </trkpt>
      <trkpt lat="44.39989" lon="6.50327">
        <ele>1026.2</ele>
        <time>2021-08-09T12:04:59Z</time>
      </trkpt>
      <trkpt lat="44.39982" lon="6.50342">
        <ele>1026.6</ele>
        <time>2021-08-09T12:05:03Z</time>
      </trkpt>
      <trkpt lat="44.3998" lon="6.50356">
        <ele>1027.2</ele>
        <time>2021-08-09T12:05:06Z</time>
      </trkpt>
      <trkpt lat="44.39978" lon="6.50374">
        <ele>1028.8</ele>
        <time>2021-08-09T12:05:10Z</time>
      </trkpt>
      <trkpt lat="44.39975" lon="6.50393">
        <ele>1030</ele>
        <time>2021-08-09T12:05:14Z</time>
      </trkpt>
      <trkpt lat="44.39972" lon="6.50415">
        <ele>1031.2</ele>
        <time>2021-08-09T12:05:19Z</time>
      </trkpt>
      <trkpt lat="44.39978" lon="6.5044">
        <ele>1032</ele>
        <time>2021-08-09T12:05:25Z</time>
      </trkpt>
      <trkpt lat="44.39982" lon="6.50448">
        <ele>1032.2</ele>
        <time>2021-08-09T12:05:27Z</time>
      </trkpt>
      <trkpt lat="44.39994" lon="6.50462">
        <ele>1033.2</ele>
        <time>2021-08-09T12:05:32Z</time>
      </trkpt>
      <trkpt lat="44.40007" lon="6.5047">
        <ele>1033.4</ele>
        <time>2021-08-09T12:05:36Z</time>
      </trkpt>
      <trkpt lat="44.40023" lon="6.50479">
        <ele>1034.2</ele>
        <time>2021-08-09T12:05:41Z</time>
      </trkpt>
      <trkpt lat="44.40032" lon="6.50484">
        <ele>1034.6</ele>
        <time>2021-08-09T12:05:44Z</time>
      </trkpt>
      <trkpt lat="44.40052" lon="6.50497">
        <ele>1035</ele>
        <time>2021-08-09T12:05:50Z</time>
      </trkpt>
      <trkpt lat="44.40068" lon="6.50514">
        <ele>1035.6</ele>
        <time>2021-08-09T12:05:56Z</time>
      </trkpt>
      <trkpt lat="44.4007" lon="6.50517">
        <ele>1035.6</ele>
        <time>2021-08-09T12:05:57Z</time>
      </trkpt>
      <trkpt lat="44.40086" lon="6.50545">
        <ele>1036</ele>
        <time>2021-08-09T12:06:04Z</time>
      </trkpt>
      <trkpt lat="44.40104" lon="6.50575">
        <ele>1036.6</ele>
        <time>2021-08-09T12:06:11Z</time>
      </trkpt>
      <trkpt lat="44.40123" lon="6.50613">
        <ele>1037.6</ele>
        <time>2021-08-09T12:06:19Z</time>
      </trkpt>
      <trkpt lat="44.40127" lon="6.50623">
        <ele>1037.8</ele>
        <time>2021-08-09T12:06:21Z</time>
      </trkpt>
      <trkpt lat="44.40138" lon="6.50664">
        <ele>1038.4</ele>
        <time>2021-08-09T12:06:29Z</time>
      </trkpt>
      <trkpt lat="44.40141" lon="6.50681">
        <ele>1038.8</ele>
        <time>2021-08-09T12:06:32Z</time>
      </trkpt>
      <trkpt lat="44.40142" lon="6.50709">
        <ele>1039.6</ele>
        <time>2021-08-09T12:06:37Z</time>
      </trkpt>
      <trkpt lat="44.40142" lon="6.5072">
        <ele>1039.8</ele>
        <time>2021-08-09T12:06:39Z</time>
      </trkpt>
      <trkpt lat="44.40147" lon="6.50753">
        <ele>1040.2</ele>
        <time>2021-08-09T12:06:45Z</time>
      </trkpt>
      <trkpt lat="44.40159" lon="6.50796">
        <ele>1040.8</ele>
        <time>2021-08-09T12:06:53Z</time>
      </trkpt>
      <trkpt lat="44.40161" lon="6.50806">
        <ele>1041.2</ele>
        <time>2021-08-09T12:06:55Z</time>
      </trkpt>
      <trkpt lat="44.40167" lon="6.5084">
        <ele>1041.8</ele>
        <time>2021-08-09T12:07:01Z</time>
      </trkpt>
      <trkpt lat="44.40167" lon="6.50845">
        <ele>1042</ele>
        <time>2021-08-09T12:07:02Z</time>
      </trkpt>
      <trkpt lat="44.40163" lon="6.50878">
        <ele>1042.8</ele>
        <time>2021-08-09T12:07:08Z</time>
      </trkpt>
      <trkpt lat="44.40162" lon="6.50884">
        <ele>1043</ele>
        <time>2021-08-09T12:07:09Z</time>
      </trkpt>
      <trkpt lat="44.40154" lon="6.50926">
        <ele>1044</ele>
        <time>2021-08-09T12:07:17Z</time>
      </trkpt>
      <trkpt lat="44.40153" lon="6.50937">
        <ele>1044</ele>
        <time>2021-08-09T12:07:19Z</time>
      </trkpt>
      <trkpt lat="44.40152" lon="6.5097">
        <ele>1044.6</ele>
        <time>2021-08-09T12:07:25Z</time>
      </trkpt>
      <trkpt lat="44.40153" lon="6.50991">
        <ele>1045</ele>
        <time>2021-08-09T12:07:29Z</time>
      </trkpt>
      <trkpt lat="44.40153" lon="6.51008">
        <ele>1045.2</ele>
        <time>2021-08-09T12:07:32Z</time>
      </trkpt>
      <trkpt lat="44.40154" lon="6.51021">
        <ele>1045.2</ele>
        <time>2021-08-09T12:07:34Z</time>
      </trkpt>
      <trkpt lat="44.40154" lon="6.51042">
        <ele>1045.2</ele>
        <time>2021-08-09T12:07:37Z</time>
      </trkpt>
      <trkpt lat="44.4016" lon="6.51096">
        <ele>1045.2</ele>
        <time>2021-08-09T12:07:44Z</time>
      </trkpt>
      <trkpt lat="44.40162" lon="6.51129">
        <ele>1045.2</ele>
        <time>2021-08-09T12:07:48Z</time>
      </trkpt>
      <trkpt lat="44.40161" lon="6.51146">
        <ele>1045</ele>
        <time>2021-08-09T12:07:50Z</time>
      </trkpt>
      <trkpt lat="44.40161" lon="6.51154">
        <ele>1045</ele>
        <time>2021-08-09T12:07:51Z</time>
      </trkpt>
      <trkpt lat="44.40152" lon="6.512">
        <ele>1045.4</ele>
        <time>2021-08-09T12:07:57Z</time>
      </trkpt>
      <trkpt lat="44.40139" lon="6.51254">
        <ele>1045.6</ele>
        <time>2021-08-09T12:08:05Z</time>
      </trkpt>
      <trkpt lat="44.40124" lon="6.51317">
        <ele>1045.6</ele>
        <time>2021-08-09T12:08:14Z</time>
      </trkpt>
      <trkpt lat="44.40122" lon="6.51321">
        <ele>1045.6</ele>
        <time>2021-08-09T12:08:15Z</time>
      </trkpt>
      <trkpt lat="44.4012" lon="6.51322">
        <ele>1045.6</ele>
        <time>2021-08-09T12:08:16Z</time>
      </trkpt>
      <trkpt lat="44.40119" lon="6.51312">
        <ele>1045.6</ele>
        <time>2021-08-09T12:08:19Z</time>
      </trkpt>
      <trkpt lat="44.40121" lon="6.51307">
        <ele>1045.6</ele>
        <time>2021-08-09T12:08:20Z</time>
      </trkpt>
      <trkpt lat="44.40122" lon="6.51301">
        <ele>1045.6</ele>
        <time>2021-08-09T12:08:21Z</time>
      </trkpt>
      <trkpt lat="44.40125" lon="6.51282">
        <ele>1045.6</ele>
        <time>2021-08-09T12:08:24Z</time>
      </trkpt>
      <trkpt lat="44.40128" lon="6.5125">
        <ele>1044.6</ele>
        <time>2021-08-09T12:08:28Z</time>
      </trkpt>
      <trkpt lat="44.40127" lon="6.51242">
        <ele>1043.6</ele>
        <time>2021-08-09T12:08:29Z</time>
      </trkpt>
      <trkpt lat="44.40111" lon="6.51223">
        <ele>1042.2</ele>
        <time>2021-08-09T12:08:32Z</time>
      </trkpt>
      <trkpt lat="44.40089" lon="6.5122">
        <ele>1040.8</ele>
        <time>2021-08-09T12:08:35Z</time>
      </trkpt>
      <trkpt lat="44.40079" lon="6.51232">
        <ele>1039.2</ele>
        <time>2021-08-09T12:08:37Z</time>
      </trkpt>
      <trkpt lat="44.40073" lon="6.51249">
        <ele>1038.6</ele>
        <time>2021-08-09T12:08:39Z</time>
      </trkpt>
      <trkpt lat="44.40068" lon="6.51265">
        <ele>1038</ele>
        <time>2021-08-09T12:08:41Z</time>
      </trkpt>
      <trkpt lat="44.40066" lon="6.51274">
        <ele>1037.6</ele>
        <time>2021-08-09T12:08:42Z</time>
      </trkpt>
      <trkpt lat="44.40061" lon="6.51293">
        <ele>1037.4</ele>
        <time>2021-08-09T12:08:44Z</time>
      </trkpt>
      <trkpt lat="44.40058" lon="6.51313">
        <ele>1037.4</ele>
        <time>2021-08-09T12:08:46Z</time>
      </trkpt>
      <trkpt lat="44.40058" lon="6.51332">
        <ele>1037.2</ele>
        <time>2021-08-09T12:08:48Z</time>
      </trkpt>
      <trkpt lat="44.40058" lon="6.51359">
        <ele>1037</ele>
        <time>2021-08-09T12:08:51Z</time>
      </trkpt>
      <trkpt lat="44.40059" lon="6.51367">
        <ele>1036.8</ele>
        <time>2021-08-09T12:08:52Z</time>
      </trkpt>
      <trkpt lat="44.40061" lon="6.51382">
        <ele>1036.8</ele>
        <time>2021-08-09T12:08:54Z</time>
      </trkpt>
      <trkpt lat="44.40065" lon="6.51397">
        <ele>1036.8</ele>
        <time>2021-08-09T12:08:56Z</time>
      </trkpt>
      <trkpt lat="44.4007" lon="6.51426">
        <ele>1036.8</ele>
        <time>2021-08-09T12:09:01Z</time>
      </trkpt>
      <trkpt lat="44.40077" lon="6.51465">
        <ele>1037.6</ele>
        <time>2021-08-09T12:09:07Z</time>
      </trkpt>
      <trkpt lat="44.4008" lon="6.51486">
        <ele>1037.8</ele>
        <time>2021-08-09T12:09:10Z</time>
      </trkpt>
      <trkpt lat="44.4008" lon="6.51494">
        <ele>1038</ele>
        <time>2021-08-09T12:09:11Z</time>
      </trkpt>
      <trkpt lat="44.40079" lon="6.51517">
        <ele>1038.4</ele>
        <time>2021-08-09T12:09:14Z</time>
      </trkpt>
      <trkpt lat="44.40073" lon="6.51559">
        <ele>1038.8</ele>
        <time>2021-08-09T12:09:20Z</time>
      </trkpt>
      <trkpt lat="44.40063" lon="6.51603">
        <ele>1039.2</ele>
        <time>2021-08-09T12:09:27Z</time>
      </trkpt>
      <trkpt lat="44.40059" lon="6.51616">
        <ele>1039.4</ele>
        <time>2021-08-09T12:09:29Z</time>
      </trkpt>
      <trkpt lat="44.40045" lon="6.51648">
        <ele>1039.8</ele>
        <time>2021-08-09T12:09:33Z</time>
      </trkpt>
      <trkpt lat="44.40041" lon="6.51658">
        <ele>1039.8</ele>
        <time>2021-08-09T12:09:34Z</time>
      </trkpt>
      <trkpt lat="44.40035" lon="6.51681">
        <ele>1039.8</ele>
        <time>2021-08-09T12:09:36Z</time>
      </trkpt>
      <trkpt lat="44.40029" lon="6.51703">
        <ele>1039.8</ele>
        <time>2021-08-09T12:09:38Z</time>
      </trkpt>
      <trkpt lat="44.40025" lon="6.51713">
        <ele>1039.8</ele>
        <time>2021-08-09T12:09:39Z</time>
      </trkpt>
      <trkpt lat="44.40022" lon="6.51722">
        <ele>1039.8</ele>
        <time>2021-08-09T12:09:40Z</time>
      </trkpt>
      <trkpt lat="44.40017" lon="6.51748">
        <ele>1036.6</ele>
        <time>2021-08-09T12:09:43Z</time>
      </trkpt>
      <trkpt lat="44.40016" lon="6.51757">
        <ele>1036.2</ele>
        <time>2021-08-09T12:09:44Z</time>
      </trkpt>
      <trkpt lat="44.40017" lon="6.51784">
        <ele>1035.8</ele>
        <time>2021-08-09T12:09:47Z</time>
      </trkpt>
      <trkpt lat="44.40012" lon="6.51815">
        <ele>1035.8</ele>
        <time>2021-08-09T12:09:51Z</time>
      </trkpt>
      <trkpt lat="44.4" lon="6.51842">
        <ele>1036</ele>
        <time>2021-08-09T12:09:55Z</time>
      </trkpt>
      <trkpt lat="44.39995" lon="6.51854">
        <ele>1036</ele>
        <time>2021-08-09T12:09:57Z</time>
      </trkpt>
      <trkpt lat="44.39986" lon="6.51871">
        <ele>1036.2</ele>
        <time>2021-08-09T12:10:00Z</time>
      </trkpt>
      <trkpt lat="44.39981" lon="6.51884">
        <ele>1036.2</ele>
        <time>2021-08-09T12:10:02Z</time>
      </trkpt>
      <trkpt lat="44.39977" lon="6.51906">
        <ele>1036.4</ele>
        <time>2021-08-09T12:10:05Z</time>
      </trkpt>
      <trkpt lat="44.39969" lon="6.5195">
        <ele>1037.4</ele>
        <time>2021-08-09T12:10:12Z</time>
      </trkpt>
      <trkpt lat="44.39966" lon="6.51961">
        <ele>1037.8</ele>
        <time>2021-08-09T12:10:14Z</time>
      </trkpt>
      <trkpt lat="44.39959" lon="6.51986">
        <ele>1038.4</ele>
        <time>2021-08-09T12:10:19Z</time>
      </trkpt>
      <trkpt lat="44.39957" lon="6.52011">
        <ele>1038.4</ele>
        <time>2021-08-09T12:10:23Z</time>
      </trkpt>
      <trkpt lat="44.39958" lon="6.52017">
        <ele>1038.4</ele>
        <time>2021-08-09T12:10:24Z</time>
      </trkpt>
      <trkpt lat="44.39964" lon="6.52037">
        <ele>1038.6</ele>
        <time>2021-08-09T12:10:28Z</time>
      </trkpt>
      <trkpt lat="44.39966" lon="6.52041">
        <ele>1038.6</ele>
        <time>2021-08-09T12:10:29Z</time>
      </trkpt>
      <trkpt lat="44.39971" lon="6.52068">
        <ele>1038.8</ele>
        <time>2021-08-09T12:10:34Z</time>
      </trkpt>
      <trkpt lat="44.39972" lon="6.52073">
        <ele>1039</ele>
        <time>2021-08-09T12:10:35Z</time>
      </trkpt>
      <trkpt lat="44.39972" lon="6.52085">
        <ele>1039.8</ele>
        <time>2021-08-09T12:10:37Z</time>
      </trkpt>
      <trkpt lat="44.39973" lon="6.52106">
        <ele>1040.4</ele>
        <time>2021-08-09T12:10:41Z</time>
      </trkpt>
      <trkpt lat="44.39978" lon="6.5215">
        <ele>1040.8</ele>
        <time>2021-08-09T12:10:48Z</time>
      </trkpt>
      <trkpt lat="44.39979" lon="6.52171">
        <ele>1041</ele>
        <time>2021-08-09T12:10:51Z</time>
      </trkpt>
      <trkpt lat="44.39979" lon="6.52192">
        <ele>1041</ele>
        <time>2021-08-09T12:10:54Z</time>
      </trkpt>
      <trkpt lat="44.39982" lon="6.52246">
        <ele>1041</ele>
        <time>2021-08-09T12:11:02Z</time>
      </trkpt>
      <trkpt lat="44.39982" lon="6.52252">
        <ele>1041</ele>
        <time>2021-08-09T12:11:03Z</time>
      </trkpt>
      <trkpt lat="44.39981" lon="6.52259">
        <ele>1041</ele>
        <time>2021-08-09T12:11:04Z</time>
      </trkpt>
      <trkpt lat="44.39979" lon="6.52282">
        <ele>1041.4</ele>
        <time>2021-08-09T12:11:08Z</time>
      </trkpt>
      <trkpt lat="44.39977" lon="6.52301">
        <ele>1041.8</ele>
        <time>2021-08-09T12:11:11Z</time>
      </trkpt>
      <trkpt lat="44.39975" lon="6.52322">
        <ele>1042</ele>
        <time>2021-08-09T12:11:14Z</time>
      </trkpt>
      <trkpt lat="44.39974" lon="6.52334">
        <ele>1042</ele>
        <time>2021-08-09T12:11:16Z</time>
      </trkpt>
      <trkpt lat="44.39972" lon="6.52355">
        <ele>1042.2</ele>
        <time>2021-08-09T12:11:20Z</time>
      </trkpt>
      <trkpt lat="44.39965" lon="6.52392">
        <ele>1042.6</ele>
        <time>2021-08-09T12:11:27Z</time>
      </trkpt>
      <trkpt lat="44.39964" lon="6.52397">
        <ele>1042.6</ele>
        <time>2021-08-09T12:11:28Z</time>
      </trkpt>
      <trkpt lat="44.39961" lon="6.52408">
        <ele>1043.2</ele>
        <time>2021-08-09T12:11:30Z</time>
      </trkpt>
      <trkpt lat="44.39957" lon="6.52422">
        <ele>1043.4</ele>
        <time>2021-08-09T12:11:33Z</time>
      </trkpt>
      <trkpt lat="44.39951" lon="6.52452">
        <ele>1044</ele>
        <time>2021-08-09T12:11:39Z</time>
      </trkpt>
      <trkpt lat="44.39947" lon="6.52468">
        <ele>1044.2</ele>
        <time>2021-08-09T12:11:42Z</time>
      </trkpt>
      <trkpt lat="44.39944" lon="6.5248">
        <ele>1044.4</ele>
        <time>2021-08-09T12:11:44Z</time>
      </trkpt>
      <trkpt lat="44.39937" lon="6.52519">
        <ele>1044.8</ele>
        <time>2021-08-09T12:11:51Z</time>
      </trkpt>
      <trkpt lat="44.39931" lon="6.52552">
        <ele>1045.4</ele>
        <time>2021-08-09T12:11:57Z</time>
      </trkpt>
      <trkpt lat="44.39928" lon="6.5257">
        <ele>1045.6</ele>
        <time>2021-08-09T12:12:00Z</time>
      </trkpt>
      <trkpt lat="44.39925" lon="6.52589">
        <ele>1045.6</ele>
        <time>2021-08-09T12:12:03Z</time>
      </trkpt>
      <trkpt lat="44.3992" lon="6.52621">
        <ele>1046.6</ele>
        <time>2021-08-09T12:12:08Z</time>
      </trkpt>
      <trkpt lat="44.39918" lon="6.52633">
        <ele>1046.6</ele>
        <time>2021-08-09T12:12:10Z</time>
      </trkpt>
      <trkpt lat="44.39917" lon="6.52639">
        <ele>1046.6</ele>
        <time>2021-08-09T12:12:11Z</time>
      </trkpt>
      <trkpt lat="44.3991" lon="6.52672">
        <ele>1047.6</ele>
        <time>2021-08-09T12:12:18Z</time>
      </trkpt>
      <trkpt lat="44.39909" lon="6.52676">
        <ele>1047.6</ele>
        <time>2021-08-09T12:12:19Z</time>
      </trkpt>
      <trkpt lat="44.39902" lon="6.52697">
        <ele>1048.8</ele>
        <time>2021-08-09T12:12:24Z</time>
      </trkpt>
      <trkpt lat="44.399" lon="6.52701">
        <ele>1048.8</ele>
        <time>2021-08-09T12:12:25Z</time>
      </trkpt>
      <trkpt lat="44.39892" lon="6.52722">
        <ele>1049.4</ele>
        <time>2021-08-09T12:12:31Z</time>
      </trkpt>
      <trkpt lat="44.39886" lon="6.52734">
        <ele>1049.8</ele>
        <time>2021-08-09T12:12:35Z</time>
      </trkpt>
      <trkpt lat="44.39881" lon="6.52744">
        <ele>1050.6</ele>
        <time>2021-08-09T12:12:38Z</time>
      </trkpt>
      <trkpt lat="44.39877" lon="6.5275">
        <ele>1051</ele>
        <time>2021-08-09T12:12:40Z</time>
      </trkpt>
      <trkpt lat="44.39873" lon="6.52764">
        <ele>1051.6</ele>
        <time>2021-08-09T12:12:44Z</time>
      </trkpt>
      <trkpt lat="44.39871" lon="6.52771">
        <ele>1052</ele>
        <time>2021-08-09T12:12:46Z</time>
      </trkpt>
      <trkpt lat="44.39869" lon="6.5279">
        <ele>1053.2</ele>
        <time>2021-08-09T12:12:51Z</time>
      </trkpt>
      <trkpt lat="44.39869" lon="6.52794">
        <ele>1053.4</ele>
        <time>2021-08-09T12:12:52Z</time>
      </trkpt>
      <trkpt lat="44.39867" lon="6.52809">
        <ele>1054.2</ele>
        <time>2021-08-09T12:12:56Z</time>
      </trkpt>
      <trkpt lat="44.39864" lon="6.52815">
        <ele>1054.2</ele>
        <time>2021-08-09T12:12:58Z</time>
      </trkpt>
      <trkpt lat="44.39853" lon="6.52826">
        <ele>1054.6</ele>
        <time>2021-08-09T12:13:02Z</time>
      </trkpt>
      <trkpt lat="44.39849" lon="6.5283">
        <ele>1054.6</ele>
        <time>2021-08-09T12:13:03Z</time>
      </trkpt>
      <trkpt lat="44.39844" lon="6.52836">
        <ele>1055</ele>
        <time>2021-08-09T12:13:05Z</time>
      </trkpt>
      <trkpt lat="44.39841" lon="6.52836">
        <ele>1055.2</ele>
        <time>2021-08-09T12:13:07Z</time>
      </trkpt>
      <trkpt lat="44.39838" lon="6.5284">
        <ele>1055.4</ele>
        <time>2021-08-09T12:13:10Z</time>
      </trkpt>
      <trkpt lat="44.39838" lon="6.52843">
        <ele>1055.4</ele>
        <time>2021-08-09T12:13:11Z</time>
      </trkpt>
      <trkpt lat="44.3983" lon="6.52856">
        <ele>1055.8</ele>
        <time>2021-08-09T12:13:16Z</time>
      </trkpt>
      <trkpt lat="44.39819" lon="6.52872">
        <ele>1056.6</ele>
        <time>2021-08-09T12:13:21Z</time>
      </trkpt>
      <trkpt lat="44.39816" lon="6.5288">
        <ele>1056.8</ele>
        <time>2021-08-09T12:13:23Z</time>
      </trkpt>
      <trkpt lat="44.39808" lon="6.52901">
        <ele>1057</ele>
        <time>2021-08-09T12:13:29Z</time>
      </trkpt>
      <trkpt lat="44.39797" lon="6.5292">
        <ele>1057.2</ele>
        <time>2021-08-09T12:13:35Z</time>
      </trkpt>
      <trkpt lat="44.39785" lon="6.5294">
        <ele>1057.6</ele>
        <time>2021-08-09T12:13:41Z</time>
      </trkpt>
      <trkpt lat="44.39772" lon="6.52966">
        <ele>1057.8</ele>
        <time>2021-08-09T12:13:48Z</time>
      </trkpt>
      <trkpt lat="44.39765" lon="6.52987">
        <ele>1057.8</ele>
        <time>2021-08-09T12:13:53Z</time>
      </trkpt>
      <trkpt lat="44.39768" lon="6.53002">
        <ele>1057.8</ele>
        <time>2021-08-09T12:13:57Z</time>
      </trkpt>
      <trkpt lat="44.3977" lon="6.53003">
        <ele>1057.8</ele>
        <time>2021-08-09T12:13:58Z</time>
      </trkpt>
      <trkpt lat="44.39773" lon="6.53002">
        <ele>1057.8</ele>
        <time>2021-08-09T12:14:00Z</time>
      </trkpt>
      <trkpt lat="44.39773" lon="6.52999">
        <ele>1057.8</ele>
        <time>2021-08-09T12:14:02Z</time>
      </trkpt>
      <trkpt lat="44.39774" lon="6.52999">
        <ele>1058</ele>
        <time>2021-08-09T12:14:04Z</time>
      </trkpt>
      <trkpt lat="44.39774" lon="6.53002">
        <ele>1058.8</ele>
        <time>2021-08-09T12:15:29Z</time>
      </trkpt>
      <trkpt lat="44.39775" lon="6.53002">
        <ele>1058.8</ele>
        <time>2021-08-09T12:15:31Z</time>
      </trkpt>
    </trkseg>
  </trk>
</gpx>